<?xml version='1.0' encoding='UTF-8'?><gpx version="1.1" creator="JPX - https://github.com/jenetics/jpx" xmlns="http://www.topografix.com/GPX/1/1"><trk><trkseg><trkpt lat="33.9124767" lon="8.113525"><ele>70.0</ele><time>2026-04-24T07:16:20.309Z</time></trkpt><trkpt lat="33.9125083" lon="8.1135983"><ele>70.0</ele><time>2026-04-24T07:17:42.81Z</time></trkpt><trkpt lat="33.9125867" lon="8.1137583"><ele>70.0</ele><time>2026-04-24T07:27:20.474Z</time></trkpt><trkpt lat="33.9160474" lon="8.1124715"><ele>84.0</ele><time>2026-04-24T07:30:25.853Z</time></trkpt><trkpt lat="33.9168162" lon="8.1115102"><ele>86.0</ele><time>2026-04-24T07:30:32.867Z</time></trkpt><trkpt lat="33.9172603" lon="8.1116271"><ele>88.0</ele><time>2026-04-24T07:30:54.103Z</time></trkpt><trkpt lat="33.9191304" lon="8.1115977"><ele>87.0</ele><time>2026-04-24T07:31:08.238Z</time></trkpt><trkpt lat="33.9198635" lon="8.1117802"><ele>87.0</ele><time>2026-04-24T07:31:22.315Z</time></trkpt><trkpt lat="33.9199056" lon="8.1122013"><ele>87.0</ele><time>2026-04-24T07:31:29.366Z</time></trkpt><trkpt lat="33.9209213" lon="8.1142613"><ele>86.0</ele><time>2026-04-24T07:31:43.483Z</time></trkpt><trkpt lat="33.9206369" lon="8.1151746"><ele>86.0</ele><time>2026-04-24T07:31:50.607Z</time></trkpt><trkpt lat="33.9202943" lon="8.1155688"><ele>85.0</ele><time>2026-04-24T07:31:57.685Z</time></trkpt><trkpt lat="33.9203579" lon="8.1159183"><ele>84.0</ele><time>2026-04-24T07:32:04.752Z</time></trkpt><trkpt lat="33.9214818" lon="8.1178588"><ele>73.0</ele><time>2026-04-24T07:32:18.825Z</time></trkpt><trkpt lat="33.9209087" lon="8.1187076"><ele>72.0</ele><time>2026-04-24T07:32:25.903Z</time></trkpt><trkpt lat="33.9210995" lon="8.119561"><ele>72.0</ele><time>2026-04-24T07:32:32.943Z</time></trkpt><trkpt lat="33.9209988" lon="8.1195541"><ele>72.0</ele><time>2026-04-24T07:32:40.036Z</time></trkpt><trkpt lat="33.9210355" lon="8.1198436"><ele>72.0</ele><time>2026-04-24T07:32:47.097Z</time></trkpt><trkpt lat="33.9210839" lon="8.1201452"><ele>62.0</ele><time>2026-04-24T07:32:54.174Z</time></trkpt><trkpt lat="33.9213383" lon="8.1219149"><ele>62.0</ele><time>2026-04-24T07:33:08.285Z</time></trkpt><trkpt lat="33.9212645" lon="8.1223251"><ele>62.0</ele><time>2026-04-24T07:33:15.405Z</time></trkpt><trkpt lat="33.9227567" lon="8.1335949"><ele>56.0</ele><time>2026-04-24T07:33:36.671Z</time></trkpt><trkpt lat="33.9211136" lon="8.1240002"><ele>56.0</ele><time>2026-04-24T07:33:50.834Z</time></trkpt><trkpt lat="33.9211183" lon="8.124115"><ele>56.0</ele><time>2026-04-24T07:34:06.029Z</time></trkpt><trkpt lat="33.9212567" lon="8.1240317"><ele>56.0</ele><time>2026-04-24T07:34:13.617Z</time></trkpt><trkpt lat="33.9211783" lon="8.12416"><ele>56.0</ele><time>2026-04-24T07:34:19.615Z</time></trkpt><trkpt lat="33.9211533" lon="8.1240767"><ele>56.0</ele><time>2026-04-24T07:36:26.432Z</time></trkpt><trkpt lat="33.9211318" lon="8.1239805"><ele>55.99999999999999</ele><time>2026-04-24T07:36:33.445Z</time></trkpt><trkpt lat="33.9212033" lon="8.1241417"><ele>55.99999999999999</ele><time>2026-04-24T07:36:37.77Z</time></trkpt><trkpt lat="33.9211403" lon="8.1240393"><ele>56.0</ele><time>2026-04-24T07:37:23.11Z</time></trkpt><trkpt lat="33.9211478" lon="8.1239634"><ele>56.0</ele><time>2026-04-24T07:37:30.17Z</time></trkpt><trkpt lat="33.9211683" lon="8.124065"><ele>55.333333333333336</ele><time>2026-04-24T07:37:34.473Z</time></trkpt><trkpt lat="33.921205" lon="8.12417"><ele>54.66666666666667</ele><time>2026-04-24T07:37:35.472Z</time></trkpt><trkpt lat="33.9211194" lon="8.1243365"><ele>54.0</ele><time>2026-04-24T07:39:09.312Z</time></trkpt><trkpt lat="33.9212277" lon="8.1249308"><ele>52.0</ele><time>2026-04-24T07:39:16.382Z</time></trkpt><trkpt lat="33.9214296" lon="8.1250641"><ele>50.0</ele><time>2026-04-24T07:39:23.422Z</time></trkpt><trkpt lat="33.9212484" lon="8.125758"><ele>47.0</ele><time>2026-04-24T07:39:30.475Z</time></trkpt><trkpt lat="33.9214612" lon="8.1264457"><ele>46.0</ele><time>2026-04-24T07:39:37.525Z</time></trkpt><trkpt lat="33.9214743" lon="8.1270445"><ele>46.0</ele><time>2026-04-24T07:39:44.621Z</time></trkpt><trkpt lat="33.9214574" lon="8.1274956"><ele>46.0</ele><time>2026-04-24T07:39:51.751Z</time></trkpt><trkpt lat="33.9214191" lon="8.1281168"><ele>45.0</ele><time>2026-04-24T07:39:58.889Z</time></trkpt><trkpt lat="33.9216157" lon="8.1286125"><ele>45.0</ele><time>2026-04-24T07:40:05.955Z</time></trkpt><trkpt lat="33.9215086" lon="8.1288454"><ele>45.0</ele><time>2026-04-24T07:40:13.02Z</time></trkpt><trkpt lat="33.9215466" lon="8.1290826"><ele>45.0</ele><time>2026-04-24T07:40:20.152Z</time></trkpt><trkpt lat="33.9215025" lon="8.1298274"><ele>45.0</ele><time>2026-04-24T07:40:27.243Z</time></trkpt><trkpt lat="33.9215429" lon="8.1303493"><ele>45.0</ele><time>2026-04-24T07:40:41.39Z</time></trkpt><trkpt lat="33.9215195" lon="8.1308847"><ele>45.5</ele><time>2026-04-24T07:40:48.459Z</time></trkpt><trkpt lat="33.921564" lon="8.1313525"><ele>46.0</ele><time>2026-04-24T07:40:55.541Z</time></trkpt><trkpt lat="33.9217553" lon="8.1319171"><ele>46.0</ele><time>2026-04-24T07:41:02.61Z</time></trkpt><trkpt lat="33.9218839" lon="8.1321989"><ele>46.0</ele><time>2026-04-24T07:41:09.673Z</time></trkpt><trkpt lat="33.9219905" lon="8.1319906"><ele>46.0</ele><time>2026-04-24T07:41:23.854Z</time></trkpt><trkpt lat="33.921921" lon="8.1322784"><ele>46.0</ele><time>2026-04-24T07:43:31.499Z</time></trkpt><trkpt lat="33.921993" lon="8.1320251"><ele>46.0</ele><time>2026-04-24T07:44:06.927Z</time></trkpt><trkpt lat="33.9218912" lon="8.1320038"><ele>46.0</ele><time>2026-04-24T07:44:56.463Z</time></trkpt><trkpt lat="33.92184" lon="8.1320534"><ele>46.0</ele><time>2026-04-24T07:45:03.555Z</time></trkpt><trkpt lat="33.9219087" lon="8.1319817"><ele>46.0</ele><time>2026-04-24T07:47:46.474Z</time></trkpt><trkpt lat="33.9218517" lon="8.13182"><ele>46.0</ele><time>2026-04-24T07:47:47.724Z</time></trkpt><trkpt lat="33.9218931" lon="8.1319674"><ele>46.0</ele><time>2026-04-24T07:48:14.736Z</time></trkpt><trkpt lat="33.9219557" lon="8.1320108"><ele>46.0</ele><time>2026-04-24T07:50:01.238Z</time></trkpt><trkpt lat="33.9218883" lon="8.13224"><ele>46.0</ele><time>2026-04-24T07:50:07.039Z</time></trkpt><trkpt lat="33.9219144" lon="8.1320194"><ele>49.0</ele><time>2026-04-24T07:50:22.532Z</time></trkpt><trkpt lat="33.9220919" lon="8.13281"><ele>49.0</ele><time>2026-04-24T07:51:47.436Z</time></trkpt><trkpt lat="33.9221937" lon="8.1332074"><ele>49.0</ele><time>2026-04-24T07:51:54.502Z</time></trkpt><trkpt lat="33.9223143" lon="8.1336894"><ele>50.0</ele><time>2026-04-24T07:52:01.593Z</time></trkpt><trkpt lat="33.9224167" lon="8.1340283"><ele>51.0</ele><time>2026-04-24T07:52:09.374Z</time></trkpt><trkpt lat="33.9225217" lon="8.13422"><ele>51.0</ele><time>2026-04-24T07:52:10.874Z</time></trkpt><trkpt lat="33.9226283" lon="8.1343217"><ele>51.0</ele><time>2026-04-24T07:52:11.874Z</time></trkpt><trkpt lat="33.923053" lon="8.1350213"><ele>51.0</ele><time>2026-04-24T07:52:25.077Z</time></trkpt><trkpt lat="33.92311" lon="8.1351076"><ele>51.0</ele><time>2026-04-24T07:52:31.171Z</time></trkpt><trkpt lat="33.9233952" lon="8.1357213"><ele>50.0</ele><time>2026-04-24T07:52:39.198Z</time></trkpt><trkpt lat="33.923568" lon="8.1361439"><ele>49.0</ele><time>2026-04-24T07:52:46.285Z</time></trkpt><trkpt lat="33.9237853" lon="8.1362654"><ele>49.0</ele><time>2026-04-24T07:52:53.389Z</time></trkpt><trkpt lat="33.92373" lon="8.1364533"><ele>49.0</ele><time>2026-04-24T07:52:54.752Z</time></trkpt><trkpt lat="33.9237767" lon="8.136555"><ele>49.0</ele><time>2026-04-24T07:52:55.752Z</time></trkpt><trkpt lat="33.9238133" lon="8.1366817"><ele>49.0</ele><time>2026-04-24T07:52:57.752Z</time></trkpt><trkpt lat="33.9241909" lon="8.1371154"><ele>46.0</ele><time>2026-04-24T07:53:10.872Z</time></trkpt><trkpt lat="33.9246169" lon="8.1365987"><ele>45.0</ele><time>2026-04-24T07:53:17.852Z</time></trkpt><trkpt lat="33.9265047" lon="8.1377449"><ele>46.0</ele><time>2026-04-24T07:53:39.037Z</time></trkpt><trkpt lat="33.9273915" lon="8.1381886"><ele>46.0</ele><time>2026-04-24T07:53:46.105Z</time></trkpt><trkpt lat="33.9275444" lon="8.1382614"><ele>46.0</ele><time>2026-04-24T07:53:53.166Z</time></trkpt><trkpt lat="33.9284098" lon="8.1383752"><ele>48.0</ele><time>2026-04-24T07:54:00.258Z</time></trkpt><trkpt lat="33.9295787" lon="8.1381194"><ele>47.0</ele><time>2026-04-24T07:54:14.386Z</time></trkpt><trkpt lat="33.9306709" lon="8.1386185"><ele>50.0</ele><time>2026-04-24T07:54:28.523Z</time></trkpt><trkpt lat="33.9315326" lon="8.1390219"><ele>53.0</ele><time>2026-04-24T07:54:35.638Z</time></trkpt><trkpt lat="33.932346" lon="8.1392206"><ele>60.0</ele><time>2026-04-24T07:54:42.698Z</time></trkpt><trkpt lat="33.9333418" lon="8.1392449"><ele>62.0</ele><time>2026-04-24T07:54:49.807Z</time></trkpt><trkpt lat="33.9341817" lon="8.1401778"><ele>69.0</ele><time>2026-04-24T07:54:56.857Z</time></trkpt><trkpt lat="33.9351709" lon="8.1405309"><ele>72.0</ele><time>2026-04-24T07:55:03.932Z</time></trkpt><trkpt lat="33.9363936" lon="8.1409592"><ele>73.0</ele><time>2026-04-24T07:55:11.017Z</time></trkpt><trkpt lat="33.9370303" lon="8.1416366"><ele>73.5</ele><time>2026-04-24T07:55:18.074Z</time></trkpt><trkpt lat="33.93711" lon="8.1415217"><ele>74.0</ele><time>2026-04-24T07:55:24.953Z</time></trkpt><trkpt lat="33.9393152" lon="8.1433675"><ele>70.0</ele><time>2026-04-24T07:55:46.309Z</time></trkpt><trkpt lat="33.9551117" lon="8.150725"><ele>68.0</ele><time>2026-04-24T07:57:21.361Z</time></trkpt><trkpt lat="33.9570733" lon="8.151395"><ele>75.0</ele><time>2026-04-24T07:57:31.381Z</time></trkpt><trkpt lat="33.9868126" lon="8.1575159"><ele>75.0</ele><time>2026-04-24T07:59:44.63Z</time></trkpt><trkpt lat="33.9859467" lon="8.1585017"><ele>75.0</ele><time>2026-04-24T07:59:47.05Z</time></trkpt><trkpt lat="33.9861383" lon="8.1586633"><ele>75.0</ele><time>2026-04-24T07:59:48.55Z</time></trkpt><trkpt lat="33.98632" lon="8.15871"><ele>75.0</ele><time>2026-04-24T07:59:49.551Z</time></trkpt><trkpt lat="33.9889321" lon="8.159777"><ele>58.0</ele><time>2026-04-24T08:00:11.759Z</time></trkpt><trkpt lat="33.9926927" lon="8.16445"><ele>51.0</ele><time>2026-04-24T08:00:53.899Z</time></trkpt><trkpt lat="33.9952913" lon="8.1686108"><ele>59.0</ele><time>2026-04-24T08:01:29.002Z</time></trkpt><trkpt lat="33.9974546" lon="8.1706415"><ele>60.25</ele><time>2026-04-24T08:01:50.737Z</time></trkpt><trkpt lat="33.9975983" lon="8.170815"><ele>61.5</ele><time>2026-04-24T08:01:58.763Z</time></trkpt><trkpt lat="33.99767" lon="8.170835"><ele>62.75</ele><time>2026-04-24T08:01:59.764Z</time></trkpt><trkpt lat="33.9977817" lon="8.1708667"><ele>64.0</ele><time>2026-04-24T08:02:00.763Z</time></trkpt><trkpt lat="33.9978833" lon="8.1709283"><ele>64.0</ele><time>2026-04-24T08:02:01.763Z</time></trkpt><trkpt lat="33.9979983" lon="8.1710083"><ele>64.0</ele><time>2026-04-24T08:02:03.378Z</time></trkpt><trkpt lat="33.9980633" lon="8.1710567"><ele>64.0</ele><time>2026-04-24T08:02:04.377Z</time></trkpt><trkpt lat="33.9981417" lon="8.1710883"><ele>64.0</ele><time>2026-04-24T08:02:05.378Z</time></trkpt><trkpt lat="33.9992734" lon="8.1714012"><ele>62.0</ele><time>2026-04-24T08:02:18.467Z</time></trkpt><trkpt lat="33.9994718" lon="8.1721212"><ele>59.0</ele><time>2026-04-24T08:02:25.485Z</time></trkpt><trkpt lat="34.0009617" lon="8.1726983"><ele>53.0</ele><time>2026-04-24T08:02:32.342Z</time></trkpt><trkpt lat="34.0009912" lon="8.1689539"><ele>48.0</ele><time>2026-04-24T08:02:46.565Z</time></trkpt><trkpt lat="34.0038583" lon="8.1669417"><ele>55.0</ele><time>2026-04-24T08:03:22.968Z</time></trkpt><trkpt lat="34.0072833" lon="8.17649"><ele>49.0</ele><time>2026-04-24T08:03:23.967Z</time></trkpt><trkpt lat="34.0083717" lon="8.1776667"><ele>49.0</ele><time>2026-04-24T08:03:25.467Z</time></trkpt><trkpt lat="34.0086017" lon="8.1779383"><ele>49.0</ele><time>2026-04-24T08:03:26.467Z</time></trkpt><trkpt lat="34.0116767" lon="8.177305"><ele>40.0</ele><time>2026-04-24T08:04:14.149Z</time></trkpt></trkseg><trkseg><trkpt lat="34.3206261" lon="7.9390966"><ele>139.0</ele><time>2026-04-24T09:49:00.952Z</time></trkpt><trkpt lat="34.3205842" lon="7.9389903"><ele>139.0</ele><time>2026-04-24T09:49:03.952Z</time></trkpt><trkpt lat="34.3205479" lon="7.9389044"><ele>139.0</ele><time>2026-04-24T09:49:05.952Z</time></trkpt><trkpt lat="34.3205125" lon="7.9387963"><ele>139.0</ele><time>2026-04-24T09:49:07.952Z</time></trkpt><trkpt lat="34.3204667" lon="7.9386617"><ele>139.0</ele><time>2026-04-24T09:49:09.952Z</time></trkpt><trkpt lat="34.3204433" lon="7.9385867"><ele>137.8</ele><time>2026-04-24T09:49:10.952Z</time></trkpt><trkpt lat="34.32041" lon="7.9384783"><ele>136.60000000000002</ele><time>2026-04-24T09:49:11.951Z</time></trkpt><trkpt lat="34.320375" lon="7.938375"><ele>135.4</ele><time>2026-04-24T09:49:12.952Z</time></trkpt><trkpt lat="34.3203417" lon="7.9382717"><ele>134.20000000000002</ele><time>2026-04-24T09:49:13.951Z</time></trkpt><trkpt lat="34.3203083" lon="7.9381733"><ele>133.0</ele><time>2026-04-24T09:49:14.951Z</time></trkpt><trkpt lat="34.3202667" lon="7.9380683"><ele>132.83333333333334</ele><time>2026-04-24T09:49:15.951Z</time></trkpt><trkpt lat="34.32022" lon="7.9379617"><ele>132.66666666666669</ele><time>2026-04-24T09:49:16.951Z</time></trkpt><trkpt lat="34.3201733" lon="7.93787"><ele>132.5</ele><time>2026-04-24T09:49:17.952Z</time></trkpt><trkpt lat="34.320135" lon="7.93778"><ele>132.33333333333334</ele><time>2026-04-24T09:49:18.951Z</time></trkpt><trkpt lat="34.3200933" lon="7.937705"><ele>132.16666666666666</ele><time>2026-04-24T09:49:19.952Z</time></trkpt><trkpt lat="34.3200583" lon="7.9376333"><ele>132.0</ele><time>2026-04-24T09:49:20.952Z</time></trkpt><trkpt lat="34.3200183" lon="7.93756"><ele>131.33333333333334</ele><time>2026-04-24T09:49:21.952Z</time></trkpt><trkpt lat="34.31998" lon="7.93749"><ele>130.66666666666666</ele><time>2026-04-24T09:49:22.952Z</time></trkpt><trkpt lat="34.3199367" lon="7.9374183"><ele>130.0</ele><time>2026-04-24T09:49:23.951Z</time></trkpt><trkpt lat="34.3198917" lon="7.937335"><ele>129.33333333333331</ele><time>2026-04-24T09:49:24.952Z</time></trkpt><trkpt lat="34.3198483" lon="7.93725"><ele>128.66666666666666</ele><time>2026-04-24T09:49:25.951Z</time></trkpt><trkpt lat="34.319795" lon="7.937165"><ele>128.0</ele><time>2026-04-24T09:49:26.952Z</time></trkpt><trkpt lat="34.3197433" lon="7.937065"><ele>127.60000000000001</ele><time>2026-04-24T09:49:27.952Z</time></trkpt><trkpt lat="34.3197" lon="7.9369617"><ele>127.20000000000002</ele><time>2026-04-24T09:49:28.952Z</time></trkpt><trkpt lat="34.3196483" lon="7.9368533"><ele>126.8</ele><time>2026-04-24T09:49:29.952Z</time></trkpt><trkpt lat="34.3195967" lon="7.9367417"><ele>126.4</ele><time>2026-04-24T09:49:30.952Z</time></trkpt><trkpt lat="34.3195517" lon="7.9366283"><ele>126.0</ele><time>2026-04-24T09:49:31.952Z</time></trkpt><trkpt lat="34.3195067" lon="7.936515"><ele>125.4</ele><time>2026-04-24T09:49:32.952Z</time></trkpt><trkpt lat="34.31946" lon="7.9364067"><ele>124.8</ele><time>2026-04-24T09:49:33.952Z</time></trkpt><trkpt lat="34.3194117" lon="7.9363017"><ele>124.20000000000002</ele><time>2026-04-24T09:49:34.951Z</time></trkpt><trkpt lat="34.3193683" lon="7.9361933"><ele>123.60000000000001</ele><time>2026-04-24T09:49:35.952Z</time></trkpt><trkpt lat="34.3193167" lon="7.93609"><ele>123.0</ele><time>2026-04-24T09:49:36.952Z</time></trkpt><trkpt lat="34.3192617" lon="7.9359817"><ele>122.0</ele><time>2026-04-24T09:49:37.952Z</time></trkpt><trkpt lat="34.3192017" lon="7.9358633"><ele>121.0</ele><time>2026-04-24T09:49:38.952Z</time></trkpt><trkpt lat="34.3191417" lon="7.9357467"><ele>120.0</ele><time>2026-04-24T09:49:39.952Z</time></trkpt><trkpt lat="34.3190867" lon="7.9356333"><ele>119.0</ele><time>2026-04-24T09:49:40.952Z</time></trkpt><trkpt lat="34.3190233" lon="7.93552"><ele>119.0</ele><time>2026-04-24T09:49:41.952Z</time></trkpt><trkpt lat="34.3189483" lon="7.9354017"><ele>119.0</ele><time>2026-04-24T09:49:42.952Z</time></trkpt><trkpt lat="34.3188817" lon="7.93528"><ele>119.0</ele><time>2026-04-24T09:49:43.951Z</time></trkpt><trkpt lat="34.3188233" lon="7.93516"><ele>119.0</ele><time>2026-04-24T09:49:44.952Z</time></trkpt><trkpt lat="34.3187667" lon="7.935045"><ele>118.2</ele><time>2026-04-24T09:49:45.952Z</time></trkpt><trkpt lat="34.3187133" lon="7.93494"><ele>117.4</ele><time>2026-04-24T09:49:46.951Z</time></trkpt><trkpt lat="34.3186567" lon="7.9348317"><ele>116.6</ele><time>2026-04-24T09:49:47.952Z</time></trkpt><trkpt lat="34.3186" lon="7.9347267"><ele>115.8</ele><time>2026-04-24T09:49:48.952Z</time></trkpt><trkpt lat="34.3185433" lon="7.9346183"><ele>115.0</ele><time>2026-04-24T09:49:49.951Z</time></trkpt><trkpt lat="34.3184883" lon="7.9345083"><ele>115.0</ele><time>2026-04-24T09:49:50.952Z</time></trkpt><trkpt lat="34.3184283" lon="7.9344167"><ele>115.0</ele><time>2026-04-24T09:49:51.952Z</time></trkpt><trkpt lat="34.3183767" lon="7.9343183"><ele>115.0</ele><time>2026-04-24T09:49:52.952Z</time></trkpt><trkpt lat="34.3183183" lon="7.9342133"><ele>115.0</ele><time>2026-04-24T09:49:53.952Z</time></trkpt><trkpt lat="34.3182567" lon="7.9341067"><ele>115.0</ele><time>2026-04-24T09:49:54.952Z</time></trkpt><trkpt lat="34.31819" lon="7.9339983"><ele>114.2</ele><time>2026-04-24T09:49:55.952Z</time></trkpt><trkpt lat="34.3181283" lon="7.9338983"><ele>113.4</ele><time>2026-04-24T09:49:56.951Z</time></trkpt><trkpt lat="34.3180817" lon="7.9337983"><ele>112.6</ele><time>2026-04-24T09:49:57.951Z</time></trkpt><trkpt lat="34.3180433" lon="7.9337133"><ele>111.8</ele><time>2026-04-24T09:49:58.952Z</time></trkpt><trkpt lat="34.3179833" lon="7.9336033"><ele>111.0</ele><time>2026-04-24T09:50:00.952Z</time></trkpt><trkpt lat="34.317935" lon="7.9335267"><ele>110.66666666666667</ele><time>2026-04-24T09:50:02.951Z</time></trkpt><trkpt lat="34.31789" lon="7.93346"><ele>110.33333333333334</ele><time>2026-04-24T09:50:04.952Z</time></trkpt><trkpt lat="34.317845" lon="7.9333433"><ele>110.0</ele><time>2026-04-24T09:50:06.952Z</time></trkpt><trkpt lat="34.31783" lon="7.9332583"><ele>109.66666666666667</ele><time>2026-04-24T09:50:07.952Z</time></trkpt><trkpt lat="34.317805" lon="7.9331667"><ele>109.33333333333334</ele><time>2026-04-24T09:50:08.952Z</time></trkpt><trkpt lat="34.317765" lon="7.9330783"><ele>109.0</ele><time>2026-04-24T09:50:09.952Z</time></trkpt><trkpt lat="34.317725" lon="7.9329883"><ele>108.6</ele><time>2026-04-24T09:50:10.952Z</time></trkpt><trkpt lat="34.317685" lon="7.9329133"><ele>108.2</ele><time>2026-04-24T09:50:11.952Z</time></trkpt><trkpt lat="34.3176283" lon="7.9328033"><ele>107.79999999999998</ele><time>2026-04-24T09:50:13.952Z</time></trkpt><trkpt lat="34.317615" lon="7.932725"><ele>107.39999999999999</ele><time>2026-04-24T09:50:15.952Z</time></trkpt><trkpt lat="34.31762" lon="7.9326283"><ele>107.0</ele><time>2026-04-24T09:50:17.952Z</time></trkpt><trkpt lat="34.3176883" lon="7.9324983"><ele>106.49999999999999</ele><time>2026-04-24T09:50:19.952Z</time></trkpt><trkpt lat="34.3177383" lon="7.9324267"><ele>106.0</ele><time>2026-04-24T09:50:20.951Z</time></trkpt><trkpt lat="34.3178" lon="7.9323533"><ele>105.5</ele><time>2026-04-24T09:50:21.951Z</time></trkpt><trkpt lat="34.3178583" lon="7.9322783"><ele>105.0</ele><time>2026-04-24T09:50:22.952Z</time></trkpt><trkpt lat="34.3179167" lon="7.9321983"><ele>104.49999999999999</ele><time>2026-04-24T09:50:23.952Z</time></trkpt><trkpt lat="34.317985" lon="7.9321133"><ele>104.0</ele><time>2026-04-24T09:50:24.952Z</time></trkpt><trkpt lat="34.3180483" lon="7.9320317"><ele>104.2</ele><time>2026-04-24T09:50:25.952Z</time></trkpt><trkpt lat="34.318115" lon="7.9319467"><ele>104.4</ele><time>2026-04-24T09:50:26.952Z</time></trkpt><trkpt lat="34.318185" lon="7.9318583"><ele>104.6</ele><time>2026-04-24T09:50:27.951Z</time></trkpt><trkpt lat="34.3182533" lon="7.9317667"><ele>104.8</ele><time>2026-04-24T09:50:28.952Z</time></trkpt><trkpt lat="34.3183217" lon="7.93168"><ele>105.0</ele><time>2026-04-24T09:50:29.952Z</time></trkpt><trkpt lat="34.3183883" lon="7.9315767"><ele>104.5</ele><time>2026-04-24T09:50:30.952Z</time></trkpt><trkpt lat="34.3184633" lon="7.9314767"><ele>104.0</ele><time>2026-04-24T09:50:31.952Z</time></trkpt><trkpt lat="34.318545" lon="7.93138"><ele>103.5</ele><time>2026-04-24T09:50:32.952Z</time></trkpt><trkpt lat="34.3186267" lon="7.93128"><ele>103.0</ele><time>2026-04-24T09:50:33.951Z</time></trkpt><trkpt lat="34.318705" lon="7.931185"><ele>103.0</ele><time>2026-04-24T09:50:34.951Z</time></trkpt><trkpt lat="34.31879" lon="7.9310867"><ele>103.0</ele><time>2026-04-24T09:50:35.952Z</time></trkpt><trkpt lat="34.3188683" lon="7.9309917"><ele>103.0</ele><time>2026-04-24T09:50:36.952Z</time></trkpt><trkpt lat="34.31895" lon="7.9308883"><ele>103.0</ele><time>2026-04-24T09:50:37.952Z</time></trkpt><trkpt lat="34.3190367" lon="7.9307867"><ele>103.0</ele><time>2026-04-24T09:50:38.952Z</time></trkpt><trkpt lat="34.3191233" lon="7.9306833"><ele>103.0</ele><time>2026-04-24T09:50:39.951Z</time></trkpt><trkpt lat="34.3192083" lon="7.9305683"><ele>103.0</ele><time>2026-04-24T09:50:40.951Z</time></trkpt><trkpt lat="34.3192983" lon="7.93045"><ele>103.0</ele><time>2026-04-24T09:50:41.952Z</time></trkpt><trkpt lat="34.3193867" lon="7.930335"><ele>103.0</ele><time>2026-04-24T09:50:42.952Z</time></trkpt><trkpt lat="34.3194833" lon="7.9302217"><ele>103.0</ele><time>2026-04-24T09:50:43.951Z</time></trkpt><trkpt lat="34.3195733" lon="7.9301133"><ele>103.0</ele><time>2026-04-24T09:50:44.951Z</time></trkpt><trkpt lat="34.31967" lon="7.930005"><ele>103.0</ele><time>2026-04-24T09:50:45.952Z</time></trkpt><trkpt lat="34.3197633" lon="7.9298983"><ele>102.75</ele><time>2026-04-24T09:50:46.951Z</time></trkpt><trkpt lat="34.3198583" lon="7.929785"><ele>102.5</ele><time>2026-04-24T09:50:47.952Z</time></trkpt><trkpt lat="34.319945" lon="7.9296633"><ele>102.25</ele><time>2026-04-24T09:50:48.951Z</time></trkpt><trkpt lat="34.3200267" lon="7.9295467"><ele>102.0</ele><time>2026-04-24T09:50:49.952Z</time></trkpt><trkpt lat="34.32012" lon="7.9294283"><ele>102.0</ele><time>2026-04-24T09:50:50.951Z</time></trkpt><trkpt lat="34.3202067" lon="7.9293083"><ele>102.0</ele><time>2026-04-24T09:50:51.952Z</time></trkpt><trkpt lat="34.320305" lon="7.9291883"><ele>102.0</ele><time>2026-04-24T09:50:52.952Z</time></trkpt><trkpt lat="34.320405" lon="7.9290683"><ele>102.0</ele><time>2026-04-24T09:50:53.952Z</time></trkpt><trkpt lat="34.3205033" lon="7.928945"><ele>102.25</ele><time>2026-04-24T09:50:54.952Z</time></trkpt><trkpt lat="34.3206017" lon="7.9288283"><ele>102.5</ele><time>2026-04-24T09:50:55.952Z</time></trkpt><trkpt lat="34.3206967" lon="7.9287067"><ele>102.75</ele><time>2026-04-24T09:50:56.952Z</time></trkpt><trkpt lat="34.3207933" lon="7.92858"><ele>103.0</ele><time>2026-04-24T09:50:57.952Z</time></trkpt><trkpt lat="34.320895" lon="7.9284567"><ele>102.5</ele><time>2026-04-24T09:50:58.952Z</time></trkpt><trkpt lat="34.3209967" lon="7.9283283"><ele>102.0</ele><time>2026-04-24T09:50:59.952Z</time></trkpt><trkpt lat="34.3211" lon="7.9282033"><ele>101.5</ele><time>2026-04-24T09:51:00.952Z</time></trkpt><trkpt lat="34.321205" lon="7.9280733"><ele>101.0</ele><time>2026-04-24T09:51:01.952Z</time></trkpt><trkpt lat="34.321315" lon="7.927935"><ele>101.33333333333333</ele><time>2026-04-24T09:51:02.952Z</time></trkpt><trkpt lat="34.3214183" lon="7.9277983"><ele>101.66666666666666</ele><time>2026-04-24T09:51:03.952Z</time></trkpt><trkpt lat="34.3215283" lon="7.9276633"><ele>102.0</ele><time>2026-04-24T09:51:04.951Z</time></trkpt><trkpt lat="34.32164" lon="7.9275317"><ele>102.0</ele><time>2026-04-24T09:51:05.951Z</time></trkpt><trkpt lat="34.3217417" lon="7.9274"><ele>102.0</ele><time>2026-04-24T09:51:06.952Z</time></trkpt><trkpt lat="34.3218483" lon="7.9272567"><ele>102.0</ele><time>2026-04-24T09:51:07.952Z</time></trkpt><trkpt lat="34.32196" lon="7.9271217"><ele>102.0</ele><time>2026-04-24T09:51:08.952Z</time></trkpt><trkpt lat="34.3220617" lon="7.92699"><ele>102.0</ele><time>2026-04-24T09:51:09.951Z</time></trkpt><trkpt lat="34.3221717" lon="7.926855"><ele>102.0</ele><time>2026-04-24T09:51:10.952Z</time></trkpt><trkpt lat="34.32228" lon="7.9267183"><ele>102.66666666666666</ele><time>2026-04-24T09:51:11.951Z</time></trkpt><trkpt lat="34.3223867" lon="7.9265767"><ele>103.33333333333333</ele><time>2026-04-24T09:51:12.952Z</time></trkpt><trkpt lat="34.3224983" lon="7.9264367"><ele>104.0</ele><time>2026-04-24T09:51:13.952Z</time></trkpt><trkpt lat="34.3226083" lon="7.9263083"><ele>104.0</ele><time>2026-04-24T09:51:14.951Z</time></trkpt><trkpt lat="34.3227167" lon="7.9261767"><ele>104.0</ele><time>2026-04-24T09:51:15.952Z</time></trkpt><trkpt lat="34.32283" lon="7.9260383"><ele>104.0</ele><time>2026-04-24T09:51:16.952Z</time></trkpt><trkpt lat="34.3229333" lon="7.9259017"><ele>103.66666666666666</ele><time>2026-04-24T09:51:17.952Z</time></trkpt><trkpt lat="34.32304" lon="7.92576"><ele>103.33333333333334</ele><time>2026-04-24T09:51:18.952Z</time></trkpt><trkpt lat="34.323155" lon="7.9256233"><ele>103.0</ele><time>2026-04-24T09:51:19.951Z</time></trkpt><trkpt lat="34.323275" lon="7.9254783"><ele>103.66666666666667</ele><time>2026-04-24T09:51:20.952Z</time></trkpt><trkpt lat="34.3233883" lon="7.925325"><ele>104.33333333333334</ele><time>2026-04-24T09:51:21.952Z</time></trkpt><trkpt lat="34.3235033" lon="7.9251733"><ele>105.0</ele><time>2026-04-24T09:51:22.951Z</time></trkpt><trkpt lat="34.3236183" lon="7.925025"><ele>105.66666666666666</ele><time>2026-04-24T09:51:23.951Z</time></trkpt><trkpt lat="34.323735" lon="7.924875"><ele>106.33333333333333</ele><time>2026-04-24T09:51:24.952Z</time></trkpt><trkpt lat="34.3238533" lon="7.9247333"><ele>107.0</ele><time>2026-04-24T09:51:25.951Z</time></trkpt><trkpt lat="34.3239717" lon="7.9245917"><ele>107.33333333333333</ele><time>2026-04-24T09:51:26.951Z</time></trkpt><trkpt lat="34.3240933" lon="7.92444"><ele>107.66666666666666</ele><time>2026-04-24T09:51:27.952Z</time></trkpt><trkpt lat="34.3242117" lon="7.9242933"><ele>108.0</ele><time>2026-04-24T09:51:28.952Z</time></trkpt><trkpt lat="34.3243367" lon="7.924145"><ele>108.0</ele><time>2026-04-24T09:51:29.951Z</time></trkpt><trkpt lat="34.3244617" lon="7.9239967"><ele>108.0</ele><time>2026-04-24T09:51:30.952Z</time></trkpt><trkpt lat="34.3245833" lon="7.92385"><ele>108.0</ele><time>2026-04-24T09:51:31.951Z</time></trkpt><trkpt lat="34.3247067" lon="7.9237033"><ele>109.66666666666666</ele><time>2026-04-24T09:51:32.952Z</time></trkpt><trkpt lat="34.324825" lon="7.9235517"><ele>111.33333333333333</ele><time>2026-04-24T09:51:33.952Z</time></trkpt><trkpt lat="34.3249417" lon="7.923405"><ele>113.0</ele><time>2026-04-24T09:51:34.952Z</time></trkpt><trkpt lat="34.3250583" lon="7.9232633"><ele>113.0</ele><time>2026-04-24T09:51:35.952Z</time></trkpt><trkpt lat="34.325185" lon="7.9231183"><ele>113.0</ele><time>2026-04-24T09:51:36.952Z</time></trkpt><trkpt lat="34.3253017" lon="7.9229733"><ele>113.0</ele><time>2026-04-24T09:51:37.952Z</time></trkpt><trkpt lat="34.3254117" lon="7.9228333"><ele>113.0</ele><time>2026-04-24T09:51:38.952Z</time></trkpt><trkpt lat="34.32553" lon="7.92269"><ele>113.0</ele><time>2026-04-24T09:51:39.952Z</time></trkpt><trkpt lat="34.3256433" lon="7.9225433"><ele>113.0</ele><time>2026-04-24T09:51:40.952Z</time></trkpt><trkpt lat="34.3257667" lon="7.92239"><ele>114.0</ele><time>2026-04-24T09:51:41.952Z</time></trkpt><trkpt lat="34.32589" lon="7.9222333"><ele>115.0</ele><time>2026-04-24T09:51:42.952Z</time></trkpt><trkpt lat="34.3260017" lon="7.92208"><ele>116.0</ele><time>2026-04-24T09:51:43.951Z</time></trkpt><trkpt lat="34.3261233" lon="7.9219333"><ele>116.0</ele><time>2026-04-24T09:51:44.951Z</time></trkpt><trkpt lat="34.326245" lon="7.921785"><ele>116.0</ele><time>2026-04-24T09:51:45.952Z</time></trkpt><trkpt lat="34.3263683" lon="7.9216383"><ele>116.0</ele><time>2026-04-24T09:51:46.952Z</time></trkpt><trkpt lat="34.3264883" lon="7.9214883"><ele>117.0</ele><time>2026-04-24T09:51:47.952Z</time></trkpt><trkpt lat="34.326605" lon="7.9213533"><ele>118.0</ele><time>2026-04-24T09:51:48.952Z</time></trkpt><trkpt lat="34.3267233" lon="7.9212067"><ele>119.0</ele><time>2026-04-24T09:51:49.952Z</time></trkpt><trkpt lat="34.326845" lon="7.921065"><ele>119.0</ele><time>2026-04-24T09:51:50.951Z</time></trkpt><trkpt lat="34.32697" lon="7.92093"><ele>119.0</ele><time>2026-04-24T09:51:51.952Z</time></trkpt><trkpt lat="34.3271083" lon="7.92081"><ele>119.0</ele><time>2026-04-24T09:51:52.951Z</time></trkpt><trkpt lat="34.32725" lon="7.92069"><ele>120.66666666666666</ele><time>2026-04-24T09:51:53.952Z</time></trkpt><trkpt lat="34.327375" lon="7.9205683"><ele>122.33333333333334</ele><time>2026-04-24T09:51:54.952Z</time></trkpt><trkpt lat="34.327515" lon="7.92045"><ele>124.0</ele><time>2026-04-24T09:51:55.952Z</time></trkpt><trkpt lat="34.3276667" lon="7.920335"><ele>124.0</ele><time>2026-04-24T09:51:56.952Z</time></trkpt><trkpt lat="34.3278383" lon="7.92023"><ele>124.0</ele><time>2026-04-24T09:51:57.952Z</time></trkpt><trkpt lat="34.3279933" lon="7.9201283"><ele>124.0</ele><time>2026-04-24T09:51:58.952Z</time></trkpt><trkpt lat="34.32815" lon="7.920035"><ele>125.0</ele><time>2026-04-24T09:51:59.952Z</time></trkpt><trkpt lat="34.3283117" lon="7.919945"><ele>126.0</ele><time>2026-04-24T09:52:00.952Z</time></trkpt><trkpt lat="34.3284667" lon="7.919845"><ele>127.0</ele><time>2026-04-24T09:52:01.951Z</time></trkpt><trkpt lat="34.328625" lon="7.91974"><ele>127.0</ele><time>2026-04-24T09:52:02.952Z</time></trkpt><trkpt lat="34.3287817" lon="7.9196317"><ele>127.0</ele><time>2026-04-24T09:52:03.952Z</time></trkpt><trkpt lat="34.3289317" lon="7.9195117"><ele>127.0</ele><time>2026-04-24T09:52:04.951Z</time></trkpt><trkpt lat="34.329085" lon="7.91939"><ele>127.0</ele><time>2026-04-24T09:52:05.952Z</time></trkpt><trkpt lat="34.3292433" lon="7.9192617"><ele>127.0</ele><time>2026-04-24T09:52:06.951Z</time></trkpt><trkpt lat="34.3294" lon="7.919125"><ele>127.0</ele><time>2026-04-24T09:52:07.952Z</time></trkpt><trkpt lat="34.3295533" lon="7.91899"><ele>127.0</ele><time>2026-04-24T09:52:08.951Z</time></trkpt><trkpt lat="34.3296967" lon="7.9188417"><ele>127.0</ele><time>2026-04-24T09:52:09.951Z</time></trkpt><trkpt lat="34.3298317" lon="7.918685"><ele>127.0</ele><time>2026-04-24T09:52:10.952Z</time></trkpt><trkpt lat="34.3299633" lon="7.9185267"><ele>126.66666666666667</ele><time>2026-04-24T09:52:11.951Z</time></trkpt><trkpt lat="34.3300833" lon="7.9183617"><ele>126.33333333333334</ele><time>2026-04-24T09:52:12.951Z</time></trkpt><trkpt lat="34.3302117" lon="7.9181933"><ele>126.0</ele><time>2026-04-24T09:52:13.952Z</time></trkpt><trkpt lat="34.33034" lon="7.9180283"><ele>126.0</ele><time>2026-04-24T09:52:14.951Z</time></trkpt><trkpt lat="34.330475" lon="7.9178667"><ele>126.0</ele><time>2026-04-24T09:52:15.952Z</time></trkpt><trkpt lat="34.3306083" lon="7.9177133"><ele>126.0</ele><time>2026-04-24T09:52:16.952Z</time></trkpt><trkpt lat="34.3307383" lon="7.9175667"><ele>126.33333333333334</ele><time>2026-04-24T09:52:17.952Z</time></trkpt><trkpt lat="34.33088" lon="7.9174067"><ele>126.66666666666667</ele><time>2026-04-24T09:52:18.952Z</time></trkpt><trkpt lat="34.3310167" lon="7.91724"><ele>127.0</ele><time>2026-04-24T09:52:19.952Z</time></trkpt><trkpt lat="34.3311517" lon="7.917075"><ele>127.0</ele><time>2026-04-24T09:52:20.952Z</time></trkpt><trkpt lat="34.3312933" lon="7.9169083"><ele>127.0</ele><time>2026-04-24T09:52:21.951Z</time></trkpt><trkpt lat="34.331435" lon="7.91674"><ele>127.0</ele><time>2026-04-24T09:52:22.952Z</time></trkpt><trkpt lat="34.33158" lon="7.9165683"><ele>127.0</ele><time>2026-04-24T09:52:23.951Z</time></trkpt><trkpt lat="34.3317183" lon="7.9164033"><ele>127.0</ele><time>2026-04-24T09:52:24.952Z</time></trkpt><trkpt lat="34.33186" lon="7.9162383"><ele>127.0</ele><time>2026-04-24T09:52:25.952Z</time></trkpt><trkpt lat="34.3319983" lon="7.9160733"><ele>127.0</ele><time>2026-04-24T09:52:26.952Z</time></trkpt><trkpt lat="34.33214" lon="7.9159017"><ele>127.0</ele><time>2026-04-24T09:52:27.951Z</time></trkpt><trkpt lat="34.332275" lon="7.91573"><ele>127.0</ele><time>2026-04-24T09:52:28.952Z</time></trkpt><trkpt lat="34.3324167" lon="7.9155567"><ele>127.0</ele><time>2026-04-24T09:52:29.951Z</time></trkpt><trkpt lat="34.3325617" lon="7.91538"><ele>127.0</ele><time>2026-04-24T09:52:30.952Z</time></trkpt><trkpt lat="34.3327067" lon="7.9152017"><ele>127.0</ele><time>2026-04-24T09:52:31.952Z</time></trkpt><trkpt lat="34.3328517" lon="7.9150267"><ele>126.66666666666667</ele><time>2026-04-24T09:52:32.951Z</time></trkpt><trkpt lat="34.332995" lon="7.914845"><ele>126.33333333333334</ele><time>2026-04-24T09:52:33.952Z</time></trkpt><trkpt lat="34.3331433" lon="7.91466"><ele>126.0</ele><time>2026-04-24T09:52:34.952Z</time></trkpt><trkpt lat="34.3332983" lon="7.9144867"><ele>126.0</ele><time>2026-04-24T09:52:35.952Z</time></trkpt><trkpt lat="34.3334517" lon="7.9143133"><ele>126.0</ele><time>2026-04-24T09:52:36.952Z</time></trkpt><trkpt lat="34.3336017" lon="7.9141383"><ele>126.0</ele><time>2026-04-24T09:52:37.952Z</time></trkpt><trkpt lat="34.33375" lon="7.9139567"><ele>127.0</ele><time>2026-04-24T09:52:38.952Z</time></trkpt><trkpt lat="34.3338967" lon="7.9137717"><ele>128.0</ele><time>2026-04-24T09:52:39.952Z</time></trkpt><trkpt lat="34.33404" lon="7.9135983"><ele>129.0</ele><time>2026-04-24T09:52:40.952Z</time></trkpt><trkpt lat="34.33418" lon="7.9134233"><ele>128.66666666666666</ele><time>2026-04-24T09:52:41.952Z</time></trkpt><trkpt lat="34.33433" lon="7.9132383"><ele>128.33333333333331</ele><time>2026-04-24T09:52:42.952Z</time></trkpt><trkpt lat="34.334475" lon="7.913055"><ele>128.0</ele><time>2026-04-24T09:52:43.951Z</time></trkpt><trkpt lat="34.3346167" lon="7.9128767"><ele>128.33333333333331</ele><time>2026-04-24T09:52:44.952Z</time></trkpt><trkpt lat="34.3347617" lon="7.912705"><ele>128.66666666666666</ele><time>2026-04-24T09:52:45.952Z</time></trkpt><trkpt lat="34.33491" lon="7.9125267"><ele>129.0</ele><time>2026-04-24T09:52:46.952Z</time></trkpt><trkpt lat="34.3350517" lon="7.9123567"><ele>129.0</ele><time>2026-04-24T09:52:47.952Z</time></trkpt><trkpt lat="34.3351917" lon="7.91218"><ele>129.0</ele><time>2026-04-24T09:52:48.952Z</time></trkpt><trkpt lat="34.3353267" lon="7.912"><ele>129.0</ele><time>2026-04-24T09:52:49.952Z</time></trkpt><trkpt lat="34.3354633" lon="7.9118117"><ele>130.0</ele><time>2026-04-24T09:52:50.952Z</time></trkpt><trkpt lat="34.3355933" lon="7.911615"><ele>131.0</ele><time>2026-04-24T09:52:51.952Z</time></trkpt><trkpt lat="34.33572" lon="7.9114267"><ele>132.0</ele><time>2026-04-24T09:52:52.952Z</time></trkpt><trkpt lat="34.335845" lon="7.91123"><ele>132.0</ele><time>2026-04-24T09:52:53.951Z</time></trkpt><trkpt lat="34.3359633" lon="7.9110217"><ele>132.0</ele><time>2026-04-24T09:52:54.951Z</time></trkpt><trkpt lat="34.336085" lon="7.9108167"><ele>132.0</ele><time>2026-04-24T09:52:55.952Z</time></trkpt><trkpt lat="34.336195" lon="7.9106033"><ele>132.0</ele><time>2026-04-24T09:52:56.952Z</time></trkpt><trkpt lat="34.3363017" lon="7.9103883"><ele>132.0</ele><time>2026-04-24T09:52:57.952Z</time></trkpt><trkpt lat="34.3364033" lon="7.9101717"><ele>132.0</ele><time>2026-04-24T09:52:58.952Z</time></trkpt><trkpt lat="34.336505" lon="7.90995"><ele>132.0</ele><time>2026-04-24T09:52:59.952Z</time></trkpt><trkpt lat="34.3366083" lon="7.90973"><ele>132.0</ele><time>2026-04-24T09:53:00.952Z</time></trkpt><trkpt lat="34.3367133" lon="7.9095083"><ele>132.0</ele><time>2026-04-24T09:53:01.952Z</time></trkpt><trkpt lat="34.3368217" lon="7.909285"><ele>131.66666666666666</ele><time>2026-04-24T09:53:02.952Z</time></trkpt><trkpt lat="34.3369333" lon="7.90906"><ele>131.33333333333331</ele><time>2026-04-24T09:53:03.952Z</time></trkpt><trkpt lat="34.3370433" lon="7.9088367"><ele>131.0</ele><time>2026-04-24T09:53:04.952Z</time></trkpt><trkpt lat="34.3371567" lon="7.90862"><ele>131.33333333333331</ele><time>2026-04-24T09:53:05.952Z</time></trkpt><trkpt lat="34.337265" lon="7.908395"><ele>131.66666666666666</ele><time>2026-04-24T09:53:06.952Z</time></trkpt><trkpt lat="34.33738" lon="7.9081683"><ele>132.0</ele><time>2026-04-24T09:53:07.952Z</time></trkpt><trkpt lat="34.3374967" lon="7.9079467"><ele>132.0</ele><time>2026-04-24T09:53:08.951Z</time></trkpt><trkpt lat="34.3376167" lon="7.9077267"><ele>132.0</ele><time>2026-04-24T09:53:09.952Z</time></trkpt><trkpt lat="34.3377417" lon="7.9074983"><ele>132.0</ele><time>2026-04-24T09:53:10.952Z</time></trkpt><trkpt lat="34.3378617" lon="7.9072883"><ele>131.33333333333334</ele><time>2026-04-24T09:53:11.951Z</time></trkpt><trkpt lat="34.3379933" lon="7.907075"><ele>130.66666666666669</ele><time>2026-04-24T09:53:12.952Z</time></trkpt><trkpt lat="34.3381317" lon="7.9068717"><ele>130.0</ele><time>2026-04-24T09:53:13.952Z</time></trkpt><trkpt lat="34.338275" lon="7.906675"><ele>129.66666666666669</ele><time>2026-04-24T09:53:14.952Z</time></trkpt><trkpt lat="34.3384183" lon="7.9064767"><ele>129.33333333333334</ele><time>2026-04-24T09:53:15.952Z</time></trkpt><trkpt lat="34.338565" lon="7.906285"><ele>129.0</ele><time>2026-04-24T09:53:16.952Z</time></trkpt><trkpt lat="34.3387167" lon="7.9060967"><ele>129.0</ele><time>2026-04-24T09:53:17.951Z</time></trkpt><trkpt lat="34.338875" lon="7.905915"><ele>129.0</ele><time>2026-04-24T09:53:18.952Z</time></trkpt><trkpt lat="34.3390433" lon="7.9057417"><ele>129.0</ele><time>2026-04-24T09:53:19.952Z</time></trkpt><trkpt lat="34.3392067" lon="7.9055583"><ele>129.0</ele><time>2026-04-24T09:53:20.952Z</time></trkpt><trkpt lat="34.33937" lon="7.9053817"><ele>129.0</ele><time>2026-04-24T09:53:21.952Z</time></trkpt><trkpt lat="34.3395317" lon="7.9052017"><ele>129.0</ele><time>2026-04-24T09:53:22.952Z</time></trkpt><trkpt lat="34.339695" lon="7.9050283"><ele>130.0</ele><time>2026-04-24T09:53:23.952Z</time></trkpt><trkpt lat="34.3398617" lon="7.9048583"><ele>131.0</ele><time>2026-04-24T09:53:24.952Z</time></trkpt><trkpt lat="34.34003" lon="7.90469"><ele>132.0</ele><time>2026-04-24T09:53:25.952Z</time></trkpt><trkpt lat="34.3402" lon="7.9045233"><ele>132.0</ele><time>2026-04-24T09:53:26.951Z</time></trkpt><trkpt lat="34.3403633" lon="7.9043533"><ele>132.0</ele><time>2026-04-24T09:53:27.951Z</time></trkpt><trkpt lat="34.340525" lon="7.90418"><ele>132.0</ele><time>2026-04-24T09:53:28.952Z</time></trkpt><trkpt lat="34.340685" lon="7.9040067"><ele>133.33333333333334</ele><time>2026-04-24T09:53:29.952Z</time></trkpt><trkpt lat="34.3408517" lon="7.9038217"><ele>134.66666666666669</ele><time>2026-04-24T09:53:30.952Z</time></trkpt><trkpt lat="34.3410167" lon="7.90364"><ele>136.0</ele><time>2026-04-24T09:53:31.952Z</time></trkpt><trkpt lat="34.3411817" lon="7.903455"><ele>136.5</ele><time>2026-04-24T09:53:32.951Z</time></trkpt><trkpt lat="34.3413417" lon="7.9032617"><ele>137.0</ele><time>2026-04-24T09:53:33.952Z</time></trkpt><trkpt lat="34.341495" lon="7.9030583"><ele>137.33333333333331</ele><time>2026-04-24T09:53:34.952Z</time></trkpt><trkpt lat="34.341645" lon="7.9028533"><ele>137.66666666666666</ele><time>2026-04-24T09:53:35.952Z</time></trkpt><trkpt lat="34.341795" lon="7.902655"><ele>138.0</ele><time>2026-04-24T09:53:36.952Z</time></trkpt><trkpt lat="34.3419317" lon="7.9024467"><ele>138.0</ele><time>2026-04-24T09:53:37.952Z</time></trkpt><trkpt lat="34.3420717" lon="7.9022367"><ele>138.0</ele><time>2026-04-24T09:53:38.951Z</time></trkpt><trkpt lat="34.342215" lon="7.9020283"><ele>138.0</ele><time>2026-04-24T09:53:39.952Z</time></trkpt><trkpt lat="34.3423683" lon="7.901825"><ele>139.5</ele><time>2026-04-24T09:53:40.952Z</time></trkpt><trkpt lat="34.342525" lon="7.9016283"><ele>141.0</ele><time>2026-04-24T09:53:41.952Z</time></trkpt><trkpt lat="34.3426867" lon="7.9014367"><ele>141.0</ele><time>2026-04-24T09:53:42.952Z</time></trkpt><trkpt lat="34.3428517" lon="7.90126"><ele>141.0</ele><time>2026-04-24T09:53:43.952Z</time></trkpt><trkpt lat="34.3430183" lon="7.9010867"><ele>141.0</ele><time>2026-04-24T09:53:44.951Z</time></trkpt><trkpt lat="34.3431883" lon="7.9009017"><ele>140.5</ele><time>2026-04-24T09:53:45.952Z</time></trkpt><trkpt lat="34.343355" lon="7.9007167"><ele>140.0</ele><time>2026-04-24T09:53:46.951Z</time></trkpt><trkpt lat="34.343535" lon="7.9005417"><ele>140.0</ele><time>2026-04-24T09:53:47.952Z</time></trkpt><trkpt lat="34.34372" lon="7.9003783"><ele>140.0</ele><time>2026-04-24T09:53:48.952Z</time></trkpt><trkpt lat="34.3439017" lon="7.9002167"><ele>140.5</ele><time>2026-04-24T09:53:49.952Z</time></trkpt><trkpt lat="34.3440817" lon="7.9000533"><ele>141.0</ele><time>2026-04-24T09:53:50.952Z</time></trkpt><trkpt lat="34.3442633" lon="7.8998883"><ele>141.0</ele><time>2026-04-24T09:53:51.952Z</time></trkpt><trkpt lat="34.344445" lon="7.8997217"><ele>141.0</ele><time>2026-04-24T09:53:52.952Z</time></trkpt><trkpt lat="34.3446217" lon="7.8995583"><ele>143.0</ele><time>2026-04-24T09:53:53.951Z</time></trkpt><trkpt lat="34.3448117" lon="7.8993883"><ele>145.0</ele><time>2026-04-24T09:53:54.952Z</time></trkpt><trkpt lat="34.3449983" lon="7.8992167"><ele>145.0</ele><time>2026-04-24T09:53:55.952Z</time></trkpt><trkpt lat="34.345175" lon="7.8990467"><ele>145.0</ele><time>2026-04-24T09:53:56.951Z</time></trkpt><trkpt lat="34.3453483" lon="7.89887"><ele>145.0</ele><time>2026-04-24T09:53:57.952Z</time></trkpt><trkpt lat="34.34552" lon="7.8987"><ele>145.0</ele><time>2026-04-24T09:53:58.952Z</time></trkpt><trkpt lat="34.345685" lon="7.898525"><ele>145.0</ele><time>2026-04-24T09:53:59.952Z</time></trkpt><trkpt lat="34.3458517" lon="7.89835"><ele>145.5</ele><time>2026-04-24T09:54:00.952Z</time></trkpt><trkpt lat="34.3460183" lon="7.8981717"><ele>146.0</ele><time>2026-04-24T09:54:01.952Z</time></trkpt><trkpt lat="34.34619" lon="7.89799"><ele>146.0</ele><time>2026-04-24T09:54:02.952Z</time></trkpt><trkpt lat="34.34636" lon="7.8978067"><ele>146.0</ele><time>2026-04-24T09:54:03.952Z</time></trkpt><trkpt lat="34.34653" lon="7.8976333"><ele>147.0</ele><time>2026-04-24T09:54:04.952Z</time></trkpt><trkpt lat="34.346705" lon="7.897455"><ele>148.0</ele><time>2026-04-24T09:54:05.952Z</time></trkpt><trkpt lat="34.3468767" lon="7.89728"><ele>148.0</ele><time>2026-04-24T09:54:06.952Z</time></trkpt><trkpt lat="34.347045" lon="7.8971033"><ele>148.0</ele><time>2026-04-24T09:54:07.952Z</time></trkpt><trkpt lat="34.347225" lon="7.8969367"><ele>148.0</ele><time>2026-04-24T09:54:08.952Z</time></trkpt><trkpt lat="34.3474133" lon="7.89678"><ele>149.0</ele><time>2026-04-24T09:54:09.951Z</time></trkpt><trkpt lat="34.3475983" lon="7.8966267"><ele>150.0</ele><time>2026-04-24T09:54:10.952Z</time></trkpt><trkpt lat="34.3477867" lon="7.8964817"><ele>151.0</ele><time>2026-04-24T09:54:11.951Z</time></trkpt><trkpt lat="34.347975" lon="7.8963283"><ele>152.5</ele><time>2026-04-24T09:54:12.952Z</time></trkpt><trkpt lat="34.3481617" lon="7.896175"><ele>154.0</ele><time>2026-04-24T09:54:13.952Z</time></trkpt><trkpt lat="34.3483583" lon="7.89602"><ele>154.0</ele><time>2026-04-24T09:54:14.952Z</time></trkpt><trkpt lat="34.3485467" lon="7.8958667"><ele>154.0</ele><time>2026-04-24T09:54:15.952Z</time></trkpt><trkpt lat="34.348735" lon="7.89572"><ele>156.0</ele><time>2026-04-24T09:54:16.952Z</time></trkpt><trkpt lat="34.3489183" lon="7.8955683"><ele>158.0</ele><time>2026-04-24T09:54:17.952Z</time></trkpt><trkpt lat="34.3491083" lon="7.895415"><ele>158.0</ele><time>2026-04-24T09:54:18.952Z</time></trkpt><trkpt lat="34.3492983" lon="7.89527"><ele>158.0</ele><time>2026-04-24T09:54:19.952Z</time></trkpt><trkpt lat="34.349485" lon="7.8951283"><ele>158.0</ele><time>2026-04-24T09:54:20.952Z</time></trkpt><trkpt lat="34.3496783" lon="7.8949833"><ele>158.5</ele><time>2026-04-24T09:54:21.952Z</time></trkpt><trkpt lat="34.3498733" lon="7.8948433"><ele>159.0</ele><time>2026-04-24T09:54:22.952Z</time></trkpt><trkpt lat="34.3500717" lon="7.8947033"><ele>159.0</ele><time>2026-04-24T09:54:23.952Z</time></trkpt><trkpt lat="34.3502667" lon="7.8945683"><ele>159.0</ele><time>2026-04-24T09:54:24.952Z</time></trkpt><trkpt lat="34.35046" lon="7.89443"><ele>159.0</ele><time>2026-04-24T09:54:25.952Z</time></trkpt><trkpt lat="34.3506533" lon="7.8943"><ele>160.0</ele><time>2026-04-24T09:54:26.952Z</time></trkpt><trkpt lat="34.3508467" lon="7.89415"><ele>161.0</ele><time>2026-04-24T09:54:27.952Z</time></trkpt><trkpt lat="34.3510317" lon="7.894"><ele>161.0</ele><time>2026-04-24T09:54:28.952Z</time></trkpt><trkpt lat="34.351205" lon="7.893855"><ele>161.0</ele><time>2026-04-24T09:54:29.952Z</time></trkpt><trkpt lat="34.3513683" lon="7.89372"><ele>161.0</ele><time>2026-04-24T09:54:30.952Z</time></trkpt><trkpt lat="34.3515217" lon="7.8936117"><ele>162.66666666666666</ele><time>2026-04-24T09:54:31.952Z</time></trkpt><trkpt lat="34.35168" lon="7.8935317"><ele>164.33333333333334</ele><time>2026-04-24T09:54:32.952Z</time></trkpt><trkpt lat="34.3518417" lon="7.8934783"><ele>166.0</ele><time>2026-04-24T09:54:33.952Z</time></trkpt><trkpt lat="34.352005" lon="7.893455"><ele>166.0</ele><time>2026-04-24T09:54:34.951Z</time></trkpt><trkpt lat="34.352175" lon="7.89346"><ele>166.0</ele><time>2026-04-24T09:54:35.951Z</time></trkpt><trkpt lat="34.35233" lon="7.893495"><ele>166.0</ele><time>2026-04-24T09:54:36.951Z</time></trkpt><trkpt lat="34.352485" lon="7.8935633"><ele>168.0</ele><time>2026-04-24T09:54:37.951Z</time></trkpt><trkpt lat="34.3526283" lon="7.8936567"><ele>170.0</ele><time>2026-04-24T09:54:38.951Z</time></trkpt><trkpt lat="34.3527633" lon="7.8937683"><ele>172.0</ele><time>2026-04-24T09:54:39.951Z</time></trkpt><trkpt lat="34.3529" lon="7.8938867"><ele>172.0</ele><time>2026-04-24T09:54:40.951Z</time></trkpt><trkpt lat="34.35303" lon="7.8940067"><ele>172.0</ele><time>2026-04-24T09:54:41.951Z</time></trkpt><trkpt lat="34.3531683" lon="7.8941233"><ele>172.0</ele><time>2026-04-24T09:54:42.951Z</time></trkpt><trkpt lat="34.353305" lon="7.8942367"><ele>174.0</ele><time>2026-04-24T09:54:43.951Z</time></trkpt><trkpt lat="34.353445" lon="7.8943467"><ele>176.0</ele><time>2026-04-24T09:54:44.95Z</time></trkpt><trkpt lat="34.3535867" lon="7.89446"><ele>178.0</ele><time>2026-04-24T09:54:45.95Z</time></trkpt><trkpt lat="34.35372" lon="7.8945783"><ele>178.0</ele><time>2026-04-24T09:54:46.951Z</time></trkpt><trkpt lat="34.3538483" lon="7.894705"><ele>178.0</ele><time>2026-04-24T09:54:47.95Z</time></trkpt><trkpt lat="34.3539617" lon="7.89483"><ele>178.0</ele><time>2026-04-24T09:54:48.951Z</time></trkpt><trkpt lat="34.3540633" lon="7.8949733"><ele>177.66666666666669</ele><time>2026-04-24T09:54:49.951Z</time></trkpt><trkpt lat="34.3541433" lon="7.8951317"><ele>177.33333333333334</ele><time>2026-04-24T09:54:50.951Z</time></trkpt><trkpt lat="34.3542167" lon="7.8953017"><ele>177.0</ele><time>2026-04-24T09:54:51.951Z</time></trkpt><trkpt lat="34.35427" lon="7.8954833"><ele>177.0</ele><time>2026-04-24T09:54:52.951Z</time></trkpt><trkpt lat="34.3543067" lon="7.895675"><ele>177.0</ele><time>2026-04-24T09:54:53.951Z</time></trkpt><trkpt lat="34.3543367" lon="7.895875"><ele>177.0</ele><time>2026-04-24T09:54:54.95Z</time></trkpt><trkpt lat="34.3543683" lon="7.89607"><ele>178.66666666666666</ele><time>2026-04-24T09:54:55.951Z</time></trkpt><trkpt lat="34.3543967" lon="7.8962717"><ele>180.33333333333331</ele><time>2026-04-24T09:54:56.951Z</time></trkpt><trkpt lat="34.3544283" lon="7.896475"><ele>182.0</ele><time>2026-04-24T09:54:57.951Z</time></trkpt><trkpt lat="34.35447" lon="7.8966733"><ele>183.66666666666666</ele><time>2026-04-24T09:54:58.951Z</time></trkpt><trkpt lat="34.3545033" lon="7.8968817"><ele>185.33333333333334</ele><time>2026-04-24T09:54:59.95Z</time></trkpt><trkpt lat="34.35454" lon="7.8970867"><ele>187.0</ele><time>2026-04-24T09:55:00.951Z</time></trkpt><trkpt lat="34.3545833" lon="7.8972933"><ele>187.0</ele><time>2026-04-24T09:55:01.951Z</time></trkpt><trkpt lat="34.35465" lon="7.8974883"><ele>187.0</ele><time>2026-04-24T09:55:02.951Z</time></trkpt><trkpt lat="34.3547417" lon="7.8976833"><ele>187.0</ele><time>2026-04-24T09:55:03.95Z</time></trkpt><trkpt lat="34.3548283" lon="7.8978683"><ele>186.0</ele><time>2026-04-24T09:55:04.951Z</time></trkpt><trkpt lat="34.3549233" lon="7.8980517"><ele>185.0</ele><time>2026-04-24T09:55:05.951Z</time></trkpt><trkpt lat="34.3550283" lon="7.898235"><ele>184.0</ele><time>2026-04-24T09:55:06.951Z</time></trkpt><trkpt lat="34.35514" lon="7.898415"><ele>185.0</ele><time>2026-04-24T09:55:07.95Z</time></trkpt><trkpt lat="34.3552467" lon="7.898605"><ele>186.0</ele><time>2026-04-24T09:55:08.951Z</time></trkpt><trkpt lat="34.3553633" lon="7.89879"><ele>187.0</ele><time>2026-04-24T09:55:09.95Z</time></trkpt><trkpt lat="34.3554783" lon="7.8989767"><ele>187.0</ele><time>2026-04-24T09:55:10.951Z</time></trkpt><trkpt lat="34.3556033" lon="7.8991633"><ele>187.0</ele><time>2026-04-24T09:55:11.951Z</time></trkpt><trkpt lat="34.355725" lon="7.8993583"><ele>187.0</ele><time>2026-04-24T09:55:12.95Z</time></trkpt><trkpt lat="34.3558483" lon="7.8995533"><ele>187.0</ele><time>2026-04-24T09:55:13.951Z</time></trkpt><trkpt lat="34.3559733" lon="7.899745"><ele>187.0</ele><time>2026-04-24T09:55:14.95Z</time></trkpt><trkpt lat="34.3560883" lon="7.89993"><ele>187.0</ele><time>2026-04-24T09:55:15.951Z</time></trkpt><trkpt lat="34.3562033" lon="7.9001183"><ele>188.33333333333334</ele><time>2026-04-24T09:55:16.95Z</time></trkpt><trkpt lat="34.3563083" lon="7.9003067"><ele>189.66666666666666</ele><time>2026-04-24T09:55:17.951Z</time></trkpt><trkpt lat="34.35642" lon="7.9004933"><ele>191.0</ele><time>2026-04-24T09:55:18.951Z</time></trkpt><trkpt lat="34.3565267" lon="7.9006833"><ele>191.0</ele><time>2026-04-24T09:55:19.951Z</time></trkpt><trkpt lat="34.3566367" lon="7.9008767"><ele>191.0</ele><time>2026-04-24T09:55:20.95Z</time></trkpt><trkpt lat="34.3567583" lon="7.9010667"><ele>191.0</ele><time>2026-04-24T09:55:21.951Z</time></trkpt><trkpt lat="34.356875" lon="7.901245"><ele>192.66666666666666</ele><time>2026-04-24T09:55:22.951Z</time></trkpt><trkpt lat="34.35699" lon="7.9014183"><ele>194.33333333333331</ele><time>2026-04-24T09:55:23.95Z</time></trkpt><trkpt lat="34.3571" lon="7.9016033"><ele>196.0</ele><time>2026-04-24T09:55:24.951Z</time></trkpt><trkpt lat="34.35721" lon="7.9017817"><ele>199.33333333333331</ele><time>2026-04-24T09:55:25.951Z</time></trkpt><trkpt lat="34.3573083" lon="7.9019383"><ele>202.66666666666669</ele><time>2026-04-24T09:55:26.951Z</time></trkpt><trkpt lat="34.3574033" lon="7.9020867"><ele>206.0</ele><time>2026-04-24T09:55:27.951Z</time></trkpt><trkpt lat="34.35751" lon="7.9021917"><ele>206.0</ele><time>2026-04-24T09:55:28.951Z</time></trkpt><trkpt lat="34.3576333" lon="7.902225"><ele>206.0</ele><time>2026-04-24T09:55:29.951Z</time></trkpt><trkpt lat="34.3577517" lon="7.9022067"><ele>206.0</ele><time>2026-04-24T09:55:30.95Z</time></trkpt><trkpt lat="34.3578617" lon="7.9021417"><ele>206.0</ele><time>2026-04-24T09:55:31.951Z</time></trkpt><trkpt lat="34.3579517" lon="7.9020433"><ele>206.0</ele><time>2026-04-24T09:55:32.95Z</time></trkpt><trkpt lat="34.3580233" lon="7.9019117"><ele>206.0</ele><time>2026-04-24T09:55:33.951Z</time></trkpt><trkpt lat="34.3580833" lon="7.9017833"><ele>206.0</ele><time>2026-04-24T09:55:34.951Z</time></trkpt><trkpt lat="34.3581467" lon="7.9016567"><ele>206.0</ele><time>2026-04-24T09:55:35.95Z</time></trkpt><trkpt lat="34.3582167" lon="7.90157"><ele>205.4</ele><time>2026-04-24T09:55:36.95Z</time></trkpt><trkpt lat="34.358285" lon="7.90156"><ele>204.8</ele><time>2026-04-24T09:55:37.95Z</time></trkpt><trkpt lat="34.3583483" lon="7.901585"><ele>204.20000000000002</ele><time>2026-04-24T09:55:38.951Z</time></trkpt><trkpt lat="34.3584367" lon="7.9017183"><ele>203.60000000000002</ele><time>2026-04-24T09:55:40.95Z</time></trkpt><trkpt lat="34.3584667" lon="7.9018233"><ele>203.0</ele><time>2026-04-24T09:55:41.951Z</time></trkpt><trkpt lat="34.35849" lon="7.90194"><ele>205.2</ele><time>2026-04-24T09:55:42.951Z</time></trkpt><trkpt lat="34.3584883" lon="7.90207"><ele>207.4</ele><time>2026-04-24T09:55:43.95Z</time></trkpt><trkpt lat="34.3584733" lon="7.902205"><ele>209.59999999999997</ele><time>2026-04-24T09:55:44.951Z</time></trkpt><trkpt lat="34.3584483" lon="7.9023317"><ele>211.79999999999998</ele><time>2026-04-24T09:55:45.951Z</time></trkpt><trkpt lat="34.3584117" lon="7.9024483"><ele>214.0</ele><time>2026-04-24T09:55:46.951Z</time></trkpt><trkpt lat="34.3583433" lon="7.9025617"><ele>216.66666666666666</ele><time>2026-04-24T09:55:47.951Z</time></trkpt><trkpt lat="34.3582783" lon="7.9026717"><ele>219.33333333333331</ele><time>2026-04-24T09:55:48.95Z</time></trkpt><trkpt lat="34.3582217" lon="7.9027633"><ele>222.0</ele><time>2026-04-24T09:55:49.951Z</time></trkpt><trkpt lat="34.3582033" lon="7.902845"><ele>224.66666666666669</ele><time>2026-04-24T09:55:50.951Z</time></trkpt><trkpt lat="34.3582333" lon="7.9029233"><ele>227.33333333333334</ele><time>2026-04-24T09:55:51.951Z</time></trkpt><trkpt lat="34.3582983" lon="7.9029767"><ele>230.0</ele><time>2026-04-24T09:55:52.95Z</time></trkpt><trkpt lat="34.3583833" lon="7.9030133"><ele>230.00000000000003</ele><time>2026-04-24T09:55:53.951Z</time></trkpt><trkpt lat="34.358475" lon="7.903035"><ele>230.0</ele><time>2026-04-24T09:55:54.951Z</time></trkpt><trkpt lat="34.3585717" lon="7.9030717"><ele>230.0</ele><time>2026-04-24T09:55:55.951Z</time></trkpt><trkpt lat="34.35864" lon="7.9031183"><ele>230.0</ele><time>2026-04-24T09:55:56.951Z</time></trkpt><trkpt lat="34.3586533" lon="7.9032467"><ele>230.00000000000003</ele><time>2026-04-24T09:55:58.951Z</time></trkpt><trkpt lat="34.3585983" lon="7.9032917"><ele>230.0</ele><time>2026-04-24T09:55:59.951Z</time></trkpt><trkpt lat="34.3585283" lon="7.9033133"><ele>230.0</ele><time>2026-04-24T09:56:00.951Z</time></trkpt><trkpt lat="34.3584433" lon="7.903315"><ele>230.0</ele><time>2026-04-24T09:56:01.95Z</time></trkpt><trkpt lat="34.3583417" lon="7.9033167"><ele>230.0</ele><time>2026-04-24T09:56:02.95Z</time></trkpt><trkpt lat="34.358235" lon="7.9033233"><ele>230.0</ele><time>2026-04-24T09:56:03.951Z</time></trkpt><trkpt lat="34.3581233" lon="7.9033183"><ele>230.0</ele><time>2026-04-24T09:56:04.95Z</time></trkpt><trkpt lat="34.3580233" lon="7.9033367"><ele>229.16666666666669</ele><time>2026-04-24T09:56:05.95Z</time></trkpt><trkpt lat="34.3579517" lon="7.9033783"><ele>228.33333333333334</ele><time>2026-04-24T09:56:06.95Z</time></trkpt><trkpt lat="34.3579183" lon="7.9034517"><ele>227.5</ele><time>2026-04-24T09:56:07.95Z</time></trkpt><trkpt lat="34.3579317" lon="7.9035417"><ele>226.66666666666669</ele><time>2026-04-24T09:56:08.951Z</time></trkpt><trkpt lat="34.3579767" lon="7.9036233"><ele>225.83333333333334</ele><time>2026-04-24T09:56:09.951Z</time></trkpt><trkpt lat="34.3580533" lon="7.9036867"><ele>225.0</ele><time>2026-04-24T09:56:10.951Z</time></trkpt><trkpt lat="34.35814" lon="7.9037333"><ele>229.0</ele><time>2026-04-24T09:56:11.951Z</time></trkpt><trkpt lat="34.35823" lon="7.9037767"><ele>233.0</ele><time>2026-04-24T09:56:12.951Z</time></trkpt><trkpt lat="34.3583333" lon="7.9038067"><ele>237.0</ele><time>2026-04-24T09:56:13.951Z</time></trkpt><trkpt lat="34.358435" lon="7.9038383"><ele>241.0</ele><time>2026-04-24T09:56:14.95Z</time></trkpt><trkpt lat="34.3585417" lon="7.9038733"><ele>245.0</ele><time>2026-04-24T09:56:15.95Z</time></trkpt><trkpt lat="34.3586417" lon="7.9039167"><ele>245.0</ele><time>2026-04-24T09:56:16.951Z</time></trkpt><trkpt lat="34.358745" lon="7.9039683"><ele>245.0</ele><time>2026-04-24T09:56:17.951Z</time></trkpt><trkpt lat="34.3588583" lon="7.9040183"><ele>245.0</ele><time>2026-04-24T09:56:18.951Z</time></trkpt><trkpt lat="34.358975" lon="7.9040633"><ele>245.0</ele><time>2026-04-24T09:56:19.951Z</time></trkpt><trkpt lat="34.359085" lon="7.9040767"><ele>246.2</ele><time>2026-04-24T09:56:20.951Z</time></trkpt><trkpt lat="34.3591983" lon="7.90407"><ele>247.4</ele><time>2026-04-24T09:56:21.951Z</time></trkpt><trkpt lat="34.3593017" lon="7.9040383"><ele>248.60000000000002</ele><time>2026-04-24T09:56:22.951Z</time></trkpt><trkpt lat="34.3593983" lon="7.904"><ele>249.8</ele><time>2026-04-24T09:56:23.951Z</time></trkpt><trkpt lat="34.3594983" lon="7.90398"><ele>251.0</ele><time>2026-04-24T09:56:24.95Z</time></trkpt><trkpt lat="34.35959" lon="7.9039817"><ele>251.00000000000003</ele><time>2026-04-24T09:56:25.95Z</time></trkpt><trkpt lat="34.3596683" lon="7.9039983"><ele>251.0</ele><time>2026-04-24T09:56:26.951Z</time></trkpt><trkpt lat="34.3597383" lon="7.9040183"><ele>251.0</ele><time>2026-04-24T09:56:27.951Z</time></trkpt><trkpt lat="34.3598333" lon="7.9041067"><ele>251.0</ele><time>2026-04-24T09:56:29.951Z</time></trkpt><trkpt lat="34.35986" lon="7.9041767"><ele>251.00000000000003</ele><time>2026-04-24T09:56:30.95Z</time></trkpt><trkpt lat="34.3598583" lon="7.904275"><ele>251.0</ele><time>2026-04-24T09:56:31.951Z</time></trkpt><trkpt lat="34.3598383" lon="7.9043833"><ele>253.83333333333334</ele><time>2026-04-24T09:56:32.95Z</time></trkpt><trkpt lat="34.3598033" lon="7.9045"><ele>256.6666666666667</ele><time>2026-04-24T09:56:33.95Z</time></trkpt><trkpt lat="34.35976" lon="7.9046083"><ele>259.5</ele><time>2026-04-24T09:56:34.951Z</time></trkpt><trkpt lat="34.3597183" lon="7.9046967"><ele>262.3333333333333</ele><time>2026-04-24T09:56:35.95Z</time></trkpt><trkpt lat="34.3596883" lon="7.9047867"><ele>265.16666666666663</ele><time>2026-04-24T09:56:36.951Z</time></trkpt><trkpt lat="34.3596567" lon="7.9048717"><ele>268.0</ele><time>2026-04-24T09:56:37.951Z</time></trkpt><trkpt lat="34.35962" lon="7.9049583"><ele>268.0</ele><time>2026-04-24T09:56:38.95Z</time></trkpt><trkpt lat="34.3595967" lon="7.9050417"><ele>268.0</ele><time>2026-04-24T09:56:39.95Z</time></trkpt><trkpt lat="34.3595733" lon="7.9051367"><ele>268.0</ele><time>2026-04-24T09:56:40.951Z</time></trkpt><trkpt lat="34.35956" lon="7.9052333"><ele>268.0</ele><time>2026-04-24T09:56:41.951Z</time></trkpt><trkpt lat="34.3595533" lon="7.90533"><ele>268.0</ele><time>2026-04-24T09:56:42.951Z</time></trkpt><trkpt lat="34.35957" lon="7.905435"><ele>268.0</ele><time>2026-04-24T09:56:43.951Z</time></trkpt><trkpt lat="34.3596117" lon="7.9055483"><ele>269.0</ele><time>2026-04-24T09:56:44.951Z</time></trkpt><trkpt lat="34.359665" lon="7.90567"><ele>270.0</ele><time>2026-04-24T09:56:45.951Z</time></trkpt><trkpt lat="34.3597283" lon="7.9058067"><ele>271.0</ele><time>2026-04-24T09:56:46.951Z</time></trkpt><trkpt lat="34.3597983" lon="7.9059533"><ele>272.0</ele><time>2026-04-24T09:56:47.95Z</time></trkpt><trkpt lat="34.3598733" lon="7.9061"><ele>272.0</ele><time>2026-04-24T09:56:48.95Z</time></trkpt><trkpt lat="34.359955" lon="7.906245"><ele>272.0</ele><time>2026-04-24T09:56:49.95Z</time></trkpt><trkpt lat="34.3600633" lon="7.9063833"><ele>272.0</ele><time>2026-04-24T09:56:50.95Z</time></trkpt><trkpt lat="34.3601733" lon="7.90652"><ele>272.0</ele><time>2026-04-24T09:56:51.951Z</time></trkpt><trkpt lat="34.3602867" lon="7.9066517"><ele>272.0</ele><time>2026-04-24T09:56:52.951Z</time></trkpt><trkpt lat="34.360415" lon="7.9067767"><ele>272.0</ele><time>2026-04-24T09:56:53.951Z</time></trkpt><trkpt lat="34.360535" lon="7.906905"><ele>274.6666666666667</ele><time>2026-04-24T09:56:54.951Z</time></trkpt><trkpt lat="34.3606583" lon="7.9070283"><ele>277.3333333333333</ele><time>2026-04-24T09:56:55.95Z</time></trkpt><trkpt lat="34.3607783" lon="7.9071617"><ele>280.0</ele><time>2026-04-24T09:56:56.95Z</time></trkpt><trkpt lat="34.3609033" lon="7.9073"><ele>280.0</ele><time>2026-04-24T09:56:57.951Z</time></trkpt><trkpt lat="34.3610267" lon="7.907435"><ele>280.0</ele><time>2026-04-24T09:56:58.951Z</time></trkpt><trkpt lat="34.36116" lon="7.9075817"><ele>280.0</ele><time>2026-04-24T09:56:59.951Z</time></trkpt><trkpt lat="34.3612917" lon="7.907725"><ele>282.66666666666663</ele><time>2026-04-24T09:57:00.951Z</time></trkpt><trkpt lat="34.3614267" lon="7.90787"><ele>285.3333333333333</ele><time>2026-04-24T09:57:01.951Z</time></trkpt><trkpt lat="34.3615617" lon="7.908015"><ele>288.0</ele><time>2026-04-24T09:57:02.951Z</time></trkpt><trkpt lat="34.3616933" lon="7.9081617"><ele>288.0</ele><time>2026-04-24T09:57:03.951Z</time></trkpt><trkpt lat="34.36182" lon="7.9083067"><ele>288.0</ele><time>2026-04-24T09:57:04.951Z</time></trkpt><trkpt lat="34.3619433" lon="7.9084517"><ele>288.0</ele><time>2026-04-24T09:57:05.95Z</time></trkpt><trkpt lat="34.3620533" lon="7.9086083"><ele>290.6666666666667</ele><time>2026-04-24T09:57:06.951Z</time></trkpt><trkpt lat="34.3621517" lon="7.9087717"><ele>293.33333333333337</ele><time>2026-04-24T09:57:07.951Z</time></trkpt><trkpt lat="34.3622267" lon="7.90894"><ele>296.0</ele><time>2026-04-24T09:57:08.951Z</time></trkpt><trkpt lat="34.3622933" lon="7.9091167"><ele>304.33333333333337</ele><time>2026-04-24T09:57:09.951Z</time></trkpt><trkpt lat="34.3623733" lon="7.9092833"><ele>312.6666666666667</ele><time>2026-04-24T09:57:10.951Z</time></trkpt><trkpt lat="34.3624783" lon="7.9094367"><ele>321.0</ele><time>2026-04-24T09:57:11.951Z</time></trkpt><trkpt lat="34.362595" lon="7.9095717"><ele>321.0</ele><time>2026-04-24T09:57:12.951Z</time></trkpt><trkpt lat="34.36272" lon="7.9096933"><ele>321.0</ele><time>2026-04-24T09:57:13.951Z</time></trkpt><trkpt lat="34.3628533" lon="7.90981"><ele>321.0</ele><time>2026-04-24T09:57:14.951Z</time></trkpt><trkpt lat="34.3629783" lon="7.9099117"><ele>322.5</ele><time>2026-04-24T09:57:15.951Z</time></trkpt><trkpt lat="34.3630967" lon="7.9099983"><ele>324.0</ele><time>2026-04-24T09:57:16.951Z</time></trkpt><trkpt lat="34.363225" lon="7.9100733"><ele>325.5</ele><time>2026-04-24T09:57:17.95Z</time></trkpt><trkpt lat="34.3633567" lon="7.910105"><ele>327.0</ele><time>2026-04-24T09:57:18.951Z</time></trkpt><trkpt lat="34.363475" lon="7.9100933"><ele>327.0</ele><time>2026-04-24T09:57:19.951Z</time></trkpt><trkpt lat="34.3635967" lon="7.9100383"><ele>327.0</ele><time>2026-04-24T09:57:20.951Z</time></trkpt><trkpt lat="34.36371" lon="7.9099533"><ele>327.0</ele><time>2026-04-24T09:57:21.951Z</time></trkpt><trkpt lat="34.3638183" lon="7.9098533"><ele>327.0</ele><time>2026-04-24T09:57:22.951Z</time></trkpt><trkpt lat="34.3639333" lon="7.9097417"><ele>329.5</ele><time>2026-04-24T09:57:23.951Z</time></trkpt><trkpt lat="34.3640417" lon="7.90963"><ele>332.0</ele><time>2026-04-24T09:57:24.951Z</time></trkpt><trkpt lat="34.3641467" lon="7.90951"><ele>334.5</ele><time>2026-04-24T09:57:25.951Z</time></trkpt><trkpt lat="34.3642583" lon="7.9094"><ele>337.0</ele><time>2026-04-24T09:57:26.951Z</time></trkpt><trkpt lat="34.3643633" lon="7.9093083"><ele>337.0</ele><time>2026-04-24T09:57:27.951Z</time></trkpt><trkpt lat="34.36448" lon="7.90925"><ele>337.0</ele><time>2026-04-24T09:57:28.951Z</time></trkpt><trkpt lat="34.3646067" lon="7.9092283"><ele>337.0</ele><time>2026-04-24T09:57:29.951Z</time></trkpt><trkpt lat="34.3647433" lon="7.9092467"><ele>337.0</ele><time>2026-04-24T09:57:30.951Z</time></trkpt><trkpt lat="34.3648833" lon="7.90927"><ele>333.0</ele><time>2026-04-24T09:57:31.951Z</time></trkpt><trkpt lat="34.3650183" lon="7.9092783"><ele>329.0</ele><time>2026-04-24T09:57:32.951Z</time></trkpt><trkpt lat="34.3651617" lon="7.90926"><ele>325.0</ele><time>2026-04-24T09:57:33.951Z</time></trkpt><trkpt lat="34.365305" lon="7.9092067"><ele>321.0</ele><time>2026-04-24T09:57:34.951Z</time></trkpt><trkpt lat="34.3654417" lon="7.90913"><ele>318.75</ele><time>2026-04-24T09:57:35.95Z</time></trkpt><trkpt lat="34.3655717" lon="7.9090383"><ele>316.5</ele><time>2026-04-24T09:57:36.951Z</time></trkpt><trkpt lat="34.3656967" lon="7.9089483"><ele>314.25</ele><time>2026-04-24T09:57:37.951Z</time></trkpt><trkpt lat="34.3658183" lon="7.9088467"><ele>312.0</ele><time>2026-04-24T09:57:38.951Z</time></trkpt><trkpt lat="34.3659367" lon="7.90874"><ele>312.0</ele><time>2026-04-24T09:57:39.95Z</time></trkpt><trkpt lat="34.3660433" lon="7.90863"><ele>312.0</ele><time>2026-04-24T09:57:40.951Z</time></trkpt><trkpt lat="34.3661433" lon="7.9085267"><ele>312.0</ele><time>2026-04-24T09:57:41.951Z</time></trkpt><trkpt lat="34.3662417" lon="7.908415"><ele>312.0</ele><time>2026-04-24T09:57:42.951Z</time></trkpt><trkpt lat="34.366335" lon="7.90831"><ele>311.6</ele><time>2026-04-24T09:57:43.951Z</time></trkpt><trkpt lat="34.366425" lon="7.9082033"><ele>311.2</ele><time>2026-04-24T09:57:44.95Z</time></trkpt><trkpt lat="34.366505" lon="7.9081183"><ele>310.8</ele><time>2026-04-24T09:57:45.95Z</time></trkpt><trkpt lat="34.36659" lon="7.908045"><ele>310.4</ele><time>2026-04-24T09:57:46.95Z</time></trkpt><trkpt lat="34.3666767" lon="7.9079883"><ele>310.0</ele><time>2026-04-24T09:57:47.951Z</time></trkpt><trkpt lat="34.3667617" lon="7.90795"><ele>310.0</ele><time>2026-04-24T09:57:48.95Z</time></trkpt><trkpt lat="34.366845" lon="7.9079133"><ele>310.0</ele><time>2026-04-24T09:57:49.951Z</time></trkpt><trkpt lat="34.3669367" lon="7.9078883"><ele>310.0</ele><time>2026-04-24T09:57:50.951Z</time></trkpt><trkpt lat="34.3670333" lon="7.9078567"><ele>310.0</ele><time>2026-04-24T09:57:51.951Z</time></trkpt><trkpt lat="34.3671333" lon="7.9078267"><ele>310.0</ele><time>2026-04-24T09:57:52.95Z</time></trkpt><trkpt lat="34.3672367" lon="7.9077983"><ele>305.8</ele><time>2026-04-24T09:57:53.95Z</time></trkpt><trkpt lat="34.3673367" lon="7.9077683"><ele>301.6</ele><time>2026-04-24T09:57:54.951Z</time></trkpt><trkpt lat="34.3674333" lon="7.9077333"><ele>297.4</ele><time>2026-04-24T09:57:55.951Z</time></trkpt><trkpt lat="34.3675267" lon="7.9076983"><ele>293.2</ele><time>2026-04-24T09:57:56.951Z</time></trkpt><trkpt lat="34.3676117" lon="7.907655"><ele>289.0</ele><time>2026-04-24T09:57:57.951Z</time></trkpt><trkpt lat="34.36768" lon="7.907585"><ele>289.8333333333333</ele><time>2026-04-24T09:57:58.951Z</time></trkpt><trkpt lat="34.36774" lon="7.9075133"><ele>290.66666666666663</ele><time>2026-04-24T09:57:59.95Z</time></trkpt><trkpt lat="34.36779" lon="7.9074267"><ele>291.5</ele><time>2026-04-24T09:58:00.951Z</time></trkpt><trkpt lat="34.3678367" lon="7.9073433"><ele>292.3333333333333</ele><time>2026-04-24T09:58:01.951Z</time></trkpt><trkpt lat="34.3679" lon="7.9072783"><ele>293.1666666666667</ele><time>2026-04-24T09:58:02.95Z</time></trkpt><trkpt lat="34.3679717" lon="7.90724"><ele>294.0</ele><time>2026-04-24T09:58:03.95Z</time></trkpt><trkpt lat="34.36805" lon="7.907235"><ele>292.0</ele><time>2026-04-24T09:58:04.951Z</time></trkpt><trkpt lat="34.3681317" lon="7.907245"><ele>290.0</ele><time>2026-04-24T09:58:05.951Z</time></trkpt><trkpt lat="34.36821" lon="7.9072517"><ele>288.0</ele><time>2026-04-24T09:58:06.951Z</time></trkpt><trkpt lat="34.3682767" lon="7.90723"><ele>286.0</ele><time>2026-04-24T09:58:07.951Z</time></trkpt><trkpt lat="34.36832" lon="7.9071733"><ele>284.0</ele><time>2026-04-24T09:58:08.951Z</time></trkpt><trkpt lat="34.3683483" lon="7.9070767"><ele>282.0</ele><time>2026-04-24T09:58:09.951Z</time></trkpt><trkpt lat="34.3683567" lon="7.906955"><ele>282.0</ele><time>2026-04-24T09:58:10.95Z</time></trkpt><trkpt lat="34.36836" lon="7.9068133"><ele>282.0</ele><time>2026-04-24T09:58:11.951Z</time></trkpt><trkpt lat="34.36836" lon="7.90666"><ele>282.0</ele><time>2026-04-24T09:58:12.951Z</time></trkpt><trkpt lat="34.3683633" lon="7.9065"><ele>282.0</ele><time>2026-04-24T09:58:13.951Z</time></trkpt><trkpt lat="34.3683817" lon="7.90633"><ele>281.0</ele><time>2026-04-24T09:58:14.951Z</time></trkpt><trkpt lat="34.3684017" lon="7.9061633"><ele>280.0</ele><time>2026-04-24T09:58:15.951Z</time></trkpt><trkpt lat="34.368455" lon="7.906"><ele>279.0</ele><time>2026-04-24T09:58:16.951Z</time></trkpt><trkpt lat="34.3685283" lon="7.9058333"><ele>278.0</ele><time>2026-04-24T09:58:17.95Z</time></trkpt><trkpt lat="34.3686183" lon="7.9056817"><ele>275.0</ele><time>2026-04-24T09:58:18.951Z</time></trkpt><trkpt lat="34.3687083" lon="7.9055367"><ele>272.0</ele><time>2026-04-24T09:58:19.951Z</time></trkpt><trkpt lat="34.3687933" lon="7.905405"><ele>269.0</ele><time>2026-04-24T09:58:20.95Z</time></trkpt><trkpt lat="34.3688717" lon="7.9052883"><ele>266.0</ele><time>2026-04-24T09:58:21.951Z</time></trkpt><trkpt lat="34.368945" lon="7.905185"><ele>265.40000000000003</ele><time>2026-04-24T09:58:22.951Z</time></trkpt><trkpt lat="34.3690283" lon="7.9050983"><ele>264.8</ele><time>2026-04-24T09:58:23.951Z</time></trkpt><trkpt lat="34.3691117" lon="7.9050383"><ele>264.20000000000005</ele><time>2026-04-24T09:58:24.951Z</time></trkpt><trkpt lat="34.3692267" lon="7.9050283"><ele>263.6</ele><time>2026-04-24T09:58:25.951Z</time></trkpt><trkpt lat="34.3693483" lon="7.905055"><ele>263.0</ele><time>2026-04-24T09:58:26.951Z</time></trkpt><trkpt lat="34.3694883" lon="7.90511"><ele>263.0</ele><time>2026-04-24T09:58:27.951Z</time></trkpt><trkpt lat="34.36963" lon="7.905185"><ele>263.0</ele><time>2026-04-24T09:58:28.951Z</time></trkpt><trkpt lat="34.3697683" lon="7.9052717"><ele>263.0</ele><time>2026-04-24T09:58:29.951Z</time></trkpt><trkpt lat="34.369905" lon="7.9053567"><ele>260.75</ele><time>2026-04-24T09:58:30.951Z</time></trkpt><trkpt lat="34.3700367" lon="7.9054267"><ele>258.5</ele><time>2026-04-24T09:58:31.95Z</time></trkpt><trkpt lat="34.3701667" lon="7.9054983"><ele>256.25</ele><time>2026-04-24T09:58:32.951Z</time></trkpt><trkpt lat="34.3702883" lon="7.9055683"><ele>254.0</ele><time>2026-04-24T09:58:33.951Z</time></trkpt><trkpt lat="34.370385" lon="7.9056483"><ele>254.0</ele><time>2026-04-24T09:58:34.951Z</time></trkpt><trkpt lat="34.3704467" lon="7.9057583"><ele>254.0</ele><time>2026-04-24T09:58:35.951Z</time></trkpt><trkpt lat="34.3704817" lon="7.9058867"><ele>254.0</ele><time>2026-04-24T09:58:36.95Z</time></trkpt><trkpt lat="34.3704833" lon="7.9060283"><ele>254.0</ele><time>2026-04-24T09:58:37.95Z</time></trkpt><trkpt lat="34.3704467" lon="7.9061833"><ele>252.25</ele><time>2026-04-24T09:58:38.951Z</time></trkpt><trkpt lat="34.370365" lon="7.9063467"><ele>250.5</ele><time>2026-04-24T09:58:39.95Z</time></trkpt><trkpt lat="34.370285" lon="7.9064933"><ele>248.75</ele><time>2026-04-24T09:58:40.951Z</time></trkpt><trkpt lat="34.3701867" lon="7.9066183"><ele>247.0</ele><time>2026-04-24T09:58:41.951Z</time></trkpt><trkpt lat="34.37007" lon="7.9067333"><ele>243.25</ele><time>2026-04-24T09:58:42.951Z</time></trkpt><trkpt lat="34.3699633" lon="7.9068483"><ele>239.5</ele><time>2026-04-24T09:58:43.951Z</time></trkpt><trkpt lat="34.3698767" lon="7.90697"><ele>235.75</ele><time>2026-04-24T09:58:44.951Z</time></trkpt><trkpt lat="34.36983" lon="7.9071067"><ele>232.0</ele><time>2026-04-24T09:58:45.951Z</time></trkpt><trkpt lat="34.3698233" lon="7.907245"><ele>232.0</ele><time>2026-04-24T09:58:46.951Z</time></trkpt><trkpt lat="34.3698617" lon="7.9073667"><ele>232.0</ele><time>2026-04-24T09:58:47.951Z</time></trkpt><trkpt lat="34.3699417" lon="7.9074817"><ele>232.0</ele><time>2026-04-24T09:58:48.95Z</time></trkpt><trkpt lat="34.37006" lon="7.90757"><ele>232.0</ele><time>2026-04-24T09:58:49.951Z</time></trkpt><trkpt lat="34.3701917" lon="7.9076"><ele>232.0</ele><time>2026-04-24T09:58:50.951Z</time></trkpt><trkpt lat="34.3703283" lon="7.907595"><ele>232.0</ele><time>2026-04-24T09:58:51.951Z</time></trkpt><trkpt lat="34.37046" lon="7.9075717"><ele>232.0</ele><time>2026-04-24T09:58:52.951Z</time></trkpt><trkpt lat="34.3705983" lon="7.90753"><ele>232.0</ele><time>2026-04-24T09:58:53.951Z</time></trkpt><trkpt lat="34.3707333" lon="7.9074783"><ele>232.0</ele><time>2026-04-24T09:58:54.951Z</time></trkpt><trkpt lat="34.3708667" lon="7.9074317"><ele>232.0</ele><time>2026-04-24T09:58:55.95Z</time></trkpt><trkpt lat="34.3710017" lon="7.90739"><ele>232.0</ele><time>2026-04-24T09:58:56.951Z</time></trkpt><trkpt lat="34.37113" lon="7.90737"><ele>232.0</ele><time>2026-04-24T09:58:57.951Z</time></trkpt><trkpt lat="34.37125" lon="7.907375"><ele>232.0</ele><time>2026-04-24T09:58:58.95Z</time></trkpt><trkpt lat="34.3713733" lon="7.907415"><ele>232.0</ele><time>2026-04-24T09:58:59.951Z</time></trkpt><trkpt lat="34.3714817" lon="7.9075"><ele>232.0</ele><time>2026-04-24T09:59:00.951Z</time></trkpt><trkpt lat="34.3715517" lon="7.90762"><ele>232.0</ele><time>2026-04-24T09:59:01.951Z</time></trkpt><trkpt lat="34.3716" lon="7.9077617"><ele>232.0</ele><time>2026-04-24T09:59:02.951Z</time></trkpt><trkpt lat="34.3716167" lon="7.9079267"><ele>232.0</ele><time>2026-04-24T09:59:03.951Z</time></trkpt><trkpt lat="34.37162" lon="7.9081017"><ele>232.0</ele><time>2026-04-24T09:59:04.95Z</time></trkpt><trkpt lat="34.3716" lon="7.90827"><ele>232.0</ele><time>2026-04-24T09:59:05.95Z</time></trkpt><trkpt lat="34.3715783" lon="7.9084433"><ele>234.0</ele><time>2026-04-24T09:59:06.951Z</time></trkpt><trkpt lat="34.3715383" lon="7.9086317"><ele>236.0</ele><time>2026-04-24T09:59:07.951Z</time></trkpt><trkpt lat="34.3714933" lon="7.908815"><ele>238.0</ele><time>2026-04-24T09:59:08.951Z</time></trkpt><trkpt lat="34.3714517" lon="7.9090033"><ele>238.0</ele><time>2026-04-24T09:59:09.951Z</time></trkpt><trkpt lat="34.3714267" lon="7.9091783"><ele>238.0</ele><time>2026-04-24T09:59:10.951Z</time></trkpt><trkpt lat="34.3713933" lon="7.9093667"><ele>238.0</ele><time>2026-04-24T09:59:11.95Z</time></trkpt><trkpt lat="34.3713767" lon="7.90955"><ele>238.5</ele><time>2026-04-24T09:59:12.951Z</time></trkpt><trkpt lat="34.3713867" lon="7.9097167"><ele>239.0</ele><time>2026-04-24T09:59:13.951Z</time></trkpt><trkpt lat="34.3714217" lon="7.909885"><ele>239.5</ele><time>2026-04-24T09:59:14.951Z</time></trkpt><trkpt lat="34.3714867" lon="7.91004"><ele>240.0</ele><time>2026-04-24T09:59:15.95Z</time></trkpt><trkpt lat="34.3715767" lon="7.9101933"><ele>242.33333333333331</ele><time>2026-04-24T09:59:16.951Z</time></trkpt><trkpt lat="34.3716883" lon="7.910315"><ele>244.66666666666666</ele><time>2026-04-24T09:59:17.95Z</time></trkpt><trkpt lat="34.3718183" lon="7.91041"><ele>247.0</ele><time>2026-04-24T09:59:18.951Z</time></trkpt><trkpt lat="34.371955" lon="7.9104817"><ele>247.0</ele><time>2026-04-24T09:59:19.95Z</time></trkpt><trkpt lat="34.37211" lon="7.9105133"><ele>247.0</ele><time>2026-04-24T09:59:20.951Z</time></trkpt><trkpt lat="34.3722683" lon="7.9105117"><ele>247.0</ele><time>2026-04-24T09:59:21.95Z</time></trkpt><trkpt lat="34.37244" lon="7.9104717"><ele>246.33333333333331</ele><time>2026-04-24T09:59:22.951Z</time></trkpt><trkpt lat="34.3726017" lon="7.9104167"><ele>245.66666666666669</ele><time>2026-04-24T09:59:23.95Z</time></trkpt><trkpt lat="34.37276" lon="7.910355"><ele>245.0</ele><time>2026-04-24T09:59:24.951Z</time></trkpt><trkpt lat="34.3729117" lon="7.9102967"><ele>246.5</ele><time>2026-04-24T09:59:25.951Z</time></trkpt><trkpt lat="34.3730583" lon="7.9102667"><ele>248.0</ele><time>2026-04-24T09:59:26.951Z</time></trkpt><trkpt lat="34.373195" lon="7.91025"><ele>249.5</ele><time>2026-04-24T09:59:27.951Z</time></trkpt><trkpt lat="34.373325" lon="7.91026"><ele>251.0</ele><time>2026-04-24T09:59:28.95Z</time></trkpt><trkpt lat="34.3734583" lon="7.9102983"><ele>251.0</ele><time>2026-04-24T09:59:29.951Z</time></trkpt><trkpt lat="34.3735717" lon="7.9103733"><ele>251.0</ele><time>2026-04-24T09:59:30.951Z</time></trkpt><trkpt lat="34.3736567" lon="7.9104833"><ele>251.0</ele><time>2026-04-24T09:59:31.951Z</time></trkpt><trkpt lat="34.37374" lon="7.9105933"><ele>251.0</ele><time>2026-04-24T09:59:32.95Z</time></trkpt><trkpt lat="34.373825" lon="7.9106933"><ele>252.0</ele><time>2026-04-24T09:59:33.951Z</time></trkpt><trkpt lat="34.3739183" lon="7.910795"><ele>253.0</ele><time>2026-04-24T09:59:34.951Z</time></trkpt><trkpt lat="34.3740217" lon="7.9108817"><ele>254.0</ele><time>2026-04-24T09:59:35.951Z</time></trkpt><trkpt lat="34.374135" lon="7.9109633"><ele>255.0</ele><time>2026-04-24T09:59:36.95Z</time></trkpt><trkpt lat="34.3742567" lon="7.9110433"><ele>255.5</ele><time>2026-04-24T09:59:37.95Z</time></trkpt><trkpt lat="34.3743883" lon="7.9111317"><ele>256.0</ele><time>2026-04-24T09:59:38.951Z</time></trkpt><trkpt lat="34.3744983" lon="7.91124"><ele>256.5</ele><time>2026-04-24T09:59:39.951Z</time></trkpt><trkpt lat="34.3745967" lon="7.9113717"><ele>257.0</ele><time>2026-04-24T09:59:40.951Z</time></trkpt><trkpt lat="34.3746867" lon="7.9115167"><ele>257.0</ele><time>2026-04-24T09:59:41.951Z</time></trkpt><trkpt lat="34.3747683" lon="7.91167"><ele>257.0</ele><time>2026-04-24T09:59:42.951Z</time></trkpt><trkpt lat="34.37485" lon="7.9118183"><ele>257.0</ele><time>2026-04-24T09:59:43.951Z</time></trkpt><trkpt lat="34.374915" lon="7.9119767"><ele>257.0</ele><time>2026-04-24T09:59:44.951Z</time></trkpt><trkpt lat="34.3749633" lon="7.9121517"><ele>257.6666666666667</ele><time>2026-04-24T09:59:45.95Z</time></trkpt><trkpt lat="34.3749867" lon="7.9123283"><ele>258.3333333333333</ele><time>2026-04-24T09:59:46.951Z</time></trkpt><trkpt lat="34.3749933" lon="7.912515"><ele>259.0</ele><time>2026-04-24T09:59:47.95Z</time></trkpt><trkpt lat="34.37498" lon="7.912705"><ele>259.0</ele><time>2026-04-24T09:59:48.951Z</time></trkpt><trkpt lat="34.3749633" lon="7.9129"><ele>259.0</ele><time>2026-04-24T09:59:49.951Z</time></trkpt><trkpt lat="34.3749533" lon="7.9131017"><ele>259.0</ele><time>2026-04-24T09:59:50.951Z</time></trkpt><trkpt lat="34.3749433" lon="7.91331"><ele>260.3333333333333</ele><time>2026-04-24T09:59:51.951Z</time></trkpt><trkpt lat="34.3749417" lon="7.91352"><ele>261.6666666666667</ele><time>2026-04-24T09:59:52.951Z</time></trkpt><trkpt lat="34.374955" lon="7.9137233"><ele>263.0</ele><time>2026-04-24T09:59:53.95Z</time></trkpt><trkpt lat="34.37498" lon="7.9139183"><ele>263.0</ele><time>2026-04-24T09:59:54.951Z</time></trkpt><trkpt lat="34.3750217" lon="7.9140967"><ele>263.0</ele><time>2026-04-24T09:59:55.95Z</time></trkpt><trkpt lat="34.3750917" lon="7.9142367"><ele>263.0</ele><time>2026-04-24T09:59:56.95Z</time></trkpt><trkpt lat="34.375185" lon="7.9143183"><ele>263.0</ele><time>2026-04-24T09:59:57.951Z</time></trkpt><trkpt lat="34.3752933" lon="7.914345"><ele>262.25</ele><time>2026-04-24T09:59:58.951Z</time></trkpt><trkpt lat="34.3754" lon="7.91433"><ele>261.5</ele><time>2026-04-24T09:59:59.951Z</time></trkpt><trkpt lat="34.3755017" lon="7.9142717"><ele>260.75</ele><time>2026-04-24T10:00:00.95Z</time></trkpt><trkpt lat="34.3756033" lon="7.9141983"><ele>260.0</ele><time>2026-04-24T10:00:01.951Z</time></trkpt><trkpt lat="34.3757033" lon="7.9141183"><ele>260.0</ele><time>2026-04-24T10:00:02.95Z</time></trkpt><trkpt lat="34.3758" lon="7.91404"><ele>260.0</ele><time>2026-04-24T10:00:03.951Z</time></trkpt><trkpt lat="34.375905" lon="7.9139633"><ele>260.0</ele><time>2026-04-24T10:00:04.951Z</time></trkpt><trkpt lat="34.3760133" lon="7.9138983"><ele>260.0</ele><time>2026-04-24T10:00:05.951Z</time></trkpt><trkpt lat="34.3761217" lon="7.9138283"><ele>260.0</ele><time>2026-04-24T10:00:06.951Z</time></trkpt><trkpt lat="34.37624" lon="7.913775"><ele>260.0</ele><time>2026-04-24T10:00:07.951Z</time></trkpt><trkpt lat="34.3763617" lon="7.9137517"><ele>260.0</ele><time>2026-04-24T10:00:08.951Z</time></trkpt><trkpt lat="34.3764933" lon="7.9137533"><ele>260.0</ele><time>2026-04-24T10:00:09.951Z</time></trkpt><trkpt lat="34.3766183" lon="7.9137733"><ele>258.75</ele><time>2026-04-24T10:00:10.951Z</time></trkpt><trkpt lat="34.3767483" lon="7.91381"><ele>257.5</ele><time>2026-04-24T10:00:11.951Z</time></trkpt><trkpt lat="34.3768717" lon="7.9138633"><ele>256.25</ele><time>2026-04-24T10:00:12.951Z</time></trkpt><trkpt lat="34.3769783" lon="7.9139317"><ele>255.0</ele><time>2026-04-24T10:00:13.951Z</time></trkpt><trkpt lat="34.3770633" lon="7.914015"><ele>255.0</ele><time>2026-04-24T10:00:14.951Z</time></trkpt><trkpt lat="34.3771417" lon="7.9141067"><ele>255.0</ele><time>2026-04-24T10:00:15.951Z</time></trkpt><trkpt lat="34.3771983" lon="7.91419"><ele>255.0</ele><time>2026-04-24T10:00:16.951Z</time></trkpt><trkpt lat="34.3772467" lon="7.9142783"><ele>255.0</ele><time>2026-04-24T10:00:17.951Z</time></trkpt><trkpt lat="34.3772867" lon="7.9143617"><ele>255.0</ele><time>2026-04-24T10:00:18.951Z</time></trkpt><trkpt lat="34.37733" lon="7.9144267"><ele>255.0</ele><time>2026-04-24T10:00:19.951Z</time></trkpt><trkpt lat="34.377425" lon="7.9144733"><ele>254.6</ele><time>2026-04-24T10:00:21.951Z</time></trkpt><trkpt lat="34.3775167" lon="7.9144633"><ele>254.2</ele><time>2026-04-24T10:00:23.95Z</time></trkpt><trkpt lat="34.37762" lon="7.91448"><ele>253.8</ele><time>2026-04-24T10:00:25.951Z</time></trkpt><trkpt lat="34.3777517" lon="7.91452"><ele>253.4</ele><time>2026-04-24T10:00:27.951Z</time></trkpt><trkpt lat="34.377825" lon="7.9145467"><ele>253.0</ele><time>2026-04-24T10:00:28.951Z</time></trkpt><trkpt lat="34.3779" lon="7.9145867"><ele>252.99999999999997</ele><time>2026-04-24T10:00:29.951Z</time></trkpt><trkpt lat="34.3779717" lon="7.9146317"><ele>253.0</ele><time>2026-04-24T10:00:30.951Z</time></trkpt><trkpt lat="34.3780383" lon="7.9146833"><ele>253.0</ele><time>2026-04-24T10:00:31.951Z</time></trkpt><trkpt lat="34.3780967" lon="7.9147317"><ele>253.0</ele><time>2026-04-24T10:00:32.951Z</time></trkpt><trkpt lat="34.378155" lon="7.914785"><ele>252.99999999999997</ele><time>2026-04-24T10:00:33.951Z</time></trkpt><trkpt lat="34.3782083" lon="7.914835"><ele>253.0</ele><time>2026-04-24T10:00:34.95Z</time></trkpt><trkpt lat="34.378285" lon="7.9149267"><ele>250.60000000000002</ele><time>2026-04-24T10:00:36.95Z</time></trkpt><trkpt lat="34.3783467" lon="7.91496"><ele>248.20000000000002</ele><time>2026-04-24T10:00:38.951Z</time></trkpt><trkpt lat="34.3784017" lon="7.914865"><ele>245.8</ele><time>2026-04-24T10:00:41.951Z</time></trkpt><trkpt lat="34.3783833" lon="7.9147917"><ele>243.4</ele><time>2026-04-24T10:00:44.951Z</time></trkpt><trkpt lat="34.3783167" lon="7.9146967"><ele>241.0</ele><time>2026-04-24T10:01:25.951Z</time></trkpt><trkpt lat="34.3782417" lon="7.914565"><ele>240.99999999999997</ele><time>2026-04-24T10:01:27.95Z</time></trkpt><trkpt lat="34.3782017" lon="7.9144933"><ele>241.0</ele><time>2026-04-24T10:01:28.951Z</time></trkpt><trkpt lat="34.3781633" lon="7.9144217"><ele>241.0</ele><time>2026-04-24T10:01:29.951Z</time></trkpt><trkpt lat="34.3781283" lon="7.91435"><ele>241.0</ele><time>2026-04-24T10:01:30.951Z</time></trkpt><trkpt lat="34.3780933" lon="7.91428"><ele>240.99999999999997</ele><time>2026-04-24T10:01:31.95Z</time></trkpt><trkpt lat="34.3780167" lon="7.9141583"><ele>241.0</ele><time>2026-04-24T10:01:33.951Z</time></trkpt><trkpt lat="34.3779683" lon="7.9141"><ele>241.16666666666666</ele><time>2026-04-24T10:01:34.951Z</time></trkpt><trkpt lat="34.3779167" lon="7.914035"><ele>241.33333333333331</ele><time>2026-04-24T10:01:35.95Z</time></trkpt><trkpt lat="34.3778567" lon="7.91397"><ele>241.5</ele><time>2026-04-24T10:01:36.951Z</time></trkpt><trkpt lat="34.37779" lon="7.9138933"><ele>241.66666666666669</ele><time>2026-04-24T10:01:37.95Z</time></trkpt><trkpt lat="34.377725" lon="7.913825"><ele>241.83333333333334</ele><time>2026-04-24T10:01:38.951Z</time></trkpt><trkpt lat="34.3776617" lon="7.9137583"><ele>242.0</ele><time>2026-04-24T10:01:39.951Z</time></trkpt><trkpt lat="34.377605" lon="7.9137"><ele>242.00000000000003</ele><time>2026-04-24T10:01:40.951Z</time></trkpt><trkpt lat="34.3775567" lon="7.9136483"><ele>242.0</ele><time>2026-04-24T10:01:41.95Z</time></trkpt><trkpt lat="34.3774683" lon="7.9135383"><ele>242.0</ele><time>2026-04-24T10:01:43.951Z</time></trkpt><trkpt lat="34.37742" lon="7.9134833"><ele>242.0</ele><time>2026-04-24T10:01:44.95Z</time></trkpt><trkpt lat="34.3773683" lon="7.9134217"><ele>242.00000000000003</ele><time>2026-04-24T10:01:45.95Z</time></trkpt><trkpt lat="34.37732" lon="7.913355"><ele>242.0</ele><time>2026-04-24T10:01:46.951Z</time></trkpt><trkpt lat="34.3772717" lon="7.9132917"><ele>242.16666666666669</ele><time>2026-04-24T10:01:47.951Z</time></trkpt><trkpt lat="34.3772067" lon="7.91317"><ele>242.33333333333334</ele><time>2026-04-24T10:01:49.951Z</time></trkpt><trkpt lat="34.3771567" lon="7.9130767"><ele>242.5</ele><time>2026-04-24T10:01:51.95Z</time></trkpt><trkpt lat="34.3771283" lon="7.9129783"><ele>242.66666666666669</ele><time>2026-04-24T10:01:54.951Z</time></trkpt><trkpt lat="34.3771" lon="7.91289"><ele>242.83333333333334</ele><time>2026-04-24T10:01:58.951Z</time></trkpt><trkpt lat="34.3770783" lon="7.91281"><ele>243.0</ele><time>2026-04-24T10:02:03.951Z</time></trkpt><trkpt lat="34.3771033" lon="7.9127183"><ele>243.0</ele><time>2026-04-24T10:02:11.951Z</time></trkpt><trkpt lat="34.3770717" lon="7.91279"><ele>243.0</ele><time>2026-04-24T10:03:30.949Z</time></trkpt><trkpt lat="34.3770267" lon="7.9128633"><ele>243.0</ele><time>2026-04-24T10:03:33.95Z</time></trkpt><trkpt lat="34.37707" lon="7.912925"><ele>243.0</ele><time>2026-04-24T10:32:03.942Z</time></trkpt><trkpt lat="34.37712" lon="7.9130167"><ele>243.0</ele><time>2026-04-24T10:32:05.943Z</time></trkpt><trkpt lat="34.3771683" lon="7.9131333"><ele>243.0</ele><time>2026-04-24T10:32:07.943Z</time></trkpt><trkpt lat="34.3772283" lon="7.9132517"><ele>242.8</ele><time>2026-04-24T10:32:09.942Z</time></trkpt><trkpt lat="34.3772967" lon="7.9133483"><ele>242.60000000000002</ele><time>2026-04-24T10:32:11.943Z</time></trkpt><trkpt lat="34.3773617" lon="7.9134317"><ele>242.39999999999998</ele><time>2026-04-24T10:32:13.943Z</time></trkpt><trkpt lat="34.3774217" lon="7.9135183"><ele>242.2</ele><time>2026-04-24T10:32:15.943Z</time></trkpt><trkpt lat="34.377495" lon="7.9136067"><ele>242.0</ele><time>2026-04-24T10:32:17.943Z</time></trkpt><trkpt lat="34.3775867" lon="7.91371"><ele>242.00000000000003</ele><time>2026-04-24T10:32:19.943Z</time></trkpt><trkpt lat="34.377645" lon="7.9137567"><ele>242.0</ele><time>2026-04-24T10:32:20.943Z</time></trkpt><trkpt lat="34.377705" lon="7.9138067"><ele>242.0</ele><time>2026-04-24T10:32:21.942Z</time></trkpt><trkpt lat="34.3777583" lon="7.9138533"><ele>242.0</ele><time>2026-04-24T10:32:22.942Z</time></trkpt><trkpt lat="34.377845" lon="7.91395"><ele>242.00000000000003</ele><time>2026-04-24T10:32:24.943Z</time></trkpt><trkpt lat="34.377915" lon="7.91404"><ele>242.0</ele><time>2026-04-24T10:32:26.943Z</time></trkpt><trkpt lat="34.3779667" lon="7.91411"><ele>241.83333333333334</ele><time>2026-04-24T10:32:28.942Z</time></trkpt><trkpt lat="34.378025" lon="7.914185"><ele>241.66666666666669</ele><time>2026-04-24T10:32:31.943Z</time></trkpt><trkpt lat="34.3780617" lon="7.9142617"><ele>241.5</ele><time>2026-04-24T10:32:33.942Z</time></trkpt><trkpt lat="34.3781117" lon="7.914355"><ele>241.33333333333331</ele><time>2026-04-24T10:32:36.943Z</time></trkpt><trkpt lat="34.3781467" lon="7.9144417"><ele>241.16666666666666</ele><time>2026-04-24T10:32:39.942Z</time></trkpt><trkpt lat="34.3781867" lon="7.9145233"><ele>241.0</ele><time>2026-04-24T10:32:41.942Z</time></trkpt><trkpt lat="34.3782567" lon="7.9146267"><ele>241.0</ele><time>2026-04-24T10:32:43.943Z</time></trkpt><trkpt lat="34.3783117" lon="7.91472"><ele>241.00000000000003</ele><time>2026-04-24T10:32:45.943Z</time></trkpt><trkpt lat="34.3783417" lon="7.914795"><ele>241.0</ele><time>2026-04-24T10:32:47.942Z</time></trkpt><trkpt lat="34.3783633" lon="7.91487"><ele>241.0</ele><time>2026-04-24T10:32:50.943Z</time></trkpt><trkpt lat="34.37836" lon="7.9149467"><ele>241.00000000000003</ele><time>2026-04-24T10:32:53.943Z</time></trkpt><trkpt lat="34.3783667" lon="7.9150233"><ele>241.0</ele><time>2026-04-24T10:32:55.943Z</time></trkpt><trkpt lat="34.3783983" lon="7.9151283"><ele>241.0</ele><time>2026-04-24T10:32:57.942Z</time></trkpt><trkpt lat="34.3784867" lon="7.9152467"><ele>240.57142857142858</ele><time>2026-04-24T10:32:59.943Z</time></trkpt><trkpt lat="34.3785467" lon="7.9152983"><ele>240.14285714285717</ele><time>2026-04-24T10:33:00.943Z</time></trkpt><trkpt lat="34.3786033" lon="7.9153517"><ele>239.71428571428572</ele><time>2026-04-24T10:33:01.943Z</time></trkpt><trkpt lat="34.3786567" lon="7.9154117"><ele>239.28571428571428</ele><time>2026-04-24T10:33:02.943Z</time></trkpt><trkpt lat="34.3787117" lon="7.9154667"><ele>238.85714285714286</ele><time>2026-04-24T10:33:03.943Z</time></trkpt><trkpt lat="34.37877" lon="7.91552"><ele>238.42857142857144</ele><time>2026-04-24T10:33:04.943Z</time></trkpt><trkpt lat="34.3788267" lon="7.91558"><ele>238.0</ele><time>2026-04-24T10:33:05.942Z</time></trkpt><trkpt lat="34.3788867" lon="7.9156433"><ele>238.0</ele><time>2026-04-24T10:33:06.943Z</time></trkpt><trkpt lat="34.37895" lon="7.9157"><ele>238.0</ele><time>2026-04-24T10:33:07.943Z</time></trkpt><trkpt lat="34.3790117" lon="7.9157517"><ele>238.0</ele><time>2026-04-24T10:33:08.943Z</time></trkpt><trkpt lat="34.3790617" lon="7.9158067"><ele>238.0</ele><time>2026-04-24T10:33:09.942Z</time></trkpt><trkpt lat="34.3791" lon="7.9158717"><ele>238.0</ele><time>2026-04-24T10:33:10.942Z</time></trkpt><trkpt lat="34.3791367" lon="7.9159383"><ele>238.0</ele><time>2026-04-24T10:33:11.943Z</time></trkpt><trkpt lat="34.3791633" lon="7.9160133"><ele>238.0</ele><time>2026-04-24T10:33:12.943Z</time></trkpt><trkpt lat="34.379175" lon="7.9160933"><ele>238.28571428571428</ele><time>2026-04-24T10:33:13.942Z</time></trkpt><trkpt lat="34.3791867" lon="7.9161767"><ele>238.57142857142856</ele><time>2026-04-24T10:33:14.943Z</time></trkpt><trkpt lat="34.3792067" lon="7.9162567"><ele>238.85714285714286</ele><time>2026-04-24T10:33:15.943Z</time></trkpt><trkpt lat="34.3792433" lon="7.916325"><ele>239.14285714285714</ele><time>2026-04-24T10:33:16.943Z</time></trkpt><trkpt lat="34.3792983" lon="7.9163817"><ele>239.42857142857142</ele><time>2026-04-24T10:33:17.943Z</time></trkpt><trkpt lat="34.379355" lon="7.91643"><ele>239.71428571428572</ele><time>2026-04-24T10:33:18.943Z</time></trkpt><trkpt lat="34.37942" lon="7.9164667"><ele>240.0</ele><time>2026-04-24T10:33:19.943Z</time></trkpt><trkpt lat="34.3794817" lon="7.9164917"><ele>240.0</ele><time>2026-04-24T10:33:20.943Z</time></trkpt><trkpt lat="34.379545" lon="7.9164983"><ele>240.0</ele><time>2026-04-24T10:33:21.943Z</time></trkpt><trkpt lat="34.37961" lon="7.9165067"><ele>240.0</ele><time>2026-04-24T10:33:22.943Z</time></trkpt><trkpt lat="34.37968" lon="7.916515"><ele>240.0</ele><time>2026-04-24T10:33:23.943Z</time></trkpt><trkpt lat="34.379745" lon="7.9165283"><ele>240.0</ele><time>2026-04-24T10:33:24.942Z</time></trkpt><trkpt lat="34.3798433" lon="7.9165517"><ele>240.0</ele><time>2026-04-24T10:33:26.942Z</time></trkpt><trkpt lat="34.3799117" lon="7.91657"><ele>240.0</ele><time>2026-04-24T10:33:28.942Z</time></trkpt><trkpt lat="34.3799917" lon="7.91659"><ele>240.66666666666666</ele><time>2026-04-24T10:33:30.942Z</time></trkpt><trkpt lat="34.3800567" lon="7.916625"><ele>241.33333333333331</ele><time>2026-04-24T10:33:33.942Z</time></trkpt><trkpt lat="34.37998" lon="7.91659"><ele>242.0</ele><time>2026-04-24T10:33:47.942Z</time></trkpt><trkpt lat="34.3799017" lon="7.9166183"><ele>242.66666666666666</ele><time>2026-04-24T10:33:49.942Z</time></trkpt><trkpt lat="34.379965" lon="7.9166567"><ele>243.33333333333331</ele><time>2026-04-24T10:33:54.942Z</time></trkpt><trkpt lat="34.3800333" lon="7.916645"><ele>244.0</ele><time>2026-04-24T10:33:56.942Z</time></trkpt><trkpt lat="34.3801217" lon="7.9167233"><ele>243.99999999999997</ele><time>2026-04-24T10:33:58.942Z</time></trkpt><trkpt lat="34.3801767" lon="7.9167833"><ele>244.0</ele><time>2026-04-24T10:33:59.941Z</time></trkpt><trkpt lat="34.3802383" lon="7.916885"><ele>244.0</ele><time>2026-04-24T10:34:01.942Z</time></trkpt><trkpt lat="34.380175" lon="7.9168283"><ele>244.0</ele><time>2026-04-24T10:34:16.942Z</time></trkpt><trkpt lat="34.3801283" lon="7.9167067"><ele>243.99999999999997</ele><time>2026-04-24T10:34:18.941Z</time></trkpt><trkpt lat="34.38008" lon="7.9166483"><ele>244.0</ele><time>2026-04-24T10:34:19.941Z</time></trkpt><trkpt lat="34.3800183" lon="7.91661"><ele>243.99999999999997</ele><time>2026-04-24T10:34:20.942Z</time></trkpt><trkpt lat="34.3799517" lon="7.9165833"><ele>244.0</ele><time>2026-04-24T10:34:21.942Z</time></trkpt><trkpt lat="34.3798783" lon="7.91656"><ele>244.0</ele><time>2026-04-24T10:34:22.942Z</time></trkpt><trkpt lat="34.379795" lon="7.91654"><ele>244.0</ele><time>2026-04-24T10:34:23.942Z</time></trkpt><trkpt lat="34.3797083" lon="7.91652"><ele>243.99999999999997</ele><time>2026-04-24T10:34:24.942Z</time></trkpt><trkpt lat="34.3796217" lon="7.91649"><ele>244.0</ele><time>2026-04-24T10:34:25.942Z</time></trkpt><trkpt lat="34.3795267" lon="7.9164583"><ele>243.2</ele><time>2026-04-24T10:34:26.942Z</time></trkpt><trkpt lat="34.37943" lon="7.9164333"><ele>242.39999999999998</ele><time>2026-04-24T10:34:27.942Z</time></trkpt><trkpt lat="34.37934" lon="7.916415"><ele>241.6</ele><time>2026-04-24T10:34:28.942Z</time></trkpt><trkpt lat="34.3792033" lon="7.9163183"><ele>240.8</ele><time>2026-04-24T10:34:30.942Z</time></trkpt><trkpt lat="34.3791583" lon="7.9162433"><ele>240.0</ele><time>2026-04-24T10:34:31.942Z</time></trkpt><trkpt lat="34.3791233" lon="7.9161633"><ele>240.0</ele><time>2026-04-24T10:34:32.942Z</time></trkpt><trkpt lat="34.3791183" lon="7.9160783"><ele>240.0</ele><time>2026-04-24T10:34:33.942Z</time></trkpt><trkpt lat="34.379145" lon="7.9160067"><ele>240.0</ele><time>2026-04-24T10:34:34.942Z</time></trkpt><trkpt lat="34.379135" lon="7.9159083"><ele>240.0</ele><time>2026-04-24T10:34:36.942Z</time></trkpt><trkpt lat="34.3790333" lon="7.915755"><ele>240.0</ele><time>2026-04-24T10:34:39.942Z</time></trkpt><trkpt lat="34.3789817" lon="7.91571"><ele>240.0</ele><time>2026-04-24T10:34:40.941Z</time></trkpt><trkpt lat="34.3789233" lon="7.915655"><ele>239.66666666666666</ele><time>2026-04-24T10:34:41.942Z</time></trkpt><trkpt lat="34.3788667" lon="7.91559"><ele>239.33333333333331</ele><time>2026-04-24T10:34:42.942Z</time></trkpt><trkpt lat="34.3788017" lon="7.9155267"><ele>239.0</ele><time>2026-04-24T10:34:43.941Z</time></trkpt><trkpt lat="34.37873" lon="7.915455"><ele>238.66666666666666</ele><time>2026-04-24T10:34:44.942Z</time></trkpt><trkpt lat="34.3786567" lon="7.9153783"><ele>238.33333333333331</ele><time>2026-04-24T10:34:45.942Z</time></trkpt><trkpt lat="34.3785833" lon="7.9153017"><ele>238.0</ele><time>2026-04-24T10:34:46.942Z</time></trkpt><trkpt lat="34.3785083" lon="7.91522"><ele>238.49999999999997</ele><time>2026-04-24T10:34:47.942Z</time></trkpt><trkpt lat="34.3784467" lon="7.9151417"><ele>239.0</ele><time>2026-04-24T10:34:48.942Z</time></trkpt><trkpt lat="34.3783983" lon="7.91507"><ele>239.5</ele><time>2026-04-24T10:34:49.942Z</time></trkpt><trkpt lat="34.3783567" lon="7.9149967"><ele>240.0</ele><time>2026-04-24T10:34:50.942Z</time></trkpt><trkpt lat="34.3782983" lon="7.9149133"><ele>240.49999999999997</ele><time>2026-04-24T10:34:51.942Z</time></trkpt><trkpt lat="34.378225" lon="7.9148317"><ele>241.0</ele><time>2026-04-24T10:34:52.942Z</time></trkpt><trkpt lat="34.3781533" lon="7.9147483"><ele>241.0</ele><time>2026-04-24T10:34:53.942Z</time></trkpt><trkpt lat="34.37807" lon="7.914685"><ele>241.00000000000003</ele><time>2026-04-24T10:34:54.942Z</time></trkpt><trkpt lat="34.377985" lon="7.9146233"><ele>241.00000000000003</ele><time>2026-04-24T10:34:55.942Z</time></trkpt><trkpt lat="34.3778967" lon="7.9145683"><ele>241.0</ele><time>2026-04-24T10:34:56.942Z</time></trkpt><trkpt lat="34.377795" lon="7.9145183"><ele>241.0</ele><time>2026-04-24T10:34:57.942Z</time></trkpt><trkpt lat="34.3776967" lon="7.9144783"><ele>243.4</ele><time>2026-04-24T10:34:58.941Z</time></trkpt><trkpt lat="34.377595" lon="7.9144683"><ele>245.8</ele><time>2026-04-24T10:34:59.942Z</time></trkpt><trkpt lat="34.3775017" lon="7.9144483"><ele>248.20000000000002</ele><time>2026-04-24T10:35:00.941Z</time></trkpt><trkpt lat="34.3774283" lon="7.91445"><ele>250.60000000000002</ele><time>2026-04-24T10:35:01.942Z</time></trkpt><trkpt lat="34.3773383" lon="7.9144567"><ele>253.0</ele><time>2026-04-24T10:35:03.942Z</time></trkpt><trkpt lat="34.3772967" lon="7.914555"><ele>253.0</ele><time>2026-04-24T10:35:08.942Z</time></trkpt><trkpt lat="34.377335" lon="7.9147083"><ele>253.0</ele><time>2026-04-24T10:35:10.941Z</time></trkpt><trkpt lat="34.37737" lon="7.9148017"><ele>253.0</ele><time>2026-04-24T10:35:11.941Z</time></trkpt><trkpt lat="34.37741" lon="7.914905"><ele>253.0</ele><time>2026-04-24T10:35:12.942Z</time></trkpt><trkpt lat="34.3774467" lon="7.9150133"><ele>253.0</ele><time>2026-04-24T10:35:13.942Z</time></trkpt><trkpt lat="34.3774917" lon="7.9151283"><ele>255.0</ele><time>2026-04-24T10:35:14.942Z</time></trkpt><trkpt lat="34.3775367" lon="7.9152467"><ele>257.0</ele><time>2026-04-24T10:35:15.941Z</time></trkpt><trkpt lat="34.3775883" lon="7.9153633"><ele>259.0</ele><time>2026-04-24T10:35:16.942Z</time></trkpt><trkpt lat="34.3776383" lon="7.9154883"><ele>261.0</ele><time>2026-04-24T10:35:17.942Z</time></trkpt><trkpt lat="34.3776983" lon="7.9156117"><ele>261.0</ele><time>2026-04-24T10:35:18.941Z</time></trkpt><trkpt lat="34.37777" lon="7.9157333"><ele>261.0</ele><time>2026-04-24T10:35:19.942Z</time></trkpt><trkpt lat="34.3778533" lon="7.91584"><ele>261.0</ele><time>2026-04-24T10:35:20.942Z</time></trkpt><trkpt lat="34.37795" lon="7.9159367"><ele>261.0</ele><time>2026-04-24T10:35:21.942Z</time></trkpt><trkpt lat="34.3780683" lon="7.9160117"><ele>259.0</ele><time>2026-04-24T10:35:22.941Z</time></trkpt><trkpt lat="34.3781917" lon="7.9160717"><ele>257.0</ele><time>2026-04-24T10:35:23.941Z</time></trkpt><trkpt lat="34.3783133" lon="7.9161133"><ele>255.0</ele><time>2026-04-24T10:35:24.942Z</time></trkpt><trkpt lat="34.37844" lon="7.9161383"><ele>253.0</ele><time>2026-04-24T10:35:25.942Z</time></trkpt><trkpt lat="34.3785717" lon="7.9161433"><ele>253.0</ele><time>2026-04-24T10:35:26.941Z</time></trkpt><trkpt lat="34.378705" lon="7.916155"><ele>253.0</ele><time>2026-04-24T10:35:27.942Z</time></trkpt><trkpt lat="34.378845" lon="7.9161633"><ele>253.0</ele><time>2026-04-24T10:35:28.941Z</time></trkpt><trkpt lat="34.3789917" lon="7.916165"><ele>253.0</ele><time>2026-04-24T10:35:29.942Z</time></trkpt><trkpt lat="34.37913" lon="7.9161717"><ele>249.75</ele><time>2026-04-24T10:35:30.942Z</time></trkpt><trkpt lat="34.3792667" lon="7.9161817"><ele>246.5</ele><time>2026-04-24T10:35:31.942Z</time></trkpt><trkpt lat="34.379405" lon="7.9161917"><ele>243.25</ele><time>2026-04-24T10:35:32.942Z</time></trkpt><trkpt lat="34.379535" lon="7.9162033"><ele>240.0</ele><time>2026-04-24T10:35:33.942Z</time></trkpt><trkpt lat="34.3796733" lon="7.9162167"><ele>241.0</ele><time>2026-04-24T10:35:34.942Z</time></trkpt><trkpt lat="34.3798033" lon="7.9162317"><ele>242.0</ele><time>2026-04-24T10:35:35.942Z</time></trkpt><trkpt lat="34.3799483" lon="7.9162533"><ele>243.0</ele><time>2026-04-24T10:35:36.942Z</time></trkpt><trkpt lat="34.3800783" lon="7.9162867"><ele>244.0</ele><time>2026-04-24T10:35:37.942Z</time></trkpt><trkpt lat="34.380195" lon="7.916345"><ele>244.0</ele><time>2026-04-24T10:35:38.942Z</time></trkpt><trkpt lat="34.3803033" lon="7.916435"><ele>244.0</ele><time>2026-04-24T10:35:39.942Z</time></trkpt><trkpt lat="34.3803933" lon="7.9165433"><ele>244.0</ele><time>2026-04-24T10:35:40.942Z</time></trkpt><trkpt lat="34.3804883" lon="7.9166533"><ele>244.0</ele><time>2026-04-24T10:35:41.942Z</time></trkpt><trkpt lat="34.380585" lon="7.9167567"><ele>245.5</ele><time>2026-04-24T10:35:42.942Z</time></trkpt><trkpt lat="34.3807033" lon="7.91683"><ele>247.0</ele><time>2026-04-24T10:35:43.941Z</time></trkpt><trkpt lat="34.380835" lon="7.9168867"><ele>248.5</ele><time>2026-04-24T10:35:44.942Z</time></trkpt><trkpt lat="34.3809567" lon="7.9169283"><ele>250.0</ele><time>2026-04-24T10:35:45.942Z</time></trkpt><trkpt lat="34.3810867" lon="7.9169317"><ele>250.0</ele><time>2026-04-24T10:35:46.941Z</time></trkpt><trkpt lat="34.3812133" lon="7.9169117"><ele>250.0</ele><time>2026-04-24T10:35:47.942Z</time></trkpt><trkpt lat="34.3813417" lon="7.9168867"><ele>250.0</ele><time>2026-04-24T10:35:48.942Z</time></trkpt><trkpt lat="34.3814683" lon="7.91687"><ele>250.0</ele><time>2026-04-24T10:35:49.941Z</time></trkpt><trkpt lat="34.3815967" lon="7.91685"><ele>251.5</ele><time>2026-04-24T10:35:50.942Z</time></trkpt><trkpt lat="34.3817267" lon="7.916855"><ele>253.0</ele><time>2026-04-24T10:35:51.942Z</time></trkpt><trkpt lat="34.38185" lon="7.9168583"><ele>254.5</ele><time>2026-04-24T10:35:52.942Z</time></trkpt><trkpt lat="34.381975" lon="7.9168733"><ele>256.0</ele><time>2026-04-24T10:35:53.942Z</time></trkpt><trkpt lat="34.3820967" lon="7.9169083"><ele>257.75</ele><time>2026-04-24T10:35:54.942Z</time></trkpt><trkpt lat="34.3822183" lon="7.9169567"><ele>259.5</ele><time>2026-04-24T10:35:55.942Z</time></trkpt><trkpt lat="34.3823433" lon="7.9170217"><ele>261.25</ele><time>2026-04-24T10:35:56.942Z</time></trkpt><trkpt lat="34.3824717" lon="7.9170933"><ele>263.0</ele><time>2026-04-24T10:35:57.941Z</time></trkpt><trkpt lat="34.3825933" lon="7.9171767"><ele>263.0</ele><time>2026-04-24T10:35:58.942Z</time></trkpt><trkpt lat="34.3827133" lon="7.9172633"><ele>263.0</ele><time>2026-04-24T10:35:59.941Z</time></trkpt><trkpt lat="34.38283" lon="7.91736"><ele>263.0</ele><time>2026-04-24T10:36:00.942Z</time></trkpt><trkpt lat="34.38294" lon="7.9174733"><ele>263.0</ele><time>2026-04-24T10:36:01.942Z</time></trkpt><trkpt lat="34.383045" lon="7.9175917"><ele>265.25</ele><time>2026-04-24T10:36:02.941Z</time></trkpt><trkpt lat="34.3831183" lon="7.9177333"><ele>267.5</ele><time>2026-04-24T10:36:03.942Z</time></trkpt><trkpt lat="34.3831767" lon="7.91789"><ele>269.75</ele><time>2026-04-24T10:36:04.942Z</time></trkpt><trkpt lat="34.3832233" lon="7.918055"><ele>272.0</ele><time>2026-04-24T10:36:05.942Z</time></trkpt><trkpt lat="34.383265" lon="7.918225"><ele>272.0</ele><time>2026-04-24T10:36:06.942Z</time></trkpt><trkpt lat="34.38331" lon="7.9183917"><ele>272.0</ele><time>2026-04-24T10:36:07.942Z</time></trkpt><trkpt lat="34.3833667" lon="7.9185483"><ele>272.0</ele><time>2026-04-24T10:36:08.942Z</time></trkpt><trkpt lat="34.383425" lon="7.9186917"><ele>272.0</ele><time>2026-04-24T10:36:09.942Z</time></trkpt><trkpt lat="34.3834983" lon="7.9188283"><ele>272.0</ele><time>2026-04-24T10:36:10.942Z</time></trkpt><trkpt lat="34.38359" lon="7.918955"><ele>272.0</ele><time>2026-04-24T10:36:11.942Z</time></trkpt><trkpt lat="34.3836883" lon="7.9190783"><ele>272.0</ele><time>2026-04-24T10:36:12.942Z</time></trkpt><trkpt lat="34.38379" lon="7.9192"><ele>272.0</ele><time>2026-04-24T10:36:13.942Z</time></trkpt><trkpt lat="34.3839017" lon="7.9193067"><ele>272.0</ele><time>2026-04-24T10:36:14.941Z</time></trkpt><trkpt lat="34.3840267" lon="7.9194117"><ele>272.0</ele><time>2026-04-24T10:36:15.94Z</time></trkpt><trkpt lat="34.3841567" lon="7.9195117"><ele>272.0</ele><time>2026-04-24T10:36:16.94Z</time></trkpt><trkpt lat="34.3842833" lon="7.9196117"><ele>272.0</ele><time>2026-04-24T10:36:17.941Z</time></trkpt><trkpt lat="34.38441" lon="7.919715"><ele>272.0</ele><time>2026-04-24T10:36:18.941Z</time></trkpt><trkpt lat="34.38454" lon="7.9198117"><ele>272.0</ele><time>2026-04-24T10:36:19.941Z</time></trkpt><trkpt lat="34.3846717" lon="7.9199033"><ele>272.0</ele><time>2026-04-24T10:36:20.941Z</time></trkpt><trkpt lat="34.3848067" lon="7.9199933"><ele>272.0</ele><time>2026-04-24T10:36:21.941Z</time></trkpt><trkpt lat="34.384935" lon="7.9200867"><ele>272.0</ele><time>2026-04-24T10:36:22.941Z</time></trkpt><trkpt lat="34.3850583" lon="7.9201867"><ele>272.0</ele><time>2026-04-24T10:36:23.941Z</time></trkpt><trkpt lat="34.3851767" lon="7.920295"><ele>272.0</ele><time>2026-04-24T10:36:24.941Z</time></trkpt><trkpt lat="34.3852717" lon="7.9204267"><ele>272.0</ele><time>2026-04-24T10:36:25.941Z</time></trkpt><trkpt lat="34.3853417" lon="7.92058"><ele>272.0</ele><time>2026-04-24T10:36:26.941Z</time></trkpt><trkpt lat="34.3853867" lon="7.9207483"><ele>271.33333333333337</ele><time>2026-04-24T10:36:27.94Z</time></trkpt><trkpt lat="34.3854367" lon="7.9209233"><ele>270.6666666666667</ele><time>2026-04-24T10:36:28.941Z</time></trkpt><trkpt lat="34.3854783" lon="7.9210967"><ele>270.0</ele><time>2026-04-24T10:36:29.941Z</time></trkpt><trkpt lat="34.385525" lon="7.92127"><ele>271.25</ele><time>2026-04-24T10:36:30.941Z</time></trkpt><trkpt lat="34.3855583" lon="7.9214483"><ele>272.5</ele><time>2026-04-24T10:36:31.941Z</time></trkpt><trkpt lat="34.385595" lon="7.9216183"><ele>273.75</ele><time>2026-04-24T10:36:32.941Z</time></trkpt><trkpt lat="34.3856317" lon="7.9217867"><ele>275.0</ele><time>2026-04-24T10:36:33.941Z</time></trkpt><trkpt lat="34.385665" lon="7.9219667"><ele>275.75</ele><time>2026-04-24T10:36:34.941Z</time></trkpt><trkpt lat="34.3856767" lon="7.9221483"><ele>276.5</ele><time>2026-04-24T10:36:35.941Z</time></trkpt><trkpt lat="34.3856733" lon="7.9223233"><ele>277.25</ele><time>2026-04-24T10:36:36.941Z</time></trkpt><trkpt lat="34.3856617" lon="7.9225017"><ele>278.0</ele><time>2026-04-24T10:36:37.94Z</time></trkpt><trkpt lat="34.38565" lon="7.9226717"><ele>278.75</ele><time>2026-04-24T10:36:38.941Z</time></trkpt><trkpt lat="34.38563" lon="7.9228467"><ele>279.5</ele><time>2026-04-24T10:36:39.941Z</time></trkpt><trkpt lat="34.3856067" lon="7.9230167"><ele>280.25</ele><time>2026-04-24T10:36:40.941Z</time></trkpt><trkpt lat="34.3855783" lon="7.9231867"><ele>281.0</ele><time>2026-04-24T10:36:41.941Z</time></trkpt><trkpt lat="34.385535" lon="7.9233467"><ele>279.75</ele><time>2026-04-24T10:36:42.94Z</time></trkpt><trkpt lat="34.3854717" lon="7.9234917"><ele>278.5</ele><time>2026-04-24T10:36:43.941Z</time></trkpt><trkpt lat="34.3854067" lon="7.9236333"><ele>277.25</ele><time>2026-04-24T10:36:44.94Z</time></trkpt><trkpt lat="34.3853317" lon="7.92377"><ele>276.0</ele><time>2026-04-24T10:36:45.941Z</time></trkpt><trkpt lat="34.3852567" lon="7.9239083"><ele>276.0</ele><time>2026-04-24T10:36:46.941Z</time></trkpt><trkpt lat="34.38519" lon="7.9240367"><ele>276.0</ele><time>2026-04-24T10:36:47.94Z</time></trkpt><trkpt lat="34.3851317" lon="7.9241583"><ele>276.0</ele><time>2026-04-24T10:36:48.941Z</time></trkpt><trkpt lat="34.3850833" lon="7.924275"><ele>276.0</ele><time>2026-04-24T10:36:49.941Z</time></trkpt><trkpt lat="34.38506" lon="7.92438"><ele>276.0</ele><time>2026-04-24T10:36:50.941Z</time></trkpt><trkpt lat="34.385045" lon="7.924485"><ele>276.1666666666667</ele><time>2026-04-24T10:36:51.941Z</time></trkpt><trkpt lat="34.385045" lon="7.92458"><ele>276.3333333333333</ele><time>2026-04-24T10:36:52.94Z</time></trkpt><trkpt lat="34.3850583" lon="7.9246683"><ele>276.5</ele><time>2026-04-24T10:36:53.941Z</time></trkpt><trkpt lat="34.38508" lon="7.9247583"><ele>276.66666666666663</ele><time>2026-04-24T10:36:54.941Z</time></trkpt><trkpt lat="34.3851017" lon="7.9248333"><ele>276.8333333333333</ele><time>2026-04-24T10:36:55.941Z</time></trkpt><trkpt lat="34.3851267" lon="7.9249217"><ele>277.0</ele><time>2026-04-24T10:36:57.94Z</time></trkpt><trkpt lat="34.3851567" lon="7.9250417"><ele>277.3333333333333</ele><time>2026-04-24T10:37:00.94Z</time></trkpt><trkpt lat="34.3851833" lon="7.925165"><ele>277.66666666666663</ele><time>2026-04-24T10:37:02.94Z</time></trkpt><trkpt lat="34.3852033" lon="7.92524"><ele>278.0</ele><time>2026-04-24T10:37:03.94Z</time></trkpt><trkpt lat="34.3852267" lon="7.925325"><ele>278.3333333333333</ele><time>2026-04-24T10:37:04.941Z</time></trkpt><trkpt lat="34.3852467" lon="7.9254067"><ele>278.6666666666667</ele><time>2026-04-24T10:37:05.941Z</time></trkpt><trkpt lat="34.3852617" lon="7.9254967"><ele>279.0</ele><time>2026-04-24T10:37:06.94Z</time></trkpt><trkpt lat="34.38528" lon="7.925585"><ele>279.0</ele><time>2026-04-24T10:37:07.94Z</time></trkpt><trkpt lat="34.3852967" lon="7.92567"><ele>279.0</ele><time>2026-04-24T10:37:08.941Z</time></trkpt><trkpt lat="34.3853117" lon="7.9257483"><ele>279.0</ele><time>2026-04-24T10:37:09.94Z</time></trkpt><trkpt lat="34.3853267" lon="7.9258233"><ele>279.0</ele><time>2026-04-24T10:37:10.94Z</time></trkpt><trkpt lat="34.3853517" lon="7.92597"><ele>279.0</ele><time>2026-04-24T10:37:12.941Z</time></trkpt><trkpt lat="34.3853717" lon="7.92608"><ele>279.0</ele><time>2026-04-24T10:37:14.94Z</time></trkpt><trkpt lat="34.385385" lon="7.9261733"><ele>278.8333333333333</ele><time>2026-04-24T10:37:16.941Z</time></trkpt><trkpt lat="34.3854133" lon="7.926285"><ele>278.6666666666667</ele><time>2026-04-24T10:37:18.941Z</time></trkpt><trkpt lat="34.3854517" lon="7.9264267"><ele>278.5</ele><time>2026-04-24T10:37:20.941Z</time></trkpt><trkpt lat="34.3854667" lon="7.926515"><ele>278.33333333333337</ele><time>2026-04-24T10:37:21.941Z</time></trkpt><trkpt lat="34.3854783" lon="7.926605"><ele>278.1666666666667</ele><time>2026-04-24T10:37:22.94Z</time></trkpt><trkpt lat="34.3854933" lon="7.92669"><ele>278.0</ele><time>2026-04-24T10:37:23.941Z</time></trkpt><trkpt lat="34.385505" lon="7.9267867"><ele>279.1666666666667</ele><time>2026-04-24T10:37:24.941Z</time></trkpt><trkpt lat="34.3855183" lon="7.9268783"><ele>280.33333333333337</ele><time>2026-04-24T10:37:25.941Z</time></trkpt><trkpt lat="34.38553" lon="7.92697"><ele>281.5</ele><time>2026-04-24T10:37:26.941Z</time></trkpt><trkpt lat="34.3855467" lon="7.927055"><ele>282.6666666666667</ele><time>2026-04-24T10:37:27.941Z</time></trkpt><trkpt lat="34.385565" lon="7.9271433"><ele>283.8333333333333</ele><time>2026-04-24T10:37:28.94Z</time></trkpt><trkpt lat="34.3855767" lon="7.9272333"><ele>285.0</ele><time>2026-04-24T10:37:29.94Z</time></trkpt><trkpt lat="34.3855933" lon="7.9273267"><ele>285.0</ele><time>2026-04-24T10:37:30.941Z</time></trkpt><trkpt lat="34.3856083" lon="7.9274183"><ele>285.0</ele><time>2026-04-24T10:37:31.941Z</time></trkpt><trkpt lat="34.3856233" lon="7.92751"><ele>285.0</ele><time>2026-04-24T10:37:32.941Z</time></trkpt><trkpt lat="34.3856383" lon="7.9276033"><ele>285.0</ele><time>2026-04-24T10:37:33.941Z</time></trkpt><trkpt lat="34.3856567" lon="7.9277"><ele>285.0</ele><time>2026-04-24T10:37:34.941Z</time></trkpt><trkpt lat="34.3856717" lon="7.9278"><ele>285.0</ele><time>2026-04-24T10:37:35.941Z</time></trkpt><trkpt lat="34.3856933" lon="7.927905"><ele>285.0</ele><time>2026-04-24T10:37:36.941Z</time></trkpt><trkpt lat="34.3857117" lon="7.9280117"><ele>285.0</ele><time>2026-04-24T10:37:37.941Z</time></trkpt><trkpt lat="34.38573" lon="7.92812"><ele>285.0</ele><time>2026-04-24T10:37:38.941Z</time></trkpt><trkpt lat="34.3857483" lon="7.9282317"><ele>285.0</ele><time>2026-04-24T10:37:39.94Z</time></trkpt><trkpt lat="34.3857667" lon="7.9283483"><ele>285.0</ele><time>2026-04-24T10:37:40.941Z</time></trkpt><trkpt lat="34.3857783" lon="7.9284633"><ele>285.0</ele><time>2026-04-24T10:37:41.941Z</time></trkpt><trkpt lat="34.3857967" lon="7.92858"><ele>285.0</ele><time>2026-04-24T10:37:42.941Z</time></trkpt><trkpt lat="34.3858083" lon="7.9287033"><ele>285.0</ele><time>2026-04-24T10:37:43.941Z</time></trkpt><trkpt lat="34.38582" lon="7.92883"><ele>285.0</ele><time>2026-04-24T10:37:44.941Z</time></trkpt><trkpt lat="34.3858333" lon="7.92895"><ele>285.0</ele><time>2026-04-24T10:37:45.941Z</time></trkpt><trkpt lat="34.3858567" lon="7.9290683"><ele>285.0</ele><time>2026-04-24T10:37:46.941Z</time></trkpt><trkpt lat="34.385875" lon="7.929195"><ele>285.0</ele><time>2026-04-24T10:37:47.941Z</time></trkpt><trkpt lat="34.3858967" lon="7.9293067"><ele>285.0</ele><time>2026-04-24T10:37:48.941Z</time></trkpt><trkpt lat="34.3859167" lon="7.9294167"><ele>285.0</ele><time>2026-04-24T10:37:49.941Z</time></trkpt><trkpt lat="34.3859367" lon="7.9295267"><ele>285.0</ele><time>2026-04-24T10:37:50.941Z</time></trkpt><trkpt lat="34.3859567" lon="7.9296383"><ele>285.6666666666667</ele><time>2026-04-24T10:37:51.941Z</time></trkpt><trkpt lat="34.3859717" lon="7.9297517"><ele>286.3333333333333</ele><time>2026-04-24T10:37:52.941Z</time></trkpt><trkpt lat="34.3859933" lon="7.929855"><ele>287.0</ele><time>2026-04-24T10:37:53.941Z</time></trkpt><trkpt lat="34.3860133" lon="7.9299517"><ele>287.66666666666663</ele><time>2026-04-24T10:37:54.941Z</time></trkpt><trkpt lat="34.3860333" lon="7.930045"><ele>288.3333333333333</ele><time>2026-04-24T10:37:55.941Z</time></trkpt><trkpt lat="34.38605" lon="7.9301417"><ele>289.0</ele><time>2026-04-24T10:37:56.941Z</time></trkpt><trkpt lat="34.3860683" lon="7.93023"><ele>289.5</ele><time>2026-04-24T10:37:57.941Z</time></trkpt><trkpt lat="34.3860833" lon="7.930325"><ele>290.0</ele><time>2026-04-24T10:37:58.941Z</time></trkpt><trkpt lat="34.3860967" lon="7.93042"><ele>290.5</ele><time>2026-04-24T10:37:59.941Z</time></trkpt><trkpt lat="34.38611" lon="7.9305233"><ele>291.0</ele><time>2026-04-24T10:38:00.941Z</time></trkpt><trkpt lat="34.3861233" lon="7.9306183"><ele>291.5</ele><time>2026-04-24T10:38:01.941Z</time></trkpt><trkpt lat="34.3861283" lon="7.9307067"><ele>292.0</ele><time>2026-04-24T10:38:02.941Z</time></trkpt><trkpt lat="34.3861333" lon="7.9307983"><ele>292.0</ele><time>2026-04-24T10:38:03.94Z</time></trkpt><trkpt lat="34.38613" lon="7.9308867"><ele>292.0</ele><time>2026-04-24T10:38:04.941Z</time></trkpt><trkpt lat="34.38613" lon="7.93097"><ele>292.0</ele><time>2026-04-24T10:38:05.941Z</time></trkpt><trkpt lat="34.386135" lon="7.9311033"><ele>292.0</ele><time>2026-04-24T10:38:07.941Z</time></trkpt><trkpt lat="34.386145" lon="7.9311867"><ele>292.0</ele><time>2026-04-24T10:38:09.941Z</time></trkpt><trkpt lat="34.3861583" lon="7.9313017"><ele>292.0</ele><time>2026-04-24T10:38:12.941Z</time></trkpt><trkpt lat="34.3861667" lon="7.931395"><ele>291.8</ele><time>2026-04-24T10:38:14.941Z</time></trkpt><trkpt lat="34.386175" lon="7.9315183"><ele>291.6</ele><time>2026-04-24T10:38:16.941Z</time></trkpt><trkpt lat="34.38619" lon="7.93165"><ele>291.40000000000003</ele><time>2026-04-24T10:38:18.94Z</time></trkpt><trkpt lat="34.386195" lon="7.9317817"><ele>291.2</ele><time>2026-04-24T10:38:20.941Z</time></trkpt><trkpt lat="34.3862" lon="7.9319233"><ele>291.0</ele><time>2026-04-24T10:38:22.94Z</time></trkpt><trkpt lat="34.3862117" lon="7.9320467"><ele>291.40000000000003</ele><time>2026-04-24T10:38:24.941Z</time></trkpt><trkpt lat="34.3862167" lon="7.93213"><ele>291.8</ele><time>2026-04-24T10:38:26.941Z</time></trkpt><trkpt lat="34.3862367" lon="7.9322367"><ele>292.20000000000005</ele><time>2026-04-24T10:38:28.94Z</time></trkpt><trkpt lat="34.3862533" lon="7.9323833"><ele>292.6</ele><time>2026-04-24T10:38:30.941Z</time></trkpt><trkpt lat="34.3862167" lon="7.9325"><ele>293.0</ele><time>2026-04-24T10:38:32.94Z</time></trkpt><trkpt lat="34.3861333" lon="7.9325433"><ele>293.6</ele><time>2026-04-24T10:38:34.941Z</time></trkpt><trkpt lat="34.385995" lon="7.9325667"><ele>294.20000000000005</ele><time>2026-04-24T10:38:36.941Z</time></trkpt><trkpt lat="34.3859217" lon="7.9325733"><ele>294.8</ele><time>2026-04-24T10:38:37.941Z</time></trkpt><trkpt lat="34.3858417" lon="7.9325933"><ele>295.40000000000003</ele><time>2026-04-24T10:38:38.941Z</time></trkpt><trkpt lat="34.38576" lon="7.9326217"><ele>296.0</ele><time>2026-04-24T10:38:39.94Z</time></trkpt><trkpt lat="34.3856733" lon="7.9326467"><ele>296.0</ele><time>2026-04-24T10:38:40.94Z</time></trkpt><trkpt lat="34.38558" lon="7.93267"><ele>296.0</ele><time>2026-04-24T10:38:41.941Z</time></trkpt><trkpt lat="34.3854933" lon="7.9326733"><ele>296.0</ele><time>2026-04-24T10:38:42.941Z</time></trkpt><trkpt lat="34.3853967" lon="7.9326933"><ele>296.0</ele><time>2026-04-24T10:38:43.94Z</time></trkpt><trkpt lat="34.3852983" lon="7.9327233"><ele>296.0</ele><time>2026-04-24T10:38:44.941Z</time></trkpt><trkpt lat="34.385195" lon="7.9327583"><ele>295.40000000000003</ele><time>2026-04-24T10:38:45.941Z</time></trkpt><trkpt lat="34.3850967" lon="7.9327883"><ele>294.8</ele><time>2026-04-24T10:38:46.941Z</time></trkpt><trkpt lat="34.3850067" lon="7.932815"><ele>294.20000000000005</ele><time>2026-04-24T10:38:47.941Z</time></trkpt><trkpt lat="34.384925" lon="7.93285"><ele>293.6</ele><time>2026-04-24T10:38:48.941Z</time></trkpt><trkpt lat="34.38484" lon="7.9328817"><ele>293.0</ele><time>2026-04-24T10:38:49.94Z</time></trkpt><trkpt lat="34.38476" lon="7.9329033"><ele>293.0</ele><time>2026-04-24T10:38:50.941Z</time></trkpt><trkpt lat="34.384685" lon="7.9329333"><ele>293.0</ele><time>2026-04-24T10:38:51.941Z</time></trkpt><trkpt lat="34.3846083" lon="7.9329583"><ele>293.0</ele><time>2026-04-24T10:38:52.94Z</time></trkpt><trkpt lat="34.3845317" lon="7.9329867"><ele>293.0</ele><time>2026-04-24T10:38:53.94Z</time></trkpt><trkpt lat="34.3844467" lon="7.933005"><ele>293.0</ele><time>2026-04-24T10:38:54.941Z</time></trkpt><trkpt lat="34.3843583" lon="7.9330167"><ele>293.0</ele><time>2026-04-24T10:38:55.941Z</time></trkpt><trkpt lat="34.3842717" lon="7.9330467"><ele>292.6666666666667</ele><time>2026-04-24T10:38:56.941Z</time></trkpt><trkpt lat="34.3841717" lon="7.9330683"><ele>292.33333333333337</ele><time>2026-04-24T10:38:57.94Z</time></trkpt><trkpt lat="34.3840817" lon="7.9331017"><ele>292.0</ele><time>2026-04-24T10:38:58.941Z</time></trkpt><trkpt lat="34.383995" lon="7.9331233"><ele>291.6666666666667</ele><time>2026-04-24T10:38:59.941Z</time></trkpt><trkpt lat="34.383915" lon="7.9331467"><ele>291.3333333333333</ele><time>2026-04-24T10:39:00.941Z</time></trkpt><trkpt lat="34.383845" lon="7.9331583"><ele>291.0</ele><time>2026-04-24T10:39:01.941Z</time></trkpt><trkpt lat="34.38373" lon="7.933175"><ele>290.2</ele><time>2026-04-24T10:39:03.94Z</time></trkpt><trkpt lat="34.3836667" lon="7.9332017"><ele>289.40000000000003</ele><time>2026-04-24T10:39:06.941Z</time></trkpt><trkpt lat="34.3836133" lon="7.93314"><ele>288.6</ele><time>2026-04-24T10:40:02.94Z</time></trkpt><trkpt lat="34.3835567" lon="7.9332433"><ele>287.8</ele><time>2026-04-24T10:43:41.939Z</time></trkpt><trkpt lat="34.3834533" lon="7.933285"><ele>287.0</ele><time>2026-04-24T10:43:57.939Z</time></trkpt><trkpt lat="34.3833333" lon="7.933255"><ele>287.0</ele><time>2026-04-24T10:44:12.939Z</time></trkpt><trkpt lat="34.38322" lon="7.9332133"><ele>287.0</ele><time>2026-04-24T10:44:25.939Z</time></trkpt><trkpt lat="34.3831017" lon="7.9331783"><ele>287.0</ele><time>2026-04-24T10:44:39.939Z</time></trkpt><trkpt lat="34.38299" lon="7.933125"><ele>287.0</ele><time>2026-04-24T10:44:53.939Z</time></trkpt><trkpt lat="34.3829109" lon="7.933111"><ele>287.0</ele><time>2026-04-24T10:45:03.939Z</time></trkpt><trkpt lat="34.3827968" lon="7.9330995"><ele>285.2</ele><time>2026-04-24T10:45:18.939Z</time></trkpt><trkpt lat="34.3826774" lon="7.9331039"><ele>283.4</ele><time>2026-04-24T10:45:32.939Z</time></trkpt><trkpt lat="34.3826138" lon="7.9331051"><ele>281.6</ele><time>2026-04-24T10:45:37.939Z</time></trkpt><trkpt lat="34.3825451" lon="7.9331236"><ele>279.8</ele><time>2026-04-24T10:45:46.939Z</time></trkpt><trkpt lat="34.3824483" lon="7.9331548"><ele>278.0</ele><time>2026-04-24T10:45:58.939Z</time></trkpt><trkpt lat="34.382324" lon="7.9331892"><ele>278.0</ele><time>2026-04-24T10:46:12.938Z</time></trkpt><trkpt lat="34.3822454" lon="7.9331944"><ele>278.0</ele><time>2026-04-24T10:46:17.937Z</time></trkpt><trkpt lat="34.3821378" lon="7.933225"><ele>278.0</ele><time>2026-04-24T10:46:34.938Z</time></trkpt><trkpt lat="34.3820737" lon="7.9333089"><ele>278.0</ele><time>2026-04-24T10:47:01.937Z</time></trkpt><trkpt lat="34.3820331" lon="7.9334392"><ele>278.0</ele><time>2026-04-24T10:47:18.937Z</time></trkpt><trkpt lat="34.3819311" lon="7.9334615"><ele>277.8</ele><time>2026-04-24T10:47:39.938Z</time></trkpt><trkpt lat="34.3818113" lon="7.9334366"><ele>277.6</ele><time>2026-04-24T10:47:56.938Z</time></trkpt><trkpt lat="34.3817" lon="7.9334108"><ele>277.4</ele><time>2026-04-24T10:48:16.938Z</time></trkpt><trkpt lat="34.3816011" lon="7.9333967"><ele>277.2</ele><time>2026-04-24T10:48:42.938Z</time></trkpt><trkpt lat="34.3814925" lon="7.9333728"><ele>277.0</ele><time>2026-04-24T10:49:14.938Z</time></trkpt><trkpt lat="34.3813983" lon="7.9333344"><ele>278.6</ele><time>2026-04-24T10:49:35.938Z</time></trkpt><trkpt lat="34.3812888" lon="7.9332878"><ele>280.2</ele><time>2026-04-24T10:49:49.937Z</time></trkpt><trkpt lat="34.3811727" lon="7.9332667"><ele>281.8</ele><time>2026-04-24T10:50:10.937Z</time></trkpt><trkpt lat="34.3811141" lon="7.9331858"><ele>283.4</ele><time>2026-04-24T10:50:32.937Z</time></trkpt><trkpt lat="34.3810581" lon="7.9330749"><ele>285.0</ele><time>2026-04-24T10:50:51.937Z</time></trkpt><trkpt lat="34.3809703" lon="7.9329917"><ele>285.0</ele><time>2026-04-24T10:51:06.937Z</time></trkpt><trkpt lat="34.3809533" lon="7.9328588"><ele>285.0</ele><time>2026-04-24T10:51:23.936Z</time></trkpt><trkpt lat="34.3809728" lon="7.9327365"><ele>285.0</ele><time>2026-04-24T10:51:41.937Z</time></trkpt><trkpt lat="34.3809984" lon="7.9325996"><ele>285.0</ele><time>2026-04-24T10:51:58.937Z</time></trkpt><trkpt lat="34.3809967" lon="7.9325134"><ele>285.0</ele><time>2026-04-24T10:52:03.936Z</time></trkpt><trkpt lat="34.3809919" lon="7.9324197"><ele>284.6</ele><time>2026-04-24T10:52:20.937Z</time></trkpt><trkpt lat="34.3809843" lon="7.9323339"><ele>284.2</ele><time>2026-04-24T10:52:27.936Z</time></trkpt><trkpt lat="34.3809941" lon="7.9322165"><ele>283.8</ele><time>2026-04-24T10:52:42.937Z</time></trkpt><trkpt lat="34.38097" lon="7.93205"><ele>283.4</ele><time>2026-04-24T10:53:47.937Z</time></trkpt><trkpt lat="34.381015" lon="7.93193"><ele>283.0</ele><time>2026-04-24T10:54:06.937Z</time></trkpt><trkpt lat="34.3809433" lon="7.93183"><ele>282.0</ele><time>2026-04-24T10:54:21.936Z</time></trkpt><trkpt lat="34.3808133" lon="7.9316783"><ele>281.0</ele><time>2026-04-24T10:54:53.936Z</time></trkpt><trkpt lat="34.38074" lon="7.9315833"><ele>280.0</ele><time>2026-04-24T10:55:12.936Z</time></trkpt><trkpt lat="34.38065" lon="7.9315217"><ele>279.0</ele><time>2026-04-24T10:55:35.935Z</time></trkpt><trkpt lat="34.3805533" lon="7.9314617"><ele>281.2</ele><time>2026-04-24T10:55:54.935Z</time></trkpt><trkpt lat="34.38045" lon="7.93144"><ele>283.4</ele><time>2026-04-24T10:56:14.936Z</time></trkpt><trkpt lat="34.3803483" lon="7.9314967"><ele>285.6</ele><time>2026-04-24T10:56:49.936Z</time></trkpt><trkpt lat="34.3802483" lon="7.9315567"><ele>287.8</ele><time>2026-04-24T10:57:04.936Z</time></trkpt><trkpt lat="34.3801517" lon="7.931565"><ele>290.0</ele><time>2026-04-24T10:57:57.936Z</time></trkpt><trkpt lat="34.3800417" lon="7.9315233"><ele>290.0</ele><time>2026-04-24T10:58:12.936Z</time></trkpt><trkpt lat="34.3799233" lon="7.9315217"><ele>290.0</ele><time>2026-04-24T10:58:33.936Z</time></trkpt><trkpt lat="34.3798017" lon="7.931515"><ele>290.0</ele><time>2026-04-24T10:58:50.935Z</time></trkpt><trkpt lat="34.37966" lon="7.9314217"><ele>290.0</ele><time>2026-04-24T10:59:08.935Z</time></trkpt><trkpt lat="34.379555" lon="7.9313883"><ele>290.75</ele><time>2026-04-24T10:59:26.935Z</time></trkpt><trkpt lat="34.37937" lon="7.9313633"><ele>291.5</ele><time>2026-04-24T11:00:02.935Z</time></trkpt><trkpt lat="34.3792735" lon="7.9313526"><ele>292.25</ele><time>2026-04-24T11:00:16.935Z</time></trkpt><trkpt lat="34.3791646" lon="7.9313199"><ele>293.0</ele><time>2026-04-24T11:00:29.934Z</time></trkpt><trkpt lat="34.3790471" lon="7.9312904"><ele>293.0</ele><time>2026-04-24T11:00:43.935Z</time></trkpt><trkpt lat="34.3789785" lon="7.9312513"><ele>293.0</ele><time>2026-04-24T11:00:49.935Z</time></trkpt><trkpt lat="34.3789727" lon="7.9311209"><ele>293.0</ele><time>2026-04-24T11:01:06.935Z</time></trkpt><trkpt lat="34.378968" lon="7.9310413"><ele>293.0</ele><time>2026-04-24T11:01:10.935Z</time></trkpt><trkpt lat="34.3789747" lon="7.9309568"><ele>293.0</ele><time>2026-04-24T11:01:17.935Z</time></trkpt><trkpt lat="34.3790285" lon="7.9308284"><ele>293.0</ele><time>2026-04-24T11:01:41.935Z</time></trkpt><trkpt lat="34.379096" lon="7.9307226"><ele>293.0</ele><time>2026-04-24T11:02:00.935Z</time></trkpt><trkpt lat="34.3791454" lon="7.9307763"><ele>293.0</ele><time>2026-04-24T11:02:33.935Z</time></trkpt><trkpt lat="34.3792324" lon="7.9308739"><ele>293.0</ele><time>2026-04-24T11:03:01.935Z</time></trkpt><trkpt lat="34.379339" lon="7.9309228"><ele>293.0</ele><time>2026-04-24T11:03:36.933Z</time></trkpt><trkpt lat="34.379438" lon="7.9309188"><ele>293.0</ele><time>2026-04-24T11:04:06.934Z</time></trkpt><trkpt lat="34.3795388" lon="7.9308793"><ele>292.4</ele><time>2026-04-24T11:04:36.934Z</time></trkpt><trkpt lat="34.3796967" lon="7.9308683"><ele>291.8</ele><time>2026-04-24T11:04:49.934Z</time></trkpt><trkpt lat="34.3797817" lon="7.9308683"><ele>291.2</ele><time>2026-04-24T11:05:04.934Z</time></trkpt><trkpt lat="34.379795" lon="7.930975"><ele>290.6</ele><time>2026-04-24T11:05:24.934Z</time></trkpt><trkpt lat="34.3798617" lon="7.931045"><ele>290.0</ele><time>2026-04-24T11:05:37.933Z</time></trkpt><trkpt lat="34.3800017" lon="7.9309933"><ele>290.0</ele><time>2026-04-24T11:06:02.933Z</time></trkpt><trkpt lat="34.38007" lon="7.931075"><ele>290.0</ele><time>2026-04-24T11:07:24.934Z</time></trkpt><trkpt lat="34.37998" lon="7.9310333"><ele>290.0</ele><time>2026-04-24T11:07:55.934Z</time></trkpt><trkpt lat="34.380055" lon="7.931095"><ele>290.0</ele><time>2026-04-24T11:08:28.933Z</time></trkpt><trkpt lat="34.3800967" lon="7.9309883"><ele>290.0</ele><time>2026-04-24T11:09:08.933Z</time></trkpt><trkpt lat="34.380015" lon="7.9310583"><ele>290.0</ele><time>2026-04-24T11:09:28.933Z</time></trkpt><trkpt lat="34.3800767" lon="7.9310917"><ele>290.0</ele><time>2026-04-24T11:10:16.933Z</time></trkpt><trkpt lat="34.3801983" lon="7.931025"><ele>290.0</ele><time>2026-04-24T11:10:35.932Z</time></trkpt><trkpt lat="34.3803017" lon="7.9310617"><ele>290.0</ele><time>2026-04-24T11:10:50.933Z</time></trkpt><trkpt lat="34.38037" lon="7.931075"><ele>290.0</ele><time>2026-04-24T11:11:01.933Z</time></trkpt><trkpt lat="34.3804683" lon="7.9311317"><ele>287.8</ele><time>2026-04-24T11:11:15.932Z</time></trkpt><trkpt lat="34.3805167" lon="7.931205"><ele>285.6</ele><time>2026-04-24T11:11:17.932Z</time></trkpt><trkpt lat="34.38059" lon="7.9311317"><ele>283.4</ele><time>2026-04-24T11:11:36.933Z</time></trkpt><trkpt lat="34.3806933" lon="7.93106"><ele>281.2</ele><time>2026-04-24T11:11:53.933Z</time></trkpt><trkpt lat="34.38079" lon="7.931005"><ele>279.0</ele><time>2026-04-24T11:12:10.933Z</time></trkpt><trkpt lat="34.3808833" lon="7.93106"><ele>279.0</ele><time>2026-04-24T11:12:37.933Z</time></trkpt><trkpt lat="34.38101" lon="7.9310617"><ele>279.0</ele><time>2026-04-24T11:12:55.933Z</time></trkpt><trkpt lat="34.3810887" lon="7.9310519"><ele>279.0</ele><time>2026-04-24T11:13:15.933Z</time></trkpt><trkpt lat="34.3811921" lon="7.9309724"><ele>279.0</ele><time>2026-04-24T11:13:27.933Z</time></trkpt><trkpt lat="34.381292" lon="7.930973"><ele>279.0</ele><time>2026-04-24T11:13:44.933Z</time></trkpt><trkpt lat="34.381362" lon="7.9310558"><ele>277.2</ele><time>2026-04-24T11:14:07.932Z</time></trkpt><trkpt lat="34.3814049" lon="7.9311758"><ele>275.4</ele><time>2026-04-24T11:14:20.932Z</time></trkpt><trkpt lat="34.3813717" lon="7.9313047"><ele>273.6</ele><time>2026-04-24T11:14:36.932Z</time></trkpt><trkpt lat="34.3813753" lon="7.9314367"><ele>271.8</ele><time>2026-04-24T11:14:53.932Z</time></trkpt><trkpt lat="34.3814106" lon="7.9315672"><ele>270.0</ele><time>2026-04-24T11:15:12.932Z</time></trkpt><trkpt lat="34.3814186" lon="7.9316847"><ele>269.6</ele><time>2026-04-24T11:15:29.931Z</time></trkpt><trkpt lat="34.3814544" lon="7.931798"><ele>269.2</ele><time>2026-04-24T11:15:50.932Z</time></trkpt><trkpt lat="34.3814605" lon="7.9319286"><ele>268.8</ele><time>2026-04-24T11:16:05.932Z</time></trkpt><trkpt lat="34.3814242" lon="7.9320661"><ele>268.4</ele><time>2026-04-24T11:16:23.931Z</time></trkpt><trkpt lat="34.3814538" lon="7.9321986"><ele>268.0</ele><time>2026-04-24T11:17:06.932Z</time></trkpt><trkpt lat="34.3815387" lon="7.932294"><ele>268.0</ele><time>2026-04-24T11:17:21.932Z</time></trkpt><trkpt lat="34.3816169" lon="7.9323851"><ele>268.0</ele><time>2026-04-24T11:17:36.931Z</time></trkpt><trkpt lat="34.3816666" lon="7.9325064"><ele>268.0</ele><time>2026-04-24T11:17:52.932Z</time></trkpt><trkpt lat="34.3817096" lon="7.932643"><ele>268.0</ele><time>2026-04-24T11:18:06.932Z</time></trkpt><trkpt lat="34.3817851" lon="7.932756"><ele>268.8</ele><time>2026-04-24T11:18:24.931Z</time></trkpt><trkpt lat="34.3818469" lon="7.9328062"><ele>269.6</ele><time>2026-04-24T11:18:29.932Z</time></trkpt><trkpt lat="34.3819048" lon="7.9328815"><ele>270.4</ele><time>2026-04-24T11:18:47.931Z</time></trkpt><trkpt lat="34.3819268" lon="7.933009"><ele>271.2</ele><time>2026-04-24T11:19:05.932Z</time></trkpt><trkpt lat="34.38196" lon="7.933155"><ele>272.0</ele><time>2026-04-24T11:21:05.93Z</time></trkpt><trkpt lat="34.3819167" lon="7.9330817"><ele>272.0</ele><time>2026-04-24T11:21:51.931Z</time></trkpt><trkpt lat="34.381825" lon="7.93303"><ele>272.0</ele><time>2026-04-24T11:22:10.931Z</time></trkpt><trkpt lat="34.381755" lon="7.933105"><ele>272.0</ele><time>2026-04-24T11:22:36.931Z</time></trkpt><trkpt lat="34.3817183" lon="7.933195"><ele>272.0</ele><time>2026-04-24T11:23:09.931Z</time></trkpt><trkpt lat="34.3816838" lon="7.933319"><ele>272.0</ele><time>2026-04-24T11:23:33.931Z</time></trkpt></trkseg><trkseg><trkpt lat="34.3836117" lon="7.933125"><ele>287.0</ele><time>2026-04-24T12:04:50.946Z</time></trkpt><trkpt lat="34.3837015" lon="7.9331417"><ele>287.0</ele><time>2026-04-24T12:06:41.944Z</time></trkpt><trkpt lat="34.3837923" lon="7.9331614"><ele>287.0</ele><time>2026-04-24T12:06:43.945Z</time></trkpt><trkpt lat="34.3839005" lon="7.9331485"><ele>287.0</ele><time>2026-04-24T12:06:45.945Z</time></trkpt><trkpt lat="34.3840159" lon="7.933114"><ele>287.0</ele><time>2026-04-24T12:06:47.945Z</time></trkpt><trkpt lat="34.3840782" lon="7.9330981"><ele>287.57142857142856</ele><time>2026-04-24T12:06:48.945Z</time></trkpt><trkpt lat="34.3841448" lon="7.9330928"><ele>288.1428571428571</ele><time>2026-04-24T12:06:49.945Z</time></trkpt><trkpt lat="34.3842171" lon="7.933081"><ele>288.7142857142857</ele><time>2026-04-24T12:06:50.945Z</time></trkpt><trkpt lat="34.3842881" lon="7.9330653"><ele>289.2857142857143</ele><time>2026-04-24T12:06:51.945Z</time></trkpt><trkpt lat="34.3843543" lon="7.9330542"><ele>289.85714285714283</ele><time>2026-04-24T12:06:52.944Z</time></trkpt><trkpt lat="34.3844187" lon="7.9330382"><ele>290.42857142857144</ele><time>2026-04-24T12:06:53.945Z</time></trkpt><trkpt lat="34.3844863" lon="7.9330133"><ele>291.0</ele><time>2026-04-24T12:06:54.945Z</time></trkpt><trkpt lat="34.3845597" lon="7.9329814"><ele>291.0</ele><time>2026-04-24T12:06:55.945Z</time></trkpt><trkpt lat="34.3846338" lon="7.9329494"><ele>291.0</ele><time>2026-04-24T12:06:56.945Z</time></trkpt><trkpt lat="34.3847153" lon="7.932926"><ele>291.0</ele><time>2026-04-24T12:06:57.945Z</time></trkpt><trkpt lat="34.3847942" lon="7.9328994"><ele>291.0</ele><time>2026-04-24T12:06:58.945Z</time></trkpt><trkpt lat="34.384878" lon="7.9328716"><ele>291.0</ele><time>2026-04-24T12:06:59.945Z</time></trkpt><trkpt lat="34.3849627" lon="7.9328489"><ele>291.0</ele><time>2026-04-24T12:07:00.945Z</time></trkpt><trkpt lat="34.3850439" lon="7.9328292"><ele>291.3333333333333</ele><time>2026-04-24T12:07:01.945Z</time></trkpt><trkpt lat="34.3851195" lon="7.9328047"><ele>291.6666666666667</ele><time>2026-04-24T12:07:02.945Z</time></trkpt><trkpt lat="34.3851972" lon="7.9327864"><ele>292.0</ele><time>2026-04-24T12:07:03.945Z</time></trkpt><trkpt lat="34.3852791" lon="7.9327635"><ele>292.33333333333337</ele><time>2026-04-24T12:07:04.944Z</time></trkpt><trkpt lat="34.3853684" lon="7.9327413"><ele>292.6666666666667</ele><time>2026-04-24T12:07:05.944Z</time></trkpt><trkpt lat="34.3854658" lon="7.9327128"><ele>293.0</ele><time>2026-04-24T12:07:06.945Z</time></trkpt><trkpt lat="34.3855604" lon="7.9326813"><ele>293.0</ele><time>2026-04-24T12:07:07.945Z</time></trkpt><trkpt lat="34.3856529" lon="7.9326457"><ele>293.0</ele><time>2026-04-24T12:07:08.945Z</time></trkpt><trkpt lat="34.3857364" lon="7.9326205"><ele>293.0</ele><time>2026-04-24T12:07:09.944Z</time></trkpt><trkpt lat="34.3858209" lon="7.9326032"><ele>293.0</ele><time>2026-04-24T12:07:10.945Z</time></trkpt><trkpt lat="34.3858986" lon="7.9325794"><ele>293.0</ele><time>2026-04-24T12:07:11.945Z</time></trkpt><trkpt lat="34.3859814" lon="7.9325501"><ele>293.0</ele><time>2026-04-24T12:07:12.944Z</time></trkpt><trkpt lat="34.386056" lon="7.9325282"><ele>293.0</ele><time>2026-04-24T12:07:13.944Z</time></trkpt><trkpt lat="34.3861292" lon="7.9325176"><ele>293.0</ele><time>2026-04-24T12:07:14.945Z</time></trkpt><trkpt lat="34.3862356" lon="7.9325162"><ele>293.0</ele><time>2026-04-24T12:07:16.945Z</time></trkpt><trkpt lat="34.3863085" lon="7.9325258"><ele>293.0</ele><time>2026-04-24T12:07:18.945Z</time></trkpt><trkpt lat="34.3863724" lon="7.932587"><ele>293.0</ele><time>2026-04-24T12:07:21.945Z</time></trkpt><trkpt lat="34.3863876" lon="7.9326827"><ele>293.0</ele><time>2026-04-24T12:07:24.945Z</time></trkpt><trkpt lat="34.3864052" lon="7.932772"><ele>294.1666666666667</ele><time>2026-04-24T12:07:26.948Z</time></trkpt><trkpt lat="34.3863955" lon="7.9328658"><ele>295.33333333333337</ele><time>2026-04-24T12:07:27.944Z</time></trkpt><trkpt lat="34.3863997" lon="7.9329429"><ele>296.5</ele><time>2026-04-24T12:07:28.945Z</time></trkpt><trkpt lat="34.3864137" lon="7.9330277"><ele>297.6666666666667</ele><time>2026-04-24T12:07:29.945Z</time></trkpt><trkpt lat="34.3864329" lon="7.9331163"><ele>298.8333333333333</ele><time>2026-04-24T12:07:30.945Z</time></trkpt><trkpt lat="34.3864545" lon="7.9332058"><ele>300.0</ele><time>2026-04-24T12:07:31.944Z</time></trkpt><trkpt lat="34.3864791" lon="7.9333052"><ele>300.6</ele><time>2026-04-24T12:07:32.945Z</time></trkpt><trkpt lat="34.3865012" lon="7.9334119"><ele>301.2</ele><time>2026-04-24T12:07:33.945Z</time></trkpt><trkpt lat="34.3865302" lon="7.9335218"><ele>301.8</ele><time>2026-04-24T12:07:34.944Z</time></trkpt><trkpt lat="34.386563" lon="7.9336289"><ele>302.4</ele><time>2026-04-24T12:07:35.945Z</time></trkpt><trkpt lat="34.3865917" lon="7.9337367"><ele>303.0</ele><time>2026-04-24T12:07:36.945Z</time></trkpt><trkpt lat="34.38663" lon="7.93384"><ele>303.0</ele><time>2026-04-24T12:07:37.945Z</time></trkpt><trkpt lat="34.3866683" lon="7.93394"><ele>303.0</ele><time>2026-04-24T12:07:38.945Z</time></trkpt><trkpt lat="34.3867067" lon="7.9340483"><ele>303.0</ele><time>2026-04-24T12:07:39.945Z</time></trkpt><trkpt lat="34.3867433" lon="7.934155"><ele>303.0</ele><time>2026-04-24T12:07:40.945Z</time></trkpt><trkpt lat="34.3867833" lon="7.9342583"><ele>303.0</ele><time>2026-04-24T12:07:41.945Z</time></trkpt><trkpt lat="34.386825" lon="7.934365"><ele>302.6</ele><time>2026-04-24T12:07:42.945Z</time></trkpt><trkpt lat="34.386865" lon="7.9344783"><ele>302.20000000000005</ele><time>2026-04-24T12:07:43.945Z</time></trkpt><trkpt lat="34.386905" lon="7.9345983"><ele>301.8</ele><time>2026-04-24T12:07:44.944Z</time></trkpt><trkpt lat="34.38694" lon="7.9347217"><ele>301.40000000000003</ele><time>2026-04-24T12:07:45.944Z</time></trkpt><trkpt lat="34.3869717" lon="7.9348483"><ele>301.0</ele><time>2026-04-24T12:07:46.944Z</time></trkpt><trkpt lat="34.387005" lon="7.934975"><ele>300.6</ele><time>2026-04-24T12:07:47.945Z</time></trkpt><trkpt lat="34.387045" lon="7.9350983"><ele>300.20000000000005</ele><time>2026-04-24T12:07:48.945Z</time></trkpt><trkpt lat="34.3870867" lon="7.935225"><ele>299.79999999999995</ele><time>2026-04-24T12:07:49.944Z</time></trkpt><trkpt lat="34.3871133" lon="7.9353533"><ele>299.4</ele><time>2026-04-24T12:07:50.944Z</time></trkpt><trkpt lat="34.3871367" lon="7.9354783"><ele>299.0</ele><time>2026-04-24T12:07:51.945Z</time></trkpt><trkpt lat="34.3871533" lon="7.935615"><ele>299.0</ele><time>2026-04-24T12:07:52.945Z</time></trkpt><trkpt lat="34.387155" lon="7.935735"><ele>299.0</ele><time>2026-04-24T12:07:53.945Z</time></trkpt><trkpt lat="34.3871467" lon="7.9358533"><ele>299.0</ele><time>2026-04-24T12:07:54.944Z</time></trkpt><trkpt lat="34.38714" lon="7.9359633"><ele>299.0</ele><time>2026-04-24T12:07:55.944Z</time></trkpt><trkpt lat="34.3871317" lon="7.9360733"><ele>299.0</ele><time>2026-04-24T12:07:56.945Z</time></trkpt><trkpt lat="34.38713" lon="7.936185"><ele>298.59999999999997</ele><time>2026-04-24T12:07:57.944Z</time></trkpt><trkpt lat="34.3871267" lon="7.9362933"><ele>298.2</ele><time>2026-04-24T12:07:58.945Z</time></trkpt><trkpt lat="34.3871183" lon="7.9364133"><ele>297.79999999999995</ele><time>2026-04-24T12:07:59.945Z</time></trkpt><trkpt lat="34.3871167" lon="7.9365383"><ele>297.4</ele><time>2026-04-24T12:08:00.945Z</time></trkpt><trkpt lat="34.3871167" lon="7.9366733"><ele>297.0</ele><time>2026-04-24T12:08:01.945Z</time></trkpt><trkpt lat="34.3871133" lon="7.9368067"><ele>296.2</ele><time>2026-04-24T12:08:02.945Z</time></trkpt><trkpt lat="34.3871133" lon="7.936925"><ele>295.4</ele><time>2026-04-24T12:08:03.945Z</time></trkpt><trkpt lat="34.38711" lon="7.937045"><ele>294.6</ele><time>2026-04-24T12:08:04.945Z</time></trkpt><trkpt lat="34.3871117" lon="7.9371533"><ele>293.8</ele><time>2026-04-24T12:08:05.945Z</time></trkpt><trkpt lat="34.3871117" lon="7.9372767"><ele>293.0</ele><time>2026-04-24T12:08:06.944Z</time></trkpt><trkpt lat="34.387105" lon="7.9374033"><ele>293.0</ele><time>2026-04-24T12:08:07.944Z</time></trkpt><trkpt lat="34.3871" lon="7.9375467"><ele>293.0</ele><time>2026-04-24T12:08:08.945Z</time></trkpt><trkpt lat="34.3870967" lon="7.9376917"><ele>293.0</ele><time>2026-04-24T12:08:09.945Z</time></trkpt><trkpt lat="34.3870867" lon="7.9378317"><ele>293.0</ele><time>2026-04-24T12:08:10.945Z</time></trkpt><trkpt lat="34.387075" lon="7.9379783"><ele>293.25</ele><time>2026-04-24T12:08:11.945Z</time></trkpt><trkpt lat="34.3870633" lon="7.9381317"><ele>293.5</ele><time>2026-04-24T12:08:12.945Z</time></trkpt><trkpt lat="34.3870533" lon="7.9382917"><ele>293.75</ele><time>2026-04-24T12:08:13.945Z</time></trkpt><trkpt lat="34.3870417" lon="7.938455"><ele>294.0</ele><time>2026-04-24T12:08:14.945Z</time></trkpt><trkpt lat="34.38702" lon="7.93861"><ele>294.5</ele><time>2026-04-24T12:08:15.945Z</time></trkpt><trkpt lat="34.38701" lon="7.9387667"><ele>295.0</ele><time>2026-04-24T12:08:16.945Z</time></trkpt><trkpt lat="34.3869933" lon="7.9389333"><ele>295.5</ele><time>2026-04-24T12:08:17.945Z</time></trkpt><trkpt lat="34.3869733" lon="7.9390933"><ele>296.0</ele><time>2026-04-24T12:08:18.945Z</time></trkpt><trkpt lat="34.3869633" lon="7.93925"><ele>296.25</ele><time>2026-04-24T12:08:19.945Z</time></trkpt><trkpt lat="34.3869617" lon="7.9394017"><ele>296.5</ele><time>2026-04-24T12:08:20.944Z</time></trkpt><trkpt lat="34.38698" lon="7.9395583"><ele>296.75</ele><time>2026-04-24T12:08:21.945Z</time></trkpt><trkpt lat="34.3869883" lon="7.9397183"><ele>297.0</ele><time>2026-04-24T12:08:22.945Z</time></trkpt><trkpt lat="34.386985" lon="7.9398717"><ele>297.0</ele><time>2026-04-24T12:08:23.945Z</time></trkpt><trkpt lat="34.3869867" lon="7.9400183"><ele>297.0</ele><time>2026-04-24T12:08:24.945Z</time></trkpt><trkpt lat="34.3869867" lon="7.9401467"><ele>297.0</ele><time>2026-04-24T12:08:25.945Z</time></trkpt><trkpt lat="34.386985" lon="7.9402567"><ele>297.0</ele><time>2026-04-24T12:08:26.944Z</time></trkpt><trkpt lat="34.3869783" lon="7.9403633"><ele>297.0</ele><time>2026-04-24T12:08:27.944Z</time></trkpt><trkpt lat="34.3869667" lon="7.940455"><ele>296.57142857142856</ele><time>2026-04-24T12:08:28.945Z</time></trkpt><trkpt lat="34.386965" lon="7.9405667"><ele>296.14285714285717</ele><time>2026-04-24T12:08:29.945Z</time></trkpt><trkpt lat="34.3869633" lon="7.9406583"><ele>295.7142857142857</ele><time>2026-04-24T12:08:30.944Z</time></trkpt><trkpt lat="34.38697" lon="7.9407533"><ele>295.2857142857143</ele><time>2026-04-24T12:08:31.945Z</time></trkpt><trkpt lat="34.386965" lon="7.9408367"><ele>294.8571428571429</ele><time>2026-04-24T12:08:32.945Z</time></trkpt><trkpt lat="34.3869683" lon="7.9409183"><ele>294.42857142857144</ele><time>2026-04-24T12:08:33.945Z</time></trkpt><trkpt lat="34.3869583" lon="7.9409967"><ele>294.0</ele><time>2026-04-24T12:08:34.944Z</time></trkpt><trkpt lat="34.3869533" lon="7.94108"><ele>293.85714285714283</ele><time>2026-04-24T12:08:35.945Z</time></trkpt><trkpt lat="34.386945" lon="7.9411667"><ele>293.7142857142857</ele><time>2026-04-24T12:08:36.945Z</time></trkpt><trkpt lat="34.3869383" lon="7.941255"><ele>293.57142857142856</ele><time>2026-04-24T12:08:37.944Z</time></trkpt><trkpt lat="34.3869317" lon="7.94135"><ele>293.42857142857144</ele><time>2026-04-24T12:08:38.945Z</time></trkpt><trkpt lat="34.3869267" lon="7.9414383"><ele>293.2857142857143</ele><time>2026-04-24T12:08:39.945Z</time></trkpt><trkpt lat="34.38693" lon="7.9415217"><ele>293.1428571428571</ele><time>2026-04-24T12:08:40.945Z</time></trkpt><trkpt lat="34.38694" lon="7.9416033"><ele>293.0</ele><time>2026-04-24T12:08:41.945Z</time></trkpt><trkpt lat="34.3869433" lon="7.94168"><ele>292.83333333333337</ele><time>2026-04-24T12:08:42.945Z</time></trkpt><trkpt lat="34.3869533" lon="7.9417617"><ele>292.6666666666667</ele><time>2026-04-24T12:08:43.944Z</time></trkpt><trkpt lat="34.386965" lon="7.9418367"><ele>292.5</ele><time>2026-04-24T12:08:44.945Z</time></trkpt><trkpt lat="34.3869817" lon="7.941975"><ele>292.3333333333333</ele><time>2026-04-24T12:08:46.945Z</time></trkpt><trkpt lat="34.3870033" lon="7.9420867"><ele>292.16666666666663</ele><time>2026-04-24T12:08:48.945Z</time></trkpt><trkpt lat="34.3870367" lon="7.94221"><ele>292.0</ele><time>2026-04-24T12:08:52.945Z</time></trkpt><trkpt lat="34.38704" lon="7.9422983"><ele>292.0</ele><time>2026-04-24T12:08:54.945Z</time></trkpt><trkpt lat="34.3870533" lon="7.94242"><ele>292.0</ele><time>2026-04-24T12:08:56.945Z</time></trkpt><trkpt lat="34.3870867" lon="7.94267"><ele>292.0</ele><time>2026-04-24T12:08:59.945Z</time></trkpt><trkpt lat="34.387105" lon="7.9427633"><ele>292.0</ele><time>2026-04-24T12:09:00.945Z</time></trkpt><trkpt lat="34.3871133" lon="7.9428583"><ele>292.0</ele><time>2026-04-24T12:09:01.944Z</time></trkpt><trkpt lat="34.3871283" lon="7.9429617"><ele>292.0</ele><time>2026-04-24T12:09:02.945Z</time></trkpt><trkpt lat="34.3871233" lon="7.9430617"><ele>292.0</ele><time>2026-04-24T12:09:03.945Z</time></trkpt><trkpt lat="34.3871233" lon="7.9431667"><ele>292.0</ele><time>2026-04-24T12:09:04.944Z</time></trkpt><trkpt lat="34.3871217" lon="7.943275"><ele>292.0</ele><time>2026-04-24T12:09:05.945Z</time></trkpt><trkpt lat="34.3871167" lon="7.9433883"><ele>292.0</ele><time>2026-04-24T12:09:06.945Z</time></trkpt><trkpt lat="34.387115" lon="7.9435083"><ele>292.0</ele><time>2026-04-24T12:09:07.945Z</time></trkpt><trkpt lat="34.3871183" lon="7.9436317"><ele>292.0</ele><time>2026-04-24T12:09:08.945Z</time></trkpt><trkpt lat="34.3871217" lon="7.9437517"><ele>292.0</ele><time>2026-04-24T12:09:09.944Z</time></trkpt><trkpt lat="34.38713" lon="7.94387"><ele>292.0</ele><time>2026-04-24T12:09:10.945Z</time></trkpt><trkpt lat="34.3871483" lon="7.9439917"><ele>292.0</ele><time>2026-04-24T12:09:11.945Z</time></trkpt><trkpt lat="34.38717" lon="7.944115"><ele>292.4</ele><time>2026-04-24T12:09:12.945Z</time></trkpt><trkpt lat="34.387195" lon="7.9442217"><ele>292.79999999999995</ele><time>2026-04-24T12:09:13.945Z</time></trkpt><trkpt lat="34.3872233" lon="7.94433"><ele>293.2</ele><time>2026-04-24T12:09:14.945Z</time></trkpt><trkpt lat="34.3872483" lon="7.94443"><ele>293.59999999999997</ele><time>2026-04-24T12:09:15.945Z</time></trkpt><trkpt lat="34.3872783" lon="7.944535"><ele>294.0</ele><time>2026-04-24T12:09:16.945Z</time></trkpt><trkpt lat="34.387305" lon="7.9446517"><ele>294.0</ele><time>2026-04-24T12:09:17.945Z</time></trkpt><trkpt lat="34.38733" lon="7.9447733"><ele>294.0</ele><time>2026-04-24T12:09:18.945Z</time></trkpt><trkpt lat="34.3873617" lon="7.94489"><ele>294.0</ele><time>2026-04-24T12:09:19.945Z</time></trkpt><trkpt lat="34.3874083" lon="7.9449867"><ele>294.0</ele><time>2026-04-24T12:09:20.945Z</time></trkpt><trkpt lat="34.3874717" lon="7.945055"><ele>294.0</ele><time>2026-04-24T12:09:21.945Z</time></trkpt><trkpt lat="34.3875267" lon="7.945095"><ele>294.0</ele><time>2026-04-24T12:09:22.945Z</time></trkpt><trkpt lat="34.3876367" lon="7.9451383"><ele>293.8</ele><time>2026-04-24T12:09:24.945Z</time></trkpt><trkpt lat="34.3877383" lon="7.945145"><ele>293.59999999999997</ele><time>2026-04-24T12:09:26.945Z</time></trkpt><trkpt lat="34.38785" lon="7.9451467"><ele>293.4</ele><time>2026-04-24T12:09:28.944Z</time></trkpt><trkpt lat="34.3879133" lon="7.9451633"><ele>293.2</ele><time>2026-04-24T12:09:29.945Z</time></trkpt><trkpt lat="34.3879917" lon="7.9451783"><ele>293.0</ele><time>2026-04-24T12:09:30.945Z</time></trkpt><trkpt lat="34.3880833" lon="7.945205"><ele>293.0</ele><time>2026-04-24T12:09:31.945Z</time></trkpt><trkpt lat="34.3881817" lon="7.9452333"><ele>293.0</ele><time>2026-04-24T12:09:32.944Z</time></trkpt><trkpt lat="34.3882867" lon="7.9452667"><ele>293.0</ele><time>2026-04-24T12:09:33.945Z</time></trkpt><trkpt lat="34.3884" lon="7.9452933"><ele>293.0</ele><time>2026-04-24T12:09:34.943Z</time></trkpt><trkpt lat="34.3885083" lon="7.9453133"><ele>293.0</ele><time>2026-04-24T12:09:35.943Z</time></trkpt><trkpt lat="34.388605" lon="7.9453333"><ele>293.0</ele><time>2026-04-24T12:09:36.943Z</time></trkpt><trkpt lat="34.3887117" lon="7.94537"><ele>293.0</ele><time>2026-04-24T12:09:37.943Z</time></trkpt><trkpt lat="34.3888333" lon="7.9454067"><ele>293.0</ele><time>2026-04-24T12:09:38.943Z</time></trkpt><trkpt lat="34.38895" lon="7.94544"><ele>293.0</ele><time>2026-04-24T12:09:39.944Z</time></trkpt><trkpt lat="34.389055" lon="7.9455"><ele>293.5</ele><time>2026-04-24T12:09:40.943Z</time></trkpt><trkpt lat="34.389155" lon="7.9455767"><ele>294.0</ele><time>2026-04-24T12:09:41.944Z</time></trkpt><trkpt lat="34.3892533" lon="7.94567"><ele>294.5</ele><time>2026-04-24T12:09:42.944Z</time></trkpt><trkpt lat="34.3893483" lon="7.9457767"><ele>295.0</ele><time>2026-04-24T12:09:43.944Z</time></trkpt><trkpt lat="34.38944" lon="7.9458967"><ele>295.0</ele><time>2026-04-24T12:09:44.944Z</time></trkpt><trkpt lat="34.389525" lon="7.9460183"><ele>295.0</ele><time>2026-04-24T12:09:45.944Z</time></trkpt><trkpt lat="34.38962" lon="7.9461383"><ele>295.0</ele><time>2026-04-24T12:09:46.944Z</time></trkpt><trkpt lat="34.3897167" lon="7.9462567"><ele>295.0</ele><time>2026-04-24T12:09:47.944Z</time></trkpt><trkpt lat="34.3898167" lon="7.946385"><ele>297.5</ele><time>2026-04-24T12:09:48.944Z</time></trkpt><trkpt lat="34.3899167" lon="7.9465067"><ele>300.0</ele><time>2026-04-24T12:09:49.944Z</time></trkpt><trkpt lat="34.390015" lon="7.9466233"><ele>302.5</ele><time>2026-04-24T12:09:50.944Z</time></trkpt><trkpt lat="34.3901117" lon="7.946745"><ele>305.0</ele><time>2026-04-24T12:09:51.943Z</time></trkpt><trkpt lat="34.3902017" lon="7.94687"><ele>305.5</ele><time>2026-04-24T12:09:52.944Z</time></trkpt><trkpt lat="34.3902767" lon="7.9470083"><ele>306.0</ele><time>2026-04-24T12:09:53.944Z</time></trkpt><trkpt lat="34.39034" lon="7.9471517"><ele>306.5</ele><time>2026-04-24T12:09:54.943Z</time></trkpt><trkpt lat="34.3903983" lon="7.9472983"><ele>307.0</ele><time>2026-04-24T12:09:55.943Z</time></trkpt><trkpt lat="34.3904483" lon="7.9474417"><ele>310.75</ele><time>2026-04-24T12:09:56.944Z</time></trkpt><trkpt lat="34.39051" lon="7.94758"><ele>314.5</ele><time>2026-04-24T12:09:57.944Z</time></trkpt><trkpt lat="34.3905617" lon="7.9477083"><ele>318.25</ele><time>2026-04-24T12:09:58.944Z</time></trkpt><trkpt lat="34.3906067" lon="7.94784"><ele>322.0</ele><time>2026-04-24T12:09:59.943Z</time></trkpt><trkpt lat="34.39065" lon="7.94797"><ele>322.0</ele><time>2026-04-24T12:10:00.944Z</time></trkpt><trkpt lat="34.3906933" lon="7.9480983"><ele>322.0</ele><time>2026-04-24T12:10:01.943Z</time></trkpt><trkpt lat="34.3907417" lon="7.9482217"><ele>322.0</ele><time>2026-04-24T12:10:02.944Z</time></trkpt><trkpt lat="34.3908017" lon="7.9483333"><ele>322.0</ele><time>2026-04-24T12:10:03.943Z</time></trkpt><trkpt lat="34.3908683" lon="7.9484467"><ele>321.75</ele><time>2026-04-24T12:10:04.944Z</time></trkpt><trkpt lat="34.390955" lon="7.94855"><ele>321.5</ele><time>2026-04-24T12:10:05.944Z</time></trkpt><trkpt lat="34.3910467" lon="7.9486467"><ele>321.25</ele><time>2026-04-24T12:10:06.944Z</time></trkpt><trkpt lat="34.3911283" lon="7.9487433"><ele>321.0</ele><time>2026-04-24T12:10:07.943Z</time></trkpt><trkpt lat="34.3912083" lon="7.948835"><ele>321.0</ele><time>2026-04-24T12:10:08.944Z</time></trkpt><trkpt lat="34.39127" lon="7.9489333"><ele>321.0</ele><time>2026-04-24T12:10:09.944Z</time></trkpt><trkpt lat="34.391325" lon="7.9490433"><ele>321.0</ele><time>2026-04-24T12:10:10.943Z</time></trkpt><trkpt lat="34.3913717" lon="7.94916"><ele>321.0</ele><time>2026-04-24T12:10:11.943Z</time></trkpt><trkpt lat="34.3914117" lon="7.949285"><ele>321.0</ele><time>2026-04-24T12:10:12.944Z</time></trkpt><trkpt lat="34.3914417" lon="7.9494267"><ele>323.0</ele><time>2026-04-24T12:10:13.943Z</time></trkpt><trkpt lat="34.3914733" lon="7.9495767"><ele>325.0</ele><time>2026-04-24T12:10:14.944Z</time></trkpt><trkpt lat="34.3915083" lon="7.9497283"><ele>327.0</ele><time>2026-04-24T12:10:15.944Z</time></trkpt><trkpt lat="34.3915467" lon="7.949895"><ele>329.0</ele><time>2026-04-24T12:10:16.943Z</time></trkpt><trkpt lat="34.3915817" lon="7.9500733"><ele>329.0</ele><time>2026-04-24T12:10:17.944Z</time></trkpt><trkpt lat="34.39162" lon="7.950255"><ele>329.0</ele><time>2026-04-24T12:10:18.944Z</time></trkpt><trkpt lat="34.3916533" lon="7.9504433"><ele>329.0</ele><time>2026-04-24T12:10:19.944Z</time></trkpt><trkpt lat="34.3916833" lon="7.9506333"><ele>329.0</ele><time>2026-04-24T12:10:20.944Z</time></trkpt><trkpt lat="34.3916967" lon="7.9508183"><ele>329.0</ele><time>2026-04-24T12:10:21.944Z</time></trkpt><trkpt lat="34.3917083" lon="7.9510167"><ele>329.0</ele><time>2026-04-24T12:10:22.943Z</time></trkpt><trkpt lat="34.3917417" lon="7.9512083"><ele>327.6666666666667</ele><time>2026-04-24T12:10:23.944Z</time></trkpt><trkpt lat="34.3917867" lon="7.951395"><ele>326.3333333333333</ele><time>2026-04-24T12:10:24.944Z</time></trkpt><trkpt lat="34.3918417" lon="7.9515817"><ele>325.0</ele><time>2026-04-24T12:10:25.944Z</time></trkpt><trkpt lat="34.3918967" lon="7.9517767"><ele>323.3333333333333</ele><time>2026-04-24T12:10:26.943Z</time></trkpt><trkpt lat="34.3919533" lon="7.9519717"><ele>321.6666666666667</ele><time>2026-04-24T12:10:27.944Z</time></trkpt><trkpt lat="34.3920133" lon="7.9521683"><ele>320.0</ele><time>2026-04-24T12:10:28.944Z</time></trkpt><trkpt lat="34.3920767" lon="7.9523667"><ele>317.6666666666667</ele><time>2026-04-24T12:10:29.943Z</time></trkpt><trkpt lat="34.3921333" lon="7.9525633"><ele>315.3333333333333</ele><time>2026-04-24T12:10:30.944Z</time></trkpt><trkpt lat="34.3922" lon="7.9527683"><ele>313.0</ele><time>2026-04-24T12:10:31.944Z</time></trkpt><trkpt lat="34.3922683" lon="7.9529683"><ele>317.0</ele><time>2026-04-24T12:10:32.943Z</time></trkpt><trkpt lat="34.392335" lon="7.95317"><ele>321.0</ele><time>2026-04-24T12:10:33.944Z</time></trkpt><trkpt lat="34.3923967" lon="7.9533883"><ele>325.0</ele><time>2026-04-24T12:10:34.944Z</time></trkpt><trkpt lat="34.3924633" lon="7.95361"><ele>325.0</ele><time>2026-04-24T12:10:35.944Z</time></trkpt><trkpt lat="34.3925267" lon="7.953825"><ele>325.0</ele><time>2026-04-24T12:10:36.944Z</time></trkpt><trkpt lat="34.39259" lon="7.9540433"><ele>325.0</ele><time>2026-04-24T12:10:37.944Z</time></trkpt><trkpt lat="34.3926567" lon="7.954265"><ele>323.66666666666663</ele><time>2026-04-24T12:10:38.944Z</time></trkpt><trkpt lat="34.392715" lon="7.9544783"><ele>322.3333333333333</ele><time>2026-04-24T12:10:39.944Z</time></trkpt><trkpt lat="34.3927733" lon="7.9547017"><ele>321.0</ele><time>2026-04-24T12:10:40.944Z</time></trkpt><trkpt lat="34.39283" lon="7.9549217"><ele>320.0</ele><time>2026-04-24T12:10:41.944Z</time></trkpt><trkpt lat="34.39286" lon="7.9551467"><ele>319.0</ele><time>2026-04-24T12:10:42.944Z</time></trkpt><trkpt lat="34.392875" lon="7.955365"><ele>318.0</ele><time>2026-04-24T12:10:43.943Z</time></trkpt><trkpt lat="34.392875" lon="7.95559"><ele>318.0</ele><time>2026-04-24T12:10:44.944Z</time></trkpt><trkpt lat="34.392855" lon="7.955815"><ele>318.0</ele><time>2026-04-24T12:10:45.944Z</time></trkpt><trkpt lat="34.392835" lon="7.9560367"><ele>318.0</ele><time>2026-04-24T12:10:46.944Z</time></trkpt><trkpt lat="34.3928283" lon="7.95626"><ele>317.0</ele><time>2026-04-24T12:10:47.944Z</time></trkpt><trkpt lat="34.39285" lon="7.956485"><ele>316.0</ele><time>2026-04-24T12:10:48.944Z</time></trkpt><trkpt lat="34.3928917" lon="7.9567067"><ele>315.0</ele><time>2026-04-24T12:10:49.943Z</time></trkpt><trkpt lat="34.3929383" lon="7.9569283"><ele>315.0</ele><time>2026-04-24T12:10:50.944Z</time></trkpt><trkpt lat="34.3930017" lon="7.95715"><ele>315.0</ele><time>2026-04-24T12:10:51.943Z</time></trkpt><trkpt lat="34.3930667" lon="7.9573767"><ele>315.0</ele><time>2026-04-24T12:10:52.944Z</time></trkpt><trkpt lat="34.3931283" lon="7.9575967"><ele>317.3333333333333</ele><time>2026-04-24T12:10:53.943Z</time></trkpt><trkpt lat="34.393195" lon="7.957815"><ele>319.66666666666663</ele><time>2026-04-24T12:10:54.943Z</time></trkpt><trkpt lat="34.3932633" lon="7.9580283"><ele>322.0</ele><time>2026-04-24T12:10:55.944Z</time></trkpt><trkpt lat="34.39333" lon="7.9582567"><ele>321.0</ele><time>2026-04-24T12:10:56.944Z</time></trkpt><trkpt lat="34.3933867" lon="7.9584833"><ele>320.0</ele><time>2026-04-24T12:10:57.944Z</time></trkpt><trkpt lat="34.3934433" lon="7.9587083"><ele>319.0</ele><time>2026-04-24T12:10:58.944Z</time></trkpt><trkpt lat="34.3934883" lon="7.95894"><ele>319.0</ele><time>2026-04-24T12:10:59.944Z</time></trkpt><trkpt lat="34.3935317" lon="7.95917"><ele>319.0</ele><time>2026-04-24T12:11:00.944Z</time></trkpt><trkpt lat="34.3935817" lon="7.95941"><ele>319.0</ele><time>2026-04-24T12:11:01.944Z</time></trkpt><trkpt lat="34.3936317" lon="7.959655"><ele>318.66666666666663</ele><time>2026-04-24T12:11:02.944Z</time></trkpt><trkpt lat="34.3936783" lon="7.9598867"><ele>318.3333333333333</ele><time>2026-04-24T12:11:03.944Z</time></trkpt><trkpt lat="34.39374" lon="7.9601183"><ele>318.0</ele><time>2026-04-24T12:11:04.944Z</time></trkpt><trkpt lat="34.3938133" lon="7.9603383"><ele>321.6666666666667</ele><time>2026-04-24T12:11:05.944Z</time></trkpt><trkpt lat="34.3938917" lon="7.9605583"><ele>325.33333333333337</ele><time>2026-04-24T12:11:06.944Z</time></trkpt><trkpt lat="34.3939667" lon="7.9607767"><ele>329.0</ele><time>2026-04-24T12:11:07.944Z</time></trkpt><trkpt lat="34.3940383" lon="7.9609917"><ele>329.0</ele><time>2026-04-24T12:11:08.944Z</time></trkpt><trkpt lat="34.3941083" lon="7.9612033"><ele>329.0</ele><time>2026-04-24T12:11:09.943Z</time></trkpt><trkpt lat="34.39417" lon="7.96142"><ele>329.0</ele><time>2026-04-24T12:11:10.944Z</time></trkpt><trkpt lat="34.3942283" lon="7.9616383"><ele>328.33333333333337</ele><time>2026-04-24T12:11:11.944Z</time></trkpt><trkpt lat="34.394285" lon="7.9618617"><ele>327.6666666666667</ele><time>2026-04-24T12:11:12.944Z</time></trkpt><trkpt lat="34.39434" lon="7.9620867"><ele>327.0</ele><time>2026-04-24T12:11:13.943Z</time></trkpt><trkpt lat="34.3943983" lon="7.9623133"><ele>327.0</ele><time>2026-04-24T12:11:14.944Z</time></trkpt><trkpt lat="34.39446" lon="7.962535"><ele>327.0</ele><time>2026-04-24T12:11:15.944Z</time></trkpt><trkpt lat="34.3945183" lon="7.9627567"><ele>327.0</ele><time>2026-04-24T12:11:16.944Z</time></trkpt><trkpt lat="34.3945817" lon="7.96298"><ele>327.0</ele><time>2026-04-24T12:11:17.944Z</time></trkpt><trkpt lat="34.3946483" lon="7.963205"><ele>327.0</ele><time>2026-04-24T12:11:18.944Z</time></trkpt><trkpt lat="34.3947233" lon="7.9634267"><ele>327.0</ele><time>2026-04-24T12:11:19.944Z</time></trkpt><trkpt lat="34.3947933" lon="7.9636567"><ele>327.6666666666667</ele><time>2026-04-24T12:11:20.943Z</time></trkpt><trkpt lat="34.3948667" lon="7.9638783"><ele>328.33333333333337</ele><time>2026-04-24T12:11:21.943Z</time></trkpt><trkpt lat="34.3949433" lon="7.9641033"><ele>329.0</ele><time>2026-04-24T12:11:22.944Z</time></trkpt><trkpt lat="34.3950233" lon="7.964325"><ele>329.0</ele><time>2026-04-24T12:11:23.944Z</time></trkpt><trkpt lat="34.39511" lon="7.9645467"><ele>329.0</ele><time>2026-04-24T12:11:24.944Z</time></trkpt><trkpt lat="34.39519" lon="7.9647717"><ele>329.0</ele><time>2026-04-24T12:11:25.944Z</time></trkpt><trkpt lat="34.395265" lon="7.964995"><ele>329.0</ele><time>2026-04-24T12:11:26.944Z</time></trkpt><trkpt lat="34.3953433" lon="7.96521"><ele>329.0</ele><time>2026-04-24T12:11:27.944Z</time></trkpt><trkpt lat="34.3954267" lon="7.965415"><ele>329.0</ele><time>2026-04-24T12:11:28.944Z</time></trkpt><trkpt lat="34.395515" lon="7.9656183"><ele>331.33333333333337</ele><time>2026-04-24T12:11:29.944Z</time></trkpt><trkpt lat="34.3956017" lon="7.9658233"><ele>333.6666666666667</ele><time>2026-04-24T12:11:30.944Z</time></trkpt><trkpt lat="34.3956917" lon="7.9660267"><ele>336.0</ele><time>2026-04-24T12:11:31.943Z</time></trkpt><trkpt lat="34.3957783" lon="7.9662283"><ele>336.0</ele><time>2026-04-24T12:11:32.944Z</time></trkpt><trkpt lat="34.3958733" lon="7.9664217"><ele>336.0</ele><time>2026-04-24T12:11:33.944Z</time></trkpt><trkpt lat="34.39596" lon="7.966615"><ele>336.0</ele><time>2026-04-24T12:11:34.943Z</time></trkpt><trkpt lat="34.3960483" lon="7.9667967"><ele>336.0</ele><time>2026-04-24T12:11:35.943Z</time></trkpt><trkpt lat="34.396145" lon="7.9669683"><ele>336.0</ele><time>2026-04-24T12:11:36.943Z</time></trkpt><trkpt lat="34.396245" lon="7.96711"><ele>336.0</ele><time>2026-04-24T12:11:37.944Z</time></trkpt><trkpt lat="34.39637" lon="7.967235"><ele>336.0</ele><time>2026-04-24T12:11:38.944Z</time></trkpt><trkpt lat="34.3965083" lon="7.967335"><ele>336.0</ele><time>2026-04-24T12:11:39.944Z</time></trkpt><trkpt lat="34.39664" lon="7.9674117"><ele>336.0</ele><time>2026-04-24T12:11:40.943Z</time></trkpt><trkpt lat="34.396775" lon="7.9674683"><ele>336.0</ele><time>2026-04-24T12:11:41.943Z</time></trkpt><trkpt lat="34.3969017" lon="7.967505"><ele>336.0</ele><time>2026-04-24T12:11:42.943Z</time></trkpt><trkpt lat="34.3970233" lon="7.96754"><ele>336.0</ele><time>2026-04-24T12:11:43.943Z</time></trkpt><trkpt lat="34.39714" lon="7.967565"><ele>336.0</ele><time>2026-04-24T12:11:44.944Z</time></trkpt><trkpt lat="34.3972417" lon="7.96759"><ele>336.5</ele><time>2026-04-24T12:11:45.943Z</time></trkpt><trkpt lat="34.3973317" lon="7.9676083"><ele>337.0</ele><time>2026-04-24T12:11:46.944Z</time></trkpt><trkpt lat="34.3974117" lon="7.9676117"><ele>337.5</ele><time>2026-04-24T12:11:47.944Z</time></trkpt><trkpt lat="34.39748" lon="7.9676017"><ele>338.0</ele><time>2026-04-24T12:11:48.944Z</time></trkpt><trkpt lat="34.397545" lon="7.9675833"><ele>338.5</ele><time>2026-04-24T12:11:49.944Z</time></trkpt><trkpt lat="34.39761" lon="7.9675667"><ele>339.0</ele><time>2026-04-24T12:11:50.943Z</time></trkpt><trkpt lat="34.3977183" lon="7.9675283"><ele>339.4</ele><time>2026-04-24T12:11:52.944Z</time></trkpt><trkpt lat="34.3978" lon="7.9674333"><ele>339.79999999999995</ele><time>2026-04-24T12:11:54.944Z</time></trkpt><trkpt lat="34.3978633" lon="7.9673"><ele>340.20000000000005</ele><time>2026-04-24T12:11:56.944Z</time></trkpt><trkpt lat="34.3978967" lon="7.967215"><ele>340.6</ele><time>2026-04-24T12:11:57.944Z</time></trkpt><trkpt lat="34.3979283" lon="7.9671233"><ele>341.0</ele><time>2026-04-24T12:11:58.943Z</time></trkpt><trkpt lat="34.3979567" lon="7.9670383"><ele>341.0</ele><time>2026-04-24T12:11:59.944Z</time></trkpt><trkpt lat="34.3979783" lon="7.9669583"><ele>341.0</ele><time>2026-04-24T12:12:00.943Z</time></trkpt><trkpt lat="34.3979983" lon="7.9668783"><ele>341.0</ele><time>2026-04-24T12:12:01.944Z</time></trkpt><trkpt lat="34.3980033" lon="7.9667967"><ele>341.0</ele><time>2026-04-24T12:12:02.944Z</time></trkpt><trkpt lat="34.398" lon="7.966715"><ele>341.0</ele><time>2026-04-24T12:12:03.943Z</time></trkpt><trkpt lat="34.398005" lon="7.966625"><ele>341.0</ele><time>2026-04-24T12:12:04.943Z</time></trkpt><trkpt lat="34.398015" lon="7.966535"><ele>341.0</ele><time>2026-04-24T12:12:05.943Z</time></trkpt><trkpt lat="34.39803" lon="7.9664417"><ele>342.1666666666667</ele><time>2026-04-24T12:12:06.943Z</time></trkpt><trkpt lat="34.39805" lon="7.9663483"><ele>343.33333333333337</ele><time>2026-04-24T12:12:07.944Z</time></trkpt><trkpt lat="34.3980717" lon="7.9662483"><ele>344.5</ele><time>2026-04-24T12:12:08.944Z</time></trkpt><trkpt lat="34.3981" lon="7.9661467"><ele>345.6666666666667</ele><time>2026-04-24T12:12:09.944Z</time></trkpt><trkpt lat="34.398135" lon="7.9660517"><ele>346.8333333333333</ele><time>2026-04-24T12:12:10.944Z</time></trkpt><trkpt lat="34.3981717" lon="7.9659583"><ele>348.0</ele><time>2026-04-24T12:12:11.944Z</time></trkpt><trkpt lat="34.3982117" lon="7.965885"><ele>348.8333333333333</ele><time>2026-04-24T12:12:12.944Z</time></trkpt><trkpt lat="34.3982517" lon="7.9658067"><ele>349.6666666666667</ele><time>2026-04-24T12:12:13.944Z</time></trkpt><trkpt lat="34.3982983" lon="7.9657233"><ele>350.5</ele><time>2026-04-24T12:12:14.943Z</time></trkpt><trkpt lat="34.398345" lon="7.9656317"><ele>351.33333333333337</ele><time>2026-04-24T12:12:15.944Z</time></trkpt><trkpt lat="34.3983917" lon="7.965535"><ele>352.1666666666667</ele><time>2026-04-24T12:12:16.943Z</time></trkpt><trkpt lat="34.3984283" lon="7.9654383"><ele>353.0</ele><time>2026-04-24T12:12:17.944Z</time></trkpt><trkpt lat="34.3984583" lon="7.9653417"><ele>353.0</ele><time>2026-04-24T12:12:18.943Z</time></trkpt><trkpt lat="34.39849" lon="7.9652517"><ele>353.0</ele><time>2026-04-24T12:12:19.944Z</time></trkpt><trkpt lat="34.3985317" lon="7.9651567"><ele>353.0</ele><time>2026-04-24T12:12:20.943Z</time></trkpt><trkpt lat="34.3985717" lon="7.9650617"><ele>353.0</ele><time>2026-04-24T12:12:21.944Z</time></trkpt><trkpt lat="34.3986067" lon="7.9649717"><ele>353.0</ele><time>2026-04-24T12:12:22.944Z</time></trkpt><trkpt lat="34.3986333" lon="7.964875"><ele>353.0</ele><time>2026-04-24T12:12:23.944Z</time></trkpt><trkpt lat="34.3986567" lon="7.9647833"><ele>353.33333333333337</ele><time>2026-04-24T12:12:24.944Z</time></trkpt><trkpt lat="34.3986767" lon="7.9646833"><ele>353.6666666666667</ele><time>2026-04-24T12:12:25.944Z</time></trkpt><trkpt lat="34.3986967" lon="7.9645867"><ele>354.0</ele><time>2026-04-24T12:12:26.944Z</time></trkpt><trkpt lat="34.3987067" lon="7.9644867"><ele>354.3333333333333</ele><time>2026-04-24T12:12:27.944Z</time></trkpt><trkpt lat="34.3987183" lon="7.9643767"><ele>354.66666666666663</ele><time>2026-04-24T12:12:28.944Z</time></trkpt><trkpt lat="34.3987267" lon="7.9642683"><ele>355.0</ele><time>2026-04-24T12:12:29.944Z</time></trkpt><trkpt lat="34.398735" lon="7.9641683"><ele>355.16666666666663</ele><time>2026-04-24T12:12:30.944Z</time></trkpt><trkpt lat="34.3987483" lon="7.9640617"><ele>355.3333333333333</ele><time>2026-04-24T12:12:31.944Z</time></trkpt><trkpt lat="34.3987667" lon="7.96396"><ele>355.5</ele><time>2026-04-24T12:12:32.944Z</time></trkpt><trkpt lat="34.3988017" lon="7.9638567"><ele>355.6666666666667</ele><time>2026-04-24T12:12:33.944Z</time></trkpt><trkpt lat="34.3988367" lon="7.963755"><ele>355.83333333333337</ele><time>2026-04-24T12:12:34.943Z</time></trkpt><trkpt lat="34.3988767" lon="7.9636583"><ele>356.0</ele><time>2026-04-24T12:12:35.944Z</time></trkpt><trkpt lat="34.3989183" lon="7.9635633"><ele>356.33333333333337</ele><time>2026-04-24T12:12:36.944Z</time></trkpt><trkpt lat="34.3989567" lon="7.9634717"><ele>356.6666666666667</ele><time>2026-04-24T12:12:37.944Z</time></trkpt><trkpt lat="34.3989967" lon="7.9633733"><ele>357.0</ele><time>2026-04-24T12:12:38.944Z</time></trkpt><trkpt lat="34.3990383" lon="7.963275"><ele>357.3333333333333</ele><time>2026-04-24T12:12:39.943Z</time></trkpt><trkpt lat="34.3990717" lon="7.963175"><ele>357.66666666666663</ele><time>2026-04-24T12:12:40.944Z</time></trkpt><trkpt lat="34.3991133" lon="7.9630783"><ele>358.0</ele><time>2026-04-24T12:12:41.944Z</time></trkpt><trkpt lat="34.3991517" lon="7.962985"><ele>358.2</ele><time>2026-04-24T12:12:42.943Z</time></trkpt><trkpt lat="34.39918" lon="7.9628817"><ele>358.4</ele><time>2026-04-24T12:12:43.944Z</time></trkpt><trkpt lat="34.3992" lon="7.9627783"><ele>358.59999999999997</ele><time>2026-04-24T12:12:44.944Z</time></trkpt><trkpt lat="34.3992167" lon="7.96267"><ele>358.79999999999995</ele><time>2026-04-24T12:12:45.944Z</time></trkpt><trkpt lat="34.3992317" lon="7.9625483"><ele>359.0</ele><time>2026-04-24T12:12:46.944Z</time></trkpt><trkpt lat="34.399255" lon="7.9624283"><ele>359.1666666666667</ele><time>2026-04-24T12:12:47.944Z</time></trkpt><trkpt lat="34.3992767" lon="7.96231"><ele>359.33333333333337</ele><time>2026-04-24T12:12:48.943Z</time></trkpt><trkpt lat="34.3992883" lon="7.9621883"><ele>359.5</ele><time>2026-04-24T12:12:49.944Z</time></trkpt><trkpt lat="34.3993" lon="7.9620783"><ele>359.6666666666667</ele><time>2026-04-24T12:12:50.943Z</time></trkpt><trkpt lat="34.3993117" lon="7.961985"><ele>359.8333333333333</ele><time>2026-04-24T12:12:51.944Z</time></trkpt><trkpt lat="34.3993217" lon="7.9619083"><ele>360.0</ele><time>2026-04-24T12:12:52.944Z</time></trkpt><trkpt lat="34.3993367" lon="7.96183"><ele>360.0</ele><time>2026-04-24T12:12:53.944Z</time></trkpt><trkpt lat="34.3993683" lon="7.96175"><ele>360.0</ele><time>2026-04-24T12:12:54.944Z</time></trkpt><trkpt lat="34.3994017" lon="7.96168"><ele>360.0</ele><time>2026-04-24T12:12:55.943Z</time></trkpt><trkpt lat="34.3994483" lon="7.9616083"><ele>360.0</ele><time>2026-04-24T12:12:56.944Z</time></trkpt><trkpt lat="34.3994983" lon="7.9615467"><ele>360.0</ele><time>2026-04-24T12:12:57.944Z</time></trkpt><trkpt lat="34.39954" lon="7.9614867"><ele>360.0</ele><time>2026-04-24T12:12:58.944Z</time></trkpt><trkpt lat="34.39959" lon="7.96135"><ele>361.0</ele><time>2026-04-24T12:13:00.943Z</time></trkpt><trkpt lat="34.4004867" lon="7.9578617"><ele>359.3333333333333</ele><time>2026-04-24T12:13:23.942Z</time></trkpt><trkpt lat="34.4005617" lon="7.95768"><ele>357.6666666666667</ele><time>2026-04-24T12:13:24.942Z</time></trkpt><trkpt lat="34.4006417" lon="7.9574983"><ele>356.0</ele><time>2026-04-24T12:13:25.943Z</time></trkpt><trkpt lat="34.4007217" lon="7.9573067"><ele>356.0</ele><time>2026-04-24T12:13:26.943Z</time></trkpt><trkpt lat="34.4008017" lon="7.9571133"><ele>356.0</ele><time>2026-04-24T12:13:27.943Z</time></trkpt><trkpt lat="34.40089" lon="7.95692"><ele>356.0</ele><time>2026-04-24T12:13:28.943Z</time></trkpt><trkpt lat="34.4009717" lon="7.9567267"><ele>355.33333333333337</ele><time>2026-04-24T12:13:29.943Z</time></trkpt><trkpt lat="34.40106" lon="7.9565333"><ele>354.6666666666667</ele><time>2026-04-24T12:13:30.943Z</time></trkpt><trkpt lat="34.4011483" lon="7.9563417"><ele>354.0</ele><time>2026-04-24T12:13:31.943Z</time></trkpt><trkpt lat="34.401235" lon="7.9561467"><ele>354.0</ele><time>2026-04-24T12:13:32.943Z</time></trkpt><trkpt lat="34.40132" lon="7.9559483"><ele>354.0</ele><time>2026-04-24T12:13:33.943Z</time></trkpt><trkpt lat="34.4014067" lon="7.9557533"><ele>354.0</ele><time>2026-04-24T12:13:34.943Z</time></trkpt><trkpt lat="34.401495" lon="7.9555583"><ele>352.3333333333333</ele><time>2026-04-24T12:13:35.943Z</time></trkpt><trkpt lat="34.4015833" lon="7.9553633"><ele>350.66666666666663</ele><time>2026-04-24T12:13:36.943Z</time></trkpt><trkpt lat="34.40167" lon="7.9551633"><ele>349.0</ele><time>2026-04-24T12:13:37.943Z</time></trkpt><trkpt lat="34.4017667" lon="7.954975"><ele>348.3333333333333</ele><time>2026-04-24T12:13:38.942Z</time></trkpt><trkpt lat="34.4018667" lon="7.9547817"><ele>347.6666666666667</ele><time>2026-04-24T12:13:39.943Z</time></trkpt><trkpt lat="34.40197" lon="7.9545967"><ele>347.0</ele><time>2026-04-24T12:13:40.943Z</time></trkpt><trkpt lat="34.4020833" lon="7.9544233"><ele>346.0</ele><time>2026-04-24T12:13:41.942Z</time></trkpt><trkpt lat="34.4022017" lon="7.9542367"><ele>345.0</ele><time>2026-04-24T12:13:42.943Z</time></trkpt><trkpt lat="34.4024367" lon="7.9538867"><ele>345.0</ele><time>2026-04-24T12:13:44.942Z</time></trkpt><trkpt lat="34.40255" lon="7.953705"><ele>345.0</ele><time>2026-04-24T12:13:45.943Z</time></trkpt><trkpt lat="34.4026767" lon="7.953525"><ele>345.0</ele><time>2026-04-24T12:13:46.943Z</time></trkpt><trkpt lat="34.4028067" lon="7.9533483"><ele>344.6666666666667</ele><time>2026-04-24T12:13:47.943Z</time></trkpt><trkpt lat="34.4029333" lon="7.95317"><ele>344.33333333333337</ele><time>2026-04-24T12:13:48.943Z</time></trkpt><trkpt lat="34.4030667" lon="7.9529917"><ele>344.0</ele><time>2026-04-24T12:13:49.943Z</time></trkpt><trkpt lat="34.4031983" lon="7.9528183"><ele>342.0</ele><time>2026-04-24T12:13:50.943Z</time></trkpt><trkpt lat="34.4033333" lon="7.9526417"><ele>340.0</ele><time>2026-04-24T12:13:51.943Z</time></trkpt><trkpt lat="34.4034667" lon="7.952465"><ele>338.0</ele><time>2026-04-24T12:13:52.943Z</time></trkpt><trkpt lat="34.4035967" lon="7.9522867"><ele>337.6666666666667</ele><time>2026-04-24T12:13:53.943Z</time></trkpt><trkpt lat="34.4037267" lon="7.952115"><ele>337.3333333333333</ele><time>2026-04-24T12:13:54.943Z</time></trkpt><trkpt lat="34.4038567" lon="7.9519467"><ele>337.0</ele><time>2026-04-24T12:13:55.942Z</time></trkpt><trkpt lat="34.4039817" lon="7.9517783"><ele>336.3333333333333</ele><time>2026-04-24T12:13:56.942Z</time></trkpt><trkpt lat="34.4041067" lon="7.9516133"><ele>335.6666666666667</ele><time>2026-04-24T12:13:57.943Z</time></trkpt><trkpt lat="34.404225" lon="7.9514517"><ele>335.0</ele><time>2026-04-24T12:13:58.943Z</time></trkpt><trkpt lat="34.404345" lon="7.9512867"><ele>335.0</ele><time>2026-04-24T12:13:59.943Z</time></trkpt><trkpt lat="34.4044667" lon="7.951125"><ele>335.0</ele><time>2026-04-24T12:14:00.943Z</time></trkpt><trkpt lat="34.4045867" lon="7.950965"><ele>335.0</ele><time>2026-04-24T12:14:01.942Z</time></trkpt><trkpt lat="34.4047133" lon="7.9508033"><ele>334.5</ele><time>2026-04-24T12:14:02.943Z</time></trkpt><trkpt lat="34.4048383" lon="7.95064"><ele>334.0</ele><time>2026-04-24T12:14:03.943Z</time></trkpt><trkpt lat="34.4050833" lon="7.9503067"><ele>334.0</ele><time>2026-04-24T12:14:05.943Z</time></trkpt><trkpt lat="34.405205" lon="7.9501417"><ele>334.0</ele><time>2026-04-24T12:14:06.943Z</time></trkpt><trkpt lat="34.4053283" lon="7.9499733"><ele>334.0</ele><time>2026-04-24T12:14:07.943Z</time></trkpt><trkpt lat="34.4054483" lon="7.9498067"><ele>335.3333333333333</ele><time>2026-04-24T12:14:08.943Z</time></trkpt><trkpt lat="34.4055733" lon="7.9496283"><ele>336.6666666666667</ele><time>2026-04-24T12:14:09.943Z</time></trkpt><trkpt lat="34.4057017" lon="7.9494517"><ele>338.0</ele><time>2026-04-24T12:14:10.943Z</time></trkpt><trkpt lat="34.40583" lon="7.9492767"><ele>338.0</ele><time>2026-04-24T12:14:11.943Z</time></trkpt><trkpt lat="34.40596" lon="7.9490883"><ele>338.0</ele><time>2026-04-24T12:14:12.942Z</time></trkpt><trkpt lat="34.4060717" lon="7.9488983"><ele>338.0</ele><time>2026-04-24T12:14:13.943Z</time></trkpt><trkpt lat="34.40617" lon="7.9487033"><ele>338.0</ele><time>2026-04-24T12:14:14.942Z</time></trkpt><trkpt lat="34.4062517" lon="7.94849"><ele>338.0</ele><time>2026-04-24T12:14:15.943Z</time></trkpt><trkpt lat="34.4063233" lon="7.9482833"><ele>338.0</ele><time>2026-04-24T12:14:16.943Z</time></trkpt><trkpt lat="34.4063733" lon="7.948075"><ele>341.0</ele><time>2026-04-24T12:14:17.943Z</time></trkpt><trkpt lat="34.4064" lon="7.94785"><ele>344.0</ele><time>2026-04-24T12:14:18.942Z</time></trkpt><trkpt lat="34.4064133" lon="7.9476417"><ele>347.0</ele><time>2026-04-24T12:14:19.943Z</time></trkpt><trkpt lat="34.40644" lon="7.9474233"><ele>349.0</ele><time>2026-04-24T12:14:20.943Z</time></trkpt><trkpt lat="34.4064633" lon="7.947205"><ele>351.0</ele><time>2026-04-24T12:14:21.943Z</time></trkpt><trkpt lat="34.4065083" lon="7.94699"><ele>353.0</ele><time>2026-04-24T12:14:22.943Z</time></trkpt><trkpt lat="34.40655" lon="7.9467767"><ele>355.5</ele><time>2026-04-24T12:14:23.943Z</time></trkpt><trkpt lat="34.40658" lon="7.9465633"><ele>358.0</ele><time>2026-04-24T12:14:24.943Z</time></trkpt><trkpt lat="34.4065717" lon="7.9461533"><ele>358.0</ele><time>2026-04-24T12:14:26.942Z</time></trkpt><trkpt lat="34.406535" lon="7.9459633"><ele>358.0</ele><time>2026-04-24T12:14:27.943Z</time></trkpt><trkpt lat="34.4064783" lon="7.9457783"><ele>358.0</ele><time>2026-04-24T12:14:28.943Z</time></trkpt><trkpt lat="34.4064317" lon="7.9455917"><ele>359.3333333333333</ele><time>2026-04-24T12:14:29.942Z</time></trkpt><trkpt lat="34.4063817" lon="7.9454033"><ele>360.6666666666667</ele><time>2026-04-24T12:14:30.943Z</time></trkpt><trkpt lat="34.4063383" lon="7.9452117"><ele>362.0</ele><time>2026-04-24T12:14:31.943Z</time></trkpt><trkpt lat="34.4063117" lon="7.9450083"><ele>362.0</ele><time>2026-04-24T12:14:32.943Z</time></trkpt><trkpt lat="34.4063233" lon="7.944805"><ele>362.0</ele><time>2026-04-24T12:14:33.943Z</time></trkpt><trkpt lat="34.406365" lon="7.944605"><ele>362.0</ele><time>2026-04-24T12:14:34.943Z</time></trkpt><trkpt lat="34.40643" lon="7.9444183"><ele>361.6666666666667</ele><time>2026-04-24T12:14:35.943Z</time></trkpt><trkpt lat="34.4065033" lon="7.9442383"><ele>361.3333333333333</ele><time>2026-04-24T12:14:36.943Z</time></trkpt><trkpt lat="34.4065717" lon="7.9440667"><ele>361.0</ele><time>2026-04-24T12:14:37.943Z</time></trkpt><trkpt lat="34.4066283" lon="7.9438783"><ele>360.0</ele><time>2026-04-24T12:14:38.942Z</time></trkpt><trkpt lat="34.40668" lon="7.9437017"><ele>359.0</ele><time>2026-04-24T12:14:39.943Z</time></trkpt><trkpt lat="34.4067283" lon="7.9435333"><ele>358.0</ele><time>2026-04-24T12:14:40.943Z</time></trkpt><trkpt lat="34.4067617" lon="7.94337"><ele>357.0</ele><time>2026-04-24T12:14:41.943Z</time></trkpt><trkpt lat="34.4068017" lon="7.9432033"><ele>357.0</ele><time>2026-04-24T12:14:42.943Z</time></trkpt><trkpt lat="34.406845" lon="7.94305"><ele>357.0</ele><time>2026-04-24T12:14:43.943Z</time></trkpt><trkpt lat="34.4069117" lon="7.9428917"><ele>357.0</ele><time>2026-04-24T12:14:44.943Z</time></trkpt><trkpt lat="34.40699" lon="7.9427433"><ele>357.0</ele><time>2026-04-24T12:14:45.943Z</time></trkpt><trkpt lat="34.407185" lon="7.94249"><ele>358.5</ele><time>2026-04-24T12:14:47.942Z</time></trkpt><trkpt lat="34.407295" lon="7.9423767"><ele>360.0</ele><time>2026-04-24T12:14:48.942Z</time></trkpt><trkpt lat="34.4074217" lon="7.9422817"><ele>361.5</ele><time>2026-04-24T12:14:49.943Z</time></trkpt><trkpt lat="34.4075517" lon="7.94219"><ele>363.0</ele><time>2026-04-24T12:14:50.943Z</time></trkpt><trkpt lat="34.40769" lon="7.9421033"><ele>363.0</ele><time>2026-04-24T12:14:51.942Z</time></trkpt><trkpt lat="34.40784" lon="7.9420133"><ele>363.0</ele><time>2026-04-24T12:14:52.943Z</time></trkpt><trkpt lat="34.40799" lon="7.9419333"><ele>363.0</ele><time>2026-04-24T12:14:53.943Z</time></trkpt><trkpt lat="34.408145" lon="7.9418483"><ele>364.0</ele><time>2026-04-24T12:14:54.943Z</time></trkpt><trkpt lat="34.40831" lon="7.9417767"><ele>365.0</ele><time>2026-04-24T12:14:55.942Z</time></trkpt><trkpt lat="34.408475" lon="7.9417067"><ele>366.0</ele><time>2026-04-24T12:14:56.943Z</time></trkpt><trkpt lat="34.4086483" lon="7.9416383"><ele>366.0</ele><time>2026-04-24T12:14:57.943Z</time></trkpt><trkpt lat="34.4088217" lon="7.9415633"><ele>366.0</ele><time>2026-04-24T12:14:58.943Z</time></trkpt><trkpt lat="34.4089867" lon="7.9414883"><ele>366.0</ele><time>2026-04-24T12:14:59.942Z</time></trkpt><trkpt lat="34.4091533" lon="7.9414133"><ele>367.6666666666667</ele><time>2026-04-24T12:15:00.943Z</time></trkpt><trkpt lat="34.409315" lon="7.9413267"><ele>369.33333333333337</ele><time>2026-04-24T12:15:01.943Z</time></trkpt><trkpt lat="34.4094783" lon="7.9412283"><ele>371.0</ele><time>2026-04-24T12:15:02.942Z</time></trkpt><trkpt lat="34.4096367" lon="7.9411133"><ele>371.33333333333337</ele><time>2026-04-24T12:15:03.942Z</time></trkpt><trkpt lat="34.4097933" lon="7.9409867"><ele>371.6666666666667</ele><time>2026-04-24T12:15:04.943Z</time></trkpt><trkpt lat="34.4099417" lon="7.9408367"><ele>372.0</ele><time>2026-04-24T12:15:05.943Z</time></trkpt><trkpt lat="34.4100717" lon="7.9406767"><ele>372.0</ele><time>2026-04-24T12:15:06.943Z</time></trkpt><trkpt lat="34.410315" lon="7.9403367"><ele>372.0</ele><time>2026-04-24T12:15:08.943Z</time></trkpt><trkpt lat="34.4104067" lon="7.9401583"><ele>372.3333333333333</ele><time>2026-04-24T12:15:09.943Z</time></trkpt><trkpt lat="34.4104917" lon="7.9399717"><ele>372.66666666666663</ele><time>2026-04-24T12:15:10.942Z</time></trkpt><trkpt lat="34.41057" lon="7.9397767"><ele>373.0</ele><time>2026-04-24T12:15:11.942Z</time></trkpt><trkpt lat="34.410635" lon="7.93958"><ele>373.0</ele><time>2026-04-24T12:15:12.943Z</time></trkpt><trkpt lat="34.410685" lon="7.9393667"><ele>373.0</ele><time>2026-04-24T12:15:13.943Z</time></trkpt><trkpt lat="34.41073" lon="7.939155"><ele>373.0</ele><time>2026-04-24T12:15:14.943Z</time></trkpt><trkpt lat="34.4107833" lon="7.9389433"><ele>371.66666666666663</ele><time>2026-04-24T12:15:15.943Z</time></trkpt><trkpt lat="34.410825" lon="7.93873"><ele>370.3333333333333</ele><time>2026-04-24T12:15:16.943Z</time></trkpt><trkpt lat="34.4108733" lon="7.9385283"><ele>369.0</ele><time>2026-04-24T12:15:17.943Z</time></trkpt><trkpt lat="34.4109083" lon="7.9383183"><ele>368.6666666666667</ele><time>2026-04-24T12:15:18.943Z</time></trkpt><trkpt lat="34.4109483" lon="7.9381067"><ele>368.33333333333337</ele><time>2026-04-24T12:15:19.943Z</time></trkpt><trkpt lat="34.4109867" lon="7.937895"><ele>368.0</ele><time>2026-04-24T12:15:20.942Z</time></trkpt><trkpt lat="34.411025" lon="7.937695"><ele>369.6666666666667</ele><time>2026-04-24T12:15:21.943Z</time></trkpt><trkpt lat="34.41107" lon="7.9375"><ele>371.3333333333333</ele><time>2026-04-24T12:15:22.943Z</time></trkpt><trkpt lat="34.411125" lon="7.9373017"><ele>373.0</ele><time>2026-04-24T12:15:23.942Z</time></trkpt><trkpt lat="34.4111883" lon="7.9371"><ele>373.0</ele><time>2026-04-24T12:15:24.942Z</time></trkpt><trkpt lat="34.4112667" lon="7.9368983"><ele>373.0</ele><time>2026-04-24T12:15:25.943Z</time></trkpt><trkpt lat="34.4113533" lon="7.9367083"><ele>373.0</ele><time>2026-04-24T12:15:26.942Z</time></trkpt><trkpt lat="34.4114467" lon="7.936525"><ele>375.0</ele><time>2026-04-24T12:15:27.942Z</time></trkpt><trkpt lat="34.4116367" lon="7.9361483"><ele>377.0</ele><time>2026-04-24T12:15:29.943Z</time></trkpt><trkpt lat="34.4117233" lon="7.935965"><ele>378.33333333333337</ele><time>2026-04-24T12:15:30.943Z</time></trkpt><trkpt lat="34.4118033" lon="7.9357767"><ele>379.6666666666667</ele><time>2026-04-24T12:15:31.943Z</time></trkpt><trkpt lat="34.411865" lon="7.9355767"><ele>381.0</ele><time>2026-04-24T12:15:32.943Z</time></trkpt><trkpt lat="34.4119083" lon="7.9353683"><ele>381.0</ele><time>2026-04-24T12:15:33.943Z</time></trkpt><trkpt lat="34.4119483" lon="7.935155"><ele>381.0</ele><time>2026-04-24T12:15:34.943Z</time></trkpt><trkpt lat="34.41198" lon="7.9349417"><ele>381.0</ele><time>2026-04-24T12:15:35.942Z</time></trkpt><trkpt lat="34.4119933" lon="7.93472"><ele>382.0</ele><time>2026-04-24T12:15:36.943Z</time></trkpt><trkpt lat="34.4119983" lon="7.934505"><ele>383.0</ele><time>2026-04-24T12:15:37.942Z</time></trkpt><trkpt lat="34.411995" lon="7.934295"><ele>384.0</ele><time>2026-04-24T12:15:38.943Z</time></trkpt><trkpt lat="34.411995" lon="7.9340883"><ele>384.66666666666663</ele><time>2026-04-24T12:15:39.943Z</time></trkpt><trkpt lat="34.4119983" lon="7.93389"><ele>385.3333333333333</ele><time>2026-04-24T12:15:40.943Z</time></trkpt><trkpt lat="34.4119867" lon="7.9336917"><ele>386.0</ele><time>2026-04-24T12:15:41.942Z</time></trkpt><trkpt lat="34.411975" lon="7.9335017"><ele>387.0</ele><time>2026-04-24T12:15:42.942Z</time></trkpt><trkpt lat="34.4119667" lon="7.9333083"><ele>388.0</ele><time>2026-04-24T12:15:43.943Z</time></trkpt><trkpt lat="34.4119683" lon="7.9331183"><ele>389.0</ele><time>2026-04-24T12:15:44.943Z</time></trkpt><trkpt lat="34.4119767" lon="7.93294"><ele>389.0</ele><time>2026-04-24T12:15:45.943Z</time></trkpt><trkpt lat="34.4119833" lon="7.9327667"><ele>389.0</ele><time>2026-04-24T12:15:46.943Z</time></trkpt><trkpt lat="34.4119933" lon="7.9325917"><ele>389.0</ele><time>2026-04-24T12:15:47.943Z</time></trkpt><trkpt lat="34.4120033" lon="7.9324167"><ele>389.0</ele><time>2026-04-24T12:15:48.943Z</time></trkpt><trkpt lat="34.41202" lon="7.9320783"><ele>389.5</ele><time>2026-04-24T12:15:50.943Z</time></trkpt><trkpt lat="34.4120233" lon="7.93191"><ele>390.0</ele><time>2026-04-24T12:15:51.942Z</time></trkpt><trkpt lat="34.4120333" lon="7.93174"><ele>390.5</ele><time>2026-04-24T12:15:52.943Z</time></trkpt><trkpt lat="34.412035" lon="7.93157"><ele>391.0</ele><time>2026-04-24T12:15:53.942Z</time></trkpt><trkpt lat="34.4120267" lon="7.9314067"><ele>391.5</ele><time>2026-04-24T12:15:54.943Z</time></trkpt><trkpt lat="34.4120183" lon="7.9312383"><ele>392.0</ele><time>2026-04-24T12:15:55.943Z</time></trkpt><trkpt lat="34.412015" lon="7.9310683"><ele>392.5</ele><time>2026-04-24T12:15:56.943Z</time></trkpt><trkpt lat="34.412015" lon="7.930915"><ele>393.0</ele><time>2026-04-24T12:15:57.943Z</time></trkpt><trkpt lat="34.4120083" lon="7.9307717"><ele>393.0</ele><time>2026-04-24T12:15:58.943Z</time></trkpt><trkpt lat="34.4120067" lon="7.9306417"><ele>393.0</ele><time>2026-04-24T12:15:59.942Z</time></trkpt><trkpt lat="34.4120067" lon="7.9305133"><ele>393.0</ele><time>2026-04-24T12:16:00.942Z</time></trkpt><trkpt lat="34.4120017" lon="7.9303867"><ele>393.0</ele><time>2026-04-24T12:16:01.943Z</time></trkpt><trkpt lat="34.4119983" lon="7.9302567"><ele>393.0</ele><time>2026-04-24T12:16:02.943Z</time></trkpt><trkpt lat="34.4119917" lon="7.9301267"><ele>392.75</ele><time>2026-04-24T12:16:03.943Z</time></trkpt><trkpt lat="34.4119833" lon="7.9299967"><ele>392.5</ele><time>2026-04-24T12:16:04.943Z</time></trkpt><trkpt lat="34.4119767" lon="7.92986"><ele>392.25</ele><time>2026-04-24T12:16:05.943Z</time></trkpt><trkpt lat="34.4119583" lon="7.92972"><ele>392.0</ele><time>2026-04-24T12:16:06.943Z</time></trkpt><trkpt lat="34.4119367" lon="7.9295783"><ele>392.0</ele><time>2026-04-24T12:16:07.943Z</time></trkpt><trkpt lat="34.41191" lon="7.9294333"><ele>392.0</ele><time>2026-04-24T12:16:08.943Z</time></trkpt><trkpt lat="34.41188" lon="7.9292867"><ele>392.0</ele><time>2026-04-24T12:16:09.943Z</time></trkpt><trkpt lat="34.411815" lon="7.9290067"><ele>391.25</ele><time>2026-04-24T12:16:11.943Z</time></trkpt><trkpt lat="34.411775" lon="7.92886"><ele>390.5</ele><time>2026-04-24T12:16:12.943Z</time></trkpt><trkpt lat="34.4117317" lon="7.92872"><ele>389.75</ele><time>2026-04-24T12:16:13.943Z</time></trkpt><trkpt lat="34.4116933" lon="7.9285767"><ele>389.0</ele><time>2026-04-24T12:16:14.943Z</time></trkpt><trkpt lat="34.4116567" lon="7.92844"><ele>388.25</ele><time>2026-04-24T12:16:15.943Z</time></trkpt><trkpt lat="34.4116117" lon="7.9283067"><ele>387.5</ele><time>2026-04-24T12:16:16.943Z</time></trkpt><trkpt lat="34.4115667" lon="7.9281783"><ele>386.75</ele><time>2026-04-24T12:16:17.943Z</time></trkpt><trkpt lat="34.4115267" lon="7.9280533"><ele>386.0</ele><time>2026-04-24T12:16:18.942Z</time></trkpt><trkpt lat="34.4114917" lon="7.92793"><ele>386.0</ele><time>2026-04-24T12:16:19.943Z</time></trkpt><trkpt lat="34.4114617" lon="7.927805"><ele>386.0</ele><time>2026-04-24T12:16:20.943Z</time></trkpt><trkpt lat="34.41143" lon="7.927675"><ele>386.0</ele><time>2026-04-24T12:16:21.943Z</time></trkpt><trkpt lat="34.4113967" lon="7.9275417"><ele>386.0</ele><time>2026-04-24T12:16:22.942Z</time></trkpt><trkpt lat="34.4113683" lon="7.9274083"><ele>386.0</ele><time>2026-04-24T12:16:23.943Z</time></trkpt><trkpt lat="34.4113433" lon="7.92727"><ele>383.0</ele><time>2026-04-24T12:16:24.943Z</time></trkpt></trkseg><trkseg><trkpt lat="34.4071983" lon="7.9169433"><ele>357.0</ele><time>2026-04-24T12:30:06.947Z</time></trkpt><trkpt lat="34.4072167" lon="7.9170183"><ele>357.0</ele><time>2026-04-24T12:30:09.947Z</time></trkpt><trkpt lat="34.4073017" lon="7.9171"><ele>357.0</ele><time>2026-04-24T12:30:38.947Z</time></trkpt><trkpt lat="34.40736" lon="7.917205"><ele>357.0</ele><time>2026-04-24T12:30:40.947Z</time></trkpt><trkpt lat="34.407395" lon="7.9173533"><ele>357.0</ele><time>2026-04-24T12:30:42.947Z</time></trkpt><trkpt lat="34.407385" lon="7.9174433"><ele>357.0</ele><time>2026-04-24T12:30:43.946Z</time></trkpt><trkpt lat="34.4073683" lon="7.917525"><ele>357.0</ele><time>2026-04-24T12:30:44.947Z</time></trkpt><trkpt lat="34.4073617" lon="7.9176067"><ele>357.0</ele><time>2026-04-24T12:30:45.946Z</time></trkpt><trkpt lat="34.4073433" lon="7.9176933"><ele>357.0</ele><time>2026-04-24T12:30:46.946Z</time></trkpt><trkpt lat="34.4073267" lon="7.9177867"><ele>357.0</ele><time>2026-04-24T12:30:47.946Z</time></trkpt><trkpt lat="34.4073117" lon="7.91789"><ele>357.0</ele><time>2026-04-24T12:30:48.947Z</time></trkpt><trkpt lat="34.4072967" lon="7.91799"><ele>357.3333333333333</ele><time>2026-04-24T12:30:49.947Z</time></trkpt><trkpt lat="34.40729" lon="7.9180967"><ele>357.6666666666667</ele><time>2026-04-24T12:30:50.947Z</time></trkpt><trkpt lat="34.4072833" lon="7.918195"><ele>358.0</ele><time>2026-04-24T12:30:51.947Z</time></trkpt><trkpt lat="34.4072833" lon="7.918295"><ele>358.33333333333337</ele><time>2026-04-24T12:30:52.947Z</time></trkpt><trkpt lat="34.4072683" lon="7.9183817"><ele>358.6666666666667</ele><time>2026-04-24T12:30:53.947Z</time></trkpt><trkpt lat="34.407245" lon="7.9184733"><ele>359.0</ele><time>2026-04-24T12:30:54.947Z</time></trkpt><trkpt lat="34.4072083" lon="7.9185617"><ele>358.6666666666667</ele><time>2026-04-24T12:30:55.947Z</time></trkpt><trkpt lat="34.40718" lon="7.91864"><ele>358.33333333333337</ele><time>2026-04-24T12:30:56.947Z</time></trkpt><trkpt lat="34.4071583" lon="7.91872"><ele>358.0</ele><time>2026-04-24T12:30:57.947Z</time></trkpt><trkpt lat="34.4071467" lon="7.9187967"><ele>357.6666666666667</ele><time>2026-04-24T12:30:58.947Z</time></trkpt><trkpt lat="34.4071217" lon="7.918925"><ele>357.3333333333333</ele><time>2026-04-24T12:31:00.947Z</time></trkpt><trkpt lat="34.4071133" lon="7.9190267"><ele>357.0</ele><time>2026-04-24T12:31:02.946Z</time></trkpt><trkpt lat="34.4070983" lon="7.9191333"><ele>357.5</ele><time>2026-04-24T12:31:04.947Z</time></trkpt><trkpt lat="34.4070933" lon="7.9192633"><ele>358.0</ele><time>2026-04-24T12:31:06.947Z</time></trkpt><trkpt lat="34.4070967" lon="7.9193433"><ele>358.5</ele><time>2026-04-24T12:31:07.947Z</time></trkpt><trkpt lat="34.4071" lon="7.919425"><ele>359.0</ele><time>2026-04-24T12:31:08.947Z</time></trkpt><trkpt lat="34.4071067" lon="7.919515"><ele>359.5</ele><time>2026-04-24T12:31:09.947Z</time></trkpt><trkpt lat="34.40711" lon="7.919605"><ele>360.0</ele><time>2026-04-24T12:31:10.947Z</time></trkpt><trkpt lat="34.4071117" lon="7.9197017"><ele>360.0</ele><time>2026-04-24T12:31:11.946Z</time></trkpt><trkpt lat="34.4071033" lon="7.9198067"><ele>360.0</ele><time>2026-04-24T12:31:12.947Z</time></trkpt><trkpt lat="34.407095" lon="7.919915"><ele>360.0</ele><time>2026-04-24T12:31:13.947Z</time></trkpt><trkpt lat="34.40709" lon="7.9200167"><ele>360.0</ele><time>2026-04-24T12:31:14.947Z</time></trkpt><trkpt lat="34.4070883" lon="7.9201117"><ele>360.0</ele><time>2026-04-24T12:31:15.947Z</time></trkpt><trkpt lat="34.4070883" lon="7.9202067"><ele>360.0</ele><time>2026-04-24T12:31:16.947Z</time></trkpt><trkpt lat="34.4070933" lon="7.92029"><ele>359.8</ele><time>2026-04-24T12:31:17.947Z</time></trkpt><trkpt lat="34.40713" lon="7.9204233"><ele>359.6</ele><time>2026-04-24T12:31:19.947Z</time></trkpt><trkpt lat="34.407195" lon="7.92051"><ele>359.4</ele><time>2026-04-24T12:31:21.946Z</time></trkpt><trkpt lat="34.40731" lon="7.9205533"><ele>359.2</ele><time>2026-04-24T12:31:23.947Z</time></trkpt><trkpt lat="34.4073783" lon="7.92057"><ele>359.0</ele><time>2026-04-24T12:31:24.946Z</time></trkpt><trkpt lat="34.4074633" lon="7.9205867"><ele>360.79999999999995</ele><time>2026-04-24T12:31:25.946Z</time></trkpt><trkpt lat="34.40756" lon="7.9206017"><ele>362.59999999999997</ele><time>2026-04-24T12:31:26.946Z</time></trkpt><trkpt lat="34.40766" lon="7.92062"><ele>364.4</ele><time>2026-04-24T12:31:27.946Z</time></trkpt><trkpt lat="34.4077583" lon="7.9206317"><ele>366.2</ele><time>2026-04-24T12:31:28.946Z</time></trkpt><trkpt lat="34.4078683" lon="7.9206433"><ele>368.0</ele><time>2026-04-24T12:31:29.947Z</time></trkpt><trkpt lat="34.4079867" lon="7.9206567"><ele>368.0</ele><time>2026-04-24T12:31:30.947Z</time></trkpt><trkpt lat="34.4081067" lon="7.9206633"><ele>368.0</ele><time>2026-04-24T12:31:31.947Z</time></trkpt><trkpt lat="34.4082233" lon="7.9206517"><ele>368.0</ele><time>2026-04-24T12:31:32.947Z</time></trkpt><trkpt lat="34.40834" lon="7.920645"><ele>368.0</ele><time>2026-04-24T12:31:33.947Z</time></trkpt><trkpt lat="34.4084533" lon="7.9206217"><ele>368.0</ele><time>2026-04-24T12:31:34.946Z</time></trkpt><trkpt lat="34.4085717" lon="7.920595"><ele>368.0</ele><time>2026-04-24T12:31:35.947Z</time></trkpt><trkpt lat="34.4086883" lon="7.9205767"><ele>368.0</ele><time>2026-04-24T12:31:36.947Z</time></trkpt><trkpt lat="34.4088233" lon="7.920565"><ele>368.0</ele><time>2026-04-24T12:31:37.946Z</time></trkpt><trkpt lat="34.40894" lon="7.92055"><ele>368.0</ele><time>2026-04-24T12:31:38.947Z</time></trkpt><trkpt lat="34.4090483" lon="7.920535"><ele>368.0</ele><time>2026-04-24T12:31:39.946Z</time></trkpt><trkpt lat="34.40916" lon="7.9205333"><ele>368.0</ele><time>2026-04-24T12:31:40.947Z</time></trkpt><trkpt lat="34.4092717" lon="7.9205167"><ele>368.0</ele><time>2026-04-24T12:31:41.946Z</time></trkpt><trkpt lat="34.40938" lon="7.9204933"><ele>368.0</ele><time>2026-04-24T12:31:42.947Z</time></trkpt><trkpt lat="34.4094883" lon="7.92047"><ele>368.0</ele><time>2026-04-24T12:31:43.947Z</time></trkpt><trkpt lat="34.409695" lon="7.92047"><ele>368.0</ele><time>2026-04-24T12:31:45.947Z</time></trkpt><trkpt lat="34.4097917" lon="7.9204867"><ele>368.0</ele><time>2026-04-24T12:31:46.947Z</time></trkpt><trkpt lat="34.4098817" lon="7.9205117"><ele>368.0</ele><time>2026-04-24T12:31:47.947Z</time></trkpt><trkpt lat="34.409975" lon="7.920545"><ele>368.0</ele><time>2026-04-24T12:31:48.947Z</time></trkpt><trkpt lat="34.4100617" lon="7.9205883"><ele>368.0</ele><time>2026-04-24T12:31:49.947Z</time></trkpt><trkpt lat="34.410145" lon="7.9206317"><ele>368.0</ele><time>2026-04-24T12:31:50.947Z</time></trkpt><trkpt lat="34.4102183" lon="7.9206733"><ele>368.0</ele><time>2026-04-24T12:31:51.946Z</time></trkpt><trkpt lat="34.410275" lon="7.92073"><ele>368.0</ele><time>2026-04-24T12:31:52.946Z</time></trkpt><trkpt lat="34.41032" lon="7.9208"><ele>368.0</ele><time>2026-04-24T12:31:53.947Z</time></trkpt><trkpt lat="34.4103483" lon="7.9208933"><ele>367.59999999999997</ele><time>2026-04-24T12:31:54.947Z</time></trkpt><trkpt lat="34.4103633" lon="7.9209917"><ele>367.2</ele><time>2026-04-24T12:31:55.947Z</time></trkpt><trkpt lat="34.4103783" lon="7.9211033"><ele>366.8</ele><time>2026-04-24T12:31:56.947Z</time></trkpt><trkpt lat="34.41039" lon="7.92122"><ele>366.4</ele><time>2026-04-24T12:31:57.947Z</time></trkpt><trkpt lat="34.4104033" lon="7.9213433"><ele>366.0</ele><time>2026-04-24T12:31:58.946Z</time></trkpt><trkpt lat="34.41042" lon="7.9214717"><ele>366.0</ele><time>2026-04-24T12:31:59.946Z</time></trkpt><trkpt lat="34.410435" lon="7.9216033"><ele>366.0</ele><time>2026-04-24T12:32:00.947Z</time></trkpt><trkpt lat="34.4104617" lon="7.9217383"><ele>366.0</ele><time>2026-04-24T12:32:01.947Z</time></trkpt><trkpt lat="34.4104867" lon="7.9218817"><ele>366.0</ele><time>2026-04-24T12:32:02.947Z</time></trkpt><trkpt lat="34.4105083" lon="7.9220217"><ele>367.75</ele><time>2026-04-24T12:32:03.946Z</time></trkpt><trkpt lat="34.4105333" lon="7.9221567"><ele>369.5</ele><time>2026-04-24T12:32:04.947Z</time></trkpt><trkpt lat="34.410555" lon="7.9222967"><ele>371.25</ele><time>2026-04-24T12:32:05.947Z</time></trkpt><trkpt lat="34.4105833" lon="7.9224317"><ele>373.0</ele><time>2026-04-24T12:32:06.947Z</time></trkpt><trkpt lat="34.410605" lon="7.92257"><ele>373.0</ele><time>2026-04-24T12:32:07.947Z</time></trkpt><trkpt lat="34.4106367" lon="7.9227017"><ele>373.0</ele><time>2026-04-24T12:32:08.947Z</time></trkpt><trkpt lat="34.4106633" lon="7.9228383"><ele>373.0</ele><time>2026-04-24T12:32:09.947Z</time></trkpt><trkpt lat="34.4106917" lon="7.9229733"><ele>373.0</ele><time>2026-04-24T12:32:10.946Z</time></trkpt><trkpt lat="34.410725" lon="7.9231167"><ele>373.0</ele><time>2026-04-24T12:32:11.947Z</time></trkpt><trkpt lat="34.410755" lon="7.923265"><ele>373.0</ele><time>2026-04-24T12:32:12.946Z</time></trkpt><trkpt lat="34.4107867" lon="7.9234167"><ele>373.0</ele><time>2026-04-24T12:32:13.947Z</time></trkpt><trkpt lat="34.41081" lon="7.9235717"><ele>373.0</ele><time>2026-04-24T12:32:14.947Z</time></trkpt><trkpt lat="34.4108383" lon="7.9237317"><ele>373.25</ele><time>2026-04-24T12:32:15.946Z</time></trkpt><trkpt lat="34.4108617" lon="7.9238933"><ele>373.5</ele><time>2026-04-24T12:32:16.947Z</time></trkpt><trkpt lat="34.41088" lon="7.9240567"><ele>373.75</ele><time>2026-04-24T12:32:17.947Z</time></trkpt><trkpt lat="34.410905" lon="7.9242317"><ele>374.0</ele><time>2026-04-24T12:32:18.947Z</time></trkpt><trkpt lat="34.4109267" lon="7.9244"><ele>374.25</ele><time>2026-04-24T12:32:19.946Z</time></trkpt><trkpt lat="34.4109517" lon="7.92457"><ele>374.5</ele><time>2026-04-24T12:32:20.947Z</time></trkpt><trkpt lat="34.410965" lon="7.9247283"><ele>374.75</ele><time>2026-04-24T12:32:21.946Z</time></trkpt><trkpt lat="34.41098" lon="7.9248967"><ele>375.0</ele><time>2026-04-24T12:32:22.947Z</time></trkpt><trkpt lat="34.4109867" lon="7.9250617"><ele>375.25</ele><time>2026-04-24T12:32:23.947Z</time></trkpt><trkpt lat="34.4110017" lon="7.92523"><ele>375.5</ele><time>2026-04-24T12:32:24.946Z</time></trkpt><trkpt lat="34.4110117" lon="7.9254"><ele>375.75</ele><time>2026-04-24T12:32:25.946Z</time></trkpt><trkpt lat="34.4110317" lon="7.9255667"><ele>376.0</ele><time>2026-04-24T12:32:26.947Z</time></trkpt><trkpt lat="34.4110517" lon="7.92574"><ele>376.75</ele><time>2026-04-24T12:32:27.946Z</time></trkpt><trkpt lat="34.4110767" lon="7.9259217"><ele>377.5</ele><time>2026-04-24T12:32:28.947Z</time></trkpt><trkpt lat="34.411105" lon="7.9260967"><ele>378.25</ele><time>2026-04-24T12:32:29.947Z</time></trkpt><trkpt lat="34.41113" lon="7.9262667"><ele>379.0</ele><time>2026-04-24T12:32:30.947Z</time></trkpt><trkpt lat="34.4111633" lon="7.926435"><ele>379.0</ele><time>2026-04-24T12:32:31.947Z</time></trkpt><trkpt lat="34.4111983" lon="7.9266"><ele>379.0</ele><time>2026-04-24T12:32:32.947Z</time></trkpt><trkpt lat="34.4112283" lon="7.9267717"><ele>379.0</ele><time>2026-04-24T12:32:33.947Z</time></trkpt><trkpt lat="34.4112617" lon="7.9269483"><ele>379.0</ele><time>2026-04-24T12:32:34.947Z</time></trkpt><trkpt lat="34.41129" lon="7.9271233"><ele>380.0</ele><time>2026-04-24T12:32:35.947Z</time></trkpt><trkpt lat="34.4113267" lon="7.9272933"><ele>381.0</ele><time>2026-04-24T12:32:36.947Z</time></trkpt><trkpt lat="34.41136" lon="7.9274667"><ele>382.0</ele><time>2026-04-24T12:32:37.947Z</time></trkpt><trkpt lat="34.4113917" lon="7.9276317"><ele>383.0</ele><time>2026-04-24T12:32:38.946Z</time></trkpt><trkpt lat="34.4114267" lon="7.9278"><ele>383.75</ele><time>2026-04-24T12:32:39.947Z</time></trkpt><trkpt lat="34.4114667" lon="7.927965"><ele>384.5</ele><time>2026-04-24T12:32:40.946Z</time></trkpt><trkpt lat="34.411505" lon="7.9281317"><ele>385.25</ele><time>2026-04-24T12:32:41.946Z</time></trkpt><trkpt lat="34.4115583" lon="7.928285"><ele>386.0</ele><time>2026-04-24T12:32:42.947Z</time></trkpt><trkpt lat="34.4116183" lon="7.9284433"><ele>386.75</ele><time>2026-04-24T12:32:43.946Z</time></trkpt><trkpt lat="34.4116767" lon="7.928605"><ele>387.5</ele><time>2026-04-24T12:32:44.947Z</time></trkpt><trkpt lat="34.4117333" lon="7.9287683"><ele>388.25</ele><time>2026-04-24T12:32:45.947Z</time></trkpt><trkpt lat="34.411785" lon="7.9289383"><ele>389.0</ele><time>2026-04-24T12:32:46.947Z</time></trkpt><trkpt lat="34.4118283" lon="7.9291167"><ele>389.75</ele><time>2026-04-24T12:32:47.947Z</time></trkpt><trkpt lat="34.4118617" lon="7.9292883"><ele>390.5</ele><time>2026-04-24T12:32:48.947Z</time></trkpt><trkpt lat="34.4118917" lon="7.9294683"><ele>391.25</ele><time>2026-04-24T12:32:49.947Z</time></trkpt><trkpt lat="34.4119167" lon="7.929645"><ele>392.0</ele><time>2026-04-24T12:32:50.947Z</time></trkpt><trkpt lat="34.4119367" lon="7.9298217"><ele>392.0</ele><time>2026-04-24T12:32:51.947Z</time></trkpt><trkpt lat="34.411955" lon="7.93"><ele>392.0</ele><time>2026-04-24T12:32:52.947Z</time></trkpt><trkpt lat="34.41197" lon="7.9301833"><ele>392.0</ele><time>2026-04-24T12:32:53.946Z</time></trkpt><trkpt lat="34.4119817" lon="7.9303617"><ele>392.0</ele><time>2026-04-24T12:32:54.947Z</time></trkpt><trkpt lat="34.411985" lon="7.9305417"><ele>392.3333333333333</ele><time>2026-04-24T12:32:55.946Z</time></trkpt><trkpt lat="34.4119883" lon="7.9307233"><ele>392.66666666666663</ele><time>2026-04-24T12:32:56.947Z</time></trkpt><trkpt lat="34.4119933" lon="7.9309083"><ele>393.0</ele><time>2026-04-24T12:32:57.946Z</time></trkpt><trkpt lat="34.4119967" lon="7.9310933"><ele>393.5</ele><time>2026-04-24T12:32:58.947Z</time></trkpt><trkpt lat="34.412" lon="7.93128"><ele>394.0</ele><time>2026-04-24T12:32:59.946Z</time></trkpt><trkpt lat="34.4120067" lon="7.9314583"><ele>394.5</ele><time>2026-04-24T12:33:00.947Z</time></trkpt><trkpt lat="34.4120133" lon="7.931625"><ele>395.0</ele><time>2026-04-24T12:33:01.947Z</time></trkpt><trkpt lat="34.4120133" lon="7.9317967"><ele>393.66666666666663</ele><time>2026-04-24T12:33:02.947Z</time></trkpt><trkpt lat="34.4120033" lon="7.9319833"><ele>392.33333333333337</ele><time>2026-04-24T12:33:03.947Z</time></trkpt><trkpt lat="34.4119967" lon="7.9321683"><ele>391.0</ele><time>2026-04-24T12:33:04.947Z</time></trkpt><trkpt lat="34.4119917" lon="7.9323583"><ele>391.0</ele><time>2026-04-24T12:33:05.947Z</time></trkpt><trkpt lat="34.41198" lon="7.9325517"><ele>391.0</ele><time>2026-04-24T12:33:06.946Z</time></trkpt><trkpt lat="34.4119717" lon="7.9327417"><ele>391.0</ele><time>2026-04-24T12:33:07.946Z</time></trkpt><trkpt lat="34.41196" lon="7.9329367"><ele>390.33333333333337</ele><time>2026-04-24T12:33:08.946Z</time></trkpt><trkpt lat="34.4119517" lon="7.9331417"><ele>389.66666666666663</ele><time>2026-04-24T12:33:09.947Z</time></trkpt><trkpt lat="34.41194" lon="7.93334"><ele>389.0</ele><time>2026-04-24T12:33:10.946Z</time></trkpt><trkpt lat="34.4119383" lon="7.933545"><ele>388.0</ele><time>2026-04-24T12:33:11.945Z</time></trkpt><trkpt lat="34.4119367" lon="7.9337517"><ele>387.0</ele><time>2026-04-24T12:33:12.946Z</time></trkpt><trkpt lat="34.4119383" lon="7.933955"><ele>386.0</ele><time>2026-04-24T12:33:13.946Z</time></trkpt><trkpt lat="34.4119483" lon="7.9341567"><ele>385.3333333333333</ele><time>2026-04-24T12:33:14.946Z</time></trkpt><trkpt lat="34.4119533" lon="7.9343633"><ele>384.66666666666663</ele><time>2026-04-24T12:33:15.945Z</time></trkpt><trkpt lat="34.4119517" lon="7.9345717"><ele>384.0</ele><time>2026-04-24T12:33:16.946Z</time></trkpt><trkpt lat="34.411945" lon="7.93478"><ele>384.0</ele><time>2026-04-24T12:33:17.946Z</time></trkpt><trkpt lat="34.4119317" lon="7.93499"><ele>384.0</ele><time>2026-04-24T12:33:18.945Z</time></trkpt><trkpt lat="34.4119067" lon="7.9352"><ele>384.0</ele><time>2026-04-24T12:33:19.946Z</time></trkpt><trkpt lat="34.411875" lon="7.93541"><ele>383.0</ele><time>2026-04-24T12:33:20.946Z</time></trkpt><trkpt lat="34.4118283" lon="7.93561"><ele>382.0</ele><time>2026-04-24T12:33:21.946Z</time></trkpt><trkpt lat="34.411775" lon="7.9358083"><ele>381.0</ele><time>2026-04-24T12:33:22.946Z</time></trkpt><trkpt lat="34.41171" lon="7.9360017"><ele>379.6666666666667</ele><time>2026-04-24T12:33:23.946Z</time></trkpt><trkpt lat="34.41163" lon="7.9361917"><ele>378.33333333333337</ele><time>2026-04-24T12:33:24.946Z</time></trkpt><trkpt lat="34.41153" lon="7.936375"><ele>377.0</ele><time>2026-04-24T12:33:25.945Z</time></trkpt><trkpt lat="34.4114383" lon="7.9365583"><ele>376.0</ele><time>2026-04-24T12:33:26.946Z</time></trkpt><trkpt lat="34.4113467" lon="7.93674"><ele>375.0</ele><time>2026-04-24T12:33:27.945Z</time></trkpt><trkpt lat="34.41126" lon="7.93693"><ele>374.0</ele><time>2026-04-24T12:33:28.946Z</time></trkpt><trkpt lat="34.4111717" lon="7.9371333"><ele>373.6666666666667</ele><time>2026-04-24T12:33:29.945Z</time></trkpt><trkpt lat="34.4110983" lon="7.93735"><ele>373.3333333333333</ele><time>2026-04-24T12:33:30.946Z</time></trkpt><trkpt lat="34.411035" lon="7.9375683"><ele>373.0</ele><time>2026-04-24T12:33:31.946Z</time></trkpt><trkpt lat="34.4109883" lon="7.9378067"><ele>371.66666666666663</ele><time>2026-04-24T12:33:32.945Z</time></trkpt><trkpt lat="34.4109333" lon="7.9380467"><ele>370.3333333333333</ele><time>2026-04-24T12:33:33.946Z</time></trkpt><trkpt lat="34.4108917" lon="7.938295"><ele>369.0</ele><time>2026-04-24T12:33:34.945Z</time></trkpt><trkpt lat="34.4108433" lon="7.9385383"><ele>369.0</ele><time>2026-04-24T12:33:35.946Z</time></trkpt><trkpt lat="34.4108067" lon="7.938795"><ele>369.0</ele><time>2026-04-24T12:33:36.945Z</time></trkpt><trkpt lat="34.4107533" lon="7.9390367"><ele>369.0</ele><time>2026-04-24T12:33:37.945Z</time></trkpt><trkpt lat="34.410695" lon="7.9392717"><ele>370.0</ele><time>2026-04-24T12:33:38.946Z</time></trkpt><trkpt lat="34.4106233" lon="7.939505"><ele>371.0</ele><time>2026-04-24T12:33:39.945Z</time></trkpt><trkpt lat="34.410555" lon="7.9397217"><ele>372.0</ele><time>2026-04-24T12:33:40.946Z</time></trkpt><trkpt lat="34.41049" lon="7.9399367"><ele>372.0</ele><time>2026-04-24T12:33:41.946Z</time></trkpt><trkpt lat="34.4104183" lon="7.9401417"><ele>372.0</ele><time>2026-04-24T12:33:42.946Z</time></trkpt><trkpt lat="34.4103283" lon="7.9403283"><ele>372.0</ele><time>2026-04-24T12:33:43.946Z</time></trkpt><trkpt lat="34.4102267" lon="7.9405117"><ele>372.0</ele><time>2026-04-24T12:33:44.946Z</time></trkpt><trkpt lat="34.4101083" lon="7.9406883"><ele>372.0</ele><time>2026-04-24T12:33:45.946Z</time></trkpt><trkpt lat="34.4099867" lon="7.94085"><ele>372.0</ele><time>2026-04-24T12:33:46.946Z</time></trkpt><trkpt lat="34.409855" lon="7.9409917"><ele>371.6666666666667</ele><time>2026-04-24T12:33:47.946Z</time></trkpt><trkpt lat="34.409715" lon="7.9411167"><ele>371.33333333333337</ele><time>2026-04-24T12:33:48.946Z</time></trkpt><trkpt lat="34.4095683" lon="7.9412217"><ele>371.0</ele><time>2026-04-24T12:33:49.946Z</time></trkpt><trkpt lat="34.4094217" lon="7.941305"><ele>371.0</ele><time>2026-04-24T12:33:50.946Z</time></trkpt><trkpt lat="34.4092767" lon="7.941385"><ele>371.0</ele><time>2026-04-24T12:33:51.946Z</time></trkpt><trkpt lat="34.409145" lon="7.9414483"><ele>371.0</ele><time>2026-04-24T12:33:52.946Z</time></trkpt><trkpt lat="34.4090083" lon="7.9415067"><ele>371.0</ele><time>2026-04-24T12:33:53.946Z</time></trkpt><trkpt lat="34.4088683" lon="7.941565"><ele>370.5</ele><time>2026-04-24T12:33:54.945Z</time></trkpt><trkpt lat="34.4087283" lon="7.9416233"><ele>370.0</ele><time>2026-04-24T12:33:55.946Z</time></trkpt><trkpt lat="34.408585" lon="7.941685"><ele>369.5</ele><time>2026-04-24T12:33:56.946Z</time></trkpt><trkpt lat="34.4084467" lon="7.9417433"><ele>369.0</ele><time>2026-04-24T12:33:57.946Z</time></trkpt><trkpt lat="34.4083033" lon="7.9418"><ele>369.0</ele><time>2026-04-24T12:33:58.946Z</time></trkpt><trkpt lat="34.4081633" lon="7.941855"><ele>369.0</ele><time>2026-04-24T12:33:59.946Z</time></trkpt><trkpt lat="34.4080117" lon="7.9419167"><ele>369.0</ele><time>2026-04-24T12:34:00.945Z</time></trkpt><trkpt lat="34.4078633" lon="7.9419917"><ele>367.0</ele><time>2026-04-24T12:34:01.946Z</time></trkpt><trkpt lat="34.4077217" lon="7.9420917"><ele>365.0</ele><time>2026-04-24T12:34:02.945Z</time></trkpt><trkpt lat="34.407575" lon="7.9422017"><ele>363.0</ele><time>2026-04-24T12:34:03.946Z</time></trkpt><trkpt lat="34.4074283" lon="7.9423117"><ele>363.0</ele><time>2026-04-24T12:34:04.946Z</time></trkpt><trkpt lat="34.4072867" lon="7.94242"><ele>363.0</ele><time>2026-04-24T12:34:05.945Z</time></trkpt><trkpt lat="34.40715" lon="7.942545"><ele>363.0</ele><time>2026-04-24T12:34:06.946Z</time></trkpt><trkpt lat="34.4070167" lon="7.94268"><ele>361.5</ele><time>2026-04-24T12:34:07.946Z</time></trkpt><trkpt lat="34.4069117" lon="7.9428233"><ele>360.0</ele><time>2026-04-24T12:34:08.946Z</time></trkpt><trkpt lat="34.40683" lon="7.9429717"><ele>358.5</ele><time>2026-04-24T12:34:09.946Z</time></trkpt><trkpt lat="34.4067633" lon="7.943125"><ele>357.0</ele><time>2026-04-24T12:34:10.946Z</time></trkpt><trkpt lat="34.4067233" lon="7.9432817"><ele>357.0</ele><time>2026-04-24T12:34:11.946Z</time></trkpt><trkpt lat="34.4066917" lon="7.9434433"><ele>357.0</ele><time>2026-04-24T12:34:12.946Z</time></trkpt><trkpt lat="34.4066583" lon="7.9436083"><ele>357.0</ele><time>2026-04-24T12:34:13.946Z</time></trkpt><trkpt lat="34.4066117" lon="7.9437767"><ele>357.0</ele><time>2026-04-24T12:34:14.946Z</time></trkpt><trkpt lat="34.40656" lon="7.9439517"><ele>357.0</ele><time>2026-04-24T12:34:15.945Z</time></trkpt><trkpt lat="34.4064967" lon="7.94413"><ele>357.0</ele><time>2026-04-24T12:34:16.946Z</time></trkpt><trkpt lat="34.4064283" lon="7.9443033"><ele>357.0</ele><time>2026-04-24T12:34:17.945Z</time></trkpt><trkpt lat="34.4063567" lon="7.9444833"><ele>358.6666666666667</ele><time>2026-04-24T12:34:18.945Z</time></trkpt><trkpt lat="34.4063017" lon="7.944665"><ele>360.33333333333337</ele><time>2026-04-24T12:34:19.945Z</time></trkpt><trkpt lat="34.406265" lon="7.9448633"><ele>362.0</ele><time>2026-04-24T12:34:20.946Z</time></trkpt><trkpt lat="34.4062483" lon="7.94506"><ele>362.0</ele><time>2026-04-24T12:34:21.945Z</time></trkpt><trkpt lat="34.4062517" lon="7.9452367"><ele>362.0</ele><time>2026-04-24T12:34:22.946Z</time></trkpt><trkpt lat="34.4062883" lon="7.9454033"><ele>362.0</ele><time>2026-04-24T12:34:23.945Z</time></trkpt><trkpt lat="34.40634" lon="7.9455617"><ele>362.0</ele><time>2026-04-24T12:34:24.945Z</time></trkpt><trkpt lat="34.4063983" lon="7.9457117"><ele>362.0</ele><time>2026-04-24T12:34:25.946Z</time></trkpt><trkpt lat="34.406455" lon="7.94586"><ele>362.0</ele><time>2026-04-24T12:34:26.946Z</time></trkpt><trkpt lat="34.40651" lon="7.9460033"><ele>362.0</ele><time>2026-04-24T12:34:27.946Z</time></trkpt><trkpt lat="34.4065517" lon="7.9461567"><ele>362.0</ele><time>2026-04-24T12:34:28.945Z</time></trkpt><trkpt lat="34.4065783" lon="7.946325"><ele>361.0</ele><time>2026-04-24T12:34:29.945Z</time></trkpt><trkpt lat="34.4065783" lon="7.9464817"><ele>360.0</ele><time>2026-04-24T12:34:30.946Z</time></trkpt><trkpt lat="34.4065533" lon="7.9466483"><ele>359.0</ele><time>2026-04-24T12:34:31.946Z</time></trkpt><trkpt lat="34.4065133" lon="7.9468217"><ele>358.0</ele><time>2026-04-24T12:34:32.946Z</time></trkpt><trkpt lat="34.4064733" lon="7.947"><ele>356.75</ele><time>2026-04-24T12:34:33.946Z</time></trkpt><trkpt lat="34.406435" lon="7.9471717"><ele>355.5</ele><time>2026-04-24T12:34:34.946Z</time></trkpt><trkpt lat="34.4064117" lon="7.94734"><ele>354.25</ele><time>2026-04-24T12:34:35.946Z</time></trkpt><trkpt lat="34.4063733" lon="7.9475083"><ele>353.0</ele><time>2026-04-24T12:34:36.946Z</time></trkpt><trkpt lat="34.406345" lon="7.94767"><ele>351.5</ele><time>2026-04-24T12:34:37.945Z</time></trkpt><trkpt lat="34.4063367" lon="7.9478333"><ele>350.0</ele><time>2026-04-24T12:34:38.946Z</time></trkpt><trkpt lat="34.4063283" lon="7.947995"><ele>348.5</ele><time>2026-04-24T12:34:39.946Z</time></trkpt><trkpt lat="34.4063167" lon="7.94816"><ele>347.0</ele><time>2026-04-24T12:34:40.946Z</time></trkpt><trkpt lat="34.4062983" lon="7.9483217"><ele>344.75</ele><time>2026-04-24T12:34:41.945Z</time></trkpt><trkpt lat="34.4062617" lon="7.9484767"><ele>342.5</ele><time>2026-04-24T12:34:42.945Z</time></trkpt><trkpt lat="34.4062083" lon="7.94863"><ele>340.25</ele><time>2026-04-24T12:34:43.946Z</time></trkpt><trkpt lat="34.406135" lon="7.9487867"><ele>338.0</ele><time>2026-04-24T12:34:44.946Z</time></trkpt><trkpt lat="34.4060483" lon="7.9489467"><ele>338.0</ele><time>2026-04-24T12:34:45.946Z</time></trkpt><trkpt lat="34.4059467" lon="7.9491017"><ele>338.0</ele><time>2026-04-24T12:34:46.946Z</time></trkpt><trkpt lat="34.40583" lon="7.9492617"><ele>338.0</ele><time>2026-04-24T12:34:47.946Z</time></trkpt><trkpt lat="34.4057017" lon="7.949425"><ele>338.0</ele><time>2026-04-24T12:34:48.945Z</time></trkpt><trkpt lat="34.4055783" lon="7.9495933"><ele>338.0</ele><time>2026-04-24T12:34:49.946Z</time></trkpt><trkpt lat="34.4054533" lon="7.9497583"><ele>338.0</ele><time>2026-04-24T12:34:50.945Z</time></trkpt><trkpt lat="34.40533" lon="7.9499283"><ele>336.6666666666667</ele><time>2026-04-24T12:34:51.946Z</time></trkpt><trkpt lat="34.405205" lon="7.9500967"><ele>335.3333333333333</ele><time>2026-04-24T12:34:52.945Z</time></trkpt><trkpt lat="34.4050833" lon="7.950265"><ele>334.0</ele><time>2026-04-24T12:34:53.946Z</time></trkpt><trkpt lat="34.40495" lon="7.9504383"><ele>334.0</ele><time>2026-04-24T12:34:54.946Z</time></trkpt><trkpt lat="34.4048183" lon="7.9506183"><ele>334.0</ele><time>2026-04-24T12:34:55.946Z</time></trkpt><trkpt lat="34.4046833" lon="7.9508"><ele>334.0</ele><time>2026-04-24T12:34:56.946Z</time></trkpt><trkpt lat="34.4045583" lon="7.950985"><ele>334.3333333333333</ele><time>2026-04-24T12:34:57.946Z</time></trkpt><trkpt lat="34.404425" lon="7.951165"><ele>334.6666666666667</ele><time>2026-04-24T12:34:58.945Z</time></trkpt><trkpt lat="34.4042817" lon="7.9513417"><ele>335.0</ele><time>2026-04-24T12:34:59.946Z</time></trkpt><trkpt lat="34.4041383" lon="7.95152"><ele>335.0</ele><time>2026-04-24T12:35:00.946Z</time></trkpt><trkpt lat="34.404" lon="7.9517"><ele>335.0</ele><time>2026-04-24T12:35:01.945Z</time></trkpt><trkpt lat="34.4038633" lon="7.9518817"><ele>335.0</ele><time>2026-04-24T12:35:02.946Z</time></trkpt><trkpt lat="34.4037333" lon="7.9520583"><ele>335.6666666666667</ele><time>2026-04-24T12:35:03.945Z</time></trkpt><trkpt lat="34.403595" lon="7.9522433"><ele>336.3333333333333</ele><time>2026-04-24T12:35:04.945Z</time></trkpt><trkpt lat="34.4034567" lon="7.9524233"><ele>337.0</ele><time>2026-04-24T12:35:05.946Z</time></trkpt><trkpt lat="34.4033267" lon="7.9526"><ele>337.3333333333333</ele><time>2026-04-24T12:35:06.945Z</time></trkpt><trkpt lat="34.4032017" lon="7.9527767"><ele>337.6666666666667</ele><time>2026-04-24T12:35:07.946Z</time></trkpt><trkpt lat="34.4030683" lon="7.95296"><ele>338.0</ele><time>2026-04-24T12:35:08.945Z</time></trkpt><trkpt lat="34.4029267" lon="7.9531367"><ele>340.0</ele><time>2026-04-24T12:35:09.946Z</time></trkpt><trkpt lat="34.4027867" lon="7.953315"><ele>342.0</ele><time>2026-04-24T12:35:10.946Z</time></trkpt><trkpt lat="34.40265" lon="7.9534983"><ele>344.0</ele><time>2026-04-24T12:35:11.946Z</time></trkpt><trkpt lat="34.4025233" lon="7.9536783"><ele>344.33333333333337</ele><time>2026-04-24T12:35:12.946Z</time></trkpt><trkpt lat="34.4023967" lon="7.9538633"><ele>344.6666666666667</ele><time>2026-04-24T12:35:13.946Z</time></trkpt><trkpt lat="34.4022717" lon="7.9540483"><ele>345.0</ele><time>2026-04-24T12:35:14.946Z</time></trkpt><trkpt lat="34.402155" lon="7.95424"><ele>345.6666666666667</ele><time>2026-04-24T12:35:15.945Z</time></trkpt><trkpt lat="34.4020417" lon="7.95443"><ele>346.33333333333337</ele><time>2026-04-24T12:35:16.946Z</time></trkpt><trkpt lat="34.4019317" lon="7.9546317"><ele>347.0</ele><time>2026-04-24T12:35:17.946Z</time></trkpt><trkpt lat="34.4018217" lon="7.9548367"><ele>347.6666666666667</ele><time>2026-04-24T12:35:18.946Z</time></trkpt><trkpt lat="34.40171" lon="7.9550467"><ele>348.3333333333333</ele><time>2026-04-24T12:35:19.946Z</time></trkpt><trkpt lat="34.4016017" lon="7.95525"><ele>349.0</ele><time>2026-04-24T12:35:20.946Z</time></trkpt><trkpt lat="34.4015033" lon="7.9554583"><ele>349.0</ele><time>2026-04-24T12:35:21.946Z</time></trkpt><trkpt lat="34.40141" lon="7.95567"><ele>349.0</ele><time>2026-04-24T12:35:22.945Z</time></trkpt><trkpt lat="34.4013167" lon="7.9558867"><ele>349.0</ele><time>2026-04-24T12:35:23.946Z</time></trkpt><trkpt lat="34.4012267" lon="7.956105"><ele>350.66666666666663</ele><time>2026-04-24T12:35:24.946Z</time></trkpt><trkpt lat="34.40114" lon="7.95632"><ele>352.3333333333333</ele><time>2026-04-24T12:35:25.946Z</time></trkpt><trkpt lat="34.40105" lon="7.956535"><ele>354.0</ele><time>2026-04-24T12:35:26.946Z</time></trkpt><trkpt lat="34.4009483" lon="7.9567483"><ele>354.6666666666667</ele><time>2026-04-24T12:35:27.946Z</time></trkpt><trkpt lat="34.4008483" lon="7.9569583"><ele>355.33333333333337</ele><time>2026-04-24T12:35:28.946Z</time></trkpt><trkpt lat="34.400755" lon="7.9571783"><ele>356.0</ele><time>2026-04-24T12:35:29.945Z</time></trkpt><trkpt lat="34.4006617" lon="7.9573967"><ele>355.33333333333337</ele><time>2026-04-24T12:35:30.946Z</time></trkpt><trkpt lat="34.400575" lon="7.9576133"><ele>354.6666666666667</ele><time>2026-04-24T12:35:31.946Z</time></trkpt><trkpt lat="34.4004867" lon="7.9578317"><ele>354.0</ele><time>2026-04-24T12:35:32.946Z</time></trkpt><trkpt lat="34.4003983" lon="7.958045"><ele>355.6666666666667</ele><time>2026-04-24T12:35:33.946Z</time></trkpt><trkpt lat="34.4003217" lon="7.9582517"><ele>357.33333333333337</ele><time>2026-04-24T12:35:34.945Z</time></trkpt><trkpt lat="34.4002467" lon="7.9584633"><ele>359.0</ele><time>2026-04-24T12:35:35.946Z</time></trkpt><trkpt lat="34.4001683" lon="7.9586733"><ele>359.0</ele><time>2026-04-24T12:35:36.945Z</time></trkpt><trkpt lat="34.40009" lon="7.9588833"><ele>359.0</ele><time>2026-04-24T12:35:37.945Z</time></trkpt><trkpt lat="34.4000083" lon="7.95909"><ele>359.0</ele><time>2026-04-24T12:35:38.946Z</time></trkpt><trkpt lat="34.3999283" lon="7.95929"><ele>360.0</ele><time>2026-04-24T12:35:39.945Z</time></trkpt><trkpt lat="34.3998617" lon="7.9594783"><ele>361.0</ele><time>2026-04-24T12:35:40.945Z</time></trkpt><trkpt lat="34.3997983" lon="7.9596533"><ele>362.0</ele><time>2026-04-24T12:35:41.945Z</time></trkpt><trkpt lat="34.3997433" lon="7.9598167"><ele>362.0</ele><time>2026-04-24T12:35:42.946Z</time></trkpt><trkpt lat="34.3996933" lon="7.95998"><ele>362.0</ele><time>2026-04-24T12:35:43.946Z</time></trkpt><trkpt lat="34.3996467" lon="7.9601383"><ele>362.0</ele><time>2026-04-24T12:35:44.945Z</time></trkpt><trkpt lat="34.3996" lon="7.9603067"><ele>362.0</ele><time>2026-04-24T12:35:45.946Z</time></trkpt><trkpt lat="34.3995683" lon="7.9604733"><ele>361.5</ele><time>2026-04-24T12:35:46.946Z</time></trkpt><trkpt lat="34.39955" lon="7.96064"><ele>361.0</ele><time>2026-04-24T12:35:47.946Z</time></trkpt><trkpt lat="34.3995333" lon="7.9608"><ele>360.5</ele><time>2026-04-24T12:35:48.946Z</time></trkpt><trkpt lat="34.3995383" lon="7.9609483"><ele>360.0</ele><time>2026-04-24T12:35:49.946Z</time></trkpt><trkpt lat="34.3995467" lon="7.9610783"><ele>360.0</ele><time>2026-04-24T12:35:50.946Z</time></trkpt><trkpt lat="34.3995583" lon="7.9611933"><ele>360.0</ele><time>2026-04-24T12:35:51.946Z</time></trkpt><trkpt lat="34.3995683" lon="7.9612833"><ele>360.0</ele><time>2026-04-24T12:35:52.946Z</time></trkpt><trkpt lat="34.3995717" lon="7.9613667"><ele>360.0</ele><time>2026-04-24T12:35:53.946Z</time></trkpt><trkpt lat="34.3995617" lon="7.9614517"><ele>360.0</ele><time>2026-04-24T12:35:54.946Z</time></trkpt><trkpt lat="34.3995033" lon="7.961595"><ele>360.0</ele><time>2026-04-24T12:35:56.946Z</time></trkpt><trkpt lat="34.399445" lon="7.9616633"><ele>360.0</ele><time>2026-04-24T12:35:57.946Z</time></trkpt><trkpt lat="34.39938" lon="7.9617417"><ele>360.0</ele><time>2026-04-24T12:35:58.946Z</time></trkpt><trkpt lat="34.3993317" lon="7.9618383"><ele>360.0</ele><time>2026-04-24T12:35:59.946Z</time></trkpt><trkpt lat="34.3993" lon="7.9619417"><ele>360.0</ele><time>2026-04-24T12:36:00.946Z</time></trkpt><trkpt lat="34.3992783" lon="7.9620567"><ele>360.0</ele><time>2026-04-24T12:36:01.945Z</time></trkpt><trkpt lat="34.3992567" lon="7.96218"><ele>360.0</ele><time>2026-04-24T12:36:02.946Z</time></trkpt><trkpt lat="34.3992333" lon="7.9623033"><ele>360.0</ele><time>2026-04-24T12:36:03.946Z</time></trkpt><trkpt lat="34.3991983" lon="7.962435"><ele>360.0</ele><time>2026-04-24T12:36:04.946Z</time></trkpt><trkpt lat="34.3991767" lon="7.96257"><ele>360.0</ele><time>2026-04-24T12:36:05.946Z</time></trkpt><trkpt lat="34.3991467" lon="7.9627033"><ele>360.0</ele><time>2026-04-24T12:36:06.945Z</time></trkpt><trkpt lat="34.39912" lon="7.9628417"><ele>359.75</ele><time>2026-04-24T12:36:07.945Z</time></trkpt><trkpt lat="34.3990933" lon="7.9629783"><ele>359.5</ele><time>2026-04-24T12:36:08.946Z</time></trkpt><trkpt lat="34.3990517" lon="7.9631183"><ele>359.25</ele><time>2026-04-24T12:36:09.945Z</time></trkpt><trkpt lat="34.399015" lon="7.9632633"><ele>359.0</ele><time>2026-04-24T12:36:10.946Z</time></trkpt><trkpt lat="34.398975" lon="7.963405"><ele>358.75</ele><time>2026-04-24T12:36:11.945Z</time></trkpt><trkpt lat="34.3989267" lon="7.9635383"><ele>358.5</ele><time>2026-04-24T12:36:12.946Z</time></trkpt><trkpt lat="34.3988783" lon="7.9636667"><ele>358.25</ele><time>2026-04-24T12:36:13.946Z</time></trkpt><trkpt lat="34.3988233" lon="7.9637967"><ele>358.0</ele><time>2026-04-24T12:36:14.946Z</time></trkpt><trkpt lat="34.3987833" lon="7.963925"><ele>357.5</ele><time>2026-04-24T12:36:15.946Z</time></trkpt><trkpt lat="34.3987533" lon="7.9640533"><ele>357.0</ele><time>2026-04-24T12:36:16.945Z</time></trkpt><trkpt lat="34.3987233" lon="7.9641933"><ele>356.5</ele><time>2026-04-24T12:36:17.946Z</time></trkpt><trkpt lat="34.39871" lon="7.9643317"><ele>356.0</ele><time>2026-04-24T12:36:18.945Z</time></trkpt><trkpt lat="34.3986967" lon="7.964475"><ele>355.8</ele><time>2026-04-24T12:36:19.946Z</time></trkpt><trkpt lat="34.3986867" lon="7.9646117"><ele>355.6</ele><time>2026-04-24T12:36:20.945Z</time></trkpt><trkpt lat="34.39867" lon="7.96474"><ele>355.4</ele><time>2026-04-24T12:36:21.946Z</time></trkpt><trkpt lat="34.39864" lon="7.9648683"><ele>355.2</ele><time>2026-04-24T12:36:22.946Z</time></trkpt><trkpt lat="34.3985983" lon="7.964995"><ele>355.0</ele><time>2026-04-24T12:36:23.946Z</time></trkpt><trkpt lat="34.398555" lon="7.96512"><ele>354.5</ele><time>2026-04-24T12:36:24.946Z</time></trkpt><trkpt lat="34.3985083" lon="7.965245"><ele>354.0</ele><time>2026-04-24T12:36:25.946Z</time></trkpt><trkpt lat="34.3984533" lon="7.9653733"><ele>353.5</ele><time>2026-04-24T12:36:26.946Z</time></trkpt><trkpt lat="34.3984067" lon="7.965495"><ele>353.0</ele><time>2026-04-24T12:36:27.946Z</time></trkpt><trkpt lat="34.3983667" lon="7.9656183"><ele>353.0</ele><time>2026-04-24T12:36:28.946Z</time></trkpt><trkpt lat="34.398325" lon="7.9657267"><ele>353.0</ele><time>2026-04-24T12:36:29.945Z</time></trkpt><trkpt lat="34.398275" lon="7.9658233"><ele>353.0</ele><time>2026-04-24T12:36:30.946Z</time></trkpt><trkpt lat="34.3982133" lon="7.9659133"><ele>353.0</ele><time>2026-04-24T12:36:31.946Z</time></trkpt><trkpt lat="34.398155" lon="7.9660117"><ele>353.0</ele><time>2026-04-24T12:36:32.946Z</time></trkpt><trkpt lat="34.3981" lon="7.966115"><ele>352.1666666666667</ele><time>2026-04-24T12:36:33.946Z</time></trkpt><trkpt lat="34.39807" lon="7.96622"><ele>351.33333333333337</ele><time>2026-04-24T12:36:34.946Z</time></trkpt><trkpt lat="34.3980517" lon="7.9663217"><ele>350.5</ele><time>2026-04-24T12:36:35.945Z</time></trkpt><trkpt lat="34.3980333" lon="7.9664217"><ele>349.6666666666667</ele><time>2026-04-24T12:36:36.945Z</time></trkpt><trkpt lat="34.3980117" lon="7.96651"><ele>348.8333333333333</ele><time>2026-04-24T12:36:37.946Z</time></trkpt><trkpt lat="34.3979967" lon="7.9665983"><ele>348.0</ele><time>2026-04-24T12:36:38.946Z</time></trkpt><trkpt lat="34.3979833" lon="7.96669"><ele>346.8333333333333</ele><time>2026-04-24T12:36:39.945Z</time></trkpt><trkpt lat="34.397975" lon="7.96677"><ele>345.6666666666667</ele><time>2026-04-24T12:36:40.946Z</time></trkpt><trkpt lat="34.3979683" lon="7.9668467"><ele>344.5</ele><time>2026-04-24T12:36:41.945Z</time></trkpt><trkpt lat="34.3979517" lon="7.9669733"><ele>343.33333333333337</ele><time>2026-04-24T12:36:43.945Z</time></trkpt><trkpt lat="34.397925" lon="7.967085"><ele>342.1666666666667</ele><time>2026-04-24T12:36:45.945Z</time></trkpt><trkpt lat="34.3978983" lon="7.9671783"><ele>341.0</ele><time>2026-04-24T12:36:47.944Z</time></trkpt><trkpt lat="34.3978683" lon="7.96726"><ele>341.0</ele><time>2026-04-24T12:36:49.945Z</time></trkpt><trkpt lat="34.397845" lon="7.9673317"><ele>341.0</ele><time>2026-04-24T12:36:52.945Z</time></trkpt><trkpt lat="34.3978083" lon="7.96742"><ele>341.0</ele><time>2026-04-24T12:36:57.945Z</time></trkpt><trkpt lat="34.397755" lon="7.9674967"><ele>341.0</ele><time>2026-04-24T12:36:59.945Z</time></trkpt><trkpt lat="34.3976767" lon="7.9675417"><ele>341.0</ele><time>2026-04-24T12:37:01.944Z</time></trkpt><trkpt lat="34.3975817" lon="7.9675717"><ele>341.0</ele><time>2026-04-24T12:37:03.945Z</time></trkpt><trkpt lat="34.3975017" lon="7.9675933"><ele>340.6</ele><time>2026-04-24T12:37:05.945Z</time></trkpt><trkpt lat="34.3974383" lon="7.967615"><ele>340.20000000000005</ele><time>2026-04-24T12:37:08.945Z</time></trkpt><trkpt lat="34.3974617" lon="7.967735"><ele>339.79999999999995</ele><time>2026-04-24T12:37:12.945Z</time></trkpt><trkpt lat="34.3975733" lon="7.9678217"><ele>339.4</ele><time>2026-04-24T12:37:14.945Z</time></trkpt><trkpt lat="34.39765" lon="7.9678583"><ele>339.0</ele><time>2026-04-24T12:37:15.945Z</time></trkpt><trkpt lat="34.3977267" lon="7.9679067"><ele>339.0</ele><time>2026-04-24T12:37:16.945Z</time></trkpt><trkpt lat="34.3978017" lon="7.9679667"><ele>339.0</ele><time>2026-04-24T12:37:17.945Z</time></trkpt><trkpt lat="34.3978783" lon="7.9680417"><ele>339.0</ele><time>2026-04-24T12:37:18.945Z</time></trkpt><trkpt lat="34.39796" lon="7.9681233"><ele>339.0</ele><time>2026-04-24T12:37:19.945Z</time></trkpt><trkpt lat="34.3980433" lon="7.96821"><ele>339.0</ele><time>2026-04-24T12:37:20.945Z</time></trkpt><trkpt lat="34.3981233" lon="7.9682983"><ele>340.0</ele><time>2026-04-24T12:37:21.945Z</time></trkpt><trkpt lat="34.3982133" lon="7.968385"><ele>341.0</ele><time>2026-04-24T12:37:22.945Z</time></trkpt><trkpt lat="34.3983067" lon="7.9684783"><ele>342.0</ele><time>2026-04-24T12:37:23.944Z</time></trkpt><trkpt lat="34.3983967" lon="7.96857"><ele>343.0</ele><time>2026-04-24T12:37:24.945Z</time></trkpt><trkpt lat="34.3984917" lon="7.968655"><ele>343.0</ele><time>2026-04-24T12:37:25.945Z</time></trkpt><trkpt lat="34.3985883" lon="7.96874"><ele>343.0</ele><time>2026-04-24T12:37:26.945Z</time></trkpt><trkpt lat="34.3986833" lon="7.96883"><ele>343.0</ele><time>2026-04-24T12:37:27.944Z</time></trkpt><trkpt lat="34.3987883" lon="7.9689167"><ele>343.0</ele><time>2026-04-24T12:37:28.945Z</time></trkpt><trkpt lat="34.3988967" lon="7.9689967"><ele>343.75</ele><time>2026-04-24T12:37:29.945Z</time></trkpt><trkpt lat="34.3990033" lon="7.9690767"><ele>344.5</ele><time>2026-04-24T12:37:30.944Z</time></trkpt><trkpt lat="34.3991183" lon="7.9691567"><ele>345.25</ele><time>2026-04-24T12:37:31.945Z</time></trkpt><trkpt lat="34.3992317" lon="7.9692333"><ele>346.0</ele><time>2026-04-24T12:37:32.945Z</time></trkpt><trkpt lat="34.3993433" lon="7.9693117"><ele>346.25</ele><time>2026-04-24T12:37:33.944Z</time></trkpt><trkpt lat="34.3994567" lon="7.9693833"><ele>346.5</ele><time>2026-04-24T12:37:34.945Z</time></trkpt><trkpt lat="34.3995767" lon="7.969455"><ele>346.75</ele><time>2026-04-24T12:37:35.945Z</time></trkpt><trkpt lat="34.3997083" lon="7.9695167"><ele>347.0</ele><time>2026-04-24T12:37:36.945Z</time></trkpt><trkpt lat="34.3998317" lon="7.9695817"><ele>347.75</ele><time>2026-04-24T12:37:37.945Z</time></trkpt><trkpt lat="34.3999567" lon="7.96965"><ele>348.5</ele><time>2026-04-24T12:37:38.945Z</time></trkpt><trkpt lat="34.4000833" lon="7.9697167"><ele>349.25</ele><time>2026-04-24T12:37:39.945Z</time></trkpt><trkpt lat="34.400215" lon="7.9697817"><ele>350.0</ele><time>2026-04-24T12:37:40.944Z</time></trkpt><trkpt lat="34.400355" lon="7.9698467"><ele>350.0</ele><time>2026-04-24T12:37:41.945Z</time></trkpt><trkpt lat="34.4004917" lon="7.9699117"><ele>350.0</ele><time>2026-04-24T12:37:42.945Z</time></trkpt><trkpt lat="34.4006317" lon="7.969985"><ele>350.0</ele><time>2026-04-24T12:37:43.945Z</time></trkpt><trkpt lat="34.4007767" lon="7.970055"><ele>351.6666666666667</ele><time>2026-04-24T12:37:44.945Z</time></trkpt><trkpt lat="34.40092" lon="7.9701283"><ele>353.3333333333333</ele><time>2026-04-24T12:37:45.945Z</time></trkpt><trkpt lat="34.4010633" lon="7.9701967"><ele>355.0</ele><time>2026-04-24T12:37:46.945Z</time></trkpt><trkpt lat="34.4012083" lon="7.9702667"><ele>356.3333333333333</ele><time>2026-04-24T12:37:47.945Z</time></trkpt><trkpt lat="34.4013717" lon="7.9703333"><ele>357.6666666666667</ele><time>2026-04-24T12:37:48.945Z</time></trkpt><trkpt lat="34.40153" lon="7.97041"><ele>359.0</ele><time>2026-04-24T12:37:49.945Z</time></trkpt><trkpt lat="34.401685" lon="7.9704867"><ele>359.0</ele><time>2026-04-24T12:37:50.945Z</time></trkpt><trkpt lat="34.4018383" lon="7.9705717"><ele>359.0</ele><time>2026-04-24T12:37:51.945Z</time></trkpt><trkpt lat="34.402" lon="7.970655"><ele>359.0</ele><time>2026-04-24T12:37:52.945Z</time></trkpt><trkpt lat="34.4021567" lon="7.9707417"><ele>360.33333333333337</ele><time>2026-04-24T12:37:53.944Z</time></trkpt><trkpt lat="34.4023183" lon="7.97082"><ele>361.6666666666667</ele><time>2026-04-24T12:37:54.944Z</time></trkpt><trkpt lat="34.4024867" lon="7.9708917"><ele>363.0</ele><time>2026-04-24T12:37:55.945Z</time></trkpt><trkpt lat="34.4026617" lon="7.970955"><ele>363.3333333333333</ele><time>2026-04-24T12:37:56.944Z</time></trkpt><trkpt lat="34.4028383" lon="7.97102"><ele>363.66666666666663</ele><time>2026-04-24T12:37:57.945Z</time></trkpt><trkpt lat="34.4030133" lon="7.97108"><ele>364.0</ele><time>2026-04-24T12:37:58.945Z</time></trkpt><trkpt lat="34.40319" lon="7.971135"><ele>365.0</ele><time>2026-04-24T12:37:59.944Z</time></trkpt><trkpt lat="34.40337" lon="7.9711833"><ele>366.0</ele><time>2026-04-24T12:38:00.944Z</time></trkpt><trkpt lat="34.4035533" lon="7.9712267"><ele>367.0</ele><time>2026-04-24T12:38:01.945Z</time></trkpt><trkpt lat="34.40373" lon="7.9712667"><ele>369.66666666666663</ele><time>2026-04-24T12:38:02.945Z</time></trkpt><trkpt lat="34.4039067" lon="7.9713067"><ele>372.3333333333333</ele><time>2026-04-24T12:38:03.945Z</time></trkpt><trkpt lat="34.40408" lon="7.9713483"><ele>375.0</ele><time>2026-04-24T12:38:04.945Z</time></trkpt><trkpt lat="34.4042517" lon="7.971385"><ele>375.0</ele><time>2026-04-24T12:38:05.945Z</time></trkpt><trkpt lat="34.4044183" lon="7.9714217"><ele>375.0</ele><time>2026-04-24T12:38:06.945Z</time></trkpt><trkpt lat="34.4045833" lon="7.9714633"><ele>375.0</ele><time>2026-04-24T12:38:07.945Z</time></trkpt><trkpt lat="34.4047283" lon="7.9715117"><ele>377.5</ele><time>2026-04-24T12:38:08.945Z</time></trkpt><trkpt lat="34.4048667" lon="7.9715683"><ele>380.0</ele><time>2026-04-24T12:38:09.945Z</time></trkpt><trkpt lat="34.404995" lon="7.97163"><ele>382.5</ele><time>2026-04-24T12:38:10.945Z</time></trkpt><trkpt lat="34.40511" lon="7.9716983"><ele>385.0</ele><time>2026-04-24T12:38:11.945Z</time></trkpt><trkpt lat="34.4052183" lon="7.9717767"><ele>385.33333333333337</ele><time>2026-04-24T12:38:12.945Z</time></trkpt><trkpt lat="34.4053167" lon="7.9718533"><ele>385.6666666666667</ele><time>2026-04-24T12:38:13.945Z</time></trkpt><trkpt lat="34.4053917" lon="7.9719183"><ele>386.0</ele><time>2026-04-24T12:38:14.945Z</time></trkpt><trkpt lat="34.4054483" lon="7.9719883"><ele>386.33333333333337</ele><time>2026-04-24T12:38:15.944Z</time></trkpt><trkpt lat="34.4054817" lon="7.972065"><ele>386.6666666666667</ele><time>2026-04-24T12:38:16.945Z</time></trkpt><trkpt lat="34.4055133" lon="7.972155"><ele>387.0</ele><time>2026-04-24T12:38:17.945Z</time></trkpt><trkpt lat="34.4055283" lon="7.9722533"><ele>387.20000000000005</ele><time>2026-04-24T12:38:18.945Z</time></trkpt><trkpt lat="34.4055333" lon="7.9723617"><ele>387.4</ele><time>2026-04-24T12:38:19.945Z</time></trkpt><trkpt lat="34.4055333" lon="7.97248"><ele>387.6</ele><time>2026-04-24T12:38:20.945Z</time></trkpt><trkpt lat="34.4055267" lon="7.9726033"><ele>387.79999999999995</ele><time>2026-04-24T12:38:21.945Z</time></trkpt><trkpt lat="34.4055217" lon="7.9727433"><ele>388.0</ele><time>2026-04-24T12:38:22.945Z</time></trkpt><trkpt lat="34.40552" lon="7.97289"><ele>388.0</ele><time>2026-04-24T12:38:23.945Z</time></trkpt><trkpt lat="34.4055083" lon="7.9730383"><ele>388.0</ele><time>2026-04-24T12:38:24.945Z</time></trkpt><trkpt lat="34.40551" lon="7.97319"><ele>388.0</ele><time>2026-04-24T12:38:25.945Z</time></trkpt><trkpt lat="34.40551" lon="7.9733467"><ele>388.0</ele><time>2026-04-24T12:38:26.945Z</time></trkpt><trkpt lat="34.4055133" lon="7.9735017"><ele>388.0</ele><time>2026-04-24T12:38:27.945Z</time></trkpt><trkpt lat="34.4055167" lon="7.9736567"><ele>388.0</ele><time>2026-04-24T12:38:28.945Z</time></trkpt><trkpt lat="34.4055217" lon="7.9738133"><ele>388.0</ele><time>2026-04-24T12:38:29.945Z</time></trkpt><trkpt lat="34.4055233" lon="7.97398"><ele>388.0</ele><time>2026-04-24T12:38:30.945Z</time></trkpt><trkpt lat="34.4055267" lon="7.9741533"><ele>388.0</ele><time>2026-04-24T12:38:31.945Z</time></trkpt><trkpt lat="34.4055267" lon="7.9743267"><ele>388.0</ele><time>2026-04-24T12:38:32.945Z</time></trkpt><trkpt lat="34.40553" lon="7.9745033"><ele>388.0</ele><time>2026-04-24T12:38:33.945Z</time></trkpt><trkpt lat="34.4055367" lon="7.974685"><ele>388.0</ele><time>2026-04-24T12:38:34.945Z</time></trkpt><trkpt lat="34.40554" lon="7.9748683"><ele>389.6666666666667</ele><time>2026-04-24T12:38:35.945Z</time></trkpt><trkpt lat="34.4055433" lon="7.9750533"><ele>391.33333333333337</ele><time>2026-04-24T12:38:36.945Z</time></trkpt><trkpt lat="34.40555" lon="7.9752433"><ele>393.0</ele><time>2026-04-24T12:38:37.944Z</time></trkpt><trkpt lat="34.405555" lon="7.9754317"><ele>393.0</ele><time>2026-04-24T12:38:38.945Z</time></trkpt><trkpt lat="34.405555" lon="7.9756267"><ele>393.0</ele><time>2026-04-24T12:38:39.945Z</time></trkpt><trkpt lat="34.405555" lon="7.97582"><ele>393.0</ele><time>2026-04-24T12:38:40.945Z</time></trkpt><trkpt lat="34.405545" lon="7.9760183"><ele>392.66666666666663</ele><time>2026-04-24T12:38:41.945Z</time></trkpt><trkpt lat="34.4055517" lon="7.9762167"><ele>392.3333333333333</ele><time>2026-04-24T12:38:42.945Z</time></trkpt><trkpt lat="34.4055617" lon="7.97641"><ele>392.0</ele><time>2026-04-24T12:38:43.944Z</time></trkpt><trkpt lat="34.4055717" lon="7.9766033"><ele>392.3333333333333</ele><time>2026-04-24T12:38:44.945Z</time></trkpt><trkpt lat="34.4055767" lon="7.9767967"><ele>392.66666666666663</ele><time>2026-04-24T12:38:45.945Z</time></trkpt><trkpt lat="34.405585" lon="7.9769933"><ele>393.0</ele><time>2026-04-24T12:38:46.944Z</time></trkpt><trkpt lat="34.4055933" lon="7.977185"><ele>393.0</ele><time>2026-04-24T12:38:47.945Z</time></trkpt><trkpt lat="34.4056067" lon="7.9773733"><ele>393.0</ele><time>2026-04-24T12:38:48.945Z</time></trkpt><trkpt lat="34.4056183" lon="7.9775617"><ele>393.0</ele><time>2026-04-24T12:38:49.945Z</time></trkpt><trkpt lat="34.4056267" lon="7.9777467"><ele>393.5</ele><time>2026-04-24T12:38:50.945Z</time></trkpt><trkpt lat="34.4056383" lon="7.9779233"><ele>394.0</ele><time>2026-04-24T12:38:51.944Z</time></trkpt><trkpt lat="34.4056467" lon="7.9780983"><ele>394.5</ele><time>2026-04-24T12:38:52.945Z</time></trkpt><trkpt lat="34.4056533" lon="7.9782533"><ele>395.0</ele><time>2026-04-24T12:38:53.945Z</time></trkpt><trkpt lat="34.405665" lon="7.9783983"><ele>395.5</ele><time>2026-04-24T12:38:54.945Z</time></trkpt><trkpt lat="34.4056783" lon="7.9785383"><ele>396.0</ele><time>2026-04-24T12:38:55.945Z</time></trkpt><trkpt lat="34.4056883" lon="7.9786783"><ele>396.5</ele><time>2026-04-24T12:38:56.945Z</time></trkpt><trkpt lat="34.4057117" lon="7.9788117"><ele>397.0</ele><time>2026-04-24T12:38:57.945Z</time></trkpt><trkpt lat="34.4057233" lon="7.97895"><ele>397.0</ele><time>2026-04-24T12:38:58.945Z</time></trkpt><trkpt lat="34.4057433" lon="7.9790867"><ele>397.0</ele><time>2026-04-24T12:38:59.944Z</time></trkpt><trkpt lat="34.4057633" lon="7.979235"><ele>397.0</ele><time>2026-04-24T12:39:00.945Z</time></trkpt><trkpt lat="34.4057883" lon="7.979375"><ele>397.0</ele><time>2026-04-24T12:39:01.945Z</time></trkpt><trkpt lat="34.40581" lon="7.97951"><ele>397.25</ele><time>2026-04-24T12:39:02.945Z</time></trkpt><trkpt lat="34.4058517" lon="7.9796433"><ele>397.5</ele><time>2026-04-24T12:39:03.945Z</time></trkpt><trkpt lat="34.4058983" lon="7.9797733"><ele>397.75</ele><time>2026-04-24T12:39:04.945Z</time></trkpt><trkpt lat="34.4059533" lon="7.9799017"><ele>398.0</ele><time>2026-04-24T12:39:05.945Z</time></trkpt><trkpt lat="34.4060167" lon="7.980025"><ele>398.0</ele><time>2026-04-24T12:39:06.945Z</time></trkpt><trkpt lat="34.4060967" lon="7.98014"><ele>398.0</ele><time>2026-04-24T12:39:07.945Z</time></trkpt><trkpt lat="34.406175" lon="7.9802533"><ele>398.0</ele><time>2026-04-24T12:39:08.945Z</time></trkpt><trkpt lat="34.406255" lon="7.9803667"><ele>398.0</ele><time>2026-04-24T12:39:09.945Z</time></trkpt><trkpt lat="34.4063433" lon="7.9804767"><ele>399.0</ele><time>2026-04-24T12:39:10.945Z</time></trkpt><trkpt lat="34.4064267" lon="7.9805767"><ele>400.0</ele><time>2026-04-24T12:39:11.945Z</time></trkpt><trkpt lat="34.406505" lon="7.9806917"><ele>401.0</ele><time>2026-04-24T12:39:12.945Z</time></trkpt><trkpt lat="34.40659" lon="7.9807967"><ele>402.0</ele><time>2026-04-24T12:39:13.944Z</time></trkpt><trkpt lat="34.4066817" lon="7.9809067"><ele>402.0</ele><time>2026-04-24T12:39:14.945Z</time></trkpt><trkpt lat="34.406775" lon="7.9810133"><ele>402.0</ele><time>2026-04-24T12:39:15.945Z</time></trkpt><trkpt lat="34.4068733" lon="7.98112"><ele>402.0</ele><time>2026-04-24T12:39:16.945Z</time></trkpt><trkpt lat="34.406965" lon="7.981235"><ele>402.0</ele><time>2026-04-24T12:39:17.945Z</time></trkpt><trkpt lat="34.4070667" lon="7.9813417"><ele>402.25</ele><time>2026-04-24T12:39:18.945Z</time></trkpt><trkpt lat="34.4071733" lon="7.981455"><ele>402.5</ele><time>2026-04-24T12:39:19.945Z</time></trkpt><trkpt lat="34.4072633" lon="7.98157"><ele>402.75</ele><time>2026-04-24T12:39:20.945Z</time></trkpt><trkpt lat="34.407365" lon="7.9816867"><ele>403.0</ele><time>2026-04-24T12:39:21.944Z</time></trkpt><trkpt lat="34.40746" lon="7.98182"><ele>403.0</ele><time>2026-04-24T12:39:22.944Z</time></trkpt><trkpt lat="34.407545" lon="7.9819517"><ele>403.0</ele><time>2026-04-24T12:39:23.945Z</time></trkpt><trkpt lat="34.4076283" lon="7.9820867"><ele>403.0</ele><time>2026-04-24T12:39:24.944Z</time></trkpt><trkpt lat="34.4077067" lon="7.9822233"><ele>403.0</ele><time>2026-04-24T12:39:25.944Z</time></trkpt><trkpt lat="34.4077817" lon="7.9823733"><ele>404.0</ele><time>2026-04-24T12:39:26.945Z</time></trkpt><trkpt lat="34.4078467" lon="7.9825367"><ele>405.0</ele><time>2026-04-24T12:39:27.944Z</time></trkpt><trkpt lat="34.4079017" lon="7.9827083"><ele>406.0</ele><time>2026-04-24T12:39:28.944Z</time></trkpt><trkpt lat="34.4079467" lon="7.98289"><ele>406.0</ele><time>2026-04-24T12:39:29.945Z</time></trkpt><trkpt lat="34.4079883" lon="7.983065"><ele>406.0</ele><time>2026-04-24T12:39:30.945Z</time></trkpt><trkpt lat="34.40802" lon="7.9832433"><ele>406.0</ele><time>2026-04-24T12:39:31.945Z</time></trkpt><trkpt lat="34.4080517" lon="7.983425"><ele>407.0</ele><time>2026-04-24T12:39:32.945Z</time></trkpt><trkpt lat="34.4080967" lon="7.9836017"><ele>408.0</ele><time>2026-04-24T12:39:33.945Z</time></trkpt><trkpt lat="34.4081333" lon="7.9837883"><ele>409.0</ele><time>2026-04-24T12:39:34.945Z</time></trkpt><trkpt lat="34.4081683" lon="7.983975"><ele>409.0</ele><time>2026-04-24T12:39:35.945Z</time></trkpt><trkpt lat="34.4082067" lon="7.9841633"><ele>409.0</ele><time>2026-04-24T12:39:36.945Z</time></trkpt><trkpt lat="34.4082517" lon="7.9843483"><ele>409.0</ele><time>2026-04-24T12:39:37.945Z</time></trkpt><trkpt lat="34.4082867" lon="7.9845317"><ele>409.33333333333337</ele><time>2026-04-24T12:39:38.945Z</time></trkpt><trkpt lat="34.4083267" lon="7.98471"><ele>409.66666666666663</ele><time>2026-04-24T12:39:39.944Z</time></trkpt><trkpt lat="34.4083583" lon="7.9848917"><ele>410.0</ele><time>2026-04-24T12:39:40.945Z</time></trkpt><trkpt lat="34.4083917" lon="7.9850733"><ele>410.3333333333333</ele><time>2026-04-24T12:39:41.945Z</time></trkpt><trkpt lat="34.40842" lon="7.98526"><ele>410.66666666666663</ele><time>2026-04-24T12:39:42.944Z</time></trkpt><trkpt lat="34.4084483" lon="7.9854417"><ele>411.0</ele><time>2026-04-24T12:39:43.945Z</time></trkpt><trkpt lat="34.4084683" lon="7.9856317"><ele>411.0</ele><time>2026-04-24T12:39:44.945Z</time></trkpt><trkpt lat="34.4084967" lon="7.9858267"><ele>411.0</ele><time>2026-04-24T12:39:45.945Z</time></trkpt><trkpt lat="34.40853" lon="7.9860217"><ele>411.0</ele><time>2026-04-24T12:39:46.945Z</time></trkpt><trkpt lat="34.4085617" lon="7.98622"><ele>411.0</ele><time>2026-04-24T12:39:47.945Z</time></trkpt><trkpt lat="34.4085983" lon="7.9864167"><ele>411.0</ele><time>2026-04-24T12:39:48.945Z</time></trkpt><trkpt lat="34.4086317" lon="7.9866183"><ele>411.0</ele><time>2026-04-24T12:39:49.945Z</time></trkpt><trkpt lat="34.408665" lon="7.986825"><ele>411.0</ele><time>2026-04-24T12:39:50.944Z</time></trkpt><trkpt lat="34.408715" lon="7.9870283"><ele>411.0</ele><time>2026-04-24T12:39:51.945Z</time></trkpt><trkpt lat="34.408765" lon="7.987235"><ele>411.0</ele><time>2026-04-24T12:39:52.945Z</time></trkpt><trkpt lat="34.40884" lon="7.9874283"><ele>412.0</ele><time>2026-04-24T12:39:53.944Z</time></trkpt><trkpt lat="34.408925" lon="7.987625"><ele>413.0</ele><time>2026-04-24T12:39:54.945Z</time></trkpt><trkpt lat="34.408995" lon="7.9878283"><ele>414.0</ele><time>2026-04-24T12:39:55.945Z</time></trkpt><trkpt lat="34.4090783" lon="7.9880217"><ele>414.0</ele><time>2026-04-24T12:39:56.945Z</time></trkpt><trkpt lat="34.4091583" lon="7.98822"><ele>414.0</ele><time>2026-04-24T12:39:57.945Z</time></trkpt><trkpt lat="34.409215" lon="7.9884283"><ele>414.0</ele><time>2026-04-24T12:39:58.944Z</time></trkpt><trkpt lat="34.4092567" lon="7.9886433"><ele>414.33333333333337</ele><time>2026-04-24T12:39:59.944Z</time></trkpt><trkpt lat="34.4092833" lon="7.9888633"><ele>414.6666666666667</ele><time>2026-04-24T12:40:00.944Z</time></trkpt><trkpt lat="34.4093133" lon="7.9890883"><ele>415.0</ele><time>2026-04-24T12:40:01.945Z</time></trkpt><trkpt lat="34.409325" lon="7.9893133"><ele>415.33333333333337</ele><time>2026-04-24T12:40:02.944Z</time></trkpt><trkpt lat="34.4093217" lon="7.9895367"><ele>415.66666666666663</ele><time>2026-04-24T12:40:03.944Z</time></trkpt><trkpt lat="34.4093133" lon="7.9897617"><ele>416.0</ele><time>2026-04-24T12:40:04.945Z</time></trkpt><trkpt lat="34.4092933" lon="7.9899883"><ele>415.66666666666663</ele><time>2026-04-24T12:40:05.945Z</time></trkpt><trkpt lat="34.4092817" lon="7.9902133"><ele>415.33333333333337</ele><time>2026-04-24T12:40:06.945Z</time></trkpt><trkpt lat="34.4092683" lon="7.9904383"><ele>415.0</ele><time>2026-04-24T12:40:07.944Z</time></trkpt><trkpt lat="34.40927" lon="7.9906683"><ele>414.6666666666667</ele><time>2026-04-24T12:40:08.945Z</time></trkpt><trkpt lat="34.4092767" lon="7.9909017"><ele>414.33333333333337</ele><time>2026-04-24T12:40:09.944Z</time></trkpt><trkpt lat="34.4092883" lon="7.9911383"><ele>414.0</ele><time>2026-04-24T12:40:10.945Z</time></trkpt><trkpt lat="34.4092967" lon="7.9913733"><ele>414.0</ele><time>2026-04-24T12:40:11.944Z</time></trkpt><trkpt lat="34.40932" lon="7.9916033"><ele>414.0</ele><time>2026-04-24T12:40:12.944Z</time></trkpt><trkpt lat="34.4093333" lon="7.991835"><ele>414.0</ele><time>2026-04-24T12:40:13.943Z</time></trkpt><trkpt lat="34.4093467" lon="7.9920617"><ele>414.33333333333337</ele><time>2026-04-24T12:40:14.944Z</time></trkpt><trkpt lat="34.4093517" lon="7.9923017"><ele>414.6666666666667</ele><time>2026-04-24T12:40:15.943Z</time></trkpt><trkpt lat="34.40937" lon="7.99253"><ele>415.0</ele><time>2026-04-24T12:40:16.944Z</time></trkpt><trkpt lat="34.409385" lon="7.99276"><ele>415.0</ele><time>2026-04-24T12:40:17.943Z</time></trkpt><trkpt lat="34.4093967" lon="7.992995"><ele>415.0</ele><time>2026-04-24T12:40:18.943Z</time></trkpt><trkpt lat="34.4094067" lon="7.9932283"><ele>415.0</ele><time>2026-04-24T12:40:19.943Z</time></trkpt><trkpt lat="34.40943" lon="7.9934567"><ele>415.6666666666667</ele><time>2026-04-24T12:40:20.943Z</time></trkpt><trkpt lat="34.4094383" lon="7.9937017"><ele>416.33333333333337</ele><time>2026-04-24T12:40:21.944Z</time></trkpt><trkpt lat="34.40945" lon="7.9939333"><ele>417.0</ele><time>2026-04-24T12:40:22.944Z</time></trkpt><trkpt lat="34.4094633" lon="7.9941683"><ele>416.33333333333337</ele><time>2026-04-24T12:40:23.944Z</time></trkpt><trkpt lat="34.4094783" lon="7.9944"><ele>415.6666666666667</ele><time>2026-04-24T12:40:24.944Z</time></trkpt><trkpt lat="34.4094967" lon="7.9946367"><ele>415.0</ele><time>2026-04-24T12:40:25.944Z</time></trkpt><trkpt lat="34.409515" lon="7.9948733"><ele>415.33333333333337</ele><time>2026-04-24T12:40:26.944Z</time></trkpt><trkpt lat="34.4095333" lon="7.9951133"><ele>415.66666666666663</ele><time>2026-04-24T12:40:27.944Z</time></trkpt><trkpt lat="34.40955" lon="7.9953533"><ele>416.0</ele><time>2026-04-24T12:40:28.944Z</time></trkpt><trkpt lat="34.4095617" lon="7.9955983"><ele>416.0</ele><time>2026-04-24T12:40:29.944Z</time></trkpt><trkpt lat="34.4095717" lon="7.9958367"><ele>416.0</ele><time>2026-04-24T12:40:30.944Z</time></trkpt><trkpt lat="34.409575" lon="7.9960783"><ele>416.0</ele><time>2026-04-24T12:40:31.943Z</time></trkpt><trkpt lat="34.409585" lon="7.9963183"><ele>416.3333333333333</ele><time>2026-04-24T12:40:32.943Z</time></trkpt><trkpt lat="34.4095883" lon="7.996565"><ele>416.66666666666663</ele><time>2026-04-24T12:40:33.944Z</time></trkpt><trkpt lat="34.4095883" lon="7.99681"><ele>417.0</ele><time>2026-04-24T12:40:34.943Z</time></trkpt><trkpt lat="34.4095867" lon="7.9970517"><ele>417.66666666666663</ele><time>2026-04-24T12:40:35.943Z</time></trkpt><trkpt lat="34.4095733" lon="7.9972967"><ele>418.3333333333333</ele><time>2026-04-24T12:40:36.943Z</time></trkpt><trkpt lat="34.409555" lon="7.9975317"><ele>419.0</ele><time>2026-04-24T12:40:37.943Z</time></trkpt><trkpt lat="34.4095333" lon="7.997765"><ele>419.66666666666663</ele><time>2026-04-24T12:40:38.944Z</time></trkpt><trkpt lat="34.4095017" lon="7.9979967"><ele>420.33333333333337</ele><time>2026-04-24T12:40:39.944Z</time></trkpt><trkpt lat="34.4094517" lon="7.99823"><ele>421.0</ele><time>2026-04-24T12:40:40.943Z</time></trkpt><trkpt lat="34.4094083" lon="7.9984583"><ele>421.6666666666667</ele><time>2026-04-24T12:40:41.944Z</time></trkpt><trkpt lat="34.4093617" lon="7.99868"><ele>422.33333333333337</ele><time>2026-04-24T12:40:42.944Z</time></trkpt><trkpt lat="34.4093033" lon="7.9989"><ele>423.0</ele><time>2026-04-24T12:40:43.944Z</time></trkpt><trkpt lat="34.40925" lon="7.999125"><ele>423.33333333333337</ele><time>2026-04-24T12:40:44.943Z</time></trkpt><trkpt lat="34.4091933" lon="7.9993483"><ele>423.6666666666667</ele><time>2026-04-24T12:40:45.944Z</time></trkpt><trkpt lat="34.409135" lon="7.99958"><ele>424.0</ele><time>2026-04-24T12:40:46.944Z</time></trkpt><trkpt lat="34.4090917" lon="7.99981"><ele>424.0</ele><time>2026-04-24T12:40:47.944Z</time></trkpt><trkpt lat="34.40905" lon="8.0000383"><ele>424.0</ele><time>2026-04-24T12:40:48.944Z</time></trkpt><trkpt lat="34.4090167" lon="8.000265"><ele>424.0</ele><time>2026-04-24T12:40:49.944Z</time></trkpt><trkpt lat="34.4089983" lon="8.0005033"><ele>424.0</ele><time>2026-04-24T12:40:50.943Z</time></trkpt><trkpt lat="34.408995" lon="8.0007417"><ele>424.0</ele><time>2026-04-24T12:40:51.944Z</time></trkpt><trkpt lat="34.4089983" lon="8.0009817"><ele>424.0</ele><time>2026-04-24T12:40:52.944Z</time></trkpt><trkpt lat="34.4090233" lon="8.0012167"><ele>424.0</ele><time>2026-04-24T12:40:53.944Z</time></trkpt><trkpt lat="34.4090567" lon="8.0014483"><ele>424.0</ele><time>2026-04-24T12:40:54.944Z</time></trkpt><trkpt lat="34.4090933" lon="8.0016817"><ele>424.0</ele><time>2026-04-24T12:40:55.943Z</time></trkpt><trkpt lat="34.409125" lon="8.0019133"><ele>424.0</ele><time>2026-04-24T12:40:56.943Z</time></trkpt><trkpt lat="34.409165" lon="8.00215"><ele>424.0</ele><time>2026-04-24T12:40:57.944Z</time></trkpt><trkpt lat="34.4092083" lon="8.0023783"><ele>424.0</ele><time>2026-04-24T12:40:58.944Z</time></trkpt><trkpt lat="34.4092517" lon="8.0026067"><ele>424.6666666666667</ele><time>2026-04-24T12:40:59.944Z</time></trkpt><trkpt lat="34.40929" lon="8.0028383"><ele>425.33333333333337</ele><time>2026-04-24T12:41:00.944Z</time></trkpt><trkpt lat="34.4093317" lon="8.0030617"><ele>426.0</ele><time>2026-04-24T12:41:01.943Z</time></trkpt><trkpt lat="34.4093767" lon="8.0032867"><ele>425.66666666666663</ele><time>2026-04-24T12:41:02.944Z</time></trkpt><trkpt lat="34.40943" lon="8.0035083"><ele>425.3333333333333</ele><time>2026-04-24T12:41:03.943Z</time></trkpt><trkpt lat="34.4094817" lon="8.00373"><ele>425.0</ele><time>2026-04-24T12:41:04.944Z</time></trkpt><trkpt lat="34.409525" lon="8.0039583"><ele>426.0</ele><time>2026-04-24T12:41:05.944Z</time></trkpt><trkpt lat="34.40957" lon="8.0041883"><ele>427.0</ele><time>2026-04-24T12:41:06.944Z</time></trkpt><trkpt lat="34.4096167" lon="8.0044233"><ele>428.0</ele><time>2026-04-24T12:41:07.944Z</time></trkpt><trkpt lat="34.4096517" lon="8.004665"><ele>428.0</ele><time>2026-04-24T12:41:08.944Z</time></trkpt><trkpt lat="34.4096883" lon="8.0049033"><ele>428.0</ele><time>2026-04-24T12:41:09.944Z</time></trkpt><trkpt lat="34.4097167" lon="8.0051417"><ele>428.0</ele><time>2026-04-24T12:41:10.944Z</time></trkpt><trkpt lat="34.40973" lon="8.0053783"><ele>429.0</ele><time>2026-04-24T12:41:11.943Z</time></trkpt><trkpt lat="34.4097383" lon="8.0056167"><ele>430.0</ele><time>2026-04-24T12:41:12.943Z</time></trkpt><trkpt lat="34.40973" lon="8.0058517"><ele>431.0</ele><time>2026-04-24T12:41:13.944Z</time></trkpt><trkpt lat="34.4097083" lon="8.0060867"><ele>430.66666666666663</ele><time>2026-04-24T12:41:14.944Z</time></trkpt><trkpt lat="34.4096733" lon="8.00632"><ele>430.33333333333337</ele><time>2026-04-24T12:41:15.944Z</time></trkpt><trkpt lat="34.4096433" lon="8.0065583"><ele>430.0</ele><time>2026-04-24T12:41:16.944Z</time></trkpt><trkpt lat="34.4096017" lon="8.0068017"><ele>431.33333333333337</ele><time>2026-04-24T12:41:17.944Z</time></trkpt><trkpt lat="34.40956" lon="8.0070417"><ele>432.66666666666663</ele><time>2026-04-24T12:41:18.944Z</time></trkpt><trkpt lat="34.40952" lon="8.0072817"><ele>434.0</ele><time>2026-04-24T12:41:19.944Z</time></trkpt><trkpt lat="34.4094833" lon="8.0075233"><ele>434.0</ele><time>2026-04-24T12:41:20.943Z</time></trkpt><trkpt lat="34.409445" lon="8.007765"><ele>434.0</ele><time>2026-04-24T12:41:21.943Z</time></trkpt><trkpt lat="34.4094067" lon="8.00801"><ele>434.0</ele><time>2026-04-24T12:41:22.943Z</time></trkpt><trkpt lat="34.4093683" lon="8.0082533"><ele>434.0</ele><time>2026-04-24T12:41:23.944Z</time></trkpt><trkpt lat="34.4093217" lon="8.0084983"><ele>434.0</ele><time>2026-04-24T12:41:24.944Z</time></trkpt><trkpt lat="34.4092617" lon="8.008745"><ele>434.0</ele><time>2026-04-24T12:41:25.944Z</time></trkpt><trkpt lat="34.4092167" lon="8.0089967"><ele>434.66666666666663</ele><time>2026-04-24T12:41:26.944Z</time></trkpt><trkpt lat="34.40917" lon="8.0092433"><ele>435.33333333333337</ele><time>2026-04-24T12:41:27.944Z</time></trkpt><trkpt lat="34.4091317" lon="8.0094933"><ele>436.0</ele><time>2026-04-24T12:41:28.944Z</time></trkpt><trkpt lat="34.409095" lon="8.00974"><ele>436.0</ele><time>2026-04-24T12:41:29.944Z</time></trkpt><trkpt lat="34.4090483" lon="8.0099933"><ele>436.0</ele><time>2026-04-24T12:41:30.943Z</time></trkpt><trkpt lat="34.409005" lon="8.010245"><ele>436.0</ele><time>2026-04-24T12:41:31.943Z</time></trkpt><trkpt lat="34.4089617" lon="8.0104933"><ele>436.0</ele><time>2026-04-24T12:41:32.943Z</time></trkpt><trkpt lat="34.4089183" lon="8.0107433"><ele>436.0</ele><time>2026-04-24T12:41:33.943Z</time></trkpt><trkpt lat="34.4088767" lon="8.0109767"><ele>436.0</ele><time>2026-04-24T12:41:34.943Z</time></trkpt><trkpt lat="34.4088317" lon="8.0112083"><ele>437.6666666666667</ele><time>2026-04-24T12:41:35.944Z</time></trkpt><trkpt lat="34.4087867" lon="8.011435"><ele>439.33333333333337</ele><time>2026-04-24T12:41:36.944Z</time></trkpt><trkpt lat="34.4087417" lon="8.011665"><ele>441.0</ele><time>2026-04-24T12:41:37.943Z</time></trkpt><trkpt lat="34.408685" lon="8.0118933"><ele>442.66666666666663</ele><time>2026-04-24T12:41:38.943Z</time></trkpt><trkpt lat="34.408635" lon="8.0121183"><ele>444.3333333333333</ele><time>2026-04-24T12:41:39.944Z</time></trkpt><trkpt lat="34.4085917" lon="8.01235"><ele>446.0</ele><time>2026-04-24T12:41:40.944Z</time></trkpt><trkpt lat="34.40855" lon="8.0125833"><ele>446.3333333333333</ele><time>2026-04-24T12:41:41.944Z</time></trkpt><trkpt lat="34.40851" lon="8.0128117"><ele>446.66666666666663</ele><time>2026-04-24T12:41:42.943Z</time></trkpt><trkpt lat="34.4084667" lon="8.0130417"><ele>447.0</ele><time>2026-04-24T12:41:43.944Z</time></trkpt><trkpt lat="34.4084183" lon="8.0132733"><ele>447.66666666666663</ele><time>2026-04-24T12:41:44.944Z</time></trkpt><trkpt lat="34.40836" lon="8.013505"><ele>448.3333333333333</ele><time>2026-04-24T12:41:45.944Z</time></trkpt><trkpt lat="34.4083083" lon="8.01373"><ele>449.0</ele><time>2026-04-24T12:41:46.944Z</time></trkpt><trkpt lat="34.4082567" lon="8.013955"><ele>448.66666666666663</ele><time>2026-04-24T12:41:47.944Z</time></trkpt><trkpt lat="34.4082017" lon="8.014175"><ele>448.33333333333337</ele><time>2026-04-24T12:41:48.943Z</time></trkpt><trkpt lat="34.4081283" lon="8.0143967"><ele>448.0</ele><time>2026-04-24T12:41:49.944Z</time></trkpt><trkpt lat="34.4080533" lon="8.0146217"><ele>447.33333333333337</ele><time>2026-04-24T12:41:50.943Z</time></trkpt><trkpt lat="34.4079833" lon="8.0148533"><ele>446.66666666666663</ele><time>2026-04-24T12:41:51.943Z</time></trkpt><trkpt lat="34.4079183" lon="8.0150833"><ele>446.0</ele><time>2026-04-24T12:41:52.943Z</time></trkpt><trkpt lat="34.4078483" lon="8.0153117"><ele>446.0</ele><time>2026-04-24T12:41:53.944Z</time></trkpt><trkpt lat="34.40777" lon="8.015545"><ele>446.0</ele><time>2026-04-24T12:41:54.944Z</time></trkpt><trkpt lat="34.40771" lon="8.0157717"><ele>446.0</ele><time>2026-04-24T12:41:55.944Z</time></trkpt><trkpt lat="34.4076517" lon="8.0159967"><ele>446.66666666666663</ele><time>2026-04-24T12:41:56.944Z</time></trkpt><trkpt lat="34.4075967" lon="8.01623"><ele>447.33333333333337</ele><time>2026-04-24T12:41:57.943Z</time></trkpt><trkpt lat="34.40755" lon="8.016475"><ele>448.0</ele><time>2026-04-24T12:41:58.943Z</time></trkpt><trkpt lat="34.40751" lon="8.016715"><ele>449.33333333333337</ele><time>2026-04-24T12:41:59.944Z</time></trkpt><trkpt lat="34.4074867" lon="8.016955"><ele>450.66666666666663</ele><time>2026-04-24T12:42:00.944Z</time></trkpt><trkpt lat="34.4074683" lon="8.0171933"><ele>452.0</ele><time>2026-04-24T12:42:01.944Z</time></trkpt><trkpt lat="34.4074533" lon="8.017435"><ele>452.0</ele><time>2026-04-24T12:42:02.944Z</time></trkpt><trkpt lat="34.4074517" lon="8.0176767"><ele>452.0</ele><time>2026-04-24T12:42:03.943Z</time></trkpt><trkpt lat="34.40745" lon="8.0179217"><ele>452.0</ele><time>2026-04-24T12:42:04.944Z</time></trkpt><trkpt lat="34.4074433" lon="8.018165"><ele>452.0</ele><time>2026-04-24T12:42:05.944Z</time></trkpt><trkpt lat="34.4074333" lon="8.018405"><ele>452.0</ele><time>2026-04-24T12:42:06.944Z</time></trkpt><trkpt lat="34.4074267" lon="8.0186467"><ele>452.0</ele><time>2026-04-24T12:42:07.944Z</time></trkpt><trkpt lat="34.407415" lon="8.0188883"><ele>452.0</ele><time>2026-04-24T12:42:08.944Z</time></trkpt><trkpt lat="34.4074" lon="8.01913"><ele>452.0</ele><time>2026-04-24T12:42:09.944Z</time></trkpt><trkpt lat="34.4073917" lon="8.0193733"><ele>452.0</ele><time>2026-04-24T12:42:10.944Z</time></trkpt><trkpt lat="34.4073783" lon="8.0196233"><ele>452.66666666666663</ele><time>2026-04-24T12:42:11.944Z</time></trkpt><trkpt lat="34.4073617" lon="8.0198683"><ele>453.33333333333337</ele><time>2026-04-24T12:42:12.943Z</time></trkpt><trkpt lat="34.4073483" lon="8.0201133"><ele>454.0</ele><time>2026-04-24T12:42:13.944Z</time></trkpt><trkpt lat="34.4073517" lon="8.02036"><ele>454.0</ele><time>2026-04-24T12:42:14.944Z</time></trkpt><trkpt lat="34.4073567" lon="8.020605"><ele>454.0</ele><time>2026-04-24T12:42:15.944Z</time></trkpt><trkpt lat="34.40738" lon="8.0208483"><ele>454.0</ele><time>2026-04-24T12:42:16.944Z</time></trkpt><trkpt lat="34.4074117" lon="8.0210933"><ele>453.6666666666667</ele><time>2026-04-24T12:42:17.944Z</time></trkpt><trkpt lat="34.4074483" lon="8.0213317"><ele>453.33333333333337</ele><time>2026-04-24T12:42:18.943Z</time></trkpt><trkpt lat="34.4075067" lon="8.0215633"><ele>453.0</ele><time>2026-04-24T12:42:19.944Z</time></trkpt><trkpt lat="34.4075767" lon="8.0217867"><ele>453.66666666666663</ele><time>2026-04-24T12:42:20.944Z</time></trkpt><trkpt lat="34.4076517" lon="8.022015"><ele>454.3333333333333</ele><time>2026-04-24T12:42:21.944Z</time></trkpt><trkpt lat="34.4077283" lon="8.0222417"><ele>455.0</ele><time>2026-04-24T12:42:22.943Z</time></trkpt><trkpt lat="34.4078017" lon="8.02247"><ele>455.3333333333333</ele><time>2026-04-24T12:42:23.944Z</time></trkpt><trkpt lat="34.4078783" lon="8.0227033"><ele>455.66666666666663</ele><time>2026-04-24T12:42:24.944Z</time></trkpt><trkpt lat="34.407945" lon="8.0229433"><ele>456.0</ele><time>2026-04-24T12:42:25.944Z</time></trkpt><trkpt lat="34.40801" lon="8.023185"><ele>453.66666666666663</ele><time>2026-04-24T12:42:26.944Z</time></trkpt><trkpt lat="34.4080733" lon="8.0234233"><ele>451.3333333333333</ele><time>2026-04-24T12:42:27.944Z</time></trkpt><trkpt lat="34.4081433" lon="8.0236633"><ele>449.0</ele><time>2026-04-24T12:42:28.943Z</time></trkpt><trkpt lat="34.40822" lon="8.0238917"><ele>449.0</ele><time>2026-04-24T12:42:29.944Z</time></trkpt><trkpt lat="34.40829" lon="8.0241267"><ele>449.0</ele><time>2026-04-24T12:42:30.943Z</time></trkpt><trkpt lat="34.4083617" lon="8.024365"><ele>449.0</ele><time>2026-04-24T12:42:31.944Z</time></trkpt><trkpt lat="34.40843" lon="8.0246083"><ele>449.3333333333333</ele><time>2026-04-24T12:42:32.944Z</time></trkpt><trkpt lat="34.40849" lon="8.024855"><ele>449.66666666666663</ele><time>2026-04-24T12:42:33.944Z</time></trkpt><trkpt lat="34.408565" lon="8.0250967"><ele>450.0</ele><time>2026-04-24T12:42:34.944Z</time></trkpt><trkpt lat="34.408635" lon="8.0253383"><ele>450.33333333333337</ele><time>2026-04-24T12:42:35.944Z</time></trkpt><trkpt lat="34.4087067" lon="8.0255717"><ele>450.6666666666667</ele><time>2026-04-24T12:42:36.944Z</time></trkpt><trkpt lat="34.4087783" lon="8.02581"><ele>451.0</ele><time>2026-04-24T12:42:37.944Z</time></trkpt><trkpt lat="34.4088483" lon="8.02605"><ele>451.0</ele><time>2026-04-24T12:42:38.943Z</time></trkpt><trkpt lat="34.408915" lon="8.0262883"><ele>451.0</ele><time>2026-04-24T12:42:39.943Z</time></trkpt><trkpt lat="34.4089833" lon="8.026525"><ele>451.0</ele><time>2026-04-24T12:42:40.943Z</time></trkpt><trkpt lat="34.409055" lon="8.026765"><ele>450.6666666666667</ele><time>2026-04-24T12:42:41.944Z</time></trkpt><trkpt lat="34.40913" lon="8.0270067"><ele>450.33333333333337</ele><time>2026-04-24T12:42:42.944Z</time></trkpt><trkpt lat="34.4091983" lon="8.02725"><ele>450.0</ele><time>2026-04-24T12:42:43.944Z</time></trkpt><trkpt lat="34.4092717" lon="8.027495"><ele>450.0</ele><time>2026-04-24T12:42:44.944Z</time></trkpt><trkpt lat="34.40935" lon="8.0277317"><ele>450.0</ele><time>2026-04-24T12:42:45.944Z</time></trkpt><trkpt lat="34.409425" lon="8.0279783"><ele>450.0</ele><time>2026-04-24T12:42:46.944Z</time></trkpt><trkpt lat="34.4095033" lon="8.0282317"><ele>450.0</ele><time>2026-04-24T12:42:47.944Z</time></trkpt><trkpt lat="34.4095767" lon="8.028485"><ele>450.0</ele><time>2026-04-24T12:42:48.944Z</time></trkpt><trkpt lat="34.409655" lon="8.0287417"><ele>450.0</ele><time>2026-04-24T12:42:49.943Z</time></trkpt><trkpt lat="34.4097317" lon="8.028995"><ele>450.0</ele><time>2026-04-24T12:42:50.944Z</time></trkpt><trkpt lat="34.409805" lon="8.0292483"><ele>450.0</ele><time>2026-04-24T12:42:51.943Z</time></trkpt><trkpt lat="34.409885" lon="8.0294933"><ele>450.0</ele><time>2026-04-24T12:42:52.943Z</time></trkpt><trkpt lat="34.4099633" lon="8.02974"><ele>451.0</ele><time>2026-04-24T12:42:53.943Z</time></trkpt><trkpt lat="34.41004" lon="8.0299967"><ele>452.0</ele><time>2026-04-24T12:42:54.944Z</time></trkpt><trkpt lat="34.410115" lon="8.0302533"><ele>452.0</ele><time>2026-04-24T12:42:55.944Z</time></trkpt><trkpt lat="34.4101917" lon="8.0305233"><ele>452.0</ele><time>2026-04-24T12:42:56.944Z</time></trkpt><trkpt lat="34.4102683" lon="8.0307883"><ele>453.0</ele><time>2026-04-24T12:42:57.944Z</time></trkpt><trkpt lat="34.4103467" lon="8.0310517"><ele>454.0</ele><time>2026-04-24T12:42:58.944Z</time></trkpt><trkpt lat="34.4104183" lon="8.0313217"><ele>454.0</ele><time>2026-04-24T12:42:59.944Z</time></trkpt><trkpt lat="34.4104883" lon="8.0315883"><ele>454.0</ele><time>2026-04-24T12:43:00.944Z</time></trkpt><trkpt lat="34.41054" lon="8.03186"><ele>452.5</ele><time>2026-04-24T12:43:01.944Z</time></trkpt><trkpt lat="34.41059" lon="8.0321383"><ele>451.0</ele><time>2026-04-24T12:43:02.944Z</time></trkpt><trkpt lat="34.4106383" lon="8.0324067"><ele>451.5</ele><time>2026-04-24T12:43:03.944Z</time></trkpt><trkpt lat="34.4106783" lon="8.0326717"><ele>452.0</ele><time>2026-04-24T12:43:04.944Z</time></trkpt><trkpt lat="34.4107117" lon="8.032945"><ele>452.0</ele><time>2026-04-24T12:43:05.944Z</time></trkpt><trkpt lat="34.4107517" lon="8.0332217"><ele>452.0</ele><time>2026-04-24T12:43:06.943Z</time></trkpt><trkpt lat="34.41079" lon="8.0335"><ele>454.0</ele><time>2026-04-24T12:43:07.944Z</time></trkpt><trkpt lat="34.41083" lon="8.0337783"><ele>456.0</ele><time>2026-04-24T12:43:08.944Z</time></trkpt><trkpt lat="34.4108717" lon="8.03406"><ele>455.0</ele><time>2026-04-24T12:43:09.943Z</time></trkpt><trkpt lat="34.4109067" lon="8.0343417"><ele>454.0</ele><time>2026-04-24T12:43:10.944Z</time></trkpt><trkpt lat="34.4109483" lon="8.0346217"><ele>454.0</ele><time>2026-04-24T12:43:11.944Z</time></trkpt><trkpt lat="34.410995" lon="8.034905"><ele>454.0</ele><time>2026-04-24T12:43:12.943Z</time></trkpt><trkpt lat="34.4110383" lon="8.03519"><ele>453.5</ele><time>2026-04-24T12:43:13.944Z</time></trkpt><trkpt lat="34.4110867" lon="8.0354733"><ele>453.0</ele><time>2026-04-24T12:43:14.944Z</time></trkpt><trkpt lat="34.41113" lon="8.0357533"><ele>454.5</ele><time>2026-04-24T12:43:15.944Z</time></trkpt><trkpt lat="34.4111717" lon="8.0360417"><ele>456.0</ele><time>2026-04-24T12:43:16.944Z</time></trkpt><trkpt lat="34.41121" lon="8.036325"><ele>456.0</ele><time>2026-04-24T12:43:17.944Z</time></trkpt><trkpt lat="34.4112533" lon="8.0366067"><ele>456.0</ele><time>2026-04-24T12:43:18.943Z</time></trkpt><trkpt lat="34.4112917" lon="8.0368883"><ele>454.5</ele><time>2026-04-24T12:43:19.943Z</time></trkpt><trkpt lat="34.4113367" lon="8.0371733"><ele>453.0</ele><time>2026-04-24T12:43:20.944Z</time></trkpt><trkpt lat="34.4113767" lon="8.0374567"><ele>451.5</ele><time>2026-04-24T12:43:21.944Z</time></trkpt><trkpt lat="34.41142" lon="8.03774"><ele>450.0</ele><time>2026-04-24T12:43:22.944Z</time></trkpt><trkpt lat="34.411465" lon="8.0380167"><ele>450.0</ele><time>2026-04-24T12:43:23.943Z</time></trkpt><trkpt lat="34.4115" lon="8.0383017"><ele>450.0</ele><time>2026-04-24T12:43:24.944Z</time></trkpt><trkpt lat="34.4115417" lon="8.0385867"><ele>450.0</ele><time>2026-04-24T12:43:25.944Z</time></trkpt><trkpt lat="34.4115817" lon="8.0388733"><ele>450.0</ele><time>2026-04-24T12:43:26.943Z</time></trkpt><trkpt lat="34.4116283" lon="8.03915"><ele>451.5</ele><time>2026-04-24T12:43:27.944Z</time></trkpt><trkpt lat="34.4116683" lon="8.0394267"><ele>453.0</ele><time>2026-04-24T12:43:28.944Z</time></trkpt><trkpt lat="34.4117117" lon="8.0397117"><ele>454.0</ele><time>2026-04-24T12:43:29.944Z</time></trkpt><trkpt lat="34.4117533" lon="8.0400017"><ele>455.0</ele><time>2026-04-24T12:43:30.944Z</time></trkpt><trkpt lat="34.4117933" lon="8.0402883"><ele>455.0</ele><time>2026-04-24T12:43:31.944Z</time></trkpt><trkpt lat="34.4118333" lon="8.0405733"><ele>455.0</ele><time>2026-04-24T12:43:32.944Z</time></trkpt><trkpt lat="34.4118733" lon="8.0408533"><ele>455.5</ele><time>2026-04-24T12:43:33.943Z</time></trkpt><trkpt lat="34.4119267" lon="8.041135"><ele>456.0</ele><time>2026-04-24T12:43:34.944Z</time></trkpt><trkpt lat="34.4119733" lon="8.041415"><ele>457.5</ele><time>2026-04-24T12:43:35.943Z</time></trkpt><trkpt lat="34.4120117" lon="8.0417017"><ele>459.0</ele><time>2026-04-24T12:43:36.944Z</time></trkpt><trkpt lat="34.4120533" lon="8.04199"><ele>459.0</ele><time>2026-04-24T12:43:37.944Z</time></trkpt><trkpt lat="34.4120983" lon="8.0422733"><ele>459.0</ele><time>2026-04-24T12:43:38.944Z</time></trkpt><trkpt lat="34.412135" lon="8.042555"><ele>458.0</ele><time>2026-04-24T12:43:39.944Z</time></trkpt><trkpt lat="34.4121717" lon="8.0428367"><ele>457.0</ele><time>2026-04-24T12:43:40.944Z</time></trkpt><trkpt lat="34.4122133" lon="8.04312"><ele>457.0</ele><time>2026-04-24T12:43:41.943Z</time></trkpt><trkpt lat="34.4122633" lon="8.043395"><ele>457.0</ele><time>2026-04-24T12:43:42.944Z</time></trkpt><trkpt lat="34.4123083" lon="8.0436717"><ele>457.0</ele><time>2026-04-24T12:43:43.944Z</time></trkpt><trkpt lat="34.4123533" lon="8.0439517"><ele>457.0</ele><time>2026-04-24T12:43:44.943Z</time></trkpt><trkpt lat="34.4123967" lon="8.0442333"><ele>457.5</ele><time>2026-04-24T12:43:45.944Z</time></trkpt><trkpt lat="34.4124417" lon="8.044515"><ele>458.0</ele><time>2026-04-24T12:43:46.943Z</time></trkpt><trkpt lat="34.4124833" lon="8.0447933"><ele>457.5</ele><time>2026-04-24T12:43:47.944Z</time></trkpt><trkpt lat="34.41253" lon="8.0450683"><ele>457.0</ele><time>2026-04-24T12:43:48.944Z</time></trkpt><trkpt lat="34.4125783" lon="8.0453483"><ele>457.0</ele><time>2026-04-24T12:43:49.943Z</time></trkpt><trkpt lat="34.4126233" lon="8.0456333"><ele>457.0</ele><time>2026-04-24T12:43:50.942Z</time></trkpt><trkpt lat="34.412675" lon="8.045905"><ele>458.0</ele><time>2026-04-24T12:43:51.942Z</time></trkpt><trkpt lat="34.4127283" lon="8.046185"><ele>459.0</ele><time>2026-04-24T12:43:52.943Z</time></trkpt><trkpt lat="34.4127817" lon="8.0464583"><ele>459.5</ele><time>2026-04-24T12:43:53.943Z</time></trkpt><trkpt lat="34.412825" lon="8.0467383"><ele>460.0</ele><time>2026-04-24T12:43:54.943Z</time></trkpt><trkpt lat="34.4128717" lon="8.0470133"><ele>460.0</ele><time>2026-04-24T12:43:55.943Z</time></trkpt><trkpt lat="34.4129217" lon="8.047295"><ele>460.0</ele><time>2026-04-24T12:43:56.943Z</time></trkpt><trkpt lat="34.4129683" lon="8.0475667"><ele>460.0</ele><time>2026-04-24T12:43:57.943Z</time></trkpt><trkpt lat="34.41302" lon="8.0478433"><ele>460.0</ele><time>2026-04-24T12:43:58.943Z</time></trkpt><trkpt lat="34.413075" lon="8.0481167"><ele>460.0</ele><time>2026-04-24T12:43:59.942Z</time></trkpt><trkpt lat="34.4131233" lon="8.0483933"><ele>460.0</ele><time>2026-04-24T12:44:00.943Z</time></trkpt><trkpt lat="34.4131767" lon="8.0486683"><ele>460.0</ele><time>2026-04-24T12:44:01.943Z</time></trkpt><trkpt lat="34.4132283" lon="8.0489417"><ele>460.0</ele><time>2026-04-24T12:44:02.942Z</time></trkpt><trkpt lat="34.4132817" lon="8.0492183"><ele>461.5</ele><time>2026-04-24T12:44:03.943Z</time></trkpt><trkpt lat="34.4133383" lon="8.04949"><ele>463.0</ele><time>2026-04-24T12:44:04.943Z</time></trkpt><trkpt lat="34.413385" lon="8.04977"><ele>463.0</ele><time>2026-04-24T12:44:05.943Z</time></trkpt><trkpt lat="34.4134367" lon="8.0500417"><ele>463.0</ele><time>2026-04-24T12:44:06.943Z</time></trkpt><trkpt lat="34.4134783" lon="8.0503233"><ele>463.0</ele><time>2026-04-24T12:44:07.943Z</time></trkpt><trkpt lat="34.4135117" lon="8.0505967"><ele>463.0</ele><time>2026-04-24T12:44:08.943Z</time></trkpt><trkpt lat="34.4135383" lon="8.0508767"><ele>462.5</ele><time>2026-04-24T12:44:09.943Z</time></trkpt><trkpt lat="34.413565" lon="8.0511567"><ele>462.0</ele><time>2026-04-24T12:44:10.942Z</time></trkpt><trkpt lat="34.41358" lon="8.0514383"><ele>462.5</ele><time>2026-04-24T12:44:11.943Z</time></trkpt><trkpt lat="34.4135933" lon="8.0517167"><ele>463.0</ele><time>2026-04-24T12:44:12.943Z</time></trkpt><trkpt lat="34.4136083" lon="8.0519917"><ele>463.0</ele><time>2026-04-24T12:44:13.943Z</time></trkpt><trkpt lat="34.413625" lon="8.0522733"><ele>463.0</ele><time>2026-04-24T12:44:14.943Z</time></trkpt><trkpt lat="34.4136333" lon="8.0525483"><ele>462.5</ele><time>2026-04-24T12:44:15.943Z</time></trkpt><trkpt lat="34.4136433" lon="8.0528383"><ele>462.0</ele><time>2026-04-24T12:44:16.943Z</time></trkpt><trkpt lat="34.4136517" lon="8.05312"><ele>462.5</ele><time>2026-04-24T12:44:17.943Z</time></trkpt><trkpt lat="34.413665" lon="8.0534033"><ele>463.0</ele><time>2026-04-24T12:44:18.942Z</time></trkpt><trkpt lat="34.413685" lon="8.0536833"><ele>463.0</ele><time>2026-04-24T12:44:19.943Z</time></trkpt><trkpt lat="34.413695" lon="8.0539683"><ele>463.0</ele><time>2026-04-24T12:44:20.943Z</time></trkpt><trkpt lat="34.4137033" lon="8.054255"><ele>463.0</ele><time>2026-04-24T12:44:21.942Z</time></trkpt><trkpt lat="34.4137183" lon="8.054535"><ele>463.0</ele><time>2026-04-24T12:44:22.943Z</time></trkpt><trkpt lat="34.41373" lon="8.0548217"><ele>463.5</ele><time>2026-04-24T12:44:23.943Z</time></trkpt><trkpt lat="34.41374" lon="8.0551017"><ele>464.0</ele><time>2026-04-24T12:44:24.943Z</time></trkpt><trkpt lat="34.4137533" lon="8.0553917"><ele>464.0</ele><time>2026-04-24T12:44:25.942Z</time></trkpt><trkpt lat="34.413765" lon="8.055675"><ele>464.0</ele><time>2026-04-24T12:44:26.942Z</time></trkpt><trkpt lat="34.4137717" lon="8.0559617"><ele>464.5</ele><time>2026-04-24T12:44:27.943Z</time></trkpt><trkpt lat="34.4137817" lon="8.0562533"><ele>465.0</ele><time>2026-04-24T12:44:28.943Z</time></trkpt><trkpt lat="34.41379" lon="8.05654"><ele>464.0</ele><time>2026-04-24T12:44:29.942Z</time></trkpt><trkpt lat="34.4137983" lon="8.0568283"><ele>463.0</ele><time>2026-04-24T12:44:30.943Z</time></trkpt><trkpt lat="34.4138133" lon="8.057125"><ele>462.5</ele><time>2026-04-24T12:44:31.942Z</time></trkpt><trkpt lat="34.413825" lon="8.0574183"><ele>462.0</ele><time>2026-04-24T12:44:32.943Z</time></trkpt><trkpt lat="34.4138383" lon="8.0577083"><ele>463.5</ele><time>2026-04-24T12:44:33.943Z</time></trkpt><trkpt lat="34.413855" lon="8.057995"><ele>465.0</ele><time>2026-04-24T12:44:34.943Z</time></trkpt><trkpt lat="34.4138667" lon="8.05829"><ele>465.0</ele><time>2026-04-24T12:44:35.942Z</time></trkpt><trkpt lat="34.4138767" lon="8.0585917"><ele>465.0</ele><time>2026-04-24T12:44:36.943Z</time></trkpt><trkpt lat="34.4138867" lon="8.0588817"><ele>466.0</ele><time>2026-04-24T12:44:37.943Z</time></trkpt><trkpt lat="34.4139" lon="8.05917"><ele>467.0</ele><time>2026-04-24T12:44:38.943Z</time></trkpt><trkpt lat="34.413905" lon="8.05946"><ele>467.0</ele><time>2026-04-24T12:44:39.942Z</time></trkpt><trkpt lat="34.4139133" lon="8.05975"><ele>467.0</ele><time>2026-04-24T12:44:40.943Z</time></trkpt><trkpt lat="34.4139217" lon="8.0600417"><ele>467.0</ele><time>2026-04-24T12:44:41.943Z</time></trkpt><trkpt lat="34.4139367" lon="8.0603283"><ele>467.0</ele><time>2026-04-24T12:44:42.942Z</time></trkpt><trkpt lat="34.4139433" lon="8.0606167"><ele>467.0</ele><time>2026-04-24T12:44:43.943Z</time></trkpt><trkpt lat="34.4139567" lon="8.0609"><ele>467.0</ele><time>2026-04-24T12:44:44.943Z</time></trkpt><trkpt lat="34.4139683" lon="8.0611917"><ele>467.0</ele><time>2026-04-24T12:44:45.943Z</time></trkpt><trkpt lat="34.4139817" lon="8.0614783"><ele>467.0</ele><time>2026-04-24T12:44:46.943Z</time></trkpt><trkpt lat="34.413995" lon="8.0617617"><ele>468.5</ele><time>2026-04-24T12:44:47.943Z</time></trkpt><trkpt lat="34.4140133" lon="8.0620417"><ele>470.0</ele><time>2026-04-24T12:44:48.943Z</time></trkpt><trkpt lat="34.4140233" lon="8.062325"><ele>468.5</ele><time>2026-04-24T12:44:49.942Z</time></trkpt><trkpt lat="34.4140367" lon="8.0626133"><ele>467.0</ele><time>2026-04-24T12:44:50.943Z</time></trkpt><trkpt lat="34.41405" lon="8.0629083"><ele>467.0</ele><time>2026-04-24T12:44:51.943Z</time></trkpt><trkpt lat="34.41406" lon="8.0631967"><ele>467.0</ele><time>2026-04-24T12:44:52.942Z</time></trkpt><trkpt lat="34.4140733" lon="8.0634817"><ele>467.5</ele><time>2026-04-24T12:44:53.942Z</time></trkpt><trkpt lat="34.4140767" lon="8.0637717"><ele>468.0</ele><time>2026-04-24T12:44:54.943Z</time></trkpt><trkpt lat="34.4140867" lon="8.064055"><ele>468.5</ele><time>2026-04-24T12:44:55.942Z</time></trkpt><trkpt lat="34.4141017" lon="8.0643417"><ele>469.0</ele><time>2026-04-24T12:44:56.943Z</time></trkpt><trkpt lat="34.4141133" lon="8.0646233"><ele>469.0</ele><time>2026-04-24T12:44:57.943Z</time></trkpt><trkpt lat="34.414125" lon="8.0649083"><ele>469.0</ele><time>2026-04-24T12:44:58.943Z</time></trkpt><trkpt lat="34.4141317" lon="8.0651883"><ele>470.0</ele><time>2026-04-24T12:44:59.943Z</time></trkpt><trkpt lat="34.4141367" lon="8.065475"><ele>471.0</ele><time>2026-04-24T12:45:00.943Z</time></trkpt><trkpt lat="34.4141383" lon="8.06576"><ele>470.5</ele><time>2026-04-24T12:45:01.943Z</time></trkpt><trkpt lat="34.414135" lon="8.0660433"><ele>470.0</ele><time>2026-04-24T12:45:02.942Z</time></trkpt><trkpt lat="34.4141167" lon="8.0663233"><ele>470.0</ele><time>2026-04-24T12:45:03.942Z</time></trkpt><trkpt lat="34.4140817" lon="8.0666083"><ele>470.0</ele><time>2026-04-24T12:45:04.943Z</time></trkpt><trkpt lat="34.4140367" lon="8.0668967"><ele>470.5</ele><time>2026-04-24T12:45:05.943Z</time></trkpt><trkpt lat="34.4140033" lon="8.0671783"><ele>471.0</ele><time>2026-04-24T12:45:06.942Z</time></trkpt><trkpt lat="34.41396" lon="8.0674583"><ele>471.5</ele><time>2026-04-24T12:45:07.943Z</time></trkpt><trkpt lat="34.4139133" lon="8.0677433"><ele>472.0</ele><time>2026-04-24T12:45:08.943Z</time></trkpt><trkpt lat="34.4138717" lon="8.0680283"><ele>471.5</ele><time>2026-04-24T12:45:09.943Z</time></trkpt><trkpt lat="34.41383" lon="8.0683133"><ele>471.0</ele><time>2026-04-24T12:45:10.943Z</time></trkpt><trkpt lat="34.4137883" lon="8.0686033"><ele>473.5</ele><time>2026-04-24T12:45:11.943Z</time></trkpt><trkpt lat="34.4137433" lon="8.0688883"><ele>476.0</ele><time>2026-04-24T12:45:12.943Z</time></trkpt><trkpt lat="34.4137033" lon="8.069175"><ele>476.0</ele><time>2026-04-24T12:45:13.943Z</time></trkpt><trkpt lat="34.4136567" lon="8.0694617"><ele>476.0</ele><time>2026-04-24T12:45:14.942Z</time></trkpt><trkpt lat="34.4136067" lon="8.0697467"><ele>476.0</ele><time>2026-04-24T12:45:15.942Z</time></trkpt><trkpt lat="34.4135633" lon="8.0700367"><ele>476.0</ele><time>2026-04-24T12:45:16.942Z</time></trkpt><trkpt lat="34.4135217" lon="8.070315"><ele>476.0</ele><time>2026-04-24T12:45:17.943Z</time></trkpt><trkpt lat="34.41348" lon="8.0706017"><ele>476.0</ele><time>2026-04-24T12:45:18.943Z</time></trkpt><trkpt lat="34.413435" lon="8.0708883"><ele>474.0</ele><time>2026-04-24T12:45:19.943Z</time></trkpt><trkpt lat="34.4133933" lon="8.0711733"><ele>472.0</ele><time>2026-04-24T12:45:20.943Z</time></trkpt><trkpt lat="34.413355" lon="8.0714567"><ele>471.5</ele><time>2026-04-24T12:45:21.943Z</time></trkpt><trkpt lat="34.41331" lon="8.0717417"><ele>471.0</ele><time>2026-04-24T12:45:22.943Z</time></trkpt><trkpt lat="34.41327" lon="8.0720233"><ele>471.0</ele><time>2026-04-24T12:45:23.942Z</time></trkpt><trkpt lat="34.41323" lon="8.0723083"><ele>471.0</ele><time>2026-04-24T12:45:24.943Z</time></trkpt><trkpt lat="34.4132" lon="8.0725867"><ele>471.5</ele><time>2026-04-24T12:45:25.942Z</time></trkpt><trkpt lat="34.4131667" lon="8.0728733"><ele>472.0</ele><time>2026-04-24T12:45:26.943Z</time></trkpt><trkpt lat="34.41313" lon="8.0731617"><ele>474.0</ele><time>2026-04-24T12:45:27.943Z</time></trkpt><trkpt lat="34.4130917" lon="8.0734367"><ele>476.0</ele><time>2026-04-24T12:45:28.943Z</time></trkpt><trkpt lat="34.41306" lon="8.073715"><ele>476.0</ele><time>2026-04-24T12:45:29.943Z</time></trkpt><trkpt lat="34.4130217" lon="8.073995"><ele>476.0</ele><time>2026-04-24T12:45:30.943Z</time></trkpt><trkpt lat="34.41299" lon="8.07427"><ele>475.5</ele><time>2026-04-24T12:45:31.942Z</time></trkpt><trkpt lat="34.4129533" lon="8.0745533"><ele>475.0</ele><time>2026-04-24T12:45:32.942Z</time></trkpt><trkpt lat="34.4129167" lon="8.0748317"><ele>476.5</ele><time>2026-04-24T12:45:33.943Z</time></trkpt><trkpt lat="34.4128767" lon="8.0751133"><ele>478.0</ele><time>2026-04-24T12:45:34.943Z</time></trkpt><trkpt lat="34.4128417" lon="8.075385"><ele>478.0</ele><time>2026-04-24T12:45:35.942Z</time></trkpt><trkpt lat="34.412805" lon="8.0756517"><ele>478.0</ele><time>2026-04-24T12:45:36.943Z</time></trkpt><trkpt lat="34.4127717" lon="8.0759267"><ele>479.0</ele><time>2026-04-24T12:45:37.943Z</time></trkpt><trkpt lat="34.412735" lon="8.0761983"><ele>480.0</ele><time>2026-04-24T12:45:38.943Z</time></trkpt><trkpt lat="34.4126983" lon="8.0764733"><ele>481.0</ele><time>2026-04-24T12:45:39.942Z</time></trkpt><trkpt lat="34.4126683" lon="8.07675"><ele>482.0</ele><time>2026-04-24T12:45:40.942Z</time></trkpt><trkpt lat="34.4126317" lon="8.0770233"><ele>482.0</ele><time>2026-04-24T12:45:41.943Z</time></trkpt><trkpt lat="34.4125933" lon="8.0773017"><ele>482.0</ele><time>2026-04-24T12:45:42.943Z</time></trkpt><trkpt lat="34.4125567" lon="8.077575"><ele>481.5</ele><time>2026-04-24T12:45:43.943Z</time></trkpt><trkpt lat="34.4125233" lon="8.077845"><ele>481.0</ele><time>2026-04-24T12:45:44.943Z</time></trkpt><trkpt lat="34.4124933" lon="8.0781217"><ele>481.5</ele><time>2026-04-24T12:45:45.942Z</time></trkpt><trkpt lat="34.4124617" lon="8.0783917"><ele>482.0</ele><time>2026-04-24T12:45:46.942Z</time></trkpt><trkpt lat="34.4124267" lon="8.078665"><ele>482.0</ele><time>2026-04-24T12:45:47.943Z</time></trkpt><trkpt lat="34.41239" lon="8.0789383"><ele>482.0</ele><time>2026-04-24T12:45:48.943Z</time></trkpt><trkpt lat="34.4123517" lon="8.0792117"><ele>483.0</ele><time>2026-04-24T12:45:49.943Z</time></trkpt><trkpt lat="34.4123117" lon="8.079495"><ele>484.0</ele><time>2026-04-24T12:45:50.943Z</time></trkpt><trkpt lat="34.4122717" lon="8.07978"><ele>483.5</ele><time>2026-04-24T12:45:51.943Z</time></trkpt><trkpt lat="34.4122283" lon="8.08006"><ele>483.0</ele><time>2026-04-24T12:45:52.942Z</time></trkpt><trkpt lat="34.4121883" lon="8.0803433"><ele>484.0</ele><time>2026-04-24T12:45:53.943Z</time></trkpt><trkpt lat="34.4121533" lon="8.080625"><ele>485.0</ele><time>2026-04-24T12:45:54.943Z</time></trkpt><trkpt lat="34.4121183" lon="8.0809067"><ele>485.0</ele><time>2026-04-24T12:45:55.943Z</time></trkpt><trkpt lat="34.4120867" lon="8.081185"><ele>485.0</ele><time>2026-04-24T12:45:56.942Z</time></trkpt><trkpt lat="34.4120533" lon="8.0814667"><ele>484.5</ele><time>2026-04-24T12:45:57.943Z</time></trkpt><trkpt lat="34.4120267" lon="8.081755"><ele>484.0</ele><time>2026-04-24T12:45:58.942Z</time></trkpt><trkpt lat="34.41199" lon="8.0820467"><ele>484.0</ele><time>2026-04-24T12:45:59.943Z</time></trkpt><trkpt lat="34.4119533" lon="8.0823367"><ele>484.0</ele><time>2026-04-24T12:46:00.943Z</time></trkpt><trkpt lat="34.4119217" lon="8.0826217"><ele>485.5</ele><time>2026-04-24T12:46:01.943Z</time></trkpt><trkpt lat="34.4118967" lon="8.08291"><ele>487.0</ele><time>2026-04-24T12:46:02.943Z</time></trkpt><trkpt lat="34.4118667" lon="8.0831933"><ele>487.5</ele><time>2026-04-24T12:46:03.943Z</time></trkpt><trkpt lat="34.4118317" lon="8.0834767"><ele>488.0</ele><time>2026-04-24T12:46:04.942Z</time></trkpt><trkpt lat="34.4118" lon="8.0837517"><ele>488.0</ele><time>2026-04-24T12:46:05.942Z</time></trkpt><trkpt lat="34.4117733" lon="8.0840267"><ele>488.0</ele><time>2026-04-24T12:46:06.943Z</time></trkpt><trkpt lat="34.41175" lon="8.0843"><ele>488.0</ele><time>2026-04-24T12:46:07.943Z</time></trkpt><trkpt lat="34.41173" lon="8.0845733"><ele>488.0</ele><time>2026-04-24T12:46:08.943Z</time></trkpt><trkpt lat="34.4117267" lon="8.084845"><ele>487.5</ele><time>2026-04-24T12:46:09.943Z</time></trkpt><trkpt lat="34.41172" lon="8.085125"><ele>487.0</ele><time>2026-04-24T12:46:10.943Z</time></trkpt><trkpt lat="34.4117383" lon="8.0854"><ele>487.0</ele><time>2026-04-24T12:46:11.943Z</time></trkpt><trkpt lat="34.4117417" lon="8.0856767"><ele>487.0</ele><time>2026-04-24T12:46:12.943Z</time></trkpt><trkpt lat="34.4117433" lon="8.085955"><ele>487.5</ele><time>2026-04-24T12:46:13.943Z</time></trkpt><trkpt lat="34.411745" lon="8.0862317"><ele>488.0</ele><time>2026-04-24T12:46:14.943Z</time></trkpt><trkpt lat="34.4117433" lon="8.0865033"><ele>488.3333333333333</ele><time>2026-04-24T12:46:15.943Z</time></trkpt><trkpt lat="34.4117417" lon="8.0867733"><ele>488.66666666666663</ele><time>2026-04-24T12:46:16.942Z</time></trkpt><trkpt lat="34.4117283" lon="8.08704"><ele>489.0</ele><time>2026-04-24T12:46:17.943Z</time></trkpt><trkpt lat="34.4117217" lon="8.08731"><ele>490.0</ele><time>2026-04-24T12:46:18.943Z</time></trkpt><trkpt lat="34.4117167" lon="8.0875783"><ele>491.0</ele><time>2026-04-24T12:46:19.943Z</time></trkpt><trkpt lat="34.4117083" lon="8.0878433"><ele>492.0</ele><time>2026-04-24T12:46:20.943Z</time></trkpt><trkpt lat="34.4117033" lon="8.08811"><ele>492.66666666666663</ele><time>2026-04-24T12:46:21.942Z</time></trkpt><trkpt lat="34.4117033" lon="8.0883783"><ele>493.3333333333333</ele><time>2026-04-24T12:46:22.943Z</time></trkpt><trkpt lat="34.4117067" lon="8.0886367"><ele>494.0</ele><time>2026-04-24T12:46:23.942Z</time></trkpt><trkpt lat="34.4117117" lon="8.0888967"><ele>494.66666666666663</ele><time>2026-04-24T12:46:24.943Z</time></trkpt><trkpt lat="34.4117283" lon="8.08916"><ele>495.33333333333337</ele><time>2026-04-24T12:46:25.943Z</time></trkpt><trkpt lat="34.411745" lon="8.0894267"><ele>496.0</ele><time>2026-04-24T12:46:26.943Z</time></trkpt><trkpt lat="34.4117717" lon="8.0896917"><ele>497.0</ele><time>2026-04-24T12:46:27.943Z</time></trkpt><trkpt lat="34.4118" lon="8.0899633"><ele>498.0</ele><time>2026-04-24T12:46:28.943Z</time></trkpt><trkpt lat="34.4118333" lon="8.090225"><ele>499.0</ele><time>2026-04-24T12:46:29.943Z</time></trkpt><trkpt lat="34.4118667" lon="8.09049"><ele>501.0</ele><time>2026-04-24T12:46:30.943Z</time></trkpt><trkpt lat="34.4118917" lon="8.0907633"><ele>503.0</ele><time>2026-04-24T12:46:31.943Z</time></trkpt><trkpt lat="34.4119217" lon="8.091025"><ele>505.0</ele><time>2026-04-24T12:46:32.943Z</time></trkpt><trkpt lat="34.4119533" lon="8.0912833"><ele>505.0</ele><time>2026-04-24T12:46:33.942Z</time></trkpt><trkpt lat="34.4119733" lon="8.09155"><ele>505.0</ele><time>2026-04-24T12:46:34.943Z</time></trkpt><trkpt lat="34.4119983" lon="8.0918167"><ele>505.0</ele><time>2026-04-24T12:46:35.943Z</time></trkpt><trkpt lat="34.4120283" lon="8.0920833"><ele>506.6666666666667</ele><time>2026-04-24T12:46:36.943Z</time></trkpt><trkpt lat="34.412065" lon="8.0923517"><ele>508.33333333333337</ele><time>2026-04-24T12:46:37.943Z</time></trkpt><trkpt lat="34.4121017" lon="8.092615"><ele>510.0</ele><time>2026-04-24T12:46:38.942Z</time></trkpt><trkpt lat="34.412135" lon="8.092875"><ele>510.0</ele><time>2026-04-24T12:46:39.943Z</time></trkpt><trkpt lat="34.4121667" lon="8.093135"><ele>510.0</ele><time>2026-04-24T12:46:40.943Z</time></trkpt><trkpt lat="34.4121917" lon="8.0934"><ele>510.0</ele><time>2026-04-24T12:46:41.943Z</time></trkpt><trkpt lat="34.41223" lon="8.0936667"><ele>509.66666666666663</ele><time>2026-04-24T12:46:42.943Z</time></trkpt><trkpt lat="34.4122617" lon="8.0939333"><ele>509.3333333333333</ele><time>2026-04-24T12:46:43.942Z</time></trkpt><trkpt lat="34.412295" lon="8.0941967"><ele>509.0</ele><time>2026-04-24T12:46:44.943Z</time></trkpt><trkpt lat="34.41232" lon="8.0944617"><ele>510.0</ele><time>2026-04-24T12:46:45.943Z</time></trkpt><trkpt lat="34.412355" lon="8.0947267"><ele>511.0</ele><time>2026-04-24T12:46:46.943Z</time></trkpt><trkpt lat="34.4123817" lon="8.095"><ele>512.0</ele><time>2026-04-24T12:46:47.942Z</time></trkpt><trkpt lat="34.412415" lon="8.0952667"><ele>512.3333333333333</ele><time>2026-04-24T12:46:48.943Z</time></trkpt><trkpt lat="34.412445" lon="8.0955333"><ele>512.6666666666666</ele><time>2026-04-24T12:46:49.943Z</time></trkpt><trkpt lat="34.4124817" lon="8.0958033"><ele>513.0</ele><time>2026-04-24T12:46:50.943Z</time></trkpt><trkpt lat="34.41251" lon="8.0960683"><ele>513.6666666666666</ele><time>2026-04-24T12:46:51.943Z</time></trkpt><trkpt lat="34.4125417" lon="8.096335"><ele>514.3333333333333</ele><time>2026-04-24T12:46:52.942Z</time></trkpt><trkpt lat="34.41257" lon="8.0965967"><ele>515.0</ele><time>2026-04-24T12:46:53.942Z</time></trkpt><trkpt lat="34.4126017" lon="8.09686"><ele>516.5</ele><time>2026-04-24T12:46:54.943Z</time></trkpt><trkpt lat="34.412625" lon="8.09713"><ele>518.0</ele><time>2026-04-24T12:46:55.943Z</time></trkpt><trkpt lat="34.4126517" lon="8.0974017"><ele>518.5</ele><time>2026-04-24T12:46:56.943Z</time></trkpt><trkpt lat="34.412685" lon="8.0976683"><ele>519.0</ele><time>2026-04-24T12:46:57.943Z</time></trkpt><trkpt lat="34.4127083" lon="8.097945"><ele>519.0</ele><time>2026-04-24T12:46:58.943Z</time></trkpt><trkpt lat="34.4127317" lon="8.0982133"><ele>519.0</ele><time>2026-04-24T12:46:59.942Z</time></trkpt><trkpt lat="34.4127633" lon="8.09848"><ele>519.0</ele><time>2026-04-24T12:47:00.942Z</time></trkpt><trkpt lat="34.4127933" lon="8.0987483"><ele>519.3333333333334</ele><time>2026-04-24T12:47:01.943Z</time></trkpt><trkpt lat="34.4128283" lon="8.09901"><ele>519.6666666666667</ele><time>2026-04-24T12:47:02.943Z</time></trkpt><trkpt lat="34.4128617" lon="8.0992733"><ele>520.0</ele><time>2026-04-24T12:47:03.942Z</time></trkpt><trkpt lat="34.4129017" lon="8.0995433"><ele>520.6666666666667</ele><time>2026-04-24T12:47:04.942Z</time></trkpt><trkpt lat="34.412945" lon="8.0998083"><ele>521.3333333333334</ele><time>2026-04-24T12:47:05.943Z</time></trkpt><trkpt lat="34.4129917" lon="8.10007"><ele>522.0</ele><time>2026-04-24T12:47:06.943Z</time></trkpt><trkpt lat="34.4130533" lon="8.10033"><ele>522.0</ele><time>2026-04-24T12:47:07.943Z</time></trkpt><trkpt lat="34.4131167" lon="8.100585"><ele>522.0</ele><time>2026-04-24T12:47:08.943Z</time></trkpt><trkpt lat="34.413185" lon="8.10084"><ele>522.0</ele><time>2026-04-24T12:47:09.943Z</time></trkpt><trkpt lat="34.4132417" lon="8.1010967"><ele>522.5</ele><time>2026-04-24T12:47:10.943Z</time></trkpt><trkpt lat="34.413285" lon="8.10136"><ele>523.0</ele><time>2026-04-24T12:47:11.943Z</time></trkpt><trkpt lat="34.4133033" lon="8.1016367"><ele>523.0</ele><time>2026-04-24T12:47:12.943Z</time></trkpt><trkpt lat="34.4133083" lon="8.1019033"><ele>523.0</ele><time>2026-04-24T12:47:13.943Z</time></trkpt><trkpt lat="34.413315" lon="8.1021767"><ele>523.0</ele><time>2026-04-24T12:47:14.943Z</time></trkpt><trkpt lat="34.4133067" lon="8.1024517"><ele>524.0</ele><time>2026-04-24T12:47:15.943Z</time></trkpt><trkpt lat="34.4132983" lon="8.1027283"><ele>525.0</ele><time>2026-04-24T12:47:16.943Z</time></trkpt><trkpt lat="34.413285" lon="8.103005"><ele>524.5</ele><time>2026-04-24T12:47:17.943Z</time></trkpt><trkpt lat="34.4132667" lon="8.1032833"><ele>524.0</ele><time>2026-04-24T12:47:18.943Z</time></trkpt><trkpt lat="34.41325" lon="8.1035583"><ele>524.0</ele><time>2026-04-24T12:47:19.943Z</time></trkpt><trkpt lat="34.41323" lon="8.1038383"><ele>524.0</ele><time>2026-04-24T12:47:20.943Z</time></trkpt><trkpt lat="34.413215" lon="8.10412"><ele>524.0</ele><time>2026-04-24T12:47:21.943Z</time></trkpt><trkpt lat="34.4132083" lon="8.1043933"><ele>524.0</ele><time>2026-04-24T12:47:22.942Z</time></trkpt><trkpt lat="34.4132" lon="8.10467"><ele>526.0</ele><time>2026-04-24T12:47:23.943Z</time></trkpt><trkpt lat="34.4131917" lon="8.1049517"><ele>528.0</ele><time>2026-04-24T12:47:24.943Z</time></trkpt><trkpt lat="34.413185" lon="8.1052317"><ele>528.0</ele><time>2026-04-24T12:47:25.943Z</time></trkpt><trkpt lat="34.4131817" lon="8.10551"><ele>528.0</ele><time>2026-04-24T12:47:26.942Z</time></trkpt><trkpt lat="34.4131917" lon="8.105795"><ele>528.5</ele><time>2026-04-24T12:47:27.942Z</time></trkpt><trkpt lat="34.413215" lon="8.10608"><ele>529.0</ele><time>2026-04-24T12:47:28.942Z</time></trkpt><trkpt lat="34.41327" lon="8.10635"><ele>529.0</ele><time>2026-04-24T12:47:29.943Z</time></trkpt><trkpt lat="34.4133183" lon="8.1066167"><ele>529.0</ele><time>2026-04-24T12:47:30.943Z</time></trkpt><trkpt lat="34.4133583" lon="8.1068817"><ele>529.0</ele><time>2026-04-24T12:47:31.943Z</time></trkpt><trkpt lat="34.41338" lon="8.1071417"><ele>529.0</ele><time>2026-04-24T12:47:32.943Z</time></trkpt><trkpt lat="34.4133867" lon="8.1074"><ele>529.0</ele><time>2026-04-24T12:47:33.943Z</time></trkpt><trkpt lat="34.413385" lon="8.10766"><ele>529.0</ele><time>2026-04-24T12:47:34.943Z</time></trkpt><trkpt lat="34.413375" lon="8.1079217"><ele>530.0</ele><time>2026-04-24T12:47:35.943Z</time></trkpt><trkpt lat="34.41336" lon="8.10819"><ele>531.0</ele><time>2026-04-24T12:47:36.942Z</time></trkpt><trkpt lat="34.4133483" lon="8.108455"><ele>532.0</ele><time>2026-04-24T12:47:37.943Z</time></trkpt><trkpt lat="34.4133317" lon="8.1087167"><ele>532.0</ele><time>2026-04-24T12:47:38.941Z</time></trkpt><trkpt lat="34.41332" lon="8.1089833"><ele>532.0</ele><time>2026-04-24T12:47:39.942Z</time></trkpt><trkpt lat="34.4133133" lon="8.109255"><ele>532.0</ele><time>2026-04-24T12:47:40.942Z</time></trkpt><trkpt lat="34.4133083" lon="8.1095283"><ele>532.0</ele><time>2026-04-24T12:47:41.942Z</time></trkpt><trkpt lat="34.413305" lon="8.1097967"><ele>532.0</ele><time>2026-04-24T12:47:42.941Z</time></trkpt><trkpt lat="34.4132967" lon="8.1100717"><ele>532.0</ele><time>2026-04-24T12:47:43.942Z</time></trkpt><trkpt lat="34.4132933" lon="8.1103467"><ele>532.6666666666667</ele><time>2026-04-24T12:47:44.941Z</time></trkpt><trkpt lat="34.4132983" lon="8.11062"><ele>533.3333333333334</ele><time>2026-04-24T12:47:45.942Z</time></trkpt><trkpt lat="34.4133117" lon="8.1108883"><ele>534.0</ele><time>2026-04-24T12:47:46.942Z</time></trkpt><trkpt lat="34.4133267" lon="8.1111567"><ele>535.0</ele><time>2026-04-24T12:47:47.941Z</time></trkpt><trkpt lat="34.41335" lon="8.1114333"><ele>536.0</ele><time>2026-04-24T12:47:48.942Z</time></trkpt><trkpt lat="34.41339" lon="8.1117"><ele>536.3333333333333</ele><time>2026-04-24T12:47:49.942Z</time></trkpt><trkpt lat="34.4134367" lon="8.1119617"><ele>536.6666666666666</ele><time>2026-04-24T12:47:50.941Z</time></trkpt><trkpt lat="34.4134833" lon="8.1122267"><ele>537.0</ele><time>2026-04-24T12:47:51.942Z</time></trkpt><trkpt lat="34.41353" lon="8.1124867"><ele>538.0</ele><time>2026-04-24T12:47:52.941Z</time></trkpt><trkpt lat="34.4135733" lon="8.1127483"><ele>539.0</ele><time>2026-04-24T12:47:53.942Z</time></trkpt><trkpt lat="34.4136083" lon="8.113015"><ele>540.0</ele><time>2026-04-24T12:47:54.942Z</time></trkpt><trkpt lat="34.41364" lon="8.113275"><ele>541.3333333333334</ele><time>2026-04-24T12:47:55.942Z</time></trkpt><trkpt lat="34.4136683" lon="8.1135417"><ele>542.6666666666667</ele><time>2026-04-24T12:47:56.941Z</time></trkpt><trkpt lat="34.4136917" lon="8.1138067"><ele>544.0</ele><time>2026-04-24T12:47:57.942Z</time></trkpt><trkpt lat="34.4137033" lon="8.1140783"><ele>544.0</ele><time>2026-04-24T12:47:58.942Z</time></trkpt><trkpt lat="34.4137033" lon="8.1143483"><ele>544.0</ele><time>2026-04-24T12:47:59.942Z</time></trkpt><trkpt lat="34.4136967" lon="8.1146167"><ele>544.0</ele><time>2026-04-24T12:48:00.941Z</time></trkpt><trkpt lat="34.4136833" lon="8.114895"><ele>545.0</ele><time>2026-04-24T12:48:01.942Z</time></trkpt><trkpt lat="34.4136583" lon="8.11517"><ele>546.0</ele><time>2026-04-24T12:48:02.942Z</time></trkpt><trkpt lat="34.41363" lon="8.1154417"><ele>546.0</ele><time>2026-04-24T12:48:03.942Z</time></trkpt><trkpt lat="34.4135933" lon="8.1157083"><ele>546.0</ele><time>2026-04-24T12:48:04.941Z</time></trkpt><trkpt lat="34.4135483" lon="8.115975"><ele>546.0</ele><time>2026-04-24T12:48:05.942Z</time></trkpt><trkpt lat="34.4135" lon="8.1162417"><ele>548.0</ele><time>2026-04-24T12:48:06.941Z</time></trkpt><trkpt lat="34.41345" lon="8.1165067"><ele>550.0</ele><time>2026-04-24T12:48:07.942Z</time></trkpt><trkpt lat="34.4134067" lon="8.1167667"><ele>552.0</ele><time>2026-04-24T12:48:08.942Z</time></trkpt><trkpt lat="34.4133633" lon="8.117025"><ele>553.3333333333334</ele><time>2026-04-24T12:48:09.942Z</time></trkpt><trkpt lat="34.4133133" lon="8.117285"><ele>554.6666666666667</ele><time>2026-04-24T12:48:10.942Z</time></trkpt><trkpt lat="34.4132583" lon="8.1175483"><ele>556.0</ele><time>2026-04-24T12:48:11.942Z</time></trkpt><trkpt lat="34.4132067" lon="8.1178083"><ele>556.0</ele><time>2026-04-24T12:48:12.942Z</time></trkpt><trkpt lat="34.413165" lon="8.1180733"><ele>556.0</ele><time>2026-04-24T12:48:13.941Z</time></trkpt><trkpt lat="34.41312" lon="8.1183317"><ele>556.0</ele><time>2026-04-24T12:48:14.941Z</time></trkpt><trkpt lat="34.4130717" lon="8.1185967"><ele>556.5</ele><time>2026-04-24T12:48:15.942Z</time></trkpt><trkpt lat="34.4130233" lon="8.1188617"><ele>557.0</ele><time>2026-04-24T12:48:16.942Z</time></trkpt><trkpt lat="34.4129717" lon="8.1191367"><ele>559.0</ele><time>2026-04-24T12:48:17.941Z</time></trkpt><trkpt lat="34.4129183" lon="8.1194"><ele>561.0</ele><time>2026-04-24T12:48:18.941Z</time></trkpt><trkpt lat="34.4128733" lon="8.1196617"><ele>563.0</ele><time>2026-04-24T12:48:19.942Z</time></trkpt><trkpt lat="34.4128367" lon="8.11992"><ele>564.0</ele><time>2026-04-24T12:48:20.942Z</time></trkpt><trkpt lat="34.4127883" lon="8.12017"><ele>565.0</ele><time>2026-04-24T12:48:21.942Z</time></trkpt><trkpt lat="34.4127467" lon="8.1204267"><ele>566.0</ele><time>2026-04-24T12:48:22.942Z</time></trkpt><trkpt lat="34.4126967" lon="8.1206817"><ele>568.0</ele><time>2026-04-24T12:48:23.941Z</time></trkpt><trkpt lat="34.4126467" lon="8.1209433"><ele>570.0</ele><time>2026-04-24T12:48:24.942Z</time></trkpt><trkpt lat="34.4126" lon="8.1212"><ele>572.0</ele><time>2026-04-24T12:48:25.941Z</time></trkpt><trkpt lat="34.4125533" lon="8.1214517"><ele>572.6666666666666</ele><time>2026-04-24T12:48:26.942Z</time></trkpt><trkpt lat="34.4125033" lon="8.1217133"><ele>573.3333333333334</ele><time>2026-04-24T12:48:27.941Z</time></trkpt><trkpt lat="34.4124567" lon="8.1219733"><ele>574.0</ele><time>2026-04-24T12:48:28.941Z</time></trkpt><trkpt lat="34.4124133" lon="8.1222383"><ele>574.3333333333334</ele><time>2026-04-24T12:48:29.941Z</time></trkpt><trkpt lat="34.4123633" lon="8.1224967"><ele>574.6666666666666</ele><time>2026-04-24T12:48:30.942Z</time></trkpt><trkpt lat="34.4123133" lon="8.1227517"><ele>575.0</ele><time>2026-04-24T12:48:31.941Z</time></trkpt><trkpt lat="34.4122667" lon="8.1230117"><ele>576.6666666666666</ele><time>2026-04-24T12:48:32.941Z</time></trkpt><trkpt lat="34.41222" lon="8.1232717"><ele>578.3333333333334</ele><time>2026-04-24T12:48:33.942Z</time></trkpt><trkpt lat="34.4121683" lon="8.12353"><ele>580.0</ele><time>2026-04-24T12:48:34.942Z</time></trkpt><trkpt lat="34.41212" lon="8.1237867"><ele>580.0</ele><time>2026-04-24T12:48:35.941Z</time></trkpt><trkpt lat="34.4120683" lon="8.1240517"><ele>580.0</ele><time>2026-04-24T12:48:36.942Z</time></trkpt><trkpt lat="34.41202" lon="8.1243067"><ele>580.0</ele><time>2026-04-24T12:48:37.942Z</time></trkpt><trkpt lat="34.4119783" lon="8.124565"><ele>581.3333333333334</ele><time>2026-04-24T12:48:38.942Z</time></trkpt><trkpt lat="34.4119367" lon="8.1248283"><ele>582.6666666666666</ele><time>2026-04-24T12:48:39.942Z</time></trkpt><trkpt lat="34.4119133" lon="8.125085"><ele>584.0</ele><time>2026-04-24T12:48:40.942Z</time></trkpt><trkpt lat="34.4119" lon="8.1253517"><ele>585.0</ele><time>2026-04-24T12:48:41.942Z</time></trkpt><trkpt lat="34.411895" lon="8.125615"><ele>586.0</ele><time>2026-04-24T12:48:42.941Z</time></trkpt><trkpt lat="34.4119017" lon="8.12588"><ele>587.0</ele><time>2026-04-24T12:48:43.942Z</time></trkpt><trkpt lat="34.4119" lon="8.126145"><ele>587.6666666666666</ele><time>2026-04-24T12:48:44.942Z</time></trkpt><trkpt lat="34.4118967" lon="8.1264133"><ele>588.3333333333334</ele><time>2026-04-24T12:48:45.941Z</time></trkpt><trkpt lat="34.4118967" lon="8.1266767"><ele>589.0</ele><time>2026-04-24T12:48:46.942Z</time></trkpt><trkpt lat="34.411895" lon="8.12693"><ele>590.0</ele><time>2026-04-24T12:48:47.942Z</time></trkpt><trkpt lat="34.4118867" lon="8.1271867"><ele>591.0</ele><time>2026-04-24T12:48:48.942Z</time></trkpt><trkpt lat="34.41188" lon="8.127445"><ele>592.0</ele><time>2026-04-24T12:48:49.942Z</time></trkpt><trkpt lat="34.4118633" lon="8.1277117"><ele>594.0</ele><time>2026-04-24T12:48:50.942Z</time></trkpt><trkpt lat="34.4118317" lon="8.127975"><ele>596.0</ele><time>2026-04-24T12:48:51.942Z</time></trkpt><trkpt lat="34.411785" lon="8.12823"><ele>598.0</ele><time>2026-04-24T12:48:52.941Z</time></trkpt><trkpt lat="34.4117317" lon="8.12848"><ele>599.0</ele><time>2026-04-24T12:48:53.941Z</time></trkpt><trkpt lat="34.411665" lon="8.12871"><ele>600.0</ele><time>2026-04-24T12:48:54.941Z</time></trkpt><trkpt lat="34.4115883" lon="8.12895"><ele>601.0</ele><time>2026-04-24T12:48:55.941Z</time></trkpt><trkpt lat="34.4115033" lon="8.12919"><ele>601.0</ele><time>2026-04-24T12:48:56.942Z</time></trkpt><trkpt lat="34.4114117" lon="8.129435"><ele>601.0</ele><time>2026-04-24T12:48:57.941Z</time></trkpt><trkpt lat="34.4113167" lon="8.129675"><ele>601.0</ele><time>2026-04-24T12:48:58.942Z</time></trkpt><trkpt lat="34.4112233" lon="8.1299083"><ele>601.6666666666667</ele><time>2026-04-24T12:48:59.942Z</time></trkpt><trkpt lat="34.41113" lon="8.1301467"><ele>602.3333333333334</ele><time>2026-04-24T12:49:00.942Z</time></trkpt><trkpt lat="34.4110317" lon="8.1303867"><ele>603.0</ele><time>2026-04-24T12:49:01.942Z</time></trkpt><trkpt lat="34.41093" lon="8.1306283"><ele>604.0</ele><time>2026-04-24T12:49:02.942Z</time></trkpt><trkpt lat="34.410825" lon="8.1308583"><ele>605.0</ele><time>2026-04-24T12:49:03.942Z</time></trkpt><trkpt lat="34.4107133" lon="8.1311033"><ele>606.0</ele><time>2026-04-24T12:49:04.941Z</time></trkpt><trkpt lat="34.4106" lon="8.131345"><ele>607.5</ele><time>2026-04-24T12:49:05.942Z</time></trkpt><trkpt lat="34.410485" lon="8.1315783"><ele>609.0</ele><time>2026-04-24T12:49:06.941Z</time></trkpt><trkpt lat="34.410355" lon="8.1318167"><ele>609.0</ele><time>2026-04-24T12:49:07.942Z</time></trkpt><trkpt lat="34.4102333" lon="8.1320533"><ele>609.0</ele><time>2026-04-24T12:49:08.942Z</time></trkpt><trkpt lat="34.4101117" lon="8.13229"><ele>610.3333333333334</ele><time>2026-04-24T12:49:09.941Z</time></trkpt><trkpt lat="34.4099917" lon="8.13252"><ele>611.6666666666667</ele><time>2026-04-24T12:49:10.942Z</time></trkpt><trkpt lat="34.4098817" lon="8.13275"><ele>613.0</ele><time>2026-04-24T12:49:11.942Z</time></trkpt><trkpt lat="34.4097767" lon="8.132985"><ele>613.0</ele><time>2026-04-24T12:49:12.941Z</time></trkpt><trkpt lat="34.4096683" lon="8.13321"><ele>613.0</ele><time>2026-04-24T12:49:13.942Z</time></trkpt><trkpt lat="34.4095667" lon="8.13344"><ele>613.0</ele><time>2026-04-24T12:49:14.942Z</time></trkpt><trkpt lat="34.4094633" lon="8.1336617"><ele>612.6666666666667</ele><time>2026-04-24T12:49:15.942Z</time></trkpt><trkpt lat="34.4093567" lon="8.1338783"><ele>612.3333333333334</ele><time>2026-04-24T12:49:16.942Z</time></trkpt><trkpt lat="34.4092467" lon="8.1340933"><ele>612.0</ele><time>2026-04-24T12:49:17.942Z</time></trkpt><trkpt lat="34.4091433" lon="8.13432"><ele>613.6666666666666</ele><time>2026-04-24T12:49:18.942Z</time></trkpt><trkpt lat="34.4090317" lon="8.1345467"><ele>615.3333333333333</ele><time>2026-04-24T12:49:19.942Z</time></trkpt><trkpt lat="34.40891" lon="8.1347667"><ele>617.0</ele><time>2026-04-24T12:49:20.941Z</time></trkpt><trkpt lat="34.4087883" lon="8.1349817"><ele>617.6666666666666</ele><time>2026-04-24T12:49:21.942Z</time></trkpt><trkpt lat="34.4086617" lon="8.1351867"><ele>618.3333333333334</ele><time>2026-04-24T12:49:22.942Z</time></trkpt><trkpt lat="34.40852" lon="8.135385"><ele>619.0</ele><time>2026-04-24T12:49:23.941Z</time></trkpt><trkpt lat="34.4083717" lon="8.1355783"><ele>619.6666666666667</ele><time>2026-04-24T12:49:24.941Z</time></trkpt><trkpt lat="34.408235" lon="8.1357633"><ele>620.3333333333334</ele><time>2026-04-24T12:49:25.942Z</time></trkpt><trkpt lat="34.4080933" lon="8.13596"><ele>621.0</ele><time>2026-04-24T12:49:26.942Z</time></trkpt><trkpt lat="34.407945" lon="8.1361667"><ele>619.6666666666666</ele><time>2026-04-24T12:49:27.942Z</time></trkpt><trkpt lat="34.4078" lon="8.136365"><ele>618.3333333333333</ele><time>2026-04-24T12:49:28.942Z</time></trkpt><trkpt lat="34.4076583" lon="8.1365733"><ele>617.0</ele><time>2026-04-24T12:49:29.941Z</time></trkpt><trkpt lat="34.4075167" lon="8.1367817"><ele>617.0</ele><time>2026-04-24T12:49:30.942Z</time></trkpt><trkpt lat="34.4073683" lon="8.1369883"><ele>617.0</ele><time>2026-04-24T12:49:31.942Z</time></trkpt><trkpt lat="34.407215" lon="8.1371883"><ele>616.0</ele><time>2026-04-24T12:49:32.942Z</time></trkpt><trkpt lat="34.4070267" lon="8.1373817"><ele>615.0</ele><time>2026-04-24T12:49:33.942Z</time></trkpt><trkpt lat="34.406835" lon="8.1375533"><ele>615.0</ele><time>2026-04-24T12:49:34.942Z</time></trkpt><trkpt lat="34.4066467" lon="8.1377167"><ele>615.0</ele><time>2026-04-24T12:49:35.942Z</time></trkpt><trkpt lat="34.40645" lon="8.1378683"><ele>614.5</ele><time>2026-04-24T12:49:36.942Z</time></trkpt><trkpt lat="34.40626" lon="8.1380117"><ele>614.0</ele><time>2026-04-24T12:49:37.941Z</time></trkpt><trkpt lat="34.4060617" lon="8.1381517"><ele>614.5</ele><time>2026-04-24T12:49:38.942Z</time></trkpt><trkpt lat="34.4058667" lon="8.1382917"><ele>615.0</ele><time>2026-04-24T12:49:39.942Z</time></trkpt><trkpt lat="34.4056667" lon="8.1384483"><ele>614.5</ele><time>2026-04-24T12:49:40.942Z</time></trkpt><trkpt lat="34.405465" lon="8.1385933"><ele>614.0</ele><time>2026-04-24T12:49:41.942Z</time></trkpt><trkpt lat="34.4052617" lon="8.13874"><ele>614.0</ele><time>2026-04-24T12:49:42.942Z</time></trkpt><trkpt lat="34.40506" lon="8.1388883"><ele>614.0</ele><time>2026-04-24T12:49:43.942Z</time></trkpt><trkpt lat="34.4048617" lon="8.139035"><ele>614.5</ele><time>2026-04-24T12:49:44.942Z</time></trkpt><trkpt lat="34.404665" lon="8.1391867"><ele>615.0</ele><time>2026-04-24T12:49:45.942Z</time></trkpt><trkpt lat="34.4044717" lon="8.139335"><ele>616.5</ele><time>2026-04-24T12:49:46.942Z</time></trkpt><trkpt lat="34.4042733" lon="8.1394833"><ele>618.0</ele><time>2026-04-24T12:49:47.942Z</time></trkpt><trkpt lat="34.4040733" lon="8.1396333"><ele>618.0</ele><time>2026-04-24T12:49:48.942Z</time></trkpt><trkpt lat="34.4038883" lon="8.1397867"><ele>618.0</ele><time>2026-04-24T12:49:49.942Z</time></trkpt><trkpt lat="34.403705" lon="8.1399467"><ele>617.6666666666666</ele><time>2026-04-24T12:49:50.942Z</time></trkpt><trkpt lat="34.40353" lon="8.1401067"><ele>617.3333333333333</ele><time>2026-04-24T12:49:51.942Z</time></trkpt><trkpt lat="34.40336" lon="8.140275"><ele>617.0</ele><time>2026-04-24T12:49:52.942Z</time></trkpt><trkpt lat="34.4031783" lon="8.1404533"><ele>617.5</ele><time>2026-04-24T12:49:53.942Z</time></trkpt><trkpt lat="34.402995" lon="8.14063"><ele>618.0</ele><time>2026-04-24T12:49:54.942Z</time></trkpt><trkpt lat="34.40281" lon="8.1408117"><ele>617.0</ele><time>2026-04-24T12:49:55.942Z</time></trkpt><trkpt lat="34.4026233" lon="8.140995"><ele>616.0</ele><time>2026-04-24T12:49:56.942Z</time></trkpt><trkpt lat="34.4024367" lon="8.14117"><ele>616.0</ele><time>2026-04-24T12:49:57.942Z</time></trkpt><trkpt lat="34.4022517" lon="8.1413433"><ele>616.0</ele><time>2026-04-24T12:49:58.942Z</time></trkpt><trkpt lat="34.402075" lon="8.1415133"><ele>615.0</ele><time>2026-04-24T12:49:59.942Z</time></trkpt><trkpt lat="34.4018883" lon="8.141685"><ele>614.0</ele><time>2026-04-24T12:50:00.941Z</time></trkpt><trkpt lat="34.40171" lon="8.141845"><ele>614.0</ele><time>2026-04-24T12:50:01.942Z</time></trkpt><trkpt lat="34.40153" lon="8.142015"><ele>614.0</ele><time>2026-04-24T12:50:02.941Z</time></trkpt><trkpt lat="34.40135" lon="8.1421833"><ele>613.3333333333333</ele><time>2026-04-24T12:50:03.942Z</time></trkpt><trkpt lat="34.401175" lon="8.1423467"><ele>612.6666666666666</ele><time>2026-04-24T12:50:04.942Z</time></trkpt><trkpt lat="34.4009983" lon="8.1425117"><ele>612.0</ele><time>2026-04-24T12:50:05.942Z</time></trkpt><trkpt lat="34.400825" lon="8.14268"><ele>612.0</ele><time>2026-04-24T12:50:06.941Z</time></trkpt><trkpt lat="34.4006483" lon="8.142845"><ele>612.0</ele><time>2026-04-24T12:50:07.942Z</time></trkpt><trkpt lat="34.4004633" lon="8.1430183"><ele>612.0</ele><time>2026-04-24T12:50:08.942Z</time></trkpt><trkpt lat="34.4002883" lon="8.143195"><ele>612.0</ele><time>2026-04-24T12:50:09.942Z</time></trkpt><trkpt lat="34.4001217" lon="8.1433767"><ele>610.6666666666666</ele><time>2026-04-24T12:50:10.942Z</time></trkpt><trkpt lat="34.399965" lon="8.14356"><ele>609.3333333333333</ele><time>2026-04-24T12:50:11.942Z</time></trkpt><trkpt lat="34.39981" lon="8.1437433"><ele>608.0</ele><time>2026-04-24T12:50:12.942Z</time></trkpt><trkpt lat="34.39966" lon="8.1439317"><ele>607.3333333333333</ele><time>2026-04-24T12:50:13.942Z</time></trkpt><trkpt lat="34.3995117" lon="8.144125"><ele>606.6666666666666</ele><time>2026-04-24T12:50:14.941Z</time></trkpt><trkpt lat="34.3993717" lon="8.1443233"><ele>606.0</ele><time>2026-04-24T12:50:15.942Z</time></trkpt><trkpt lat="34.3992283" lon="8.1445267"><ele>606.0</ele><time>2026-04-24T12:50:16.941Z</time></trkpt><trkpt lat="34.3990917" lon="8.14474"><ele>606.0</ele><time>2026-04-24T12:50:17.941Z</time></trkpt><trkpt lat="34.39896" lon="8.1449467"><ele>606.0</ele><time>2026-04-24T12:50:18.941Z</time></trkpt><trkpt lat="34.398835" lon="8.1451567"><ele>605.0</ele><time>2026-04-24T12:50:19.941Z</time></trkpt><trkpt lat="34.3987083" lon="8.14537"><ele>604.0</ele><time>2026-04-24T12:50:20.942Z</time></trkpt><trkpt lat="34.3985967" lon="8.145595"><ele>603.0</ele><time>2026-04-24T12:50:21.942Z</time></trkpt><trkpt lat="34.3984867" lon="8.1458183"><ele>603.0</ele><time>2026-04-24T12:50:22.942Z</time></trkpt><trkpt lat="34.3983933" lon="8.1460333"><ele>603.0</ele><time>2026-04-24T12:50:23.942Z</time></trkpt><trkpt lat="34.3982917" lon="8.1462417"><ele>603.0</ele><time>2026-04-24T12:50:24.941Z</time></trkpt><trkpt lat="34.3981833" lon="8.1464467"><ele>603.0</ele><time>2026-04-24T12:50:25.942Z</time></trkpt><trkpt lat="34.3980717" lon="8.14665"><ele>603.0</ele><time>2026-04-24T12:50:26.942Z</time></trkpt><trkpt lat="34.397955" lon="8.1468433"><ele>603.0</ele><time>2026-04-24T12:50:27.942Z</time></trkpt><trkpt lat="34.3978333" lon="8.147025"><ele>603.0</ele><time>2026-04-24T12:50:28.942Z</time></trkpt><trkpt lat="34.3977083" lon="8.1472067"><ele>603.0</ele><time>2026-04-24T12:50:29.942Z</time></trkpt><trkpt lat="34.3975767" lon="8.14738"><ele>603.0</ele><time>2026-04-24T12:50:30.942Z</time></trkpt><trkpt lat="34.39743" lon="8.1475567"><ele>601.6666666666666</ele><time>2026-04-24T12:50:31.942Z</time></trkpt><trkpt lat="34.3972867" lon="8.147725"><ele>600.3333333333333</ele><time>2026-04-24T12:50:32.941Z</time></trkpt><trkpt lat="34.3971433" lon="8.1478983"><ele>599.0</ele><time>2026-04-24T12:50:33.941Z</time></trkpt><trkpt lat="34.396995" lon="8.1480733"><ele>598.0</ele><time>2026-04-24T12:50:34.941Z</time></trkpt><trkpt lat="34.39684" lon="8.148225"><ele>597.0</ele><time>2026-04-24T12:50:35.942Z</time></trkpt><trkpt lat="34.3966833" lon="8.1483433"><ele>596.0</ele><time>2026-04-24T12:50:36.942Z</time></trkpt><trkpt lat="34.396535" lon="8.1484517"><ele>596.0</ele><time>2026-04-24T12:50:37.942Z</time></trkpt><trkpt lat="34.396395" lon="8.1485517"><ele>596.0</ele><time>2026-04-24T12:50:38.941Z</time></trkpt><trkpt lat="34.396265" lon="8.1486367"><ele>596.0</ele><time>2026-04-24T12:50:39.942Z</time></trkpt><trkpt lat="34.39614" lon="8.1487133"><ele>596.75</ele><time>2026-04-24T12:50:40.941Z</time></trkpt><trkpt lat="34.3960167" lon="8.1487883"><ele>597.5</ele><time>2026-04-24T12:50:41.942Z</time></trkpt><trkpt lat="34.3958983" lon="8.1488583"><ele>598.25</ele><time>2026-04-24T12:50:42.942Z</time></trkpt><trkpt lat="34.39578" lon="8.1489183"><ele>599.0</ele><time>2026-04-24T12:50:43.942Z</time></trkpt><trkpt lat="34.39566" lon="8.1489717"><ele>599.0</ele><time>2026-04-24T12:50:44.942Z</time></trkpt><trkpt lat="34.39554" lon="8.1490117"><ele>599.0</ele><time>2026-04-24T12:50:45.941Z</time></trkpt><trkpt lat="34.395445" lon="8.1490517"><ele>599.0</ele><time>2026-04-24T12:50:46.942Z</time></trkpt><trkpt lat="34.3953817" lon="8.1490717"><ele>599.0</ele><time>2026-04-24T12:50:47.941Z</time></trkpt><trkpt lat="34.395305" lon="8.1491067"><ele>599.0</ele><time>2026-04-24T12:50:53.942Z</time></trkpt><trkpt lat="34.3952267" lon="8.1491433"><ele>600.2</ele><time>2026-04-24T12:50:55.942Z</time></trkpt><trkpt lat="34.39511" lon="8.14922"><ele>601.4</ele><time>2026-04-24T12:50:57.942Z</time></trkpt><trkpt lat="34.3950433" lon="8.1492783"><ele>602.6</ele><time>2026-04-24T12:50:58.941Z</time></trkpt><trkpt lat="34.3949717" lon="8.1493517"><ele>603.8</ele><time>2026-04-24T12:50:59.941Z</time></trkpt><trkpt lat="34.394905" lon="8.149445"><ele>605.0</ele><time>2026-04-24T12:51:00.942Z</time></trkpt><trkpt lat="34.394845" lon="8.1495467"><ele>605.0</ele><time>2026-04-24T12:51:01.941Z</time></trkpt><trkpt lat="34.3947933" lon="8.1496583"><ele>605.0</ele><time>2026-04-24T12:51:02.942Z</time></trkpt><trkpt lat="34.3947483" lon="8.14977"><ele>605.0</ele><time>2026-04-24T12:51:03.942Z</time></trkpt><trkpt lat="34.3947067" lon="8.1498917"><ele>605.0</ele><time>2026-04-24T12:51:04.942Z</time></trkpt><trkpt lat="34.3946633" lon="8.150015"><ele>605.0</ele><time>2026-04-24T12:51:05.942Z</time></trkpt><trkpt lat="34.3946183" lon="8.1501483"><ele>604.5</ele><time>2026-04-24T12:51:06.941Z</time></trkpt><trkpt lat="34.3945617" lon="8.150275"><ele>604.0</ele><time>2026-04-24T12:51:07.942Z</time></trkpt><trkpt lat="34.3945017" lon="8.1504117"><ele>603.5</ele><time>2026-04-24T12:51:08.942Z</time></trkpt><trkpt lat="34.3944317" lon="8.150545"><ele>603.0</ele><time>2026-04-24T12:51:09.942Z</time></trkpt><trkpt lat="34.3943517" lon="8.1506683"><ele>601.5</ele><time>2026-04-24T12:51:10.942Z</time></trkpt><trkpt lat="34.3942717" lon="8.150785"><ele>600.0</ele><time>2026-04-24T12:51:11.941Z</time></trkpt><trkpt lat="34.3941933" lon="8.1509067"><ele>598.5</ele><time>2026-04-24T12:51:12.942Z</time></trkpt><trkpt lat="34.3941" lon="8.151025"><ele>597.0</ele><time>2026-04-24T12:51:13.942Z</time></trkpt><trkpt lat="34.3940017" lon="8.15113"><ele>597.0</ele><time>2026-04-24T12:51:14.942Z</time></trkpt><trkpt lat="34.3938983" lon="8.1512167"><ele>597.0</ele><time>2026-04-24T12:51:15.942Z</time></trkpt><trkpt lat="34.3937883" lon="8.1512983"><ele>597.0</ele><time>2026-04-24T12:51:16.942Z</time></trkpt><trkpt lat="34.3936683" lon="8.151365"><ele>597.0</ele><time>2026-04-24T12:51:17.941Z</time></trkpt><trkpt lat="34.393545" lon="8.151415"><ele>597.5</ele><time>2026-04-24T12:51:18.942Z</time></trkpt><trkpt lat="34.393425" lon="8.1514333"><ele>598.0</ele><time>2026-04-24T12:51:19.942Z</time></trkpt><trkpt lat="34.3932933" lon="8.1514367"><ele>598.5</ele><time>2026-04-24T12:51:20.942Z</time></trkpt><trkpt lat="34.393155" lon="8.1514217"><ele>599.0</ele><time>2026-04-24T12:51:21.942Z</time></trkpt><trkpt lat="34.39302" lon="8.1514117"><ele>598.5</ele><time>2026-04-24T12:51:22.941Z</time></trkpt><trkpt lat="34.3928867" lon="8.1514083"><ele>598.0</ele><time>2026-04-24T12:51:23.942Z</time></trkpt><trkpt lat="34.3927467" lon="8.151435"><ele>597.5</ele><time>2026-04-24T12:51:24.942Z</time></trkpt><trkpt lat="34.392605" lon="8.1514883"><ele>597.0</ele><time>2026-04-24T12:51:25.942Z</time></trkpt><trkpt lat="34.3924683" lon="8.1515683"><ele>594.6666666666666</ele><time>2026-04-24T12:51:26.942Z</time></trkpt><trkpt lat="34.392335" lon="8.151675"><ele>592.3333333333333</ele><time>2026-04-24T12:51:27.941Z</time></trkpt><trkpt lat="34.39221" lon="8.15178"><ele>590.0</ele><time>2026-04-24T12:51:28.941Z</time></trkpt><trkpt lat="34.3921033" lon="8.151895"><ele>590.0</ele><time>2026-04-24T12:51:29.941Z</time></trkpt><trkpt lat="34.392035" lon="8.1520267"><ele>590.0</ele><time>2026-04-24T12:51:30.941Z</time></trkpt><trkpt lat="34.3919867" lon="8.1521667"><ele>590.0</ele><time>2026-04-24T12:51:31.94Z</time></trkpt><trkpt lat="34.391965" lon="8.1523067"><ele>590.0</ele><time>2026-04-24T12:51:32.941Z</time></trkpt><trkpt lat="34.3919767" lon="8.1524483"><ele>590.25</ele><time>2026-04-24T12:51:33.94Z</time></trkpt><trkpt lat="34.3920017" lon="8.1525933"><ele>590.5</ele><time>2026-04-24T12:51:34.941Z</time></trkpt><trkpt lat="34.3920283" lon="8.1527483"><ele>590.75</ele><time>2026-04-24T12:51:35.94Z</time></trkpt><trkpt lat="34.3920367" lon="8.152905"><ele>591.0</ele><time>2026-04-24T12:51:36.94Z</time></trkpt><trkpt lat="34.3920183" lon="8.1530467"><ele>591.0</ele><time>2026-04-24T12:51:37.941Z</time></trkpt><trkpt lat="34.3919833" lon="8.1531817"><ele>591.0</ele><time>2026-04-24T12:51:38.941Z</time></trkpt><trkpt lat="34.3919167" lon="8.1532867"><ele>591.0</ele><time>2026-04-24T12:51:39.94Z</time></trkpt><trkpt lat="34.3918183" lon="8.1533583"><ele>591.0</ele><time>2026-04-24T12:51:40.941Z</time></trkpt><trkpt lat="34.3917133" lon="8.1533933"><ele>589.4</ele><time>2026-04-24T12:51:41.94Z</time></trkpt><trkpt lat="34.39161" lon="8.153425"><ele>587.8</ele><time>2026-04-24T12:51:42.94Z</time></trkpt><trkpt lat="34.3915017" lon="8.1534433"><ele>586.1999999999999</ele><time>2026-04-24T12:51:43.941Z</time></trkpt><trkpt lat="34.3913883" lon="8.153455"><ele>584.6</ele><time>2026-04-24T12:51:44.941Z</time></trkpt><trkpt lat="34.39127" lon="8.1534717"><ele>583.0</ele><time>2026-04-24T12:51:45.941Z</time></trkpt><trkpt lat="34.3911467" lon="8.153495"><ele>583.0</ele><time>2026-04-24T12:51:46.941Z</time></trkpt><trkpt lat="34.3910417" lon="8.1535467"><ele>583.0</ele><time>2026-04-24T12:51:47.941Z</time></trkpt><trkpt lat="34.3909517" lon="8.1536183"><ele>583.0</ele><time>2026-04-24T12:51:48.941Z</time></trkpt><trkpt lat="34.390875" lon="8.153715"><ele>583.0</ele><time>2026-04-24T12:51:49.941Z</time></trkpt><trkpt lat="34.3907917" lon="8.1538083"><ele>583.0</ele><time>2026-04-24T12:51:50.941Z</time></trkpt><trkpt lat="34.3907183" lon="8.1539083"><ele>583.0</ele><time>2026-04-24T12:51:51.941Z</time></trkpt><trkpt lat="34.3906417" lon="8.1540017"><ele>583.0</ele><time>2026-04-24T12:51:52.94Z</time></trkpt><trkpt lat="34.39056" lon="8.1540917"><ele>583.0</ele><time>2026-04-24T12:51:53.94Z</time></trkpt><trkpt lat="34.3904883" lon="8.15418"><ele>583.0</ele><time>2026-04-24T12:51:54.941Z</time></trkpt><trkpt lat="34.3904167" lon="8.1542533"><ele>583.0</ele><time>2026-04-24T12:51:55.941Z</time></trkpt><trkpt lat="34.39035" lon="8.1543267"><ele>581.8333333333334</ele><time>2026-04-24T12:51:56.941Z</time></trkpt><trkpt lat="34.3902867" lon="8.1544033"><ele>580.6666666666667</ele><time>2026-04-24T12:51:57.941Z</time></trkpt><trkpt lat="34.3902267" lon="8.1544783"><ele>579.5</ele><time>2026-04-24T12:51:58.941Z</time></trkpt><trkpt lat="34.3901633" lon="8.1545483"><ele>578.3333333333334</ele><time>2026-04-24T12:51:59.941Z</time></trkpt><trkpt lat="34.3901067" lon="8.1546167"><ele>577.1666666666666</ele><time>2026-04-24T12:52:00.941Z</time></trkpt><trkpt lat="34.3900317" lon="8.1547083"><ele>576.0</ele><time>2026-04-24T12:52:02.94Z</time></trkpt><trkpt lat="34.3899467" lon="8.1547667"><ele>576.0</ele><time>2026-04-24T12:52:05.941Z</time></trkpt><trkpt lat="34.3898567" lon="8.1548167"><ele>576.0</ele><time>2026-04-24T12:52:07.941Z</time></trkpt><trkpt lat="34.3897967" lon="8.1548483"><ele>576.0</ele><time>2026-04-24T12:52:08.941Z</time></trkpt><trkpt lat="34.3897317" lon="8.1548733"><ele>576.0</ele><time>2026-04-24T12:52:09.94Z</time></trkpt><trkpt lat="34.389665" lon="8.15488"><ele>576.0</ele><time>2026-04-24T12:52:10.941Z</time></trkpt><trkpt lat="34.3895917" lon="8.1548533"><ele>576.0</ele><time>2026-04-24T12:52:11.94Z</time></trkpt><trkpt lat="34.3895183" lon="8.15482"><ele>575.8333333333334</ele><time>2026-04-24T12:52:12.94Z</time></trkpt><trkpt lat="34.3894483" lon="8.1547783"><ele>575.6666666666666</ele><time>2026-04-24T12:52:13.94Z</time></trkpt><trkpt lat="34.3893767" lon="8.15473"><ele>575.5</ele><time>2026-04-24T12:52:14.941Z</time></trkpt><trkpt lat="34.3892967" lon="8.15468"><ele>575.3333333333333</ele><time>2026-04-24T12:52:15.94Z</time></trkpt><trkpt lat="34.3892133" lon="8.1546283"><ele>575.1666666666666</ele><time>2026-04-24T12:52:16.941Z</time></trkpt><trkpt lat="34.3891383" lon="8.1545883"><ele>575.0</ele><time>2026-04-24T12:52:17.941Z</time></trkpt><trkpt lat="34.3890633" lon="8.1545483"><ele>575.0</ele><time>2026-04-24T12:52:18.941Z</time></trkpt><trkpt lat="34.3889917" lon="8.1545067"><ele>575.0</ele><time>2026-04-24T12:52:19.941Z</time></trkpt><trkpt lat="34.3889167" lon="8.1544633"><ele>575.0</ele><time>2026-04-24T12:52:20.94Z</time></trkpt><trkpt lat="34.3888367" lon="8.1544117"><ele>575.0</ele><time>2026-04-24T12:52:21.941Z</time></trkpt><trkpt lat="34.3887617" lon="8.154375"><ele>575.0</ele><time>2026-04-24T12:52:22.94Z</time></trkpt><trkpt lat="34.3886783" lon="8.1543267"><ele>575.0</ele><time>2026-04-24T12:52:23.941Z</time></trkpt><trkpt lat="34.3886017" lon="8.1542833"><ele>575.0</ele><time>2026-04-24T12:52:24.941Z</time></trkpt><trkpt lat="34.3885217" lon="8.1542283"><ele>575.0</ele><time>2026-04-24T12:52:25.94Z</time></trkpt><trkpt lat="34.3884433" lon="8.154175"><ele>575.0</ele><time>2026-04-24T12:52:26.941Z</time></trkpt><trkpt lat="34.3883617" lon="8.1541233"><ele>575.0</ele><time>2026-04-24T12:52:27.941Z</time></trkpt><trkpt lat="34.3882717" lon="8.1540767"><ele>575.0</ele><time>2026-04-24T12:52:28.941Z</time></trkpt><trkpt lat="34.3881833" lon="8.1540217"><ele>575.0</ele><time>2026-04-24T12:52:29.94Z</time></trkpt><trkpt lat="34.3881033" lon="8.15396"><ele>575.0</ele><time>2026-04-24T12:52:30.941Z</time></trkpt><trkpt lat="34.3880333" lon="8.1539067"><ele>575.0</ele><time>2026-04-24T12:52:31.941Z</time></trkpt><trkpt lat="34.38797" lon="8.153865"><ele>575.0</ele><time>2026-04-24T12:52:32.94Z</time></trkpt><trkpt lat="34.3879133" lon="8.1538217"><ele>575.0</ele><time>2026-04-24T12:52:33.94Z</time></trkpt><trkpt lat="34.3878583" lon="8.153775"><ele>575.0</ele><time>2026-04-24T12:52:34.941Z</time></trkpt><trkpt lat="34.3878017" lon="8.153735"><ele>575.0</ele><time>2026-04-24T12:52:35.941Z</time></trkpt><trkpt lat="34.3877383" lon="8.1537"><ele>574.4</ele><time>2026-04-24T12:52:36.941Z</time></trkpt><trkpt lat="34.3876617" lon="8.1536717"><ele>573.8</ele><time>2026-04-24T12:52:37.941Z</time></trkpt><trkpt lat="34.38757" lon="8.1536317"><ele>573.2</ele><time>2026-04-24T12:52:38.94Z</time></trkpt><trkpt lat="34.387475" lon="8.1535933"><ele>572.6</ele><time>2026-04-24T12:52:39.941Z</time></trkpt><trkpt lat="34.3873667" lon="8.153575"><ele>572.0</ele><time>2026-04-24T12:52:40.941Z</time></trkpt><trkpt lat="34.3872583" lon="8.153565"><ele>571.0</ele><time>2026-04-24T12:52:41.94Z</time></trkpt><trkpt lat="34.3871467" lon="8.1535633"><ele>570.0</ele><time>2026-04-24T12:52:42.941Z</time></trkpt><trkpt lat="34.3870317" lon="8.15356"><ele>569.0</ele><time>2026-04-24T12:52:43.941Z</time></trkpt><trkpt lat="34.386915" lon="8.1535783"><ele>568.0</ele><time>2026-04-24T12:52:44.941Z</time></trkpt><trkpt lat="34.3867967" lon="8.1535883"><ele>568.0</ele><time>2026-04-24T12:52:45.941Z</time></trkpt><trkpt lat="34.3866717" lon="8.1535867"><ele>568.0</ele><time>2026-04-24T12:52:46.94Z</time></trkpt><trkpt lat="34.3865567" lon="8.1536133"><ele>568.0</ele><time>2026-04-24T12:52:47.941Z</time></trkpt><trkpt lat="34.3864433" lon="8.15362"><ele>568.0</ele><time>2026-04-24T12:52:48.941Z</time></trkpt><trkpt lat="34.3863267" lon="8.1536267"><ele>568.0</ele><time>2026-04-24T12:52:49.941Z</time></trkpt><trkpt lat="34.3862083" lon="8.1536333"><ele>568.0</ele><time>2026-04-24T12:52:50.941Z</time></trkpt><trkpt lat="34.386095" lon="8.1536483"><ele>568.0</ele><time>2026-04-24T12:52:51.941Z</time></trkpt><trkpt lat="34.385985" lon="8.1536633"><ele>568.0</ele><time>2026-04-24T12:52:52.94Z</time></trkpt><trkpt lat="34.3858767" lon="8.1536717"><ele>568.0</ele><time>2026-04-24T12:52:53.94Z</time></trkpt><trkpt lat="34.38578" lon="8.1536817"><ele>568.0</ele><time>2026-04-24T12:52:54.94Z</time></trkpt><trkpt lat="34.3856933" lon="8.15369"><ele>568.0</ele><time>2026-04-24T12:52:55.941Z</time></trkpt><trkpt lat="34.3856133" lon="8.1536933"><ele>568.0</ele><time>2026-04-24T12:52:56.941Z</time></trkpt><trkpt lat="34.3855333" lon="8.153695"><ele>568.0</ele><time>2026-04-24T12:52:57.94Z</time></trkpt><trkpt lat="34.3854517" lon="8.1536983"><ele>568.0</ele><time>2026-04-24T12:52:58.941Z</time></trkpt><trkpt lat="34.3853667" lon="8.153705"><ele>568.3333333333334</ele><time>2026-04-24T12:52:59.941Z</time></trkpt><trkpt lat="34.3852867" lon="8.1537083"><ele>568.6666666666667</ele><time>2026-04-24T12:53:00.941Z</time></trkpt><trkpt lat="34.3852" lon="8.1537167"><ele>569.0</ele><time>2026-04-24T12:53:01.941Z</time></trkpt><trkpt lat="34.3851083" lon="8.1537233"><ele>569.3333333333334</ele><time>2026-04-24T12:53:02.94Z</time></trkpt><trkpt lat="34.38502" lon="8.1537233"><ele>569.6666666666666</ele><time>2026-04-24T12:53:03.941Z</time></trkpt><trkpt lat="34.3849333" lon="8.153725"><ele>570.0</ele><time>2026-04-24T12:53:04.941Z</time></trkpt><trkpt lat="34.3848583" lon="8.153715"><ele>570.0</ele><time>2026-04-24T12:53:05.941Z</time></trkpt><trkpt lat="34.38479" lon="8.1537217"><ele>570.0</ele><time>2026-04-24T12:53:06.94Z</time></trkpt><trkpt lat="34.384675" lon="8.15372"><ele>570.0</ele><time>2026-04-24T12:53:08.94Z</time></trkpt><trkpt lat="34.3845733" lon="8.1536983"><ele>570.0</ele><time>2026-04-24T12:53:10.941Z</time></trkpt><trkpt lat="34.38449" lon="8.153685"><ele>570.0</ele><time>2026-04-24T12:53:28.941Z</time></trkpt><trkpt lat="34.38439" lon="8.15371"><ele>569.8333333333334</ele><time>2026-04-24T12:53:30.94Z</time></trkpt><trkpt lat="34.384325" lon="8.1537867"><ele>569.6666666666666</ele><time>2026-04-24T12:53:32.94Z</time></trkpt><trkpt lat="34.38432" lon="8.1538783"><ele>569.5</ele><time>2026-04-24T12:53:34.941Z</time></trkpt><trkpt lat="34.3843467" lon="8.15395"><ele>569.3333333333333</ele><time>2026-04-24T12:53:36.941Z</time></trkpt><trkpt lat="34.3844133" lon="8.1540467"><ele>569.1666666666666</ele><time>2026-04-24T12:53:38.941Z</time></trkpt><trkpt lat="34.3844583" lon="8.1541067"><ele>569.0</ele><time>2026-04-24T12:53:39.941Z</time></trkpt><trkpt lat="34.3845167" lon="8.154165"><ele>568.5</ele><time>2026-04-24T12:53:40.941Z</time></trkpt><trkpt lat="34.3845717" lon="8.154235"><ele>568.0</ele><time>2026-04-24T12:53:41.941Z</time></trkpt><trkpt lat="34.384625" lon="8.15431"><ele>567.5</ele><time>2026-04-24T12:53:42.941Z</time></trkpt><trkpt lat="34.3846817" lon="8.1543867"><ele>567.0</ele><time>2026-04-24T12:53:43.941Z</time></trkpt><trkpt lat="34.3847267" lon="8.1544583"><ele>566.5</ele><time>2026-04-24T12:53:44.941Z</time></trkpt><trkpt lat="34.3847667" lon="8.1545233"><ele>566.0</ele><time>2026-04-24T12:53:45.941Z</time></trkpt><trkpt lat="34.38481" lon="8.1545867"><ele>566.0</ele><time>2026-04-24T12:53:46.94Z</time></trkpt><trkpt lat="34.384845" lon="8.1546517"><ele>566.0</ele><time>2026-04-24T12:53:47.941Z</time></trkpt><trkpt lat="34.38488" lon="8.1547167"><ele>566.0</ele><time>2026-04-24T12:53:48.941Z</time></trkpt><trkpt lat="34.3849083" lon="8.154815"><ele>566.0</ele><time>2026-04-24T12:53:50.941Z</time></trkpt><trkpt lat="34.3849567" lon="8.1548933"><ele>566.0</ele><time>2026-04-24T12:54:03.94Z</time></trkpt><trkpt lat="34.3850117" lon="8.1549783"><ele>566.0</ele><time>2026-04-24T12:54:04.941Z</time></trkpt><trkpt lat="34.3850767" lon="8.1550783"><ele>565.0</ele><time>2026-04-24T12:54:05.941Z</time></trkpt><trkpt lat="34.3851483" lon="8.1551833"><ele>564.0</ele><time>2026-04-24T12:54:06.94Z</time></trkpt><trkpt lat="34.38531" lon="8.1554083"><ele>563.0</ele><time>2026-04-24T12:54:08.94Z</time></trkpt><trkpt lat="34.38539" lon="8.1555283"><ele>563.0</ele><time>2026-04-24T12:54:09.941Z</time></trkpt><trkpt lat="34.38546" lon="8.1556533"><ele>563.0</ele><time>2026-04-24T12:54:10.941Z</time></trkpt><trkpt lat="34.3855383" lon="8.1557817"><ele>563.0</ele><time>2026-04-24T12:54:11.94Z</time></trkpt><trkpt lat="34.385615" lon="8.15591"><ele>563.0</ele><time>2026-04-24T12:54:12.94Z</time></trkpt><trkpt lat="34.3856933" lon="8.15603"><ele>563.0</ele><time>2026-04-24T12:54:13.941Z</time></trkpt><trkpt lat="34.3857717" lon="8.1561533"><ele>563.0</ele><time>2026-04-24T12:54:14.941Z</time></trkpt><trkpt lat="34.3858567" lon="8.1562783"><ele>563.0</ele><time>2026-04-24T12:54:15.94Z</time></trkpt><trkpt lat="34.385935" lon="8.1563967"><ele>563.0</ele><time>2026-04-24T12:54:16.941Z</time></trkpt><trkpt lat="34.3860083" lon="8.1565083"><ele>562.6</ele><time>2026-04-24T12:54:17.941Z</time></trkpt><trkpt lat="34.3860867" lon="8.15662"><ele>562.1999999999999</ele><time>2026-04-24T12:54:18.941Z</time></trkpt><trkpt lat="34.3861583" lon="8.1567217"><ele>561.8</ele><time>2026-04-24T12:54:19.941Z</time></trkpt><trkpt lat="34.3862167" lon="8.1568067"><ele>561.4</ele><time>2026-04-24T12:54:20.941Z</time></trkpt><trkpt lat="34.3862683" lon="8.15688"><ele>561.0</ele><time>2026-04-24T12:54:21.941Z</time></trkpt><trkpt lat="34.3863133" lon="8.156935"><ele>561.0</ele><time>2026-04-24T12:54:22.941Z</time></trkpt><trkpt lat="34.3863483" lon="8.1568617"><ele>561.0</ele><time>2026-04-24T12:54:26.941Z</time></trkpt><trkpt lat="34.3862667" lon="8.156745"><ele>561.0</ele><time>2026-04-24T12:54:28.941Z</time></trkpt><trkpt lat="34.3862183" lon="8.15667"><ele>561.0</ele><time>2026-04-24T12:54:29.941Z</time></trkpt><trkpt lat="34.386165" lon="8.1565883"><ele>561.0</ele><time>2026-04-24T12:54:30.941Z</time></trkpt><trkpt lat="34.3861083" lon="8.156495"><ele>561.4</ele><time>2026-04-24T12:54:31.94Z</time></trkpt><trkpt lat="34.3860433" lon="8.1563983"><ele>561.8</ele><time>2026-04-24T12:54:32.941Z</time></trkpt><trkpt lat="34.3859767" lon="8.1562883"><ele>562.1999999999999</ele><time>2026-04-24T12:54:33.941Z</time></trkpt><trkpt lat="34.3859067" lon="8.15618"><ele>562.6</ele><time>2026-04-24T12:54:34.941Z</time></trkpt><trkpt lat="34.3858383" lon="8.156075"><ele>563.0</ele><time>2026-04-24T12:54:35.941Z</time></trkpt><trkpt lat="34.3857683" lon="8.15597"><ele>563.0</ele><time>2026-04-24T12:54:36.94Z</time></trkpt><trkpt lat="34.3856983" lon="8.1558583"><ele>563.0</ele><time>2026-04-24T12:54:37.941Z</time></trkpt><trkpt lat="34.3856267" lon="8.1557433"><ele>563.0</ele><time>2026-04-24T12:54:38.941Z</time></trkpt><trkpt lat="34.3855533" lon="8.1556267"><ele>563.0</ele><time>2026-04-24T12:54:39.941Z</time></trkpt><trkpt lat="34.3854783" lon="8.1555117"><ele>563.0</ele><time>2026-04-24T12:54:40.941Z</time></trkpt><trkpt lat="34.3853967" lon="8.15539"><ele>563.0</ele><time>2026-04-24T12:54:41.94Z</time></trkpt><trkpt lat="34.3853167" lon="8.1552833"><ele>563.0</ele><time>2026-04-24T12:54:42.941Z</time></trkpt><trkpt lat="34.3852433" lon="8.155175"><ele>563.0</ele><time>2026-04-24T12:54:43.941Z</time></trkpt><trkpt lat="34.3851783" lon="8.1550667"><ele>563.0</ele><time>2026-04-24T12:54:44.941Z</time></trkpt><trkpt lat="34.3850883" lon="8.1549517"><ele>563.0</ele><time>2026-04-24T12:54:45.94Z</time></trkpt><trkpt lat="34.3850133" lon="8.1548333"><ele>563.0</ele><time>2026-04-24T12:54:46.94Z</time></trkpt><trkpt lat="34.3849467" lon="8.1547133"><ele>563.0</ele><time>2026-04-24T12:54:47.941Z</time></trkpt><trkpt lat="34.3848833" lon="8.154605"><ele>563.4</ele><time>2026-04-24T12:54:48.94Z</time></trkpt><trkpt lat="34.38482" lon="8.1544983"><ele>563.8</ele><time>2026-04-24T12:54:49.941Z</time></trkpt><trkpt lat="34.3847517" lon="8.1543967"><ele>564.2</ele><time>2026-04-24T12:54:50.941Z</time></trkpt><trkpt lat="34.3846833" lon="8.1542983"><ele>564.6</ele><time>2026-04-24T12:54:51.941Z</time></trkpt><trkpt lat="34.384625" lon="8.1542017"><ele>565.0</ele><time>2026-04-24T12:54:52.94Z</time></trkpt><trkpt lat="34.3845767" lon="8.1541167"><ele>565.8</ele><time>2026-04-24T12:54:53.941Z</time></trkpt><trkpt lat="34.3845233" lon="8.154005"><ele>566.6</ele><time>2026-04-24T12:54:55.941Z</time></trkpt><trkpt lat="34.3845167" lon="8.1539"><ele>567.4</ele><time>2026-04-24T12:54:57.94Z</time></trkpt><trkpt lat="34.3845067" lon="8.15376"><ele>568.2</ele><time>2026-04-24T12:54:59.94Z</time></trkpt><trkpt lat="34.3844383" lon="8.1536633"><ele>569.0</ele><time>2026-04-24T12:55:01.941Z</time></trkpt><trkpt lat="34.384335" lon="8.1537283"><ele>569.0</ele><time>2026-04-24T12:55:03.94Z</time></trkpt><trkpt lat="34.38432" lon="8.1538567"><ele>569.0</ele><time>2026-04-24T12:55:05.941Z</time></trkpt><trkpt lat="34.3843217" lon="8.1539367"><ele>569.0</ele><time>2026-04-24T12:55:06.941Z</time></trkpt><trkpt lat="34.3843133" lon="8.1540183"><ele>569.0</ele><time>2026-04-24T12:55:07.941Z</time></trkpt><trkpt lat="34.3842883" lon="8.1541083"><ele>569.0</ele><time>2026-04-24T12:55:08.94Z</time></trkpt><trkpt lat="34.3842483" lon="8.1542033"><ele>569.0</ele><time>2026-04-24T12:55:09.941Z</time></trkpt><trkpt lat="34.3842017" lon="8.1543017"><ele>568.2</ele><time>2026-04-24T12:55:10.94Z</time></trkpt><trkpt lat="34.3841483" lon="8.1544067"><ele>567.4</ele><time>2026-04-24T12:55:11.939Z</time></trkpt><trkpt lat="34.3841033" lon="8.1545017"><ele>566.6</ele><time>2026-04-24T12:55:12.94Z</time></trkpt><trkpt lat="34.3840517" lon="8.15461"><ele>565.8</ele><time>2026-04-24T12:55:13.94Z</time></trkpt><trkpt lat="34.384005" lon="8.1547183"><ele>565.0</ele><time>2026-04-24T12:55:14.94Z</time></trkpt><trkpt lat="34.383955" lon="8.154825"><ele>564.5</ele><time>2026-04-24T12:55:15.94Z</time></trkpt><trkpt lat="34.3839067" lon="8.1549183"><ele>564.0</ele><time>2026-04-24T12:55:16.939Z</time></trkpt><trkpt lat="34.3838767" lon="8.155015"><ele>563.5</ele><time>2026-04-24T12:55:17.94Z</time></trkpt><trkpt lat="34.3838383" lon="8.1551167"><ele>563.0</ele><time>2026-04-24T12:55:18.94Z</time></trkpt><trkpt lat="34.3838133" lon="8.155215"><ele>562.5</ele><time>2026-04-24T12:55:19.94Z</time></trkpt><trkpt lat="34.3837767" lon="8.1553117"><ele>562.0</ele><time>2026-04-24T12:55:20.94Z</time></trkpt><trkpt lat="34.38374" lon="8.1554083"><ele>562.0</ele><time>2026-04-24T12:55:21.939Z</time></trkpt><trkpt lat="34.38371" lon="8.1554917"><ele>562.0</ele><time>2026-04-24T12:55:22.939Z</time></trkpt><trkpt lat="34.3836783" lon="8.1555767"><ele>562.0</ele><time>2026-04-24T12:55:23.94Z</time></trkpt><trkpt lat="34.383645" lon="8.1556867"><ele>562.0</ele><time>2026-04-24T12:55:25.94Z</time></trkpt><trkpt lat="34.383625" lon="8.1557617"><ele>562.0</ele><time>2026-04-24T12:55:27.94Z</time></trkpt><trkpt lat="34.383595" lon="8.1558683"><ele>562.0</ele><time>2026-04-24T12:55:30.939Z</time></trkpt><trkpt lat="34.3835583" lon="8.1559633"><ele>562.3333333333334</ele><time>2026-04-24T12:55:32.94Z</time></trkpt><trkpt lat="34.3835133" lon="8.1560517"><ele>562.6666666666667</ele><time>2026-04-24T12:55:34.94Z</time></trkpt><trkpt lat="34.3834367" lon="8.1561"><ele>563.0</ele><time>2026-04-24T12:56:58.94Z</time></trkpt><trkpt lat="34.38341" lon="8.1561817"><ele>563.3333333333334</ele><time>2026-04-24T12:57:00.94Z</time></trkpt><trkpt lat="34.3833633" lon="8.1563033"><ele>563.6666666666666</ele><time>2026-04-24T12:57:02.94Z</time></trkpt><trkpt lat="34.3833233" lon="8.1563667"><ele>564.0</ele><time>2026-04-24T12:57:03.939Z</time></trkpt><trkpt lat="34.3832783" lon="8.1564383"><ele>564.0</ele><time>2026-04-24T12:57:04.94Z</time></trkpt><trkpt lat="34.3832367" lon="8.15652"><ele>564.0</ele><time>2026-04-24T12:57:05.939Z</time></trkpt><trkpt lat="34.3831933" lon="8.1566067"><ele>564.0</ele><time>2026-04-24T12:57:06.939Z</time></trkpt><trkpt lat="34.3831533" lon="8.1566867"><ele>564.0</ele><time>2026-04-24T12:57:07.94Z</time></trkpt><trkpt lat="34.3831117" lon="8.1567517"><ele>564.0</ele><time>2026-04-24T12:57:08.94Z</time></trkpt><trkpt lat="34.38303" lon="8.156875"><ele>564.0</ele><time>2026-04-24T12:57:10.94Z</time></trkpt><trkpt lat="34.3829833" lon="8.1569417"><ele>565.0</ele><time>2026-04-24T12:57:11.939Z</time></trkpt><trkpt lat="34.3829267" lon="8.1570067"><ele>566.0</ele><time>2026-04-24T12:57:12.94Z</time></trkpt><trkpt lat="34.3828583" lon="8.1570633"><ele>567.0</ele><time>2026-04-24T12:57:13.94Z</time></trkpt><trkpt lat="34.3827833" lon="8.1571133"><ele>568.0</ele><time>2026-04-24T12:57:14.94Z</time></trkpt><trkpt lat="34.3827083" lon="8.1571683"><ele>569.0</ele><time>2026-04-24T12:57:15.94Z</time></trkpt><trkpt lat="34.3826217" lon="8.1572217"><ele>570.0</ele><time>2026-04-24T12:57:16.94Z</time></trkpt><trkpt lat="34.3825367" lon="8.1572733"><ele>570.0</ele><time>2026-04-24T12:57:17.939Z</time></trkpt><trkpt lat="34.3824517" lon="8.1573233"><ele>570.0</ele><time>2026-04-24T12:57:18.94Z</time></trkpt><trkpt lat="34.3823617" lon="8.1573667"><ele>570.0</ele><time>2026-04-24T12:57:19.939Z</time></trkpt><trkpt lat="34.3822733" lon="8.1574133"><ele>570.0</ele><time>2026-04-24T12:57:20.94Z</time></trkpt><trkpt lat="34.382185" lon="8.1574567"><ele>570.0</ele><time>2026-04-24T12:57:21.94Z</time></trkpt><trkpt lat="34.382095" lon="8.1574967"><ele>570.4</ele><time>2026-04-24T12:57:22.94Z</time></trkpt><trkpt lat="34.3820067" lon="8.1575417"><ele>570.8</ele><time>2026-04-24T12:57:23.94Z</time></trkpt><trkpt lat="34.3819167" lon="8.1575833"><ele>571.2</ele><time>2026-04-24T12:57:24.939Z</time></trkpt><trkpt lat="34.3818283" lon="8.1576267"><ele>571.6</ele><time>2026-04-24T12:57:25.94Z</time></trkpt><trkpt lat="34.3817517" lon="8.1576833"><ele>572.0</ele><time>2026-04-24T12:57:26.94Z</time></trkpt><trkpt lat="34.3816667" lon="8.15773"><ele>572.0</ele><time>2026-04-24T12:57:27.94Z</time></trkpt><trkpt lat="34.3815867" lon="8.157765"><ele>572.0</ele><time>2026-04-24T12:57:28.939Z</time></trkpt><trkpt lat="34.3815017" lon="8.1577867"><ele>572.0</ele><time>2026-04-24T12:57:29.939Z</time></trkpt><trkpt lat="34.3814183" lon="8.1578117"><ele>572.0</ele><time>2026-04-24T12:57:30.939Z</time></trkpt><trkpt lat="34.3813367" lon="8.15783"><ele>572.0</ele><time>2026-04-24T12:57:31.94Z</time></trkpt><trkpt lat="34.3812583" lon="8.157845"><ele>572.0</ele><time>2026-04-24T12:57:32.94Z</time></trkpt><trkpt lat="34.3811833" lon="8.157845"><ele>571.6666666666666</ele><time>2026-04-24T12:57:33.94Z</time></trkpt><trkpt lat="34.3810967" lon="8.157855"><ele>571.3333333333333</ele><time>2026-04-24T12:57:34.94Z</time></trkpt><trkpt lat="34.38101" lon="8.15787"><ele>571.0</ele><time>2026-04-24T12:57:35.94Z</time></trkpt><trkpt lat="34.3809233" lon="8.1578833"><ele>570.6666666666666</ele><time>2026-04-24T12:57:36.94Z</time></trkpt><trkpt lat="34.3808333" lon="8.1579"><ele>570.3333333333334</ele><time>2026-04-24T12:57:37.94Z</time></trkpt><trkpt lat="34.3807483" lon="8.1579183"><ele>570.0</ele><time>2026-04-24T12:57:38.94Z</time></trkpt><trkpt lat="34.3806683" lon="8.15794"><ele>570.0</ele><time>2026-04-24T12:57:39.94Z</time></trkpt><trkpt lat="34.3805933" lon="8.157955"><ele>570.0</ele><time>2026-04-24T12:57:40.939Z</time></trkpt><trkpt lat="34.3805183" lon="8.1579683"><ele>570.0</ele><time>2026-04-24T12:57:41.939Z</time></trkpt><trkpt lat="34.3804383" lon="8.15798"><ele>570.0</ele><time>2026-04-24T12:57:42.94Z</time></trkpt><trkpt lat="34.380365" lon="8.157985"><ele>570.0</ele><time>2026-04-24T12:57:43.94Z</time></trkpt><trkpt lat="34.380295" lon="8.157995"><ele>570.0</ele><time>2026-04-24T12:57:44.94Z</time></trkpt><trkpt lat="34.3802283" lon="8.1579933"><ele>570.0</ele><time>2026-04-24T12:57:45.94Z</time></trkpt><trkpt lat="34.3801583" lon="8.1579833"><ele>570.0</ele><time>2026-04-24T12:57:46.94Z</time></trkpt><trkpt lat="34.380095" lon="8.1579683"><ele>570.0</ele><time>2026-04-24T12:57:47.94Z</time></trkpt><trkpt lat="34.38003" lon="8.1579433"><ele>570.0</ele><time>2026-04-24T12:57:48.94Z</time></trkpt><trkpt lat="34.3799633" lon="8.1579117"><ele>570.0</ele><time>2026-04-24T12:57:49.939Z</time></trkpt><trkpt lat="34.3798917" lon="8.1578533"><ele>570.0</ele><time>2026-04-24T12:57:50.94Z</time></trkpt><trkpt lat="34.379815" lon="8.157815"><ele>570.0</ele><time>2026-04-24T12:57:51.94Z</time></trkpt><trkpt lat="34.3797383" lon="8.1577767"><ele>570.1666666666666</ele><time>2026-04-24T12:57:52.94Z</time></trkpt><trkpt lat="34.3796583" lon="8.1577383"><ele>570.3333333333334</ele><time>2026-04-24T12:57:53.939Z</time></trkpt><trkpt lat="34.3795783" lon="8.1577017"><ele>570.5</ele><time>2026-04-24T12:57:54.94Z</time></trkpt><trkpt lat="34.3795" lon="8.1576533"><ele>570.6666666666667</ele><time>2026-04-24T12:57:55.94Z</time></trkpt><trkpt lat="34.3794183" lon="8.1576133"><ele>570.8333333333334</ele><time>2026-04-24T12:57:56.94Z</time></trkpt><trkpt lat="34.3793417" lon="8.1575683"><ele>571.0</ele><time>2026-04-24T12:57:57.939Z</time></trkpt><trkpt lat="34.3792683" lon="8.1575233"><ele>571.0</ele><time>2026-04-24T12:57:58.94Z</time></trkpt><trkpt lat="34.3791983" lon="8.15749"><ele>571.0</ele><time>2026-04-24T12:57:59.94Z</time></trkpt><trkpt lat="34.3791267" lon="8.15747"><ele>571.0</ele><time>2026-04-24T12:58:00.94Z</time></trkpt><trkpt lat="34.37906" lon="8.157455"><ele>571.0</ele><time>2026-04-24T12:58:01.939Z</time></trkpt><trkpt lat="34.3789883" lon="8.1574533"><ele>571.0</ele><time>2026-04-24T12:58:02.94Z</time></trkpt><trkpt lat="34.3789183" lon="8.1574483"><ele>571.0</ele><time>2026-04-24T12:58:03.94Z</time></trkpt><trkpt lat="34.37885" lon="8.15745"><ele>571.0</ele><time>2026-04-24T12:58:04.94Z</time></trkpt><trkpt lat="34.378785" lon="8.1574467"><ele>571.3333333333334</ele><time>2026-04-24T12:58:05.94Z</time></trkpt><trkpt lat="34.3787183" lon="8.1574433"><ele>571.6666666666667</ele><time>2026-04-24T12:58:06.939Z</time></trkpt><trkpt lat="34.378655" lon="8.1574417"><ele>572.0</ele><time>2026-04-24T12:58:07.94Z</time></trkpt><trkpt lat="34.3785467" lon="8.157435"><ele>572.3333333333334</ele><time>2026-04-24T12:58:09.94Z</time></trkpt><trkpt lat="34.3784817" lon="8.1574383"><ele>572.6666666666666</ele><time>2026-04-24T12:58:12.94Z</time></trkpt><trkpt lat="34.3784167" lon="8.1573483"><ele>573.0</ele><time>2026-04-24T12:58:22.939Z</time></trkpt><trkpt lat="34.3783683" lon="8.1572733"><ele>573.3333333333334</ele><time>2026-04-24T12:58:23.939Z</time></trkpt><trkpt lat="34.3783167" lon="8.1571917"><ele>573.6666666666666</ele><time>2026-04-24T12:58:24.94Z</time></trkpt><trkpt lat="34.37827" lon="8.1571033"><ele>574.0</ele><time>2026-04-24T12:58:25.94Z</time></trkpt><trkpt lat="34.3782233" lon="8.15701"><ele>574.3333333333333</ele><time>2026-04-24T12:58:26.94Z</time></trkpt><trkpt lat="34.3781783" lon="8.156935"><ele>574.6666666666666</ele><time>2026-04-24T12:58:27.939Z</time></trkpt><trkpt lat="34.3781267" lon="8.15686"><ele>575.0</ele><time>2026-04-24T12:58:28.94Z</time></trkpt><trkpt lat="34.378085" lon="8.1567917"><ele>575.0</ele><time>2026-04-24T12:58:29.94Z</time></trkpt><trkpt lat="34.3780417" lon="8.156725"><ele>575.0</ele><time>2026-04-24T12:58:30.94Z</time></trkpt><trkpt lat="34.3779633" lon="8.1566567"><ele>575.0</ele><time>2026-04-24T12:58:32.94Z</time></trkpt><trkpt lat="34.3779" lon="8.1566617"><ele>575.0</ele><time>2026-04-24T12:58:34.94Z</time></trkpt><trkpt lat="34.3778183" lon="8.1567217"><ele>575.0</ele><time>2026-04-24T12:58:36.94Z</time></trkpt><trkpt lat="34.3777283" lon="8.1568267"><ele>575.0</ele><time>2026-04-24T12:58:38.94Z</time></trkpt><trkpt lat="34.3776767" lon="8.1569017"><ele>575.0</ele><time>2026-04-24T12:58:39.94Z</time></trkpt><trkpt lat="34.3776133" lon="8.15699"><ele>575.0</ele><time>2026-04-24T12:58:40.94Z</time></trkpt><trkpt lat="34.37755" lon="8.1570717"><ele>575.0</ele><time>2026-04-24T12:58:41.94Z</time></trkpt><trkpt lat="34.3774783" lon="8.1571517"><ele>575.0</ele><time>2026-04-24T12:58:42.939Z</time></trkpt><trkpt lat="34.3774033" lon="8.1572467"><ele>575.0</ele><time>2026-04-24T12:58:43.94Z</time></trkpt><trkpt lat="34.3773483" lon="8.1573383"><ele>575.0</ele><time>2026-04-24T12:58:44.94Z</time></trkpt><trkpt lat="34.3772867" lon="8.1574367"><ele>575.0</ele><time>2026-04-24T12:58:45.94Z</time></trkpt><trkpt lat="34.3772183" lon="8.1575383"><ele>575.0</ele><time>2026-04-24T12:58:46.94Z</time></trkpt><trkpt lat="34.3771467" lon="8.1576433"><ele>575.0</ele><time>2026-04-24T12:58:47.94Z</time></trkpt><trkpt lat="34.3770783" lon="8.1577533"><ele>574.25</ele><time>2026-04-24T12:58:48.94Z</time></trkpt><trkpt lat="34.377005" lon="8.157865"><ele>573.5</ele><time>2026-04-24T12:58:49.94Z</time></trkpt><trkpt lat="34.37693" lon="8.1579717"><ele>572.75</ele><time>2026-04-24T12:58:50.939Z</time></trkpt><trkpt lat="34.3768483" lon="8.1580783"><ele>572.0</ele><time>2026-04-24T12:58:51.94Z</time></trkpt><trkpt lat="34.3767683" lon="8.1581967"><ele>571.0</ele><time>2026-04-24T12:58:52.94Z</time></trkpt><trkpt lat="34.37669" lon="8.1583067"><ele>570.0</ele><time>2026-04-24T12:58:53.939Z</time></trkpt><trkpt lat="34.3766117" lon="8.158425"><ele>569.0</ele><time>2026-04-24T12:58:54.939Z</time></trkpt><trkpt lat="34.3765267" lon="8.158545"><ele>568.0</ele><time>2026-04-24T12:58:55.939Z</time></trkpt><trkpt lat="34.3764333" lon="8.1586617"><ele>568.75</ele><time>2026-04-24T12:58:56.939Z</time></trkpt><trkpt lat="34.3763517" lon="8.15875"><ele>569.5</ele><time>2026-04-24T12:58:57.939Z</time></trkpt><trkpt lat="34.37626" lon="8.1588567"><ele>570.25</ele><time>2026-04-24T12:58:58.939Z</time></trkpt><trkpt lat="34.3761717" lon="8.1589833"><ele>571.0</ele><time>2026-04-24T12:58:59.938Z</time></trkpt><trkpt lat="34.37608" lon="8.1590917"><ele>571.0</ele><time>2026-04-24T12:59:00.939Z</time></trkpt><trkpt lat="34.375985" lon="8.15921"><ele>571.0</ele><time>2026-04-24T12:59:01.939Z</time></trkpt><trkpt lat="34.3758983" lon="8.159335"><ele>571.0</ele><time>2026-04-24T12:59:02.939Z</time></trkpt><trkpt lat="34.37579" lon="8.1594433"><ele>571.0</ele><time>2026-04-24T12:59:03.939Z</time></trkpt><trkpt lat="34.3756767" lon="8.1595383"><ele>571.0</ele><time>2026-04-24T12:59:04.939Z</time></trkpt><trkpt lat="34.3755633" lon="8.1596283"><ele>571.0</ele><time>2026-04-24T12:59:05.938Z</time></trkpt><trkpt lat="34.3754433" lon="8.1597017"><ele>571.0</ele><time>2026-04-24T12:59:06.939Z</time></trkpt><trkpt lat="34.3753217" lon="8.15976"><ele>571.0</ele><time>2026-04-24T12:59:07.939Z</time></trkpt><trkpt lat="34.3752033" lon="8.1598067"><ele>571.0</ele><time>2026-04-24T12:59:08.939Z</time></trkpt><trkpt lat="34.3751033" lon="8.1598633"><ele>571.0</ele><time>2026-04-24T12:59:09.939Z</time></trkpt><trkpt lat="34.3750033" lon="8.15992"><ele>571.0</ele><time>2026-04-24T12:59:10.938Z</time></trkpt><trkpt lat="34.3749067" lon="8.159965"><ele>571.0</ele><time>2026-04-24T12:59:11.939Z</time></trkpt><trkpt lat="34.37481" lon="8.1600017"><ele>571.0</ele><time>2026-04-24T12:59:12.939Z</time></trkpt><trkpt lat="34.3747183" lon="8.16004"><ele>570.0</ele><time>2026-04-24T12:59:13.939Z</time></trkpt><trkpt lat="34.3746267" lon="8.1600833"><ele>569.0</ele><time>2026-04-24T12:59:14.938Z</time></trkpt><trkpt lat="34.3745317" lon="8.16013"><ele>568.0</ele><time>2026-04-24T12:59:15.938Z</time></trkpt><trkpt lat="34.3744367" lon="8.1601767"><ele>567.0</ele><time>2026-04-24T12:59:16.939Z</time></trkpt><trkpt lat="34.3743383" lon="8.1602283"><ele>566.0</ele><time>2026-04-24T12:59:17.939Z</time></trkpt><trkpt lat="34.3742433" lon="8.1602817"><ele>566.0</ele><time>2026-04-24T12:59:18.938Z</time></trkpt><trkpt lat="34.3741433" lon="8.160335"><ele>566.0</ele><time>2026-04-24T12:59:19.939Z</time></trkpt><trkpt lat="34.3740583" lon="8.160395"><ele>566.0</ele><time>2026-04-24T12:59:20.939Z</time></trkpt><trkpt lat="34.3739733" lon="8.1604633"><ele>566.0</ele><time>2026-04-24T12:59:21.939Z</time></trkpt><trkpt lat="34.3738817" lon="8.1605317"><ele>566.0</ele><time>2026-04-24T12:59:22.939Z</time></trkpt><trkpt lat="34.3737917" lon="8.1606017"><ele>566.5</ele><time>2026-04-24T12:59:23.939Z</time></trkpt><trkpt lat="34.3737083" lon="8.1606833"><ele>567.0</ele><time>2026-04-24T12:59:24.939Z</time></trkpt><trkpt lat="34.373615" lon="8.16076"><ele>567.5</ele><time>2026-04-24T12:59:25.939Z</time></trkpt><trkpt lat="34.3735217" lon="8.1608467"><ele>568.0</ele><time>2026-04-24T12:59:26.939Z</time></trkpt><trkpt lat="34.3734283" lon="8.1609433"><ele>568.0</ele><time>2026-04-24T12:59:27.939Z</time></trkpt><trkpt lat="34.373335" lon="8.161045"><ele>568.0</ele><time>2026-04-24T12:59:28.939Z</time></trkpt><trkpt lat="34.373245" lon="8.1611633"><ele>568.0</ele><time>2026-04-24T12:59:29.939Z</time></trkpt><trkpt lat="34.3731583" lon="8.1612783"><ele>568.0</ele><time>2026-04-24T12:59:30.939Z</time></trkpt><trkpt lat="34.3730717" lon="8.1613867"><ele>568.0</ele><time>2026-04-24T12:59:31.938Z</time></trkpt><trkpt lat="34.37299" lon="8.161495"><ele>568.0</ele><time>2026-04-24T12:59:32.939Z</time></trkpt><trkpt lat="34.3729083" lon="8.16161"><ele>568.0</ele><time>2026-04-24T12:59:33.939Z</time></trkpt><trkpt lat="34.3728167" lon="8.1617217"><ele>568.0</ele><time>2026-04-24T12:59:34.939Z</time></trkpt><trkpt lat="34.3727283" lon="8.1618317"><ele>568.0</ele><time>2026-04-24T12:59:35.939Z</time></trkpt><trkpt lat="34.3726383" lon="8.1619433"><ele>568.0</ele><time>2026-04-24T12:59:36.938Z</time></trkpt><trkpt lat="34.372545" lon="8.1620583"><ele>568.0</ele><time>2026-04-24T12:59:37.938Z</time></trkpt><trkpt lat="34.3724517" lon="8.162175"><ele>568.0</ele><time>2026-04-24T12:59:38.939Z</time></trkpt><trkpt lat="34.3723533" lon="8.1622867"><ele>569.25</ele><time>2026-04-24T12:59:39.939Z</time></trkpt><trkpt lat="34.37226" lon="8.162405"><ele>570.5</ele><time>2026-04-24T12:59:40.939Z</time></trkpt><trkpt lat="34.3721683" lon="8.1625183"><ele>571.75</ele><time>2026-04-24T12:59:41.939Z</time></trkpt><trkpt lat="34.3720783" lon="8.162635"><ele>573.0</ele><time>2026-04-24T12:59:42.938Z</time></trkpt><trkpt lat="34.3719867" lon="8.1627483"><ele>574.0</ele><time>2026-04-24T12:59:43.938Z</time></trkpt><trkpt lat="34.3719" lon="8.16286"><ele>575.0</ele><time>2026-04-24T12:59:44.939Z</time></trkpt><trkpt lat="34.3718083" lon="8.162965"><ele>576.0</ele><time>2026-04-24T12:59:45.938Z</time></trkpt><trkpt lat="34.3717183" lon="8.1630683"><ele>577.0</ele><time>2026-04-24T12:59:46.939Z</time></trkpt><trkpt lat="34.371635" lon="8.16318"><ele>576.75</ele><time>2026-04-24T12:59:47.939Z</time></trkpt><trkpt lat="34.3715467" lon="8.1632917"><ele>576.5</ele><time>2026-04-24T12:59:48.939Z</time></trkpt><trkpt lat="34.37146" lon="8.1634017"><ele>576.25</ele><time>2026-04-24T12:59:49.939Z</time></trkpt><trkpt lat="34.3713717" lon="8.16352"><ele>576.0</ele><time>2026-04-24T12:59:50.939Z</time></trkpt><trkpt lat="34.3712933" lon="8.1636383"><ele>576.5</ele><time>2026-04-24T12:59:51.939Z</time></trkpt><trkpt lat="34.37123" lon="8.1637667"><ele>577.0</ele><time>2026-04-24T12:59:52.938Z</time></trkpt><trkpt lat="34.3711733" lon="8.1639017"><ele>577.5</ele><time>2026-04-24T12:59:53.939Z</time></trkpt><trkpt lat="34.371125" lon="8.164035"><ele>578.0</ele><time>2026-04-24T12:59:54.939Z</time></trkpt><trkpt lat="34.37109" lon="8.1641767"><ele>578.0</ele><time>2026-04-24T12:59:55.938Z</time></trkpt><trkpt lat="34.371055" lon="8.1643133"><ele>578.0</ele><time>2026-04-24T12:59:56.939Z</time></trkpt><trkpt lat="34.3710283" lon="8.1644567"><ele>578.0</ele><time>2026-04-24T12:59:57.939Z</time></trkpt><trkpt lat="34.3709983" lon="8.1645983"><ele>578.0</ele><time>2026-04-24T12:59:58.938Z</time></trkpt><trkpt lat="34.3709717" lon="8.1647433"><ele>577.4</ele><time>2026-04-24T12:59:59.939Z</time></trkpt><trkpt lat="34.3709367" lon="8.1648783"><ele>576.8</ele><time>2026-04-24T13:00:00.938Z</time></trkpt><trkpt lat="34.3708983" lon="8.1649933"><ele>576.2</ele><time>2026-04-24T13:00:01.938Z</time></trkpt><trkpt lat="34.37087" lon="8.1651"><ele>575.6</ele><time>2026-04-24T13:00:02.938Z</time></trkpt><trkpt lat="34.370835" lon="8.1651967"><ele>575.0</ele><time>2026-04-24T13:00:03.939Z</time></trkpt><trkpt lat="34.370805" lon="8.1652983"><ele>575.0</ele><time>2026-04-24T13:00:04.939Z</time></trkpt><trkpt lat="34.370775" lon="8.1654033"><ele>575.0</ele><time>2026-04-24T13:00:05.938Z</time></trkpt><trkpt lat="34.3707417" lon="8.1655083"><ele>575.0</ele><time>2026-04-24T13:00:06.938Z</time></trkpt><trkpt lat="34.3706967" lon="8.1656183"><ele>575.0</ele><time>2026-04-24T13:00:07.938Z</time></trkpt><trkpt lat="34.37066" lon="8.1657317"><ele>575.0</ele><time>2026-04-24T13:00:08.939Z</time></trkpt><trkpt lat="34.3706217" lon="8.1658433"><ele>575.2</ele><time>2026-04-24T13:00:09.939Z</time></trkpt><trkpt lat="34.37058" lon="8.16595"><ele>575.4</ele><time>2026-04-24T13:00:10.939Z</time></trkpt><trkpt lat="34.3705367" lon="8.1660533"><ele>575.6</ele><time>2026-04-24T13:00:11.939Z</time></trkpt><trkpt lat="34.37049" lon="8.1661633"><ele>575.8</ele><time>2026-04-24T13:00:12.938Z</time></trkpt><trkpt lat="34.3704367" lon="8.166275"><ele>576.0</ele><time>2026-04-24T13:00:13.939Z</time></trkpt><trkpt lat="34.3703767" lon="8.1663817"><ele>575.8</ele><time>2026-04-24T13:00:14.939Z</time></trkpt><trkpt lat="34.3703117" lon="8.1664833"><ele>575.6</ele><time>2026-04-24T13:00:15.939Z</time></trkpt><trkpt lat="34.3702383" lon="8.1665833"><ele>575.4</ele><time>2026-04-24T13:00:16.939Z</time></trkpt><trkpt lat="34.3701667" lon="8.1666783"><ele>575.2</ele><time>2026-04-24T13:00:17.938Z</time></trkpt><trkpt lat="34.3700917" lon="8.1667667"><ele>575.0</ele><time>2026-04-24T13:00:18.939Z</time></trkpt><trkpt lat="34.3700117" lon="8.1668517"><ele>575.0</ele><time>2026-04-24T13:00:19.939Z</time></trkpt><trkpt lat="34.3699317" lon="8.1669317"><ele>575.0</ele><time>2026-04-24T13:00:20.939Z</time></trkpt><trkpt lat="34.369845" lon="8.1670033"><ele>575.0</ele><time>2026-04-24T13:00:21.939Z</time></trkpt><trkpt lat="34.3697683" lon="8.1670683"><ele>575.0</ele><time>2026-04-24T13:00:22.938Z</time></trkpt><trkpt lat="34.3696883" lon="8.1671167"><ele>575.0</ele><time>2026-04-24T13:00:23.939Z</time></trkpt><trkpt lat="34.369595" lon="8.1671583"><ele>573.8</ele><time>2026-04-24T13:00:24.939Z</time></trkpt><trkpt lat="34.3695017" lon="8.1671933"><ele>572.6</ele><time>2026-04-24T13:00:25.938Z</time></trkpt><trkpt lat="34.369405" lon="8.1672133"><ele>571.4</ele><time>2026-04-24T13:00:26.939Z</time></trkpt><trkpt lat="34.3693067" lon="8.16722"><ele>570.2</ele><time>2026-04-24T13:00:27.939Z</time></trkpt><trkpt lat="34.3692033" lon="8.16722"><ele>569.0</ele><time>2026-04-24T13:00:28.938Z</time></trkpt><trkpt lat="34.3690933" lon="8.1672167"><ele>569.0</ele><time>2026-04-24T13:00:29.939Z</time></trkpt><trkpt lat="34.368975" lon="8.1672167"><ele>569.0</ele><time>2026-04-24T13:00:30.939Z</time></trkpt><trkpt lat="34.3688467" lon="8.16722"><ele>569.0</ele><time>2026-04-24T13:00:31.939Z</time></trkpt><trkpt lat="34.368715" lon="8.1672217"><ele>569.0</ele><time>2026-04-24T13:00:32.939Z</time></trkpt><trkpt lat="34.368575" lon="8.167215"><ele>566.6666666666666</ele><time>2026-04-24T13:00:33.939Z</time></trkpt><trkpt lat="34.3684333" lon="8.16721"><ele>564.3333333333334</ele><time>2026-04-24T13:00:34.938Z</time></trkpt><trkpt lat="34.36828" lon="8.1671983"><ele>562.0</ele><time>2026-04-24T13:00:35.939Z</time></trkpt><trkpt lat="34.3681217" lon="8.167195"><ele>563.5</ele><time>2026-04-24T13:00:36.938Z</time></trkpt><trkpt lat="34.3679783" lon="8.167195"><ele>565.0</ele><time>2026-04-24T13:00:37.939Z</time></trkpt><trkpt lat="34.3678517" lon="8.1672017"><ele>566.5</ele><time>2026-04-24T13:00:38.939Z</time></trkpt><trkpt lat="34.3677333" lon="8.1672017"><ele>568.0</ele><time>2026-04-24T13:00:39.939Z</time></trkpt><trkpt lat="34.3676233" lon="8.167205"><ele>568.0</ele><time>2026-04-24T13:00:40.938Z</time></trkpt><trkpt lat="34.3675183" lon="8.1672033"><ele>568.0</ele><time>2026-04-24T13:00:41.938Z</time></trkpt><trkpt lat="34.3674233" lon="8.1671933"><ele>568.0</ele><time>2026-04-24T13:00:42.939Z</time></trkpt><trkpt lat="34.36732" lon="8.16718"><ele>568.0</ele><time>2026-04-24T13:00:43.939Z</time></trkpt><trkpt lat="34.3672267" lon="8.16717"><ele>568.0</ele><time>2026-04-24T13:00:44.939Z</time></trkpt><trkpt lat="34.3671283" lon="8.167155"><ele>569.1999999999999</ele><time>2026-04-24T13:00:45.938Z</time></trkpt><trkpt lat="34.36704" lon="8.1671467"><ele>570.4</ele><time>2026-04-24T13:00:46.939Z</time></trkpt><trkpt lat="34.3669517" lon="8.1671433"><ele>571.5999999999999</ele><time>2026-04-24T13:00:47.939Z</time></trkpt><trkpt lat="34.3668583" lon="8.167145"><ele>572.8</ele><time>2026-04-24T13:00:48.939Z</time></trkpt><trkpt lat="34.366755" lon="8.16714"><ele>574.0</ele><time>2026-04-24T13:00:49.939Z</time></trkpt><trkpt lat="34.3666533" lon="8.1671333"><ele>574.0</ele><time>2026-04-24T13:00:50.939Z</time></trkpt><trkpt lat="34.3665483" lon="8.1671333"><ele>574.0</ele><time>2026-04-24T13:00:51.938Z</time></trkpt><trkpt lat="34.36644" lon="8.167135"><ele>574.0</ele><time>2026-04-24T13:00:52.939Z</time></trkpt><trkpt lat="34.366335" lon="8.1671417"><ele>574.0</ele><time>2026-04-24T13:00:53.938Z</time></trkpt><trkpt lat="34.3662267" lon="8.1671367"><ele>574.0</ele><time>2026-04-24T13:00:54.938Z</time></trkpt><trkpt lat="34.36611" lon="8.1671283"><ele>575.2</ele><time>2026-04-24T13:00:55.939Z</time></trkpt><trkpt lat="34.365985" lon="8.1671267"><ele>576.4</ele><time>2026-04-24T13:00:56.939Z</time></trkpt><trkpt lat="34.3658717" lon="8.1671233"><ele>577.6</ele><time>2026-04-24T13:00:57.939Z</time></trkpt><trkpt lat="34.365765" lon="8.1671167"><ele>578.8</ele><time>2026-04-24T13:00:58.939Z</time></trkpt><trkpt lat="34.365665" lon="8.167115"><ele>580.0</ele><time>2026-04-24T13:00:59.938Z</time></trkpt><trkpt lat="34.3655567" lon="8.16712"><ele>581.2</ele><time>2026-04-24T13:01:00.939Z</time></trkpt><trkpt lat="34.3654483" lon="8.167135"><ele>582.4</ele><time>2026-04-24T13:01:01.938Z</time></trkpt><trkpt lat="34.3653383" lon="8.167135"><ele>583.6</ele><time>2026-04-24T13:01:02.939Z</time></trkpt><trkpt lat="34.36523" lon="8.1671367"><ele>584.8</ele><time>2026-04-24T13:01:03.939Z</time></trkpt><trkpt lat="34.36512" lon="8.1671383"><ele>586.0</ele><time>2026-04-24T13:01:04.939Z</time></trkpt><trkpt lat="34.3650083" lon="8.1671483"><ele>586.0</ele><time>2026-04-24T13:01:05.939Z</time></trkpt><trkpt lat="34.3648983" lon="8.1671733"><ele>586.0</ele><time>2026-04-24T13:01:06.939Z</time></trkpt><trkpt lat="34.364785" lon="8.1672083"><ele>586.0</ele><time>2026-04-24T13:01:07.939Z</time></trkpt><trkpt lat="34.3646767" lon="8.1672433"><ele>586.0</ele><time>2026-04-24T13:01:08.938Z</time></trkpt><trkpt lat="34.3645717" lon="8.1672933"><ele>587.5</ele><time>2026-04-24T13:01:09.938Z</time></trkpt><trkpt lat="34.36446" lon="8.167345"><ele>589.0</ele><time>2026-04-24T13:01:10.939Z</time></trkpt><trkpt lat="34.3643517" lon="8.1673817"><ele>590.5</ele><time>2026-04-24T13:01:11.939Z</time></trkpt><trkpt lat="34.36424" lon="8.16743"><ele>592.0</ele><time>2026-04-24T13:01:12.939Z</time></trkpt><trkpt lat="34.3641417" lon="8.1674667"><ele>592.0</ele><time>2026-04-24T13:01:13.939Z</time></trkpt><trkpt lat="34.36404" lon="8.1675117"><ele>592.0</ele><time>2026-04-24T13:01:14.938Z</time></trkpt><trkpt lat="34.3639467" lon="8.1675633"><ele>592.0</ele><time>2026-04-24T13:01:15.939Z</time></trkpt><trkpt lat="34.363855" lon="8.16762"><ele>592.0</ele><time>2026-04-24T13:01:16.939Z</time></trkpt><trkpt lat="34.363755" lon="8.167685"><ele>592.0</ele><time>2026-04-24T13:01:17.939Z</time></trkpt><trkpt lat="34.3636517" lon="8.16776"><ele>593.25</ele><time>2026-04-24T13:01:18.939Z</time></trkpt><trkpt lat="34.3635467" lon="8.16784"><ele>594.5</ele><time>2026-04-24T13:01:19.939Z</time></trkpt><trkpt lat="34.3634433" lon="8.1679183"><ele>595.75</ele><time>2026-04-24T13:01:20.939Z</time></trkpt><trkpt lat="34.3633483" lon="8.168005"><ele>597.0</ele><time>2026-04-24T13:01:21.939Z</time></trkpt><trkpt lat="34.363275" lon="8.168095"><ele>595.75</ele><time>2026-04-24T13:01:22.939Z</time></trkpt><trkpt lat="34.3632067" lon="8.1681967"><ele>594.5</ele><time>2026-04-24T13:01:23.938Z</time></trkpt><trkpt lat="34.3631333" lon="8.168295"><ele>593.25</ele><time>2026-04-24T13:01:24.939Z</time></trkpt><trkpt lat="34.3630617" lon="8.168415"><ele>592.0</ele><time>2026-04-24T13:01:25.939Z</time></trkpt><trkpt lat="34.3629833" lon="8.1685283"><ele>591.75</ele><time>2026-04-24T13:01:26.938Z</time></trkpt><trkpt lat="34.3629133" lon="8.168645"><ele>591.5</ele><time>2026-04-24T13:01:27.939Z</time></trkpt><trkpt lat="34.3628483" lon="8.1687683"><ele>591.25</ele><time>2026-04-24T13:01:28.939Z</time></trkpt><trkpt lat="34.3627917" lon="8.1688933"><ele>591.0</ele><time>2026-04-24T13:01:29.939Z</time></trkpt><trkpt lat="34.3627267" lon="8.1690033"><ele>590.6</ele><time>2026-04-24T13:01:30.938Z</time></trkpt><trkpt lat="34.3626717" lon="8.1691033"><ele>590.2</ele><time>2026-04-24T13:01:31.939Z</time></trkpt><trkpt lat="34.3626117" lon="8.1692067"><ele>589.8</ele><time>2026-04-24T13:01:32.938Z</time></trkpt><trkpt lat="34.3625617" lon="8.169315"><ele>589.4</ele><time>2026-04-24T13:01:33.938Z</time></trkpt><trkpt lat="34.36251" lon="8.1694267"><ele>589.0</ele><time>2026-04-24T13:01:34.938Z</time></trkpt><trkpt lat="34.36246" lon="8.169545"><ele>589.0</ele><time>2026-04-24T13:01:35.939Z</time></trkpt><trkpt lat="34.3624083" lon="8.1696633"><ele>589.0</ele><time>2026-04-24T13:01:36.939Z</time></trkpt><trkpt lat="34.3623533" lon="8.1697867"><ele>589.0</ele><time>2026-04-24T13:01:37.939Z</time></trkpt><trkpt lat="34.3623033" lon="8.1699017"><ele>589.0</ele><time>2026-04-24T13:01:38.938Z</time></trkpt><trkpt lat="34.3622533" lon="8.1700267"><ele>589.0</ele><time>2026-04-24T13:01:39.939Z</time></trkpt><trkpt lat="34.362205" lon="8.1701517"><ele>590.5</ele><time>2026-04-24T13:01:40.939Z</time></trkpt><trkpt lat="34.3621417" lon="8.1702633"><ele>592.0</ele><time>2026-04-24T13:01:41.939Z</time></trkpt><trkpt lat="34.3620683" lon="8.1703783"><ele>593.5</ele><time>2026-04-24T13:01:42.939Z</time></trkpt><trkpt lat="34.36199" lon="8.1704867"><ele>595.0</ele><time>2026-04-24T13:01:43.939Z</time></trkpt><trkpt lat="34.361915" lon="8.1705817"><ele>595.0</ele><time>2026-04-24T13:01:44.939Z</time></trkpt><trkpt lat="34.36184" lon="8.1706683"><ele>595.0</ele><time>2026-04-24T13:01:45.939Z</time></trkpt><trkpt lat="34.3617683" lon="8.1707733"><ele>595.0</ele><time>2026-04-24T13:01:46.939Z</time></trkpt><trkpt lat="34.3616933" lon="8.1708667"><ele>595.0</ele><time>2026-04-24T13:01:47.938Z</time></trkpt><trkpt lat="34.3616167" lon="8.1709633"><ele>595.0</ele><time>2026-04-24T13:01:48.939Z</time></trkpt><trkpt lat="34.3615333" lon="8.171065"><ele>595.5</ele><time>2026-04-24T13:01:49.939Z</time></trkpt><trkpt lat="34.3614533" lon="8.1711717"><ele>596.0</ele><time>2026-04-24T13:01:50.939Z</time></trkpt><trkpt lat="34.36138" lon="8.171285"><ele>596.5</ele><time>2026-04-24T13:01:51.939Z</time></trkpt><trkpt lat="34.36131" lon="8.1713967"><ele>597.0</ele><time>2026-04-24T13:01:52.939Z</time></trkpt><trkpt lat="34.36123" lon="8.1715"><ele>595.5</ele><time>2026-04-24T13:01:53.939Z</time></trkpt><trkpt lat="34.361155" lon="8.1716167"><ele>594.0</ele><time>2026-04-24T13:01:54.939Z</time></trkpt><trkpt lat="34.36108" lon="8.1717233"><ele>592.5</ele><time>2026-04-24T13:01:55.939Z</time></trkpt><trkpt lat="34.36101" lon="8.1718533"><ele>591.0</ele><time>2026-04-24T13:01:56.939Z</time></trkpt><trkpt lat="34.3609333" lon="8.17199"><ele>591.0</ele><time>2026-04-24T13:01:57.938Z</time></trkpt><trkpt lat="34.36086" lon="8.17211"><ele>591.0</ele><time>2026-04-24T13:01:58.939Z</time></trkpt><trkpt lat="34.36078" lon="8.1722233"><ele>591.0</ele><time>2026-04-24T13:01:59.938Z</time></trkpt><trkpt lat="34.3607017" lon="8.1723367"><ele>591.0</ele><time>2026-04-24T13:02:00.939Z</time></trkpt><trkpt lat="34.3606333" lon="8.1724417"><ele>590.75</ele><time>2026-04-24T13:02:01.939Z</time></trkpt><trkpt lat="34.36056" lon="8.172545"><ele>590.5</ele><time>2026-04-24T13:02:02.939Z</time></trkpt><trkpt lat="34.3604867" lon="8.1726467"><ele>590.25</ele><time>2026-04-24T13:02:03.939Z</time></trkpt><trkpt lat="34.3604067" lon="8.1727467"><ele>590.0</ele><time>2026-04-24T13:02:04.939Z</time></trkpt><trkpt lat="34.360325" lon="8.17285"><ele>590.25</ele><time>2026-04-24T13:02:05.939Z</time></trkpt><trkpt lat="34.3602367" lon="8.1729483"><ele>590.5</ele><time>2026-04-24T13:02:06.938Z</time></trkpt><trkpt lat="34.36015" lon="8.1730567"><ele>590.75</ele><time>2026-04-24T13:02:07.939Z</time></trkpt><trkpt lat="34.3600633" lon="8.17315"><ele>591.0</ele><time>2026-04-24T13:02:08.939Z</time></trkpt><trkpt lat="34.3599767" lon="8.1732217"><ele>591.0</ele><time>2026-04-24T13:02:09.939Z</time></trkpt><trkpt lat="34.3598867" lon="8.1733083"><ele>591.0</ele><time>2026-04-24T13:02:10.938Z</time></trkpt><trkpt lat="34.359805" lon="8.1733983"><ele>591.0</ele><time>2026-04-24T13:02:11.939Z</time></trkpt><trkpt lat="34.3597217" lon="8.1734933"><ele>591.0</ele><time>2026-04-24T13:02:12.938Z</time></trkpt><trkpt lat="34.3596383" lon="8.1736167"><ele>591.5</ele><time>2026-04-24T13:02:13.939Z</time></trkpt><trkpt lat="34.35956" lon="8.1737417"><ele>592.0</ele><time>2026-04-24T13:02:14.939Z</time></trkpt><trkpt lat="34.3594833" lon="8.1738717"><ele>592.5</ele><time>2026-04-24T13:02:15.939Z</time></trkpt><trkpt lat="34.359415" lon="8.1739883"><ele>593.0</ele><time>2026-04-24T13:02:16.938Z</time></trkpt><trkpt lat="34.3593433" lon="8.1741017"><ele>591.5</ele><time>2026-04-24T13:02:17.938Z</time></trkpt><trkpt lat="34.3592767" lon="8.174215"><ele>590.0</ele><time>2026-04-24T13:02:18.939Z</time></trkpt><trkpt lat="34.3592067" lon="8.1743133"><ele>588.5</ele><time>2026-04-24T13:02:19.939Z</time></trkpt><trkpt lat="34.3591267" lon="8.1744033"><ele>587.0</ele><time>2026-04-24T13:02:20.939Z</time></trkpt><trkpt lat="34.3590367" lon="8.1744967"><ele>587.0</ele><time>2026-04-24T13:02:21.939Z</time></trkpt><trkpt lat="34.3589483" lon="8.1745783"><ele>587.0</ele><time>2026-04-24T13:02:22.938Z</time></trkpt><trkpt lat="34.3588617" lon="8.174655"><ele>587.0</ele><time>2026-04-24T13:02:23.939Z</time></trkpt><trkpt lat="34.3587683" lon="8.174735"><ele>587.0</ele><time>2026-04-24T13:02:24.939Z</time></trkpt><trkpt lat="34.3586767" lon="8.17482"><ele>587.0</ele><time>2026-04-24T13:02:25.939Z</time></trkpt><trkpt lat="34.3585867" lon="8.1749167"><ele>584.75</ele><time>2026-04-24T13:02:26.939Z</time></trkpt><trkpt lat="34.3584967" lon="8.1750133"><ele>582.5</ele><time>2026-04-24T13:02:27.939Z</time></trkpt><trkpt lat="34.3584083" lon="8.1751167"><ele>580.25</ele><time>2026-04-24T13:02:28.939Z</time></trkpt><trkpt lat="34.3583133" lon="8.17522"><ele>578.0</ele><time>2026-04-24T13:02:29.938Z</time></trkpt><trkpt lat="34.35822" lon="8.1753117"><ele>578.0</ele><time>2026-04-24T13:02:30.939Z</time></trkpt><trkpt lat="34.3581183" lon="8.175395"><ele>578.0</ele><time>2026-04-24T13:02:31.939Z</time></trkpt><trkpt lat="34.3580233" lon="8.1754667"><ele>578.0</ele><time>2026-04-24T13:02:32.938Z</time></trkpt><trkpt lat="34.357925" lon="8.175535"><ele>578.0</ele><time>2026-04-24T13:02:33.939Z</time></trkpt><trkpt lat="34.3578233" lon="8.17561"><ele>577.75</ele><time>2026-04-24T13:02:34.939Z</time></trkpt><trkpt lat="34.3577183" lon="8.1756883"><ele>577.5</ele><time>2026-04-24T13:02:35.939Z</time></trkpt><trkpt lat="34.3576117" lon="8.1757683"><ele>577.25</ele><time>2026-04-24T13:02:36.938Z</time></trkpt><trkpt lat="34.3575033" lon="8.1758467"><ele>577.0</ele><time>2026-04-24T13:02:37.939Z</time></trkpt><trkpt lat="34.3574033" lon="8.1759367"><ele>577.0</ele><time>2026-04-24T13:02:38.938Z</time></trkpt><trkpt lat="34.357315" lon="8.1760283"><ele>577.0</ele><time>2026-04-24T13:02:39.939Z</time></trkpt><trkpt lat="34.3572183" lon="8.1761267"><ele>577.0</ele><time>2026-04-24T13:02:40.939Z</time></trkpt><trkpt lat="34.3571217" lon="8.17623"><ele>577.0</ele><time>2026-04-24T13:02:41.939Z</time></trkpt><trkpt lat="34.3570217" lon="8.1763217"><ele>577.0</ele><time>2026-04-24T13:02:42.939Z</time></trkpt><trkpt lat="34.3569183" lon="8.1764117"><ele>577.0</ele><time>2026-04-24T13:02:43.938Z</time></trkpt><trkpt lat="34.3568233" lon="8.1764967"><ele>577.0</ele><time>2026-04-24T13:02:44.937Z</time></trkpt><trkpt lat="34.3567267" lon="8.1765833"><ele>577.0</ele><time>2026-04-24T13:02:45.937Z</time></trkpt><trkpt lat="34.356625" lon="8.176675"><ele>577.0</ele><time>2026-04-24T13:02:46.938Z</time></trkpt><trkpt lat="34.356535" lon="8.1767717"><ele>577.0</ele><time>2026-04-24T13:02:47.938Z</time></trkpt><trkpt lat="34.3564517" lon="8.1768567"><ele>577.0</ele><time>2026-04-24T13:02:48.938Z</time></trkpt><trkpt lat="34.356365" lon="8.17693"><ele>577.0</ele><time>2026-04-24T13:02:49.938Z</time></trkpt><trkpt lat="34.35628" lon="8.17698"><ele>577.0</ele><time>2026-04-24T13:02:50.938Z</time></trkpt><trkpt lat="34.3561983" lon="8.1770183"><ele>577.3333333333334</ele><time>2026-04-24T13:02:51.938Z</time></trkpt><trkpt lat="34.3561267" lon="8.17705"><ele>577.6666666666667</ele><time>2026-04-24T13:02:52.938Z</time></trkpt><trkpt lat="34.35602" lon="8.1770767"><ele>578.0</ele><time>2026-04-24T13:02:54.938Z</time></trkpt><trkpt lat="34.355935" lon="8.1770617"><ele>578.3333333333334</ele><time>2026-04-24T13:02:57.938Z</time></trkpt><trkpt lat="34.3558617" lon="8.17702"><ele>578.6666666666666</ele><time>2026-04-24T13:03:00.938Z</time></trkpt><trkpt lat="34.355785" lon="8.1769967"><ele>579.0</ele><time>2026-04-24T13:03:04.938Z</time></trkpt><trkpt lat="34.35571" lon="8.1769817"><ele>579.0</ele><time>2026-04-24T13:03:06.938Z</time></trkpt><trkpt lat="34.355645" lon="8.1769067"><ele>579.0</ele><time>2026-04-24T13:03:08.938Z</time></trkpt><trkpt lat="34.35559" lon="8.1768483"><ele>579.0</ele><time>2026-04-24T13:03:10.938Z</time></trkpt><trkpt lat="34.3556383" lon="8.176935"><ele>579.0</ele><time>2026-04-24T13:16:52.935Z</time></trkpt><trkpt lat="34.3557433" lon="8.176995"><ele>579.0</ele><time>2026-04-24T13:16:54.935Z</time></trkpt><trkpt lat="34.355805" lon="8.1770233"><ele>579.0</ele><time>2026-04-24T13:16:55.934Z</time></trkpt><trkpt lat="34.3559267" lon="8.177035"><ele>579.0</ele><time>2026-04-24T13:16:57.935Z</time></trkpt><trkpt lat="34.3560333" lon="8.1770467"><ele>579.0</ele><time>2026-04-24T13:16:59.934Z</time></trkpt><trkpt lat="34.3560983" lon="8.1770483"><ele>579.0</ele><time>2026-04-24T13:17:00.935Z</time></trkpt><trkpt lat="34.3562033" lon="8.177045"><ele>579.0</ele><time>2026-04-24T13:17:02.935Z</time></trkpt><trkpt lat="34.3562783" lon="8.1770067"><ele>579.0</ele><time>2026-04-24T13:17:05.935Z</time></trkpt><trkpt lat="34.3562" lon="8.176995"><ele>579.0</ele><time>2026-04-24T13:17:09.935Z</time></trkpt><trkpt lat="34.3561117" lon="8.177045"><ele>579.0</ele><time>2026-04-24T13:17:11.935Z</time></trkpt><trkpt lat="34.3560083" lon="8.1770983"><ele>579.0</ele><time>2026-04-24T13:17:13.935Z</time></trkpt><trkpt lat="34.3558983" lon="8.17713"><ele>579.0</ele><time>2026-04-24T13:17:15.935Z</time></trkpt><trkpt lat="34.3558033" lon="8.1771317"><ele>579.0</ele><time>2026-04-24T13:17:17.934Z</time></trkpt><trkpt lat="34.3557283" lon="8.1771367"><ele>579.0</ele><time>2026-04-24T13:17:19.935Z</time></trkpt><trkpt lat="34.3556667" lon="8.1771783"><ele>579.0</ele><time>2026-04-24T13:17:21.935Z</time></trkpt><trkpt lat="34.3556067" lon="8.17728"><ele>579.0</ele><time>2026-04-24T13:17:23.934Z</time></trkpt><trkpt lat="34.3555517" lon="8.1773917"><ele>579.0</ele><time>2026-04-24T13:17:25.935Z</time></trkpt><trkpt lat="34.355475" lon="8.1775067"><ele>579.0</ele><time>2026-04-24T13:17:27.935Z</time></trkpt><trkpt lat="34.355395" lon="8.1776117"><ele>575.0</ele><time>2026-04-24T13:17:29.935Z</time></trkpt><trkpt lat="34.35532" lon="8.1777317"><ele>571.0</ele><time>2026-04-24T13:17:31.935Z</time></trkpt><trkpt lat="34.3552767" lon="8.1778017"><ele>567.0</ele><time>2026-04-24T13:17:32.935Z</time></trkpt><trkpt lat="34.3552267" lon="8.1778867"><ele>563.0</ele><time>2026-04-24T13:17:33.935Z</time></trkpt><trkpt lat="34.3551683" lon="8.1779533"><ele>559.0</ele><time>2026-04-24T13:17:34.935Z</time></trkpt><trkpt lat="34.3551067" lon="8.1780117"><ele>555.0</ele><time>2026-04-24T13:17:35.935Z</time></trkpt><trkpt lat="34.3550533" lon="8.17806"><ele>555.0</ele><time>2026-04-24T13:17:36.934Z</time></trkpt><trkpt lat="34.3549917" lon="8.1781"><ele>555.0</ele><time>2026-04-24T13:17:37.935Z</time></trkpt><trkpt lat="34.3549183" lon="8.178145"><ele>555.0</ele><time>2026-04-24T13:17:38.934Z</time></trkpt><trkpt lat="34.3548467" lon="8.1781917"><ele>555.0</ele><time>2026-04-24T13:17:39.935Z</time></trkpt><trkpt lat="34.3547883" lon="8.1782633"><ele>555.0</ele><time>2026-04-24T13:17:40.934Z</time></trkpt><trkpt lat="34.3547233" lon="8.178325"><ele>555.0</ele><time>2026-04-24T13:17:41.935Z</time></trkpt><trkpt lat="34.3546617" lon="8.1783967"><ele>553.3333333333334</ele><time>2026-04-24T13:17:42.934Z</time></trkpt><trkpt lat="34.3546083" lon="8.1784633"><ele>551.6666666666666</ele><time>2026-04-24T13:17:43.934Z</time></trkpt><trkpt lat="34.3545533" lon="8.1785233"><ele>550.0</ele><time>2026-04-24T13:17:44.935Z</time></trkpt><trkpt lat="34.3544933" lon="8.1785817"><ele>548.3333333333333</ele><time>2026-04-24T13:17:45.934Z</time></trkpt><trkpt lat="34.3544333" lon="8.1786267"><ele>546.6666666666666</ele><time>2026-04-24T13:17:46.934Z</time></trkpt><trkpt lat="34.3543633" lon="8.1786733"><ele>545.0</ele><time>2026-04-24T13:17:47.934Z</time></trkpt><trkpt lat="34.3543067" lon="8.1787383"><ele>545.0</ele><time>2026-04-24T13:17:48.933Z</time></trkpt><trkpt lat="34.35426" lon="8.1788167"><ele>545.0</ele><time>2026-04-24T13:17:49.934Z</time></trkpt><trkpt lat="34.35421" lon="8.1788967"><ele>545.0</ele><time>2026-04-24T13:17:50.934Z</time></trkpt><trkpt lat="34.35416" lon="8.17898"><ele>545.0</ele><time>2026-04-24T13:17:51.934Z</time></trkpt><trkpt lat="34.354115" lon="8.1790667"><ele>545.0</ele><time>2026-04-24T13:17:52.933Z</time></trkpt><trkpt lat="34.35408" lon="8.17916"><ele>545.0</ele><time>2026-04-24T13:17:53.934Z</time></trkpt><trkpt lat="34.354055" lon="8.1792467"><ele>547.6666666666666</ele><time>2026-04-24T13:17:54.934Z</time></trkpt><trkpt lat="34.35404" lon="8.1793417"><ele>550.3333333333333</ele><time>2026-04-24T13:17:55.934Z</time></trkpt><trkpt lat="34.3540117" lon="8.17942"><ele>553.0</ele><time>2026-04-24T13:17:56.933Z</time></trkpt><trkpt lat="34.353965" lon="8.1794967"><ele>555.6666666666666</ele><time>2026-04-24T13:17:57.934Z</time></trkpt><trkpt lat="34.3539083" lon="8.17957"><ele>558.3333333333334</ele><time>2026-04-24T13:17:58.934Z</time></trkpt><trkpt lat="34.3538467" lon="8.17965"><ele>561.0</ele><time>2026-04-24T13:17:59.933Z</time></trkpt><trkpt lat="34.3537933" lon="8.179735"><ele>556.3333333333334</ele><time>2026-04-24T13:18:00.934Z</time></trkpt><trkpt lat="34.3537483" lon="8.1798317"><ele>551.6666666666666</ele><time>2026-04-24T13:18:01.934Z</time></trkpt><trkpt lat="34.3537083" lon="8.1799217"><ele>547.0</ele><time>2026-04-24T13:18:02.934Z</time></trkpt><trkpt lat="34.3536817" lon="8.1800133"><ele>542.3333333333333</ele><time>2026-04-24T13:18:03.934Z</time></trkpt><trkpt lat="34.35367" lon="8.1801033"><ele>537.6666666666666</ele><time>2026-04-24T13:18:04.934Z</time></trkpt><trkpt lat="34.3536833" lon="8.1802017"><ele>533.0</ele><time>2026-04-24T13:18:05.934Z</time></trkpt><trkpt lat="34.3537167" lon="8.1803183"><ele>533.0</ele><time>2026-04-24T13:18:06.934Z</time></trkpt><trkpt lat="34.3537467" lon="8.1804533"><ele>533.0</ele><time>2026-04-24T13:18:07.934Z</time></trkpt><trkpt lat="34.3537817" lon="8.180595"><ele>533.0</ele><time>2026-04-24T13:18:08.933Z</time></trkpt><trkpt lat="34.3538183" lon="8.1807233"><ele>533.0</ele><time>2026-04-24T13:18:09.934Z</time></trkpt><trkpt lat="34.353845" lon="8.180835"><ele>533.0</ele><time>2026-04-24T13:18:10.934Z</time></trkpt><trkpt lat="34.3538667" lon="8.1809333"><ele>531.8333333333333</ele><time>2026-04-24T13:18:11.934Z</time></trkpt><trkpt lat="34.3538633" lon="8.1810133"><ele>530.6666666666666</ele><time>2026-04-24T13:18:12.934Z</time></trkpt><trkpt lat="34.3538367" lon="8.18109"><ele>529.5</ele><time>2026-04-24T13:18:13.934Z</time></trkpt><trkpt lat="34.3537967" lon="8.1811517"><ele>528.3333333333334</ele><time>2026-04-24T13:18:14.934Z</time></trkpt><trkpt lat="34.35374" lon="8.1811983"><ele>527.1666666666667</ele><time>2026-04-24T13:18:15.933Z</time></trkpt><trkpt lat="34.35368" lon="8.1812217"><ele>526.0</ele><time>2026-04-24T13:18:16.933Z</time></trkpt><trkpt lat="34.35356" lon="8.181215"><ele>526.0</ele><time>2026-04-24T13:18:18.934Z</time></trkpt><trkpt lat="34.35349" lon="8.1810967"><ele>526.0</ele><time>2026-04-24T13:18:20.934Z</time></trkpt><trkpt lat="34.3534767" lon="8.1809867"><ele>526.0</ele><time>2026-04-24T13:18:21.934Z</time></trkpt><trkpt lat="34.35347" lon="8.1808533"><ele>526.0</ele><time>2026-04-24T13:18:22.934Z</time></trkpt><trkpt lat="34.3534683" lon="8.18071"><ele>526.0</ele><time>2026-04-24T13:18:23.934Z</time></trkpt><trkpt lat="34.3534433" lon="8.18056"><ele>527.4</ele><time>2026-04-24T13:18:24.934Z</time></trkpt><trkpt lat="34.3533983" lon="8.1804217"><ele>528.8</ele><time>2026-04-24T13:18:25.934Z</time></trkpt><trkpt lat="34.353355" lon="8.1803033"><ele>530.1999999999999</ele><time>2026-04-24T13:18:26.933Z</time></trkpt><trkpt lat="34.3533167" lon="8.1802117"><ele>531.6</ele><time>2026-04-24T13:18:27.934Z</time></trkpt><trkpt lat="34.3532717" lon="8.1801417"><ele>533.0</ele><time>2026-04-24T13:18:28.934Z</time></trkpt><trkpt lat="34.3531433" lon="8.1801133"><ele>533.0</ele><time>2026-04-24T13:18:30.934Z</time></trkpt><trkpt lat="34.35307" lon="8.18013"><ele>533.0</ele><time>2026-04-24T13:18:31.933Z</time></trkpt><trkpt lat="34.3529983" lon="8.1801583"><ele>533.0</ele><time>2026-04-24T13:18:32.934Z</time></trkpt><trkpt lat="34.3529317" lon="8.180185"><ele>533.0</ele><time>2026-04-24T13:18:33.933Z</time></trkpt><trkpt lat="34.352855" lon="8.1801633"><ele>533.0</ele><time>2026-04-24T13:18:34.934Z</time></trkpt><trkpt lat="34.3527867" lon="8.1801233"><ele>533.0</ele><time>2026-04-24T13:18:35.934Z</time></trkpt><trkpt lat="34.3527217" lon="8.18006"><ele>529.4</ele><time>2026-04-24T13:18:36.934Z</time></trkpt><trkpt lat="34.3526667" lon="8.1799833"><ele>525.8</ele><time>2026-04-24T13:18:37.934Z</time></trkpt><trkpt lat="34.3525933" lon="8.1799067"><ele>522.2</ele><time>2026-04-24T13:18:38.934Z</time></trkpt><trkpt lat="34.3525033" lon="8.1798433"><ele>518.6</ele><time>2026-04-24T13:18:39.933Z</time></trkpt><trkpt lat="34.3524067" lon="8.17978"><ele>515.0</ele><time>2026-04-24T13:18:40.934Z</time></trkpt><trkpt lat="34.3523167" lon="8.1797333"><ele>514.3333333333333</ele><time>2026-04-24T13:18:41.933Z</time></trkpt><trkpt lat="34.3522283" lon="8.179705"><ele>513.6666666666666</ele><time>2026-04-24T13:18:42.934Z</time></trkpt><trkpt lat="34.3521433" lon="8.179695"><ele>513.0</ele><time>2026-04-24T13:18:43.933Z</time></trkpt><trkpt lat="34.3520683" lon="8.1797067"><ele>512.3333333333334</ele><time>2026-04-24T13:18:44.933Z</time></trkpt><trkpt lat="34.3520067" lon="8.1797333"><ele>511.6666666666667</ele><time>2026-04-24T13:18:45.934Z</time></trkpt><trkpt lat="34.351925" lon="8.1798333"><ele>511.0</ele><time>2026-04-24T13:18:47.934Z</time></trkpt><trkpt lat="34.3519" lon="8.17999"><ele>509.6666666666667</ele><time>2026-04-24T13:18:49.933Z</time></trkpt><trkpt lat="34.3518933" lon="8.1800883"><ele>508.33333333333337</ele><time>2026-04-24T13:18:50.933Z</time></trkpt><trkpt lat="34.3518817" lon="8.1801983"><ele>507.0</ele><time>2026-04-24T13:18:51.934Z</time></trkpt><trkpt lat="34.3518733" lon="8.1803083"><ele>505.66666666666663</ele><time>2026-04-24T13:18:52.934Z</time></trkpt><trkpt lat="34.3518617" lon="8.1804033"><ele>504.3333333333333</ele><time>2026-04-24T13:18:53.933Z</time></trkpt><trkpt lat="34.3518567" lon="8.1805017"><ele>503.0</ele><time>2026-04-24T13:18:54.934Z</time></trkpt><trkpt lat="34.351855" lon="8.18061"><ele>502.66666666666663</ele><time>2026-04-24T13:18:55.933Z</time></trkpt><trkpt lat="34.35184" lon="8.1807133"><ele>502.3333333333333</ele><time>2026-04-24T13:18:56.934Z</time></trkpt><trkpt lat="34.3518283" lon="8.1808217"><ele>502.0</ele><time>2026-04-24T13:18:57.934Z</time></trkpt><trkpt lat="34.3518067" lon="8.180925"><ele>501.66666666666663</ele><time>2026-04-24T13:18:58.934Z</time></trkpt><trkpt lat="34.3517867" lon="8.1810317"><ele>501.3333333333333</ele><time>2026-04-24T13:18:59.934Z</time></trkpt><trkpt lat="34.3517583" lon="8.181135"><ele>501.0</ele><time>2026-04-24T13:19:00.933Z</time></trkpt><trkpt lat="34.3517233" lon="8.1812433"><ele>501.0</ele><time>2026-04-24T13:19:01.934Z</time></trkpt><trkpt lat="34.3516833" lon="8.1813517"><ele>501.0</ele><time>2026-04-24T13:19:02.934Z</time></trkpt><trkpt lat="34.3516383" lon="8.181455"><ele>501.0</ele><time>2026-04-24T13:19:03.934Z</time></trkpt><trkpt lat="34.3515917" lon="8.1815467"><ele>501.0</ele><time>2026-04-24T13:19:04.933Z</time></trkpt><trkpt lat="34.3515183" lon="8.1816333"><ele>501.0</ele><time>2026-04-24T13:19:05.933Z</time></trkpt><trkpt lat="34.3514333" lon="8.181715"><ele>498.4</ele><time>2026-04-24T13:19:06.934Z</time></trkpt><trkpt lat="34.351335" lon="8.1818033"><ele>495.8</ele><time>2026-04-24T13:19:07.934Z</time></trkpt><trkpt lat="34.3512467" lon="8.1818817"><ele>493.19999999999993</ele><time>2026-04-24T13:19:08.933Z</time></trkpt><trkpt lat="34.3511817" lon="8.18197"><ele>490.59999999999997</ele><time>2026-04-24T13:19:09.934Z</time></trkpt><trkpt lat="34.351135" lon="8.18207"><ele>488.0</ele><time>2026-04-24T13:19:10.934Z</time></trkpt><trkpt lat="34.3511133" lon="8.1822033"><ele>488.0</ele><time>2026-04-24T13:19:11.933Z</time></trkpt><trkpt lat="34.351105" lon="8.1823317"><ele>487.99999999999994</ele><time>2026-04-24T13:19:12.934Z</time></trkpt><trkpt lat="34.35108" lon="8.182455"><ele>487.99999999999994</ele><time>2026-04-24T13:19:13.934Z</time></trkpt><trkpt lat="34.3510467" lon="8.1825433"><ele>488.0</ele><time>2026-04-24T13:19:14.934Z</time></trkpt><trkpt lat="34.35099" lon="8.182615"><ele>488.0</ele><time>2026-04-24T13:19:15.933Z</time></trkpt><trkpt lat="34.3509133" lon="8.1826733"><ele>487.49999999999994</ele><time>2026-04-24T13:19:16.933Z</time></trkpt><trkpt lat="34.350835" lon="8.1827383"><ele>487.0</ele><time>2026-04-24T13:19:17.934Z</time></trkpt><trkpt lat="34.35076" lon="8.1827883"><ele>486.5</ele><time>2026-04-24T13:19:18.933Z</time></trkpt><trkpt lat="34.350695" lon="8.182835"><ele>486.0</ele><time>2026-04-24T13:19:19.934Z</time></trkpt><trkpt lat="34.3505983" lon="8.18286"><ele>485.49999999999994</ele><time>2026-04-24T13:19:21.933Z</time></trkpt><trkpt lat="34.35052" lon="8.1828083"><ele>485.0</ele><time>2026-04-24T13:19:23.934Z</time></trkpt><trkpt lat="34.3504717" lon="8.1827383"><ele>483.3333333333333</ele><time>2026-04-24T13:19:24.934Z</time></trkpt><trkpt lat="34.3504317" lon="8.18267"><ele>481.66666666666663</ele><time>2026-04-24T13:19:25.934Z</time></trkpt><trkpt lat="34.350395" lon="8.1825833"><ele>480.0</ele><time>2026-04-24T13:19:26.934Z</time></trkpt><trkpt lat="34.3503517" lon="8.1824883"><ele>478.33333333333337</ele><time>2026-04-24T13:19:27.934Z</time></trkpt><trkpt lat="34.3503167" lon="8.1823783"><ele>476.6666666666667</ele><time>2026-04-24T13:19:28.933Z</time></trkpt><trkpt lat="34.35027" lon="8.182275"><ele>475.0</ele><time>2026-04-24T13:19:29.934Z</time></trkpt><trkpt lat="34.3502183" lon="8.1821817"><ele>475.0</ele><time>2026-04-24T13:19:30.934Z</time></trkpt><trkpt lat="34.350155" lon="8.1821017"><ele>475.0</ele><time>2026-04-24T13:19:31.934Z</time></trkpt><trkpt lat="34.3500817" lon="8.1820267"><ele>475.0</ele><time>2026-04-24T13:19:32.934Z</time></trkpt><trkpt lat="34.3499983" lon="8.181945"><ele>475.0</ele><time>2026-04-24T13:19:33.934Z</time></trkpt><trkpt lat="34.3499333" lon="8.1818533"><ele>475.0</ele><time>2026-04-24T13:19:34.934Z</time></trkpt><trkpt lat="34.3498783" lon="8.1817433"><ele>475.0</ele><time>2026-04-24T13:19:35.934Z</time></trkpt><trkpt lat="34.3498367" lon="8.1816233"><ele>475.0</ele><time>2026-04-24T13:19:36.934Z</time></trkpt><trkpt lat="34.3497933" lon="8.1814917"><ele>475.0</ele><time>2026-04-24T13:19:37.933Z</time></trkpt><trkpt lat="34.349765" lon="8.1813533"><ele>475.0</ele><time>2026-04-24T13:19:38.934Z</time></trkpt><trkpt lat="34.3497383" lon="8.1812033"><ele>473.0</ele><time>2026-04-24T13:19:39.933Z</time></trkpt><trkpt lat="34.3497067" lon="8.1810383"><ele>471.0</ele><time>2026-04-24T13:19:40.934Z</time></trkpt><trkpt lat="34.3496567" lon="8.18086"><ele>469.0</ele><time>2026-04-24T13:19:41.934Z</time></trkpt><trkpt lat="34.3496033" lon="8.180675"><ele>469.0</ele><time>2026-04-24T13:19:42.934Z</time></trkpt><trkpt lat="34.3495417" lon="8.1804733"><ele>469.0</ele><time>2026-04-24T13:19:43.934Z</time></trkpt><trkpt lat="34.3494633" lon="8.1802617"><ele>469.0</ele><time>2026-04-24T13:19:44.934Z</time></trkpt><trkpt lat="34.349385" lon="8.180045"><ele>469.33333333333337</ele><time>2026-04-24T13:19:45.934Z</time></trkpt><trkpt lat="34.349305" lon="8.1798283"><ele>469.66666666666663</ele><time>2026-04-24T13:19:46.934Z</time></trkpt><trkpt lat="34.3492333" lon="8.1796117"><ele>470.0</ele><time>2026-04-24T13:19:47.933Z</time></trkpt><trkpt lat="34.3491733" lon="8.1794133"><ele>470.0</ele><time>2026-04-24T13:19:48.934Z</time></trkpt><trkpt lat="34.3491267" lon="8.1792183"><ele>470.0</ele><time>2026-04-24T13:19:49.934Z</time></trkpt><trkpt lat="34.3491" lon="8.1790333"><ele>470.0</ele><time>2026-04-24T13:19:50.934Z</time></trkpt><trkpt lat="34.349075" lon="8.1788633"><ele>469.6</ele><time>2026-04-24T13:19:51.934Z</time></trkpt><trkpt lat="34.349055" lon="8.1787067"><ele>469.2</ele><time>2026-04-24T13:19:52.934Z</time></trkpt><trkpt lat="34.3490417" lon="8.178575"><ele>468.79999999999995</ele><time>2026-04-24T13:19:53.934Z</time></trkpt><trkpt lat="34.349005" lon="8.1784583"><ele>468.4</ele><time>2026-04-24T13:19:54.934Z</time></trkpt><trkpt lat="34.348955" lon="8.17835"><ele>468.0</ele><time>2026-04-24T13:19:55.934Z</time></trkpt><trkpt lat="34.3489083" lon="8.178245"><ele>468.75</ele><time>2026-04-24T13:19:56.934Z</time></trkpt><trkpt lat="34.3488583" lon="8.1781217"><ele>469.5</ele><time>2026-04-24T13:19:57.933Z</time></trkpt><trkpt lat="34.3488183" lon="8.177985"><ele>470.25</ele><time>2026-04-24T13:19:58.934Z</time></trkpt><trkpt lat="34.3487867" lon="8.177835"><ele>471.0</ele><time>2026-04-24T13:19:59.934Z</time></trkpt><trkpt lat="34.3487567" lon="8.177685"><ele>471.0</ele><time>2026-04-24T13:20:00.933Z</time></trkpt><trkpt lat="34.348725" lon="8.1775283"><ele>471.0</ele><time>2026-04-24T13:20:01.934Z</time></trkpt><trkpt lat="34.34869" lon="8.1773733"><ele>471.0</ele><time>2026-04-24T13:20:02.934Z</time></trkpt><trkpt lat="34.3486667" lon="8.1772117"><ele>471.0</ele><time>2026-04-24T13:20:03.934Z</time></trkpt><trkpt lat="34.348655" lon="8.177055"><ele>471.75</ele><time>2026-04-24T13:20:04.934Z</time></trkpt><trkpt lat="34.3486517" lon="8.1768983"><ele>472.5</ele><time>2026-04-24T13:20:05.934Z</time></trkpt><trkpt lat="34.3486567" lon="8.1767383"><ele>473.25</ele><time>2026-04-24T13:20:06.934Z</time></trkpt><trkpt lat="34.34866" lon="8.1765767"><ele>474.0</ele><time>2026-04-24T13:20:07.934Z</time></trkpt><trkpt lat="34.348675" lon="8.176415"><ele>475.4</ele><time>2026-04-24T13:20:08.934Z</time></trkpt><trkpt lat="34.34867" lon="8.1762733"><ele>476.79999999999995</ele><time>2026-04-24T13:20:09.934Z</time></trkpt><trkpt lat="34.3486383" lon="8.1761483"><ele>478.20000000000005</ele><time>2026-04-24T13:20:10.933Z</time></trkpt><trkpt lat="34.3485933" lon="8.1760467"><ele>479.6</ele><time>2026-04-24T13:20:11.934Z</time></trkpt><trkpt lat="34.348515" lon="8.1759683"><ele>481.0</ele><time>2026-04-24T13:20:12.933Z</time></trkpt><trkpt lat="34.348425" lon="8.1758917"><ele>481.0</ele><time>2026-04-24T13:20:13.933Z</time></trkpt><trkpt lat="34.34833" lon="8.1758117"><ele>481.0</ele><time>2026-04-24T13:20:14.933Z</time></trkpt><trkpt lat="34.3482333" lon="8.1757233"><ele>481.0</ele><time>2026-04-24T13:20:15.933Z</time></trkpt><trkpt lat="34.3481317" lon="8.1756183"><ele>481.0</ele><time>2026-04-24T13:20:16.933Z</time></trkpt><trkpt lat="34.34804" lon="8.1754983"><ele>480.75</ele><time>2026-04-24T13:20:17.934Z</time></trkpt><trkpt lat="34.3479617" lon="8.1753783"><ele>480.5</ele><time>2026-04-24T13:20:18.933Z</time></trkpt><trkpt lat="34.3478817" lon="8.1752517"><ele>480.25</ele><time>2026-04-24T13:20:19.934Z</time></trkpt><trkpt lat="34.3478033" lon="8.17513"><ele>480.0</ele><time>2026-04-24T13:20:20.934Z</time></trkpt><trkpt lat="34.34773" lon="8.1750233"><ele>480.0</ele><time>2026-04-24T13:20:21.934Z</time></trkpt><trkpt lat="34.3476267" lon="8.174945"><ele>480.0</ele><time>2026-04-24T13:20:22.934Z</time></trkpt><trkpt lat="34.3475233" lon="8.1749133"><ele>480.0</ele><time>2026-04-24T13:20:23.934Z</time></trkpt><trkpt lat="34.3474133" lon="8.1749283"><ele>480.0</ele><time>2026-04-24T13:20:24.934Z</time></trkpt><trkpt lat="34.3473167" lon="8.1749667"><ele>480.0</ele><time>2026-04-24T13:20:25.934Z</time></trkpt><trkpt lat="34.3472483" lon="8.1750333"><ele>480.4</ele><time>2026-04-24T13:20:26.934Z</time></trkpt><trkpt lat="34.3472" lon="8.175115"><ele>480.8</ele><time>2026-04-24T13:20:27.934Z</time></trkpt><trkpt lat="34.3471783" lon="8.17522"><ele>481.20000000000005</ele><time>2026-04-24T13:20:28.934Z</time></trkpt><trkpt lat="34.34718" lon="8.1753383"><ele>481.6</ele><time>2026-04-24T13:20:29.934Z</time></trkpt><trkpt lat="34.347195" lon="8.1754667"><ele>482.0</ele><time>2026-04-24T13:20:30.934Z</time></trkpt><trkpt lat="34.347205" lon="8.175595"><ele>481.20000000000005</ele><time>2026-04-24T13:20:31.934Z</time></trkpt><trkpt lat="34.347215" lon="8.175725"><ele>480.40000000000003</ele><time>2026-04-24T13:20:32.933Z</time></trkpt><trkpt lat="34.347215" lon="8.1758483"><ele>479.59999999999997</ele><time>2026-04-24T13:20:33.933Z</time></trkpt><trkpt lat="34.347215" lon="8.1759717"><ele>478.79999999999995</ele><time>2026-04-24T13:20:34.933Z</time></trkpt><trkpt lat="34.347205" lon="8.1760883"><ele>478.0</ele><time>2026-04-24T13:20:35.934Z</time></trkpt><trkpt lat="34.34719" lon="8.17618"><ele>477.79999999999995</ele><time>2026-04-24T13:20:36.933Z</time></trkpt><trkpt lat="34.3471583" lon="8.1762467"><ele>477.59999999999997</ele><time>2026-04-24T13:20:37.934Z</time></trkpt><trkpt lat="34.3470467" lon="8.1762783"><ele>477.40000000000003</ele><time>2026-04-24T13:20:39.934Z</time></trkpt><trkpt lat="34.3469283" lon="8.176245"><ele>477.20000000000005</ele><time>2026-04-24T13:20:41.934Z</time></trkpt><trkpt lat="34.3468667" lon="8.17613"><ele>477.0</ele><time>2026-04-24T13:20:43.934Z</time></trkpt><trkpt lat="34.3468467" lon="8.176055"><ele>477.0</ele><time>2026-04-24T13:20:44.934Z</time></trkpt><trkpt lat="34.3468333" lon="8.1759733"><ele>477.0</ele><time>2026-04-24T13:20:45.933Z</time></trkpt><trkpt lat="34.3468233" lon="8.17588"><ele>477.0</ele><time>2026-04-24T13:20:46.934Z</time></trkpt><trkpt lat="34.346815" lon="8.1757783"><ele>477.0</ele><time>2026-04-24T13:20:47.934Z</time></trkpt><trkpt lat="34.3468017" lon="8.1756767"><ele>477.0</ele><time>2026-04-24T13:20:48.934Z</time></trkpt><trkpt lat="34.3467817" lon="8.1755917"><ele>477.0</ele><time>2026-04-24T13:20:49.934Z</time></trkpt><trkpt lat="34.34675" lon="8.1755183"><ele>477.75</ele><time>2026-04-24T13:20:50.933Z</time></trkpt><trkpt lat="34.34663" lon="8.1754383"><ele>478.5</ele><time>2026-04-24T13:20:52.934Z</time></trkpt><trkpt lat="34.3465417" lon="8.175425"><ele>479.25</ele><time>2026-04-24T13:20:53.934Z</time></trkpt><trkpt lat="34.3464317" lon="8.175425"><ele>480.0</ele><time>2026-04-24T13:20:54.934Z</time></trkpt><trkpt lat="34.3463067" lon="8.17543"><ele>480.0</ele><time>2026-04-24T13:20:55.934Z</time></trkpt><trkpt lat="34.34618" lon="8.1754233"><ele>480.0</ele><time>2026-04-24T13:20:56.934Z</time></trkpt><trkpt lat="34.34606" lon="8.175425"><ele>480.0</ele><time>2026-04-24T13:20:57.934Z</time></trkpt><trkpt lat="34.3459433" lon="8.17545"><ele>480.0</ele><time>2026-04-24T13:20:58.933Z</time></trkpt><trkpt lat="34.3458367" lon="8.1754933"><ele>480.0</ele><time>2026-04-24T13:20:59.933Z</time></trkpt><trkpt lat="34.345735" lon="8.1755617"><ele>480.0</ele><time>2026-04-24T13:21:00.933Z</time></trkpt><trkpt lat="34.3456367" lon="8.1756517"><ele>480.0</ele><time>2026-04-24T13:21:01.934Z</time></trkpt><trkpt lat="34.3455483" lon="8.1757467"><ele>480.0</ele><time>2026-04-24T13:21:02.933Z</time></trkpt><trkpt lat="34.3454883" lon="8.17584"><ele>477.0</ele><time>2026-04-24T13:21:03.934Z</time></trkpt><trkpt lat="34.3454283" lon="8.1759383"><ele>474.0</ele><time>2026-04-24T13:21:04.933Z</time></trkpt><trkpt lat="34.34538" lon="8.1760283"><ele>471.0</ele><time>2026-04-24T13:21:05.933Z</time></trkpt><trkpt lat="34.3453217" lon="8.1761083"><ele>468.0</ele><time>2026-04-24T13:21:06.933Z</time></trkpt><trkpt lat="34.345255" lon="8.17618"><ele>465.0</ele><time>2026-04-24T13:21:07.934Z</time></trkpt><trkpt lat="34.34517" lon="8.176255"><ele>465.0</ele><time>2026-04-24T13:21:08.933Z</time></trkpt><trkpt lat="34.345085" lon="8.1763333"><ele>465.0</ele><time>2026-04-24T13:21:09.934Z</time></trkpt><trkpt lat="34.3450033" lon="8.1764133"><ele>465.0</ele><time>2026-04-24T13:21:10.933Z</time></trkpt><trkpt lat="34.3449417" lon="8.1764983"><ele>465.0</ele><time>2026-04-24T13:21:11.933Z</time></trkpt><trkpt lat="34.34489" lon="8.1766017"><ele>465.0</ele><time>2026-04-24T13:21:12.934Z</time></trkpt><trkpt lat="34.3448467" lon="8.1767283"><ele>462.75</ele><time>2026-04-24T13:21:13.934Z</time></trkpt><trkpt lat="34.3448133" lon="8.1768767"><ele>460.5</ele><time>2026-04-24T13:21:14.933Z</time></trkpt><trkpt lat="34.3447817" lon="8.1770283"><ele>458.25</ele><time>2026-04-24T13:21:15.934Z</time></trkpt><trkpt lat="34.3447633" lon="8.177155"><ele>456.0</ele><time>2026-04-24T13:21:16.934Z</time></trkpt><trkpt lat="34.3447467" lon="8.1772667"><ele>454.3333333333333</ele><time>2026-04-24T13:21:17.933Z</time></trkpt><trkpt lat="34.3447367" lon="8.1773567"><ele>452.66666666666663</ele><time>2026-04-24T13:21:18.934Z</time></trkpt><trkpt lat="34.3446783" lon="8.17746"><ele>451.0</ele><time>2026-04-24T13:21:20.934Z</time></trkpt><trkpt lat="34.34459" lon="8.1774133"><ele>449.3333333333333</ele><time>2026-04-24T13:21:22.934Z</time></trkpt><trkpt lat="34.3445583" lon="8.1773467"><ele>447.66666666666663</ele><time>2026-04-24T13:21:23.934Z</time></trkpt><trkpt lat="34.3445383" lon="8.1772667"><ele>446.0</ele><time>2026-04-24T13:21:24.933Z</time></trkpt><trkpt lat="34.34451" lon="8.1771683"><ele>446.0</ele><time>2026-04-24T13:21:25.934Z</time></trkpt><trkpt lat="34.3444867" lon="8.17705"><ele>446.0</ele><time>2026-04-24T13:21:26.934Z</time></trkpt><trkpt lat="34.34446" lon="8.1769183"><ele>446.0</ele><time>2026-04-24T13:21:27.934Z</time></trkpt><trkpt lat="34.34443" lon="8.1767767"><ele>446.0</ele><time>2026-04-24T13:21:28.933Z</time></trkpt><trkpt lat="34.34439" lon="8.1766317"><ele>446.0</ele><time>2026-04-24T13:21:29.934Z</time></trkpt><trkpt lat="34.3443367" lon="8.1764967"><ele>446.0</ele><time>2026-04-24T13:21:30.933Z</time></trkpt><trkpt lat="34.3442483" lon="8.1763733"><ele>446.0</ele><time>2026-04-24T13:21:31.933Z</time></trkpt><trkpt lat="34.3441483" lon="8.1762467"><ele>446.0</ele><time>2026-04-24T13:21:32.932Z</time></trkpt><trkpt lat="34.3440217" lon="8.1761367"><ele>446.0</ele><time>2026-04-24T13:21:33.933Z</time></trkpt><trkpt lat="34.3439" lon="8.176025"><ele>446.0</ele><time>2026-04-24T13:21:34.933Z</time></trkpt><trkpt lat="34.34379" lon="8.1759083"><ele>446.0</ele><time>2026-04-24T13:21:35.933Z</time></trkpt><trkpt lat="34.3437067" lon="8.1757933"><ele>446.0</ele><time>2026-04-24T13:21:36.933Z</time></trkpt><trkpt lat="34.34364" lon="8.1756917"><ele>441.3333333333333</ele><time>2026-04-24T13:21:37.932Z</time></trkpt><trkpt lat="34.343595" lon="8.1756133"><ele>436.66666666666663</ele><time>2026-04-24T13:21:38.932Z</time></trkpt><trkpt lat="34.3435383" lon="8.1755167"><ele>432.0</ele><time>2026-04-24T13:21:40.933Z</time></trkpt><trkpt lat="34.3434867" lon="8.1755683"><ele>427.33333333333337</ele><time>2026-04-24T13:22:12.933Z</time></trkpt><trkpt lat="34.343535" lon="8.1754883"><ele>422.6666666666667</ele><time>2026-04-24T13:22:19.933Z</time></trkpt><trkpt lat="34.3434567" lon="8.1755467"><ele>418.0</ele><time>2026-04-24T13:32:18.93Z</time></trkpt><trkpt lat="34.343335" lon="8.1755767"><ele>418.00000000000006</ele><time>2026-04-24T13:32:20.93Z</time></trkpt><trkpt lat="34.3432683" lon="8.1755983"><ele>418.0</ele><time>2026-04-24T13:32:21.929Z</time></trkpt><trkpt lat="34.343205" lon="8.1756267"><ele>418.0</ele><time>2026-04-24T13:32:22.93Z</time></trkpt><trkpt lat="34.3431483" lon="8.175665"><ele>418.0</ele><time>2026-04-24T13:32:23.93Z</time></trkpt><trkpt lat="34.3430983" lon="8.1757133"><ele>418.00000000000006</ele><time>2026-04-24T13:32:24.93Z</time></trkpt><trkpt lat="34.3430467" lon="8.1758183"><ele>418.0</ele><time>2026-04-24T13:32:26.929Z</time></trkpt><trkpt lat="34.343" lon="8.1759567"><ele>421.00000000000006</ele><time>2026-04-24T13:32:28.93Z</time></trkpt><trkpt lat="34.3429733" lon="8.1760383"><ele>424.0</ele><time>2026-04-24T13:32:29.929Z</time></trkpt><trkpt lat="34.342945" lon="8.1761367"><ele>427.0</ele><time>2026-04-24T13:32:30.93Z</time></trkpt><trkpt lat="34.342915" lon="8.1762383"><ele>430.0</ele><time>2026-04-24T13:32:31.93Z</time></trkpt><trkpt lat="34.3428817" lon="8.1763467"><ele>433.00000000000006</ele><time>2026-04-24T13:32:32.929Z</time></trkpt><trkpt lat="34.3428417" lon="8.1764567"><ele>436.0</ele><time>2026-04-24T13:32:33.93Z</time></trkpt><trkpt lat="34.3427883" lon="8.1765567"><ele>436.00000000000006</ele><time>2026-04-24T13:32:34.93Z</time></trkpt><trkpt lat="34.3427367" lon="8.176655"><ele>436.0</ele><time>2026-04-24T13:32:35.929Z</time></trkpt><trkpt lat="34.3427" lon="8.1767583"><ele>436.0</ele><time>2026-04-24T13:32:36.93Z</time></trkpt><trkpt lat="34.3426683" lon="8.1768517"><ele>436.0</ele><time>2026-04-24T13:32:37.93Z</time></trkpt><trkpt lat="34.34263" lon="8.1769317"><ele>436.00000000000006</ele><time>2026-04-24T13:32:38.929Z</time></trkpt><trkpt lat="34.3425933" lon="8.177005"><ele>436.0</ele><time>2026-04-24T13:32:39.93Z</time></trkpt><trkpt lat="34.3425583" lon="8.1770883"><ele>436.00000000000006</ele><time>2026-04-24T13:32:40.93Z</time></trkpt><trkpt lat="34.3425217" lon="8.17717"><ele>436.0</ele><time>2026-04-24T13:32:41.93Z</time></trkpt><trkpt lat="34.3424967" lon="8.1772567"><ele>436.0</ele><time>2026-04-24T13:32:42.93Z</time></trkpt><trkpt lat="34.342485" lon="8.1773567"><ele>436.0</ele><time>2026-04-24T13:32:43.93Z</time></trkpt><trkpt lat="34.3424783" lon="8.1774667"><ele>436.00000000000006</ele><time>2026-04-24T13:32:44.93Z</time></trkpt><trkpt lat="34.3424617" lon="8.1775667"><ele>436.0</ele><time>2026-04-24T13:32:45.93Z</time></trkpt><trkpt lat="34.3424267" lon="8.1776667"><ele>436.0</ele><time>2026-04-24T13:32:46.93Z</time></trkpt><trkpt lat="34.3423817" lon="8.1777633"><ele>436.0</ele><time>2026-04-24T13:32:47.93Z</time></trkpt><trkpt lat="34.3423217" lon="8.17785"><ele>436.0</ele><time>2026-04-24T13:32:48.93Z</time></trkpt><trkpt lat="34.342255" lon="8.1779317"><ele>436.0</ele><time>2026-04-24T13:32:49.93Z</time></trkpt><trkpt lat="34.3421767" lon="8.1780083"><ele>436.0</ele><time>2026-04-24T13:32:50.929Z</time></trkpt><trkpt lat="34.3421" lon="8.1780867"><ele>434.1666666666667</ele><time>2026-04-24T13:32:51.929Z</time></trkpt><trkpt lat="34.3420167" lon="8.1781567"><ele>432.33333333333337</ele><time>2026-04-24T13:32:52.93Z</time></trkpt><trkpt lat="34.3419383" lon="8.1782017"><ele>430.5</ele><time>2026-04-24T13:32:53.929Z</time></trkpt><trkpt lat="34.341865" lon="8.1782317"><ele>428.66666666666663</ele><time>2026-04-24T13:32:54.929Z</time></trkpt><trkpt lat="34.3418017" lon="8.1782617"><ele>426.8333333333333</ele><time>2026-04-24T13:32:55.93Z</time></trkpt><trkpt lat="34.3417417" lon="8.1782933"><ele>425.0</ele><time>2026-04-24T13:32:56.929Z</time></trkpt><trkpt lat="34.3416783" lon="8.1783283"><ele>425.0</ele><time>2026-04-24T13:32:57.93Z</time></trkpt><trkpt lat="34.34161" lon="8.1783683"><ele>425.0</ele><time>2026-04-24T13:32:58.929Z</time></trkpt><trkpt lat="34.3415417" lon="8.17841"><ele>425.0</ele><time>2026-04-24T13:32:59.93Z</time></trkpt><trkpt lat="34.3414783" lon="8.1784617"><ele>425.0</ele><time>2026-04-24T13:33:00.93Z</time></trkpt><trkpt lat="34.3414233" lon="8.1785183"><ele>425.0</ele><time>2026-04-24T13:33:01.93Z</time></trkpt><trkpt lat="34.34138" lon="8.1785833"><ele>425.0</ele><time>2026-04-24T13:33:02.93Z</time></trkpt><trkpt lat="34.3413333" lon="8.1786583"><ele>425.0</ele><time>2026-04-24T13:33:03.93Z</time></trkpt><trkpt lat="34.341295" lon="8.1787517"><ele>421.99999999999994</ele><time>2026-04-24T13:33:04.93Z</time></trkpt><trkpt lat="34.341265" lon="8.1788583"><ele>419.0</ele><time>2026-04-24T13:33:05.93Z</time></trkpt><trkpt lat="34.3412367" lon="8.1789683"><ele>416.0</ele><time>2026-04-24T13:33:06.929Z</time></trkpt><trkpt lat="34.3412083" lon="8.1790733"><ele>413.0</ele><time>2026-04-24T13:33:07.93Z</time></trkpt><trkpt lat="34.3411933" lon="8.1791767"><ele>409.99999999999994</ele><time>2026-04-24T13:33:08.93Z</time></trkpt><trkpt lat="34.3411767" lon="8.1792733"><ele>407.0</ele><time>2026-04-24T13:33:09.93Z</time></trkpt><trkpt lat="34.3411667" lon="8.179375"><ele>406.99999999999994</ele><time>2026-04-24T13:33:10.93Z</time></trkpt><trkpt lat="34.3411667" lon="8.179475"><ele>407.0</ele><time>2026-04-24T13:33:11.93Z</time></trkpt><trkpt lat="34.341175" lon="8.1795783"><ele>407.0</ele><time>2026-04-24T13:33:12.929Z</time></trkpt><trkpt lat="34.3411917" lon="8.17969"><ele>407.0</ele><time>2026-04-24T13:33:13.93Z</time></trkpt><trkpt lat="34.3412" lon="8.1798083"><ele>406.99999999999994</ele><time>2026-04-24T13:33:14.93Z</time></trkpt><trkpt lat="34.3412017" lon="8.1799133"><ele>407.0</ele><time>2026-04-24T13:33:15.93Z</time></trkpt><trkpt lat="34.3411783" lon="8.179995"><ele>405.8</ele><time>2026-04-24T13:33:16.93Z</time></trkpt><trkpt lat="34.3411417" lon="8.1800833"><ele>404.6</ele><time>2026-04-24T13:33:17.93Z</time></trkpt><trkpt lat="34.3410867" lon="8.18016"><ele>403.40000000000003</ele><time>2026-04-24T13:33:18.93Z</time></trkpt><trkpt lat="34.341015" lon="8.1802417"><ele>402.20000000000005</ele><time>2026-04-24T13:33:19.93Z</time></trkpt><trkpt lat="34.3409183" lon="8.1803083"><ele>401.0</ele><time>2026-04-24T13:33:20.93Z</time></trkpt><trkpt lat="34.34081" lon="8.1803717"><ele>401.0</ele><time>2026-04-24T13:33:21.93Z</time></trkpt><trkpt lat="34.3407083" lon="8.180435"><ele>401.0</ele><time>2026-04-24T13:33:22.929Z</time></trkpt><trkpt lat="34.3406133" lon="8.180505"><ele>401.0</ele><time>2026-04-24T13:33:23.929Z</time></trkpt><trkpt lat="34.3405267" lon="8.1805617"><ele>401.0</ele><time>2026-04-24T13:33:24.93Z</time></trkpt><trkpt lat="34.3404533" lon="8.180615"><ele>401.0</ele><time>2026-04-24T13:33:25.93Z</time></trkpt><trkpt lat="34.3403933" lon="8.1806767"><ele>399.16666666666663</ele><time>2026-04-24T13:33:26.929Z</time></trkpt><trkpt lat="34.3403383" lon="8.1807333"><ele>397.3333333333333</ele><time>2026-04-24T13:33:27.929Z</time></trkpt><trkpt lat="34.3402917" lon="8.1807917"><ele>395.5</ele><time>2026-04-24T13:33:28.93Z</time></trkpt><trkpt lat="34.3402417" lon="8.1808567"><ele>393.66666666666663</ele><time>2026-04-24T13:33:29.93Z</time></trkpt><trkpt lat="34.3401817" lon="8.1809283"><ele>391.8333333333333</ele><time>2026-04-24T13:33:30.929Z</time></trkpt><trkpt lat="34.3401133" lon="8.1810067"><ele>390.0</ele><time>2026-04-24T13:33:31.93Z</time></trkpt><trkpt lat="34.34004" lon="8.1810817"><ele>390.0</ele><time>2026-04-24T13:33:32.93Z</time></trkpt><trkpt lat="34.3399717" lon="8.1811533"><ele>390.0</ele><time>2026-04-24T13:33:33.93Z</time></trkpt><trkpt lat="34.3399117" lon="8.1812367"><ele>390.0</ele><time>2026-04-24T13:33:34.93Z</time></trkpt><trkpt lat="34.3398617" lon="8.18133"><ele>390.0</ele><time>2026-04-24T13:33:35.929Z</time></trkpt><trkpt lat="34.33982" lon="8.1814233"><ele>390.0</ele><time>2026-04-24T13:33:36.93Z</time></trkpt><trkpt lat="34.339785" lon="8.18152"><ele>390.0</ele><time>2026-04-24T13:33:37.93Z</time></trkpt><trkpt lat="34.3397517" lon="8.1816167"><ele>387.1666666666667</ele><time>2026-04-24T13:33:38.93Z</time></trkpt><trkpt lat="34.3397067" lon="8.1817133"><ele>384.3333333333333</ele><time>2026-04-24T13:33:39.93Z</time></trkpt><trkpt lat="34.3396667" lon="8.18181"><ele>381.5</ele><time>2026-04-24T13:33:40.93Z</time></trkpt><trkpt lat="34.3396367" lon="8.181905"><ele>378.66666666666663</ele><time>2026-04-24T13:33:41.93Z</time></trkpt><trkpt lat="34.33961" lon="8.1819983"><ele>375.8333333333333</ele><time>2026-04-24T13:33:42.93Z</time></trkpt><trkpt lat="34.3395817" lon="8.18208"><ele>373.0</ele><time>2026-04-24T13:33:43.93Z</time></trkpt><trkpt lat="34.3395483" lon="8.182155"><ele>373.0</ele><time>2026-04-24T13:33:44.93Z</time></trkpt><trkpt lat="34.33952" lon="8.182225"><ele>373.0</ele><time>2026-04-24T13:33:45.93Z</time></trkpt><trkpt lat="34.3394817" lon="8.1822933"><ele>373.0</ele><time>2026-04-24T13:33:46.93Z</time></trkpt><trkpt lat="34.3394417" lon="8.1823533"><ele>373.0</ele><time>2026-04-24T13:33:47.93Z</time></trkpt><trkpt lat="34.3393533" lon="8.1823967"><ele>373.0</ele><time>2026-04-24T13:33:49.929Z</time></trkpt><trkpt lat="34.33927" lon="8.18232"><ele>373.0</ele><time>2026-04-24T13:33:51.929Z</time></trkpt><trkpt lat="34.3392183" lon="8.1821967"><ele>373.0</ele><time>2026-04-24T13:33:53.93Z</time></trkpt><trkpt lat="34.33919" lon="8.182125"><ele>373.0</ele><time>2026-04-24T13:33:54.93Z</time></trkpt><trkpt lat="34.33916" lon="8.1820367"><ele>373.0</ele><time>2026-04-24T13:33:55.93Z</time></trkpt><trkpt lat="34.3391267" lon="8.1819217"><ele>373.0</ele><time>2026-04-24T13:33:56.93Z</time></trkpt><trkpt lat="34.3390983" lon="8.18178"><ele>373.0</ele><time>2026-04-24T13:33:57.93Z</time></trkpt><trkpt lat="34.339075" lon="8.181635"><ele>371.8333333333333</ele><time>2026-04-24T13:33:58.93Z</time></trkpt><trkpt lat="34.3390683" lon="8.1815017"><ele>370.66666666666663</ele><time>2026-04-24T13:33:59.93Z</time></trkpt><trkpt lat="34.3390733" lon="8.1813883"><ele>369.5</ele><time>2026-04-24T13:34:00.93Z</time></trkpt><trkpt lat="34.3390833" lon="8.18129"><ele>368.3333333333333</ele><time>2026-04-24T13:34:01.93Z</time></trkpt><trkpt lat="34.3390767" lon="8.1811967"><ele>367.1666666666667</ele><time>2026-04-24T13:34:02.93Z</time></trkpt><trkpt lat="34.3390617" lon="8.1811133"><ele>366.0</ele><time>2026-04-24T13:34:03.93Z</time></trkpt><trkpt lat="34.3390267" lon="8.181035"><ele>366.0</ele><time>2026-04-24T13:34:04.93Z</time></trkpt><trkpt lat="34.3389733" lon="8.180965"><ele>366.0</ele><time>2026-04-24T13:34:05.93Z</time></trkpt><trkpt lat="34.33893" lon="8.180895"><ele>366.0</ele><time>2026-04-24T13:34:06.93Z</time></trkpt><trkpt lat="34.3388983" lon="8.1808067"><ele>366.0</ele><time>2026-04-24T13:34:07.929Z</time></trkpt><trkpt lat="34.3388717" lon="8.18071"><ele>366.0</ele><time>2026-04-24T13:34:08.93Z</time></trkpt><trkpt lat="34.3388667" lon="8.1805817"><ele>366.0</ele><time>2026-04-24T13:34:09.93Z</time></trkpt><trkpt lat="34.33886" lon="8.18046"><ele>362.3333333333333</ele><time>2026-04-24T13:34:10.93Z</time></trkpt><trkpt lat="34.3388467" lon="8.18035"><ele>358.6666666666667</ele><time>2026-04-24T13:34:11.93Z</time></trkpt><trkpt lat="34.3388317" lon="8.1802633"><ele>355.0</ele><time>2026-04-24T13:34:12.93Z</time></trkpt><trkpt lat="34.3387883" lon="8.18014"><ele>351.33333333333337</ele><time>2026-04-24T13:34:14.929Z</time></trkpt><trkpt lat="34.3387167" lon="8.180075"><ele>347.6666666666667</ele><time>2026-04-24T13:34:16.93Z</time></trkpt><trkpt lat="34.3386583" lon="8.180115"><ele>344.0</ele><time>2026-04-24T13:34:18.93Z</time></trkpt><trkpt lat="34.3385717" lon="8.180195"><ele>344.0</ele><time>2026-04-24T13:34:20.93Z</time></trkpt><trkpt lat="34.3384783" lon="8.1803067"><ele>344.0</ele><time>2026-04-24T13:34:22.93Z</time></trkpt><trkpt lat="34.3384217" lon="8.18038"><ele>344.0</ele><time>2026-04-24T13:34:23.93Z</time></trkpt><trkpt lat="34.3383633" lon="8.1804583"><ele>344.0</ele><time>2026-04-24T13:34:24.929Z</time></trkpt><trkpt lat="34.3383" lon="8.1805583"><ele>344.0</ele><time>2026-04-24T13:34:25.93Z</time></trkpt><trkpt lat="34.338225" lon="8.1806617"><ele>345.0</ele><time>2026-04-24T13:34:26.93Z</time></trkpt><trkpt lat="34.338145" lon="8.1807617"><ele>346.0</ele><time>2026-04-24T13:34:27.93Z</time></trkpt><trkpt lat="34.338075" lon="8.1808667"><ele>347.0</ele><time>2026-04-24T13:34:28.93Z</time></trkpt><trkpt lat="34.33801" lon="8.180975"><ele>348.0</ele><time>2026-04-24T13:34:29.93Z</time></trkpt><trkpt lat="34.337955" lon="8.1810983"><ele>342.25</ele><time>2026-04-24T13:34:30.929Z</time></trkpt><trkpt lat="34.337905" lon="8.18123"><ele>336.5</ele><time>2026-04-24T13:34:31.929Z</time></trkpt><trkpt lat="34.3378633" lon="8.181365"><ele>330.75</ele><time>2026-04-24T13:34:32.93Z</time></trkpt><trkpt lat="34.3378333" lon="8.1814883"><ele>325.0</ele><time>2026-04-24T13:34:33.93Z</time></trkpt><trkpt lat="34.337815" lon="8.1816133"><ele>324.2</ele><time>2026-04-24T13:34:34.929Z</time></trkpt><trkpt lat="34.3378067" lon="8.18171"><ele>323.4</ele><time>2026-04-24T13:34:35.93Z</time></trkpt><trkpt lat="34.3378083" lon="8.181805"><ele>322.6</ele><time>2026-04-24T13:34:36.93Z</time></trkpt><trkpt lat="34.3378167" lon="8.1818967"><ele>321.8</ele><time>2026-04-24T13:34:37.93Z</time></trkpt><trkpt lat="34.337795" lon="8.1820133"><ele>321.0</ele><time>2026-04-24T13:34:39.929Z</time></trkpt><trkpt lat="34.3376583" lon="8.18205"><ele>321.0</ele><time>2026-04-24T13:34:41.929Z</time></trkpt><trkpt lat="34.3375783" lon="8.1820717"><ele>321.0</ele><time>2026-04-24T13:34:42.93Z</time></trkpt><trkpt lat="34.3375083" lon="8.1821183"><ele>321.0</ele><time>2026-04-24T13:34:43.93Z</time></trkpt><trkpt lat="34.337465" lon="8.1821883"><ele>321.0</ele><time>2026-04-24T13:34:44.93Z</time></trkpt><trkpt lat="34.3374217" lon="8.1822783"><ele>321.0</ele><time>2026-04-24T13:34:45.93Z</time></trkpt><trkpt lat="34.3373733" lon="8.1823783"><ele>321.0</ele><time>2026-04-24T13:34:46.929Z</time></trkpt><trkpt lat="34.3373167" lon="8.1824717"><ele>321.20000000000005</ele><time>2026-04-24T13:34:47.93Z</time></trkpt><trkpt lat="34.3372533" lon="8.182565"><ele>321.40000000000003</ele><time>2026-04-24T13:34:48.93Z</time></trkpt><trkpt lat="34.33721" lon="8.18266"><ele>321.6</ele><time>2026-04-24T13:34:49.93Z</time></trkpt><trkpt lat="34.3371733" lon="8.18277"><ele>321.8</ele><time>2026-04-24T13:34:50.929Z</time></trkpt><trkpt lat="34.3371367" lon="8.1828733"><ele>322.0</ele><time>2026-04-24T13:34:51.93Z</time></trkpt><trkpt lat="34.3370917" lon="8.182985"><ele>317.40000000000003</ele><time>2026-04-24T13:34:52.93Z</time></trkpt><trkpt lat="34.3370383" lon="8.1830867"><ele>312.8</ele><time>2026-04-24T13:34:53.93Z</time></trkpt><trkpt lat="34.3369817" lon="8.1831833"><ele>308.2</ele><time>2026-04-24T13:34:54.93Z</time></trkpt><trkpt lat="34.3369333" lon="8.1832783"><ele>303.6</ele><time>2026-04-24T13:34:55.93Z</time></trkpt><trkpt lat="34.336895" lon="8.1833667"><ele>299.0</ele><time>2026-04-24T13:34:56.93Z</time></trkpt><trkpt lat="34.3368633" lon="8.1834567"><ele>299.0</ele><time>2026-04-24T13:34:57.93Z</time></trkpt><trkpt lat="34.3368283" lon="8.1835333"><ele>299.0</ele><time>2026-04-24T13:34:58.929Z</time></trkpt><trkpt lat="34.3368017" lon="8.18361"><ele>299.0</ele><time>2026-04-24T13:34:59.93Z</time></trkpt><trkpt lat="34.3367783" lon="8.1836867"><ele>299.0</ele><time>2026-04-24T13:35:00.93Z</time></trkpt><trkpt lat="34.3367433" lon="8.1837567"><ele>299.0</ele><time>2026-04-24T13:35:01.929Z</time></trkpt><trkpt lat="34.3366683" lon="8.1838383"><ele>299.0</ele><time>2026-04-24T13:35:03.929Z</time></trkpt><trkpt lat="34.3366017" lon="8.183745"><ele>299.0</ele><time>2026-04-24T13:35:06.929Z</time></trkpt><trkpt lat="34.3365933" lon="8.18365"><ele>299.0</ele><time>2026-04-24T13:35:07.929Z</time></trkpt><trkpt lat="34.3365983" lon="8.1835317"><ele>299.0</ele><time>2026-04-24T13:35:08.929Z</time></trkpt><trkpt lat="34.3366133" lon="8.1834"><ele>299.0</ele><time>2026-04-24T13:35:09.929Z</time></trkpt><trkpt lat="34.33663" lon="8.183275"><ele>299.0</ele><time>2026-04-24T13:35:10.929Z</time></trkpt><trkpt lat="34.3366567" lon="8.18317"><ele>299.0</ele><time>2026-04-24T13:35:11.929Z</time></trkpt><trkpt lat="34.336655" lon="8.1830917"><ele>299.0</ele><time>2026-04-24T13:35:12.928Z</time></trkpt><trkpt lat="34.3365817" lon="8.183055"><ele>299.0</ele><time>2026-04-24T13:35:14.929Z</time></trkpt><trkpt lat="34.3364933" lon="8.18315"><ele>299.0</ele><time>2026-04-24T13:35:16.929Z</time></trkpt><trkpt lat="34.33645" lon="8.183245"><ele>299.0</ele><time>2026-04-24T13:35:17.929Z</time></trkpt><trkpt lat="34.3364117" lon="8.1833567"><ele>292.25</ele><time>2026-04-24T13:35:18.928Z</time></trkpt><trkpt lat="34.3363717" lon="8.1834883"><ele>285.5</ele><time>2026-04-24T13:35:19.928Z</time></trkpt><trkpt lat="34.3363183" lon="8.18362"><ele>278.75</ele><time>2026-04-24T13:35:20.929Z</time></trkpt><trkpt lat="34.3362667" lon="8.183745"><ele>272.0</ele><time>2026-04-24T13:35:21.929Z</time></trkpt><trkpt lat="34.3362283" lon="8.1838683"><ele>272.0</ele><time>2026-04-24T13:35:22.929Z</time></trkpt><trkpt lat="34.336195" lon="8.1839867"><ele>272.0</ele><time>2026-04-24T13:35:23.929Z</time></trkpt><trkpt lat="34.336165" lon="8.1841133"><ele>272.0</ele><time>2026-04-24T13:35:24.928Z</time></trkpt><trkpt lat="34.3361417" lon="8.18424"><ele>272.0</ele><time>2026-04-24T13:35:25.929Z</time></trkpt><trkpt lat="34.3361183" lon="8.18436"><ele>272.0</ele><time>2026-04-24T13:35:26.929Z</time></trkpt><trkpt lat="34.3360983" lon="8.1844717"><ele>271.4</ele><time>2026-04-24T13:35:27.929Z</time></trkpt><trkpt lat="34.3360883" lon="8.1845833"><ele>270.79999999999995</ele><time>2026-04-24T13:35:28.929Z</time></trkpt><trkpt lat="34.3360733" lon="8.1846917"><ele>270.2</ele><time>2026-04-24T13:35:29.929Z</time></trkpt><trkpt lat="34.3360517" lon="8.1847967"><ele>269.59999999999997</ele><time>2026-04-24T13:35:30.929Z</time></trkpt><trkpt lat="34.3360167" lon="8.184905"><ele>269.0</ele><time>2026-04-24T13:35:31.928Z</time></trkpt><trkpt lat="34.335975" lon="8.1850233"><ele>269.0</ele><time>2026-04-24T13:35:32.929Z</time></trkpt><trkpt lat="34.33592" lon="8.18515"><ele>269.0</ele><time>2026-04-24T13:35:33.929Z</time></trkpt><trkpt lat="34.3358583" lon="8.1852817"><ele>269.0</ele><time>2026-04-24T13:35:34.928Z</time></trkpt><trkpt lat="34.335805" lon="8.185425"><ele>269.0</ele><time>2026-04-24T13:35:35.929Z</time></trkpt><trkpt lat="34.3357667" lon="8.1855667"><ele>264.2</ele><time>2026-04-24T13:35:36.929Z</time></trkpt><trkpt lat="34.3357317" lon="8.1857017"><ele>259.4</ele><time>2026-04-24T13:35:37.928Z</time></trkpt><trkpt lat="34.335705" lon="8.185825"><ele>254.6</ele><time>2026-04-24T13:35:38.928Z</time></trkpt><trkpt lat="34.335675" lon="8.1859383"><ele>249.8</ele><time>2026-04-24T13:35:39.928Z</time></trkpt><trkpt lat="34.335645" lon="8.1860433"><ele>245.0</ele><time>2026-04-24T13:35:40.929Z</time></trkpt><trkpt lat="34.3356267" lon="8.1861367"><ele>245.00000000000003</ele><time>2026-04-24T13:35:41.929Z</time></trkpt><trkpt lat="34.335605" lon="8.186215"><ele>245.0</ele><time>2026-04-24T13:35:42.929Z</time></trkpt><trkpt lat="34.3355483" lon="8.1862833"><ele>245.0</ele><time>2026-04-24T13:35:44.929Z</time></trkpt><trkpt lat="34.3355017" lon="8.1862233"><ele>245.0</ele><time>2026-04-24T13:35:46.929Z</time></trkpt><trkpt lat="34.3355067" lon="8.1860717"><ele>245.00000000000003</ele><time>2026-04-24T13:35:48.929Z</time></trkpt><trkpt lat="34.3355267" lon="8.18598"><ele>245.0</ele><time>2026-04-24T13:35:49.929Z</time></trkpt><trkpt lat="34.3355233" lon="8.1858933"><ele>244.8</ele><time>2026-04-24T13:35:50.929Z</time></trkpt><trkpt lat="34.3354767" lon="8.1857867"><ele>244.6</ele><time>2026-04-24T13:35:52.929Z</time></trkpt><trkpt lat="34.3353917" lon="8.18585"><ele>244.39999999999998</ele><time>2026-04-24T13:35:54.928Z</time></trkpt><trkpt lat="34.335355" lon="8.1859367"><ele>244.2</ele><time>2026-04-24T13:35:55.928Z</time></trkpt><trkpt lat="34.33531" lon="8.1860367"><ele>244.0</ele><time>2026-04-24T13:35:56.929Z</time></trkpt><trkpt lat="34.33527" lon="8.1861633"><ele>244.0</ele><time>2026-04-24T13:35:57.929Z</time></trkpt><trkpt lat="34.335225" lon="8.1862867"><ele>244.0</ele><time>2026-04-24T13:35:58.929Z</time></trkpt><trkpt lat="34.3351767" lon="8.1864083"><ele>244.0</ele><time>2026-04-24T13:35:59.929Z</time></trkpt><trkpt lat="34.3351483" lon="8.18654"><ele>244.0</ele><time>2026-04-24T13:36:00.929Z</time></trkpt><trkpt lat="34.335135" lon="8.186685"><ele>243.25</ele><time>2026-04-24T13:36:01.929Z</time></trkpt><trkpt lat="34.335125" lon="8.1868317"><ele>242.5</ele><time>2026-04-24T13:36:02.929Z</time></trkpt><trkpt lat="34.335105" lon="8.1869783"><ele>241.75</ele><time>2026-04-24T13:36:03.929Z</time></trkpt><trkpt lat="34.3350833" lon="8.1871267"><ele>241.0</ele><time>2026-04-24T13:36:04.929Z</time></trkpt><trkpt lat="34.335055" lon="8.18726"><ele>239.83333333333331</ele><time>2026-04-24T13:36:05.929Z</time></trkpt><trkpt lat="34.33502" lon="8.1873783"><ele>238.66666666666666</ele><time>2026-04-24T13:36:06.928Z</time></trkpt><trkpt lat="34.3349933" lon="8.187485"><ele>237.5</ele><time>2026-04-24T13:36:07.929Z</time></trkpt><trkpt lat="34.3349717" lon="8.18758"><ele>236.33333333333331</ele><time>2026-04-24T13:36:08.928Z</time></trkpt><trkpt lat="34.3349467" lon="8.1876533"><ele>235.16666666666666</ele><time>2026-04-24T13:36:09.929Z</time></trkpt><trkpt lat="34.33488" lon="8.1877317"><ele>234.0</ele><time>2026-04-24T13:36:11.928Z</time></trkpt><trkpt lat="34.334825" lon="8.18766"><ele>234.0</ele><time>2026-04-24T13:36:13.928Z</time></trkpt><trkpt lat="34.33483" lon="8.1875"><ele>233.99999999999997</ele><time>2026-04-24T13:36:15.928Z</time></trkpt><trkpt lat="34.3348517" lon="8.1874033"><ele>233.99999999999997</ele><time>2026-04-24T13:36:16.929Z</time></trkpt><trkpt lat="34.3348717" lon="8.187275"><ele>234.0</ele><time>2026-04-24T13:36:17.929Z</time></trkpt><trkpt lat="34.3348817" lon="8.1871383"><ele>234.0</ele><time>2026-04-24T13:36:18.929Z</time></trkpt><trkpt lat="34.3348783" lon="8.1869967"><ele>235.39999999999998</ele><time>2026-04-24T13:36:19.929Z</time></trkpt><trkpt lat="34.3348567" lon="8.1868767"><ele>236.79999999999998</ele><time>2026-04-24T13:36:20.929Z</time></trkpt><trkpt lat="34.3348267" lon="8.1867583"><ele>238.20000000000002</ele><time>2026-04-24T13:36:21.929Z</time></trkpt><trkpt lat="34.3347933" lon="8.18665"><ele>239.60000000000002</ele><time>2026-04-24T13:36:22.929Z</time></trkpt><trkpt lat="34.33476" lon="8.18655"><ele>241.0</ele><time>2026-04-24T13:36:23.929Z</time></trkpt><trkpt lat="34.3347317" lon="8.1864517"><ele>235.0</ele><time>2026-04-24T13:36:24.928Z</time></trkpt><trkpt lat="34.3347017" lon="8.1863417"><ele>229.00000000000003</ele><time>2026-04-24T13:36:25.928Z</time></trkpt><trkpt lat="34.3346717" lon="8.1862117"><ele>223.0</ele><time>2026-04-24T13:36:26.928Z</time></trkpt><trkpt lat="34.3346383" lon="8.18608"><ele>217.0</ele><time>2026-04-24T13:36:27.929Z</time></trkpt><trkpt lat="34.3346083" lon="8.18594"><ele>211.0</ele><time>2026-04-24T13:36:28.929Z</time></trkpt><trkpt lat="34.3345767" lon="8.1858083"><ele>211.20000000000002</ele><time>2026-04-24T13:36:29.929Z</time></trkpt><trkpt lat="34.334545" lon="8.1856767"><ele>211.4</ele><time>2026-04-24T13:36:30.928Z</time></trkpt><trkpt lat="34.3345133" lon="8.18556"><ele>211.6</ele><time>2026-04-24T13:36:31.929Z</time></trkpt><trkpt lat="34.3344783" lon="8.1854317"><ele>211.8</ele><time>2026-04-24T13:36:32.929Z</time></trkpt><trkpt lat="34.3344417" lon="8.1853117"><ele>212.0</ele><time>2026-04-24T13:36:33.929Z</time></trkpt><trkpt lat="34.3344117" lon="8.1851967"><ele>212.0</ele><time>2026-04-24T13:36:34.928Z</time></trkpt><trkpt lat="34.3343867" lon="8.1850817"><ele>212.0</ele><time>2026-04-24T13:36:35.929Z</time></trkpt><trkpt lat="34.3343633" lon="8.184955"><ele>212.0</ele><time>2026-04-24T13:36:36.929Z</time></trkpt><trkpt lat="34.334335" lon="8.18483"><ele>212.0</ele><time>2026-04-24T13:36:37.929Z</time></trkpt><trkpt lat="34.3343" lon="8.184715"><ele>212.0</ele><time>2026-04-24T13:36:38.928Z</time></trkpt><trkpt lat="34.3342717" lon="8.1846117"><ele>212.0</ele><time>2026-04-24T13:36:39.929Z</time></trkpt><trkpt lat="34.3342433" lon="8.1845133"><ele>212.0</ele><time>2026-04-24T13:36:40.929Z</time></trkpt><trkpt lat="34.3342017" lon="8.184435"><ele>212.0</ele><time>2026-04-24T13:36:41.929Z</time></trkpt><trkpt lat="34.334105" lon="8.184355"><ele>212.0</ele><time>2026-04-24T13:36:43.929Z</time></trkpt><trkpt lat="34.3339917" lon="8.184365"><ele>212.0</ele><time>2026-04-24T13:36:45.928Z</time></trkpt><trkpt lat="34.3339117" lon="8.1843933"><ele>206.75</ele><time>2026-04-24T13:36:46.928Z</time></trkpt><trkpt lat="34.3338117" lon="8.1844317"><ele>201.5</ele><time>2026-04-24T13:36:47.929Z</time></trkpt><trkpt lat="34.3336967" lon="8.1844617"><ele>196.25</ele><time>2026-04-24T13:36:48.929Z</time></trkpt><trkpt lat="34.3335733" lon="8.1844917"><ele>191.0</ele><time>2026-04-24T13:36:49.929Z</time></trkpt><trkpt lat="34.3334533" lon="8.1845267"><ele>191.0</ele><time>2026-04-24T13:36:50.929Z</time></trkpt><trkpt lat="34.3333467" lon="8.1845633"><ele>191.0</ele><time>2026-04-24T13:36:51.929Z</time></trkpt><trkpt lat="34.3332517" lon="8.184605"><ele>191.0</ele><time>2026-04-24T13:36:52.929Z</time></trkpt><trkpt lat="34.3331667" lon="8.1846383"><ele>191.0</ele><time>2026-04-24T13:36:53.929Z</time></trkpt><trkpt lat="34.3330667" lon="8.1846733"><ele>191.0</ele><time>2026-04-24T13:36:54.928Z</time></trkpt><trkpt lat="34.3329617" lon="8.1847167"><ele>191.4</ele><time>2026-04-24T13:36:55.929Z</time></trkpt><trkpt lat="34.332855" lon="8.1847733"><ele>191.8</ele><time>2026-04-24T13:36:56.928Z</time></trkpt><trkpt lat="34.3327617" lon="8.1848133"><ele>192.20000000000002</ele><time>2026-04-24T13:36:57.929Z</time></trkpt><trkpt lat="34.33267" lon="8.1848383"><ele>192.60000000000002</ele><time>2026-04-24T13:36:58.929Z</time></trkpt><trkpt lat="34.33259" lon="8.1848517"><ele>193.0</ele><time>2026-04-24T13:36:59.929Z</time></trkpt><trkpt lat="34.332515" lon="8.18487"><ele>192.99999999999997</ele><time>2026-04-24T13:37:00.928Z</time></trkpt><trkpt lat="34.33244" lon="8.184895"><ele>193.0</ele><time>2026-04-24T13:37:01.929Z</time></trkpt><trkpt lat="34.3323783" lon="8.1849433"><ele>193.0</ele><time>2026-04-24T13:37:02.929Z</time></trkpt><trkpt lat="34.332315" lon="8.1850033"><ele>193.0</ele><time>2026-04-24T13:37:03.929Z</time></trkpt><trkpt lat="34.3322583" lon="8.1850567"><ele>192.99999999999997</ele><time>2026-04-24T13:37:04.929Z</time></trkpt><trkpt lat="34.3321383" lon="8.1850883"><ele>193.0</ele><time>2026-04-24T13:37:06.929Z</time></trkpt><trkpt lat="34.3320517" lon="8.1849867"><ele>194.2</ele><time>2026-04-24T13:37:08.929Z</time></trkpt><trkpt lat="34.332035" lon="8.1848917"><ele>195.4</ele><time>2026-04-24T13:37:09.929Z</time></trkpt><trkpt lat="34.332015" lon="8.18478"><ele>196.6</ele><time>2026-04-24T13:37:10.929Z</time></trkpt><trkpt lat="34.3319783" lon="8.184665"><ele>197.79999999999998</ele><time>2026-04-24T13:37:11.928Z</time></trkpt><trkpt lat="34.3319183" lon="8.18455"><ele>199.0</ele><time>2026-04-24T13:37:12.929Z</time></trkpt><trkpt lat="34.3318467" lon="8.184435"><ele>196.2</ele><time>2026-04-24T13:37:13.929Z</time></trkpt><trkpt lat="34.331775" lon="8.1843233"><ele>193.39999999999998</ele><time>2026-04-24T13:37:14.929Z</time></trkpt><trkpt lat="34.3317067" lon="8.1842067"><ele>190.6</ele><time>2026-04-24T13:37:15.929Z</time></trkpt><trkpt lat="34.3316417" lon="8.1841033"><ele>187.8</ele><time>2026-04-24T13:37:16.929Z</time></trkpt><trkpt lat="34.33158" lon="8.184005"><ele>185.0</ele><time>2026-04-24T13:37:17.929Z</time></trkpt><trkpt lat="34.331525" lon="8.1839083"><ele>185.6</ele><time>2026-04-24T13:37:18.928Z</time></trkpt><trkpt lat="34.3314767" lon="8.1838017"><ele>186.2</ele><time>2026-04-24T13:37:19.929Z</time></trkpt><trkpt lat="34.331425" lon="8.1836883"><ele>186.8</ele><time>2026-04-24T13:37:20.928Z</time></trkpt><trkpt lat="34.33138" lon="8.1835633"><ele>187.4</ele><time>2026-04-24T13:37:21.929Z</time></trkpt><trkpt lat="34.33133" lon="8.1834433"><ele>188.0</ele><time>2026-04-24T13:37:22.928Z</time></trkpt><trkpt lat="34.33128" lon="8.1833217"><ele>188.0</ele><time>2026-04-24T13:37:23.929Z</time></trkpt><trkpt lat="34.3312333" lon="8.1832117"><ele>188.0</ele><time>2026-04-24T13:37:24.929Z</time></trkpt><trkpt lat="34.3311833" lon="8.18309"><ele>188.0</ele><time>2026-04-24T13:37:25.929Z</time></trkpt><trkpt lat="34.3311317" lon="8.1829833"><ele>188.0</ele><time>2026-04-24T13:37:26.928Z</time></trkpt><trkpt lat="34.3310733" lon="8.18288"><ele>188.0</ele><time>2026-04-24T13:37:27.929Z</time></trkpt><trkpt lat="34.3310217" lon="8.182775"><ele>186.8</ele><time>2026-04-24T13:37:28.929Z</time></trkpt><trkpt lat="34.3309733" lon="8.1826767"><ele>185.60000000000002</ele><time>2026-04-24T13:37:29.929Z</time></trkpt><trkpt lat="34.330925" lon="8.1825767"><ele>184.39999999999998</ele><time>2026-04-24T13:37:30.929Z</time></trkpt><trkpt lat="34.33087" lon="8.1824883"><ele>183.2</ele><time>2026-04-24T13:37:31.929Z</time></trkpt><trkpt lat="34.3308067" lon="8.1824017"><ele>182.0</ele><time>2026-04-24T13:37:32.928Z</time></trkpt><trkpt lat="34.33074" lon="8.18234"><ele>182.0</ele><time>2026-04-24T13:37:33.929Z</time></trkpt><trkpt lat="34.330665" lon="8.1822867"><ele>182.0</ele><time>2026-04-24T13:37:34.929Z</time></trkpt><trkpt lat="34.3305883" lon="8.1822567"><ele>182.0</ele><time>2026-04-24T13:37:35.929Z</time></trkpt><trkpt lat="34.3305217" lon="8.182275"><ele>182.0</ele><time>2026-04-24T13:37:36.929Z</time></trkpt><trkpt lat="34.3304583" lon="8.1823083"><ele>182.0</ele><time>2026-04-24T13:37:37.928Z</time></trkpt><trkpt lat="34.3303917" lon="8.18236"><ele>182.0</ele><time>2026-04-24T13:37:38.929Z</time></trkpt><trkpt lat="34.330315" lon="8.1824233"><ele>180.6</ele><time>2026-04-24T13:37:39.929Z</time></trkpt><trkpt lat="34.3302283" lon="8.1824633"><ele>179.2</ele><time>2026-04-24T13:37:40.929Z</time></trkpt><trkpt lat="34.33014" lon="8.1824783"><ele>177.8</ele><time>2026-04-24T13:37:41.929Z</time></trkpt><trkpt lat="34.3300533" lon="8.182465"><ele>176.4</ele><time>2026-04-24T13:37:42.928Z</time></trkpt><trkpt lat="34.32997" lon="8.1824333"><ele>175.0</ele><time>2026-04-24T13:37:43.929Z</time></trkpt><trkpt lat="34.32988" lon="8.1823767"><ele>174.8</ele><time>2026-04-24T13:37:44.928Z</time></trkpt><trkpt lat="34.3297967" lon="8.1823133"><ele>174.6</ele><time>2026-04-24T13:37:45.929Z</time></trkpt><trkpt lat="34.329715" lon="8.1822467"><ele>174.39999999999998</ele><time>2026-04-24T13:37:46.928Z</time></trkpt><trkpt lat="34.32963" lon="8.1821833"><ele>174.2</ele><time>2026-04-24T13:37:47.928Z</time></trkpt><trkpt lat="34.3295567" lon="8.1821017"><ele>174.0</ele><time>2026-04-24T13:37:48.928Z</time></trkpt><trkpt lat="34.3294983" lon="8.18201"><ele>174.0</ele><time>2026-04-24T13:37:49.929Z</time></trkpt><trkpt lat="34.329455" lon="8.1819117"><ele>174.0</ele><time>2026-04-24T13:37:50.928Z</time></trkpt><trkpt lat="34.3294083" lon="8.1818183"><ele>174.0</ele><time>2026-04-24T13:37:51.929Z</time></trkpt><trkpt lat="34.32936" lon="8.18173"><ele>174.0</ele><time>2026-04-24T13:37:52.929Z</time></trkpt><trkpt lat="34.3292933" lon="8.1816617"><ele>174.0</ele><time>2026-04-24T13:37:53.929Z</time></trkpt><trkpt lat="34.3292233" lon="8.1816033"><ele>174.0</ele><time>2026-04-24T13:37:54.929Z</time></trkpt><trkpt lat="34.3291483" lon="8.1815617"><ele>174.0</ele><time>2026-04-24T13:37:55.929Z</time></trkpt><trkpt lat="34.3290767" lon="8.18152"><ele>174.0</ele><time>2026-04-24T13:37:56.928Z</time></trkpt><trkpt lat="34.3290233" lon="8.1814783"><ele>174.0</ele><time>2026-04-24T13:37:57.929Z</time></trkpt><trkpt lat="34.3289717" lon="8.18142"><ele>174.0</ele><time>2026-04-24T13:37:58.929Z</time></trkpt><trkpt lat="34.32893" lon="8.181325"><ele>174.0</ele><time>2026-04-24T13:37:59.928Z</time></trkpt><trkpt lat="34.32889" lon="8.18121"><ele>174.0</ele><time>2026-04-24T13:38:00.929Z</time></trkpt><trkpt lat="34.328855" lon="8.1810767"><ele>174.75</ele><time>2026-04-24T13:38:01.929Z</time></trkpt><trkpt lat="34.3288183" lon="8.1809283"><ele>175.5</ele><time>2026-04-24T13:38:02.929Z</time></trkpt><trkpt lat="34.3287883" lon="8.1807767"><ele>176.25</ele><time>2026-04-24T13:38:03.929Z</time></trkpt><trkpt lat="34.3287533" lon="8.1806183"><ele>177.0</ele><time>2026-04-24T13:38:04.929Z</time></trkpt><trkpt lat="34.3287217" lon="8.18047"><ele>175.6</ele><time>2026-04-24T13:38:05.928Z</time></trkpt><trkpt lat="34.32869" lon="8.1803283"><ele>174.2</ele><time>2026-04-24T13:38:06.928Z</time></trkpt><trkpt lat="34.3286567" lon="8.1801967"><ele>172.8</ele><time>2026-04-24T13:38:07.929Z</time></trkpt><trkpt lat="34.3286317" lon="8.18007"><ele>171.4</ele><time>2026-04-24T13:38:08.929Z</time></trkpt><trkpt lat="34.328605" lon="8.17995"><ele>170.0</ele><time>2026-04-24T13:38:09.929Z</time></trkpt><trkpt lat="34.3285917" lon="8.1798283"><ele>169.0</ele><time>2026-04-24T13:38:10.929Z</time></trkpt><trkpt lat="34.328595" lon="8.1796983"><ele>168.0</ele><time>2026-04-24T13:38:11.929Z</time></trkpt><trkpt lat="34.3286" lon="8.179575"><ele>167.0</ele><time>2026-04-24T13:38:12.929Z</time></trkpt><trkpt lat="34.3286" lon="8.1794467"><ele>166.0</ele><time>2026-04-24T13:38:13.928Z</time></trkpt><trkpt lat="34.3285967" lon="8.1793183"><ele>165.0</ele><time>2026-04-24T13:38:14.929Z</time></trkpt><trkpt lat="34.3285883" lon="8.1791917"><ele>165.0</ele><time>2026-04-24T13:38:15.929Z</time></trkpt><trkpt lat="34.3285767" lon="8.1790667"><ele>165.0</ele><time>2026-04-24T13:38:16.928Z</time></trkpt><trkpt lat="34.3285633" lon="8.1789433"><ele>165.0</ele><time>2026-04-24T13:38:17.928Z</time></trkpt><trkpt lat="34.328555" lon="8.178825"><ele>165.0</ele><time>2026-04-24T13:38:18.929Z</time></trkpt><trkpt lat="34.3285383" lon="8.1787117"><ele>165.0</ele><time>2026-04-24T13:38:19.929Z</time></trkpt><trkpt lat="34.3285167" lon="8.178595"><ele>164.8</ele><time>2026-04-24T13:38:20.929Z</time></trkpt><trkpt lat="34.3285067" lon="8.1784883"><ele>164.6</ele><time>2026-04-24T13:38:21.928Z</time></trkpt><trkpt lat="34.328505" lon="8.1783717"><ele>164.39999999999998</ele><time>2026-04-24T13:38:22.927Z</time></trkpt><trkpt lat="34.328505" lon="8.178265"><ele>164.2</ele><time>2026-04-24T13:38:23.928Z</time></trkpt><trkpt lat="34.3284967" lon="8.1781567"><ele>164.0</ele><time>2026-04-24T13:38:24.928Z</time></trkpt><trkpt lat="34.328495" lon="8.1780283"><ele>164.0</ele><time>2026-04-24T13:38:25.927Z</time></trkpt><trkpt lat="34.3284917" lon="8.1778967"><ele>164.0</ele><time>2026-04-24T13:38:26.928Z</time></trkpt><trkpt lat="34.3285017" lon="8.17776"><ele>164.0</ele><time>2026-04-24T13:38:27.928Z</time></trkpt><trkpt lat="34.3285267" lon="8.1776283"><ele>164.0</ele><time>2026-04-24T13:38:28.928Z</time></trkpt><trkpt lat="34.3285233" lon="8.1774933"><ele>164.0</ele><time>2026-04-24T13:38:29.928Z</time></trkpt><trkpt lat="34.328515" lon="8.1773883"><ele>162.83333333333331</ele><time>2026-04-24T13:38:30.927Z</time></trkpt><trkpt lat="34.3284983" lon="8.1772883"><ele>161.66666666666666</ele><time>2026-04-24T13:38:31.927Z</time></trkpt><trkpt lat="34.328475" lon="8.1771983"><ele>160.5</ele><time>2026-04-24T13:38:32.927Z</time></trkpt><trkpt lat="34.3284483" lon="8.17712"><ele>159.33333333333334</ele><time>2026-04-24T13:38:33.927Z</time></trkpt><trkpt lat="34.3284233" lon="8.177045"><ele>158.16666666666669</ele><time>2026-04-24T13:38:34.928Z</time></trkpt><trkpt lat="34.3284067" lon="8.1769533"><ele>157.0</ele><time>2026-04-24T13:38:35.928Z</time></trkpt><trkpt lat="34.32839" lon="8.17685"><ele>157.0</ele><time>2026-04-24T13:38:36.927Z</time></trkpt><trkpt lat="34.328385" lon="8.17673"><ele>157.0</ele><time>2026-04-24T13:38:37.928Z</time></trkpt><trkpt lat="34.3283733" lon="8.1766033"><ele>157.0</ele><time>2026-04-24T13:38:38.928Z</time></trkpt><trkpt lat="34.3283567" lon="8.1764917"><ele>157.0</ele><time>2026-04-24T13:38:39.928Z</time></trkpt><trkpt lat="34.3283233" lon="8.17639"><ele>157.0</ele><time>2026-04-24T13:38:40.928Z</time></trkpt><trkpt lat="34.3282733" lon="8.1763017"><ele>156.79999999999998</ele><time>2026-04-24T13:38:41.927Z</time></trkpt><trkpt lat="34.3282117" lon="8.17623"><ele>156.6</ele><time>2026-04-24T13:38:42.928Z</time></trkpt><trkpt lat="34.3281433" lon="8.17616"><ele>156.39999999999998</ele><time>2026-04-24T13:38:43.927Z</time></trkpt><trkpt lat="34.3280633" lon="8.1760967"><ele>156.2</ele><time>2026-04-24T13:38:44.928Z</time></trkpt><trkpt lat="34.3279767" lon="8.1760383"><ele>156.0</ele><time>2026-04-24T13:38:45.927Z</time></trkpt><trkpt lat="34.327895" lon="8.1759717"><ele>155.2</ele><time>2026-04-24T13:38:46.927Z</time></trkpt><trkpt lat="34.32781" lon="8.17589"><ele>154.39999999999998</ele><time>2026-04-24T13:38:47.928Z</time></trkpt><trkpt lat="34.3277283" lon="8.1758117"><ele>153.6</ele><time>2026-04-24T13:38:48.928Z</time></trkpt><trkpt lat="34.3276583" lon="8.1757317"><ele>152.79999999999998</ele><time>2026-04-24T13:38:49.928Z</time></trkpt><trkpt lat="34.327605" lon="8.1756367"><ele>152.0</ele><time>2026-04-24T13:38:50.928Z</time></trkpt><trkpt lat="34.32756" lon="8.1755417"><ele>151.4</ele><time>2026-04-24T13:38:51.927Z</time></trkpt><trkpt lat="34.3275117" lon="8.1754467"><ele>150.79999999999998</ele><time>2026-04-24T13:38:52.927Z</time></trkpt><trkpt lat="34.3274617" lon="8.1753433"><ele>150.2</ele><time>2026-04-24T13:38:53.928Z</time></trkpt><trkpt lat="34.3274017" lon="8.1752467"><ele>149.6</ele><time>2026-04-24T13:38:54.928Z</time></trkpt><trkpt lat="34.3273383" lon="8.1751533"><ele>149.0</ele><time>2026-04-24T13:38:55.928Z</time></trkpt><trkpt lat="34.3272817" lon="8.17507"><ele>148.2</ele><time>2026-04-24T13:38:56.928Z</time></trkpt><trkpt lat="34.3272217" lon="8.1749983"><ele>147.4</ele><time>2026-04-24T13:38:57.928Z</time></trkpt><trkpt lat="34.3271517" lon="8.1749267"><ele>146.6</ele><time>2026-04-24T13:38:58.928Z</time></trkpt><trkpt lat="34.3270833" lon="8.1748533"><ele>145.8</ele><time>2026-04-24T13:38:59.928Z</time></trkpt><trkpt lat="34.3270067" lon="8.1747817"><ele>145.0</ele><time>2026-04-24T13:39:00.927Z</time></trkpt><trkpt lat="34.3269233" lon="8.174705"><ele>145.0</ele><time>2026-04-24T13:39:01.927Z</time></trkpt><trkpt lat="34.32684" lon="8.1746417"><ele>145.0</ele><time>2026-04-24T13:39:02.927Z</time></trkpt><trkpt lat="34.326765" lon="8.1745917"><ele>145.0</ele><time>2026-04-24T13:39:03.928Z</time></trkpt><trkpt lat="34.3266933" lon="8.1745433"><ele>145.0</ele><time>2026-04-24T13:39:04.928Z</time></trkpt><trkpt lat="34.3266283" lon="8.1745083"><ele>145.0</ele><time>2026-04-24T13:39:05.928Z</time></trkpt><trkpt lat="34.3265333" lon="8.1744683"><ele>145.0</ele><time>2026-04-24T13:39:07.928Z</time></trkpt><trkpt lat="34.32645" lon="8.174425"><ele>143.4</ele><time>2026-04-24T13:39:09.928Z</time></trkpt><trkpt lat="34.3263483" lon="8.1743817"><ele>141.8</ele><time>2026-04-24T13:39:11.927Z</time></trkpt><trkpt lat="34.32624" lon="8.1743367"><ele>140.2</ele><time>2026-04-24T13:39:13.927Z</time></trkpt><trkpt lat="34.3261433" lon="8.174255"><ele>138.6</ele><time>2026-04-24T13:39:15.928Z</time></trkpt><trkpt lat="34.3260817" lon="8.17421"><ele>137.0</ele><time>2026-04-24T13:39:16.928Z</time></trkpt><trkpt lat="34.3260133" lon="8.1741667"><ele>137.0</ele><time>2026-04-24T13:39:17.928Z</time></trkpt><trkpt lat="34.3259333" lon="8.1741233"><ele>137.0</ele><time>2026-04-24T13:39:18.927Z</time></trkpt><trkpt lat="34.3258567" lon="8.17408"><ele>137.0</ele><time>2026-04-24T13:39:19.928Z</time></trkpt><trkpt lat="34.3257733" lon="8.174025"><ele>137.0</ele><time>2026-04-24T13:39:20.928Z</time></trkpt><trkpt lat="34.3256967" lon="8.1739617"><ele>137.0</ele><time>2026-04-24T13:39:21.928Z</time></trkpt><trkpt lat="34.3256167" lon="8.1738933"><ele>137.33333333333331</ele><time>2026-04-24T13:39:22.928Z</time></trkpt><trkpt lat="34.3255317" lon="8.1738367"><ele>137.66666666666666</ele><time>2026-04-24T13:39:23.928Z</time></trkpt><trkpt lat="34.3254533" lon="8.1737967"><ele>138.0</ele><time>2026-04-24T13:39:24.928Z</time></trkpt><trkpt lat="34.3253833" lon="8.1737617"><ele>138.33333333333334</ele><time>2026-04-24T13:39:25.928Z</time></trkpt><trkpt lat="34.3253217" lon="8.1737367"><ele>138.66666666666669</ele><time>2026-04-24T13:39:26.927Z</time></trkpt><trkpt lat="34.3252533" lon="8.1737133"><ele>139.0</ele><time>2026-04-24T13:39:27.927Z</time></trkpt><trkpt lat="34.3251817" lon="8.1737017"><ele>139.0</ele><time>2026-04-24T13:39:29.927Z</time></trkpt><trkpt lat="34.3251133" lon="8.1736783"><ele>139.0</ele><time>2026-04-24T13:39:32.928Z</time></trkpt><trkpt lat="34.3250433" lon="8.1736617"><ele>139.0</ele><time>2026-04-24T13:39:34.928Z</time></trkpt><trkpt lat="34.3249167" lon="8.1736467"><ele>139.0</ele><time>2026-04-24T13:39:36.928Z</time></trkpt><trkpt lat="34.3248367" lon="8.17364"><ele>139.0</ele><time>2026-04-24T13:39:37.928Z</time></trkpt><trkpt lat="34.3247533" lon="8.1736417"><ele>139.0</ele><time>2026-04-24T13:39:38.927Z</time></trkpt><trkpt lat="34.324665" lon="8.1736467"><ele>138.0</ele><time>2026-04-24T13:39:39.927Z</time></trkpt><trkpt lat="34.3245717" lon="8.1736517"><ele>137.0</ele><time>2026-04-24T13:39:40.927Z</time></trkpt><trkpt lat="34.3244783" lon="8.1736417"><ele>136.0</ele><time>2026-04-24T13:39:41.927Z</time></trkpt><trkpt lat="34.3243933" lon="8.1736183"><ele>135.0</ele><time>2026-04-24T13:39:42.927Z</time></trkpt><trkpt lat="34.324305" lon="8.1735883"><ele>134.0</ele><time>2026-04-24T13:39:43.927Z</time></trkpt><trkpt lat="34.3242217" lon="8.173545"><ele>134.0</ele><time>2026-04-24T13:39:44.927Z</time></trkpt><trkpt lat="34.3241317" lon="8.1734983"><ele>134.0</ele><time>2026-04-24T13:39:45.928Z</time></trkpt><trkpt lat="34.3240483" lon="8.1734467"><ele>134.0</ele><time>2026-04-24T13:39:46.928Z</time></trkpt><trkpt lat="34.3239717" lon="8.1734083"><ele>134.0</ele><time>2026-04-24T13:39:47.928Z</time></trkpt><trkpt lat="34.3238917" lon="8.17338"><ele>134.0</ele><time>2026-04-24T13:39:48.928Z</time></trkpt><trkpt lat="34.3238" lon="8.17337"><ele>132.6</ele><time>2026-04-24T13:39:49.928Z</time></trkpt><trkpt lat="34.3236983" lon="8.1733683"><ele>131.2</ele><time>2026-04-24T13:39:50.927Z</time></trkpt><trkpt lat="34.32359" lon="8.1733817"><ele>129.79999999999998</ele><time>2026-04-24T13:39:51.927Z</time></trkpt><trkpt lat="34.3234917" lon="8.173385"><ele>128.4</ele><time>2026-04-24T13:39:52.928Z</time></trkpt><trkpt lat="34.3233933" lon="8.1733817"><ele>127.0</ele><time>2026-04-24T13:39:53.928Z</time></trkpt><trkpt lat="34.3232933" lon="8.1733683"><ele>127.0</ele><time>2026-04-24T13:39:54.928Z</time></trkpt><trkpt lat="34.3231933" lon="8.1733583"><ele>126.99999999999999</ele><time>2026-04-24T13:39:55.928Z</time></trkpt><trkpt lat="34.3230983" lon="8.173345"><ele>126.99999999999999</ele><time>2026-04-24T13:39:56.928Z</time></trkpt><trkpt lat="34.3229967" lon="8.1733117"><ele>127.0</ele><time>2026-04-24T13:39:57.928Z</time></trkpt><trkpt lat="34.3229067" lon="8.17327"><ele>127.0</ele><time>2026-04-24T13:39:58.928Z</time></trkpt><trkpt lat="34.3228233" lon="8.173205"><ele>126.6</ele><time>2026-04-24T13:39:59.928Z</time></trkpt><trkpt lat="34.3227317" lon="8.1731283"><ele>126.19999999999999</ele><time>2026-04-24T13:40:00.928Z</time></trkpt><trkpt lat="34.3226433" lon="8.1730467"><ele>125.8</ele><time>2026-04-24T13:40:01.928Z</time></trkpt><trkpt lat="34.3225583" lon="8.1729667"><ele>125.4</ele><time>2026-04-24T13:40:02.927Z</time></trkpt><trkpt lat="34.3224667" lon="8.1728767"><ele>125.0</ele><time>2026-04-24T13:40:03.928Z</time></trkpt><trkpt lat="34.3223817" lon="8.1727833"><ele>125.0</ele><time>2026-04-24T13:40:04.928Z</time></trkpt><trkpt lat="34.3222883" lon="8.1726717"><ele>125.0</ele><time>2026-04-24T13:40:05.928Z</time></trkpt><trkpt lat="34.3222033" lon="8.1725617"><ele>125.0</ele><time>2026-04-24T13:40:06.928Z</time></trkpt><trkpt lat="34.3221383" lon="8.172445"><ele>125.0</ele><time>2026-04-24T13:40:07.928Z</time></trkpt><trkpt lat="34.3220717" lon="8.172325"><ele>123.25</ele><time>2026-04-24T13:40:08.928Z</time></trkpt><trkpt lat="34.3220067" lon="8.1721933"><ele>121.5</ele><time>2026-04-24T13:40:09.928Z</time></trkpt><trkpt lat="34.3219467" lon="8.172075"><ele>119.75</ele><time>2026-04-24T13:40:10.927Z</time></trkpt><trkpt lat="34.3218733" lon="8.1719533"><ele>118.0</ele><time>2026-04-24T13:40:11.928Z</time></trkpt><trkpt lat="34.3218017" lon="8.1718433"><ele>118.0</ele><time>2026-04-24T13:40:12.928Z</time></trkpt><trkpt lat="34.3217367" lon="8.1717317"><ele>118.0</ele><time>2026-04-24T13:40:13.927Z</time></trkpt><trkpt lat="34.3216767" lon="8.1716017"><ele>118.0</ele><time>2026-04-24T13:40:14.928Z</time></trkpt><trkpt lat="34.3216233" lon="8.17147"><ele>118.0</ele><time>2026-04-24T13:40:15.927Z</time></trkpt><trkpt lat="34.32157" lon="8.1713367"><ele>118.0</ele><time>2026-04-24T13:40:16.928Z</time></trkpt><trkpt lat="34.3215167" lon="8.1711983"><ele>118.0</ele><time>2026-04-24T13:40:17.928Z</time></trkpt><trkpt lat="34.3214583" lon="8.1710583"><ele>118.0</ele><time>2026-04-24T13:40:18.927Z</time></trkpt><trkpt lat="34.3213983" lon="8.1709167"><ele>118.0</ele><time>2026-04-24T13:40:19.927Z</time></trkpt><trkpt lat="34.32134" lon="8.170785"><ele>116.25</ele><time>2026-04-24T13:40:20.927Z</time></trkpt><trkpt lat="34.3212733" lon="8.1706483"><ele>114.5</ele><time>2026-04-24T13:40:21.928Z</time></trkpt><trkpt lat="34.3211933" lon="8.1705283"><ele>112.75</ele><time>2026-04-24T13:40:22.928Z</time></trkpt><trkpt lat="34.32111" lon="8.1704083"><ele>111.0</ele><time>2026-04-24T13:40:23.928Z</time></trkpt><trkpt lat="34.321025" lon="8.17029"><ele>111.0</ele><time>2026-04-24T13:40:24.927Z</time></trkpt><trkpt lat="34.3209367" lon="8.1701783"><ele>111.0</ele><time>2026-04-24T13:40:25.927Z</time></trkpt><trkpt lat="34.3208583" lon="8.1700583"><ele>111.0</ele><time>2026-04-24T13:40:26.927Z</time></trkpt><trkpt lat="34.3207883" lon="8.16993"><ele>111.0</ele><time>2026-04-24T13:40:27.928Z</time></trkpt><trkpt lat="34.3207233" lon="8.169795"><ele>110.25</ele><time>2026-04-24T13:40:28.928Z</time></trkpt><trkpt lat="34.3206583" lon="8.169655"><ele>109.5</ele><time>2026-04-24T13:40:29.928Z</time></trkpt><trkpt lat="34.32059" lon="8.169515"><ele>108.75</ele><time>2026-04-24T13:40:30.928Z</time></trkpt><trkpt lat="34.320525" lon="8.16938"><ele>108.0</ele><time>2026-04-24T13:40:31.928Z</time></trkpt><trkpt lat="34.320445" lon="8.1692433"><ele>107.5</ele><time>2026-04-24T13:40:32.928Z</time></trkpt><trkpt lat="34.3203633" lon="8.1691017"><ele>107.0</ele><time>2026-04-24T13:40:33.927Z</time></trkpt><trkpt lat="34.32028" lon="8.1689617"><ele>106.5</ele><time>2026-04-24T13:40:34.928Z</time></trkpt><trkpt lat="34.3201883" lon="8.1688217"><ele>106.0</ele><time>2026-04-24T13:40:35.927Z</time></trkpt><trkpt lat="34.3201083" lon="8.1686833"><ele>105.5</ele><time>2026-04-24T13:40:36.927Z</time></trkpt><trkpt lat="34.3200417" lon="8.1685567"><ele>105.0</ele><time>2026-04-24T13:40:37.928Z</time></trkpt><trkpt lat="34.3199833" lon="8.1684283"><ele>104.5</ele><time>2026-04-24T13:40:38.927Z</time></trkpt><trkpt lat="34.31992" lon="8.1683"><ele>104.0</ele><time>2026-04-24T13:40:39.927Z</time></trkpt><trkpt lat="34.31986" lon="8.1681583"><ele>103.25</ele><time>2026-04-24T13:40:40.928Z</time></trkpt><trkpt lat="34.3198033" lon="8.1680267"><ele>102.5</ele><time>2026-04-24T13:40:41.928Z</time></trkpt><trkpt lat="34.3197517" lon="8.1678983"><ele>101.75</ele><time>2026-04-24T13:40:42.928Z</time></trkpt><trkpt lat="34.319695" lon="8.1677783"><ele>101.0</ele><time>2026-04-24T13:40:43.928Z</time></trkpt><trkpt lat="34.3196433" lon="8.1676633"><ele>100.6</ele><time>2026-04-24T13:40:44.928Z</time></trkpt><trkpt lat="34.3195967" lon="8.1675483"><ele>100.19999999999999</ele><time>2026-04-24T13:40:45.928Z</time></trkpt><trkpt lat="34.3195533" lon="8.167425"><ele>99.80000000000001</ele><time>2026-04-24T13:40:46.928Z</time></trkpt><trkpt lat="34.3195083" lon="8.16731"><ele>99.4</ele><time>2026-04-24T13:40:47.928Z</time></trkpt><trkpt lat="34.3194767" lon="8.16719"><ele>99.0</ele><time>2026-04-24T13:40:48.928Z</time></trkpt><trkpt lat="34.3194517" lon="8.167065"><ele>98.66666666666667</ele><time>2026-04-24T13:40:49.928Z</time></trkpt><trkpt lat="34.3194383" lon="8.1669467"><ele>98.33333333333334</ele><time>2026-04-24T13:40:50.928Z</time></trkpt><trkpt lat="34.3194317" lon="8.1668383"><ele>98.0</ele><time>2026-04-24T13:40:51.928Z</time></trkpt><trkpt lat="34.319435" lon="8.16676"><ele>97.66666666666667</ele><time>2026-04-24T13:40:52.927Z</time></trkpt><trkpt lat="34.3194433" lon="8.1666733"><ele>97.33333333333334</ele><time>2026-04-24T13:40:54.928Z</time></trkpt><trkpt lat="34.319515" lon="8.166645"><ele>97.0</ele><time>2026-04-24T13:42:45.927Z</time></trkpt><trkpt lat="34.31958" lon="8.16663"><ele>97.0</ele><time>2026-04-24T13:42:47.927Z</time></trkpt><trkpt lat="34.3196983" lon="8.166545"><ele>97.0</ele><time>2026-04-24T13:42:49.927Z</time></trkpt><trkpt lat="34.3197817" lon="8.1664733"><ele>97.0</ele><time>2026-04-24T13:42:50.927Z</time></trkpt><trkpt lat="34.3198717" lon="8.1664133"><ele>97.0</ele><time>2026-04-24T13:42:51.926Z</time></trkpt><trkpt lat="34.3199583" lon="8.1663717"><ele>97.0</ele><time>2026-04-24T13:42:52.927Z</time></trkpt><trkpt lat="34.3200417" lon="8.1663367"><ele>96.66666666666667</ele><time>2026-04-24T13:42:53.927Z</time></trkpt><trkpt lat="34.3201117" lon="8.1663033"><ele>96.33333333333334</ele><time>2026-04-24T13:42:54.926Z</time></trkpt><trkpt lat="34.3201767" lon="8.1662583"><ele>96.0</ele><time>2026-04-24T13:42:55.926Z</time></trkpt><trkpt lat="34.3202467" lon="8.1662133"><ele>95.66666666666667</ele><time>2026-04-24T13:42:56.927Z</time></trkpt><trkpt lat="34.3203117" lon="8.1661533"><ele>95.33333333333334</ele><time>2026-04-24T13:42:57.927Z</time></trkpt><trkpt lat="34.320375" lon="8.16609"><ele>95.0</ele><time>2026-04-24T13:42:58.927Z</time></trkpt><trkpt lat="34.3204367" lon="8.1660267"><ele>95.0</ele><time>2026-04-24T13:42:59.927Z</time></trkpt><trkpt lat="34.3204917" lon="8.1659467"><ele>95.0</ele><time>2026-04-24T13:43:00.926Z</time></trkpt><trkpt lat="34.320545" lon="8.16586"><ele>95.0</ele><time>2026-04-24T13:43:01.926Z</time></trkpt><trkpt lat="34.3205883" lon="8.16577"><ele>95.0</ele><time>2026-04-24T13:43:02.927Z</time></trkpt><trkpt lat="34.32063" lon="8.165675"><ele>95.0</ele><time>2026-04-24T13:43:03.927Z</time></trkpt><trkpt lat="34.32066" lon="8.1655817"><ele>95.0</ele><time>2026-04-24T13:43:04.927Z</time></trkpt><trkpt lat="34.320685" lon="8.1654867"><ele>95.0</ele><time>2026-04-24T13:43:05.927Z</time></trkpt><trkpt lat="34.3207" lon="8.1653967"><ele>95.0</ele><time>2026-04-24T13:43:06.927Z</time></trkpt><trkpt lat="34.3207117" lon="8.1653083"><ele>95.0</ele><time>2026-04-24T13:43:07.927Z</time></trkpt><trkpt lat="34.3207217" lon="8.1652233"><ele>95.0</ele><time>2026-04-24T13:43:08.927Z</time></trkpt><trkpt lat="34.320725" lon="8.16514"><ele>95.0</ele><time>2026-04-24T13:43:09.927Z</time></trkpt><trkpt lat="34.3207283" lon="8.1650617"><ele>95.0</ele><time>2026-04-24T13:43:10.927Z</time></trkpt><trkpt lat="34.32073" lon="8.1649667"><ele>95.0</ele><time>2026-04-24T13:43:11.927Z</time></trkpt><trkpt lat="34.32073" lon="8.1648633"><ele>95.2</ele><time>2026-04-24T13:43:12.927Z</time></trkpt><trkpt lat="34.3207283" lon="8.1647533"><ele>95.4</ele><time>2026-04-24T13:43:13.927Z</time></trkpt><trkpt lat="34.320725" lon="8.1646317"><ele>95.6</ele><time>2026-04-24T13:43:14.926Z</time></trkpt><trkpt lat="34.320715" lon="8.1645083"><ele>95.8</ele><time>2026-04-24T13:43:15.927Z</time></trkpt><trkpt lat="34.3207083" lon="8.1643717"><ele>96.0</ele><time>2026-04-24T13:43:16.926Z</time></trkpt><trkpt lat="34.3207067" lon="8.1642233"><ele>96.0</ele><time>2026-04-24T13:43:17.926Z</time></trkpt><trkpt lat="34.320705" lon="8.1640717"><ele>96.0</ele><time>2026-04-24T13:43:18.927Z</time></trkpt><trkpt lat="34.3206967" lon="8.1639417"><ele>96.0</ele><time>2026-04-24T13:43:19.927Z</time></trkpt><trkpt lat="34.3206733" lon="8.1638233"><ele>96.0</ele><time>2026-04-24T13:43:20.927Z</time></trkpt><trkpt lat="34.320635" lon="8.1637133"><ele>96.0</ele><time>2026-04-24T13:43:21.927Z</time></trkpt><trkpt lat="34.3205833" lon="8.1636083"><ele>95.0</ele><time>2026-04-24T13:43:22.927Z</time></trkpt><trkpt lat="34.3205233" lon="8.1634983"><ele>94.0</ele><time>2026-04-24T13:43:23.927Z</time></trkpt><trkpt lat="34.3204533" lon="8.16339"><ele>93.0</ele><time>2026-04-24T13:43:24.927Z</time></trkpt><trkpt lat="34.32036" lon="8.1632883"><ele>92.0</ele><time>2026-04-24T13:43:25.927Z</time></trkpt><trkpt lat="34.3202717" lon="8.16319"><ele>91.75</ele><time>2026-04-24T13:43:26.926Z</time></trkpt><trkpt lat="34.3201867" lon="8.16309"><ele>91.5</ele><time>2026-04-24T13:43:27.926Z</time></trkpt><trkpt lat="34.3201033" lon="8.1629683"><ele>91.25</ele><time>2026-04-24T13:43:28.926Z</time></trkpt><trkpt lat="34.3200333" lon="8.1628333"><ele>91.0</ele><time>2026-04-24T13:43:29.927Z</time></trkpt><trkpt lat="34.3199667" lon="8.1626833"><ele>91.0</ele><time>2026-04-24T13:43:30.927Z</time></trkpt><trkpt lat="34.3199083" lon="8.1625317"><ele>91.0</ele><time>2026-04-24T13:43:31.927Z</time></trkpt><trkpt lat="34.3198533" lon="8.162375"><ele>91.0</ele><time>2026-04-24T13:43:32.927Z</time></trkpt><trkpt lat="34.3197917" lon="8.1622183"><ele>91.0</ele><time>2026-04-24T13:43:33.927Z</time></trkpt><trkpt lat="34.3197417" lon="8.16205"><ele>90.5</ele><time>2026-04-24T13:43:34.927Z</time></trkpt><trkpt lat="34.31968" lon="8.1618783"><ele>90.0</ele><time>2026-04-24T13:43:35.927Z</time></trkpt><trkpt lat="34.3196217" lon="8.1617167"><ele>89.5</ele><time>2026-04-24T13:43:36.927Z</time></trkpt><trkpt lat="34.3195667" lon="8.1615533"><ele>89.0</ele><time>2026-04-24T13:43:37.926Z</time></trkpt><trkpt lat="34.3195067" lon="8.1614"><ele>88.5</ele><time>2026-04-24T13:43:38.926Z</time></trkpt><trkpt lat="34.3194417" lon="8.1612317"><ele>88.0</ele><time>2026-04-24T13:43:39.927Z</time></trkpt><trkpt lat="34.3193833" lon="8.1610667"><ele>87.5</ele><time>2026-04-24T13:43:40.927Z</time></trkpt><trkpt lat="34.3193233" lon="8.160915"><ele>87.0</ele><time>2026-04-24T13:43:41.927Z</time></trkpt><trkpt lat="34.3192717" lon="8.1607533"><ele>86.25</ele><time>2026-04-24T13:43:42.926Z</time></trkpt><trkpt lat="34.3192133" lon="8.1606017"><ele>85.5</ele><time>2026-04-24T13:43:43.926Z</time></trkpt><trkpt lat="34.319165" lon="8.160445"><ele>84.75</ele><time>2026-04-24T13:43:44.927Z</time></trkpt><trkpt lat="34.3191217" lon="8.1602717"><ele>84.0</ele><time>2026-04-24T13:43:45.927Z</time></trkpt><trkpt lat="34.3190833" lon="8.1601017"><ele>84.0</ele><time>2026-04-24T13:43:46.927Z</time></trkpt><trkpt lat="34.3190483" lon="8.159915"><ele>84.0</ele><time>2026-04-24T13:43:47.926Z</time></trkpt><trkpt lat="34.31901" lon="8.15973"><ele>84.0</ele><time>2026-04-24T13:43:48.926Z</time></trkpt><trkpt lat="34.3189717" lon="8.1595467"><ele>84.0</ele><time>2026-04-24T13:43:49.927Z</time></trkpt><trkpt lat="34.3189367" lon="8.159365"><ele>84.0</ele><time>2026-04-24T13:43:50.927Z</time></trkpt><trkpt lat="34.318895" lon="8.1591783"><ele>84.0</ele><time>2026-04-24T13:43:51.927Z</time></trkpt><trkpt lat="34.3188467" lon="8.1589917"><ele>83.0</ele><time>2026-04-24T13:43:52.926Z</time></trkpt><trkpt lat="34.3187967" lon="8.158795"><ele>82.0</ele><time>2026-04-24T13:43:53.927Z</time></trkpt><trkpt lat="34.3187433" lon="8.1586067"><ele>81.0</ele><time>2026-04-24T13:43:54.927Z</time></trkpt><trkpt lat="34.31869" lon="8.1584183"><ele>81.0</ele><time>2026-04-24T13:43:55.926Z</time></trkpt><trkpt lat="34.3186383" lon="8.1582317"><ele>81.0</ele><time>2026-04-24T13:43:56.927Z</time></trkpt><trkpt lat="34.3185817" lon="8.158045"><ele>81.0</ele><time>2026-04-24T13:43:57.927Z</time></trkpt><trkpt lat="34.3185183" lon="8.1578533"><ele>81.33333333333333</ele><time>2026-04-24T13:43:58.927Z</time></trkpt><trkpt lat="34.3184567" lon="8.1576667"><ele>81.66666666666666</ele><time>2026-04-24T13:43:59.927Z</time></trkpt><trkpt lat="34.3183917" lon="8.157485"><ele>82.0</ele><time>2026-04-24T13:44:00.926Z</time></trkpt><trkpt lat="34.3183183" lon="8.157315"><ele>81.25</ele><time>2026-04-24T13:44:01.926Z</time></trkpt><trkpt lat="34.3182467" lon="8.1571533"><ele>80.5</ele><time>2026-04-24T13:44:02.927Z</time></trkpt><trkpt lat="34.3181917" lon="8.1569967"><ele>79.75</ele><time>2026-04-24T13:44:03.926Z</time></trkpt><trkpt lat="34.31814" lon="8.1568283"><ele>79.0</ele><time>2026-04-24T13:44:04.927Z</time></trkpt><trkpt lat="34.318105" lon="8.1566567"><ele>79.0</ele><time>2026-04-24T13:44:05.927Z</time></trkpt><trkpt lat="34.3180817" lon="8.15648"><ele>79.0</ele><time>2026-04-24T13:44:06.927Z</time></trkpt><trkpt lat="34.3180567" lon="8.1563033"><ele>79.0</ele><time>2026-04-24T13:44:07.927Z</time></trkpt><trkpt lat="34.3180133" lon="8.1561333"><ele>79.0</ele><time>2026-04-24T13:44:08.926Z</time></trkpt><trkpt lat="34.3179683" lon="8.1559817"><ele>79.0</ele><time>2026-04-24T13:44:09.926Z</time></trkpt><trkpt lat="34.3178933" lon="8.1558483"><ele>79.0</ele><time>2026-04-24T13:44:10.926Z</time></trkpt><trkpt lat="34.317815" lon="8.1557317"><ele>79.0</ele><time>2026-04-24T13:44:11.927Z</time></trkpt><trkpt lat="34.3177167" lon="8.155645"><ele>79.0</ele><time>2026-04-24T13:44:12.926Z</time></trkpt><trkpt lat="34.317615" lon="8.1555683"><ele>79.5</ele><time>2026-04-24T13:44:13.927Z</time></trkpt><trkpt lat="34.3175133" lon="8.1554867"><ele>80.0</ele><time>2026-04-24T13:44:14.926Z</time></trkpt><trkpt lat="34.317405" lon="8.1553933"><ele>80.5</ele><time>2026-04-24T13:44:15.927Z</time></trkpt><trkpt lat="34.31729" lon="8.1552983"><ele>81.0</ele><time>2026-04-24T13:44:16.927Z</time></trkpt><trkpt lat="34.3171733" lon="8.1551933"><ele>81.0</ele><time>2026-04-24T13:44:17.926Z</time></trkpt><trkpt lat="34.3170533" lon="8.1550767"><ele>81.0</ele><time>2026-04-24T13:44:18.927Z</time></trkpt><trkpt lat="34.3169217" lon="8.15497"><ele>81.0</ele><time>2026-04-24T13:44:19.927Z</time></trkpt><trkpt lat="34.3167933" lon="8.1548783"><ele>81.0</ele><time>2026-04-24T13:44:20.927Z</time></trkpt><trkpt lat="34.3166517" lon="8.1547833"><ele>81.0</ele><time>2026-04-24T13:44:21.927Z</time></trkpt><trkpt lat="34.31651" lon="8.1547"><ele>81.0</ele><time>2026-04-24T13:44:22.927Z</time></trkpt><trkpt lat="34.3163683" lon="8.154615"><ele>80.0</ele><time>2026-04-24T13:44:23.926Z</time></trkpt><trkpt lat="34.3162233" lon="8.154535"><ele>79.0</ele><time>2026-04-24T13:44:24.927Z</time></trkpt><trkpt lat="34.316075" lon="8.1544467"><ele>78.0</ele><time>2026-04-24T13:44:25.926Z</time></trkpt><trkpt lat="34.3159317" lon="8.1543583"><ele>78.0</ele><time>2026-04-24T13:44:26.926Z</time></trkpt><trkpt lat="34.3157883" lon="8.1542633"><ele>78.0</ele><time>2026-04-24T13:44:27.927Z</time></trkpt><trkpt lat="34.3156517" lon="8.154175"><ele>78.0</ele><time>2026-04-24T13:44:28.927Z</time></trkpt><trkpt lat="34.3155067" lon="8.1540817"><ele>78.0</ele><time>2026-04-24T13:44:29.926Z</time></trkpt><trkpt lat="34.3153567" lon="8.15399"><ele>78.0</ele><time>2026-04-24T13:44:30.927Z</time></trkpt><trkpt lat="34.315205" lon="8.1538967"><ele>78.0</ele><time>2026-04-24T13:44:31.926Z</time></trkpt><trkpt lat="34.315055" lon="8.1538033"><ele>78.0</ele><time>2026-04-24T13:44:32.927Z</time></trkpt><trkpt lat="34.3149083" lon="8.1537033"><ele>78.0</ele><time>2026-04-24T13:44:33.927Z</time></trkpt><trkpt lat="34.3147617" lon="8.1536117"><ele>78.0</ele><time>2026-04-24T13:44:34.927Z</time></trkpt><trkpt lat="34.3146117" lon="8.1535283"><ele>77.33333333333333</ele><time>2026-04-24T13:44:35.927Z</time></trkpt><trkpt lat="34.3144583" lon="8.153445"><ele>76.66666666666666</ele><time>2026-04-24T13:44:36.927Z</time></trkpt><trkpt lat="34.314305" lon="8.1533683"><ele>76.0</ele><time>2026-04-24T13:44:37.927Z</time></trkpt><trkpt lat="34.3141517" lon="8.1532933"><ele>76.0</ele><time>2026-04-24T13:44:38.927Z</time></trkpt><trkpt lat="34.313985" lon="8.1532333"><ele>76.0</ele><time>2026-04-24T13:44:39.927Z</time></trkpt><trkpt lat="34.3138183" lon="8.1531667"><ele>76.0</ele><time>2026-04-24T13:44:40.926Z</time></trkpt><trkpt lat="34.3136483" lon="8.153105"><ele>75.66666666666666</ele><time>2026-04-24T13:44:41.926Z</time></trkpt><trkpt lat="34.3134883" lon="8.15303"><ele>75.33333333333333</ele><time>2026-04-24T13:44:42.927Z</time></trkpt><trkpt lat="34.3133317" lon="8.1529367"><ele>75.0</ele><time>2026-04-24T13:44:43.926Z</time></trkpt><trkpt lat="34.313175" lon="8.1528383"><ele>75.0</ele><time>2026-04-24T13:44:44.926Z</time></trkpt><trkpt lat="34.3130233" lon="8.1527383"><ele>75.0</ele><time>2026-04-24T13:44:45.926Z</time></trkpt><trkpt lat="34.3128633" lon="8.1526467"><ele>75.0</ele><time>2026-04-24T13:44:46.927Z</time></trkpt><trkpt lat="34.3127133" lon="8.1525467"><ele>75.0</ele><time>2026-04-24T13:44:47.927Z</time></trkpt><trkpt lat="34.3125683" lon="8.152445"><ele>75.0</ele><time>2026-04-24T13:44:48.927Z</time></trkpt><trkpt lat="34.3124117" lon="8.1523417"><ele>75.0</ele><time>2026-04-24T13:44:49.927Z</time></trkpt><trkpt lat="34.3122533" lon="8.1522383"><ele>74.33333333333333</ele><time>2026-04-24T13:44:50.927Z</time></trkpt><trkpt lat="34.312095" lon="8.1521417"><ele>73.66666666666666</ele><time>2026-04-24T13:44:51.927Z</time></trkpt><trkpt lat="34.3119367" lon="8.1520367"><ele>73.0</ele><time>2026-04-24T13:44:52.927Z</time></trkpt><trkpt lat="34.31177" lon="8.1519483"><ele>73.0</ele><time>2026-04-24T13:44:53.927Z</time></trkpt><trkpt lat="34.311615" lon="8.1518633"><ele>73.0</ele><time>2026-04-24T13:44:54.927Z</time></trkpt><trkpt lat="34.31147" lon="8.1517817"><ele>73.0</ele><time>2026-04-24T13:44:55.927Z</time></trkpt><trkpt lat="34.31134" lon="8.1516833"><ele>72.75</ele><time>2026-04-24T13:44:56.927Z</time></trkpt><trkpt lat="34.3112083" lon="8.1515967"><ele>72.5</ele><time>2026-04-24T13:44:57.927Z</time></trkpt><trkpt lat="34.3110917" lon="8.1515"><ele>72.25</ele><time>2026-04-24T13:44:58.927Z</time></trkpt><trkpt lat="34.3109733" lon="8.151375"><ele>72.0</ele><time>2026-04-24T13:44:59.927Z</time></trkpt><trkpt lat="34.3108533" lon="8.1512467"><ele>72.0</ele><time>2026-04-24T13:45:00.926Z</time></trkpt><trkpt lat="34.31073" lon="8.1511333"><ele>72.0</ele><time>2026-04-24T13:45:01.927Z</time></trkpt><trkpt lat="34.3105967" lon="8.151025"><ele>72.0</ele><time>2026-04-24T13:45:02.927Z</time></trkpt><trkpt lat="34.3104683" lon="8.150915"><ele>72.0</ele><time>2026-04-24T13:45:03.927Z</time></trkpt><trkpt lat="34.310335" lon="8.150795"><ele>72.0</ele><time>2026-04-24T13:45:04.927Z</time></trkpt><trkpt lat="34.3101883" lon="8.1506817"><ele>72.0</ele><time>2026-04-24T13:45:05.927Z</time></trkpt><trkpt lat="34.3100483" lon="8.1505767"><ele>71.75</ele><time>2026-04-24T13:45:06.927Z</time></trkpt><trkpt lat="34.3099133" lon="8.1504667"><ele>71.5</ele><time>2026-04-24T13:45:07.927Z</time></trkpt><trkpt lat="34.3097933" lon="8.1503717"><ele>71.25</ele><time>2026-04-24T13:45:08.927Z</time></trkpt><trkpt lat="34.3096883" lon="8.1502883"><ele>71.0</ele><time>2026-04-24T13:45:09.927Z</time></trkpt><trkpt lat="34.3096133" lon="8.1502067"><ele>71.0</ele><time>2026-04-24T13:45:10.927Z</time></trkpt><trkpt lat="34.309555" lon="8.1501133"><ele>71.0</ele><time>2026-04-24T13:45:11.927Z</time></trkpt><trkpt lat="34.3095183" lon="8.1500117"><ele>71.0</ele><time>2026-04-24T13:45:12.927Z</time></trkpt><trkpt lat="34.3094867" lon="8.1498933"><ele>71.0</ele><time>2026-04-24T13:45:13.927Z</time></trkpt><trkpt lat="34.3094533" lon="8.1497567"><ele>71.0</ele><time>2026-04-24T13:45:14.926Z</time></trkpt><trkpt lat="34.3094183" lon="8.1496133"><ele>70.75</ele><time>2026-04-24T13:45:15.927Z</time></trkpt><trkpt lat="34.3093883" lon="8.149455"><ele>70.5</ele><time>2026-04-24T13:45:16.926Z</time></trkpt><trkpt lat="34.3093617" lon="8.14929"><ele>70.25</ele><time>2026-04-24T13:45:17.926Z</time></trkpt><trkpt lat="34.3093483" lon="8.1491133"><ele>70.0</ele><time>2026-04-24T13:45:18.927Z</time></trkpt><trkpt lat="34.3093383" lon="8.14893"><ele>69.66666666666666</ele><time>2026-04-24T13:45:19.927Z</time></trkpt><trkpt lat="34.3093317" lon="8.14874"><ele>69.33333333333333</ele><time>2026-04-24T13:45:20.927Z</time></trkpt><trkpt lat="34.3093217" lon="8.1485467"><ele>69.0</ele><time>2026-04-24T13:45:21.926Z</time></trkpt><trkpt lat="34.30931" lon="8.148355"><ele>68.66666666666667</ele><time>2026-04-24T13:45:22.927Z</time></trkpt><trkpt lat="34.3092867" lon="8.1481667"><ele>68.33333333333334</ele><time>2026-04-24T13:45:23.927Z</time></trkpt><trkpt lat="34.3092667" lon="8.147965"><ele>68.0</ele><time>2026-04-24T13:45:24.927Z</time></trkpt><trkpt lat="34.3092517" lon="8.1477517"><ele>68.0</ele><time>2026-04-24T13:45:25.927Z</time></trkpt><trkpt lat="34.3092283" lon="8.14754"><ele>68.0</ele><time>2026-04-24T13:45:26.926Z</time></trkpt><trkpt lat="34.30921" lon="8.147325"><ele>68.0</ele><time>2026-04-24T13:45:27.927Z</time></trkpt><trkpt lat="34.3091867" lon="8.14711"><ele>68.0</ele><time>2026-04-24T13:45:28.927Z</time></trkpt><trkpt lat="34.3091633" lon="8.1468933"><ele>68.0</ele><time>2026-04-24T13:45:29.927Z</time></trkpt><trkpt lat="34.3091333" lon="8.1466767"><ele>68.0</ele><time>2026-04-24T13:45:30.927Z</time></trkpt><trkpt lat="34.309115" lon="8.1464483"><ele>68.0</ele><time>2026-04-24T13:45:31.927Z</time></trkpt><trkpt lat="34.3090917" lon="8.146225"><ele>68.0</ele><time>2026-04-24T13:45:32.927Z</time></trkpt><trkpt lat="34.309075" lon="8.1459983"><ele>68.0</ele><time>2026-04-24T13:45:33.926Z</time></trkpt><trkpt lat="34.3090617" lon="8.14577"><ele>67.66666666666667</ele><time>2026-04-24T13:45:34.926Z</time></trkpt><trkpt lat="34.30905" lon="8.1455367"><ele>67.33333333333333</ele><time>2026-04-24T13:45:35.926Z</time></trkpt><trkpt lat="34.3090433" lon="8.145305"><ele>67.0</ele><time>2026-04-24T13:45:36.926Z</time></trkpt><trkpt lat="34.3090467" lon="8.1450667"><ele>67.33333333333333</ele><time>2026-04-24T13:45:37.925Z</time></trkpt><trkpt lat="34.3090517" lon="8.1448383"><ele>67.66666666666667</ele><time>2026-04-24T13:45:38.926Z</time></trkpt><trkpt lat="34.3090733" lon="8.1446033"><ele>68.0</ele><time>2026-04-24T13:45:39.925Z</time></trkpt><trkpt lat="34.3091" lon="8.1443733"><ele>68.0</ele><time>2026-04-24T13:45:40.926Z</time></trkpt><trkpt lat="34.3091183" lon="8.1441367"><ele>68.0</ele><time>2026-04-24T13:45:41.925Z</time></trkpt><trkpt lat="34.3091433" lon="8.1439017"><ele>68.0</ele><time>2026-04-24T13:45:42.925Z</time></trkpt><trkpt lat="34.3091633" lon="8.143665"><ele>68.33333333333334</ele><time>2026-04-24T13:45:43.925Z</time></trkpt><trkpt lat="34.3091783" lon="8.1434317"><ele>68.66666666666667</ele><time>2026-04-24T13:45:44.926Z</time></trkpt><trkpt lat="34.3091883" lon="8.1431933"><ele>69.0</ele><time>2026-04-24T13:45:45.926Z</time></trkpt><trkpt lat="34.309195" lon="8.1429483"><ele>68.33333333333333</ele><time>2026-04-24T13:45:46.926Z</time></trkpt><trkpt lat="34.3091967" lon="8.1427017"><ele>67.66666666666666</ele><time>2026-04-24T13:45:47.926Z</time></trkpt><trkpt lat="34.3091983" lon="8.1424567"><ele>67.0</ele><time>2026-04-24T13:45:48.926Z</time></trkpt><trkpt lat="34.3091983" lon="8.1422083"><ele>66.66666666666666</ele><time>2026-04-24T13:45:49.926Z</time></trkpt><trkpt lat="34.3091983" lon="8.1419583"><ele>66.33333333333333</ele><time>2026-04-24T13:45:50.926Z</time></trkpt><trkpt lat="34.3091983" lon="8.1417167"><ele>66.0</ele><time>2026-04-24T13:45:51.926Z</time></trkpt><trkpt lat="34.30919" lon="8.1414667"><ele>65.33333333333333</ele><time>2026-04-24T13:45:52.925Z</time></trkpt><trkpt lat="34.309185" lon="8.1412117"><ele>64.66666666666666</ele><time>2026-04-24T13:45:53.926Z</time></trkpt><trkpt lat="34.3091817" lon="8.1409533"><ele>64.0</ele><time>2026-04-24T13:45:54.926Z</time></trkpt><trkpt lat="34.309175" lon="8.1406983"><ele>64.0</ele><time>2026-04-24T13:45:55.926Z</time></trkpt><trkpt lat="34.3091717" lon="8.14044"><ele>64.0</ele><time>2026-04-24T13:45:56.926Z</time></trkpt><trkpt lat="34.309175" lon="8.140185"><ele>64.0</ele><time>2026-04-24T13:45:57.925Z</time></trkpt><trkpt lat="34.3091717" lon="8.1399233"><ele>63.33333333333333</ele><time>2026-04-24T13:45:58.926Z</time></trkpt><trkpt lat="34.30917" lon="8.1396617"><ele>62.66666666666667</ele><time>2026-04-24T13:45:59.926Z</time></trkpt><trkpt lat="34.3091667" lon="8.1394017"><ele>62.0</ele><time>2026-04-24T13:46:00.926Z</time></trkpt><trkpt lat="34.309165" lon="8.139135"><ele>61.66666666666667</ele><time>2026-04-24T13:46:01.925Z</time></trkpt><trkpt lat="34.3091617" lon="8.13887"><ele>61.33333333333333</ele><time>2026-04-24T13:46:02.926Z</time></trkpt><trkpt lat="34.3091617" lon="8.1386"><ele>61.0</ele><time>2026-04-24T13:46:03.926Z</time></trkpt><trkpt lat="34.3091617" lon="8.1383267"><ele>61.0</ele><time>2026-04-24T13:46:04.926Z</time></trkpt><trkpt lat="34.3091567" lon="8.13805"><ele>61.0</ele><time>2026-04-24T13:46:05.925Z</time></trkpt><trkpt lat="34.309155" lon="8.137775"><ele>61.0</ele><time>2026-04-24T13:46:06.926Z</time></trkpt><trkpt lat="34.3091533" lon="8.1375067"><ele>61.0</ele><time>2026-04-24T13:46:07.926Z</time></trkpt><trkpt lat="34.309145" lon="8.137235"><ele>61.0</ele><time>2026-04-24T13:46:08.925Z</time></trkpt><trkpt lat="34.3091417" lon="8.136955"><ele>61.0</ele><time>2026-04-24T13:46:09.926Z</time></trkpt><trkpt lat="34.3091433" lon="8.13668"><ele>61.0</ele><time>2026-04-24T13:46:10.925Z</time></trkpt><trkpt lat="34.3091467" lon="8.1364083"><ele>62.0</ele><time>2026-04-24T13:46:11.926Z</time></trkpt><trkpt lat="34.3091433" lon="8.136135"><ele>63.0</ele><time>2026-04-24T13:46:12.926Z</time></trkpt><trkpt lat="34.3091417" lon="8.1358633"><ele>62.66666666666667</ele><time>2026-04-24T13:46:13.926Z</time></trkpt><trkpt lat="34.30914" lon="8.13559"><ele>62.333333333333336</ele><time>2026-04-24T13:46:14.925Z</time></trkpt><trkpt lat="34.30914" lon="8.1353233"><ele>62.0</ele><time>2026-04-24T13:46:15.926Z</time></trkpt><trkpt lat="34.3091367" lon="8.1350583"><ele>61.333333333333336</ele><time>2026-04-24T13:46:16.925Z</time></trkpt><trkpt lat="34.3091317" lon="8.1347983"><ele>60.66666666666667</ele><time>2026-04-24T13:46:17.926Z</time></trkpt><trkpt lat="34.309125" lon="8.134535"><ele>60.0</ele><time>2026-04-24T13:46:18.926Z</time></trkpt><trkpt lat="34.309115" lon="8.1342733"><ele>60.0</ele><time>2026-04-24T13:46:19.926Z</time></trkpt><trkpt lat="34.309105" lon="8.1340267"><ele>60.0</ele><time>2026-04-24T13:46:20.926Z</time></trkpt><trkpt lat="34.3090967" lon="8.1337933"><ele>60.0</ele><time>2026-04-24T13:46:21.926Z</time></trkpt><trkpt lat="34.30909" lon="8.133575"><ele>60.0</ele><time>2026-04-24T13:46:22.926Z</time></trkpt><trkpt lat="34.3090883" lon="8.1333833"><ele>60.0</ele><time>2026-04-24T13:46:23.926Z</time></trkpt><trkpt lat="34.3090917" lon="8.133215"><ele>60.0</ele><time>2026-04-24T13:46:24.926Z</time></trkpt><trkpt lat="34.30908" lon="8.13307"><ele>60.0</ele><time>2026-04-24T13:46:25.926Z</time></trkpt><trkpt lat="34.3090783" lon="8.13295"><ele>60.0</ele><time>2026-04-24T13:46:26.925Z</time></trkpt><trkpt lat="34.3090733" lon="8.1328583"><ele>60.0</ele><time>2026-04-24T13:46:27.926Z</time></trkpt><trkpt lat="34.3090717" lon="8.1327633"><ele>60.0</ele><time>2026-04-24T13:46:29.926Z</time></trkpt><trkpt lat="34.3091117" lon="8.1327017"><ele>60.0</ele><time>2026-04-24T13:46:31.925Z</time></trkpt><trkpt lat="34.3092117" lon="8.132625"><ele>60.0</ele><time>2026-04-24T13:46:33.926Z</time></trkpt><trkpt lat="34.3092867" lon="8.132575"><ele>60.0</ele><time>2026-04-24T13:46:34.926Z</time></trkpt><trkpt lat="34.30936" lon="8.1325117"><ele>60.0</ele><time>2026-04-24T13:46:35.926Z</time></trkpt><trkpt lat="34.30941" lon="8.1324483"><ele>60.0</ele><time>2026-04-24T13:46:36.926Z</time></trkpt><trkpt lat="34.30945" lon="8.1323733"><ele>60.0</ele><time>2026-04-24T13:46:37.926Z</time></trkpt><trkpt lat="34.3094783" lon="8.13225"><ele>60.0</ele><time>2026-04-24T13:46:39.926Z</time></trkpt><trkpt lat="34.3094783" lon="8.132155"><ele>60.0</ele><time>2026-04-24T13:46:41.926Z</time></trkpt><trkpt lat="34.3094267" lon="8.1322717"><ele>60.0</ele><time>2026-04-24T13:48:29.926Z</time></trkpt><trkpt lat="34.3094117" lon="8.13235"><ele>60.0</ele><time>2026-04-24T13:48:30.925Z</time></trkpt><trkpt lat="34.3093967" lon="8.13243"><ele>60.0</ele><time>2026-04-24T13:48:31.926Z</time></trkpt><trkpt lat="34.3093683" lon="8.1325167"><ele>60.0</ele><time>2026-04-24T13:48:32.925Z</time></trkpt><trkpt lat="34.3093167" lon="8.1325883"><ele>60.0</ele><time>2026-04-24T13:48:33.925Z</time></trkpt><trkpt lat="34.3092483" lon="8.13265"><ele>60.0</ele><time>2026-04-24T13:48:34.926Z</time></trkpt><trkpt lat="34.3091717" lon="8.1326967"><ele>60.0</ele><time>2026-04-24T13:48:35.926Z</time></trkpt><trkpt lat="34.309085" lon="8.13274"><ele>60.0</ele><time>2026-04-24T13:48:36.926Z</time></trkpt><trkpt lat="34.3089917" lon="8.13278"><ele>60.0</ele><time>2026-04-24T13:48:37.926Z</time></trkpt><trkpt lat="34.3088933" lon="8.132815"><ele>60.0</ele><time>2026-04-24T13:48:38.926Z</time></trkpt><trkpt lat="34.3087917" lon="8.1328483"><ele>60.0</ele><time>2026-04-24T13:48:39.926Z</time></trkpt><trkpt lat="34.308695" lon="8.1328817"><ele>60.0</ele><time>2026-04-24T13:48:40.926Z</time></trkpt><trkpt lat="34.3085083" lon="8.1329433"><ele>60.0</ele><time>2026-04-24T13:48:42.926Z</time></trkpt><trkpt lat="34.3084117" lon="8.1329833"><ele>60.0</ele><time>2026-04-24T13:48:43.926Z</time></trkpt><trkpt lat="34.308315" lon="8.1330183"><ele>60.0</ele><time>2026-04-24T13:48:44.925Z</time></trkpt><trkpt lat="34.3082083" lon="8.1330567"><ele>60.0</ele><time>2026-04-24T13:48:45.925Z</time></trkpt><trkpt lat="34.3081117" lon="8.1330917"><ele>60.0</ele><time>2026-04-24T13:48:46.926Z</time></trkpt><trkpt lat="34.308015" lon="8.1331217"><ele>59.8</ele><time>2026-04-24T13:48:47.926Z</time></trkpt><trkpt lat="34.30792" lon="8.13315"><ele>59.6</ele><time>2026-04-24T13:48:48.926Z</time></trkpt><trkpt lat="34.3078233" lon="8.1331783"><ele>59.400000000000006</ele><time>2026-04-24T13:48:49.926Z</time></trkpt><trkpt lat="34.3077217" lon="8.1332083"><ele>59.2</ele><time>2026-04-24T13:48:50.926Z</time></trkpt><trkpt lat="34.30762" lon="8.1332417"><ele>59.0</ele><time>2026-04-24T13:48:51.926Z</time></trkpt><trkpt lat="34.30752" lon="8.1332683"><ele>59.333333333333336</ele><time>2026-04-24T13:48:52.925Z</time></trkpt><trkpt lat="34.3073033" lon="8.133335"><ele>59.66666666666667</ele><time>2026-04-24T13:48:54.925Z</time></trkpt><trkpt lat="34.3071917" lon="8.133375"><ele>60.0</ele><time>2026-04-24T13:48:55.926Z</time></trkpt><trkpt lat="34.30708" lon="8.13341"><ele>60.0</ele><time>2026-04-24T13:48:56.926Z</time></trkpt><trkpt lat="34.3069683" lon="8.133445"><ele>60.0</ele><time>2026-04-24T13:48:57.925Z</time></trkpt><trkpt lat="34.3068517" lon="8.1334833"><ele>60.0</ele><time>2026-04-24T13:48:58.926Z</time></trkpt><trkpt lat="34.306735" lon="8.1335133"><ele>60.0</ele><time>2026-04-24T13:48:59.926Z</time></trkpt><trkpt lat="34.306615" lon="8.1335383"><ele>60.0</ele><time>2026-04-24T13:49:00.925Z</time></trkpt><trkpt lat="34.3064917" lon="8.1335617"><ele>60.0</ele><time>2026-04-24T13:49:01.926Z</time></trkpt><trkpt lat="34.3063717" lon="8.13359"><ele>60.0</ele><time>2026-04-24T13:49:02.926Z</time></trkpt><trkpt lat="34.3062517" lon="8.133615"><ele>60.0</ele><time>2026-04-24T13:49:03.926Z</time></trkpt><trkpt lat="34.30613" lon="8.1336467"><ele>59.75</ele><time>2026-04-24T13:49:04.926Z</time></trkpt><trkpt lat="34.3060067" lon="8.1336817"><ele>59.5</ele><time>2026-04-24T13:49:05.926Z</time></trkpt><trkpt lat="34.305875" lon="8.1337133"><ele>59.25</ele><time>2026-04-24T13:49:06.925Z</time></trkpt><trkpt lat="34.3057433" lon="8.1337417"><ele>59.0</ele><time>2026-04-24T13:49:07.926Z</time></trkpt><trkpt lat="34.3056133" lon="8.13378"><ele>59.25</ele><time>2026-04-24T13:49:08.925Z</time></trkpt><trkpt lat="34.3054783" lon="8.1338133"><ele>59.5</ele><time>2026-04-24T13:49:09.925Z</time></trkpt><trkpt lat="34.30535" lon="8.1338517"><ele>59.75</ele><time>2026-04-24T13:49:10.926Z</time></trkpt><trkpt lat="34.3052267" lon="8.1338967"><ele>60.0</ele><time>2026-04-24T13:49:11.926Z</time></trkpt><trkpt lat="34.3051033" lon="8.1339483"><ele>60.0</ele><time>2026-04-24T13:49:12.925Z</time></trkpt><trkpt lat="34.3049783" lon="8.1340067"><ele>60.0</ele><time>2026-04-24T13:49:13.925Z</time></trkpt><trkpt lat="34.3048517" lon="8.1340633"><ele>60.0</ele><time>2026-04-24T13:49:14.925Z</time></trkpt><trkpt lat="34.304715" lon="8.13411"><ele>60.0</ele><time>2026-04-24T13:49:15.926Z</time></trkpt><trkpt lat="34.304575" lon="8.1341533"><ele>60.25</ele><time>2026-04-24T13:49:16.926Z</time></trkpt><trkpt lat="34.304435" lon="8.1342"><ele>60.5</ele><time>2026-04-24T13:49:17.926Z</time></trkpt><trkpt lat="34.3042933" lon="8.13425"><ele>60.75</ele><time>2026-04-24T13:49:18.925Z</time></trkpt><trkpt lat="34.3041483" lon="8.1343017"><ele>61.0</ele><time>2026-04-24T13:49:19.925Z</time></trkpt><trkpt lat="34.304" lon="8.1343417"><ele>61.0</ele><time>2026-04-24T13:49:20.925Z</time></trkpt><trkpt lat="34.3038517" lon="8.1343783"><ele>61.0</ele><time>2026-04-24T13:49:21.924Z</time></trkpt><trkpt lat="34.3037017" lon="8.1344217"><ele>61.0</ele><time>2026-04-24T13:49:22.925Z</time></trkpt><trkpt lat="34.3035517" lon="8.1344667"><ele>61.0</ele><time>2026-04-24T13:49:23.925Z</time></trkpt><trkpt lat="34.3033983" lon="8.1345117"><ele>61.0</ele><time>2026-04-24T13:49:24.925Z</time></trkpt><trkpt lat="34.3032517" lon="8.1345633"><ele>61.0</ele><time>2026-04-24T13:49:25.925Z</time></trkpt><trkpt lat="34.3031083" lon="8.134615"><ele>60.75</ele><time>2026-04-24T13:49:26.924Z</time></trkpt><trkpt lat="34.3029717" lon="8.134665"><ele>60.5</ele><time>2026-04-24T13:49:27.925Z</time></trkpt><trkpt lat="34.30284" lon="8.13471"><ele>60.25</ele><time>2026-04-24T13:49:28.924Z</time></trkpt><trkpt lat="34.302715" lon="8.1347567"><ele>60.0</ele><time>2026-04-24T13:49:29.925Z</time></trkpt><trkpt lat="34.30258" lon="8.1347983"><ele>60.0</ele><time>2026-04-24T13:49:30.925Z</time></trkpt><trkpt lat="34.3024533" lon="8.1348467"><ele>60.0</ele><time>2026-04-24T13:49:31.925Z</time></trkpt><trkpt lat="34.302325" lon="8.134885"><ele>60.0</ele><time>2026-04-24T13:49:32.924Z</time></trkpt><trkpt lat="34.3021967" lon="8.1349367"><ele>60.0</ele><time>2026-04-24T13:49:33.924Z</time></trkpt><trkpt lat="34.3020683" lon="8.134985"><ele>60.0</ele><time>2026-04-24T13:49:34.925Z</time></trkpt><trkpt lat="34.30195" lon="8.135035"><ele>60.0</ele><time>2026-04-24T13:49:35.925Z</time></trkpt><trkpt lat="34.3018367" lon="8.1350767"><ele>60.0</ele><time>2026-04-24T13:49:36.925Z</time></trkpt><trkpt lat="34.30172" lon="8.135125"><ele>60.0</ele><time>2026-04-24T13:49:37.924Z</time></trkpt><trkpt lat="34.3016083" lon="8.13517"><ele>60.0</ele><time>2026-04-24T13:49:38.925Z</time></trkpt><trkpt lat="34.3014933" lon="8.1352183"><ele>60.0</ele><time>2026-04-24T13:49:39.925Z</time></trkpt><trkpt lat="34.3013733" lon="8.1352633"><ele>60.0</ele><time>2026-04-24T13:49:40.925Z</time></trkpt><trkpt lat="34.3012583" lon="8.1353167"><ele>60.0</ele><time>2026-04-24T13:49:41.925Z</time></trkpt><trkpt lat="34.3011433" lon="8.1353767"><ele>60.0</ele><time>2026-04-24T13:49:42.924Z</time></trkpt><trkpt lat="34.301035" lon="8.1354533"><ele>60.0</ele><time>2026-04-24T13:49:43.924Z</time></trkpt><trkpt lat="34.3009217" lon="8.1355367"><ele>60.0</ele><time>2026-04-24T13:49:44.925Z</time></trkpt><trkpt lat="34.3008067" lon="8.13562"><ele>60.0</ele><time>2026-04-24T13:49:45.925Z</time></trkpt><trkpt lat="34.3006867" lon="8.1357"><ele>60.0</ele><time>2026-04-24T13:49:46.925Z</time></trkpt><trkpt lat="34.300565" lon="8.1357767"><ele>60.0</ele><time>2026-04-24T13:49:47.925Z</time></trkpt><trkpt lat="34.30044" lon="8.1358483"><ele>60.0</ele><time>2026-04-24T13:49:48.925Z</time></trkpt><trkpt lat="34.300315" lon="8.1359233"><ele>60.0</ele><time>2026-04-24T13:49:49.925Z</time></trkpt><trkpt lat="34.300185" lon="8.13598"><ele>60.0</ele><time>2026-04-24T13:49:50.925Z</time></trkpt><trkpt lat="34.300045" lon="8.13604"><ele>60.0</ele><time>2026-04-24T13:49:51.925Z</time></trkpt><trkpt lat="34.299905" lon="8.136105"><ele>60.0</ele><time>2026-04-24T13:49:52.925Z</time></trkpt><trkpt lat="34.29976" lon="8.1361633"><ele>60.0</ele><time>2026-04-24T13:49:53.924Z</time></trkpt><trkpt lat="34.29962" lon="8.13622"><ele>60.0</ele><time>2026-04-24T13:49:54.925Z</time></trkpt><trkpt lat="34.2994683" lon="8.1362767"><ele>60.0</ele><time>2026-04-24T13:49:55.925Z</time></trkpt><trkpt lat="34.2993167" lon="8.1363367"><ele>60.0</ele><time>2026-04-24T13:49:56.924Z</time></trkpt><trkpt lat="34.2991617" lon="8.1363983"><ele>60.0</ele><time>2026-04-24T13:49:57.924Z</time></trkpt><trkpt lat="34.29901" lon="8.136455"><ele>60.0</ele><time>2026-04-24T13:49:58.925Z</time></trkpt><trkpt lat="34.2988583" lon="8.13652"><ele>60.33333333333333</ele><time>2026-04-24T13:49:59.925Z</time></trkpt><trkpt lat="34.2987083" lon="8.1365833"><ele>60.666666666666664</ele><time>2026-04-24T13:50:00.925Z</time></trkpt><trkpt lat="34.2985517" lon="8.1366467"><ele>61.0</ele><time>2026-04-24T13:50:01.925Z</time></trkpt><trkpt lat="34.2983983" lon="8.1367133"><ele>61.0</ele><time>2026-04-24T13:50:02.925Z</time></trkpt><trkpt lat="34.2982417" lon="8.13678"><ele>61.0</ele><time>2026-04-24T13:50:03.925Z</time></trkpt><trkpt lat="34.29808" lon="8.1368367"><ele>61.0</ele><time>2026-04-24T13:50:04.925Z</time></trkpt><trkpt lat="34.2979233" lon="8.1369017"><ele>61.33333333333333</ele><time>2026-04-24T13:50:05.924Z</time></trkpt><trkpt lat="34.297765" lon="8.1369683"><ele>61.66666666666667</ele><time>2026-04-24T13:50:06.925Z</time></trkpt><trkpt lat="34.2976067" lon="8.1370283"><ele>62.0</ele><time>2026-04-24T13:50:07.925Z</time></trkpt><trkpt lat="34.2974433" lon="8.1370983"><ele>62.0</ele><time>2026-04-24T13:50:08.925Z</time></trkpt><trkpt lat="34.2972767" lon="8.137165"><ele>62.0</ele><time>2026-04-24T13:50:09.925Z</time></trkpt><trkpt lat="34.2971183" lon="8.1372417"><ele>62.0</ele><time>2026-04-24T13:50:10.925Z</time></trkpt><trkpt lat="34.2969567" lon="8.1373117"><ele>62.333333333333336</ele><time>2026-04-24T13:50:11.925Z</time></trkpt><trkpt lat="34.2967967" lon="8.1373733"><ele>62.66666666666667</ele><time>2026-04-24T13:50:12.925Z</time></trkpt><trkpt lat="34.2966333" lon="8.13743"><ele>63.0</ele><time>2026-04-24T13:50:13.925Z</time></trkpt><trkpt lat="34.296465" lon="8.13749"><ele>62.66666666666667</ele><time>2026-04-24T13:50:14.925Z</time></trkpt><trkpt lat="34.2963017" lon="8.13754"><ele>62.333333333333336</ele><time>2026-04-24T13:50:15.925Z</time></trkpt><trkpt lat="34.29614" lon="8.137585"><ele>62.0</ele><time>2026-04-24T13:50:16.925Z</time></trkpt><trkpt lat="34.2959783" lon="8.1376367"><ele>62.0</ele><time>2026-04-24T13:50:17.924Z</time></trkpt><trkpt lat="34.29581" lon="8.1376833"><ele>62.0</ele><time>2026-04-24T13:50:18.925Z</time></trkpt><trkpt lat="34.2956433" lon="8.1377367"><ele>62.0</ele><time>2026-04-24T13:50:19.924Z</time></trkpt><trkpt lat="34.2954767" lon="8.1377883"><ele>62.333333333333336</ele><time>2026-04-24T13:50:20.925Z</time></trkpt><trkpt lat="34.2953117" lon="8.1378383"><ele>62.66666666666667</ele><time>2026-04-24T13:50:21.925Z</time></trkpt><trkpt lat="34.2951467" lon="8.137885"><ele>63.0</ele><time>2026-04-24T13:50:22.925Z</time></trkpt><trkpt lat="34.2949833" lon="8.13793"><ele>63.0</ele><time>2026-04-24T13:50:23.925Z</time></trkpt><trkpt lat="34.2948217" lon="8.137975"><ele>63.0</ele><time>2026-04-24T13:50:24.925Z</time></trkpt><trkpt lat="34.2946617" lon="8.1380283"><ele>63.0</ele><time>2026-04-24T13:50:25.924Z</time></trkpt><trkpt lat="34.2944983" lon="8.1380833"><ele>63.0</ele><time>2026-04-24T13:50:26.924Z</time></trkpt><trkpt lat="34.294335" lon="8.1381367"><ele>63.0</ele><time>2026-04-24T13:50:27.925Z</time></trkpt><trkpt lat="34.2941733" lon="8.138195"><ele>63.0</ele><time>2026-04-24T13:50:28.925Z</time></trkpt><trkpt lat="34.2940167" lon="8.1382567"><ele>62.66666666666667</ele><time>2026-04-24T13:50:29.925Z</time></trkpt><trkpt lat="34.2938567" lon="8.1383117"><ele>62.333333333333336</ele><time>2026-04-24T13:50:30.924Z</time></trkpt><trkpt lat="34.2936917" lon="8.13837"><ele>62.0</ele><time>2026-04-24T13:50:31.925Z</time></trkpt><trkpt lat="34.2935317" lon="8.1384283"><ele>62.0</ele><time>2026-04-24T13:50:32.925Z</time></trkpt><trkpt lat="34.2933733" lon="8.138485"><ele>62.0</ele><time>2026-04-24T13:50:33.925Z</time></trkpt><trkpt lat="34.2932083" lon="8.1385467"><ele>62.0</ele><time>2026-04-24T13:50:34.925Z</time></trkpt><trkpt lat="34.2930417" lon="8.1386133"><ele>62.66666666666667</ele><time>2026-04-24T13:50:35.925Z</time></trkpt><trkpt lat="34.292885" lon="8.13867"><ele>63.33333333333333</ele><time>2026-04-24T13:50:36.924Z</time></trkpt><trkpt lat="34.2927283" lon="8.13873"><ele>64.0</ele><time>2026-04-24T13:50:37.925Z</time></trkpt><trkpt lat="34.2925683" lon="8.1387933"><ele>64.0</ele><time>2026-04-24T13:50:38.924Z</time></trkpt><trkpt lat="34.2924067" lon="8.138855"><ele>64.0</ele><time>2026-04-24T13:50:39.925Z</time></trkpt><trkpt lat="34.2922467" lon="8.1389117"><ele>64.0</ele><time>2026-04-24T13:50:40.925Z</time></trkpt><trkpt lat="34.29208" lon="8.1389667"><ele>64.33333333333333</ele><time>2026-04-24T13:50:41.924Z</time></trkpt><trkpt lat="34.2919217" lon="8.1390217"><ele>64.66666666666667</ele><time>2026-04-24T13:50:42.925Z</time></trkpt><trkpt lat="34.2917617" lon="8.1390767"><ele>65.0</ele><time>2026-04-24T13:50:43.925Z</time></trkpt><trkpt lat="34.291605" lon="8.139125"><ele>65.0</ele><time>2026-04-24T13:50:44.925Z</time></trkpt><trkpt lat="34.2914517" lon="8.13917"><ele>65.0</ele><time>2026-04-24T13:50:45.925Z</time></trkpt><trkpt lat="34.291305" lon="8.1392267"><ele>65.0</ele><time>2026-04-24T13:50:46.925Z</time></trkpt><trkpt lat="34.2911617" lon="8.1392833"><ele>65.0</ele><time>2026-04-24T13:50:47.925Z</time></trkpt><trkpt lat="34.29102" lon="8.13935"><ele>65.0</ele><time>2026-04-24T13:50:48.925Z</time></trkpt><trkpt lat="34.2908817" lon="8.1394067"><ele>65.0</ele><time>2026-04-24T13:50:49.925Z</time></trkpt><trkpt lat="34.2907483" lon="8.13945"><ele>65.0</ele><time>2026-04-24T13:50:50.925Z</time></trkpt><trkpt lat="34.2906233" lon="8.139485"><ele>64.5</ele><time>2026-04-24T13:50:51.925Z</time></trkpt><trkpt lat="34.2905017" lon="8.1395217"><ele>64.0</ele><time>2026-04-24T13:50:52.925Z</time></trkpt><trkpt lat="34.2903767" lon="8.1395633"><ele>63.5</ele><time>2026-04-24T13:50:53.925Z</time></trkpt><trkpt lat="34.29026" lon="8.1396033"><ele>63.0</ele><time>2026-04-24T13:50:54.925Z</time></trkpt><trkpt lat="34.2901467" lon="8.1396467"><ele>63.0</ele><time>2026-04-24T13:50:55.925Z</time></trkpt><trkpt lat="34.2900317" lon="8.139685"><ele>63.0</ele><time>2026-04-24T13:50:56.925Z</time></trkpt><trkpt lat="34.2899183" lon="8.1397433"><ele>63.0</ele><time>2026-04-24T13:50:57.924Z</time></trkpt><trkpt lat="34.2898017" lon="8.139815"><ele>63.0</ele><time>2026-04-24T13:50:58.925Z</time></trkpt><trkpt lat="34.2896817" lon="8.1398933"><ele>63.5</ele><time>2026-04-24T13:50:59.925Z</time></trkpt><trkpt lat="34.2895567" lon="8.1399717"><ele>64.0</ele><time>2026-04-24T13:51:00.925Z</time></trkpt><trkpt lat="34.2894333" lon="8.1400517"><ele>64.5</ele><time>2026-04-24T13:51:01.924Z</time></trkpt><trkpt lat="34.2893" lon="8.14011"><ele>65.0</ele><time>2026-04-24T13:51:02.924Z</time></trkpt><trkpt lat="34.28917" lon="8.1401483"><ele>65.0</ele><time>2026-04-24T13:51:03.925Z</time></trkpt><trkpt lat="34.2890367" lon="8.1401833"><ele>65.0</ele><time>2026-04-24T13:51:04.925Z</time></trkpt><trkpt lat="34.288905" lon="8.1402217"><ele>65.0</ele><time>2026-04-24T13:51:05.924Z</time></trkpt><trkpt lat="34.2887717" lon="8.1402567"><ele>65.0</ele><time>2026-04-24T13:51:06.925Z</time></trkpt><trkpt lat="34.2886367" lon="8.1402933"><ele>64.75</ele><time>2026-04-24T13:51:07.925Z</time></trkpt><trkpt lat="34.2885117" lon="8.140345"><ele>64.5</ele><time>2026-04-24T13:51:08.925Z</time></trkpt><trkpt lat="34.288385" lon="8.140385"><ele>64.25</ele><time>2026-04-24T13:51:09.925Z</time></trkpt><trkpt lat="34.2882583" lon="8.1404317"><ele>64.0</ele><time>2026-04-24T13:51:10.925Z</time></trkpt><trkpt lat="34.2881217" lon="8.1404817"><ele>63.75</ele><time>2026-04-24T13:51:11.924Z</time></trkpt><trkpt lat="34.28799" lon="8.1405317"><ele>63.5</ele><time>2026-04-24T13:51:12.925Z</time></trkpt><trkpt lat="34.287855" lon="8.14058"><ele>63.25</ele><time>2026-04-24T13:51:13.925Z</time></trkpt><trkpt lat="34.2877133" lon="8.1406267"><ele>63.0</ele><time>2026-04-24T13:51:14.925Z</time></trkpt><trkpt lat="34.287575" lon="8.1406683"><ele>63.0</ele><time>2026-04-24T13:51:15.924Z</time></trkpt><trkpt lat="34.287435" lon="8.140715"><ele>63.0</ele><time>2026-04-24T13:51:16.925Z</time></trkpt><trkpt lat="34.2872883" lon="8.1407683"><ele>63.0</ele><time>2026-04-24T13:51:17.925Z</time></trkpt><trkpt lat="34.28715" lon="8.1408167"><ele>63.0</ele><time>2026-04-24T13:51:18.925Z</time></trkpt><trkpt lat="34.2870083" lon="8.140865"><ele>62.66666666666667</ele><time>2026-04-24T13:51:19.925Z</time></trkpt><trkpt lat="34.2868617" lon="8.1409133"><ele>62.333333333333336</ele><time>2026-04-24T13:51:20.925Z</time></trkpt><trkpt lat="34.2867183" lon="8.1409617"><ele>62.0</ele><time>2026-04-24T13:51:21.925Z</time></trkpt><trkpt lat="34.2865733" lon="8.1410133"><ele>62.0</ele><time>2026-04-24T13:51:22.925Z</time></trkpt><trkpt lat="34.28643" lon="8.141065"><ele>62.0</ele><time>2026-04-24T13:51:23.925Z</time></trkpt><trkpt lat="34.286285" lon="8.1411133"><ele>62.0</ele><time>2026-04-24T13:51:24.925Z</time></trkpt><trkpt lat="34.2861483" lon="8.1411583"><ele>62.0</ele><time>2026-04-24T13:51:25.925Z</time></trkpt><trkpt lat="34.2860083" lon="8.1412067"><ele>62.5</ele><time>2026-04-24T13:51:26.925Z</time></trkpt><trkpt lat="34.2858567" lon="8.14125"><ele>63.0</ele><time>2026-04-24T13:51:27.925Z</time></trkpt><trkpt lat="34.28572" lon="8.1412983"><ele>63.5</ele><time>2026-04-24T13:51:28.925Z</time></trkpt><trkpt lat="34.2855783" lon="8.1413567"><ele>64.0</ele><time>2026-04-24T13:51:29.925Z</time></trkpt><trkpt lat="34.285445" lon="8.1414217"><ele>64.25</ele><time>2026-04-24T13:51:30.925Z</time></trkpt><trkpt lat="34.2853067" lon="8.1414783"><ele>64.5</ele><time>2026-04-24T13:51:31.924Z</time></trkpt><trkpt lat="34.28517" lon="8.1415383"><ele>64.75</ele><time>2026-04-24T13:51:32.924Z</time></trkpt><trkpt lat="34.2850283" lon="8.1415883"><ele>65.0</ele><time>2026-04-24T13:51:33.925Z</time></trkpt><trkpt lat="34.2848867" lon="8.1416417"><ele>65.0</ele><time>2026-04-24T13:51:34.925Z</time></trkpt><trkpt lat="34.284745" lon="8.141685"><ele>65.0</ele><time>2026-04-24T13:51:35.925Z</time></trkpt><trkpt lat="34.2845983" lon="8.141725"><ele>65.0</ele><time>2026-04-24T13:51:36.924Z</time></trkpt><trkpt lat="34.2844533" lon="8.1417683"><ele>65.0</ele><time>2026-04-24T13:51:37.924Z</time></trkpt><trkpt lat="34.2843117" lon="8.141805"><ele>65.0</ele><time>2026-04-24T13:51:38.925Z</time></trkpt><trkpt lat="34.28416" lon="8.1418533"><ele>65.0</ele><time>2026-04-24T13:51:39.925Z</time></trkpt><trkpt lat="34.284005" lon="8.1418967"><ele>65.0</ele><time>2026-04-24T13:51:40.924Z</time></trkpt><trkpt lat="34.2838533" lon="8.1419433"><ele>65.0</ele><time>2026-04-24T13:51:41.925Z</time></trkpt><trkpt lat="34.2836967" lon="8.1419917"><ele>65.0</ele><time>2026-04-24T13:51:42.924Z</time></trkpt><trkpt lat="34.2835367" lon="8.1420433"><ele>65.0</ele><time>2026-04-24T13:51:43.925Z</time></trkpt><trkpt lat="34.2833683" lon="8.1420967"><ele>65.0</ele><time>2026-04-24T13:51:44.924Z</time></trkpt><trkpt lat="34.2832067" lon="8.1421483"><ele>65.0</ele><time>2026-04-24T13:51:45.925Z</time></trkpt><trkpt lat="34.2830383" lon="8.1422067"><ele>65.0</ele><time>2026-04-24T13:51:46.924Z</time></trkpt><trkpt lat="34.2828717" lon="8.1422683"><ele>64.66666666666667</ele><time>2026-04-24T13:51:47.925Z</time></trkpt><trkpt lat="34.2827033" lon="8.142335"><ele>64.33333333333333</ele><time>2026-04-24T13:51:48.925Z</time></trkpt><trkpt lat="34.2825317" lon="8.1423917"><ele>64.0</ele><time>2026-04-24T13:51:49.924Z</time></trkpt><trkpt lat="34.2823567" lon="8.142445"><ele>64.0</ele><time>2026-04-24T13:51:50.925Z</time></trkpt><trkpt lat="34.2821883" lon="8.1425033"><ele>64.0</ele><time>2026-04-24T13:51:51.925Z</time></trkpt><trkpt lat="34.2820117" lon="8.1425617"><ele>64.0</ele><time>2026-04-24T13:51:52.925Z</time></trkpt><trkpt lat="34.2818317" lon="8.1426317"><ele>64.0</ele><time>2026-04-24T13:51:53.925Z</time></trkpt><trkpt lat="34.28165" lon="8.1426917"><ele>64.0</ele><time>2026-04-24T13:51:54.924Z</time></trkpt><trkpt lat="34.2814667" lon="8.1427383"><ele>64.0</ele><time>2026-04-24T13:51:55.925Z</time></trkpt><trkpt lat="34.2812833" lon="8.1427883"><ele>64.33333333333333</ele><time>2026-04-24T13:51:56.925Z</time></trkpt><trkpt lat="34.2811133" lon="8.14283"><ele>64.66666666666667</ele><time>2026-04-24T13:51:57.925Z</time></trkpt><trkpt lat="34.2809417" lon="8.1428833"><ele>65.0</ele><time>2026-04-24T13:51:58.924Z</time></trkpt><trkpt lat="34.28077" lon="8.14294"><ele>65.0</ele><time>2026-04-24T13:51:59.924Z</time></trkpt><trkpt lat="34.2806117" lon="8.1429983"><ele>65.0</ele><time>2026-04-24T13:52:00.925Z</time></trkpt><trkpt lat="34.2804683" lon="8.14305"><ele>65.0</ele><time>2026-04-24T13:52:01.925Z</time></trkpt><trkpt lat="34.28034" lon="8.1431017"><ele>65.5</ele><time>2026-04-24T13:52:02.925Z</time></trkpt><trkpt lat="34.2802167" lon="8.1431433"><ele>66.0</ele><time>2026-04-24T13:52:03.925Z</time></trkpt><trkpt lat="34.280085" lon="8.1431817"><ele>66.5</ele><time>2026-04-24T13:52:04.925Z</time></trkpt><trkpt lat="34.2799533" lon="8.14322"><ele>67.0</ele><time>2026-04-24T13:52:05.925Z</time></trkpt><trkpt lat="34.2798133" lon="8.1432467"><ele>67.5</ele><time>2026-04-24T13:52:06.925Z</time></trkpt><trkpt lat="34.2796717" lon="8.14328"><ele>68.0</ele><time>2026-04-24T13:52:07.925Z</time></trkpt><trkpt lat="34.279525" lon="8.143325"><ele>68.5</ele><time>2026-04-24T13:52:08.925Z</time></trkpt><trkpt lat="34.27938" lon="8.14337"><ele>69.0</ele><time>2026-04-24T13:52:09.925Z</time></trkpt><trkpt lat="34.2792333" lon="8.1434217"><ele>69.0</ele><time>2026-04-24T13:52:10.925Z</time></trkpt><trkpt lat="34.27909" lon="8.14348"><ele>69.0</ele><time>2026-04-24T13:52:11.924Z</time></trkpt><trkpt lat="34.2789483" lon="8.1435367"><ele>69.0</ele><time>2026-04-24T13:52:12.925Z</time></trkpt><trkpt lat="34.2787983" lon="8.1435933"><ele>69.66666666666667</ele><time>2026-04-24T13:52:13.925Z</time></trkpt><trkpt lat="34.2786483" lon="8.1436467"><ele>70.33333333333334</ele><time>2026-04-24T13:52:14.925Z</time></trkpt><trkpt lat="34.2785" lon="8.1436933"><ele>71.0</ele><time>2026-04-24T13:52:15.924Z</time></trkpt><trkpt lat="34.2783467" lon="8.1437483"><ele>71.0</ele><time>2026-04-24T13:52:16.925Z</time></trkpt><trkpt lat="34.2781917" lon="8.1437983"><ele>71.0</ele><time>2026-04-24T13:52:17.925Z</time></trkpt><trkpt lat="34.278035" lon="8.14385"><ele>71.0</ele><time>2026-04-24T13:52:18.925Z</time></trkpt><trkpt lat="34.27788" lon="8.1439117"><ele>71.0</ele><time>2026-04-24T13:52:19.924Z</time></trkpt><trkpt lat="34.2777167" lon="8.1439733"><ele>71.0</ele><time>2026-04-24T13:52:20.925Z</time></trkpt><trkpt lat="34.2775533" lon="8.1440417"><ele>71.0</ele><time>2026-04-24T13:52:21.925Z</time></trkpt><trkpt lat="34.277395" lon="8.144105"><ele>72.66666666666667</ele><time>2026-04-24T13:52:22.925Z</time></trkpt><trkpt lat="34.2772433" lon="8.1441683"><ele>74.33333333333333</ele><time>2026-04-24T13:52:23.925Z</time></trkpt><trkpt lat="34.2770983" lon="8.1442283"><ele>76.0</ele><time>2026-04-24T13:52:24.925Z</time></trkpt><trkpt lat="34.2769633" lon="8.1442833"><ele>76.0</ele><time>2026-04-24T13:52:25.925Z</time></trkpt><trkpt lat="34.2768333" lon="8.144335"><ele>76.0</ele><time>2026-04-24T13:52:26.925Z</time></trkpt><trkpt lat="34.2767133" lon="8.144385"><ele>76.0</ele><time>2026-04-24T13:52:27.924Z</time></trkpt><trkpt lat="34.2765817" lon="8.14443"><ele>76.0</ele><time>2026-04-24T13:52:28.925Z</time></trkpt><trkpt lat="34.2764483" lon="8.1444783"><ele>75.75</ele><time>2026-04-24T13:52:29.925Z</time></trkpt><trkpt lat="34.276315" lon="8.144525"><ele>75.5</ele><time>2026-04-24T13:52:30.925Z</time></trkpt><trkpt lat="34.2761817" lon="8.1445683"><ele>75.25</ele><time>2026-04-24T13:52:31.925Z</time></trkpt><trkpt lat="34.2760467" lon="8.1446133"><ele>75.0</ele><time>2026-04-24T13:52:32.924Z</time></trkpt><trkpt lat="34.2759167" lon="8.14466"><ele>75.0</ele><time>2026-04-24T13:52:33.925Z</time></trkpt><trkpt lat="34.275795" lon="8.1447067"><ele>75.0</ele><time>2026-04-24T13:52:34.925Z</time></trkpt><trkpt lat="34.2756667" lon="8.144755"><ele>75.0</ele><time>2026-04-24T13:52:35.925Z</time></trkpt><trkpt lat="34.2755333" lon="8.1448017"><ele>75.0</ele><time>2026-04-24T13:52:36.924Z</time></trkpt><trkpt lat="34.2753917" lon="8.1448467"><ele>76.0</ele><time>2026-04-24T13:52:37.924Z</time></trkpt><trkpt lat="34.2752417" lon="8.1448917"><ele>77.0</ele><time>2026-04-24T13:52:38.924Z</time></trkpt><trkpt lat="34.275085" lon="8.1449467"><ele>78.0</ele><time>2026-04-24T13:52:39.924Z</time></trkpt><trkpt lat="34.274935" lon="8.1450083"><ele>78.0</ele><time>2026-04-24T13:52:40.925Z</time></trkpt><trkpt lat="34.2747783" lon="8.1450683"><ele>78.0</ele><time>2026-04-24T13:52:41.925Z</time></trkpt><trkpt lat="34.2746217" lon="8.1451233"><ele>78.0</ele><time>2026-04-24T13:52:42.925Z</time></trkpt><trkpt lat="34.2744583" lon="8.14518"><ele>78.33333333333333</ele><time>2026-04-24T13:52:43.924Z</time></trkpt><trkpt lat="34.2742917" lon="8.1452333"><ele>78.66666666666666</ele><time>2026-04-24T13:52:44.925Z</time></trkpt><trkpt lat="34.2741267" lon="8.14529"><ele>79.0</ele><time>2026-04-24T13:52:45.925Z</time></trkpt><trkpt lat="34.27396" lon="8.1453417"><ele>79.33333333333333</ele><time>2026-04-24T13:52:46.925Z</time></trkpt><trkpt lat="34.27379" lon="8.1453883"><ele>79.66666666666667</ele><time>2026-04-24T13:52:47.925Z</time></trkpt><trkpt lat="34.2736183" lon="8.14545"><ele>80.0</ele><time>2026-04-24T13:52:48.925Z</time></trkpt><trkpt lat="34.27345" lon="8.1455083"><ele>80.0</ele><time>2026-04-24T13:52:49.925Z</time></trkpt><trkpt lat="34.2732817" lon="8.1455633"><ele>80.0</ele><time>2026-04-24T13:52:50.925Z</time></trkpt><trkpt lat="34.2731183" lon="8.1456217"><ele>80.0</ele><time>2026-04-24T13:52:51.924Z</time></trkpt><trkpt lat="34.2729517" lon="8.1456817"><ele>80.66666666666667</ele><time>2026-04-24T13:52:52.924Z</time></trkpt><trkpt lat="34.272795" lon="8.1457383"><ele>81.33333333333333</ele><time>2026-04-24T13:52:53.924Z</time></trkpt><trkpt lat="34.2726483" lon="8.145785"><ele>82.0</ele><time>2026-04-24T13:52:54.925Z</time></trkpt><trkpt lat="34.2724933" lon="8.1458333"><ele>82.33333333333333</ele><time>2026-04-24T13:52:55.925Z</time></trkpt><trkpt lat="34.27221" lon="8.145945"><ele>82.66666666666667</ele><time>2026-04-24T13:52:57.925Z</time></trkpt><trkpt lat="34.2720683" lon="8.1459933"><ele>83.0</ele><time>2026-04-24T13:52:58.925Z</time></trkpt><trkpt lat="34.2719317" lon="8.1460417"><ele>83.0</ele><time>2026-04-24T13:52:59.924Z</time></trkpt><trkpt lat="34.2717867" lon="8.1460883"><ele>83.0</ele><time>2026-04-24T13:53:00.925Z</time></trkpt><trkpt lat="34.27164" lon="8.1461333"><ele>83.0</ele><time>2026-04-24T13:53:01.925Z</time></trkpt><trkpt lat="34.27149" lon="8.1461783"><ele>82.66666666666667</ele><time>2026-04-24T13:53:02.924Z</time></trkpt><trkpt lat="34.2713417" lon="8.14623"><ele>82.33333333333333</ele><time>2026-04-24T13:53:03.925Z</time></trkpt><trkpt lat="34.2711933" lon="8.1462817"><ele>82.0</ele><time>2026-04-24T13:53:04.924Z</time></trkpt><trkpt lat="34.2710433" lon="8.14633"><ele>82.0</ele><time>2026-04-24T13:53:05.925Z</time></trkpt><trkpt lat="34.2708883" lon="8.14638"><ele>82.0</ele><time>2026-04-24T13:53:06.925Z</time></trkpt><trkpt lat="34.27073" lon="8.1464283"><ele>82.0</ele><time>2026-04-24T13:53:07.925Z</time></trkpt><trkpt lat="34.27057" lon="8.1464883"><ele>83.66666666666666</ele><time>2026-04-24T13:53:08.925Z</time></trkpt><trkpt lat="34.2704067" lon="8.146545"><ele>85.33333333333333</ele><time>2026-04-24T13:53:09.924Z</time></trkpt><trkpt lat="34.2702567" lon="8.1465967"><ele>87.0</ele><time>2026-04-24T13:53:10.924Z</time></trkpt><trkpt lat="34.270125" lon="8.1466467"><ele>87.0</ele><time>2026-04-24T13:53:11.925Z</time></trkpt><trkpt lat="34.2700017" lon="8.1466933"><ele>87.0</ele><time>2026-04-24T13:53:12.924Z</time></trkpt><trkpt lat="34.2698733" lon="8.1467367"><ele>87.0</ele><time>2026-04-24T13:53:13.923Z</time></trkpt><trkpt lat="34.2697433" lon="8.1467883"><ele>87.0</ele><time>2026-04-24T13:53:14.924Z</time></trkpt><trkpt lat="34.2696133" lon="8.146835"><ele>87.25</ele><time>2026-04-24T13:53:15.923Z</time></trkpt><trkpt lat="34.2694733" lon="8.1468817"><ele>87.5</ele><time>2026-04-24T13:53:16.924Z</time></trkpt><trkpt lat="34.2693367" lon="8.1469333"><ele>87.75</ele><time>2026-04-24T13:53:17.924Z</time></trkpt><trkpt lat="34.269195" lon="8.146985"><ele>88.0</ele><time>2026-04-24T13:53:18.923Z</time></trkpt><trkpt lat="34.26905" lon="8.1470383"><ele>88.0</ele><time>2026-04-24T13:53:19.924Z</time></trkpt><trkpt lat="34.2689083" lon="8.14709"><ele>88.0</ele><time>2026-04-24T13:53:20.924Z</time></trkpt><trkpt lat="34.2687567" lon="8.1471417"><ele>88.0</ele><time>2026-04-24T13:53:21.924Z</time></trkpt><trkpt lat="34.2686017" lon="8.1471933"><ele>88.0</ele><time>2026-04-24T13:53:22.923Z</time></trkpt><trkpt lat="34.2684533" lon="8.1472383"><ele>88.0</ele><time>2026-04-24T13:53:23.924Z</time></trkpt><trkpt lat="34.268305" lon="8.1472883"><ele>88.0</ele><time>2026-04-24T13:53:24.924Z</time></trkpt><trkpt lat="34.2681467" lon="8.147345"><ele>88.0</ele><time>2026-04-24T13:53:25.923Z</time></trkpt><trkpt lat="34.2679933" lon="8.1473883"><ele>88.0</ele><time>2026-04-24T13:53:26.923Z</time></trkpt><trkpt lat="34.267825" lon="8.1474483"><ele>88.0</ele><time>2026-04-24T13:53:27.924Z</time></trkpt><trkpt lat="34.2676633" lon="8.1475067"><ele>88.0</ele><time>2026-04-24T13:53:28.924Z</time></trkpt><trkpt lat="34.267505" lon="8.1475567"><ele>88.0</ele><time>2026-04-24T13:53:29.923Z</time></trkpt><trkpt lat="34.26734" lon="8.14761"><ele>88.0</ele><time>2026-04-24T13:53:30.923Z</time></trkpt><trkpt lat="34.2671817" lon="8.1476617"><ele>89.0</ele><time>2026-04-24T13:53:31.924Z</time></trkpt><trkpt lat="34.2670217" lon="8.1477083"><ele>90.0</ele><time>2026-04-24T13:53:32.924Z</time></trkpt><trkpt lat="34.2668633" lon="8.1477533"><ele>91.0</ele><time>2026-04-24T13:53:33.924Z</time></trkpt><trkpt lat="34.266715" lon="8.1477983"><ele>91.0</ele><time>2026-04-24T13:53:34.924Z</time></trkpt><trkpt lat="34.2665667" lon="8.1478517"><ele>91.0</ele><time>2026-04-24T13:53:35.924Z</time></trkpt><trkpt lat="34.2664167" lon="8.1479017"><ele>91.0</ele><time>2026-04-24T13:53:36.924Z</time></trkpt><trkpt lat="34.2662683" lon="8.1479483"><ele>91.33333333333333</ele><time>2026-04-24T13:53:37.924Z</time></trkpt><trkpt lat="34.2661167" lon="8.1480067"><ele>91.66666666666667</ele><time>2026-04-24T13:53:38.924Z</time></trkpt><trkpt lat="34.26597" lon="8.14806"><ele>92.0</ele><time>2026-04-24T13:53:39.923Z</time></trkpt><trkpt lat="34.26582" lon="8.1481133"><ele>92.0</ele><time>2026-04-24T13:53:40.923Z</time></trkpt><trkpt lat="34.2656717" lon="8.148165"><ele>92.0</ele><time>2026-04-24T13:53:41.923Z</time></trkpt><trkpt lat="34.265525" lon="8.14822"><ele>92.0</ele><time>2026-04-24T13:53:42.924Z</time></trkpt><trkpt lat="34.2653733" lon="8.1482733"><ele>92.0</ele><time>2026-04-24T13:53:43.924Z</time></trkpt><trkpt lat="34.2652217" lon="8.148325"><ele>92.0</ele><time>2026-04-24T13:53:44.923Z</time></trkpt><trkpt lat="34.26506" lon="8.1483767"><ele>92.0</ele><time>2026-04-24T13:53:45.924Z</time></trkpt><trkpt lat="34.2649033" lon="8.14843"><ele>92.33333333333334</ele><time>2026-04-24T13:53:46.924Z</time></trkpt><trkpt lat="34.2647467" lon="8.1484833"><ele>92.66666666666667</ele><time>2026-04-24T13:53:47.924Z</time></trkpt><trkpt lat="34.264585" lon="8.1485367"><ele>93.0</ele><time>2026-04-24T13:53:48.924Z</time></trkpt><trkpt lat="34.2644267" lon="8.14859"><ele>93.0</ele><time>2026-04-24T13:53:49.924Z</time></trkpt><trkpt lat="34.26427" lon="8.1486383"><ele>93.0</ele><time>2026-04-24T13:53:50.924Z</time></trkpt><trkpt lat="34.2641183" lon="8.14869"><ele>93.0</ele><time>2026-04-24T13:53:51.923Z</time></trkpt><trkpt lat="34.2639633" lon="8.1487367"><ele>94.66666666666666</ele><time>2026-04-24T13:53:52.924Z</time></trkpt><trkpt lat="34.2638017" lon="8.1487917"><ele>96.33333333333333</ele><time>2026-04-24T13:53:53.923Z</time></trkpt><trkpt lat="34.2636433" lon="8.1488467"><ele>98.0</ele><time>2026-04-24T13:53:54.923Z</time></trkpt><trkpt lat="34.26349" lon="8.148895"><ele>98.0</ele><time>2026-04-24T13:53:55.924Z</time></trkpt><trkpt lat="34.2633333" lon="8.1489483"><ele>98.0</ele><time>2026-04-24T13:53:56.923Z</time></trkpt><trkpt lat="34.2631833" lon="8.1490017"><ele>98.0</ele><time>2026-04-24T13:53:57.923Z</time></trkpt><trkpt lat="34.2630317" lon="8.1490467"><ele>97.75</ele><time>2026-04-24T13:53:58.923Z</time></trkpt><trkpt lat="34.26289" lon="8.1490883"><ele>97.5</ele><time>2026-04-24T13:53:59.924Z</time></trkpt><trkpt lat="34.26275" lon="8.1491267"><ele>97.25</ele><time>2026-04-24T13:54:00.924Z</time></trkpt><trkpt lat="34.2625983" lon="8.1491783"><ele>97.0</ele><time>2026-04-24T13:54:01.924Z</time></trkpt><trkpt lat="34.2624433" lon="8.1492383"><ele>97.0</ele><time>2026-04-24T13:54:02.924Z</time></trkpt><trkpt lat="34.2622817" lon="8.1492967"><ele>97.0</ele><time>2026-04-24T13:54:03.924Z</time></trkpt><trkpt lat="34.262125" lon="8.149345"><ele>97.0</ele><time>2026-04-24T13:54:04.923Z</time></trkpt><trkpt lat="34.26197" lon="8.149395"><ele>96.66666666666667</ele><time>2026-04-24T13:54:05.924Z</time></trkpt><trkpt lat="34.2618133" lon="8.1494483"><ele>96.33333333333334</ele><time>2026-04-24T13:54:06.924Z</time></trkpt><trkpt lat="34.2616633" lon="8.1494983"><ele>96.0</ele><time>2026-04-24T13:54:07.924Z</time></trkpt><trkpt lat="34.2615133" lon="8.1495533"><ele>96.33333333333334</ele><time>2026-04-24T13:54:08.924Z</time></trkpt><trkpt lat="34.261365" lon="8.1496033"><ele>96.66666666666667</ele><time>2026-04-24T13:54:09.923Z</time></trkpt><trkpt lat="34.2612133" lon="8.149655"><ele>97.0</ele><time>2026-04-24T13:54:10.924Z</time></trkpt><trkpt lat="34.2610583" lon="8.1497083"><ele>97.0</ele><time>2026-04-24T13:54:11.924Z</time></trkpt><trkpt lat="34.2609017" lon="8.1497633"><ele>97.0</ele><time>2026-04-24T13:54:12.923Z</time></trkpt><trkpt lat="34.2607383" lon="8.149815"><ele>97.0</ele><time>2026-04-24T13:54:13.923Z</time></trkpt><trkpt lat="34.2605867" lon="8.14986"><ele>97.33333333333334</ele><time>2026-04-24T13:54:14.923Z</time></trkpt><trkpt lat="34.2604333" lon="8.149895"><ele>97.66666666666666</ele><time>2026-04-24T13:54:15.923Z</time></trkpt><trkpt lat="34.2602833" lon="8.1499283"><ele>98.0</ele><time>2026-04-24T13:54:16.924Z</time></trkpt><trkpt lat="34.26013" lon="8.1499333"><ele>98.0</ele><time>2026-04-24T13:54:17.923Z</time></trkpt><trkpt lat="34.2599667" lon="8.1499267"><ele>98.0</ele><time>2026-04-24T13:54:18.924Z</time></trkpt><trkpt lat="34.25981" lon="8.14991"><ele>98.0</ele><time>2026-04-24T13:54:19.923Z</time></trkpt><trkpt lat="34.2596383" lon="8.1499017"><ele>97.66666666666666</ele><time>2026-04-24T13:54:20.923Z</time></trkpt><trkpt lat="34.259475" lon="8.14989"><ele>97.33333333333334</ele><time>2026-04-24T13:54:21.924Z</time></trkpt><trkpt lat="34.25931" lon="8.1498683"><ele>97.0</ele><time>2026-04-24T13:54:22.924Z</time></trkpt><trkpt lat="34.2591433" lon="8.1498467"><ele>96.33333333333334</ele><time>2026-04-24T13:54:23.923Z</time></trkpt><trkpt lat="34.2589783" lon="8.1498283"><ele>95.66666666666667</ele><time>2026-04-24T13:54:24.924Z</time></trkpt><trkpt lat="34.258815" lon="8.14981"><ele>95.0</ele><time>2026-04-24T13:54:25.923Z</time></trkpt><trkpt lat="34.25865" lon="8.149785"><ele>94.0</ele><time>2026-04-24T13:54:26.924Z</time></trkpt><trkpt lat="34.258485" lon="8.1497617"><ele>93.0</ele><time>2026-04-24T13:54:27.924Z</time></trkpt><trkpt lat="34.258315" lon="8.149745"><ele>92.0</ele><time>2026-04-24T13:54:28.924Z</time></trkpt><trkpt lat="34.2581433" lon="8.1497317"><ele>92.0</ele><time>2026-04-24T13:54:29.924Z</time></trkpt><trkpt lat="34.25798" lon="8.149705"><ele>92.0</ele><time>2026-04-24T13:54:30.924Z</time></trkpt><trkpt lat="34.2578183" lon="8.14969"><ele>92.0</ele><time>2026-04-24T13:54:31.924Z</time></trkpt><trkpt lat="34.2576517" lon="8.149675"><ele>92.0</ele><time>2026-04-24T13:54:32.924Z</time></trkpt><trkpt lat="34.25749" lon="8.1496617"><ele>92.0</ele><time>2026-04-24T13:54:33.924Z</time></trkpt><trkpt lat="34.2573317" lon="8.14964"><ele>92.0</ele><time>2026-04-24T13:54:34.924Z</time></trkpt><trkpt lat="34.2571733" lon="8.1496167"><ele>92.33333333333334</ele><time>2026-04-24T13:54:35.923Z</time></trkpt><trkpt lat="34.2570117" lon="8.1495967"><ele>92.66666666666667</ele><time>2026-04-24T13:54:36.923Z</time></trkpt><trkpt lat="34.2568483" lon="8.14958"><ele>93.0</ele><time>2026-04-24T13:54:37.923Z</time></trkpt><trkpt lat="34.2566833" lon="8.149575"><ele>93.0</ele><time>2026-04-24T13:54:38.924Z</time></trkpt><trkpt lat="34.2565233" lon="8.1495567"><ele>93.0</ele><time>2026-04-24T13:54:39.923Z</time></trkpt><trkpt lat="34.2563533" lon="8.1495417"><ele>93.0</ele><time>2026-04-24T13:54:40.924Z</time></trkpt><trkpt lat="34.2561867" lon="8.1495317"><ele>93.66666666666667</ele><time>2026-04-24T13:54:41.924Z</time></trkpt><trkpt lat="34.2560167" lon="8.149525"><ele>94.33333333333334</ele><time>2026-04-24T13:54:42.924Z</time></trkpt><trkpt lat="34.25584" lon="8.1495183"><ele>95.0</ele><time>2026-04-24T13:54:43.923Z</time></trkpt><trkpt lat="34.255675" lon="8.14951"><ele>96.0</ele><time>2026-04-24T13:54:44.924Z</time></trkpt><trkpt lat="34.2555183" lon="8.1494967"><ele>97.0</ele><time>2026-04-24T13:54:45.923Z</time></trkpt><trkpt lat="34.2553583" lon="8.1494817"><ele>98.0</ele><time>2026-04-24T13:54:46.924Z</time></trkpt><trkpt lat="34.2551967" lon="8.149465"><ele>98.0</ele><time>2026-04-24T13:54:47.924Z</time></trkpt><trkpt lat="34.2550367" lon="8.14945"><ele>98.0</ele><time>2026-04-24T13:54:48.924Z</time></trkpt><trkpt lat="34.2548767" lon="8.14944"><ele>98.0</ele><time>2026-04-24T13:54:49.924Z</time></trkpt><trkpt lat="34.2547217" lon="8.149425"><ele>97.0</ele><time>2026-04-24T13:54:50.923Z</time></trkpt><trkpt lat="34.2545633" lon="8.14942"><ele>96.0</ele><time>2026-04-24T13:54:51.924Z</time></trkpt><trkpt lat="34.2544" lon="8.1494133"><ele>95.0</ele><time>2026-04-24T13:54:52.924Z</time></trkpt><trkpt lat="34.254235" lon="8.1494067"><ele>95.0</ele><time>2026-04-24T13:54:53.924Z</time></trkpt><trkpt lat="34.2540717" lon="8.1493883"><ele>95.0</ele><time>2026-04-24T13:54:54.924Z</time></trkpt><trkpt lat="34.2539033" lon="8.149375"><ele>95.0</ele><time>2026-04-24T13:54:55.924Z</time></trkpt><trkpt lat="34.2537333" lon="8.149365"><ele>95.0</ele><time>2026-04-24T13:54:56.924Z</time></trkpt><trkpt lat="34.2535717" lon="8.1493467"><ele>95.0</ele><time>2026-04-24T13:54:57.924Z</time></trkpt><trkpt lat="34.2534033" lon="8.14933"><ele>95.0</ele><time>2026-04-24T13:54:58.923Z</time></trkpt><trkpt lat="34.2532417" lon="8.1493067"><ele>94.0</ele><time>2026-04-24T13:54:59.924Z</time></trkpt><trkpt lat="34.2530817" lon="8.1492883"><ele>93.0</ele><time>2026-04-24T13:55:00.924Z</time></trkpt><trkpt lat="34.2529167" lon="8.1492733"><ele>92.0</ele><time>2026-04-24T13:55:01.924Z</time></trkpt><trkpt lat="34.25275" lon="8.149265"><ele>92.0</ele><time>2026-04-24T13:55:02.924Z</time></trkpt><trkpt lat="34.252585" lon="8.149265"><ele>92.0</ele><time>2026-04-24T13:55:03.923Z</time></trkpt><trkpt lat="34.252425" lon="8.149255"><ele>92.0</ele><time>2026-04-24T13:55:04.924Z</time></trkpt><trkpt lat="34.2522617" lon="8.1492367"><ele>91.0</ele><time>2026-04-24T13:55:05.924Z</time></trkpt><trkpt lat="34.2521" lon="8.1492267"><ele>90.0</ele><time>2026-04-24T13:55:06.923Z</time></trkpt><trkpt lat="34.2519367" lon="8.1492117"><ele>89.0</ele><time>2026-04-24T13:55:07.924Z</time></trkpt><trkpt lat="34.251775" lon="8.149195"><ele>89.0</ele><time>2026-04-24T13:55:08.923Z</time></trkpt><trkpt lat="34.25161" lon="8.1491833"><ele>89.0</ele><time>2026-04-24T13:55:09.924Z</time></trkpt><trkpt lat="34.2514467" lon="8.14917"><ele>89.0</ele><time>2026-04-24T13:55:10.923Z</time></trkpt><trkpt lat="34.25128" lon="8.1491583"><ele>87.66666666666667</ele><time>2026-04-24T13:55:11.924Z</time></trkpt><trkpt lat="34.2511167" lon="8.1491417"><ele>86.33333333333333</ele><time>2026-04-24T13:55:12.924Z</time></trkpt><trkpt lat="34.25096" lon="8.149125"><ele>85.0</ele><time>2026-04-24T13:55:13.924Z</time></trkpt><trkpt lat="34.2508033" lon="8.1491083"><ele>85.0</ele><time>2026-04-24T13:55:14.924Z</time></trkpt><trkpt lat="34.2506467" lon="8.1490933"><ele>85.0</ele><time>2026-04-24T13:55:15.924Z</time></trkpt><trkpt lat="34.2504883" lon="8.14908"><ele>85.0</ele><time>2026-04-24T13:55:16.924Z</time></trkpt><trkpt lat="34.2503317" lon="8.1490667"><ele>84.66666666666666</ele><time>2026-04-24T13:55:17.924Z</time></trkpt><trkpt lat="34.2501783" lon="8.1490567"><ele>84.33333333333333</ele><time>2026-04-24T13:55:18.924Z</time></trkpt><trkpt lat="34.25002" lon="8.1490417"><ele>84.0</ele><time>2026-04-24T13:55:19.924Z</time></trkpt><trkpt lat="34.2498633" lon="8.1490283"><ele>83.0</ele><time>2026-04-24T13:55:20.924Z</time></trkpt><trkpt lat="34.249705" lon="8.1490067"><ele>82.0</ele><time>2026-04-24T13:55:21.923Z</time></trkpt><trkpt lat="34.2495483" lon="8.1489867"><ele>81.0</ele><time>2026-04-24T13:55:22.924Z</time></trkpt><trkpt lat="34.2493817" lon="8.14898"><ele>81.0</ele><time>2026-04-24T13:55:23.924Z</time></trkpt><trkpt lat="34.2492233" lon="8.1489683"><ele>81.0</ele><time>2026-04-24T13:55:24.923Z</time></trkpt><trkpt lat="34.2490583" lon="8.148945"><ele>81.0</ele><time>2026-04-24T13:55:25.924Z</time></trkpt><trkpt lat="34.2488933" lon="8.1489283"><ele>80.33333333333333</ele><time>2026-04-24T13:55:26.924Z</time></trkpt><trkpt lat="34.248725" lon="8.148915"><ele>79.66666666666666</ele><time>2026-04-24T13:55:27.924Z</time></trkpt><trkpt lat="34.248555" lon="8.1488967"><ele>79.0</ele><time>2026-04-24T13:55:28.924Z</time></trkpt><trkpt lat="34.2483933" lon="8.1488767"><ele>79.0</ele><time>2026-04-24T13:55:29.924Z</time></trkpt><trkpt lat="34.248225" lon="8.1488467"><ele>79.0</ele><time>2026-04-24T13:55:30.924Z</time></trkpt><trkpt lat="34.2480533" lon="8.14883"><ele>79.0</ele><time>2026-04-24T13:55:31.923Z</time></trkpt><trkpt lat="34.247885" lon="8.148815"><ele>79.33333333333333</ele><time>2026-04-24T13:55:32.924Z</time></trkpt><trkpt lat="34.2477183" lon="8.1488033"><ele>79.66666666666667</ele><time>2026-04-24T13:55:33.924Z</time></trkpt><trkpt lat="34.247555" lon="8.148795"><ele>80.0</ele><time>2026-04-24T13:55:34.924Z</time></trkpt><trkpt lat="34.2474033" lon="8.148775"><ele>79.5</ele><time>2026-04-24T13:55:35.923Z</time></trkpt><trkpt lat="34.247275" lon="8.1487683"><ele>79.0</ele><time>2026-04-24T13:55:36.923Z</time></trkpt><trkpt lat="34.2471533" lon="8.1487583"><ele>78.5</ele><time>2026-04-24T13:55:37.924Z</time></trkpt><trkpt lat="34.2470317" lon="8.1487467"><ele>78.0</ele><time>2026-04-24T13:55:38.924Z</time></trkpt><trkpt lat="34.2468967" lon="8.1487317"><ele>78.0</ele><time>2026-04-24T13:55:39.924Z</time></trkpt><trkpt lat="34.246755" lon="8.1487117"><ele>78.0</ele><time>2026-04-24T13:55:40.924Z</time></trkpt><trkpt lat="34.246605" lon="8.1486983"><ele>78.0</ele><time>2026-04-24T13:55:41.923Z</time></trkpt><trkpt lat="34.2464533" lon="8.1486817"><ele>78.0</ele><time>2026-04-24T13:55:42.924Z</time></trkpt><trkpt lat="34.246295" lon="8.148665"><ele>77.66666666666667</ele><time>2026-04-24T13:55:43.924Z</time></trkpt><trkpt lat="34.2461317" lon="8.1486567"><ele>77.33333333333334</ele><time>2026-04-24T13:55:44.924Z</time></trkpt><trkpt lat="34.2459683" lon="8.1486433"><ele>77.0</ele><time>2026-04-24T13:55:45.924Z</time></trkpt><trkpt lat="34.245805" lon="8.148635"><ele>77.0</ele><time>2026-04-24T13:55:46.924Z</time></trkpt><trkpt lat="34.24564" lon="8.148615"><ele>77.0</ele><time>2026-04-24T13:55:47.924Z</time></trkpt><trkpt lat="34.245475" lon="8.1485883"><ele>77.0</ele><time>2026-04-24T13:55:48.924Z</time></trkpt><trkpt lat="34.2453133" lon="8.14857"><ele>78.66666666666667</ele><time>2026-04-24T13:55:49.924Z</time></trkpt><trkpt lat="34.24515" lon="8.14855"><ele>80.33333333333333</ele><time>2026-04-24T13:55:50.924Z</time></trkpt><trkpt lat="34.2449867" lon="8.1485383"><ele>82.0</ele><time>2026-04-24T13:55:51.924Z</time></trkpt><trkpt lat="34.24483" lon="8.1485267"><ele>82.5</ele><time>2026-04-24T13:55:52.923Z</time></trkpt><trkpt lat="34.24469" lon="8.14852"><ele>83.0</ele><time>2026-04-24T13:55:53.924Z</time></trkpt><trkpt lat="34.24457" lon="8.148515"><ele>83.5</ele><time>2026-04-24T13:55:54.923Z</time></trkpt><trkpt lat="34.24446" lon="8.1485117"><ele>84.0</ele><time>2026-04-24T13:55:55.924Z</time></trkpt><trkpt lat="34.2443417" lon="8.1485033"><ele>84.0</ele><time>2026-04-24T13:55:56.924Z</time></trkpt><trkpt lat="34.2442183" lon="8.14849"><ele>84.0</ele><time>2026-04-24T13:55:57.924Z</time></trkpt><trkpt lat="34.2440917" lon="8.14847"><ele>84.0</ele><time>2026-04-24T13:55:58.923Z</time></trkpt><trkpt lat="34.2439617" lon="8.1484583"><ele>84.0</ele><time>2026-04-24T13:55:59.924Z</time></trkpt><trkpt lat="34.2438317" lon="8.14844"><ele>83.5</ele><time>2026-04-24T13:56:00.924Z</time></trkpt><trkpt lat="34.2436967" lon="8.1484083"><ele>83.0</ele><time>2026-04-24T13:56:01.924Z</time></trkpt><trkpt lat="34.2435583" lon="8.1483783"><ele>82.5</ele><time>2026-04-24T13:56:02.924Z</time></trkpt><trkpt lat="34.2434267" lon="8.1483333"><ele>82.0</ele><time>2026-04-24T13:56:03.923Z</time></trkpt><trkpt lat="34.243305" lon="8.1482733"><ele>81.75</ele><time>2026-04-24T13:56:04.924Z</time></trkpt><trkpt lat="34.2431883" lon="8.1481917"><ele>81.5</ele><time>2026-04-24T13:56:05.924Z</time></trkpt><trkpt lat="34.2430683" lon="8.1481067"><ele>81.25</ele><time>2026-04-24T13:56:06.923Z</time></trkpt><trkpt lat="34.24295" lon="8.1480067"><ele>81.0</ele><time>2026-04-24T13:56:07.924Z</time></trkpt><trkpt lat="34.2428217" lon="8.1479183"><ele>80.75</ele><time>2026-04-24T13:56:08.924Z</time></trkpt><trkpt lat="34.2426967" lon="8.147835"><ele>80.5</ele><time>2026-04-24T13:56:09.924Z</time></trkpt><trkpt lat="34.2425717" lon="8.1477533"><ele>80.25</ele><time>2026-04-24T13:56:10.924Z</time></trkpt><trkpt lat="34.2424467" lon="8.1476683"><ele>80.0</ele><time>2026-04-24T13:56:11.924Z</time></trkpt><trkpt lat="34.2423167" lon="8.14758"><ele>79.5</ele><time>2026-04-24T13:56:12.924Z</time></trkpt><trkpt lat="34.242195" lon="8.14749"><ele>79.0</ele><time>2026-04-24T13:56:13.923Z</time></trkpt><trkpt lat="34.2420617" lon="8.1474"><ele>78.5</ele><time>2026-04-24T13:56:14.924Z</time></trkpt><trkpt lat="34.2419333" lon="8.147305"><ele>78.0</ele><time>2026-04-24T13:56:15.924Z</time></trkpt><trkpt lat="34.2418083" lon="8.147215"><ele>77.75</ele><time>2026-04-24T13:56:16.923Z</time></trkpt><trkpt lat="34.24169" lon="8.1471367"><ele>77.5</ele><time>2026-04-24T13:56:17.924Z</time></trkpt><trkpt lat="34.24158" lon="8.1470617"><ele>77.25</ele><time>2026-04-24T13:56:18.924Z</time></trkpt><trkpt lat="34.24148" lon="8.147"><ele>77.0</ele><time>2026-04-24T13:56:19.924Z</time></trkpt><trkpt lat="34.24139" lon="8.1469383"><ele>76.75</ele><time>2026-04-24T13:56:20.924Z</time></trkpt><trkpt lat="34.2412967" lon="8.14688"><ele>76.5</ele><time>2026-04-24T13:56:21.923Z</time></trkpt><trkpt lat="34.2411917" lon="8.146805"><ele>76.25</ele><time>2026-04-24T13:56:22.924Z</time></trkpt><trkpt lat="34.2410833" lon="8.146725"><ele>76.0</ele><time>2026-04-24T13:56:23.924Z</time></trkpt><trkpt lat="34.2409633" lon="8.1466483"><ele>76.0</ele><time>2026-04-24T13:56:24.924Z</time></trkpt><trkpt lat="34.2408433" lon="8.1465817"><ele>76.0</ele><time>2026-04-24T13:56:25.924Z</time></trkpt><trkpt lat="34.24073" lon="8.1465233"><ele>76.0</ele><time>2026-04-24T13:56:26.924Z</time></trkpt><trkpt lat="34.240615" lon="8.1464783"><ele>76.0</ele><time>2026-04-24T13:56:27.924Z</time></trkpt><trkpt lat="34.2405" lon="8.1464617"><ele>75.75</ele><time>2026-04-24T13:56:28.924Z</time></trkpt><trkpt lat="34.2403867" lon="8.1464633"><ele>75.5</ele><time>2026-04-24T13:56:29.924Z</time></trkpt><trkpt lat="34.2402633" lon="8.1464817"><ele>75.25</ele><time>2026-04-24T13:56:30.924Z</time></trkpt><trkpt lat="34.2401367" lon="8.1465167"><ele>75.0</ele><time>2026-04-24T13:56:31.924Z</time></trkpt><trkpt lat="34.240005" lon="8.1465533"><ele>75.0</ele><time>2026-04-24T13:56:32.924Z</time></trkpt><trkpt lat="34.239865" lon="8.146595"><ele>75.0</ele><time>2026-04-24T13:56:33.924Z</time></trkpt><trkpt lat="34.2397183" lon="8.14664"><ele>75.0</ele><time>2026-04-24T13:56:34.924Z</time></trkpt><trkpt lat="34.23957" lon="8.1466817"><ele>75.0</ele><time>2026-04-24T13:56:35.924Z</time></trkpt><trkpt lat="34.2394167" lon="8.14672"><ele>75.0</ele><time>2026-04-24T13:56:36.924Z</time></trkpt><trkpt lat="34.2392717" lon="8.1467533"><ele>75.0</ele><time>2026-04-24T13:56:37.923Z</time></trkpt><trkpt lat="34.2391417" lon="8.14678"><ele>75.0</ele><time>2026-04-24T13:56:38.923Z</time></trkpt><trkpt lat="34.2390317" lon="8.146805"><ele>75.0</ele><time>2026-04-24T13:56:39.924Z</time></trkpt><trkpt lat="34.238915" lon="8.1468367"><ele>75.0</ele><time>2026-04-24T13:56:40.924Z</time></trkpt><trkpt lat="34.2388" lon="8.14686"><ele>75.0</ele><time>2026-04-24T13:56:41.923Z</time></trkpt><trkpt lat="34.2386733" lon="8.1468917"><ele>75.0</ele><time>2026-04-24T13:56:42.924Z</time></trkpt><trkpt lat="34.2385467" lon="8.146915"><ele>75.0</ele><time>2026-04-24T13:56:43.924Z</time></trkpt><trkpt lat="34.2384167" lon="8.1469367"><ele>75.0</ele><time>2026-04-24T13:56:44.923Z</time></trkpt><trkpt lat="34.2382883" lon="8.1469483"><ele>75.0</ele><time>2026-04-24T13:56:45.923Z</time></trkpt><trkpt lat="34.2381667" lon="8.146945"><ele>75.0</ele><time>2026-04-24T13:56:46.923Z</time></trkpt><trkpt lat="34.238035" lon="8.1469333"><ele>75.0</ele><time>2026-04-24T13:56:47.923Z</time></trkpt><trkpt lat="34.2378917" lon="8.146915"><ele>74.0</ele><time>2026-04-24T13:56:48.924Z</time></trkpt><trkpt lat="34.2377467" lon="8.146885"><ele>73.0</ele><time>2026-04-24T13:56:49.924Z</time></trkpt><trkpt lat="34.237595" lon="8.146855"><ele>72.0</ele><time>2026-04-24T13:56:50.924Z</time></trkpt><trkpt lat="34.23744" lon="8.1468283"><ele>71.33333333333333</ele><time>2026-04-24T13:56:51.924Z</time></trkpt><trkpt lat="34.2372817" lon="8.1468017"><ele>70.66666666666666</ele><time>2026-04-24T13:56:52.924Z</time></trkpt><trkpt lat="34.237125" lon="8.1467733"><ele>70.0</ele><time>2026-04-24T13:56:53.924Z</time></trkpt><trkpt lat="34.23696" lon="8.1467383"><ele>70.0</ele><time>2026-04-24T13:56:54.924Z</time></trkpt><trkpt lat="34.2368017" lon="8.1467133"><ele>70.0</ele><time>2026-04-24T13:56:55.924Z</time></trkpt><trkpt lat="34.2366483" lon="8.1466767"><ele>70.0</ele><time>2026-04-24T13:56:56.924Z</time></trkpt><trkpt lat="34.2365083" lon="8.1466467"><ele>69.5</ele><time>2026-04-24T13:56:57.923Z</time></trkpt><trkpt lat="34.236375" lon="8.1466183"><ele>69.0</ele><time>2026-04-24T13:56:58.924Z</time></trkpt><trkpt lat="34.2362417" lon="8.1465967"><ele>68.5</ele><time>2026-04-24T13:56:59.924Z</time></trkpt><trkpt lat="34.2361033" lon="8.1465733"><ele>68.0</ele><time>2026-04-24T13:57:00.924Z</time></trkpt><trkpt lat="34.23597" lon="8.1465417"><ele>68.0</ele><time>2026-04-24T13:57:01.924Z</time></trkpt><trkpt lat="34.235835" lon="8.146535"><ele>68.0</ele><time>2026-04-24T13:57:02.924Z</time></trkpt><trkpt lat="34.2357217" lon="8.1465333"><ele>68.0</ele><time>2026-04-24T13:57:03.924Z</time></trkpt><trkpt lat="34.2356133" lon="8.146555"><ele>68.0</ele><time>2026-04-24T13:57:04.924Z</time></trkpt><trkpt lat="34.2355067" lon="8.14659"><ele>67.5</ele><time>2026-04-24T13:57:05.924Z</time></trkpt><trkpt lat="34.2353933" lon="8.14664"><ele>67.0</ele><time>2026-04-24T13:57:06.924Z</time></trkpt><trkpt lat="34.235265" lon="8.1467017"><ele>66.5</ele><time>2026-04-24T13:57:07.924Z</time></trkpt><trkpt lat="34.2351333" lon="8.1467683"><ele>66.0</ele><time>2026-04-24T13:57:08.924Z</time></trkpt><trkpt lat="34.2350033" lon="8.14683"><ele>66.0</ele><time>2026-04-24T13:57:09.924Z</time></trkpt><trkpt lat="34.23487" lon="8.1469"><ele>66.0</ele><time>2026-04-24T13:57:10.924Z</time></trkpt><trkpt lat="34.23473" lon="8.14697"><ele>66.0</ele><time>2026-04-24T13:57:11.924Z</time></trkpt><trkpt lat="34.2345867" lon="8.14704"><ele>65.33333333333333</ele><time>2026-04-24T13:57:12.924Z</time></trkpt><trkpt lat="34.23444" lon="8.1471033"><ele>64.66666666666666</ele><time>2026-04-24T13:57:13.923Z</time></trkpt><trkpt lat="34.2342983" lon="8.1471733"><ele>64.0</ele><time>2026-04-24T13:57:14.924Z</time></trkpt><trkpt lat="34.2341567" lon="8.1472383"><ele>64.0</ele><time>2026-04-24T13:57:15.924Z</time></trkpt><trkpt lat="34.2340167" lon="8.1473017"><ele>64.0</ele><time>2026-04-24T13:57:16.923Z</time></trkpt><trkpt lat="34.233885" lon="8.1473633"><ele>64.0</ele><time>2026-04-24T13:57:17.923Z</time></trkpt><trkpt lat="34.23375" lon="8.1474317"><ele>64.0</ele><time>2026-04-24T13:57:18.923Z</time></trkpt><trkpt lat="34.233615" lon="8.1474983"><ele>63.0</ele><time>2026-04-24T13:57:19.923Z</time></trkpt><trkpt lat="34.23347" lon="8.1475667"><ele>62.0</ele><time>2026-04-24T13:57:20.922Z</time></trkpt><trkpt lat="34.233325" lon="8.1476333"><ele>61.0</ele><time>2026-04-24T13:57:21.922Z</time></trkpt><trkpt lat="34.2331767" lon="8.1477033"><ele>62.0</ele><time>2026-04-24T13:57:22.922Z</time></trkpt><trkpt lat="34.2330317" lon="8.1477733"><ele>63.0</ele><time>2026-04-24T13:57:23.923Z</time></trkpt><trkpt lat="34.232885" lon="8.1478367"><ele>64.0</ele><time>2026-04-24T13:57:24.922Z</time></trkpt><trkpt lat="34.23274" lon="8.1479017"><ele>64.0</ele><time>2026-04-24T13:57:25.923Z</time></trkpt><trkpt lat="34.2325917" lon="8.1479717"><ele>64.0</ele><time>2026-04-24T13:57:26.923Z</time></trkpt><trkpt lat="34.23244" lon="8.148045"><ele>64.0</ele><time>2026-04-24T13:57:27.923Z</time></trkpt><trkpt lat="34.2322867" lon="8.1481167"><ele>63.33333333333333</ele><time>2026-04-24T13:57:28.923Z</time></trkpt><trkpt lat="34.2321317" lon="8.1481867"><ele>62.66666666666667</ele><time>2026-04-24T13:57:29.923Z</time></trkpt><trkpt lat="34.2319733" lon="8.14826"><ele>62.0</ele><time>2026-04-24T13:57:30.923Z</time></trkpt><trkpt lat="34.231825" lon="8.1483283"><ele>61.333333333333336</ele><time>2026-04-24T13:57:31.922Z</time></trkpt><trkpt lat="34.23168" lon="8.1483883"><ele>60.66666666666667</ele><time>2026-04-24T13:57:32.922Z</time></trkpt><trkpt lat="34.231535" lon="8.1484567"><ele>60.0</ele><time>2026-04-24T13:57:33.923Z</time></trkpt><trkpt lat="34.2313833" lon="8.1485183"><ele>59.0</ele><time>2026-04-24T13:57:34.923Z</time></trkpt><trkpt lat="34.23123" lon="8.1485917"><ele>58.0</ele><time>2026-04-24T13:57:35.923Z</time></trkpt><trkpt lat="34.2310667" lon="8.1486667"><ele>57.0</ele><time>2026-04-24T13:57:36.923Z</time></trkpt><trkpt lat="34.2309" lon="8.148745"><ele>57.0</ele><time>2026-04-24T13:57:37.923Z</time></trkpt><trkpt lat="34.2307317" lon="8.148825"><ele>57.0</ele><time>2026-04-24T13:57:38.922Z</time></trkpt><trkpt lat="34.2305583" lon="8.148895"><ele>57.0</ele><time>2026-04-24T13:57:39.923Z</time></trkpt><trkpt lat="34.2303917" lon="8.148975"><ele>56.0</ele><time>2026-04-24T13:57:40.922Z</time></trkpt><trkpt lat="34.23022" lon="8.1490567"><ele>55.0</ele><time>2026-04-24T13:57:41.923Z</time></trkpt><trkpt lat="34.2300483" lon="8.14914"><ele>54.0</ele><time>2026-04-24T13:57:42.922Z</time></trkpt><trkpt lat="34.229875" lon="8.1492283"><ele>53.66666666666667</ele><time>2026-04-24T13:57:43.923Z</time></trkpt><trkpt lat="34.2297017" lon="8.14931"><ele>53.333333333333336</ele><time>2026-04-24T13:57:44.923Z</time></trkpt><trkpt lat="34.2295367" lon="8.1494"><ele>53.0</ele><time>2026-04-24T13:57:45.923Z</time></trkpt><trkpt lat="34.2293617" lon="8.149485"><ele>53.0</ele><time>2026-04-24T13:57:46.922Z</time></trkpt><trkpt lat="34.229185" lon="8.149565"><ele>53.0</ele><time>2026-04-24T13:57:47.922Z</time></trkpt><trkpt lat="34.2290033" lon="8.14964"><ele>53.0</ele><time>2026-04-24T13:57:48.923Z</time></trkpt><trkpt lat="34.2288267" lon="8.1497283"><ele>52.66666666666667</ele><time>2026-04-24T13:57:49.923Z</time></trkpt><trkpt lat="34.2286417" lon="8.149815"><ele>52.33333333333333</ele><time>2026-04-24T13:57:50.923Z</time></trkpt><trkpt lat="34.22846" lon="8.1499"><ele>52.0</ele><time>2026-04-24T13:57:51.923Z</time></trkpt><trkpt lat="34.2282867" lon="8.1499817"><ele>51.666666666666664</ele><time>2026-04-24T13:57:52.922Z</time></trkpt><trkpt lat="34.2281033" lon="8.1500667"><ele>51.33333333333333</ele><time>2026-04-24T13:57:53.922Z</time></trkpt><trkpt lat="34.227925" lon="8.1501567"><ele>51.0</ele><time>2026-04-24T13:57:54.923Z</time></trkpt><trkpt lat="34.2277483" lon="8.1502467"><ele>51.0</ele><time>2026-04-24T13:57:55.922Z</time></trkpt><trkpt lat="34.2275733" lon="8.1503383"><ele>51.0</ele><time>2026-04-24T13:57:56.923Z</time></trkpt><trkpt lat="34.2274033" lon="8.1504317"><ele>51.0</ele><time>2026-04-24T13:57:57.923Z</time></trkpt><trkpt lat="34.2272367" lon="8.1505217"><ele>52.33333333333333</ele><time>2026-04-24T13:57:58.923Z</time></trkpt><trkpt lat="34.2270883" lon="8.1506133"><ele>53.666666666666664</ele><time>2026-04-24T13:57:59.923Z</time></trkpt><trkpt lat="34.2269467" lon="8.1507117"><ele>55.0</ele><time>2026-04-24T13:58:00.923Z</time></trkpt><trkpt lat="34.2268167" lon="8.1507867"><ele>55.2</ele><time>2026-04-24T13:58:01.922Z</time></trkpt><trkpt lat="34.2267033" lon="8.1508617"><ele>55.4</ele><time>2026-04-24T13:58:02.923Z</time></trkpt><trkpt lat="34.2266" lon="8.1509283"><ele>55.599999999999994</ele><time>2026-04-24T13:58:03.923Z</time></trkpt><trkpt lat="34.2265067" lon="8.1509917"><ele>55.8</ele><time>2026-04-24T13:58:04.923Z</time></trkpt><trkpt lat="34.22642" lon="8.1510383"><ele>56.0</ele><time>2026-04-24T13:58:05.923Z</time></trkpt><trkpt lat="34.22633" lon="8.151065"><ele>56.4</ele><time>2026-04-24T13:58:06.923Z</time></trkpt><trkpt lat="34.2262517" lon="8.1510817"><ele>56.8</ele><time>2026-04-24T13:58:07.923Z</time></trkpt><trkpt lat="34.22618" lon="8.15108"><ele>57.199999999999996</ele><time>2026-04-24T13:58:08.923Z</time></trkpt><trkpt lat="34.2260667" lon="8.1510667"><ele>57.599999999999994</ele><time>2026-04-24T13:58:10.923Z</time></trkpt><trkpt lat="34.22596" lon="8.151065"><ele>58.0</ele><time>2026-04-24T13:58:12.922Z</time></trkpt><trkpt lat="34.2258617" lon="8.1510717"><ele>57.99999999999999</ele><time>2026-04-24T13:58:14.923Z</time></trkpt><trkpt lat="34.22578" lon="8.1510867"><ele>58.0</ele><time>2026-04-24T13:58:16.923Z</time></trkpt><trkpt lat="34.22571" lon="8.151085"><ele>58.0</ele><time>2026-04-24T13:58:18.923Z</time></trkpt><trkpt lat="34.2256383" lon="8.1510983"><ele>58.0</ele><time>2026-04-24T13:59:21.923Z</time></trkpt><trkpt lat="34.22551" lon="8.1510967"><ele>57.99999999999999</ele><time>2026-04-24T13:59:23.922Z</time></trkpt><trkpt lat="34.2254267" lon="8.1511017"><ele>58.0</ele><time>2026-04-24T13:59:24.923Z</time></trkpt><trkpt lat="34.22533" lon="8.15111"><ele>57.75</ele><time>2026-04-24T13:59:25.923Z</time></trkpt><trkpt lat="34.2252267" lon="8.1511183"><ele>57.5</ele><time>2026-04-24T13:59:26.923Z</time></trkpt><trkpt lat="34.2251083" lon="8.15113"><ele>57.25</ele><time>2026-04-24T13:59:27.923Z</time></trkpt><trkpt lat="34.2249883" lon="8.151145"><ele>57.0</ele><time>2026-04-24T13:59:28.922Z</time></trkpt><trkpt lat="34.22487" lon="8.1511583"><ele>56.75</ele><time>2026-04-24T13:59:29.923Z</time></trkpt><trkpt lat="34.22475" lon="8.1511717"><ele>56.5</ele><time>2026-04-24T13:59:30.923Z</time></trkpt><trkpt lat="34.2246267" lon="8.1511883"><ele>56.25</ele><time>2026-04-24T13:59:31.923Z</time></trkpt><trkpt lat="34.2244917" lon="8.1511983"><ele>56.0</ele><time>2026-04-24T13:59:32.922Z</time></trkpt><trkpt lat="34.224355" lon="8.1512083"><ele>56.0</ele><time>2026-04-24T13:59:33.923Z</time></trkpt><trkpt lat="34.22421" lon="8.15122"><ele>56.0</ele><time>2026-04-24T13:59:34.923Z</time></trkpt><trkpt lat="34.2240633" lon="8.151235"><ele>56.0</ele><time>2026-04-24T13:59:35.923Z</time></trkpt><trkpt lat="34.2239083" lon="8.151245"><ele>56.0</ele><time>2026-04-24T13:59:36.923Z</time></trkpt><trkpt lat="34.223745" lon="8.1512533"><ele>55.333333333333336</ele><time>2026-04-24T13:59:37.923Z</time></trkpt><trkpt lat="34.22358" lon="8.15127"><ele>54.66666666666667</ele><time>2026-04-24T13:59:38.922Z</time></trkpt><trkpt lat="34.223415" lon="8.1512933"><ele>54.0</ele><time>2026-04-24T13:59:39.922Z</time></trkpt><trkpt lat="34.2232483" lon="8.1513083"><ele>53.33333333333333</ele><time>2026-04-24T13:59:40.923Z</time></trkpt><trkpt lat="34.2230817" lon="8.15132"><ele>52.666666666666664</ele><time>2026-04-24T13:59:41.923Z</time></trkpt><trkpt lat="34.22292" lon="8.1513383"><ele>52.0</ele><time>2026-04-24T13:59:42.922Z</time></trkpt><trkpt lat="34.2227583" lon="8.1513517"><ele>52.0</ele><time>2026-04-24T13:59:43.923Z</time></trkpt><trkpt lat="34.2226" lon="8.1513683"><ele>52.0</ele><time>2026-04-24T13:59:44.923Z</time></trkpt><trkpt lat="34.2224367" lon="8.1513833"><ele>52.0</ele><time>2026-04-24T13:59:45.923Z</time></trkpt><trkpt lat="34.2222717" lon="8.1513917"><ele>52.0</ele><time>2026-04-24T13:59:46.923Z</time></trkpt><trkpt lat="34.2221067" lon="8.1514"><ele>52.0</ele><time>2026-04-24T13:59:47.923Z</time></trkpt><trkpt lat="34.2219383" lon="8.1514167"><ele>52.0</ele><time>2026-04-24T13:59:48.923Z</time></trkpt><trkpt lat="34.2217767" lon="8.1514283"><ele>52.0</ele><time>2026-04-24T13:59:49.922Z</time></trkpt><trkpt lat="34.22162" lon="8.1514417"><ele>52.0</ele><time>2026-04-24T13:59:50.923Z</time></trkpt><trkpt lat="34.22146" lon="8.1514617"><ele>52.0</ele><time>2026-04-24T13:59:51.922Z</time></trkpt><trkpt lat="34.2213017" lon="8.1514733"><ele>51.33333333333333</ele><time>2026-04-24T13:59:52.923Z</time></trkpt><trkpt lat="34.2211367" lon="8.15149"><ele>50.66666666666667</ele><time>2026-04-24T13:59:53.923Z</time></trkpt><trkpt lat="34.2209733" lon="8.15151"><ele>50.0</ele><time>2026-04-24T13:59:54.923Z</time></trkpt><trkpt lat="34.2208133" lon="8.1515283"><ele>49.333333333333336</ele><time>2026-04-24T13:59:55.923Z</time></trkpt><trkpt lat="34.2206567" lon="8.1515467"><ele>48.66666666666667</ele><time>2026-04-24T13:59:56.923Z</time></trkpt><trkpt lat="34.2204983" lon="8.1515633"><ele>48.0</ele><time>2026-04-24T13:59:57.923Z</time></trkpt><trkpt lat="34.220345" lon="8.1515817"><ele>48.0</ele><time>2026-04-24T13:59:58.923Z</time></trkpt><trkpt lat="34.2201883" lon="8.1515983"><ele>48.0</ele><time>2026-04-24T13:59:59.923Z</time></trkpt><trkpt lat="34.220035" lon="8.1516183"><ele>48.0</ele><time>2026-04-24T14:00:00.922Z</time></trkpt><trkpt lat="34.21988" lon="8.15163"><ele>47.333333333333336</ele><time>2026-04-24T14:00:01.923Z</time></trkpt><trkpt lat="34.2197267" lon="8.1516383"><ele>46.66666666666667</ele><time>2026-04-24T14:00:02.922Z</time></trkpt><trkpt lat="34.21957" lon="8.1516433"><ele>46.0</ele><time>2026-04-24T14:00:03.922Z</time></trkpt><trkpt lat="34.2194233" lon="8.151655"><ele>46.0</ele><time>2026-04-24T14:00:04.923Z</time></trkpt><trkpt lat="34.21927" lon="8.1516683"><ele>46.0</ele><time>2026-04-24T14:00:05.923Z</time></trkpt><trkpt lat="34.219125" lon="8.151685"><ele>46.0</ele><time>2026-04-24T14:00:06.922Z</time></trkpt><trkpt lat="34.2189767" lon="8.1517"><ele>46.0</ele><time>2026-04-24T14:00:07.922Z</time></trkpt><trkpt lat="34.2188217" lon="8.1517117"><ele>46.0</ele><time>2026-04-24T14:00:08.923Z</time></trkpt><trkpt lat="34.21867" lon="8.1517233"><ele>46.0</ele><time>2026-04-24T14:00:09.923Z</time></trkpt><trkpt lat="34.218515" lon="8.151735"><ele>46.0</ele><time>2026-04-24T14:00:10.922Z</time></trkpt><trkpt lat="34.21836" lon="8.1517367"><ele>46.0</ele><time>2026-04-24T14:00:11.922Z</time></trkpt><trkpt lat="34.2182067" lon="8.1517517"><ele>46.0</ele><time>2026-04-24T14:00:12.923Z</time></trkpt><trkpt lat="34.2180517" lon="8.1517533"><ele>46.0</ele><time>2026-04-24T14:00:13.923Z</time></trkpt><trkpt lat="34.217895" lon="8.15176"><ele>45.5</ele><time>2026-04-24T14:00:14.923Z</time></trkpt><trkpt lat="34.21775" lon="8.1517683"><ele>45.0</ele><time>2026-04-24T14:00:15.923Z</time></trkpt><trkpt lat="34.21762" lon="8.1517817"><ele>44.5</ele><time>2026-04-24T14:00:16.923Z</time></trkpt><trkpt lat="34.2174933" lon="8.1517967"><ele>44.0</ele><time>2026-04-24T14:00:17.923Z</time></trkpt><trkpt lat="34.2173667" lon="8.15181"><ele>43.75</ele><time>2026-04-24T14:00:18.923Z</time></trkpt><trkpt lat="34.2172283" lon="8.1518283"><ele>43.5</ele><time>2026-04-24T14:00:19.922Z</time></trkpt><trkpt lat="34.217085" lon="8.1518467"><ele>43.25</ele><time>2026-04-24T14:00:20.922Z</time></trkpt><trkpt lat="34.216945" lon="8.1518683"><ele>43.0</ele><time>2026-04-24T14:00:21.923Z</time></trkpt><trkpt lat="34.2168083" lon="8.1518867"><ele>43.0</ele><time>2026-04-24T14:00:22.923Z</time></trkpt><trkpt lat="34.2166633" lon="8.1519033"><ele>43.0</ele><time>2026-04-24T14:00:23.923Z</time></trkpt><trkpt lat="34.2165167" lon="8.15191"><ele>43.0</ele><time>2026-04-24T14:00:24.923Z</time></trkpt><trkpt lat="34.2163717" lon="8.15193"><ele>43.0</ele><time>2026-04-24T14:00:25.923Z</time></trkpt><trkpt lat="34.2162217" lon="8.1519433"><ele>43.333333333333336</ele><time>2026-04-24T14:00:26.923Z</time></trkpt><trkpt lat="34.21607" lon="8.1519583"><ele>43.666666666666664</ele><time>2026-04-24T14:00:27.923Z</time></trkpt><trkpt lat="34.2159083" lon="8.1519683"><ele>44.0</ele><time>2026-04-24T14:00:28.922Z</time></trkpt><trkpt lat="34.215745" lon="8.1519883"><ele>43.666666666666664</ele><time>2026-04-24T14:00:29.922Z</time></trkpt><trkpt lat="34.2155783" lon="8.1520083"><ele>43.333333333333336</ele><time>2026-04-24T14:00:30.923Z</time></trkpt><trkpt lat="34.2154117" lon="8.1520283"><ele>43.0</ele><time>2026-04-24T14:00:31.923Z</time></trkpt><trkpt lat="34.21525" lon="8.1520417"><ele>43.0</ele><time>2026-04-24T14:00:32.923Z</time></trkpt><trkpt lat="34.215085" lon="8.152055"><ele>43.0</ele><time>2026-04-24T14:00:33.923Z</time></trkpt><trkpt lat="34.2149267" lon="8.1520717"><ele>43.0</ele><time>2026-04-24T14:00:34.923Z</time></trkpt><trkpt lat="34.2147633" lon="8.1520883"><ele>43.0</ele><time>2026-04-24T14:00:35.922Z</time></trkpt><trkpt lat="34.2145967" lon="8.152105"><ele>43.0</ele><time>2026-04-24T14:00:36.923Z</time></trkpt><trkpt lat="34.2144317" lon="8.1521233"><ele>43.0</ele><time>2026-04-24T14:00:37.923Z</time></trkpt><trkpt lat="34.2142683" lon="8.1521433"><ele>43.0</ele><time>2026-04-24T14:00:38.922Z</time></trkpt><trkpt lat="34.2140983" lon="8.1521633"><ele>43.0</ele><time>2026-04-24T14:00:39.923Z</time></trkpt><trkpt lat="34.21393" lon="8.1521933"><ele>43.0</ele><time>2026-04-24T14:00:40.923Z</time></trkpt><trkpt lat="34.2137567" lon="8.1522233"><ele>42.66666666666667</ele><time>2026-04-24T14:00:41.923Z</time></trkpt><trkpt lat="34.213585" lon="8.1522567"><ele>42.333333333333336</ele><time>2026-04-24T14:00:42.923Z</time></trkpt><trkpt lat="34.2134133" lon="8.15229"><ele>42.0</ele><time>2026-04-24T14:00:43.923Z</time></trkpt><trkpt lat="34.2132367" lon="8.1523233"><ele>41.666666666666664</ele><time>2026-04-24T14:00:44.922Z</time></trkpt><trkpt lat="34.2130567" lon="8.15235"><ele>41.33333333333333</ele><time>2026-04-24T14:00:45.922Z</time></trkpt><trkpt lat="34.212875" lon="8.1523767"><ele>41.0</ele><time>2026-04-24T14:00:46.923Z</time></trkpt><trkpt lat="34.2126917" lon="8.1523983"><ele>41.0</ele><time>2026-04-24T14:00:47.922Z</time></trkpt><trkpt lat="34.21251" lon="8.1524267"><ele>41.0</ele><time>2026-04-24T14:00:48.923Z</time></trkpt><trkpt lat="34.2123367" lon="8.152455"><ele>41.0</ele><time>2026-04-24T14:00:49.923Z</time></trkpt><trkpt lat="34.212155" lon="8.1524833"><ele>40.33333333333333</ele><time>2026-04-24T14:00:50.923Z</time></trkpt><trkpt lat="34.2119733" lon="8.1525133"><ele>39.666666666666664</ele><time>2026-04-24T14:00:51.923Z</time></trkpt><trkpt lat="34.2117933" lon="8.1525467"><ele>39.0</ele><time>2026-04-24T14:00:52.923Z</time></trkpt><trkpt lat="34.2116133" lon="8.1525783"><ele>38.0</ele><time>2026-04-24T14:00:53.923Z</time></trkpt><trkpt lat="34.2114367" lon="8.15261"><ele>37.0</ele><time>2026-04-24T14:00:54.922Z</time></trkpt><trkpt lat="34.2112567" lon="8.1526383"><ele>36.0</ele><time>2026-04-24T14:00:55.923Z</time></trkpt><trkpt lat="34.2110733" lon="8.152675"><ele>36.0</ele><time>2026-04-24T14:00:56.923Z</time></trkpt><trkpt lat="34.2108933" lon="8.15271"><ele>36.0</ele><time>2026-04-24T14:00:57.922Z</time></trkpt><trkpt lat="34.2107133" lon="8.1527517"><ele>36.0</ele><time>2026-04-24T14:00:58.923Z</time></trkpt><trkpt lat="34.2105383" lon="8.1527833"><ele>36.0</ele><time>2026-04-24T14:00:59.922Z</time></trkpt><trkpt lat="34.2103767" lon="8.1528167"><ele>36.0</ele><time>2026-04-24T14:01:00.923Z</time></trkpt><trkpt lat="34.21022" lon="8.1528483"><ele>36.0</ele><time>2026-04-24T14:01:01.922Z</time></trkpt><trkpt lat="34.2100767" lon="8.1528633"><ele>36.0</ele><time>2026-04-24T14:01:02.923Z</time></trkpt><trkpt lat="34.20994" lon="8.1528883"><ele>36.0</ele><time>2026-04-24T14:01:03.923Z</time></trkpt><trkpt lat="34.20981" lon="8.1529117"><ele>36.0</ele><time>2026-04-24T14:01:04.923Z</time></trkpt><trkpt lat="34.2096833" lon="8.1529317"><ele>36.0</ele><time>2026-04-24T14:01:05.922Z</time></trkpt><trkpt lat="34.20956" lon="8.1529533"><ele>36.0</ele><time>2026-04-24T14:01:06.923Z</time></trkpt><trkpt lat="34.2094383" lon="8.1529767"><ele>36.0</ele><time>2026-04-24T14:01:07.922Z</time></trkpt><trkpt lat="34.20932" lon="8.152995"><ele>36.0</ele><time>2026-04-24T14:01:08.923Z</time></trkpt><trkpt lat="34.2091983" lon="8.1530183"><ele>36.0</ele><time>2026-04-24T14:01:09.923Z</time></trkpt><trkpt lat="34.2090733" lon="8.15304"><ele>36.0</ele><time>2026-04-24T14:01:10.922Z</time></trkpt><trkpt lat="34.208945" lon="8.1530583"><ele>36.0</ele><time>2026-04-24T14:01:11.922Z</time></trkpt><trkpt lat="34.2088133" lon="8.1530783"><ele>36.0</ele><time>2026-04-24T14:01:12.922Z</time></trkpt><trkpt lat="34.2086767" lon="8.1531033"><ele>36.0</ele><time>2026-04-24T14:01:13.922Z</time></trkpt><trkpt lat="34.208535" lon="8.1531333"><ele>36.0</ele><time>2026-04-24T14:01:14.923Z</time></trkpt><trkpt lat="34.2083967" lon="8.1531667"><ele>36.0</ele><time>2026-04-24T14:01:15.923Z</time></trkpt><trkpt lat="34.2082533" lon="8.153195"><ele>36.0</ele><time>2026-04-24T14:01:16.921Z</time></trkpt><trkpt lat="34.2081067" lon="8.153225"><ele>36.0</ele><time>2026-04-24T14:01:17.922Z</time></trkpt><trkpt lat="34.20796" lon="8.1532517"><ele>35.0</ele><time>2026-04-24T14:01:18.922Z</time></trkpt><trkpt lat="34.2078117" lon="8.1532767"><ele>34.0</ele><time>2026-04-24T14:01:19.922Z</time></trkpt><trkpt lat="34.2076617" lon="8.153305"><ele>33.0</ele><time>2026-04-24T14:01:20.922Z</time></trkpt><trkpt lat="34.207515" lon="8.1533317"><ele>33.0</ele><time>2026-04-24T14:01:21.922Z</time></trkpt><trkpt lat="34.2073633" lon="8.1533583"><ele>33.0</ele><time>2026-04-24T14:01:22.922Z</time></trkpt><trkpt lat="34.2072083" lon="8.1533833"><ele>33.0</ele><time>2026-04-24T14:01:23.922Z</time></trkpt><trkpt lat="34.2070567" lon="8.15341"><ele>32.666666666666664</ele><time>2026-04-24T14:01:24.921Z</time></trkpt><trkpt lat="34.2069" lon="8.1534383"><ele>32.33333333333333</ele><time>2026-04-24T14:01:25.921Z</time></trkpt><trkpt lat="34.2067483" lon="8.1534617"><ele>32.0</ele><time>2026-04-24T14:01:26.921Z</time></trkpt><trkpt lat="34.206595" lon="8.1534883"><ele>31.333333333333332</ele><time>2026-04-24T14:01:27.922Z</time></trkpt><trkpt lat="34.2064367" lon="8.15352"><ele>30.666666666666664</ele><time>2026-04-24T14:01:28.922Z</time></trkpt><trkpt lat="34.2062767" lon="8.15355"><ele>30.0</ele><time>2026-04-24T14:01:29.922Z</time></trkpt><trkpt lat="34.20612" lon="8.1535767"><ele>30.0</ele><time>2026-04-24T14:01:30.922Z</time></trkpt><trkpt lat="34.20596" lon="8.1536083"><ele>30.0</ele><time>2026-04-24T14:01:31.922Z</time></trkpt><trkpt lat="34.205805" lon="8.1536317"><ele>30.0</ele><time>2026-04-24T14:01:32.922Z</time></trkpt><trkpt lat="34.2056483" lon="8.1536567"><ele>30.0</ele><time>2026-04-24T14:01:33.922Z</time></trkpt><trkpt lat="34.20549" lon="8.1536867"><ele>30.0</ele><time>2026-04-24T14:01:34.922Z</time></trkpt><trkpt lat="34.2053383" lon="8.1537117"><ele>30.0</ele><time>2026-04-24T14:01:35.922Z</time></trkpt><trkpt lat="34.2051867" lon="8.15374"><ele>30.0</ele><time>2026-04-24T14:01:36.922Z</time></trkpt><trkpt lat="34.20503" lon="8.1537733"><ele>30.0</ele><time>2026-04-24T14:01:37.922Z</time></trkpt><trkpt lat="34.204875" lon="8.1538083"><ele>30.0</ele><time>2026-04-24T14:01:38.922Z</time></trkpt><trkpt lat="34.20472" lon="8.1538367"><ele>29.5</ele><time>2026-04-24T14:01:39.922Z</time></trkpt><trkpt lat="34.20458" lon="8.153855"><ele>29.0</ele><time>2026-04-24T14:01:40.922Z</time></trkpt><trkpt lat="34.2044517" lon="8.1538733"><ele>28.5</ele><time>2026-04-24T14:01:41.921Z</time></trkpt><trkpt lat="34.2043367" lon="8.1539"><ele>28.0</ele><time>2026-04-24T14:01:42.921Z</time></trkpt><trkpt lat="34.2042317" lon="8.15392"><ele>28.000000000000004</ele><time>2026-04-24T14:01:43.922Z</time></trkpt><trkpt lat="34.2041317" lon="8.153935"><ele>28.0</ele><time>2026-04-24T14:01:44.922Z</time></trkpt><trkpt lat="34.2040467" lon="8.1539433"><ele>28.0</ele><time>2026-04-24T14:01:45.922Z</time></trkpt><trkpt lat="34.2039683" lon="8.153955"><ele>28.0</ele><time>2026-04-24T14:01:46.922Z</time></trkpt><trkpt lat="34.2039017" lon="8.15397"><ele>28.000000000000004</ele><time>2026-04-24T14:01:47.921Z</time></trkpt><trkpt lat="34.2037867" lon="8.1539883"><ele>28.0</ele><time>2026-04-24T14:01:49.922Z</time></trkpt><trkpt lat="34.2036867" lon="8.1540017"><ele>28.0</ele><time>2026-04-24T14:01:51.921Z</time></trkpt><trkpt lat="34.2035917" lon="8.1540183"><ele>28.0</ele><time>2026-04-24T14:01:53.922Z</time></trkpt><trkpt lat="34.2035183" lon="8.154025"><ele>28.0</ele><time>2026-04-24T14:01:55.922Z</time></trkpt><trkpt lat="34.203455" lon="8.15404"><ele>28.0</ele><time>2026-04-24T14:01:58.922Z</time></trkpt><trkpt lat="34.2033917" lon="8.1540567"><ele>28.0</ele><time>2026-04-24T14:02:09.922Z</time></trkpt><trkpt lat="34.2033267" lon="8.1540733"><ele>28.0</ele><time>2026-04-24T14:02:10.922Z</time></trkpt><trkpt lat="34.2032533" lon="8.1540933"><ele>28.0</ele><time>2026-04-24T14:02:11.922Z</time></trkpt><trkpt lat="34.2031733" lon="8.1541133"><ele>27.666666666666668</ele><time>2026-04-24T14:02:12.922Z</time></trkpt><trkpt lat="34.2030867" lon="8.1541267"><ele>27.333333333333336</ele><time>2026-04-24T14:02:13.922Z</time></trkpt><trkpt lat="34.2029967" lon="8.1541367"><ele>27.0</ele><time>2026-04-24T14:02:14.922Z</time></trkpt><trkpt lat="34.2029067" lon="8.1541383"><ele>26.666666666666664</ele><time>2026-04-24T14:02:15.922Z</time></trkpt><trkpt lat="34.2028267" lon="8.1541467"><ele>26.333333333333332</ele><time>2026-04-24T14:02:16.921Z</time></trkpt><trkpt lat="34.2027567" lon="8.154165"><ele>26.0</ele><time>2026-04-24T14:02:17.922Z</time></trkpt><trkpt lat="34.2026917" lon="8.15419"><ele>26.0</ele><time>2026-04-24T14:02:18.922Z</time></trkpt><trkpt lat="34.202625" lon="8.15422"><ele>26.0</ele><time>2026-04-24T14:02:19.922Z</time></trkpt><trkpt lat="34.2025617" lon="8.1542683"><ele>26.0</ele><time>2026-04-24T14:02:20.922Z</time></trkpt><trkpt lat="34.2025083" lon="8.1543183"><ele>26.0</ele><time>2026-04-24T14:02:21.921Z</time></trkpt><trkpt lat="34.202465" lon="8.154385"><ele>26.0</ele><time>2026-04-24T14:02:22.922Z</time></trkpt><trkpt lat="34.2024217" lon="8.1544583"><ele>26.0</ele><time>2026-04-24T14:02:23.921Z</time></trkpt><trkpt lat="34.2023767" lon="8.154535"><ele>26.0</ele><time>2026-04-24T14:02:24.922Z</time></trkpt><trkpt lat="34.202335" lon="8.1546167"><ele>26.4</ele><time>2026-04-24T14:02:25.922Z</time></trkpt><trkpt lat="34.2023" lon="8.1546833"><ele>26.8</ele><time>2026-04-24T14:02:26.921Z</time></trkpt><trkpt lat="34.202225" lon="8.1547567"><ele>27.199999999999996</ele><time>2026-04-24T14:02:28.922Z</time></trkpt><trkpt lat="34.2021417" lon="8.1547867"><ele>27.599999999999998</ele><time>2026-04-24T14:02:30.922Z</time></trkpt><trkpt lat="34.2020467" lon="8.1547767"><ele>28.0</ele><time>2026-04-24T14:02:32.922Z</time></trkpt><trkpt lat="34.2019333" lon="8.1547367"><ele>28.000000000000004</ele><time>2026-04-24T14:02:34.921Z</time></trkpt><trkpt lat="34.20186" lon="8.1547067"><ele>28.0</ele><time>2026-04-24T14:02:35.922Z</time></trkpt><trkpt lat="34.201785" lon="8.1546717"><ele>28.0</ele><time>2026-04-24T14:02:36.922Z</time></trkpt><trkpt lat="34.2017133" lon="8.1546267"><ele>28.0</ele><time>2026-04-24T14:02:37.921Z</time></trkpt><trkpt lat="34.2016367" lon="8.154585"><ele>28.000000000000004</ele><time>2026-04-24T14:02:38.922Z</time></trkpt><trkpt lat="34.2015583" lon="8.1545367"><ele>28.0</ele><time>2026-04-24T14:02:39.922Z</time></trkpt><trkpt lat="34.20147" lon="8.1544917"><ele>28.2</ele><time>2026-04-24T14:02:40.922Z</time></trkpt><trkpt lat="34.20138" lon="8.1544533"><ele>28.4</ele><time>2026-04-24T14:02:41.922Z</time></trkpt><trkpt lat="34.2012883" lon="8.154415"><ele>28.599999999999998</ele><time>2026-04-24T14:02:42.922Z</time></trkpt><trkpt lat="34.2011883" lon="8.154365"><ele>28.799999999999997</ele><time>2026-04-24T14:02:43.922Z</time></trkpt><trkpt lat="34.20108" lon="8.1543117"><ele>29.0</ele><time>2026-04-24T14:02:44.922Z</time></trkpt><trkpt lat="34.2009667" lon="8.1542617"><ele>29.0</ele><time>2026-04-24T14:02:45.922Z</time></trkpt><trkpt lat="34.200865" lon="8.1542133"><ele>29.0</ele><time>2026-04-24T14:02:46.922Z</time></trkpt><trkpt lat="34.2007633" lon="8.154165"><ele>29.0</ele><time>2026-04-24T14:02:47.921Z</time></trkpt><trkpt lat="34.2006533" lon="8.1541117"><ele>29.0</ele><time>2026-04-24T14:02:48.922Z</time></trkpt><trkpt lat="34.2005433" lon="8.1540567"><ele>28.25</ele><time>2026-04-24T14:02:49.922Z</time></trkpt><trkpt lat="34.2004217" lon="8.154015"><ele>27.5</ele><time>2026-04-24T14:02:50.922Z</time></trkpt><trkpt lat="34.2003117" lon="8.1539683"><ele>26.75</ele><time>2026-04-24T14:02:51.921Z</time></trkpt><trkpt lat="34.200205" lon="8.1539133"><ele>26.0</ele><time>2026-04-24T14:02:52.922Z</time></trkpt><trkpt lat="34.200095" lon="8.15386"><ele>26.0</ele><time>2026-04-24T14:02:53.922Z</time></trkpt><trkpt lat="34.19998" lon="8.1538067"><ele>26.0</ele><time>2026-04-24T14:02:54.922Z</time></trkpt><trkpt lat="34.1998567" lon="8.15377"><ele>26.0</ele><time>2026-04-24T14:02:55.922Z</time></trkpt><trkpt lat="34.1997417" lon="8.1537317"><ele>26.0</ele><time>2026-04-24T14:02:56.922Z</time></trkpt><trkpt lat="34.199635" lon="8.1537017"><ele>26.0</ele><time>2026-04-24T14:02:57.922Z</time></trkpt><trkpt lat="34.1995133" lon="8.1536833"><ele>26.0</ele><time>2026-04-24T14:02:58.922Z</time></trkpt><trkpt lat="34.1993967" lon="8.15367"><ele>26.0</ele><time>2026-04-24T14:02:59.922Z</time></trkpt><trkpt lat="34.199285" lon="8.1536667"><ele>26.0</ele><time>2026-04-24T14:03:00.922Z</time></trkpt><trkpt lat="34.19917" lon="8.15367"><ele>25.999999999999996</ele><time>2026-04-24T14:03:01.922Z</time></trkpt><trkpt lat="34.1990617" lon="8.15368"><ele>26.0</ele><time>2026-04-24T14:03:02.922Z</time></trkpt><trkpt lat="34.1989617" lon="8.153695"><ele>26.0</ele><time>2026-04-24T14:03:03.922Z</time></trkpt><trkpt lat="34.1988767" lon="8.1537017"><ele>26.0</ele><time>2026-04-24T14:03:04.922Z</time></trkpt><trkpt lat="34.1987983" lon="8.1537017"><ele>25.999999999999996</ele><time>2026-04-24T14:03:05.922Z</time></trkpt><trkpt lat="34.1987283" lon="8.153685"><ele>26.0</ele><time>2026-04-24T14:03:06.922Z</time></trkpt><trkpt lat="34.19866" lon="8.15364"><ele>25.8</ele><time>2026-04-24T14:03:07.922Z</time></trkpt><trkpt lat="34.1985983" lon="8.1535783"><ele>25.6</ele><time>2026-04-24T14:03:08.922Z</time></trkpt><trkpt lat="34.1985367" lon="8.1534983"><ele>25.4</ele><time>2026-04-24T14:03:09.922Z</time></trkpt><trkpt lat="34.1984567" lon="8.1534117"><ele>25.2</ele><time>2026-04-24T14:03:10.922Z</time></trkpt><trkpt lat="34.1983583" lon="8.1533333"><ele>25.0</ele><time>2026-04-24T14:03:11.922Z</time></trkpt><trkpt lat="34.19825" lon="8.153265"><ele>24.75</ele><time>2026-04-24T14:03:12.922Z</time></trkpt><trkpt lat="34.1981333" lon="8.1532067"><ele>24.5</ele><time>2026-04-24T14:03:13.921Z</time></trkpt><trkpt lat="34.19801" lon="8.153155"><ele>24.25</ele><time>2026-04-24T14:03:14.922Z</time></trkpt><trkpt lat="34.197885" lon="8.1531017"><ele>24.0</ele><time>2026-04-24T14:03:15.922Z</time></trkpt><trkpt lat="34.1977617" lon="8.153055"><ele>24.0</ele><time>2026-04-24T14:03:16.922Z</time></trkpt><trkpt lat="34.1976417" lon="8.15301"><ele>24.0</ele><time>2026-04-24T14:03:17.922Z</time></trkpt><trkpt lat="34.1975117" lon="8.1529683"><ele>24.0</ele><time>2026-04-24T14:03:18.922Z</time></trkpt><trkpt lat="34.1973817" lon="8.1529267"><ele>24.0</ele><time>2026-04-24T14:03:19.922Z</time></trkpt><trkpt lat="34.1972517" lon="8.152905"><ele>24.0</ele><time>2026-04-24T14:03:20.922Z</time></trkpt><trkpt lat="34.197115" lon="8.1528933"><ele>24.0</ele><time>2026-04-24T14:03:21.921Z</time></trkpt><trkpt lat="34.196985" lon="8.1528767"><ele>24.0</ele><time>2026-04-24T14:03:22.922Z</time></trkpt><trkpt lat="34.1968617" lon="8.1528583"><ele>24.0</ele><time>2026-04-24T14:03:23.922Z</time></trkpt><trkpt lat="34.19673" lon="8.152855"><ele>24.0</ele><time>2026-04-24T14:03:24.922Z</time></trkpt><trkpt lat="34.1966" lon="8.15285"><ele>24.0</ele><time>2026-04-24T14:03:25.922Z</time></trkpt><trkpt lat="34.1964767" lon="8.15284"><ele>24.0</ele><time>2026-04-24T14:03:26.921Z</time></trkpt><trkpt lat="34.196355" lon="8.1528167"><ele>24.0</ele><time>2026-04-24T14:03:27.922Z</time></trkpt><trkpt lat="34.196235" lon="8.1527867"><ele>23.75</ele><time>2026-04-24T14:03:28.922Z</time></trkpt><trkpt lat="34.196115" lon="8.15273"><ele>23.5</ele><time>2026-04-24T14:03:29.921Z</time></trkpt><trkpt lat="34.195995" lon="8.1526517"><ele>23.25</ele><time>2026-04-24T14:03:30.922Z</time></trkpt><trkpt lat="34.195885" lon="8.1525733"><ele>23.0</ele><time>2026-04-24T14:03:31.922Z</time></trkpt><trkpt lat="34.1957633" lon="8.152485"><ele>23.25</ele><time>2026-04-24T14:03:32.921Z</time></trkpt><trkpt lat="34.19564" lon="8.1523983"><ele>23.5</ele><time>2026-04-24T14:03:33.922Z</time></trkpt><trkpt lat="34.1955133" lon="8.1523133"><ele>23.75</ele><time>2026-04-24T14:03:34.922Z</time></trkpt><trkpt lat="34.19539" lon="8.1522233"><ele>24.0</ele><time>2026-04-24T14:03:35.921Z</time></trkpt><trkpt lat="34.1952633" lon="8.1521283"><ele>23.333333333333332</ele><time>2026-04-24T14:03:36.921Z</time></trkpt><trkpt lat="34.1951333" lon="8.1520433"><ele>22.666666666666664</ele><time>2026-04-24T14:03:37.922Z</time></trkpt><trkpt lat="34.194995" lon="8.1519483"><ele>22.0</ele><time>2026-04-24T14:03:38.922Z</time></trkpt><trkpt lat="34.19487" lon="8.1518433"><ele>21.666666666666664</ele><time>2026-04-24T14:03:39.922Z</time></trkpt><trkpt lat="34.194745" lon="8.1517267"><ele>21.333333333333332</ele><time>2026-04-24T14:03:40.922Z</time></trkpt><trkpt lat="34.19462" lon="8.1515983"><ele>21.0</ele><time>2026-04-24T14:03:41.921Z</time></trkpt><trkpt lat="34.1945" lon="8.1514817"><ele>20.666666666666668</ele><time>2026-04-24T14:03:42.921Z</time></trkpt><trkpt lat="34.1943667" lon="8.1513533"><ele>20.333333333333336</ele><time>2026-04-24T14:03:43.922Z</time></trkpt><trkpt lat="34.1942417" lon="8.1512217"><ele>20.0</ele><time>2026-04-24T14:03:44.922Z</time></trkpt><trkpt lat="34.194115" lon="8.1511133"><ele>20.0</ele><time>2026-04-24T14:03:45.921Z</time></trkpt><trkpt lat="34.1939933" lon="8.1509983"><ele>20.0</ele><time>2026-04-24T14:03:46.922Z</time></trkpt><trkpt lat="34.1938667" lon="8.15088"><ele>20.0</ele><time>2026-04-24T14:03:47.922Z</time></trkpt><trkpt lat="34.1937333" lon="8.15076"><ele>19.666666666666668</ele><time>2026-04-24T14:03:48.922Z</time></trkpt><trkpt lat="34.1936117" lon="8.15063"><ele>19.333333333333332</ele><time>2026-04-24T14:03:49.921Z</time></trkpt><trkpt lat="34.19349" lon="8.1505033"><ele>19.0</ele><time>2026-04-24T14:03:50.922Z</time></trkpt><trkpt lat="34.193365" lon="8.1503783"><ele>19.0</ele><time>2026-04-24T14:03:51.922Z</time></trkpt><trkpt lat="34.1932367" lon="8.15025"><ele>19.0</ele><time>2026-04-24T14:03:52.922Z</time></trkpt><trkpt lat="34.1931133" lon="8.1501167"><ele>19.0</ele><time>2026-04-24T14:03:53.922Z</time></trkpt><trkpt lat="34.1930033" lon="8.1499983"><ele>18.8</ele><time>2026-04-24T14:03:54.922Z</time></trkpt><trkpt lat="34.1929017" lon="8.14988"><ele>18.599999999999998</ele><time>2026-04-24T14:03:55.922Z</time></trkpt><trkpt lat="34.192805" lon="8.1497867"><ele>18.4</ele><time>2026-04-24T14:03:56.922Z</time></trkpt><trkpt lat="34.1927283" lon="8.1497233"><ele>18.2</ele><time>2026-04-24T14:03:57.922Z</time></trkpt><trkpt lat="34.19265" lon="8.1496833"><ele>18.0</ele><time>2026-04-24T14:03:58.922Z</time></trkpt><trkpt lat="34.1925833" lon="8.1496533"><ele>18.0</ele><time>2026-04-24T14:03:59.922Z</time></trkpt><trkpt lat="34.19251" lon="8.149615"><ele>18.0</ele><time>2026-04-24T14:04:00.922Z</time></trkpt><trkpt lat="34.19244" lon="8.1495567"><ele>18.0</ele><time>2026-04-24T14:04:01.922Z</time></trkpt><trkpt lat="34.1923767" lon="8.1494667"><ele>18.0</ele><time>2026-04-24T14:04:02.922Z</time></trkpt><trkpt lat="34.1923183" lon="8.1493533"><ele>18.0</ele><time>2026-04-24T14:04:03.922Z</time></trkpt><trkpt lat="34.192255" lon="8.1492283"><ele>18.25</ele><time>2026-04-24T14:04:04.922Z</time></trkpt><trkpt lat="34.1921733" lon="8.1491"><ele>18.5</ele><time>2026-04-24T14:04:05.921Z</time></trkpt><trkpt lat="34.1920817" lon="8.1489833"><ele>18.75</ele><time>2026-04-24T14:04:06.922Z</time></trkpt><trkpt lat="34.1919833" lon="8.148875"><ele>19.0</ele><time>2026-04-24T14:04:07.921Z</time></trkpt><trkpt lat="34.1918733" lon="8.148765"><ele>18.333333333333332</ele><time>2026-04-24T14:04:08.921Z</time></trkpt><trkpt lat="34.19176" lon="8.14865"><ele>17.666666666666668</ele><time>2026-04-24T14:04:09.922Z</time></trkpt><trkpt lat="34.1916467" lon="8.14853"><ele>17.0</ele><time>2026-04-24T14:04:10.921Z</time></trkpt><trkpt lat="34.1915317" lon="8.1484083"><ele>17.0</ele><time>2026-04-24T14:04:11.922Z</time></trkpt><trkpt lat="34.1914117" lon="8.1482917"><ele>17.0</ele><time>2026-04-24T14:04:12.922Z</time></trkpt><trkpt lat="34.1912867" lon="8.1481733"><ele>17.0</ele><time>2026-04-24T14:04:13.922Z</time></trkpt><trkpt lat="34.19117" lon="8.1480533"><ele>17.0</ele><time>2026-04-24T14:04:14.921Z</time></trkpt><trkpt lat="34.191045" lon="8.1479367"><ele>17.0</ele><time>2026-04-24T14:04:15.922Z</time></trkpt><trkpt lat="34.190915" lon="8.1478083"><ele>17.0</ele><time>2026-04-24T14:04:16.921Z</time></trkpt><trkpt lat="34.1907867" lon="8.1476817"><ele>17.0</ele><time>2026-04-24T14:04:17.922Z</time></trkpt><trkpt lat="34.1906617" lon="8.1475617"><ele>17.0</ele><time>2026-04-24T14:04:18.921Z</time></trkpt><trkpt lat="34.19053" lon="8.1474367"><ele>17.0</ele><time>2026-04-24T14:04:19.921Z</time></trkpt><trkpt lat="34.1903967" lon="8.14731"><ele>16.333333333333336</ele><time>2026-04-24T14:04:20.922Z</time></trkpt><trkpt lat="34.1902683" lon="8.1471933"><ele>15.666666666666668</ele><time>2026-04-24T14:04:21.922Z</time></trkpt><trkpt lat="34.1901433" lon="8.1470717"><ele>15.0</ele><time>2026-04-24T14:04:22.921Z</time></trkpt><trkpt lat="34.19001" lon="8.1469483"><ele>15.0</ele><time>2026-04-24T14:04:23.921Z</time></trkpt><trkpt lat="34.18986" lon="8.146825"><ele>15.0</ele><time>2026-04-24T14:04:24.922Z</time></trkpt><trkpt lat="34.1897233" lon="8.146715"><ele>15.0</ele><time>2026-04-24T14:04:25.922Z</time></trkpt><trkpt lat="34.189585" lon="8.1466133"><ele>14.666666666666668</ele><time>2026-04-24T14:04:26.922Z</time></trkpt><trkpt lat="34.18944" lon="8.14649"><ele>14.333333333333334</ele><time>2026-04-24T14:04:27.921Z</time></trkpt><trkpt lat="34.189305" lon="8.14636"><ele>14.0</ele><time>2026-04-24T14:04:28.921Z</time></trkpt><trkpt lat="34.1891733" lon="8.14624"><ele>14.0</ele><time>2026-04-24T14:04:29.922Z</time></trkpt><trkpt lat="34.1890283" lon="8.146125"><ele>14.0</ele><time>2026-04-24T14:04:30.922Z</time></trkpt><trkpt lat="34.1888833" lon="8.14601"><ele>14.0</ele><time>2026-04-24T14:04:31.922Z</time></trkpt><trkpt lat="34.1887433" lon="8.1458967"><ele>14.0</ele><time>2026-04-24T14:04:32.922Z</time></trkpt><trkpt lat="34.1886117" lon="8.1457767"><ele>14.0</ele><time>2026-04-24T14:04:33.921Z</time></trkpt><trkpt lat="34.188475" lon="8.1456583"><ele>14.0</ele><time>2026-04-24T14:04:34.921Z</time></trkpt><trkpt lat="34.1883467" lon="8.1455417"><ele>13.666666666666668</ele><time>2026-04-24T14:04:35.921Z</time></trkpt><trkpt lat="34.1882267" lon="8.1454117"><ele>13.333333333333332</ele><time>2026-04-24T14:04:36.921Z</time></trkpt><trkpt lat="34.188105" lon="8.1452933"><ele>13.0</ele><time>2026-04-24T14:04:37.922Z</time></trkpt><trkpt lat="34.1879917" lon="8.1451867"><ele>13.0</ele><time>2026-04-24T14:04:38.922Z</time></trkpt><trkpt lat="34.187865" lon="8.1450733"><ele>13.0</ele><time>2026-04-24T14:04:39.922Z</time></trkpt><trkpt lat="34.18773" lon="8.1449633"><ele>13.0</ele><time>2026-04-24T14:04:40.922Z</time></trkpt><trkpt lat="34.187595" lon="8.14485"><ele>13.0</ele><time>2026-04-24T14:04:41.921Z</time></trkpt><trkpt lat="34.1874633" lon="8.14473"><ele>13.0</ele><time>2026-04-24T14:04:42.922Z</time></trkpt><trkpt lat="34.18733" lon="8.1446133"><ele>13.0</ele><time>2026-04-24T14:04:43.922Z</time></trkpt><trkpt lat="34.1871933" lon="8.1444983"><ele>13.0</ele><time>2026-04-24T14:04:44.922Z</time></trkpt><trkpt lat="34.1870633" lon="8.14439"><ele>13.0</ele><time>2026-04-24T14:04:45.922Z</time></trkpt><trkpt lat="34.18693" lon="8.1442683"><ele>13.0</ele><time>2026-04-24T14:04:46.921Z</time></trkpt><trkpt lat="34.186795" lon="8.144145"><ele>12.666666666666666</ele><time>2026-04-24T14:04:47.922Z</time></trkpt><trkpt lat="34.1866617" lon="8.1440317"><ele>12.333333333333332</ele><time>2026-04-24T14:04:48.921Z</time></trkpt><trkpt lat="34.18653" lon="8.14391"><ele>12.0</ele><time>2026-04-24T14:04:49.922Z</time></trkpt><trkpt lat="34.1864033" lon="8.1438067"><ele>11.0</ele><time>2026-04-24T14:04:50.922Z</time></trkpt><trkpt lat="34.1862717" lon="8.143695"><ele>10.0</ele><time>2026-04-24T14:04:51.922Z</time></trkpt><trkpt lat="34.186145" lon="8.1435817"><ele>9.0</ele><time>2026-04-24T14:04:52.922Z</time></trkpt><trkpt lat="34.1860117" lon="8.1434767"><ele>9.0</ele><time>2026-04-24T14:04:53.922Z</time></trkpt><trkpt lat="34.185885" lon="8.14336"><ele>9.0</ele><time>2026-04-24T14:04:54.921Z</time></trkpt><trkpt lat="34.1857467" lon="8.143255"><ele>9.0</ele><time>2026-04-24T14:04:55.921Z</time></trkpt><trkpt lat="34.1856117" lon="8.1431433"><ele>9.2</ele><time>2026-04-24T14:04:56.921Z</time></trkpt><trkpt lat="34.1855083" lon="8.1430633"><ele>9.4</ele><time>2026-04-24T14:04:57.922Z</time></trkpt><trkpt lat="34.1854283" lon="8.1429933"><ele>9.6</ele><time>2026-04-24T14:04:58.921Z</time></trkpt><trkpt lat="34.1853583" lon="8.142925"><ele>9.8</ele><time>2026-04-24T14:04:59.921Z</time></trkpt><trkpt lat="34.185275" lon="8.14285"><ele>10.0</ele><time>2026-04-24T14:05:00.921Z</time></trkpt><trkpt lat="34.1851683" lon="8.1427633"><ele>10.0</ele><time>2026-04-24T14:05:01.921Z</time></trkpt><trkpt lat="34.1850433" lon="8.14268"><ele>10.0</ele><time>2026-04-24T14:05:02.922Z</time></trkpt><trkpt lat="34.1849033" lon="8.1425883"><ele>10.0</ele><time>2026-04-24T14:05:03.922Z</time></trkpt><trkpt lat="34.1847717" lon="8.1424817"><ele>9.0</ele><time>2026-04-24T14:05:04.922Z</time></trkpt><trkpt lat="34.18464" lon="8.1423733"><ele>8.0</ele><time>2026-04-24T14:05:05.922Z</time></trkpt><trkpt lat="34.1845067" lon="8.1422517"><ele>7.0</ele><time>2026-04-24T14:05:06.921Z</time></trkpt><trkpt lat="34.184375" lon="8.1421283"><ele>7.0</ele><time>2026-04-24T14:05:07.922Z</time></trkpt><trkpt lat="34.1842383" lon="8.1420167"><ele>7.0</ele><time>2026-04-24T14:05:08.922Z</time></trkpt><trkpt lat="34.1841033" lon="8.1419017"><ele>7.0</ele><time>2026-04-24T14:05:09.922Z</time></trkpt><trkpt lat="34.1839633" lon="8.1417883"><ele>6.666666666666667</ele><time>2026-04-24T14:05:10.922Z</time></trkpt><trkpt lat="34.183835" lon="8.1416733"><ele>6.333333333333334</ele><time>2026-04-24T14:05:11.921Z</time></trkpt><trkpt lat="34.18369" lon="8.1415617"><ele>6.0</ele><time>2026-04-24T14:05:12.921Z</time></trkpt><trkpt lat="34.1835467" lon="8.1414567"><ele>6.0</ele><time>2026-04-24T14:05:13.921Z</time></trkpt><trkpt lat="34.1834067" lon="8.1413317"><ele>6.0</ele><time>2026-04-24T14:05:14.92Z</time></trkpt><trkpt lat="34.1832683" lon="8.1412183"><ele>6.0</ele><time>2026-04-24T14:05:15.921Z</time></trkpt><trkpt lat="34.1831267" lon="8.1411017"><ele>5.0</ele><time>2026-04-24T14:05:16.921Z</time></trkpt><trkpt lat="34.1829967" lon="8.1409833"><ele>4.0</ele><time>2026-04-24T14:05:17.921Z</time></trkpt><trkpt lat="34.1828683" lon="8.1408483"><ele>3.0</ele><time>2026-04-24T14:05:18.92Z</time></trkpt><trkpt lat="34.182735" lon="8.14072"><ele>3.333333333333333</ele><time>2026-04-24T14:05:19.921Z</time></trkpt><trkpt lat="34.1825983" lon="8.1405933"><ele>3.6666666666666665</ele><time>2026-04-24T14:05:20.921Z</time></trkpt><trkpt lat="34.1824517" lon="8.1404767"><ele>4.0</ele><time>2026-04-24T14:05:21.92Z</time></trkpt><trkpt lat="34.182305" lon="8.140375"><ele>4.333333333333333</ele><time>2026-04-24T14:05:22.921Z</time></trkpt><trkpt lat="34.182155" lon="8.1402667"><ele>4.666666666666667</ele><time>2026-04-24T14:05:23.921Z</time></trkpt><trkpt lat="34.1820283" lon="8.1401333"><ele>5.0</ele><time>2026-04-24T14:05:24.921Z</time></trkpt><trkpt lat="34.1818933" lon="8.1400083"><ele>5.0</ele><time>2026-04-24T14:05:25.921Z</time></trkpt><trkpt lat="34.181755" lon="8.1398883"><ele>5.0</ele><time>2026-04-24T14:05:26.921Z</time></trkpt><trkpt lat="34.1816233" lon="8.13977"><ele>5.0</ele><time>2026-04-24T14:05:27.92Z</time></trkpt><trkpt lat="34.1814967" lon="8.1396633"><ele>4.75</ele><time>2026-04-24T14:05:28.92Z</time></trkpt><trkpt lat="34.1813817" lon="8.1395533"><ele>4.5</ele><time>2026-04-24T14:05:29.921Z</time></trkpt><trkpt lat="34.1812883" lon="8.13944"><ele>4.25</ele><time>2026-04-24T14:05:30.921Z</time></trkpt><trkpt lat="34.181195" lon="8.139315"><ele>4.0</ele><time>2026-04-24T14:05:31.921Z</time></trkpt><trkpt lat="34.1811233" lon="8.1391883"><ele>4.0</ele><time>2026-04-24T14:05:32.921Z</time></trkpt><trkpt lat="34.18102" lon="8.1390883"><ele>4.0</ele><time>2026-04-24T14:05:33.92Z</time></trkpt><trkpt lat="34.1809133" lon="8.1389983"><ele>4.0</ele><time>2026-04-24T14:05:34.921Z</time></trkpt><trkpt lat="34.1807983" lon="8.1389417"><ele>4.0</ele><time>2026-04-24T14:05:35.921Z</time></trkpt><trkpt lat="34.18067" lon="8.13889"><ele>3.25</ele><time>2026-04-24T14:05:36.921Z</time></trkpt><trkpt lat="34.1805483" lon="8.1388367"><ele>2.5</ele><time>2026-04-24T14:05:37.92Z</time></trkpt><trkpt lat="34.1804333" lon="8.1387633"><ele>1.75</ele><time>2026-04-24T14:05:38.921Z</time></trkpt><trkpt lat="34.1803167" lon="8.1386933"><ele>1.0</ele><time>2026-04-24T14:05:39.921Z</time></trkpt><trkpt lat="34.1801983" lon="8.1385967"><ele>1.0</ele><time>2026-04-24T14:05:40.921Z</time></trkpt><trkpt lat="34.180065" lon="8.1384983"><ele>1.0</ele><time>2026-04-24T14:05:41.92Z</time></trkpt><trkpt lat="34.179925" lon="8.1384017"><ele>1.0</ele><time>2026-04-24T14:05:42.921Z</time></trkpt><trkpt lat="34.1797917" lon="8.1383117"><ele>1.0</ele><time>2026-04-24T14:05:43.921Z</time></trkpt><trkpt lat="34.17965" lon="8.1382367"><ele>1.0</ele><time>2026-04-24T14:05:44.92Z</time></trkpt><trkpt lat="34.1795167" lon="8.13816"><ele>1.0</ele><time>2026-04-24T14:05:45.921Z</time></trkpt><trkpt lat="34.1793867" lon="8.138085"><ele>1.0</ele><time>2026-04-24T14:05:46.921Z</time></trkpt><trkpt lat="34.1792567" lon="8.1379967"><ele>1.0</ele><time>2026-04-24T14:05:47.921Z</time></trkpt><trkpt lat="34.179135" lon="8.1379017"><ele>1.0</ele><time>2026-04-24T14:05:48.921Z</time></trkpt><trkpt lat="34.179" lon="8.1377983"><ele>1.0</ele><time>2026-04-24T14:05:49.921Z</time></trkpt><trkpt lat="34.1788733" lon="8.1376867"><ele>-0.33333333333333337</ele><time>2026-04-24T14:05:50.921Z</time></trkpt><trkpt lat="34.1787417" lon="8.1375783"><ele>-1.6666666666666667</ele><time>2026-04-24T14:05:51.921Z</time></trkpt><trkpt lat="34.17861" lon="8.1374617"><ele>-3.0</ele><time>2026-04-24T14:05:52.921Z</time></trkpt><trkpt lat="34.1784867" lon="8.137345"><ele>-3.0</ele><time>2026-04-24T14:05:53.921Z</time></trkpt><trkpt lat="34.17837" lon="8.1372383"><ele>-3.0</ele><time>2026-04-24T14:05:54.921Z</time></trkpt><trkpt lat="34.1782583" lon="8.13714"><ele>-3.0</ele><time>2026-04-24T14:05:55.921Z</time></trkpt><trkpt lat="34.1781617" lon="8.1370283"><ele>-3.0</ele><time>2026-04-24T14:05:56.921Z</time></trkpt><trkpt lat="34.17806" lon="8.1369267"><ele>-3.25</ele><time>2026-04-24T14:05:57.921Z</time></trkpt><trkpt lat="34.1779483" lon="8.1368233"><ele>-3.5</ele><time>2026-04-24T14:05:58.921Z</time></trkpt><trkpt lat="34.1778317" lon="8.1367267"><ele>-3.75</ele><time>2026-04-24T14:05:59.92Z</time></trkpt><trkpt lat="34.1777117" lon="8.13665"><ele>-4.0</ele><time>2026-04-24T14:06:00.921Z</time></trkpt><trkpt lat="34.177595" lon="8.1365933"><ele>-3.6</ele><time>2026-04-24T14:06:01.921Z</time></trkpt><trkpt lat="34.1774883" lon="8.1365517"><ele>-3.2</ele><time>2026-04-24T14:06:02.921Z</time></trkpt><trkpt lat="34.1773867" lon="8.1365117"><ele>-2.8000000000000003</ele><time>2026-04-24T14:06:03.921Z</time></trkpt><trkpt lat="34.177285" lon="8.13648"><ele>-2.4000000000000004</ele><time>2026-04-24T14:06:04.92Z</time></trkpt><trkpt lat="34.1771967" lon="8.13643"><ele>-2.0</ele><time>2026-04-24T14:06:05.921Z</time></trkpt><trkpt lat="34.177125" lon="8.1363633"><ele>-2.0</ele><time>2026-04-24T14:06:06.921Z</time></trkpt><trkpt lat="34.1770517" lon="8.1362833"><ele>-2.0</ele><time>2026-04-24T14:06:07.921Z</time></trkpt><trkpt lat="34.1769733" lon="8.1361967"><ele>-2.0</ele><time>2026-04-24T14:06:08.921Z</time></trkpt><trkpt lat="34.17689" lon="8.1361067"><ele>-2.0</ele><time>2026-04-24T14:06:09.921Z</time></trkpt><trkpt lat="34.1767983" lon="8.1360133"><ele>-2.0</ele><time>2026-04-24T14:06:10.92Z</time></trkpt><trkpt lat="34.1767017" lon="8.135925"><ele>-2.0</ele><time>2026-04-24T14:06:11.921Z</time></trkpt><trkpt lat="34.1766" lon="8.135845"><ele>-2.0</ele><time>2026-04-24T14:06:12.921Z</time></trkpt><trkpt lat="34.1764933" lon="8.1357633"><ele>-2.0</ele><time>2026-04-24T14:06:13.921Z</time></trkpt><trkpt lat="34.1763967" lon="8.13569"><ele>-2.0</ele><time>2026-04-24T14:06:14.92Z</time></trkpt><trkpt lat="34.1763167" lon="8.1356283"><ele>-2.1666666666666665</ele><time>2026-04-24T14:06:15.92Z</time></trkpt><trkpt lat="34.176245" lon="8.1355667"><ele>-2.333333333333333</ele><time>2026-04-24T14:06:16.92Z</time></trkpt><trkpt lat="34.1761917" lon="8.135515"><ele>-2.5</ele><time>2026-04-24T14:06:17.921Z</time></trkpt><trkpt lat="34.1761367" lon="8.1354683"><ele>-2.6666666666666665</ele><time>2026-04-24T14:06:18.921Z</time></trkpt><trkpt lat="34.176055" lon="8.13539"><ele>-2.8333333333333335</ele><time>2026-04-24T14:06:20.921Z</time></trkpt><trkpt lat="34.1759817" lon="8.1353183"><ele>-3.0</ele><time>2026-04-24T14:06:22.921Z</time></trkpt><trkpt lat="34.175915" lon="8.135245"><ele>-3.0</ele><time>2026-04-24T14:06:24.921Z</time></trkpt><trkpt lat="34.1758367" lon="8.135185"><ele>-3.0</ele><time>2026-04-24T14:06:26.921Z</time></trkpt><trkpt lat="34.1757483" lon="8.1351133"><ele>-3.0</ele><time>2026-04-24T14:06:28.921Z</time></trkpt><trkpt lat="34.1756483" lon="8.1350417"><ele>-3.0</ele><time>2026-04-24T14:06:30.921Z</time></trkpt><trkpt lat="34.1755933" lon="8.1349983"><ele>-3.0</ele><time>2026-04-24T14:06:31.921Z</time></trkpt><trkpt lat="34.175525" lon="8.13495"><ele>-3.2</ele><time>2026-04-24T14:06:32.92Z</time></trkpt><trkpt lat="34.17545" lon="8.1348883"><ele>-3.4</ele><time>2026-04-24T14:06:33.921Z</time></trkpt><trkpt lat="34.17537" lon="8.1348217"><ele>-3.6000000000000005</ele><time>2026-04-24T14:06:34.921Z</time></trkpt><trkpt lat="34.175285" lon="8.1347533"><ele>-3.8000000000000003</ele><time>2026-04-24T14:06:35.92Z</time></trkpt><trkpt lat="34.1751917" lon="8.1346767"><ele>-4.0</ele><time>2026-04-24T14:06:36.921Z</time></trkpt><trkpt lat="34.175095" lon="8.1345967"><ele>-4.25</ele><time>2026-04-24T14:06:37.921Z</time></trkpt><trkpt lat="34.1749933" lon="8.1345133"><ele>-4.5</ele><time>2026-04-24T14:06:38.92Z</time></trkpt><trkpt lat="34.1748983" lon="8.1344317"><ele>-4.75</ele><time>2026-04-24T14:06:39.921Z</time></trkpt><trkpt lat="34.1747983" lon="8.1343483"><ele>-5.0</ele><time>2026-04-24T14:06:40.921Z</time></trkpt><trkpt lat="34.1746933" lon="8.1342633"><ele>-5.0</ele><time>2026-04-24T14:06:41.921Z</time></trkpt><trkpt lat="34.1745917" lon="8.13417"><ele>-5.0</ele><time>2026-04-24T14:06:42.921Z</time></trkpt><trkpt lat="34.174495" lon="8.134085"><ele>-5.0</ele><time>2026-04-24T14:06:43.921Z</time></trkpt><trkpt lat="34.1744067" lon="8.1340117"><ele>-5.0</ele><time>2026-04-24T14:06:44.921Z</time></trkpt><trkpt lat="34.1743167" lon="8.1339483"><ele>-5.2</ele><time>2026-04-24T14:06:45.92Z</time></trkpt><trkpt lat="34.17423" lon="8.1338833"><ele>-5.4</ele><time>2026-04-24T14:06:46.921Z</time></trkpt><trkpt lat="34.17414" lon="8.13382"><ele>-5.6</ele><time>2026-04-24T14:06:47.921Z</time></trkpt><trkpt lat="34.17405" lon="8.133765"><ele>-5.8</ele><time>2026-04-24T14:06:48.921Z</time></trkpt><trkpt lat="34.1739567" lon="8.133715"><ele>-6.0</ele><time>2026-04-24T14:06:49.921Z</time></trkpt><trkpt lat="34.1738617" lon="8.133655"><ele>-6.0</ele><time>2026-04-24T14:06:50.921Z</time></trkpt><trkpt lat="34.1737717" lon="8.1335833"><ele>-6.0</ele><time>2026-04-24T14:06:51.92Z</time></trkpt><trkpt lat="34.1736883" lon="8.1335117"><ele>-6.0</ele><time>2026-04-24T14:06:52.921Z</time></trkpt><trkpt lat="34.1736067" lon="8.13344"><ele>-6.0</ele><time>2026-04-24T14:06:53.921Z</time></trkpt><trkpt lat="34.1735267" lon="8.1333767"><ele>-6.0</ele><time>2026-04-24T14:06:54.921Z</time></trkpt><trkpt lat="34.1734467" lon="8.13331"><ele>-6.0</ele><time>2026-04-24T14:06:55.921Z</time></trkpt><trkpt lat="34.1733617" lon="8.1332483"><ele>-6.0</ele><time>2026-04-24T14:06:56.921Z</time></trkpt><trkpt lat="34.1732733" lon="8.1331783"><ele>-6.0</ele><time>2026-04-24T14:06:57.921Z</time></trkpt><trkpt lat="34.1731783" lon="8.133105"><ele>-6.0</ele><time>2026-04-24T14:06:58.921Z</time></trkpt><trkpt lat="34.1730767" lon="8.133035"><ele>-6.0</ele><time>2026-04-24T14:06:59.921Z</time></trkpt><trkpt lat="34.1729767" lon="8.1329683"><ele>-6.25</ele><time>2026-04-24T14:07:00.921Z</time></trkpt><trkpt lat="34.1728817" lon="8.1329"><ele>-6.5</ele><time>2026-04-24T14:07:01.921Z</time></trkpt><trkpt lat="34.1727817" lon="8.13282"><ele>-6.75</ele><time>2026-04-24T14:07:02.921Z</time></trkpt><trkpt lat="34.1726833" lon="8.13274"><ele>-7.0</ele><time>2026-04-24T14:07:03.921Z</time></trkpt><trkpt lat="34.172585" lon="8.1326633"><ele>-7.0</ele><time>2026-04-24T14:07:04.921Z</time></trkpt><trkpt lat="34.1724783" lon="8.13259"><ele>-7.0</ele><time>2026-04-24T14:07:05.921Z</time></trkpt><trkpt lat="34.17238" lon="8.1325167"><ele>-7.0</ele><time>2026-04-24T14:07:06.921Z</time></trkpt><trkpt lat="34.172285" lon="8.1324383"><ele>-7.0</ele><time>2026-04-24T14:07:07.921Z</time></trkpt><trkpt lat="34.1721817" lon="8.1323667"><ele>-7.0</ele><time>2026-04-24T14:07:08.921Z</time></trkpt><trkpt lat="34.172075" lon="8.1322983"><ele>-7.0</ele><time>2026-04-24T14:07:09.921Z</time></trkpt><trkpt lat="34.171965" lon="8.1322267"><ele>-7.0</ele><time>2026-04-24T14:07:10.92Z</time></trkpt><trkpt lat="34.1718567" lon="8.1321617"><ele>-7.0</ele><time>2026-04-24T14:07:11.921Z</time></trkpt><trkpt lat="34.17174" lon="8.132095"><ele>-7.0</ele><time>2026-04-24T14:07:12.92Z</time></trkpt><trkpt lat="34.171625" lon="8.13202"><ele>-7.0</ele><time>2026-04-24T14:07:13.92Z</time></trkpt><trkpt lat="34.1715033" lon="8.1319533"><ele>-7.0</ele><time>2026-04-24T14:07:14.921Z</time></trkpt><trkpt lat="34.171385" lon="8.1318767"><ele>-7.0</ele><time>2026-04-24T14:07:15.921Z</time></trkpt><trkpt lat="34.1712667" lon="8.1318067"><ele>-7.0</ele><time>2026-04-24T14:07:16.92Z</time></trkpt><trkpt lat="34.1711567" lon="8.1317433"><ele>-6.999999999999999</ele><time>2026-04-24T14:07:17.921Z</time></trkpt><trkpt lat="34.1710667" lon="8.1316817"><ele>-6.999999999999999</ele><time>2026-04-24T14:07:18.921Z</time></trkpt><trkpt lat="34.17097" lon="8.1316317"><ele>-7.0</ele><time>2026-04-24T14:07:19.92Z</time></trkpt><trkpt lat="34.1708683" lon="8.13157"><ele>-7.0</ele><time>2026-04-24T14:07:20.921Z</time></trkpt><trkpt lat="34.170765" lon="8.1315067"><ele>-7.0</ele><time>2026-04-24T14:07:21.921Z</time></trkpt><trkpt lat="34.1706517" lon="8.131445"><ele>-7.0</ele><time>2026-04-24T14:07:22.92Z</time></trkpt><trkpt lat="34.1705417" lon="8.13139"><ele>-7.0</ele><time>2026-04-24T14:07:23.92Z</time></trkpt><trkpt lat="34.17043" lon="8.1313333"><ele>-7.0</ele><time>2026-04-24T14:07:24.92Z</time></trkpt><trkpt lat="34.1703133" lon="8.13127"><ele>-7.0</ele><time>2026-04-24T14:07:25.921Z</time></trkpt><trkpt lat="34.1701967" lon="8.1311933"><ele>-7.0</ele><time>2026-04-24T14:07:26.921Z</time></trkpt><trkpt lat="34.1700783" lon="8.1311233"><ele>-7.0</ele><time>2026-04-24T14:07:27.921Z</time></trkpt><trkpt lat="34.1699683" lon="8.1310517"><ele>-7.0</ele><time>2026-04-24T14:07:28.921Z</time></trkpt><trkpt lat="34.1698533" lon="8.13102"><ele>-7.25</ele><time>2026-04-24T14:07:29.921Z</time></trkpt><trkpt lat="34.169745" lon="8.1309833"><ele>-7.5</ele><time>2026-04-24T14:07:30.92Z</time></trkpt><trkpt lat="34.1696333" lon="8.1309417"><ele>-7.75</ele><time>2026-04-24T14:07:31.92Z</time></trkpt><trkpt lat="34.1695183" lon="8.1308967"><ele>-8.0</ele><time>2026-04-24T14:07:32.921Z</time></trkpt><trkpt lat="34.1694017" lon="8.1308333"><ele>-8.0</ele><time>2026-04-24T14:07:33.921Z</time></trkpt><trkpt lat="34.1692867" lon="8.1307667"><ele>-8.0</ele><time>2026-04-24T14:07:34.92Z</time></trkpt><trkpt lat="34.1691667" lon="8.1307"><ele>-8.0</ele><time>2026-04-24T14:07:35.921Z</time></trkpt><trkpt lat="34.169045" lon="8.1306233"><ele>-8.0</ele><time>2026-04-24T14:07:36.921Z</time></trkpt><trkpt lat="34.16892" lon="8.130545"><ele>-7.5</ele><time>2026-04-24T14:07:37.92Z</time></trkpt><trkpt lat="34.1688" lon="8.1304667"><ele>-7.0</ele><time>2026-04-24T14:07:38.92Z</time></trkpt><trkpt lat="34.1686717" lon="8.1303983"><ele>-6.5</ele><time>2026-04-24T14:07:39.921Z</time></trkpt><trkpt lat="34.168545" lon="8.1303217"><ele>-6.0</ele><time>2026-04-24T14:07:40.921Z</time></trkpt><trkpt lat="34.1684167" lon="8.13026"><ele>-6.0</ele><time>2026-04-24T14:07:41.921Z</time></trkpt><trkpt lat="34.1682917" lon="8.1301933"><ele>-6.0</ele><time>2026-04-24T14:07:42.921Z</time></trkpt><trkpt lat="34.168165" lon="8.1301233"><ele>-6.0</ele><time>2026-04-24T14:07:43.921Z</time></trkpt><trkpt lat="34.16804" lon="8.13005"><ele>-6.0</ele><time>2026-04-24T14:07:44.92Z</time></trkpt><trkpt lat="34.1679217" lon="8.1299633"><ele>-6.0</ele><time>2026-04-24T14:07:45.921Z</time></trkpt><trkpt lat="34.1677933" lon="8.1298883"><ele>-6.0</ele><time>2026-04-24T14:07:46.92Z</time></trkpt><trkpt lat="34.1676633" lon="8.1298233"><ele>-6.0</ele><time>2026-04-24T14:07:47.92Z</time></trkpt><trkpt lat="34.1675383" lon="8.1297583"><ele>-6.0</ele><time>2026-04-24T14:07:48.921Z</time></trkpt><trkpt lat="34.167415" lon="8.1296867"><ele>-6.0</ele><time>2026-04-24T14:07:49.921Z</time></trkpt><trkpt lat="34.1672917" lon="8.1296167"><ele>-6.0</ele><time>2026-04-24T14:07:50.92Z</time></trkpt><trkpt lat="34.1671633" lon="8.12954"><ele>-6.0</ele><time>2026-04-24T14:07:51.921Z</time></trkpt><trkpt lat="34.16703" lon="8.129475"><ele>-6.0</ele><time>2026-04-24T14:07:52.921Z</time></trkpt><trkpt lat="34.1668933" lon="8.1294183"><ele>-6.0</ele><time>2026-04-24T14:07:53.921Z</time></trkpt><trkpt lat="34.1667667" lon="8.1293433"><ele>-6.0</ele><time>2026-04-24T14:07:54.92Z</time></trkpt><trkpt lat="34.1666367" lon="8.129285"><ele>-6.0</ele><time>2026-04-24T14:07:55.92Z</time></trkpt><trkpt lat="34.1665083" lon="8.1292183"><ele>-6.0</ele><time>2026-04-24T14:07:56.92Z</time></trkpt><trkpt lat="34.1663783" lon="8.1291517"><ele>-6.0</ele><time>2026-04-24T14:07:57.92Z</time></trkpt><trkpt lat="34.166245" lon="8.12908"><ele>-6.0</ele><time>2026-04-24T14:07:58.921Z</time></trkpt><trkpt lat="34.1661117" lon="8.129"><ele>-6.0</ele><time>2026-04-24T14:07:59.921Z</time></trkpt><trkpt lat="34.1659717" lon="8.1289367"><ele>-6.0</ele><time>2026-04-24T14:08:00.921Z</time></trkpt><trkpt lat="34.16584" lon="8.1288633"><ele>-6.0</ele><time>2026-04-24T14:08:01.921Z</time></trkpt><trkpt lat="34.16571" lon="8.1287883"><ele>-6.0</ele><time>2026-04-24T14:08:02.921Z</time></trkpt><trkpt lat="34.1655767" lon="8.1287167"><ele>-6.0</ele><time>2026-04-24T14:08:03.921Z</time></trkpt><trkpt lat="34.16544" lon="8.1286517"><ele>-6.0</ele><time>2026-04-24T14:08:04.92Z</time></trkpt><trkpt lat="34.1653067" lon="8.12858"><ele>-6.0</ele><time>2026-04-24T14:08:05.921Z</time></trkpt><trkpt lat="34.1651717" lon="8.12852"><ele>-6.0</ele><time>2026-04-24T14:08:06.921Z</time></trkpt><trkpt lat="34.1650367" lon="8.1284567"><ele>-6.0</ele><time>2026-04-24T14:08:07.921Z</time></trkpt><trkpt lat="34.1648983" lon="8.128385"><ele>-6.0</ele><time>2026-04-24T14:08:08.92Z</time></trkpt><trkpt lat="34.1647667" lon="8.1283117"><ele>-6.666666666666666</ele><time>2026-04-24T14:08:09.92Z</time></trkpt><trkpt lat="34.164625" lon="8.128245"><ele>-7.333333333333333</ele><time>2026-04-24T14:08:10.921Z</time></trkpt><trkpt lat="34.1644867" lon="8.1281667"><ele>-8.0</ele><time>2026-04-24T14:08:11.921Z</time></trkpt><trkpt lat="34.16435" lon="8.12809"><ele>-8.0</ele><time>2026-04-24T14:08:12.92Z</time></trkpt><trkpt lat="34.1642167" lon="8.1280133"><ele>-8.0</ele><time>2026-04-24T14:08:13.92Z</time></trkpt><trkpt lat="34.1640783" lon="8.1279367"><ele>-8.0</ele><time>2026-04-24T14:08:14.921Z</time></trkpt><trkpt lat="34.1639417" lon="8.1278767"><ele>-8.0</ele><time>2026-04-24T14:08:15.92Z</time></trkpt><trkpt lat="34.1638133" lon="8.1278083"><ele>-8.0</ele><time>2026-04-24T14:08:16.921Z</time></trkpt><trkpt lat="34.163705" lon="8.1277383"><ele>-8.0</ele><time>2026-04-24T14:08:17.92Z</time></trkpt><trkpt lat="34.163605" lon="8.1276967"><ele>-8.0</ele><time>2026-04-24T14:08:18.92Z</time></trkpt><trkpt lat="34.16353" lon="8.12765"><ele>-8.0</ele><time>2026-04-24T14:08:19.92Z</time></trkpt><trkpt lat="34.1634633" lon="8.1276017"><ele>-8.0</ele><time>2026-04-24T14:08:20.921Z</time></trkpt><trkpt lat="34.1634033" lon="8.127545"><ele>-7.999999999999999</ele><time>2026-04-24T14:08:21.921Z</time></trkpt><trkpt lat="34.1633433" lon="8.12749"><ele>-8.0</ele><time>2026-04-24T14:08:22.921Z</time></trkpt><trkpt lat="34.1632933" lon="8.1274367"><ele>-8.0</ele><time>2026-04-24T14:08:23.921Z</time></trkpt><trkpt lat="34.1632333" lon="8.1273733"><ele>-8.0</ele><time>2026-04-24T14:08:25.921Z</time></trkpt><trkpt lat="34.1631533" lon="8.1274183"><ele>-7.999999999999999</ele><time>2026-04-24T14:08:40.92Z</time></trkpt><trkpt lat="34.1630567" lon="8.12741"><ele>-8.0</ele><time>2026-04-24T14:08:43.92Z</time></trkpt><trkpt lat="34.1629617" lon="8.1273633"><ele>-7.999999999999999</ele><time>2026-04-24T14:08:45.92Z</time></trkpt><trkpt lat="34.1628483" lon="8.1273133"><ele>-8.0</ele><time>2026-04-24T14:08:47.92Z</time></trkpt><trkpt lat="34.16278" lon="8.127285"><ele>-8.0</ele><time>2026-04-24T14:08:48.921Z</time></trkpt><trkpt lat="34.1627067" lon="8.1272567"><ele>-8.0</ele><time>2026-04-24T14:08:49.921Z</time></trkpt><trkpt lat="34.1626317" lon="8.1272317"><ele>-7.999999999999999</ele><time>2026-04-24T14:08:50.921Z</time></trkpt><trkpt lat="34.162555" lon="8.127195"><ele>-8.0</ele><time>2026-04-24T14:08:51.921Z</time></trkpt><trkpt lat="34.1624767" lon="8.127145"><ele>-8.0</ele><time>2026-04-24T14:08:52.921Z</time></trkpt><trkpt lat="34.1623933" lon="8.127105"><ele>-8.0</ele><time>2026-04-24T14:08:53.921Z</time></trkpt><trkpt lat="34.1623083" lon="8.12706"><ele>-8.0</ele><time>2026-04-24T14:08:54.921Z</time></trkpt><trkpt lat="34.1622217" lon="8.127015"><ele>-8.0</ele><time>2026-04-24T14:08:55.921Z</time></trkpt><trkpt lat="34.1621317" lon="8.1269733"><ele>-8.0</ele><time>2026-04-24T14:08:56.921Z</time></trkpt><trkpt lat="34.1620317" lon="8.126935"><ele>-7.5</ele><time>2026-04-24T14:08:57.921Z</time></trkpt><trkpt lat="34.161925" lon="8.12689"><ele>-7.0</ele><time>2026-04-24T14:08:58.92Z</time></trkpt><trkpt lat="34.1618167" lon="8.1268383"><ele>-6.5</ele><time>2026-04-24T14:08:59.921Z</time></trkpt><trkpt lat="34.1617033" lon="8.1267917"><ele>-6.0</ele><time>2026-04-24T14:09:00.921Z</time></trkpt><trkpt lat="34.1615817" lon="8.1267417"><ele>-5.75</ele><time>2026-04-24T14:09:01.921Z</time></trkpt><trkpt lat="34.16146" lon="8.1266883"><ele>-5.5</ele><time>2026-04-24T14:09:02.92Z</time></trkpt><trkpt lat="34.16134" lon="8.12663"><ele>-5.25</ele><time>2026-04-24T14:09:03.921Z</time></trkpt><trkpt lat="34.16121" lon="8.126565"><ele>-5.0</ele><time>2026-04-24T14:09:04.921Z</time></trkpt><trkpt lat="34.1610817" lon="8.1264933"><ele>-5.0</ele><time>2026-04-24T14:09:05.921Z</time></trkpt><trkpt lat="34.1609433" lon="8.12643"><ele>-5.0</ele><time>2026-04-24T14:09:06.921Z</time></trkpt><trkpt lat="34.1608133" lon="8.12637"><ele>-5.0</ele><time>2026-04-24T14:09:07.921Z</time></trkpt><trkpt lat="34.16069" lon="8.1262967"><ele>-5.0</ele><time>2026-04-24T14:09:08.921Z</time></trkpt><trkpt lat="34.1605683" lon="8.1262317"><ele>-5.0</ele><time>2026-04-24T14:09:09.921Z</time></trkpt><trkpt lat="34.16044" lon="8.1261733"><ele>-5.0</ele><time>2026-04-24T14:09:10.921Z</time></trkpt><trkpt lat="34.1603067" lon="8.1261133"><ele>-5.0</ele><time>2026-04-24T14:09:11.921Z</time></trkpt><trkpt lat="34.1601783" lon="8.1260717"><ele>-5.0</ele><time>2026-04-24T14:09:12.92Z</time></trkpt><trkpt lat="34.1600417" lon="8.1260117"><ele>-5.0</ele><time>2026-04-24T14:09:13.921Z</time></trkpt><trkpt lat="34.159915" lon="8.12595"><ele>-5.0</ele><time>2026-04-24T14:09:14.92Z</time></trkpt><trkpt lat="34.159795" lon="8.1258983"><ele>-5.0</ele><time>2026-04-24T14:09:15.92Z</time></trkpt><trkpt lat="34.1596867" lon="8.12584"><ele>-5.0</ele><time>2026-04-24T14:09:16.92Z</time></trkpt><trkpt lat="34.1595733" lon="8.1257833"><ele>-4.75</ele><time>2026-04-24T14:09:17.92Z</time></trkpt><trkpt lat="34.1594483" lon="8.1257383"><ele>-4.5</ele><time>2026-04-24T14:09:18.919Z</time></trkpt><trkpt lat="34.159315" lon="8.1256867"><ele>-4.25</ele><time>2026-04-24T14:09:19.92Z</time></trkpt><trkpt lat="34.15917" lon="8.12562"><ele>-4.0</ele><time>2026-04-24T14:09:20.92Z</time></trkpt><trkpt lat="34.1590317" lon="8.1255567"><ele>-3.6666666666666665</ele><time>2026-04-24T14:09:21.92Z</time></trkpt><trkpt lat="34.1588933" lon="8.125485"><ele>-3.333333333333333</ele><time>2026-04-24T14:09:22.92Z</time></trkpt><trkpt lat="34.1587433" lon="8.1254067"><ele>-3.0</ele><time>2026-04-24T14:09:23.92Z</time></trkpt><trkpt lat="34.158595" lon="8.1253333"><ele>-3.0</ele><time>2026-04-24T14:09:24.919Z</time></trkpt><trkpt lat="34.1584417" lon="8.1252567"><ele>-3.0</ele><time>2026-04-24T14:09:25.919Z</time></trkpt><trkpt lat="34.158285" lon="8.1251867"><ele>-3.0</ele><time>2026-04-24T14:09:26.92Z</time></trkpt><trkpt lat="34.1581267" lon="8.1251183"><ele>-3.333333333333333</ele><time>2026-04-24T14:09:27.92Z</time></trkpt><trkpt lat="34.1579683" lon="8.125065"><ele>-3.6666666666666665</ele><time>2026-04-24T14:09:28.92Z</time></trkpt><trkpt lat="34.1578133" lon="8.1250133"><ele>-4.0</ele><time>2026-04-24T14:09:29.92Z</time></trkpt><trkpt lat="34.1576567" lon="8.1249583"><ele>-4.0</ele><time>2026-04-24T14:09:30.92Z</time></trkpt><trkpt lat="34.1574983" lon="8.124895"><ele>-4.0</ele><time>2026-04-24T14:09:31.919Z</time></trkpt><trkpt lat="34.1573383" lon="8.1248133"><ele>-4.0</ele><time>2026-04-24T14:09:32.92Z</time></trkpt><trkpt lat="34.1571833" lon="8.1247383"><ele>-3.25</ele><time>2026-04-24T14:09:33.92Z</time></trkpt><trkpt lat="34.15704" lon="8.1246733"><ele>-2.5</ele><time>2026-04-24T14:09:34.92Z</time></trkpt><trkpt lat="34.1569033" lon="8.124625"><ele>-1.75</ele><time>2026-04-24T14:09:35.92Z</time></trkpt><trkpt lat="34.1567817" lon="8.1245983"><ele>-1.0</ele><time>2026-04-24T14:09:36.92Z</time></trkpt><trkpt lat="34.156675" lon="8.1245733"><ele>-1.0</ele><time>2026-04-24T14:09:37.92Z</time></trkpt><trkpt lat="34.1565783" lon="8.12454"><ele>-1.0</ele><time>2026-04-24T14:09:38.919Z</time></trkpt><trkpt lat="34.1564717" lon="8.124495"><ele>-1.0</ele><time>2026-04-24T14:09:39.92Z</time></trkpt><trkpt lat="34.156365" lon="8.124435"><ele>-1.0</ele><time>2026-04-24T14:09:40.92Z</time></trkpt><trkpt lat="34.15626" lon="8.1243667"><ele>-1.0</ele><time>2026-04-24T14:09:41.92Z</time></trkpt><trkpt lat="34.1561367" lon="8.124295"><ele>-1.0</ele><time>2026-04-24T14:09:42.92Z</time></trkpt><trkpt lat="34.1560117" lon="8.1242233"><ele>-1.0</ele><time>2026-04-24T14:09:43.92Z</time></trkpt><trkpt lat="34.1558717" lon="8.1241617"><ele>-1.0</ele><time>2026-04-24T14:09:44.92Z</time></trkpt><trkpt lat="34.15574" lon="8.124095"><ele>-1.0</ele><time>2026-04-24T14:09:45.919Z</time></trkpt><trkpt lat="34.1556017" lon="8.1240317"><ele>-1.0</ele><time>2026-04-24T14:09:46.92Z</time></trkpt><trkpt lat="34.15546" lon="8.12397"><ele>-1.0</ele><time>2026-04-24T14:09:47.92Z</time></trkpt><trkpt lat="34.1553083" lon="8.123905"><ele>-1.0</ele><time>2026-04-24T14:09:48.92Z</time></trkpt><trkpt lat="34.1551533" lon="8.12384"><ele>-1.0</ele><time>2026-04-24T14:09:49.919Z</time></trkpt><trkpt lat="34.1549967" lon="8.12377"><ele>-1.0</ele><time>2026-04-24T14:09:50.92Z</time></trkpt><trkpt lat="34.15484" lon="8.1237017"><ele>-1.0</ele><time>2026-04-24T14:09:51.92Z</time></trkpt><trkpt lat="34.1546767" lon="8.1236283"><ele>-1.0</ele><time>2026-04-24T14:09:52.92Z</time></trkpt><trkpt lat="34.1545117" lon="8.1235633"><ele>-1.0</ele><time>2026-04-24T14:09:53.92Z</time></trkpt><trkpt lat="34.1543417" lon="8.1235"><ele>-1.0</ele><time>2026-04-24T14:09:54.92Z</time></trkpt><trkpt lat="34.1541667" lon="8.1234317"><ele>-1.0</ele><time>2026-04-24T14:09:55.92Z</time></trkpt><trkpt lat="34.1539933" lon="8.1233633"><ele>-1.0</ele><time>2026-04-24T14:09:56.92Z</time></trkpt><trkpt lat="34.15382" lon="8.1232917"><ele>-1.0</ele><time>2026-04-24T14:09:57.92Z</time></trkpt><trkpt lat="34.1536533" lon="8.1232217"><ele>-1.0</ele><time>2026-04-24T14:09:58.919Z</time></trkpt><trkpt lat="34.15348" lon="8.12315"><ele>-1.0</ele><time>2026-04-24T14:09:59.92Z</time></trkpt><trkpt lat="34.1533133" lon="8.12308"><ele>-1.25</ele><time>2026-04-24T14:10:00.919Z</time></trkpt><trkpt lat="34.1531567" lon="8.123025"><ele>-1.5</ele><time>2026-04-24T14:10:01.92Z</time></trkpt><trkpt lat="34.1530167" lon="8.1229733"><ele>-1.75</ele><time>2026-04-24T14:10:02.92Z</time></trkpt><trkpt lat="34.1528867" lon="8.1229167"><ele>-2.0</ele><time>2026-04-24T14:10:03.919Z</time></trkpt><trkpt lat="34.1527517" lon="8.1228633"><ele>-2.0</ele><time>2026-04-24T14:10:04.919Z</time></trkpt><trkpt lat="34.15261" lon="8.12281"><ele>-2.0</ele><time>2026-04-24T14:10:05.92Z</time></trkpt><trkpt lat="34.1524683" lon="8.1227533"><ele>-2.0</ele><time>2026-04-24T14:10:06.92Z</time></trkpt><trkpt lat="34.152325" lon="8.1227017"><ele>-2.0</ele><time>2026-04-24T14:10:07.92Z</time></trkpt><trkpt lat="34.1521833" lon="8.1226467"><ele>-2.25</ele><time>2026-04-24T14:10:08.92Z</time></trkpt><trkpt lat="34.1520433" lon="8.1225967"><ele>-2.5</ele><time>2026-04-24T14:10:09.92Z</time></trkpt><trkpt lat="34.15191" lon="8.1225433"><ele>-2.75</ele><time>2026-04-24T14:10:10.92Z</time></trkpt><trkpt lat="34.1517783" lon="8.1224917"><ele>-3.0</ele><time>2026-04-24T14:10:11.919Z</time></trkpt><trkpt lat="34.1516517" lon="8.12243"><ele>-3.0</ele><time>2026-04-24T14:10:12.92Z</time></trkpt><trkpt lat="34.151525" lon="8.1223717"><ele>-3.0</ele><time>2026-04-24T14:10:13.919Z</time></trkpt><trkpt lat="34.1514167" lon="8.1223133"><ele>-3.0</ele><time>2026-04-24T14:10:14.919Z</time></trkpt><trkpt lat="34.1513217" lon="8.12224"><ele>-3.0</ele><time>2026-04-24T14:10:15.92Z</time></trkpt><trkpt lat="34.1512317" lon="8.12217"><ele>-3.0</ele><time>2026-04-24T14:10:16.92Z</time></trkpt><trkpt lat="34.15114" lon="8.12211"><ele>-3.0</ele><time>2026-04-24T14:10:17.92Z</time></trkpt><trkpt lat="34.1510583" lon="8.1220683"><ele>-3.0</ele><time>2026-04-24T14:10:18.92Z</time></trkpt><trkpt lat="34.1509783" lon="8.1220467"><ele>-3.0</ele><time>2026-04-24T14:10:19.92Z</time></trkpt><trkpt lat="34.1509033" lon="8.12204"><ele>-3.0</ele><time>2026-04-24T14:10:20.92Z</time></trkpt><trkpt lat="34.1508217" lon="8.1220333"><ele>-3.0</ele><time>2026-04-24T14:10:21.92Z</time></trkpt><trkpt lat="34.1507317" lon="8.12203"><ele>-3.2</ele><time>2026-04-24T14:10:22.92Z</time></trkpt><trkpt lat="34.1506467" lon="8.1220083"><ele>-3.4</ele><time>2026-04-24T14:10:23.92Z</time></trkpt><trkpt lat="34.1505567" lon="8.1219767"><ele>-3.6000000000000005</ele><time>2026-04-24T14:10:24.92Z</time></trkpt><trkpt lat="34.15046" lon="8.1219333"><ele>-3.8000000000000003</ele><time>2026-04-24T14:10:25.92Z</time></trkpt><trkpt lat="34.15036" lon="8.121885"><ele>-4.0</ele><time>2026-04-24T14:10:26.92Z</time></trkpt><trkpt lat="34.1502567" lon="8.12184"><ele>-4.0</ele><time>2026-04-24T14:10:27.92Z</time></trkpt><trkpt lat="34.15016" lon="8.1218"><ele>-4.0</ele><time>2026-04-24T14:10:28.92Z</time></trkpt><trkpt lat="34.15006" lon="8.1217517"><ele>-4.0</ele><time>2026-04-24T14:10:29.92Z</time></trkpt><trkpt lat="34.1499583" lon="8.1217033"><ele>-4.0</ele><time>2026-04-24T14:10:30.92Z</time></trkpt><trkpt lat="34.1498533" lon="8.1216533"><ele>-4.0</ele><time>2026-04-24T14:10:31.92Z</time></trkpt><trkpt lat="34.1497433" lon="8.1216117"><ele>-4.2</ele><time>2026-04-24T14:10:32.92Z</time></trkpt><trkpt lat="34.14964" lon="8.121565"><ele>-4.4</ele><time>2026-04-24T14:10:33.92Z</time></trkpt><trkpt lat="34.14954" lon="8.1215217"><ele>-4.6</ele><time>2026-04-24T14:10:34.919Z</time></trkpt><trkpt lat="34.1494383" lon="8.1214783"><ele>-4.8</ele><time>2026-04-24T14:10:35.92Z</time></trkpt><trkpt lat="34.1493467" lon="8.121435"><ele>-5.0</ele><time>2026-04-24T14:10:36.919Z</time></trkpt><trkpt lat="34.1492817" lon="8.12138"><ele>-5.0</ele><time>2026-04-24T14:10:37.92Z</time></trkpt><trkpt lat="34.1492167" lon="8.1213117"><ele>-5.0</ele><time>2026-04-24T14:10:38.919Z</time></trkpt><trkpt lat="34.1491567" lon="8.121235"><ele>-5.0</ele><time>2026-04-24T14:10:39.919Z</time></trkpt><trkpt lat="34.1490983" lon="8.1211383"><ele>-5.0</ele><time>2026-04-24T14:10:40.919Z</time></trkpt><trkpt lat="34.1490517" lon="8.12103"><ele>-5.0</ele><time>2026-04-24T14:10:41.92Z</time></trkpt><trkpt lat="34.1490017" lon="8.1209117"><ele>-5.2</ele><time>2026-04-24T14:10:42.92Z</time></trkpt><trkpt lat="34.1489567" lon="8.120785"><ele>-5.4</ele><time>2026-04-24T14:10:43.92Z</time></trkpt><trkpt lat="34.14891" lon="8.120655"><ele>-5.6</ele><time>2026-04-24T14:10:44.92Z</time></trkpt><trkpt lat="34.1488733" lon="8.1205467"><ele>-5.8</ele><time>2026-04-24T14:10:45.92Z</time></trkpt><trkpt lat="34.1488317" lon="8.1204467"><ele>-6.0</ele><time>2026-04-24T14:10:46.92Z</time></trkpt><trkpt lat="34.1487933" lon="8.1203667"><ele>-6.199999999999999</ele><time>2026-04-24T14:10:47.919Z</time></trkpt><trkpt lat="34.1487517" lon="8.1202933"><ele>-6.3999999999999995</ele><time>2026-04-24T14:10:48.92Z</time></trkpt><trkpt lat="34.1486717" lon="8.1201983"><ele>-6.6</ele><time>2026-04-24T14:10:50.92Z</time></trkpt><trkpt lat="34.1485783" lon="8.1201717"><ele>-6.8</ele><time>2026-04-24T14:11:39.92Z</time></trkpt><trkpt lat="34.1485167" lon="8.1200617"><ele>-7.0</ele><time>2026-04-24T14:11:41.92Z</time></trkpt><trkpt lat="34.148485" lon="8.119975"><ele>-6.6</ele><time>2026-04-24T14:11:42.92Z</time></trkpt><trkpt lat="34.1484517" lon="8.11987"><ele>-6.199999999999999</ele><time>2026-04-24T14:11:43.92Z</time></trkpt><trkpt lat="34.1484067" lon="8.11975"><ele>-5.8</ele><time>2026-04-24T14:11:44.92Z</time></trkpt><trkpt lat="34.1483567" lon="8.119625"><ele>-5.4</ele><time>2026-04-24T14:11:45.919Z</time></trkpt><trkpt lat="34.1482983" lon="8.1194833"><ele>-5.0</ele><time>2026-04-24T14:11:46.92Z</time></trkpt><trkpt lat="34.1482333" lon="8.119335"><ele>-5.0</ele><time>2026-04-24T14:11:47.919Z</time></trkpt><trkpt lat="34.1481683" lon="8.1191783"><ele>-5.0</ele><time>2026-04-24T14:11:48.92Z</time></trkpt><trkpt lat="34.1481033" lon="8.119015"><ele>-5.0</ele><time>2026-04-24T14:11:49.919Z</time></trkpt><trkpt lat="34.1480367" lon="8.1188367"><ele>-5.0</ele><time>2026-04-24T14:11:50.92Z</time></trkpt><trkpt lat="34.1479683" lon="8.1186533"><ele>-5.0</ele><time>2026-04-24T14:11:51.919Z</time></trkpt><trkpt lat="34.1479033" lon="8.1184683"><ele>-5.0</ele><time>2026-04-24T14:11:52.92Z</time></trkpt><trkpt lat="34.1478267" lon="8.1182717"><ele>-5.0</ele><time>2026-04-24T14:11:53.92Z</time></trkpt><trkpt lat="34.1477533" lon="8.118075"><ele>-5.0</ele><time>2026-04-24T14:11:54.92Z</time></trkpt><trkpt lat="34.14767" lon="8.1178667"><ele>-5.0</ele><time>2026-04-24T14:11:55.919Z</time></trkpt><trkpt lat="34.1475883" lon="8.1176567"><ele>-5.0</ele><time>2026-04-24T14:11:56.92Z</time></trkpt><trkpt lat="34.1475083" lon="8.11744"><ele>-5.0</ele><time>2026-04-24T14:11:57.92Z</time></trkpt><trkpt lat="34.147425" lon="8.117225"><ele>-5.0</ele><time>2026-04-24T14:11:58.92Z</time></trkpt><trkpt lat="34.1473417" lon="8.1169983"><ele>-5.0</ele><time>2026-04-24T14:11:59.92Z</time></trkpt><trkpt lat="34.147255" lon="8.1167683"><ele>-5.0</ele><time>2026-04-24T14:12:00.92Z</time></trkpt><trkpt lat="34.147165" lon="8.1165417"><ele>-5.0</ele><time>2026-04-24T14:12:01.919Z</time></trkpt><trkpt lat="34.1470717" lon="8.1163017"><ele>-5.333333333333334</ele><time>2026-04-24T14:12:02.92Z</time></trkpt><trkpt lat="34.146975" lon="8.116065"><ele>-5.666666666666667</ele><time>2026-04-24T14:12:03.919Z</time></trkpt><trkpt lat="34.146875" lon="8.1158233"><ele>-6.0</ele><time>2026-04-24T14:12:04.92Z</time></trkpt><trkpt lat="34.146775" lon="8.1155783"><ele>-6.333333333333334</ele><time>2026-04-24T14:12:05.92Z</time></trkpt><trkpt lat="34.14668" lon="8.1153367"><ele>-6.666666666666667</ele><time>2026-04-24T14:12:06.92Z</time></trkpt><trkpt lat="34.146595" lon="8.11509"><ele>-7.0</ele><time>2026-04-24T14:12:07.919Z</time></trkpt><trkpt lat="34.1465017" lon="8.1148367"><ele>-6.0</ele><time>2026-04-24T14:12:08.919Z</time></trkpt><trkpt lat="34.1464" lon="8.114575"><ele>-5.0</ele><time>2026-04-24T14:12:09.919Z</time></trkpt><trkpt lat="34.1462933" lon="8.1143167"><ele>-6.0</ele><time>2026-04-24T14:12:10.92Z</time></trkpt><trkpt lat="34.1461883" lon="8.1140567"><ele>-7.0</ele><time>2026-04-24T14:12:11.92Z</time></trkpt><trkpt lat="34.146085" lon="8.1137917"><ele>-7.0</ele><time>2026-04-24T14:12:12.92Z</time></trkpt><trkpt lat="34.1459867" lon="8.1135317"><ele>-7.0</ele><time>2026-04-24T14:12:13.92Z</time></trkpt><trkpt lat="34.1458883" lon="8.113265"><ele>-6.5</ele><time>2026-04-24T14:12:14.92Z</time></trkpt><trkpt lat="34.1457867" lon="8.113005"><ele>-6.0</ele><time>2026-04-24T14:12:15.92Z</time></trkpt><trkpt lat="34.1456783" lon="8.1127383"><ele>-6.0</ele><time>2026-04-24T14:12:16.92Z</time></trkpt><trkpt lat="34.1455717" lon="8.1124783"><ele>-6.0</ele><time>2026-04-24T14:12:17.92Z</time></trkpt><trkpt lat="34.1454683" lon="8.1122033"><ele>-5.5</ele><time>2026-04-24T14:12:18.92Z</time></trkpt><trkpt lat="34.1453667" lon="8.1119317"><ele>-5.0</ele><time>2026-04-24T14:12:19.92Z</time></trkpt><trkpt lat="34.1452667" lon="8.1116633"><ele>-5.5</ele><time>2026-04-24T14:12:20.92Z</time></trkpt><trkpt lat="34.1451667" lon="8.1113917"><ele>-6.0</ele><time>2026-04-24T14:12:21.92Z</time></trkpt><trkpt lat="34.1450733" lon="8.1111133"><ele>-6.0</ele><time>2026-04-24T14:12:22.92Z</time></trkpt><trkpt lat="34.1449983" lon="8.1108383"><ele>-6.0</ele><time>2026-04-24T14:12:23.92Z</time></trkpt><trkpt lat="34.144935" lon="8.1105567"><ele>-6.0</ele><time>2026-04-24T14:12:24.92Z</time></trkpt><trkpt lat="34.1448933" lon="8.1102767"><ele>-6.0</ele><time>2026-04-24T14:12:25.919Z</time></trkpt><trkpt lat="34.1448517" lon="8.1099933"><ele>-6.5</ele><time>2026-04-24T14:12:26.92Z</time></trkpt><trkpt lat="34.1448083" lon="8.109705"><ele>-7.0</ele><time>2026-04-24T14:12:27.92Z</time></trkpt><trkpt lat="34.1447617" lon="8.1094167"><ele>-7.0</ele><time>2026-04-24T14:12:28.92Z</time></trkpt><trkpt lat="34.1447167" lon="8.1091283"><ele>-7.0</ele><time>2026-04-24T14:12:29.92Z</time></trkpt><trkpt lat="34.1446683" lon="8.1088367"><ele>-7.0</ele><time>2026-04-24T14:12:30.92Z</time></trkpt><trkpt lat="34.1446233" lon="8.10854"><ele>-7.0</ele><time>2026-04-24T14:12:31.92Z</time></trkpt><trkpt lat="34.1445733" lon="8.108245"><ele>-7.0</ele><time>2026-04-24T14:12:32.92Z</time></trkpt><trkpt lat="34.1445283" lon="8.1079567"><ele>-7.0</ele><time>2026-04-24T14:12:33.919Z</time></trkpt><trkpt lat="34.1444833" lon="8.1076667"><ele>-6.0</ele><time>2026-04-24T14:12:34.919Z</time></trkpt><trkpt lat="34.14444" lon="8.107385"><ele>-5.0</ele><time>2026-04-24T14:12:35.92Z</time></trkpt><trkpt lat="34.1443967" lon="8.107095"><ele>-5.0</ele><time>2026-04-24T14:12:36.92Z</time></trkpt><trkpt lat="34.144355" lon="8.1068117"><ele>-5.0</ele><time>2026-04-24T14:12:37.92Z</time></trkpt><trkpt lat="34.1443133" lon="8.10652"><ele>-5.5</ele><time>2026-04-24T14:12:38.92Z</time></trkpt><trkpt lat="34.144265" lon="8.1062333"><ele>-6.0</ele><time>2026-04-24T14:12:39.92Z</time></trkpt><trkpt lat="34.1442183" lon="8.1059517"><ele>-6.5</ele><time>2026-04-24T14:12:40.92Z</time></trkpt><trkpt lat="34.144175" lon="8.10567"><ele>-7.0</ele><time>2026-04-24T14:12:41.92Z</time></trkpt><trkpt lat="34.14414" lon="8.10538"><ele>-7.0</ele><time>2026-04-24T14:12:42.92Z</time></trkpt><trkpt lat="34.144115" lon="8.10509"><ele>-7.0</ele><time>2026-04-24T14:12:43.919Z</time></trkpt><trkpt lat="34.1440983" lon="8.1048067"><ele>-6.5</ele><time>2026-04-24T14:12:44.92Z</time></trkpt><trkpt lat="34.144095" lon="8.1045217"><ele>-6.0</ele><time>2026-04-24T14:12:45.919Z</time></trkpt><trkpt lat="34.1440967" lon="8.1042317"><ele>-5.5</ele><time>2026-04-24T14:12:46.92Z</time></trkpt><trkpt lat="34.1441067" lon="8.1039367"><ele>-5.0</ele><time>2026-04-24T14:12:47.92Z</time></trkpt><trkpt lat="34.1441183" lon="8.1036483"><ele>-5.0</ele><time>2026-04-24T14:12:48.92Z</time></trkpt><trkpt lat="34.1441283" lon="8.1033567"><ele>-5.0</ele><time>2026-04-24T14:12:49.92Z</time></trkpt><trkpt lat="34.1441317" lon="8.1030617"><ele>-6.0</ele><time>2026-04-24T14:12:50.92Z</time></trkpt><trkpt lat="34.1441433" lon="8.1027667"><ele>-7.0</ele><time>2026-04-24T14:12:51.919Z</time></trkpt><trkpt lat="34.1441517" lon="8.102475"><ele>-8.0</ele><time>2026-04-24T14:12:52.92Z</time></trkpt><trkpt lat="34.1441583" lon="8.1021833"><ele>-9.0</ele><time>2026-04-24T14:12:53.92Z</time></trkpt><trkpt lat="34.1441667" lon="8.1018867"><ele>-9.0</ele><time>2026-04-24T14:12:54.919Z</time></trkpt><trkpt lat="34.144175" lon="8.1015883"><ele>-9.0</ele><time>2026-04-24T14:12:55.92Z</time></trkpt><trkpt lat="34.1441783" lon="8.1012967"><ele>-9.0</ele><time>2026-04-24T14:12:56.92Z</time></trkpt><trkpt lat="34.14418" lon="8.1009967"><ele>-9.0</ele><time>2026-04-24T14:12:57.919Z</time></trkpt><trkpt lat="34.1441883" lon="8.1007083"><ele>-9.0</ele><time>2026-04-24T14:12:58.92Z</time></trkpt><trkpt lat="34.1441933" lon="8.1004167"><ele>-9.0</ele><time>2026-04-24T14:12:59.919Z</time></trkpt><trkpt lat="34.1441967" lon="8.1001283"><ele>-8.5</ele><time>2026-04-24T14:13:00.919Z</time></trkpt><trkpt lat="34.1442033" lon="8.0998417"><ele>-8.0</ele><time>2026-04-24T14:13:01.92Z</time></trkpt><trkpt lat="34.1442067" lon="8.0995567"><ele>-8.0</ele><time>2026-04-24T14:13:02.919Z</time></trkpt><trkpt lat="34.1442083" lon="8.09928"><ele>-8.0</ele><time>2026-04-24T14:13:03.92Z</time></trkpt><trkpt lat="34.1442183" lon="8.0990183"><ele>-8.0</ele><time>2026-04-24T14:13:04.919Z</time></trkpt><trkpt lat="34.1442267" lon="8.0987633"><ele>-7.666666666666666</ele><time>2026-04-24T14:13:05.919Z</time></trkpt><trkpt lat="34.14423" lon="8.0985117"><ele>-7.333333333333334</ele><time>2026-04-24T14:13:06.919Z</time></trkpt><trkpt lat="34.1442183" lon="8.098255"><ele>-7.0</ele><time>2026-04-24T14:13:07.92Z</time></trkpt><trkpt lat="34.14419" lon="8.0979983"><ele>-8.0</ele><time>2026-04-24T14:13:08.92Z</time></trkpt><trkpt lat="34.1441517" lon="8.0977317"><ele>-9.0</ele><time>2026-04-24T14:13:09.92Z</time></trkpt><trkpt lat="34.1441067" lon="8.097465"><ele>-10.0</ele><time>2026-04-24T14:13:10.92Z</time></trkpt><trkpt lat="34.144065" lon="8.0971967"><ele>-10.333333333333334</ele><time>2026-04-24T14:13:11.92Z</time></trkpt><trkpt lat="34.14402" lon="8.096935"><ele>-10.666666666666666</ele><time>2026-04-24T14:13:12.92Z</time></trkpt><trkpt lat="34.1439667" lon="8.0966933"><ele>-11.0</ele><time>2026-04-24T14:13:13.92Z</time></trkpt><trkpt lat="34.14391" lon="8.0964633"><ele>-11.333333333333332</ele><time>2026-04-24T14:13:14.92Z</time></trkpt><trkpt lat="34.1438367" lon="8.0962417"><ele>-11.666666666666666</ele><time>2026-04-24T14:13:15.92Z</time></trkpt><trkpt lat="34.14374" lon="8.0960567"><ele>-12.0</ele><time>2026-04-24T14:13:16.919Z</time></trkpt><trkpt lat="34.1436317" lon="8.09589"><ele>-12.0</ele><time>2026-04-24T14:13:17.919Z</time></trkpt><trkpt lat="34.1435017" lon="8.095745"><ele>-12.0</ele><time>2026-04-24T14:13:18.919Z</time></trkpt><trkpt lat="34.1433617" lon="8.0956217"><ele>-12.0</ele><time>2026-04-24T14:13:19.919Z</time></trkpt><trkpt lat="34.1432117" lon="8.0955067"><ele>-12.0</ele><time>2026-04-24T14:13:20.917Z</time></trkpt><trkpt lat="34.1430533" lon="8.0953933"><ele>-12.0</ele><time>2026-04-24T14:13:21.919Z</time></trkpt><trkpt lat="34.142885" lon="8.09528"><ele>-12.0</ele><time>2026-04-24T14:13:22.919Z</time></trkpt><trkpt lat="34.1427117" lon="8.0951617"><ele>-12.0</ele><time>2026-04-24T14:13:23.919Z</time></trkpt><trkpt lat="34.1425467" lon="8.0950417"><ele>-12.0</ele><time>2026-04-24T14:13:24.919Z</time></trkpt><trkpt lat="34.142375" lon="8.094935"><ele>-12.0</ele><time>2026-04-24T14:13:25.919Z</time></trkpt><trkpt lat="34.142205" lon="8.0948167"><ele>-11.666666666666666</ele><time>2026-04-24T14:13:26.919Z</time></trkpt><trkpt lat="34.1420267" lon="8.09469"><ele>-11.333333333333332</ele><time>2026-04-24T14:13:27.919Z</time></trkpt><trkpt lat="34.14185" lon="8.0945617"><ele>-11.0</ele><time>2026-04-24T14:13:28.919Z</time></trkpt><trkpt lat="34.1416767" lon="8.0944367"><ele>-10.666666666666666</ele><time>2026-04-24T14:13:29.919Z</time></trkpt><trkpt lat="34.1414933" lon="8.0943083"><ele>-10.333333333333334</ele><time>2026-04-24T14:13:30.919Z</time></trkpt><trkpt lat="34.141315" lon="8.0941917"><ele>-10.0</ele><time>2026-04-24T14:13:31.919Z</time></trkpt><trkpt lat="34.1411383" lon="8.094065"><ele>-10.0</ele><time>2026-04-24T14:13:32.918Z</time></trkpt><trkpt lat="34.1409567" lon="8.093945"><ele>-10.0</ele><time>2026-04-24T14:13:33.919Z</time></trkpt><trkpt lat="34.140765" lon="8.093835"><ele>-10.0</ele><time>2026-04-24T14:13:34.919Z</time></trkpt><trkpt lat="34.1405783" lon="8.0937233"><ele>-10.666666666666668</ele><time>2026-04-24T14:13:35.919Z</time></trkpt><trkpt lat="34.1403917" lon="8.09361"><ele>-11.333333333333334</ele><time>2026-04-24T14:13:36.919Z</time></trkpt><trkpt lat="34.140205" lon="8.0934917"><ele>-12.0</ele><time>2026-04-24T14:13:37.919Z</time></trkpt><trkpt lat="34.1400133" lon="8.093375"><ele>-11.666666666666666</ele><time>2026-04-24T14:13:38.919Z</time></trkpt><trkpt lat="34.1398267" lon="8.0932517"><ele>-11.333333333333332</ele><time>2026-04-24T14:13:39.919Z</time></trkpt><trkpt lat="34.1396317" lon="8.09314"><ele>-11.0</ele><time>2026-04-24T14:13:40.919Z</time></trkpt><trkpt lat="34.1394367" lon="8.0930283"><ele>-11.0</ele><time>2026-04-24T14:13:41.918Z</time></trkpt><trkpt lat="34.1392417" lon="8.09291"><ele>-11.0</ele><time>2026-04-24T14:13:42.919Z</time></trkpt><trkpt lat="34.13905" lon="8.09278"><ele>-11.0</ele><time>2026-04-24T14:13:43.918Z</time></trkpt><trkpt lat="34.1388517" lon="8.0926533"><ele>-12.0</ele><time>2026-04-24T14:13:44.919Z</time></trkpt><trkpt lat="34.138645" lon="8.0925267"><ele>-13.0</ele><time>2026-04-24T14:13:45.919Z</time></trkpt><trkpt lat="34.1384417" lon="8.092405"><ele>-13.0</ele><time>2026-04-24T14:13:46.919Z</time></trkpt><trkpt lat="34.1382433" lon="8.092285"><ele>-13.0</ele><time>2026-04-24T14:13:47.919Z</time></trkpt><trkpt lat="34.1380433" lon="8.0921583"><ele>-13.0</ele><time>2026-04-24T14:13:48.919Z</time></trkpt><trkpt lat="34.13784" lon="8.0920283"><ele>-13.5</ele><time>2026-04-24T14:13:49.919Z</time></trkpt><trkpt lat="34.1376333" lon="8.0919"><ele>-14.0</ele><time>2026-04-24T14:13:50.919Z</time></trkpt><trkpt lat="34.1374283" lon="8.0917717"><ele>-14.0</ele><time>2026-04-24T14:13:51.919Z</time></trkpt><trkpt lat="34.1372217" lon="8.09164"><ele>-14.0</ele><time>2026-04-24T14:13:52.919Z</time></trkpt><trkpt lat="34.1370317" lon="8.0914933"><ele>-14.0</ele><time>2026-04-24T14:13:53.919Z</time></trkpt><trkpt lat="34.136855" lon="8.0913167"><ele>-14.0</ele><time>2026-04-24T14:13:54.919Z</time></trkpt><trkpt lat="34.1366967" lon="8.09111"><ele>-14.0</ele><time>2026-04-24T14:13:55.919Z</time></trkpt><trkpt lat="34.13654" lon="8.0908983"><ele>-14.0</ele><time>2026-04-24T14:13:56.919Z</time></trkpt><trkpt lat="34.1363817" lon="8.09069"><ele>-14.0</ele><time>2026-04-24T14:13:57.919Z</time></trkpt><trkpt lat="34.13622" lon="8.0904983"><ele>-14.0</ele><time>2026-04-24T14:13:58.918Z</time></trkpt><trkpt lat="34.1360533" lon="8.0902983"><ele>-14.0</ele><time>2026-04-24T14:13:59.919Z</time></trkpt><trkpt lat="34.1358833" lon="8.0901033"><ele>-14.0</ele><time>2026-04-24T14:14:00.919Z</time></trkpt><trkpt lat="34.13571" lon="8.0899083"><ele>-14.5</ele><time>2026-04-24T14:14:01.919Z</time></trkpt><trkpt lat="34.1355433" lon="8.08971"><ele>-15.0</ele><time>2026-04-24T14:14:02.918Z</time></trkpt><trkpt lat="34.1353717" lon="8.0895183"><ele>-15.0</ele><time>2026-04-24T14:14:03.918Z</time></trkpt><trkpt lat="34.1352033" lon="8.0893183"><ele>-15.0</ele><time>2026-04-24T14:14:04.918Z</time></trkpt><trkpt lat="34.1350383" lon="8.0891217"><ele>-15.5</ele><time>2026-04-24T14:14:05.919Z</time></trkpt><trkpt lat="34.13487" lon="8.08893"><ele>-16.0</ele><time>2026-04-24T14:14:06.919Z</time></trkpt><trkpt lat="34.1347067" lon="8.0887383"><ele>-16.0</ele><time>2026-04-24T14:14:07.919Z</time></trkpt><trkpt lat="34.13454" lon="8.0885483"><ele>-16.0</ele><time>2026-04-24T14:14:08.919Z</time></trkpt><trkpt lat="34.1343833" lon="8.0883567"><ele>-15.666666666666666</ele><time>2026-04-24T14:14:09.918Z</time></trkpt><trkpt lat="34.1342233" lon="8.08817"><ele>-15.333333333333332</ele><time>2026-04-24T14:14:10.919Z</time></trkpt><trkpt lat="34.1340633" lon="8.0879833"><ele>-15.0</ele><time>2026-04-24T14:14:11.919Z</time></trkpt><trkpt lat="34.1338983" lon="8.0878067"><ele>-15.0</ele><time>2026-04-24T14:14:12.919Z</time></trkpt><trkpt lat="34.1337267" lon="8.0876417"><ele>-15.0</ele><time>2026-04-24T14:14:13.919Z</time></trkpt><trkpt lat="34.1335533" lon="8.087475"><ele>-15.0</ele><time>2026-04-24T14:14:14.919Z</time></trkpt><trkpt lat="34.1333717" lon="8.0873133"><ele>-15.333333333333332</ele><time>2026-04-24T14:14:15.919Z</time></trkpt><trkpt lat="34.1332" lon="8.0871633"><ele>-15.666666666666666</ele><time>2026-04-24T14:14:16.919Z</time></trkpt><trkpt lat="34.13302" lon="8.0870017"><ele>-16.0</ele><time>2026-04-24T14:14:17.919Z</time></trkpt><trkpt lat="34.1328417" lon="8.08684"><ele>-16.0</ele><time>2026-04-24T14:14:18.919Z</time></trkpt><trkpt lat="34.1326633" lon="8.0866783"><ele>-16.0</ele><time>2026-04-24T14:14:19.919Z</time></trkpt><trkpt lat="34.13249" lon="8.08652"><ele>-16.0</ele><time>2026-04-24T14:14:20.919Z</time></trkpt><trkpt lat="34.1323183" lon="8.0863717"><ele>-16.0</ele><time>2026-04-24T14:14:21.918Z</time></trkpt><trkpt lat="34.1321483" lon="8.08622"><ele>-16.0</ele><time>2026-04-24T14:14:22.919Z</time></trkpt><trkpt lat="34.1319833" lon="8.0860767"><ele>-16.0</ele><time>2026-04-24T14:14:23.919Z</time></trkpt><trkpt lat="34.1318267" lon="8.0859267"><ele>-16.0</ele><time>2026-04-24T14:14:24.918Z</time></trkpt><trkpt lat="34.13166" lon="8.0857833"><ele>-16.0</ele><time>2026-04-24T14:14:25.919Z</time></trkpt><trkpt lat="34.1315033" lon="8.0856417"><ele>-16.0</ele><time>2026-04-24T14:14:26.918Z</time></trkpt><trkpt lat="34.1313567" lon="8.0854917"><ele>-16.333333333333332</ele><time>2026-04-24T14:14:27.919Z</time></trkpt><trkpt lat="34.1312267" lon="8.0853333"><ele>-16.666666666666668</ele><time>2026-04-24T14:14:28.918Z</time></trkpt><trkpt lat="34.1311067" lon="8.0851433"><ele>-17.0</ele><time>2026-04-24T14:14:29.918Z</time></trkpt><trkpt lat="34.1310033" lon="8.084975"><ele>-17.0</ele><time>2026-04-24T14:14:30.919Z</time></trkpt><trkpt lat="34.130905" lon="8.084815"><ele>-17.0</ele><time>2026-04-24T14:14:31.918Z</time></trkpt><trkpt lat="34.130815" lon="8.0846583"><ele>-17.0</ele><time>2026-04-24T14:14:32.918Z</time></trkpt><trkpt lat="34.1307283" lon="8.0845133"><ele>-17.0</ele><time>2026-04-24T14:14:33.918Z</time></trkpt><trkpt lat="34.1306517" lon="8.0843933"><ele>-17.0</ele><time>2026-04-24T14:14:34.918Z</time></trkpt><trkpt lat="34.13059" lon="8.0842833"><ele>-17.0</ele><time>2026-04-24T14:14:35.919Z</time></trkpt><trkpt lat="34.13054" lon="8.0842017"><ele>-17.0</ele><time>2026-04-24T14:14:36.919Z</time></trkpt><trkpt lat="34.1305017" lon="8.0841333"><ele>-17.0</ele><time>2026-04-24T14:14:37.918Z</time></trkpt><trkpt lat="34.13044" lon="8.0840383"><ele>-17.0</ele><time>2026-04-24T14:14:39.919Z</time></trkpt><trkpt lat="34.1304" lon="8.0839733"><ele>-17.0</ele><time>2026-04-24T14:14:42.919Z</time></trkpt><trkpt lat="34.13033" lon="8.083965"><ele>-17.0</ele><time>2026-04-24T14:14:45.918Z</time></trkpt><trkpt lat="34.1302567" lon="8.0840217"><ele>-17.0</ele><time>2026-04-24T14:14:47.919Z</time></trkpt><trkpt lat="34.13015" lon="8.0841033"><ele>-17.0</ele><time>2026-04-24T14:14:49.918Z</time></trkpt><trkpt lat="34.13009" lon="8.0841533"><ele>-17.0</ele><time>2026-04-24T14:14:50.919Z</time></trkpt><trkpt lat="34.13002" lon="8.08421"><ele>-17.0</ele><time>2026-04-24T14:14:51.919Z</time></trkpt><trkpt lat="34.1299417" lon="8.0842733"><ele>-17.0</ele><time>2026-04-24T14:14:52.919Z</time></trkpt><trkpt lat="34.1298583" lon="8.0843367"><ele>-17.0</ele><time>2026-04-24T14:14:53.918Z</time></trkpt><trkpt lat="34.1297717" lon="8.0844067"><ele>-17.0</ele><time>2026-04-24T14:14:54.919Z</time></trkpt><trkpt lat="34.1296833" lon="8.0844783"><ele>-17.0</ele><time>2026-04-24T14:14:55.919Z</time></trkpt><trkpt lat="34.1295917" lon="8.0845533"><ele>-17.0</ele><time>2026-04-24T14:14:56.919Z</time></trkpt><trkpt lat="34.129495" lon="8.0846317"><ele>-17.0</ele><time>2026-04-24T14:14:57.918Z</time></trkpt><trkpt lat="34.1293917" lon="8.0847183"><ele>-17.0</ele><time>2026-04-24T14:14:58.919Z</time></trkpt><trkpt lat="34.1292867" lon="8.08481"><ele>-17.0</ele><time>2026-04-24T14:14:59.919Z</time></trkpt><trkpt lat="34.1291783" lon="8.0849"><ele>-17.0</ele><time>2026-04-24T14:15:00.918Z</time></trkpt><trkpt lat="34.1290667" lon="8.084995"><ele>-17.0</ele><time>2026-04-24T14:15:01.919Z</time></trkpt><trkpt lat="34.1289483" lon="8.0850867"><ele>-17.0</ele><time>2026-04-24T14:15:02.919Z</time></trkpt><trkpt lat="34.1288283" lon="8.0851767"><ele>-17.0</ele><time>2026-04-24T14:15:03.919Z</time></trkpt><trkpt lat="34.1287067" lon="8.085275"><ele>-17.0</ele><time>2026-04-24T14:15:04.919Z</time></trkpt><trkpt lat="34.12859" lon="8.08538"><ele>-17.0</ele><time>2026-04-24T14:15:05.919Z</time></trkpt><trkpt lat="34.1284667" lon="8.0854767"><ele>-17.0</ele><time>2026-04-24T14:15:06.919Z</time></trkpt><trkpt lat="34.1283417" lon="8.0855717"><ele>-17.0</ele><time>2026-04-24T14:15:07.919Z</time></trkpt><trkpt lat="34.1282083" lon="8.085675"><ele>-17.0</ele><time>2026-04-24T14:15:08.919Z</time></trkpt><trkpt lat="34.1280717" lon="8.0857833"><ele>-17.0</ele><time>2026-04-24T14:15:09.919Z</time></trkpt><trkpt lat="34.1279283" lon="8.0858917"><ele>-17.0</ele><time>2026-04-24T14:15:10.919Z</time></trkpt><trkpt lat="34.1277867" lon="8.0860033"><ele>-17.0</ele><time>2026-04-24T14:15:11.918Z</time></trkpt><trkpt lat="34.1276383" lon="8.0861117"><ele>-17.0</ele><time>2026-04-24T14:15:12.919Z</time></trkpt><trkpt lat="34.1274867" lon="8.0862267"><ele>-17.0</ele><time>2026-04-24T14:15:13.918Z</time></trkpt><trkpt lat="34.1273267" lon="8.0863367"><ele>-16.666666666666668</ele><time>2026-04-24T14:15:14.919Z</time></trkpt><trkpt lat="34.12717" lon="8.0864533"><ele>-16.333333333333332</ele><time>2026-04-24T14:15:15.919Z</time></trkpt><trkpt lat="34.1270117" lon="8.08657"><ele>-16.0</ele><time>2026-04-24T14:15:16.919Z</time></trkpt><trkpt lat="34.1268483" lon="8.0866867"><ele>-16.0</ele><time>2026-04-24T14:15:17.919Z</time></trkpt><trkpt lat="34.1266867" lon="8.0868033"><ele>-16.0</ele><time>2026-04-24T14:15:18.919Z</time></trkpt><trkpt lat="34.126525" lon="8.08693"><ele>-16.0</ele><time>2026-04-24T14:15:19.919Z</time></trkpt><trkpt lat="34.1263567" lon="8.0870517"><ele>-16.0</ele><time>2026-04-24T14:15:20.919Z</time></trkpt><trkpt lat="34.1261867" lon="8.0871717"><ele>-16.0</ele><time>2026-04-24T14:15:21.919Z</time></trkpt><trkpt lat="34.1260167" lon="8.0872933"><ele>-16.0</ele><time>2026-04-24T14:15:22.919Z</time></trkpt><trkpt lat="34.1258417" lon="8.08742"><ele>-16.0</ele><time>2026-04-24T14:15:23.919Z</time></trkpt><trkpt lat="34.1256683" lon="8.0875417"><ele>-16.0</ele><time>2026-04-24T14:15:24.919Z</time></trkpt><trkpt lat="34.1254933" lon="8.0876617"><ele>-16.0</ele><time>2026-04-24T14:15:25.919Z</time></trkpt><trkpt lat="34.12532" lon="8.087785"><ele>-16.0</ele><time>2026-04-24T14:15:26.919Z</time></trkpt><trkpt lat="34.1251483" lon="8.0879117"><ele>-16.0</ele><time>2026-04-24T14:15:27.919Z</time></trkpt><trkpt lat="34.1249717" lon="8.0880433"><ele>-16.0</ele><time>2026-04-24T14:15:28.919Z</time></trkpt><trkpt lat="34.1247967" lon="8.0881767"><ele>-16.0</ele><time>2026-04-24T14:15:29.918Z</time></trkpt><trkpt lat="34.1246083" lon="8.0883017"><ele>-16.0</ele><time>2026-04-24T14:15:30.918Z</time></trkpt><trkpt lat="34.1244167" lon="8.08843"><ele>-16.0</ele><time>2026-04-24T14:15:31.919Z</time></trkpt><trkpt lat="34.124235" lon="8.0885667"><ele>-16.0</ele><time>2026-04-24T14:15:32.919Z</time></trkpt><trkpt lat="34.124045" lon="8.088695"><ele>-16.0</ele><time>2026-04-24T14:15:33.919Z</time></trkpt><trkpt lat="34.1238583" lon="8.088825"><ele>-16.0</ele><time>2026-04-24T14:15:34.919Z</time></trkpt><trkpt lat="34.123675" lon="8.0889617"><ele>-16.0</ele><time>2026-04-24T14:15:35.919Z</time></trkpt><trkpt lat="34.123485" lon="8.0890933"><ele>-16.0</ele><time>2026-04-24T14:15:36.918Z</time></trkpt><trkpt lat="34.1232983" lon="8.08923"><ele>-16.0</ele><time>2026-04-24T14:15:37.919Z</time></trkpt><trkpt lat="34.123105" lon="8.089365"><ele>-16.0</ele><time>2026-04-24T14:15:38.919Z</time></trkpt><trkpt lat="34.1229217" lon="8.0895"><ele>-16.0</ele><time>2026-04-24T14:15:39.919Z</time></trkpt><trkpt lat="34.122735" lon="8.089645"><ele>-16.0</ele><time>2026-04-24T14:15:40.919Z</time></trkpt><trkpt lat="34.1225433" lon="8.0897817"><ele>-16.0</ele><time>2026-04-24T14:15:41.919Z</time></trkpt><trkpt lat="34.1223583" lon="8.089925"><ele>-16.0</ele><time>2026-04-24T14:15:42.919Z</time></trkpt><trkpt lat="34.122165" lon="8.0900567"><ele>-16.0</ele><time>2026-04-24T14:15:43.919Z</time></trkpt><trkpt lat="34.12197" lon="8.0901917"><ele>-16.0</ele><time>2026-04-24T14:15:44.918Z</time></trkpt><trkpt lat="34.1217767" lon="8.090325"><ele>-16.0</ele><time>2026-04-24T14:15:45.918Z</time></trkpt><trkpt lat="34.1215817" lon="8.0904583"><ele>-16.0</ele><time>2026-04-24T14:15:46.919Z</time></trkpt><trkpt lat="34.1213883" lon="8.0905917"><ele>-16.333333333333332</ele><time>2026-04-24T14:15:47.919Z</time></trkpt><trkpt lat="34.121195" lon="8.0907283"><ele>-16.666666666666668</ele><time>2026-04-24T14:15:48.918Z</time></trkpt><trkpt lat="34.1210017" lon="8.0908633"><ele>-17.0</ele><time>2026-04-24T14:15:49.919Z</time></trkpt><trkpt lat="34.12081" lon="8.090995"><ele>-17.5</ele><time>2026-04-24T14:15:50.919Z</time></trkpt><trkpt lat="34.1206183" lon="8.0911333"><ele>-18.0</ele><time>2026-04-24T14:15:51.919Z</time></trkpt><trkpt lat="34.12042" lon="8.091275"><ele>-18.0</ele><time>2026-04-24T14:15:52.919Z</time></trkpt><trkpt lat="34.1202333" lon="8.0914183"><ele>-18.0</ele><time>2026-04-24T14:15:53.918Z</time></trkpt><trkpt lat="34.1200417" lon="8.0915483"><ele>-18.0</ele><time>2026-04-24T14:15:54.919Z</time></trkpt><trkpt lat="34.1198533" lon="8.0916833"><ele>-17.0</ele><time>2026-04-24T14:15:55.919Z</time></trkpt><trkpt lat="34.1196633" lon="8.0918183"><ele>-16.0</ele><time>2026-04-24T14:15:56.918Z</time></trkpt><trkpt lat="34.119475" lon="8.0919517"><ele>-15.0</ele><time>2026-04-24T14:15:57.919Z</time></trkpt><trkpt lat="34.119285" lon="8.0920867"><ele>-15.0</ele><time>2026-04-24T14:15:58.919Z</time></trkpt><trkpt lat="34.1190983" lon="8.0922233"><ele>-15.0</ele><time>2026-04-24T14:15:59.919Z</time></trkpt><trkpt lat="34.1189083" lon="8.0923567"><ele>-15.0</ele><time>2026-04-24T14:16:00.918Z</time></trkpt><trkpt lat="34.1187167" lon="8.0924933"><ele>-14.666666666666668</ele><time>2026-04-24T14:16:01.918Z</time></trkpt><trkpt lat="34.1185317" lon="8.0926283"><ele>-14.333333333333334</ele><time>2026-04-24T14:16:02.919Z</time></trkpt><trkpt lat="34.1183467" lon="8.092765"><ele>-14.0</ele><time>2026-04-24T14:16:03.919Z</time></trkpt><trkpt lat="34.11816" lon="8.0929"><ele>-14.0</ele><time>2026-04-24T14:16:04.918Z</time></trkpt><trkpt lat="34.11797" lon="8.0930317"><ele>-14.0</ele><time>2026-04-24T14:16:05.919Z</time></trkpt><trkpt lat="34.1177867" lon="8.0931683"><ele>-14.0</ele><time>2026-04-24T14:16:06.919Z</time></trkpt><trkpt lat="34.1175967" lon="8.0932933"><ele>-14.333333333333334</ele><time>2026-04-24T14:16:07.919Z</time></trkpt><trkpt lat="34.117405" lon="8.093425"><ele>-14.666666666666668</ele><time>2026-04-24T14:16:08.918Z</time></trkpt><trkpt lat="34.11721" lon="8.0935567"><ele>-15.0</ele><time>2026-04-24T14:16:09.919Z</time></trkpt><trkpt lat="34.1170217" lon="8.093695"><ele>-15.0</ele><time>2026-04-24T14:16:10.919Z</time></trkpt><trkpt lat="34.116835" lon="8.09384"><ele>-15.0</ele><time>2026-04-24T14:16:11.919Z</time></trkpt><trkpt lat="34.1166417" lon="8.09398"><ele>-15.0</ele><time>2026-04-24T14:16:12.919Z</time></trkpt><trkpt lat="34.116445" lon="8.094115"><ele>-15.0</ele><time>2026-04-24T14:16:13.918Z</time></trkpt><trkpt lat="34.116255" lon="8.09424"><ele>-15.0</ele><time>2026-04-24T14:16:14.919Z</time></trkpt><trkpt lat="34.116065" lon="8.0943783"><ele>-15.0</ele><time>2026-04-24T14:16:15.919Z</time></trkpt><trkpt lat="34.1158767" lon="8.0945217"><ele>-14.333333333333332</ele><time>2026-04-24T14:16:16.918Z</time></trkpt><trkpt lat="34.11569" lon="8.0946633"><ele>-13.666666666666666</ele><time>2026-04-24T14:16:17.919Z</time></trkpt><trkpt lat="34.1155" lon="8.094805"><ele>-13.0</ele><time>2026-04-24T14:16:18.918Z</time></trkpt><trkpt lat="34.11531" lon="8.09494"><ele>-13.0</ele><time>2026-04-24T14:16:19.919Z</time></trkpt><trkpt lat="34.1151183" lon="8.0950717"><ele>-13.0</ele><time>2026-04-24T14:16:20.919Z</time></trkpt><trkpt lat="34.1149317" lon="8.0952083"><ele>-13.0</ele><time>2026-04-24T14:16:21.919Z</time></trkpt><trkpt lat="34.11474" lon="8.0953467"><ele>-13.0</ele><time>2026-04-24T14:16:22.919Z</time></trkpt><trkpt lat="34.11455" lon="8.09548"><ele>-13.0</ele><time>2026-04-24T14:16:23.919Z</time></trkpt><trkpt lat="34.1143517" lon="8.095615"><ele>-13.0</ele><time>2026-04-24T14:16:24.919Z</time></trkpt><trkpt lat="34.1141567" lon="8.0957483"><ele>-13.333333333333332</ele><time>2026-04-24T14:16:25.919Z</time></trkpt><trkpt lat="34.113965" lon="8.0958817"><ele>-13.666666666666668</ele><time>2026-04-24T14:16:26.918Z</time></trkpt><trkpt lat="34.11378" lon="8.09602"><ele>-14.0</ele><time>2026-04-24T14:16:27.919Z</time></trkpt><trkpt lat="34.1135883" lon="8.0961517"><ele>-14.0</ele><time>2026-04-24T14:16:28.918Z</time></trkpt><trkpt lat="34.1133933" lon="8.0962867"><ele>-14.0</ele><time>2026-04-24T14:16:29.919Z</time></trkpt><trkpt lat="34.1132" lon="8.0964217"><ele>-14.0</ele><time>2026-04-24T14:16:30.919Z</time></trkpt><trkpt lat="34.1130117" lon="8.0965667"><ele>-14.5</ele><time>2026-04-24T14:16:31.918Z</time></trkpt><trkpt lat="34.11282" lon="8.0967067"><ele>-15.0</ele><time>2026-04-24T14:16:32.919Z</time></trkpt><trkpt lat="34.1126217" lon="8.096845"><ele>-15.0</ele><time>2026-04-24T14:16:33.918Z</time></trkpt><trkpt lat="34.1124217" lon="8.0969917"><ele>-15.0</ele><time>2026-04-24T14:16:34.918Z</time></trkpt><trkpt lat="34.11222" lon="8.0971383"><ele>-14.5</ele><time>2026-04-24T14:16:35.919Z</time></trkpt><trkpt lat="34.1120167" lon="8.0972817"><ele>-14.0</ele><time>2026-04-24T14:16:36.918Z</time></trkpt><trkpt lat="34.1118133" lon="8.0974183"><ele>-14.0</ele><time>2026-04-24T14:16:37.919Z</time></trkpt><trkpt lat="34.111615" lon="8.097565"><ele>-14.0</ele><time>2026-04-24T14:16:38.919Z</time></trkpt><trkpt lat="34.111415" lon="8.0977133"><ele>-14.0</ele><time>2026-04-24T14:16:39.919Z</time></trkpt><trkpt lat="34.1112083" lon="8.0978567"><ele>-14.0</ele><time>2026-04-24T14:16:40.919Z</time></trkpt><trkpt lat="34.1110083" lon="8.0980067"><ele>-14.0</ele><time>2026-04-24T14:16:41.919Z</time></trkpt><trkpt lat="34.1108117" lon="8.098155"><ele>-14.0</ele><time>2026-04-24T14:16:42.919Z</time></trkpt><trkpt lat="34.1106183" lon="8.0983067"><ele>-13.0</ele><time>2026-04-24T14:16:43.919Z</time></trkpt><trkpt lat="34.1104217" lon="8.0984483"><ele>-12.0</ele><time>2026-04-24T14:16:44.918Z</time></trkpt><trkpt lat="34.110225" lon="8.09859"><ele>-12.0</ele><time>2026-04-24T14:16:45.919Z</time></trkpt><trkpt lat="34.1100267" lon="8.0987367"><ele>-12.0</ele><time>2026-04-24T14:16:46.919Z</time></trkpt><trkpt lat="34.1098233" lon="8.0988833"><ele>-12.0</ele><time>2026-04-24T14:16:47.919Z</time></trkpt><trkpt lat="34.1096267" lon="8.0990283"><ele>-12.0</ele><time>2026-04-24T14:16:48.919Z</time></trkpt><trkpt lat="34.10943" lon="8.099165"><ele>-12.0</ele><time>2026-04-24T14:16:49.919Z</time></trkpt><trkpt lat="34.1092317" lon="8.099295"><ele>-12.0</ele><time>2026-04-24T14:16:50.918Z</time></trkpt><trkpt lat="34.1090333" lon="8.09944"><ele>-12.0</ele><time>2026-04-24T14:16:51.919Z</time></trkpt><trkpt lat="34.1088317" lon="8.099585"><ele>-12.0</ele><time>2026-04-24T14:16:52.918Z</time></trkpt><trkpt lat="34.1086317" lon="8.0997317"><ele>-12.0</ele><time>2026-04-24T14:16:53.919Z</time></trkpt><trkpt lat="34.10843" lon="8.0998783"><ele>-12.0</ele><time>2026-04-24T14:16:54.918Z</time></trkpt><trkpt lat="34.1082283" lon="8.1000183"><ele>-12.5</ele><time>2026-04-24T14:16:55.919Z</time></trkpt><trkpt lat="34.108025" lon="8.1001567"><ele>-13.0</ele><time>2026-04-24T14:16:56.918Z</time></trkpt><trkpt lat="34.10782" lon="8.1002917"><ele>-13.0</ele><time>2026-04-24T14:16:57.919Z</time></trkpt><trkpt lat="34.10762" lon="8.1004283"><ele>-13.0</ele><time>2026-04-24T14:16:58.919Z</time></trkpt><trkpt lat="34.1074217" lon="8.100565"><ele>-12.5</ele><time>2026-04-24T14:16:59.919Z</time></trkpt><trkpt lat="34.1072183" lon="8.1006983"><ele>-12.0</ele><time>2026-04-24T14:17:00.919Z</time></trkpt><trkpt lat="34.1070117" lon="8.1008317"><ele>-12.0</ele><time>2026-04-24T14:17:01.919Z</time></trkpt><trkpt lat="34.1068117" lon="8.1009633"><ele>-12.0</ele><time>2026-04-24T14:17:02.919Z</time></trkpt><trkpt lat="34.106615" lon="8.10109"><ele>-12.0</ele><time>2026-04-24T14:17:03.919Z</time></trkpt><trkpt lat="34.1064117" lon="8.1012117"><ele>-12.0</ele><time>2026-04-24T14:17:04.919Z</time></trkpt><trkpt lat="34.106215" lon="8.1013383"><ele>-12.0</ele><time>2026-04-24T14:17:05.919Z</time></trkpt><trkpt lat="34.1060117" lon="8.1014633"><ele>-12.0</ele><time>2026-04-24T14:17:06.919Z</time></trkpt><trkpt lat="34.10581" lon="8.1016017"><ele>-12.0</ele><time>2026-04-24T14:17:07.919Z</time></trkpt><trkpt lat="34.10561" lon="8.1017317"><ele>-12.0</ele><time>2026-04-24T14:17:08.919Z</time></trkpt><trkpt lat="34.10541" lon="8.1018583"><ele>-12.0</ele><time>2026-04-24T14:17:09.919Z</time></trkpt><trkpt lat="34.1052067" lon="8.10199"><ele>-12.0</ele><time>2026-04-24T14:17:10.919Z</time></trkpt><trkpt lat="34.105005" lon="8.10212"><ele>-12.5</ele><time>2026-04-24T14:17:11.919Z</time></trkpt><trkpt lat="34.1048017" lon="8.10225"><ele>-13.0</ele><time>2026-04-24T14:17:12.919Z</time></trkpt><trkpt lat="34.104595" lon="8.1023783"><ele>-13.0</ele><time>2026-04-24T14:17:13.919Z</time></trkpt><trkpt lat="34.1043883" lon="8.1025117"><ele>-13.0</ele><time>2026-04-24T14:17:14.919Z</time></trkpt><trkpt lat="34.1041833" lon="8.1026417"><ele>-13.0</ele><time>2026-04-24T14:17:15.919Z</time></trkpt><trkpt lat="34.10398" lon="8.1027667"><ele>-13.0</ele><time>2026-04-24T14:17:16.918Z</time></trkpt><trkpt lat="34.1037767" lon="8.1028933"><ele>-13.0</ele><time>2026-04-24T14:17:17.919Z</time></trkpt><trkpt lat="34.10358" lon="8.103025"><ele>-13.0</ele><time>2026-04-24T14:17:18.919Z</time></trkpt><trkpt lat="34.103385" lon="8.1031517"><ele>-13.0</ele><time>2026-04-24T14:17:19.919Z</time></trkpt><trkpt lat="34.10318" lon="8.1032833"><ele>-12.0</ele><time>2026-04-24T14:17:20.919Z</time></trkpt><trkpt lat="34.1029733" lon="8.1034133"><ele>-11.0</ele><time>2026-04-24T14:17:21.919Z</time></trkpt><trkpt lat="34.1027667" lon="8.10354"><ele>-11.0</ele><time>2026-04-24T14:17:22.919Z</time></trkpt><trkpt lat="34.1025567" lon="8.10367"><ele>-11.0</ele><time>2026-04-24T14:17:23.919Z</time></trkpt><trkpt lat="34.102355" lon="8.1037967"><ele>-11.5</ele><time>2026-04-24T14:17:24.919Z</time></trkpt><trkpt lat="34.102155" lon="8.103925"><ele>-12.0</ele><time>2026-04-24T14:17:25.918Z</time></trkpt><trkpt lat="34.1019567" lon="8.1040533"><ele>-12.0</ele><time>2026-04-24T14:17:26.919Z</time></trkpt><trkpt lat="34.1017633" lon="8.1041883"><ele>-12.0</ele><time>2026-04-24T14:17:27.919Z</time></trkpt><trkpt lat="34.1015633" lon="8.1043217"><ele>-13.0</ele><time>2026-04-24T14:17:28.919Z</time></trkpt><trkpt lat="34.1013717" lon="8.1044467"><ele>-14.0</ele><time>2026-04-24T14:17:29.919Z</time></trkpt><trkpt lat="34.1011833" lon="8.1045783"><ele>-15.0</ele><time>2026-04-24T14:17:30.919Z</time></trkpt><trkpt lat="34.1009833" lon="8.1047067"><ele>-15.0</ele><time>2026-04-24T14:17:31.919Z</time></trkpt><trkpt lat="34.1007833" lon="8.1048283"><ele>-15.0</ele><time>2026-04-24T14:17:32.919Z</time></trkpt><trkpt lat="34.1005833" lon="8.1049533"><ele>-15.0</ele><time>2026-04-24T14:17:33.919Z</time></trkpt><trkpt lat="34.1003817" lon="8.10508"><ele>-13.666666666666666</ele><time>2026-04-24T14:17:34.918Z</time></trkpt><trkpt lat="34.1001933" lon="8.1052067"><ele>-12.333333333333332</ele><time>2026-04-24T14:17:35.919Z</time></trkpt><trkpt lat="34.0999983" lon="8.1053333"><ele>-11.0</ele><time>2026-04-24T14:17:36.919Z</time></trkpt><trkpt lat="34.099805" lon="8.1054567"><ele>-11.0</ele><time>2026-04-24T14:17:37.919Z</time></trkpt><trkpt lat="34.0996133" lon="8.1055867"><ele>-11.0</ele><time>2026-04-24T14:17:38.919Z</time></trkpt><trkpt lat="34.0994183" lon="8.1057133"><ele>-11.0</ele><time>2026-04-24T14:17:39.919Z</time></trkpt><trkpt lat="34.0992167" lon="8.1058417"><ele>-11.0</ele><time>2026-04-24T14:17:40.919Z</time></trkpt><trkpt lat="34.0990217" lon="8.1059733"><ele>-11.0</ele><time>2026-04-24T14:17:41.919Z</time></trkpt><trkpt lat="34.0988267" lon="8.106105"><ele>-11.0</ele><time>2026-04-24T14:17:42.918Z</time></trkpt><trkpt lat="34.0986267" lon="8.1062367"><ele>-11.0</ele><time>2026-04-24T14:17:43.919Z</time></trkpt><trkpt lat="34.0984217" lon="8.106365"><ele>-11.0</ele><time>2026-04-24T14:17:44.918Z</time></trkpt><trkpt lat="34.0982217" lon="8.106495"><ele>-11.0</ele><time>2026-04-24T14:17:45.919Z</time></trkpt><trkpt lat="34.0980267" lon="8.1066283"><ele>-11.0</ele><time>2026-04-24T14:17:46.919Z</time></trkpt><trkpt lat="34.097825" lon="8.106755"><ele>-11.0</ele><time>2026-04-24T14:17:47.918Z</time></trkpt><trkpt lat="34.097625" lon="8.1068833"><ele>-11.0</ele><time>2026-04-24T14:17:48.918Z</time></trkpt><trkpt lat="34.09743" lon="8.1070183"><ele>-10.5</ele><time>2026-04-24T14:17:49.919Z</time></trkpt><trkpt lat="34.0972317" lon="8.10715"><ele>-10.0</ele><time>2026-04-24T14:17:50.917Z</time></trkpt><trkpt lat="34.0970283" lon="8.10728"><ele>-10.0</ele><time>2026-04-24T14:17:51.918Z</time></trkpt><trkpt lat="34.09683" lon="8.1074083"><ele>-10.0</ele><time>2026-04-24T14:17:52.917Z</time></trkpt><trkpt lat="34.0966333" lon="8.10754"><ele>-10.5</ele><time>2026-04-24T14:17:53.918Z</time></trkpt><trkpt lat="34.0964333" lon="8.1076717"><ele>-11.0</ele><time>2026-04-24T14:17:54.918Z</time></trkpt><trkpt lat="34.0962317" lon="8.1078017"><ele>-11.0</ele><time>2026-04-24T14:17:55.918Z</time></trkpt><trkpt lat="34.0960283" lon="8.107935"><ele>-11.0</ele><time>2026-04-24T14:17:56.918Z</time></trkpt><trkpt lat="34.0958267" lon="8.1080633"><ele>-11.0</ele><time>2026-04-24T14:17:57.918Z</time></trkpt><trkpt lat="34.0956233" lon="8.1081917"><ele>-11.0</ele><time>2026-04-24T14:17:58.918Z</time></trkpt><trkpt lat="34.09542" lon="8.1083167"><ele>-11.0</ele><time>2026-04-24T14:17:59.917Z</time></trkpt><trkpt lat="34.0952217" lon="8.1084383"><ele>-11.0</ele><time>2026-04-24T14:18:00.918Z</time></trkpt><trkpt lat="34.0950183" lon="8.1085667"><ele>-11.0</ele><time>2026-04-24T14:18:01.918Z</time></trkpt><trkpt lat="34.0948217" lon="8.108695"><ele>-11.0</ele><time>2026-04-24T14:18:02.918Z</time></trkpt><trkpt lat="34.0946233" lon="8.10882"><ele>-11.0</ele><time>2026-04-24T14:18:03.918Z</time></trkpt><trkpt lat="34.0944283" lon="8.1089483"><ele>-11.0</ele><time>2026-04-24T14:18:04.918Z</time></trkpt><trkpt lat="34.0942317" lon="8.1090767"><ele>-11.0</ele><time>2026-04-24T14:18:05.917Z</time></trkpt><trkpt lat="34.094035" lon="8.1092117"><ele>-11.0</ele><time>2026-04-24T14:18:06.917Z</time></trkpt><trkpt lat="34.0938383" lon="8.1093417"><ele>-11.0</ele><time>2026-04-24T14:18:07.917Z</time></trkpt><trkpt lat="34.0936417" lon="8.1094733"><ele>-11.0</ele><time>2026-04-24T14:18:08.917Z</time></trkpt><trkpt lat="34.0934383" lon="8.1096"><ele>-10.5</ele><time>2026-04-24T14:18:09.918Z</time></trkpt><trkpt lat="34.0932367" lon="8.1097283"><ele>-10.0</ele><time>2026-04-24T14:18:10.917Z</time></trkpt><trkpt lat="34.09303" lon="8.1098483"><ele>-10.0</ele><time>2026-04-24T14:18:11.918Z</time></trkpt><trkpt lat="34.0928283" lon="8.1099733"><ele>-10.0</ele><time>2026-04-24T14:18:12.918Z</time></trkpt><trkpt lat="34.0926267" lon="8.110095"><ele>-10.0</ele><time>2026-04-24T14:18:13.917Z</time></trkpt><trkpt lat="34.0924267" lon="8.1102217"><ele>-10.0</ele><time>2026-04-24T14:18:14.917Z</time></trkpt><trkpt lat="34.09223" lon="8.110345"><ele>-10.0</ele><time>2026-04-24T14:18:15.918Z</time></trkpt><trkpt lat="34.0920417" lon="8.110465"><ele>-10.0</ele><time>2026-04-24T14:18:16.918Z</time></trkpt><trkpt lat="34.0918417" lon="8.110585"><ele>-10.0</ele><time>2026-04-24T14:18:17.917Z</time></trkpt><trkpt lat="34.09164" lon="8.1107117"><ele>-9.5</ele><time>2026-04-24T14:18:18.918Z</time></trkpt><trkpt lat="34.0914367" lon="8.1108383"><ele>-9.0</ele><time>2026-04-24T14:18:19.918Z</time></trkpt><trkpt lat="34.0912433" lon="8.1109683"><ele>-9.0</ele><time>2026-04-24T14:18:20.917Z</time></trkpt><trkpt lat="34.0910467" lon="8.11109"><ele>-9.0</ele><time>2026-04-24T14:18:21.918Z</time></trkpt><trkpt lat="34.0908533" lon="8.1112117"><ele>-9.0</ele><time>2026-04-24T14:18:22.918Z</time></trkpt><trkpt lat="34.0906617" lon="8.1113417"><ele>-9.0</ele><time>2026-04-24T14:18:23.918Z</time></trkpt><trkpt lat="34.0904667" lon="8.1114667"><ele>-9.0</ele><time>2026-04-24T14:18:24.918Z</time></trkpt><trkpt lat="34.0902717" lon="8.11159"><ele>-9.0</ele><time>2026-04-24T14:18:25.918Z</time></trkpt><trkpt lat="34.0900733" lon="8.1117067"><ele>-8.666666666666666</ele><time>2026-04-24T14:18:26.917Z</time></trkpt><trkpt lat="34.0898717" lon="8.111825"><ele>-8.333333333333332</ele><time>2026-04-24T14:18:27.918Z</time></trkpt><trkpt lat="34.08967" lon="8.1119417"><ele>-8.0</ele><time>2026-04-24T14:18:28.917Z</time></trkpt><trkpt lat="34.0894733" lon="8.1120717"><ele>-8.0</ele><time>2026-04-24T14:18:29.918Z</time></trkpt><trkpt lat="34.0892733" lon="8.112195"><ele>-8.0</ele><time>2026-04-24T14:18:30.918Z</time></trkpt><trkpt lat="34.089075" lon="8.1123233"><ele>-8.0</ele><time>2026-04-24T14:18:31.917Z</time></trkpt><trkpt lat="34.08888" lon="8.1124467"><ele>-8.0</ele><time>2026-04-24T14:18:32.918Z</time></trkpt><trkpt lat="34.0886833" lon="8.1125717"><ele>-8.0</ele><time>2026-04-24T14:18:33.918Z</time></trkpt><trkpt lat="34.0884833" lon="8.112705"><ele>-8.0</ele><time>2026-04-24T14:18:34.918Z</time></trkpt><trkpt lat="34.08828" lon="8.1128433"><ele>-8.0</ele><time>2026-04-24T14:18:35.918Z</time></trkpt><trkpt lat="34.088075" lon="8.112965"><ele>-8.0</ele><time>2026-04-24T14:18:36.918Z</time></trkpt><trkpt lat="34.08787" lon="8.1130917"><ele>-8.0</ele><time>2026-04-24T14:18:37.917Z</time></trkpt><trkpt lat="34.0876667" lon="8.11322"><ele>-8.0</ele><time>2026-04-24T14:18:38.917Z</time></trkpt><trkpt lat="34.0874583" lon="8.1133483"><ele>-8.0</ele><time>2026-04-24T14:18:39.918Z</time></trkpt><trkpt lat="34.08725" lon="8.1134717"><ele>-8.0</ele><time>2026-04-24T14:18:40.918Z</time></trkpt><trkpt lat="34.0870383" lon="8.11359"><ele>-8.0</ele><time>2026-04-24T14:18:41.918Z</time></trkpt><trkpt lat="34.0868317" lon="8.1137083"><ele>-8.0</ele><time>2026-04-24T14:18:42.917Z</time></trkpt><trkpt lat="34.0866233" lon="8.1138283"><ele>-8.0</ele><time>2026-04-24T14:18:43.917Z</time></trkpt><trkpt lat="34.0864167" lon="8.1139533"><ele>-8.5</ele><time>2026-04-24T14:18:44.918Z</time></trkpt><trkpt lat="34.0862083" lon="8.11407"><ele>-9.0</ele><time>2026-04-24T14:18:45.918Z</time></trkpt><trkpt lat="34.0860067" lon="8.1141917"><ele>-9.333333333333334</ele><time>2026-04-24T14:18:46.917Z</time></trkpt><trkpt lat="34.0858033" lon="8.114305"><ele>-9.666666666666668</ele><time>2026-04-24T14:18:47.917Z</time></trkpt><trkpt lat="34.0856033" lon="8.11442"><ele>-10.0</ele><time>2026-04-24T14:18:48.918Z</time></trkpt><trkpt lat="34.0854067" lon="8.1145367"><ele>-10.0</ele><time>2026-04-24T14:18:49.917Z</time></trkpt><trkpt lat="34.0852033" lon="8.1146567"><ele>-10.0</ele><time>2026-04-24T14:18:50.918Z</time></trkpt><trkpt lat="34.0850033" lon="8.1147767"><ele>-9.666666666666668</ele><time>2026-04-24T14:18:51.917Z</time></trkpt><trkpt lat="34.0848017" lon="8.11489"><ele>-9.333333333333334</ele><time>2026-04-24T14:18:52.918Z</time></trkpt><trkpt lat="34.0846033" lon="8.1150067"><ele>-9.0</ele><time>2026-04-24T14:18:53.917Z</time></trkpt><trkpt lat="34.0844" lon="8.1151217"><ele>-8.666666666666666</ele><time>2026-04-24T14:18:54.917Z</time></trkpt><trkpt lat="34.0842" lon="8.11524"><ele>-8.333333333333332</ele><time>2026-04-24T14:18:55.917Z</time></trkpt><trkpt lat="34.0839967" lon="8.1153567"><ele>-8.0</ele><time>2026-04-24T14:18:56.918Z</time></trkpt><trkpt lat="34.0837983" lon="8.1154783"><ele>-7.666666666666666</ele><time>2026-04-24T14:18:57.918Z</time></trkpt><trkpt lat="34.083595" lon="8.1155933"><ele>-7.333333333333334</ele><time>2026-04-24T14:18:58.918Z</time></trkpt><trkpt lat="34.0833933" lon="8.11571"><ele>-7.0</ele><time>2026-04-24T14:18:59.918Z</time></trkpt><trkpt lat="34.0831917" lon="8.1158283"><ele>-6.5</ele><time>2026-04-24T14:19:00.918Z</time></trkpt><trkpt lat="34.08299" lon="8.1159417"><ele>-6.0</ele><time>2026-04-24T14:19:01.917Z</time></trkpt><trkpt lat="34.0827833" lon="8.1160583"><ele>-6.0</ele><time>2026-04-24T14:19:02.918Z</time></trkpt><trkpt lat="34.0825783" lon="8.1161667"><ele>-6.0</ele><time>2026-04-24T14:19:03.918Z</time></trkpt><trkpt lat="34.0823733" lon="8.11629"><ele>-7.0</ele><time>2026-04-24T14:19:04.917Z</time></trkpt><trkpt lat="34.08217" lon="8.11641"><ele>-8.0</ele><time>2026-04-24T14:19:05.918Z</time></trkpt><trkpt lat="34.0819683" lon="8.11653"><ele>-8.5</ele><time>2026-04-24T14:19:06.917Z</time></trkpt><trkpt lat="34.0817667" lon="8.116645"><ele>-9.0</ele><time>2026-04-24T14:19:07.918Z</time></trkpt><trkpt lat="34.0815617" lon="8.1167617"><ele>-9.666666666666666</ele><time>2026-04-24T14:19:08.918Z</time></trkpt><trkpt lat="34.0813583" lon="8.1168817"><ele>-10.333333333333332</ele><time>2026-04-24T14:19:09.917Z</time></trkpt><trkpt lat="34.0811583" lon="8.117"><ele>-11.0</ele><time>2026-04-24T14:19:10.918Z</time></trkpt><trkpt lat="34.0809567" lon="8.1171183"><ele>-11.333333333333332</ele><time>2026-04-24T14:19:11.917Z</time></trkpt><trkpt lat="34.0807533" lon="8.1172333"><ele>-11.666666666666666</ele><time>2026-04-24T14:19:12.918Z</time></trkpt><trkpt lat="34.0805517" lon="8.11735"><ele>-12.0</ele><time>2026-04-24T14:19:13.918Z</time></trkpt><trkpt lat="34.0803483" lon="8.117465"><ele>-11.0</ele><time>2026-04-24T14:19:14.918Z</time></trkpt><trkpt lat="34.0801467" lon="8.11758"><ele>-10.0</ele><time>2026-04-24T14:19:15.918Z</time></trkpt><trkpt lat="34.0799467" lon="8.1176967"><ele>-9.0</ele><time>2026-04-24T14:19:16.918Z</time></trkpt><trkpt lat="34.0797383" lon="8.1178117"><ele>-9.0</ele><time>2026-04-24T14:19:17.918Z</time></trkpt><trkpt lat="34.0795367" lon="8.117935"><ele>-9.0</ele><time>2026-04-24T14:19:18.918Z</time></trkpt><trkpt lat="34.0793333" lon="8.1180533"><ele>-9.0</ele><time>2026-04-24T14:19:19.917Z</time></trkpt><trkpt lat="34.0791317" lon="8.118175"><ele>-9.0</ele><time>2026-04-24T14:19:20.918Z</time></trkpt><trkpt lat="34.0789317" lon="8.1182983"><ele>-9.0</ele><time>2026-04-24T14:19:21.917Z</time></trkpt><trkpt lat="34.0787267" lon="8.1184183"><ele>-9.0</ele><time>2026-04-24T14:19:22.917Z</time></trkpt><trkpt lat="34.07852" lon="8.1185367"><ele>-9.0</ele><time>2026-04-24T14:19:23.918Z</time></trkpt><trkpt lat="34.078315" lon="8.1186567"><ele>-9.0</ele><time>2026-04-24T14:19:24.917Z</time></trkpt><trkpt lat="34.0781033" lon="8.1187767"><ele>-8.0</ele><time>2026-04-24T14:19:25.918Z</time></trkpt><trkpt lat="34.0779" lon="8.1188967"><ele>-7.0</ele><time>2026-04-24T14:19:26.918Z</time></trkpt><trkpt lat="34.077695" lon="8.1190167"><ele>-7.0</ele><time>2026-04-24T14:19:27.918Z</time></trkpt><trkpt lat="34.077485" lon="8.11914"><ele>-7.0</ele><time>2026-04-24T14:19:28.918Z</time></trkpt><trkpt lat="34.07728" lon="8.1192617"><ele>-8.0</ele><time>2026-04-24T14:19:29.918Z</time></trkpt><trkpt lat="34.0770767" lon="8.11938"><ele>-9.0</ele><time>2026-04-24T14:19:30.918Z</time></trkpt><trkpt lat="34.0768717" lon="8.119505"><ele>-9.0</ele><time>2026-04-24T14:19:31.918Z</time></trkpt><trkpt lat="34.076665" lon="8.1196283"><ele>-9.0</ele><time>2026-04-24T14:19:32.917Z</time></trkpt><trkpt lat="34.07646" lon="8.1197483"><ele>-8.5</ele><time>2026-04-24T14:19:33.918Z</time></trkpt><trkpt lat="34.0762533" lon="8.11987"><ele>-8.0</ele><time>2026-04-24T14:19:34.917Z</time></trkpt><trkpt lat="34.0760483" lon="8.1199967"><ele>-8.0</ele><time>2026-04-24T14:19:35.917Z</time></trkpt><trkpt lat="34.0758417" lon="8.120125"><ele>-8.0</ele><time>2026-04-24T14:19:36.918Z</time></trkpt><trkpt lat="34.075635" lon="8.1202467"><ele>-8.0</ele><time>2026-04-24T14:19:37.918Z</time></trkpt><trkpt lat="34.0754267" lon="8.120365"><ele>-8.0</ele><time>2026-04-24T14:19:38.918Z</time></trkpt><trkpt lat="34.0752217" lon="8.1204867"><ele>-8.0</ele><time>2026-04-24T14:19:39.918Z</time></trkpt><trkpt lat="34.0750133" lon="8.120605"><ele>-8.0</ele><time>2026-04-24T14:19:40.918Z</time></trkpt><trkpt lat="34.0748067" lon="8.1207233"><ele>-8.0</ele><time>2026-04-24T14:19:41.918Z</time></trkpt><trkpt lat="34.0745967" lon="8.120845"><ele>-8.0</ele><time>2026-04-24T14:19:42.918Z</time></trkpt><trkpt lat="34.074385" lon="8.1209617"><ele>-8.0</ele><time>2026-04-24T14:19:43.918Z</time></trkpt><trkpt lat="34.0741783" lon="8.1210783"><ele>-8.0</ele><time>2026-04-24T14:19:44.918Z</time></trkpt><trkpt lat="34.07397" lon="8.1211967"><ele>-8.0</ele><time>2026-04-24T14:19:45.918Z</time></trkpt><trkpt lat="34.073765" lon="8.1213117"><ele>-8.0</ele><time>2026-04-24T14:19:46.918Z</time></trkpt><trkpt lat="34.0735617" lon="8.1214383"><ele>-8.0</ele><time>2026-04-24T14:19:47.918Z</time></trkpt><trkpt lat="34.0733583" lon="8.121555"><ele>-8.0</ele><time>2026-04-24T14:19:48.917Z</time></trkpt><trkpt lat="34.0731567" lon="8.1216783"><ele>-7.5</ele><time>2026-04-24T14:19:49.918Z</time></trkpt><trkpt lat="34.0729483" lon="8.121805"><ele>-7.0</ele><time>2026-04-24T14:19:50.918Z</time></trkpt><trkpt lat="34.07274" lon="8.121925"><ele>-7.0</ele><time>2026-04-24T14:19:51.918Z</time></trkpt><trkpt lat="34.0725333" lon="8.1220433"><ele>-7.0</ele><time>2026-04-24T14:19:52.918Z</time></trkpt><trkpt lat="34.0723267" lon="8.1221667"><ele>-7.0</ele><time>2026-04-24T14:19:53.918Z</time></trkpt><trkpt lat="34.0721233" lon="8.1222883"><ele>-7.0</ele><time>2026-04-24T14:19:54.918Z</time></trkpt><trkpt lat="34.0719167" lon="8.1224083"><ele>-7.0</ele><time>2026-04-24T14:19:55.918Z</time></trkpt><trkpt lat="34.07171" lon="8.1225317"><ele>-7.0</ele><time>2026-04-24T14:19:56.918Z</time></trkpt><trkpt lat="34.0715067" lon="8.12265"><ele>-7.5</ele><time>2026-04-24T14:19:57.918Z</time></trkpt><trkpt lat="34.071305" lon="8.1227717"><ele>-8.0</ele><time>2026-04-24T14:19:58.917Z</time></trkpt><trkpt lat="34.0710933" lon="8.1228883"><ele>-8.0</ele><time>2026-04-24T14:19:59.918Z</time></trkpt><trkpt lat="34.0708867" lon="8.1230117"><ele>-8.0</ele><time>2026-04-24T14:20:00.917Z</time></trkpt><trkpt lat="34.0706817" lon="8.1231333"><ele>-7.5</ele><time>2026-04-24T14:20:01.918Z</time></trkpt><trkpt lat="34.0704783" lon="8.1232617"><ele>-7.0</ele><time>2026-04-24T14:20:02.918Z</time></trkpt><trkpt lat="34.070275" lon="8.12338"><ele>-7.0</ele><time>2026-04-24T14:20:03.918Z</time></trkpt><trkpt lat="34.0700717" lon="8.1235033"><ele>-7.0</ele><time>2026-04-24T14:20:04.918Z</time></trkpt><trkpt lat="34.069865" lon="8.1236267"><ele>-7.0</ele><time>2026-04-24T14:20:05.918Z</time></trkpt><trkpt lat="34.0696567" lon="8.1237483"><ele>-7.0</ele><time>2026-04-24T14:20:06.918Z</time></trkpt><trkpt lat="34.06945" lon="8.1238683"><ele>-7.0</ele><time>2026-04-24T14:20:07.917Z</time></trkpt><trkpt lat="34.0692383" lon="8.1239883"><ele>-7.0</ele><time>2026-04-24T14:20:08.918Z</time></trkpt><trkpt lat="34.0690267" lon="8.1241133"><ele>-7.5</ele><time>2026-04-24T14:20:09.918Z</time></trkpt><trkpt lat="34.0688133" lon="8.1242433"><ele>-8.0</ele><time>2026-04-24T14:20:10.917Z</time></trkpt><trkpt lat="34.0686067" lon="8.12437"><ele>-8.0</ele><time>2026-04-24T14:20:11.918Z</time></trkpt><trkpt lat="34.0683967" lon="8.1244917"><ele>-8.0</ele><time>2026-04-24T14:20:12.918Z</time></trkpt><trkpt lat="34.0681917" lon="8.12462"><ele>-8.0</ele><time>2026-04-24T14:20:13.917Z</time></trkpt><trkpt lat="34.0679917" lon="8.12475"><ele>-8.0</ele><time>2026-04-24T14:20:14.918Z</time></trkpt><trkpt lat="34.067785" lon="8.12487"><ele>-8.0</ele><time>2026-04-24T14:20:15.918Z</time></trkpt><trkpt lat="34.0675767" lon="8.1249967"><ele>-8.0</ele><time>2026-04-24T14:20:16.917Z</time></trkpt><trkpt lat="34.0673717" lon="8.1251167"><ele>-8.0</ele><time>2026-04-24T14:20:17.918Z</time></trkpt><trkpt lat="34.0671683" lon="8.1252483"><ele>-8.0</ele><time>2026-04-24T14:20:18.918Z</time></trkpt><trkpt lat="34.06697" lon="8.1253667"><ele>-8.0</ele><time>2026-04-24T14:20:19.918Z</time></trkpt><trkpt lat="34.0667717" lon="8.1254967"><ele>-8.0</ele><time>2026-04-24T14:20:20.917Z</time></trkpt><trkpt lat="34.06657" lon="8.1256217"><ele>-7.333333333333333</ele><time>2026-04-24T14:20:21.918Z</time></trkpt><trkpt lat="34.0663733" lon="8.1257467"><ele>-6.666666666666666</ele><time>2026-04-24T14:20:22.918Z</time></trkpt><trkpt lat="34.0661733" lon="8.1258717"><ele>-6.0</ele><time>2026-04-24T14:20:23.918Z</time></trkpt><trkpt lat="34.0659733" lon="8.1259967"><ele>-6.5</ele><time>2026-04-24T14:20:24.918Z</time></trkpt><trkpt lat="34.065775" lon="8.1261217"><ele>-7.0</ele><time>2026-04-24T14:20:25.918Z</time></trkpt><trkpt lat="34.06557" lon="8.1262417"><ele>-7.0</ele><time>2026-04-24T14:20:26.917Z</time></trkpt><trkpt lat="34.065365" lon="8.1263717"><ele>-7.0</ele><time>2026-04-24T14:20:27.918Z</time></trkpt><trkpt lat="34.0651567" lon="8.1265017"><ele>-6.5</ele><time>2026-04-24T14:20:28.918Z</time></trkpt><trkpt lat="34.064955" lon="8.12663"><ele>-6.0</ele><time>2026-04-24T14:20:29.918Z</time></trkpt><trkpt lat="34.0647517" lon="8.12676"><ele>-7.0</ele><time>2026-04-24T14:20:30.918Z</time></trkpt><trkpt lat="34.06455" lon="8.1268867"><ele>-8.0</ele><time>2026-04-24T14:20:31.917Z</time></trkpt><trkpt lat="34.06434" lon="8.127025"><ele>-8.0</ele><time>2026-04-24T14:20:32.918Z</time></trkpt><trkpt lat="34.0641333" lon="8.127155"><ele>-8.0</ele><time>2026-04-24T14:20:33.918Z</time></trkpt><trkpt lat="34.06392" lon="8.12729"><ele>-8.5</ele><time>2026-04-24T14:20:34.917Z</time></trkpt><trkpt lat="34.0637117" lon="8.1274183"><ele>-9.0</ele><time>2026-04-24T14:20:35.918Z</time></trkpt><trkpt lat="34.0635067" lon="8.1275517"><ele>-9.0</ele><time>2026-04-24T14:20:36.918Z</time></trkpt><trkpt lat="34.0633" lon="8.1276933"><ele>-9.0</ele><time>2026-04-24T14:20:37.918Z</time></trkpt><trkpt lat="34.0630983" lon="8.1278267"><ele>-9.0</ele><time>2026-04-24T14:20:38.918Z</time></trkpt><trkpt lat="34.0629" lon="8.1279533"><ele>-9.0</ele><time>2026-04-24T14:20:39.917Z</time></trkpt><trkpt lat="34.0626967" lon="8.1280783"><ele>-9.0</ele><time>2026-04-24T14:20:40.918Z</time></trkpt><trkpt lat="34.06249" lon="8.1282"><ele>-9.0</ele><time>2026-04-24T14:20:41.918Z</time></trkpt><trkpt lat="34.0622833" lon="8.1283267"><ele>-9.0</ele><time>2026-04-24T14:20:42.917Z</time></trkpt><trkpt lat="34.0620833" lon="8.1284467"><ele>-9.0</ele><time>2026-04-24T14:20:43.918Z</time></trkpt><trkpt lat="34.0618817" lon="8.1285733"><ele>-9.0</ele><time>2026-04-24T14:20:44.918Z</time></trkpt><trkpt lat="34.0616817" lon="8.1286983"><ele>-9.0</ele><time>2026-04-24T14:20:45.918Z</time></trkpt><trkpt lat="34.0614783" lon="8.1288233"><ele>-8.0</ele><time>2026-04-24T14:20:46.918Z</time></trkpt><trkpt lat="34.0612717" lon="8.12895"><ele>-7.0</ele><time>2026-04-24T14:20:47.917Z</time></trkpt><trkpt lat="34.0610683" lon="8.1290733"><ele>-7.0</ele><time>2026-04-24T14:20:48.918Z</time></trkpt><trkpt lat="34.0608717" lon="8.1291983"><ele>-7.0</ele><time>2026-04-24T14:20:49.918Z</time></trkpt><trkpt lat="34.0606767" lon="8.1293283"><ele>-7.0</ele><time>2026-04-24T14:20:50.918Z</time></trkpt><trkpt lat="34.0604817" lon="8.1294567"><ele>-7.666666666666667</ele><time>2026-04-24T14:20:51.917Z</time></trkpt><trkpt lat="34.0602867" lon="8.1295867"><ele>-8.333333333333334</ele><time>2026-04-24T14:20:52.918Z</time></trkpt><trkpt lat="34.060095" lon="8.1297117"><ele>-9.0</ele><time>2026-04-24T14:20:53.918Z</time></trkpt><trkpt lat="34.0598983" lon="8.129835"><ele>-8.666666666666666</ele><time>2026-04-24T14:20:54.917Z</time></trkpt><trkpt lat="34.0597017" lon="8.1299567"><ele>-8.333333333333332</ele><time>2026-04-24T14:20:55.918Z</time></trkpt><trkpt lat="34.0595017" lon="8.13008"><ele>-8.0</ele><time>2026-04-24T14:20:56.918Z</time></trkpt><trkpt lat="34.05931" lon="8.1301983"><ele>-8.0</ele><time>2026-04-24T14:20:57.917Z</time></trkpt><trkpt lat="34.0591133" lon="8.1303167"><ele>-8.0</ele><time>2026-04-24T14:20:58.918Z</time></trkpt><trkpt lat="34.05892" lon="8.1304383"><ele>-8.0</ele><time>2026-04-24T14:20:59.918Z</time></trkpt><trkpt lat="34.0587283" lon="8.13057"><ele>-8.0</ele><time>2026-04-24T14:21:00.918Z</time></trkpt><trkpt lat="34.058535" lon="8.1307017"><ele>-8.0</ele><time>2026-04-24T14:21:01.918Z</time></trkpt><trkpt lat="34.05834" lon="8.1308267"><ele>-8.0</ele><time>2026-04-24T14:21:02.917Z</time></trkpt><trkpt lat="34.058145" lon="8.1309567"><ele>-8.0</ele><time>2026-04-24T14:21:03.918Z</time></trkpt><trkpt lat="34.0579517" lon="8.1310867"><ele>-8.0</ele><time>2026-04-24T14:21:04.917Z</time></trkpt><trkpt lat="34.057755" lon="8.1312167"><ele>-8.0</ele><time>2026-04-24T14:21:05.918Z</time></trkpt><trkpt lat="34.0575617" lon="8.131355"><ele>-8.0</ele><time>2026-04-24T14:21:06.918Z</time></trkpt><trkpt lat="34.05737" lon="8.13149"><ele>-8.0</ele><time>2026-04-24T14:21:07.918Z</time></trkpt><trkpt lat="34.0571817" lon="8.1316233"><ele>-8.0</ele><time>2026-04-24T14:21:08.918Z</time></trkpt><trkpt lat="34.0569883" lon="8.1317667"><ele>-8.0</ele><time>2026-04-24T14:21:09.918Z</time></trkpt><trkpt lat="34.0568017" lon="8.1319017"><ele>-8.0</ele><time>2026-04-24T14:21:10.917Z</time></trkpt><trkpt lat="34.0566083" lon="8.13204"><ele>-8.0</ele><time>2026-04-24T14:21:11.917Z</time></trkpt><trkpt lat="34.0564167" lon="8.13218"><ele>-8.333333333333332</ele><time>2026-04-24T14:21:12.918Z</time></trkpt><trkpt lat="34.0562283" lon="8.1323183"><ele>-8.666666666666666</ele><time>2026-04-24T14:21:13.918Z</time></trkpt><trkpt lat="34.0560417" lon="8.13246"><ele>-9.0</ele><time>2026-04-24T14:21:14.918Z</time></trkpt><trkpt lat="34.0558483" lon="8.1325983"><ele>-8.0</ele><time>2026-04-24T14:21:15.917Z</time></trkpt><trkpt lat="34.0556567" lon="8.132735"><ele>-7.0</ele><time>2026-04-24T14:21:16.918Z</time></trkpt><trkpt lat="34.0554583" lon="8.1328717"><ele>-7.0</ele><time>2026-04-24T14:21:17.917Z</time></trkpt><trkpt lat="34.0552567" lon="8.1330067"><ele>-7.0</ele><time>2026-04-24T14:21:18.917Z</time></trkpt><trkpt lat="34.05505" lon="8.1331317"><ele>-8.0</ele><time>2026-04-24T14:21:19.918Z</time></trkpt><trkpt lat="34.05484" lon="8.1332583"><ele>-9.0</ele><time>2026-04-24T14:21:20.917Z</time></trkpt><trkpt lat="34.0546383" lon="8.1333817"><ele>-9.0</ele><time>2026-04-24T14:21:21.918Z</time></trkpt><trkpt lat="34.0544317" lon="8.133515"><ele>-9.0</ele><time>2026-04-24T14:21:22.918Z</time></trkpt><trkpt lat="34.0542233" lon="8.13364"><ele>-9.5</ele><time>2026-04-24T14:21:23.918Z</time></trkpt><trkpt lat="34.05401" lon="8.133765"><ele>-10.0</ele><time>2026-04-24T14:21:24.918Z</time></trkpt><trkpt lat="34.0538017" lon="8.133895"><ele>-10.0</ele><time>2026-04-24T14:21:25.917Z</time></trkpt><trkpt lat="34.0535917" lon="8.134025"><ele>-10.0</ele><time>2026-04-24T14:21:26.918Z</time></trkpt><trkpt lat="34.0533833" lon="8.1341583"><ele>-8.5</ele><time>2026-04-24T14:21:27.918Z</time></trkpt><trkpt lat="34.05318" lon="8.134295"><ele>-7.0</ele><time>2026-04-24T14:21:28.918Z</time></trkpt><trkpt lat="34.0529683" lon="8.1344267"><ele>-7.0</ele><time>2026-04-24T14:21:29.918Z</time></trkpt><trkpt lat="34.0527533" lon="8.1345617"><ele>-7.0</ele><time>2026-04-24T14:21:30.917Z</time></trkpt><trkpt lat="34.0525417" lon="8.1346967"><ele>-7.5</ele><time>2026-04-24T14:21:31.917Z</time></trkpt><trkpt lat="34.0523317" lon="8.1348333"><ele>-8.0</ele><time>2026-04-24T14:21:32.917Z</time></trkpt><trkpt lat="34.0521233" lon="8.1349667"><ele>-8.0</ele><time>2026-04-24T14:21:33.918Z</time></trkpt><trkpt lat="34.0519167" lon="8.1350933"><ele>-8.0</ele><time>2026-04-24T14:21:34.918Z</time></trkpt><trkpt lat="34.0517117" lon="8.13522"><ele>-8.333333333333332</ele><time>2026-04-24T14:21:35.917Z</time></trkpt><trkpt lat="34.051515" lon="8.135345"><ele>-8.666666666666666</ele><time>2026-04-24T14:21:36.918Z</time></trkpt><trkpt lat="34.0513183" lon="8.13547"><ele>-9.0</ele><time>2026-04-24T14:21:37.918Z</time></trkpt><trkpt lat="34.05112" lon="8.1355967"><ele>-9.0</ele><time>2026-04-24T14:21:38.918Z</time></trkpt><trkpt lat="34.050925" lon="8.13572"><ele>-9.0</ele><time>2026-04-24T14:21:39.918Z</time></trkpt><trkpt lat="34.0507367" lon="8.135845"><ele>-9.0</ele><time>2026-04-24T14:21:40.918Z</time></trkpt><trkpt lat="34.05055" lon="8.135965"><ele>-8.666666666666666</ele><time>2026-04-24T14:21:41.918Z</time></trkpt><trkpt lat="34.0503633" lon="8.1360767"><ele>-8.333333333333332</ele><time>2026-04-24T14:21:42.918Z</time></trkpt><trkpt lat="34.05018" lon="8.1361933"><ele>-8.0</ele><time>2026-04-24T14:21:43.918Z</time></trkpt><trkpt lat="34.05" lon="8.13631"><ele>-8.0</ele><time>2026-04-24T14:21:44.917Z</time></trkpt><trkpt lat="34.0498183" lon="8.1364233"><ele>-8.0</ele><time>2026-04-24T14:21:45.917Z</time></trkpt><trkpt lat="34.04963" lon="8.13653"><ele>-8.0</ele><time>2026-04-24T14:21:46.918Z</time></trkpt><trkpt lat="34.049455" lon="8.13664"><ele>-8.0</ele><time>2026-04-24T14:21:47.918Z</time></trkpt><trkpt lat="34.049285" lon="8.13675"><ele>-8.0</ele><time>2026-04-24T14:21:48.918Z</time></trkpt><trkpt lat="34.04912" lon="8.1368483"><ele>-8.0</ele><time>2026-04-24T14:21:49.918Z</time></trkpt><trkpt lat="34.0489633" lon="8.1369383"><ele>-7.75</ele><time>2026-04-24T14:21:50.917Z</time></trkpt><trkpt lat="34.048825" lon="8.137035"><ele>-7.5</ele><time>2026-04-24T14:21:51.917Z</time></trkpt><trkpt lat="34.0486967" lon="8.13712"><ele>-7.25</ele><time>2026-04-24T14:21:52.917Z</time></trkpt><trkpt lat="34.0485733" lon="8.137205"><ele>-7.0</ele><time>2026-04-24T14:21:53.918Z</time></trkpt><trkpt lat="34.048455" lon="8.137285"><ele>-7.0</ele><time>2026-04-24T14:21:54.917Z</time></trkpt><trkpt lat="34.0483383" lon="8.1373583"><ele>-7.0</ele><time>2026-04-24T14:21:55.918Z</time></trkpt><trkpt lat="34.0482217" lon="8.137425"><ele>-7.0</ele><time>2026-04-24T14:21:56.917Z</time></trkpt><trkpt lat="34.0481083" lon="8.13749"><ele>-7.0</ele><time>2026-04-24T14:21:57.917Z</time></trkpt><trkpt lat="34.04799" lon="8.1375567"><ele>-7.0</ele><time>2026-04-24T14:21:58.917Z</time></trkpt><trkpt lat="34.047875" lon="8.1376267"><ele>-7.0</ele><time>2026-04-24T14:21:59.918Z</time></trkpt><trkpt lat="34.04776" lon="8.1377017"><ele>-7.0</ele><time>2026-04-24T14:22:00.918Z</time></trkpt><trkpt lat="34.0476433" lon="8.137785"><ele>-7.0</ele><time>2026-04-24T14:22:01.918Z</time></trkpt><trkpt lat="34.0475333" lon="8.137865"><ele>-7.0</ele><time>2026-04-24T14:22:02.918Z</time></trkpt><trkpt lat="34.0474167" lon="8.1379433"><ele>-7.0</ele><time>2026-04-24T14:22:03.918Z</time></trkpt><trkpt lat="34.0473017" lon="8.1380233"><ele>-7.0</ele><time>2026-04-24T14:22:04.917Z</time></trkpt><trkpt lat="34.0471767" lon="8.1381017"><ele>-7.0</ele><time>2026-04-24T14:22:05.918Z</time></trkpt><trkpt lat="34.04705" lon="8.1381767"><ele>-7.0</ele><time>2026-04-24T14:22:06.918Z</time></trkpt><trkpt lat="34.0469283" lon="8.1382483"><ele>-7.0</ele><time>2026-04-24T14:22:07.918Z</time></trkpt><trkpt lat="34.0468033" lon="8.13832"><ele>-7.0</ele><time>2026-04-24T14:22:08.917Z</time></trkpt><trkpt lat="34.0466767" lon="8.1383967"><ele>-7.0</ele><time>2026-04-24T14:22:09.918Z</time></trkpt><trkpt lat="34.0465567" lon="8.1384717"><ele>-6.75</ele><time>2026-04-24T14:22:10.918Z</time></trkpt><trkpt lat="34.0464383" lon="8.1385517"><ele>-6.5</ele><time>2026-04-24T14:22:11.918Z</time></trkpt><trkpt lat="34.0463233" lon="8.1386317"><ele>-6.25</ele><time>2026-04-24T14:22:12.918Z</time></trkpt><trkpt lat="34.046205" lon="8.1387067"><ele>-6.0</ele><time>2026-04-24T14:22:13.918Z</time></trkpt><trkpt lat="34.0460783" lon="8.1387833"><ele>-6.0</ele><time>2026-04-24T14:22:14.918Z</time></trkpt><trkpt lat="34.0459467" lon="8.1388567"><ele>-6.0</ele><time>2026-04-24T14:22:15.918Z</time></trkpt><trkpt lat="34.0458233" lon="8.1389417"><ele>-6.0</ele><time>2026-04-24T14:22:16.917Z</time></trkpt><trkpt lat="34.0456933" lon="8.13902"><ele>-6.0</ele><time>2026-04-24T14:22:17.918Z</time></trkpt><trkpt lat="34.0455617" lon="8.13911"><ele>-5.666666666666667</ele><time>2026-04-24T14:22:18.918Z</time></trkpt><trkpt lat="34.0454233" lon="8.1391967"><ele>-5.333333333333334</ele><time>2026-04-24T14:22:19.918Z</time></trkpt><trkpt lat="34.045285" lon="8.13929"><ele>-5.0</ele><time>2026-04-24T14:22:20.917Z</time></trkpt><trkpt lat="34.0451417" lon="8.13938"><ele>-5.0</ele><time>2026-04-24T14:22:21.916Z</time></trkpt><trkpt lat="34.0449983" lon="8.1394733"><ele>-5.0</ele><time>2026-04-24T14:22:22.917Z</time></trkpt><trkpt lat="34.0448583" lon="8.13957"><ele>-5.0</ele><time>2026-04-24T14:22:23.917Z</time></trkpt><trkpt lat="34.04471" lon="8.1396683"><ele>-5.333333333333334</ele><time>2026-04-24T14:22:24.916Z</time></trkpt><trkpt lat="34.0445533" lon="8.13976"><ele>-5.666666666666667</ele><time>2026-04-24T14:22:25.916Z</time></trkpt><trkpt lat="34.0443967" lon="8.139855"><ele>-6.0</ele><time>2026-04-24T14:22:26.917Z</time></trkpt><trkpt lat="34.04424" lon="8.139955"><ele>-6.0</ele><time>2026-04-24T14:22:27.917Z</time></trkpt><trkpt lat="34.0440833" lon="8.1400567"><ele>-6.0</ele><time>2026-04-24T14:22:28.917Z</time></trkpt><trkpt lat="34.0439167" lon="8.1401667"><ele>-6.0</ele><time>2026-04-24T14:22:29.917Z</time></trkpt><trkpt lat="34.0437483" lon="8.1402767"><ele>-6.0</ele><time>2026-04-24T14:22:30.917Z</time></trkpt><trkpt lat="34.0435783" lon="8.140385"><ele>-6.0</ele><time>2026-04-24T14:22:31.917Z</time></trkpt><trkpt lat="34.043405" lon="8.1404933"><ele>-6.0</ele><time>2026-04-24T14:22:32.917Z</time></trkpt><trkpt lat="34.0432317" lon="8.1405967"><ele>-6.333333333333334</ele><time>2026-04-24T14:22:33.917Z</time></trkpt><trkpt lat="34.0430567" lon="8.1407017"><ele>-6.666666666666667</ele><time>2026-04-24T14:22:34.916Z</time></trkpt><trkpt lat="34.04288" lon="8.1408067"><ele>-7.0</ele><time>2026-04-24T14:22:35.917Z</time></trkpt><trkpt lat="34.0426983" lon="8.1409133"><ele>-6.333333333333334</ele><time>2026-04-24T14:22:36.916Z</time></trkpt><trkpt lat="34.04252" lon="8.1410283"><ele>-5.666666666666667</ele><time>2026-04-24T14:22:37.917Z</time></trkpt><trkpt lat="34.0423467" lon="8.1411383"><ele>-5.0</ele><time>2026-04-24T14:22:38.917Z</time></trkpt><trkpt lat="34.0421683" lon="8.1412567"><ele>-5.0</ele><time>2026-04-24T14:22:39.917Z</time></trkpt><trkpt lat="34.0419917" lon="8.1413717"><ele>-5.0</ele><time>2026-04-24T14:22:40.917Z</time></trkpt><trkpt lat="34.04181" lon="8.1414867"><ele>-5.0</ele><time>2026-04-24T14:22:41.917Z</time></trkpt><trkpt lat="34.04163" lon="8.1416067"><ele>-4.666666666666667</ele><time>2026-04-24T14:22:42.917Z</time></trkpt><trkpt lat="34.041445" lon="8.141715"><ele>-4.333333333333333</ele><time>2026-04-24T14:22:43.917Z</time></trkpt><trkpt lat="34.0412583" lon="8.1418317"><ele>-4.0</ele><time>2026-04-24T14:22:44.916Z</time></trkpt><trkpt lat="34.0410683" lon="8.1419483"><ele>-4.0</ele><time>2026-04-24T14:22:45.917Z</time></trkpt><trkpt lat="34.0408817" lon="8.142065"><ele>-4.0</ele><time>2026-04-24T14:22:46.917Z</time></trkpt><trkpt lat="34.0406967" lon="8.1421817"><ele>-4.0</ele><time>2026-04-24T14:22:47.917Z</time></trkpt><trkpt lat="34.0405083" lon="8.1422983"><ele>-4.0</ele><time>2026-04-24T14:22:48.917Z</time></trkpt><trkpt lat="34.0403217" lon="8.1424167"><ele>-4.0</ele><time>2026-04-24T14:22:49.916Z</time></trkpt><trkpt lat="34.0401317" lon="8.14253"><ele>-4.0</ele><time>2026-04-24T14:22:50.916Z</time></trkpt><trkpt lat="34.0399383" lon="8.142645"><ele>-3.6666666666666665</ele><time>2026-04-24T14:22:51.916Z</time></trkpt><trkpt lat="34.0397467" lon="8.1427617"><ele>-3.333333333333333</ele><time>2026-04-24T14:22:52.916Z</time></trkpt><trkpt lat="34.039555" lon="8.142885"><ele>-3.0</ele><time>2026-04-24T14:22:53.916Z</time></trkpt><trkpt lat="34.039365" lon="8.1430067"><ele>-3.0</ele><time>2026-04-24T14:22:54.917Z</time></trkpt><trkpt lat="34.0391767" lon="8.143135"><ele>-3.0</ele><time>2026-04-24T14:22:55.917Z</time></trkpt><trkpt lat="34.0389883" lon="8.1432583"><ele>-3.0</ele><time>2026-04-24T14:22:56.917Z</time></trkpt><trkpt lat="34.0387967" lon="8.1433783"><ele>-2.6666666666666665</ele><time>2026-04-24T14:22:57.916Z</time></trkpt><trkpt lat="34.0385983" lon="8.1434967"><ele>-2.333333333333333</ele><time>2026-04-24T14:22:58.916Z</time></trkpt><trkpt lat="34.0384017" lon="8.1436117"><ele>-2.0</ele><time>2026-04-24T14:22:59.917Z</time></trkpt><trkpt lat="34.0382017" lon="8.1437317"><ele>-2.0</ele><time>2026-04-24T14:23:00.917Z</time></trkpt><trkpt lat="34.0380083" lon="8.143855"><ele>-2.0</ele><time>2026-04-24T14:23:01.917Z</time></trkpt><trkpt lat="34.0378117" lon="8.143975"><ele>-2.0</ele><time>2026-04-24T14:23:02.917Z</time></trkpt><trkpt lat="34.037615" lon="8.1440933"><ele>-2.333333333333333</ele><time>2026-04-24T14:23:03.916Z</time></trkpt><trkpt lat="34.0374283" lon="8.144215"><ele>-2.6666666666666665</ele><time>2026-04-24T14:23:04.916Z</time></trkpt><trkpt lat="34.0372333" lon="8.1443383"><ele>-3.0</ele><time>2026-04-24T14:23:05.916Z</time></trkpt><trkpt lat="34.0370383" lon="8.1444567"><ele>-3.0</ele><time>2026-04-24T14:23:06.916Z</time></trkpt><trkpt lat="34.03685" lon="8.14458"><ele>-3.0</ele><time>2026-04-24T14:23:07.916Z</time></trkpt><trkpt lat="34.0366567" lon="8.144705"><ele>-3.0</ele><time>2026-04-24T14:23:08.916Z</time></trkpt><trkpt lat="34.03646" lon="8.1448283"><ele>-2.0</ele><time>2026-04-24T14:23:09.917Z</time></trkpt><trkpt lat="34.0362683" lon="8.1449567"><ele>-1.0</ele><time>2026-04-24T14:23:10.917Z</time></trkpt><trkpt lat="34.036085" lon="8.1450783"><ele>0.0</ele><time>2026-04-24T14:23:11.917Z</time></trkpt><trkpt lat="34.0358967" lon="8.1452017"><ele>0.0</ele><time>2026-04-24T14:23:12.917Z</time></trkpt><trkpt lat="34.03572" lon="8.1453383"><ele>0.0</ele><time>2026-04-24T14:23:13.916Z</time></trkpt><trkpt lat="34.0355417" lon="8.14548"><ele>0.0</ele><time>2026-04-24T14:23:14.917Z</time></trkpt><trkpt lat="34.0353683" lon="8.145635"><ele>0.3333333333333333</ele><time>2026-04-24T14:23:15.917Z</time></trkpt><trkpt lat="34.0352017" lon="8.1458017"><ele>0.6666666666666666</ele><time>2026-04-24T14:23:16.917Z</time></trkpt><trkpt lat="34.0350433" lon="8.1459783"><ele>1.0</ele><time>2026-04-24T14:23:17.917Z</time></trkpt><trkpt lat="34.0348883" lon="8.1461633"><ele>1.0</ele><time>2026-04-24T14:23:18.917Z</time></trkpt><trkpt lat="34.0347367" lon="8.1463567"><ele>1.0</ele><time>2026-04-24T14:23:19.917Z</time></trkpt><trkpt lat="34.0345833" lon="8.1465517"><ele>1.0</ele><time>2026-04-24T14:23:20.916Z</time></trkpt><trkpt lat="34.0344333" lon="8.146755"><ele>1.0</ele><time>2026-04-24T14:23:21.917Z</time></trkpt><trkpt lat="34.03428" lon="8.1469533"><ele>1.0</ele><time>2026-04-24T14:23:22.917Z</time></trkpt><trkpt lat="34.0341317" lon="8.1471467"><ele>1.0</ele><time>2026-04-24T14:23:23.916Z</time></trkpt><trkpt lat="34.033985" lon="8.14735"><ele>1.0</ele><time>2026-04-24T14:23:24.917Z</time></trkpt><trkpt lat="34.0338417" lon="8.14755"><ele>1.0</ele><time>2026-04-24T14:23:25.916Z</time></trkpt><trkpt lat="34.0337" lon="8.1477483"><ele>1.0</ele><time>2026-04-24T14:23:26.916Z</time></trkpt><trkpt lat="34.033555" lon="8.1479517"><ele>1.0</ele><time>2026-04-24T14:23:27.916Z</time></trkpt><trkpt lat="34.03341" lon="8.14814"><ele>1.0</ele><time>2026-04-24T14:23:28.916Z</time></trkpt><trkpt lat="34.033265" lon="8.1483367"><ele>1.0</ele><time>2026-04-24T14:23:29.916Z</time></trkpt><trkpt lat="34.0331133" lon="8.1485267"><ele>2.0</ele><time>2026-04-24T14:23:30.916Z</time></trkpt><trkpt lat="34.0329633" lon="8.1487233"><ele>3.0</ele><time>2026-04-24T14:23:31.917Z</time></trkpt><trkpt lat="34.0328133" lon="8.14892"><ele>4.0</ele><time>2026-04-24T14:23:32.917Z</time></trkpt><trkpt lat="34.0326617" lon="8.1491067"><ele>4.0</ele><time>2026-04-24T14:23:33.917Z</time></trkpt><trkpt lat="34.03251" lon="8.1493017"><ele>4.0</ele><time>2026-04-24T14:23:34.917Z</time></trkpt><trkpt lat="34.032365" lon="8.1495"><ele>4.0</ele><time>2026-04-24T14:23:35.917Z</time></trkpt><trkpt lat="34.0322183" lon="8.1496933"><ele>3.6666666666666665</ele><time>2026-04-24T14:23:36.917Z</time></trkpt><trkpt lat="34.0320783" lon="8.14989"><ele>3.333333333333333</ele><time>2026-04-24T14:23:37.917Z</time></trkpt><trkpt lat="34.0319333" lon="8.1500817"><ele>3.0</ele><time>2026-04-24T14:23:38.917Z</time></trkpt><trkpt lat="34.0317933" lon="8.1502717"><ele>3.0</ele><time>2026-04-24T14:23:39.917Z</time></trkpt><trkpt lat="34.0316483" lon="8.1504567"><ele>3.0</ele><time>2026-04-24T14:23:40.917Z</time></trkpt><trkpt lat="34.0315" lon="8.150645"><ele>3.0</ele><time>2026-04-24T14:23:41.916Z</time></trkpt><trkpt lat="34.03136" lon="8.15084"><ele>4.0</ele><time>2026-04-24T14:23:42.917Z</time></trkpt><trkpt lat="34.03122" lon="8.15103"><ele>5.0</ele><time>2026-04-24T14:23:43.917Z</time></trkpt><trkpt lat="34.0310817" lon="8.1512233"><ele>6.0</ele><time>2026-04-24T14:23:44.916Z</time></trkpt><trkpt lat="34.030935" lon="8.1514167"><ele>6.333333333333334</ele><time>2026-04-24T14:23:45.917Z</time></trkpt><trkpt lat="34.0307883" lon="8.1516033"><ele>6.666666666666667</ele><time>2026-04-24T14:23:46.917Z</time></trkpt><trkpt lat="34.03064" lon="8.1517833"><ele>7.0</ele><time>2026-04-24T14:23:47.917Z</time></trkpt><trkpt lat="34.0304883" lon="8.151975"><ele>7.0</ele><time>2026-04-24T14:23:48.917Z</time></trkpt><trkpt lat="34.0303467" lon="8.1521667"><ele>7.0</ele><time>2026-04-24T14:23:49.916Z</time></trkpt><trkpt lat="34.0302033" lon="8.1523583"><ele>7.0</ele><time>2026-04-24T14:23:50.917Z</time></trkpt><trkpt lat="34.0300617" lon="8.15256"><ele>7.0</ele><time>2026-04-24T14:23:51.917Z</time></trkpt><trkpt lat="34.02992" lon="8.1527567"><ele>7.0</ele><time>2026-04-24T14:23:52.917Z</time></trkpt><trkpt lat="34.0297767" lon="8.152955"><ele>7.0</ele><time>2026-04-24T14:23:53.917Z</time></trkpt><trkpt lat="34.0296283" lon="8.1531467"><ele>7.333333333333334</ele><time>2026-04-24T14:23:54.916Z</time></trkpt><trkpt lat="34.02948" lon="8.1533383"><ele>7.666666666666666</ele><time>2026-04-24T14:23:55.917Z</time></trkpt><trkpt lat="34.02933" lon="8.153535"><ele>8.0</ele><time>2026-04-24T14:23:56.917Z</time></trkpt><trkpt lat="34.0291883" lon="8.15374"><ele>8.0</ele><time>2026-04-24T14:23:57.917Z</time></trkpt><trkpt lat="34.0290383" lon="8.1539383"><ele>8.0</ele><time>2026-04-24T14:23:58.917Z</time></trkpt><trkpt lat="34.0288883" lon="8.1541383"><ele>8.0</ele><time>2026-04-24T14:23:59.916Z</time></trkpt><trkpt lat="34.0287433" lon="8.1543433"><ele>8.0</ele><time>2026-04-24T14:24:00.917Z</time></trkpt><trkpt lat="34.0285917" lon="8.1545467"><ele>8.0</ele><time>2026-04-24T14:24:01.917Z</time></trkpt><trkpt lat="34.028435" lon="8.1547417"><ele>9.5</ele><time>2026-04-24T14:24:02.917Z</time></trkpt><trkpt lat="34.02828" lon="8.1549367"><ele>11.0</ele><time>2026-04-24T14:24:03.917Z</time></trkpt><trkpt lat="34.028125" lon="8.155135"><ele>11.0</ele><time>2026-04-24T14:24:04.916Z</time></trkpt><trkpt lat="34.02798" lon="8.1553317"><ele>11.0</ele><time>2026-04-24T14:24:05.916Z</time></trkpt><trkpt lat="34.0278317" lon="8.1555283"><ele>11.0</ele><time>2026-04-24T14:24:06.917Z</time></trkpt><trkpt lat="34.0276783" lon="8.1557233"><ele>11.0</ele><time>2026-04-24T14:24:07.917Z</time></trkpt><trkpt lat="34.02753" lon="8.1559217"><ele>11.0</ele><time>2026-04-24T14:24:08.916Z</time></trkpt><trkpt lat="34.0273883" lon="8.1561217"><ele>11.0</ele><time>2026-04-24T14:24:09.917Z</time></trkpt><trkpt lat="34.02724" lon="8.1563167"><ele>11.0</ele><time>2026-04-24T14:24:10.916Z</time></trkpt><trkpt lat="34.0270883" lon="8.156515"><ele>11.0</ele><time>2026-04-24T14:24:11.916Z</time></trkpt><trkpt lat="34.02694" lon="8.1567233"><ele>11.0</ele><time>2026-04-24T14:24:12.917Z</time></trkpt><trkpt lat="34.026795" lon="8.1569283"><ele>11.0</ele><time>2026-04-24T14:24:13.916Z</time></trkpt><trkpt lat="34.0266433" lon="8.1571233"><ele>11.0</ele><time>2026-04-24T14:24:14.917Z</time></trkpt><trkpt lat="34.0264883" lon="8.1573183"><ele>11.333333333333332</ele><time>2026-04-24T14:24:15.917Z</time></trkpt><trkpt lat="34.026335" lon="8.157515"><ele>11.666666666666666</ele><time>2026-04-24T14:24:16.917Z</time></trkpt><trkpt lat="34.0261883" lon="8.1577167"><ele>12.0</ele><time>2026-04-24T14:24:17.916Z</time></trkpt><trkpt lat="34.026035" lon="8.1579117"><ele>12.0</ele><time>2026-04-24T14:24:18.916Z</time></trkpt><trkpt lat="34.02589" lon="8.1581133"><ele>12.0</ele><time>2026-04-24T14:24:19.917Z</time></trkpt><trkpt lat="34.0257433" lon="8.158315"><ele>12.0</ele><time>2026-04-24T14:24:20.917Z</time></trkpt><trkpt lat="34.0255983" lon="8.1585117"><ele>12.333333333333332</ele><time>2026-04-24T14:24:21.917Z</time></trkpt><trkpt lat="34.0254583" lon="8.158715"><ele>12.666666666666666</ele><time>2026-04-24T14:24:22.917Z</time></trkpt><trkpt lat="34.02531" lon="8.1589167"><ele>13.0</ele><time>2026-04-24T14:24:23.917Z</time></trkpt><trkpt lat="34.02516" lon="8.1591167"><ele>13.0</ele><time>2026-04-24T14:24:24.916Z</time></trkpt><trkpt lat="34.0250117" lon="8.159315"><ele>13.0</ele><time>2026-04-24T14:24:25.917Z</time></trkpt><trkpt lat="34.0248633" lon="8.159515"><ele>13.0</ele><time>2026-04-24T14:24:26.917Z</time></trkpt><trkpt lat="34.0247167" lon="8.159715"><ele>14.0</ele><time>2026-04-24T14:24:27.917Z</time></trkpt><trkpt lat="34.0245683" lon="8.1599083"><ele>15.0</ele><time>2026-04-24T14:24:28.917Z</time></trkpt><trkpt lat="34.02442" lon="8.1601017"><ele>16.0</ele><time>2026-04-24T14:24:29.917Z</time></trkpt><trkpt lat="34.0242717" lon="8.160295"><ele>16.333333333333332</ele><time>2026-04-24T14:24:30.917Z</time></trkpt><trkpt lat="34.024125" lon="8.1604917"><ele>16.666666666666668</ele><time>2026-04-24T14:24:31.917Z</time></trkpt><trkpt lat="34.02398" lon="8.16069"><ele>17.0</ele><time>2026-04-24T14:24:32.917Z</time></trkpt><trkpt lat="34.0238367" lon="8.1608817"><ele>17.0</ele><time>2026-04-24T14:24:33.916Z</time></trkpt><trkpt lat="34.023695" lon="8.1610733"><ele>17.0</ele><time>2026-04-24T14:24:34.916Z</time></trkpt><trkpt lat="34.0235467" lon="8.161265"><ele>17.0</ele><time>2026-04-24T14:24:35.917Z</time></trkpt><trkpt lat="34.0233983" lon="8.161465"><ele>17.666666666666668</ele><time>2026-04-24T14:24:36.917Z</time></trkpt><trkpt lat="34.0232467" lon="8.161665"><ele>18.333333333333332</ele><time>2026-04-24T14:24:37.916Z</time></trkpt><trkpt lat="34.0230933" lon="8.16186"><ele>19.0</ele><time>2026-04-24T14:24:38.916Z</time></trkpt><trkpt lat="34.0229483" lon="8.162055"><ele>19.0</ele><time>2026-04-24T14:24:39.916Z</time></trkpt><trkpt lat="34.0228017" lon="8.16226"><ele>19.0</ele><time>2026-04-24T14:24:40.917Z</time></trkpt><trkpt lat="34.0226517" lon="8.1624533"><ele>19.0</ele><time>2026-04-24T14:24:41.917Z</time></trkpt><trkpt lat="34.0225083" lon="8.16265"><ele>19.666666666666664</ele><time>2026-04-24T14:24:42.917Z</time></trkpt><trkpt lat="34.0223583" lon="8.162845"><ele>20.333333333333332</ele><time>2026-04-24T14:24:43.917Z</time></trkpt><trkpt lat="34.0222117" lon="8.1630433"><ele>21.0</ele><time>2026-04-24T14:24:44.917Z</time></trkpt><trkpt lat="34.022065" lon="8.1632433"><ele>21.0</ele><time>2026-04-24T14:24:45.917Z</time></trkpt><trkpt lat="34.0219183" lon="8.163445"><ele>21.0</ele><time>2026-04-24T14:24:46.917Z</time></trkpt><trkpt lat="34.02177" lon="8.1636533"><ele>21.0</ele><time>2026-04-24T14:24:47.917Z</time></trkpt><trkpt lat="34.0216133" lon="8.1638467"><ele>21.0</ele><time>2026-04-24T14:24:48.917Z</time></trkpt><trkpt lat="34.0214633" lon="8.1640417"><ele>21.0</ele><time>2026-04-24T14:24:49.916Z</time></trkpt><trkpt lat="34.02131" lon="8.164245"><ele>21.5</ele><time>2026-04-24T14:24:50.916Z</time></trkpt><trkpt lat="34.0211567" lon="8.1644483"><ele>22.0</ele><time>2026-04-24T14:24:51.917Z</time></trkpt><trkpt lat="34.021005" lon="8.1646517"><ele>22.0</ele><time>2026-04-24T14:24:52.917Z</time></trkpt><trkpt lat="34.0208583" lon="8.164855"><ele>22.0</ele><time>2026-04-24T14:24:53.916Z</time></trkpt><trkpt lat="34.0207067" lon="8.1650567"><ele>22.0</ele><time>2026-04-24T14:24:54.917Z</time></trkpt><trkpt lat="34.0205517" lon="8.16526"><ele>22.0</ele><time>2026-04-24T14:24:55.916Z</time></trkpt><trkpt lat="34.0203967" lon="8.1654517"><ele>22.0</ele><time>2026-04-24T14:24:56.917Z</time></trkpt><trkpt lat="34.0202483" lon="8.165645"><ele>22.0</ele><time>2026-04-24T14:24:57.917Z</time></trkpt><trkpt lat="34.020095" lon="8.1658433"><ele>22.0</ele><time>2026-04-24T14:24:58.916Z</time></trkpt><trkpt lat="34.01994" lon="8.1660417"><ele>22.0</ele><time>2026-04-24T14:24:59.917Z</time></trkpt><trkpt lat="34.01979" lon="8.1662333"><ele>22.0</ele><time>2026-04-24T14:25:00.917Z</time></trkpt><trkpt lat="34.0196367" lon="8.1664283"><ele>22.333333333333332</ele><time>2026-04-24T14:25:01.917Z</time></trkpt><trkpt lat="34.0194867" lon="8.1666317"><ele>22.666666666666668</ele><time>2026-04-24T14:25:02.917Z</time></trkpt><trkpt lat="34.0193383" lon="8.1668283"><ele>23.0</ele><time>2026-04-24T14:25:03.917Z</time></trkpt><trkpt lat="34.01919" lon="8.1670267"><ele>23.333333333333336</ele><time>2026-04-24T14:25:04.916Z</time></trkpt><trkpt lat="34.0190417" lon="8.1672267"><ele>23.666666666666668</ele><time>2026-04-24T14:25:05.917Z</time></trkpt><trkpt lat="34.0189067" lon="8.167415"><ele>24.0</ele><time>2026-04-24T14:25:06.917Z</time></trkpt><trkpt lat="34.01877" lon="8.1675983"><ele>24.333333333333336</ele><time>2026-04-24T14:25:07.916Z</time></trkpt><trkpt lat="34.0186317" lon="8.1677783"><ele>24.666666666666668</ele><time>2026-04-24T14:25:08.917Z</time></trkpt><trkpt lat="34.018495" lon="8.1679583"><ele>25.0</ele><time>2026-04-24T14:25:09.916Z</time></trkpt><trkpt lat="34.0183567" lon="8.168145"><ele>25.0</ele><time>2026-04-24T14:25:10.917Z</time></trkpt><trkpt lat="34.0182233" lon="8.1683333"><ele>25.0</ele><time>2026-04-24T14:25:11.917Z</time></trkpt><trkpt lat="34.0180867" lon="8.16852"><ele>25.0</ele><time>2026-04-24T14:25:12.917Z</time></trkpt><trkpt lat="34.0179417" lon="8.16871"><ele>25.0</ele><time>2026-04-24T14:25:13.917Z</time></trkpt><trkpt lat="34.0177983" lon="8.168895"><ele>25.0</ele><time>2026-04-24T14:25:14.917Z</time></trkpt><trkpt lat="34.0176533" lon="8.1690867"><ele>25.0</ele><time>2026-04-24T14:25:15.917Z</time></trkpt><trkpt lat="34.0175083" lon="8.1692833"><ele>25.333333333333336</ele><time>2026-04-24T14:25:16.917Z</time></trkpt><trkpt lat="34.01736" lon="8.1694817"><ele>25.666666666666664</ele><time>2026-04-24T14:25:17.917Z</time></trkpt><trkpt lat="34.0172133" lon="8.1696783"><ele>26.0</ele><time>2026-04-24T14:25:18.916Z</time></trkpt><trkpt lat="34.0170683" lon="8.16988"><ele>26.5</ele><time>2026-04-24T14:25:19.917Z</time></trkpt><trkpt lat="34.0169167" lon="8.1700833"><ele>27.0</ele><time>2026-04-24T14:25:20.917Z</time></trkpt><trkpt lat="34.0167667" lon="8.170285"><ele>27.666666666666664</ele><time>2026-04-24T14:25:21.917Z</time></trkpt><trkpt lat="34.016615" lon="8.17048"><ele>28.333333333333332</ele><time>2026-04-24T14:25:22.917Z</time></trkpt><trkpt lat="34.01646" lon="8.1706767"><ele>29.0</ele><time>2026-04-24T14:25:23.917Z</time></trkpt><trkpt lat="34.0163133" lon="8.1708733"><ele>29.0</ele><time>2026-04-24T14:25:24.916Z</time></trkpt><trkpt lat="34.01616" lon="8.1710733"><ele>29.0</ele><time>2026-04-24T14:25:25.917Z</time></trkpt><trkpt lat="34.0160117" lon="8.1712733"><ele>29.0</ele><time>2026-04-24T14:25:26.916Z</time></trkpt><trkpt lat="34.0158633" lon="8.17148"><ele>29.5</ele><time>2026-04-24T14:25:27.916Z</time></trkpt><trkpt lat="34.01571" lon="8.171685"><ele>30.0</ele><time>2026-04-24T14:25:28.916Z</time></trkpt><trkpt lat="34.015555" lon="8.1718883"><ele>30.0</ele><time>2026-04-24T14:25:29.917Z</time></trkpt><trkpt lat="34.01541" lon="8.17209"><ele>30.0</ele><time>2026-04-24T14:25:30.917Z</time></trkpt><trkpt lat="34.0152617" lon="8.17229"><ele>30.0</ele><time>2026-04-24T14:25:31.917Z</time></trkpt><trkpt lat="34.0151133" lon="8.17248"><ele>30.666666666666664</ele><time>2026-04-24T14:25:32.917Z</time></trkpt><trkpt lat="34.01497" lon="8.1726783"><ele>31.333333333333332</ele><time>2026-04-24T14:25:33.917Z</time></trkpt><trkpt lat="34.0148267" lon="8.1728733"><ele>32.0</ele><time>2026-04-24T14:25:34.917Z</time></trkpt><trkpt lat="34.014685" lon="8.1730717"><ele>31.666666666666664</ele><time>2026-04-24T14:25:35.917Z</time></trkpt><trkpt lat="34.014535" lon="8.1732683"><ele>31.333333333333336</ele><time>2026-04-24T14:25:36.917Z</time></trkpt><trkpt lat="34.014385" lon="8.1734683"><ele>31.0</ele><time>2026-04-24T14:25:37.917Z</time></trkpt><trkpt lat="34.0142333" lon="8.17367"><ele>32.333333333333336</ele><time>2026-04-24T14:25:38.916Z</time></trkpt><trkpt lat="34.0140817" lon="8.1738683"><ele>33.666666666666664</ele><time>2026-04-24T14:25:39.917Z</time></trkpt><trkpt lat="34.0139283" lon="8.174065"><ele>35.0</ele><time>2026-04-24T14:25:40.917Z</time></trkpt><trkpt lat="34.0137767" lon="8.1742567"><ele>35.33333333333333</ele><time>2026-04-24T14:25:41.916Z</time></trkpt><trkpt lat="34.0136333" lon="8.1744583"><ele>35.666666666666664</ele><time>2026-04-24T14:25:42.916Z</time></trkpt><trkpt lat="34.0134917" lon="8.17466"><ele>36.0</ele><time>2026-04-24T14:25:43.917Z</time></trkpt><trkpt lat="34.0133433" lon="8.1748617"><ele>36.0</ele><time>2026-04-24T14:25:44.917Z</time></trkpt><trkpt lat="34.0131933" lon="8.175065"><ele>36.0</ele><time>2026-04-24T14:25:45.917Z</time></trkpt><trkpt lat="34.01305" lon="8.1752667"><ele>36.0</ele><time>2026-04-24T14:25:46.917Z</time></trkpt><trkpt lat="34.0129033" lon="8.1754717"><ele>36.0</ele><time>2026-04-24T14:25:47.916Z</time></trkpt><trkpt lat="34.0127617" lon="8.1756717"><ele>36.0</ele><time>2026-04-24T14:25:48.917Z</time></trkpt><trkpt lat="34.0126083" lon="8.1758783"><ele>36.0</ele><time>2026-04-24T14:25:49.917Z</time></trkpt><trkpt lat="34.0124533" lon="8.1760717"><ele>37.333333333333336</ele><time>2026-04-24T14:25:50.916Z</time></trkpt><trkpt lat="34.0123083" lon="8.176275"><ele>38.66666666666667</ele><time>2026-04-24T14:25:51.916Z</time></trkpt><trkpt lat="34.0121533" lon="8.17647"><ele>40.0</ele><time>2026-04-24T14:25:52.916Z</time></trkpt><trkpt lat="34.0120033" lon="8.17667"><ele>40.0</ele><time>2026-04-24T14:25:53.917Z</time></trkpt><trkpt lat="34.011855" lon="8.176875"><ele>40.0</ele><time>2026-04-24T14:25:54.916Z</time></trkpt><trkpt lat="34.0117067" lon="8.1770817"><ele>40.0</ele><time>2026-04-24T14:25:55.916Z</time></trkpt><trkpt lat="34.0115583" lon="8.1772783"><ele>40.0</ele><time>2026-04-24T14:25:56.917Z</time></trkpt><trkpt lat="34.0114133" lon="8.1774767"><ele>40.0</ele><time>2026-04-24T14:25:57.917Z</time></trkpt><trkpt lat="34.011265" lon="8.177675"><ele>40.333333333333336</ele><time>2026-04-24T14:25:58.917Z</time></trkpt><trkpt lat="34.0111217" lon="8.1778667"><ele>40.666666666666664</ele><time>2026-04-24T14:25:59.916Z</time></trkpt><trkpt lat="34.0109783" lon="8.1780417"><ele>41.0</ele><time>2026-04-24T14:26:00.917Z</time></trkpt><trkpt lat="34.010855" lon="8.17823"><ele>43.0</ele><time>2026-04-24T14:26:01.916Z</time></trkpt><trkpt lat="34.0107317" lon="8.1784033"><ele>45.0</ele><time>2026-04-24T14:26:02.917Z</time></trkpt><trkpt lat="34.0106117" lon="8.17856"><ele>47.0</ele><time>2026-04-24T14:26:03.917Z</time></trkpt><trkpt lat="34.0105017" lon="8.1787083"><ele>47.0</ele><time>2026-04-24T14:26:04.917Z</time></trkpt><trkpt lat="34.010405" lon="8.1788483"><ele>47.0</ele><time>2026-04-24T14:26:05.917Z</time></trkpt><trkpt lat="34.0103133" lon="8.17898"><ele>47.0</ele><time>2026-04-24T14:26:06.917Z</time></trkpt><trkpt lat="34.010225" lon="8.1790833"><ele>47.0</ele><time>2026-04-24T14:26:07.916Z</time></trkpt><trkpt lat="34.0101467" lon="8.1791567"><ele>47.5</ele><time>2026-04-24T14:26:08.917Z</time></trkpt><trkpt lat="34.0100717" lon="8.1792183"><ele>48.0</ele><time>2026-04-24T14:26:09.916Z</time></trkpt><trkpt lat="34.0099833" lon="8.1792533"><ele>48.5</ele><time>2026-04-24T14:26:10.917Z</time></trkpt><trkpt lat="34.0099067" lon="8.179245"><ele>49.0</ele><time>2026-04-24T14:26:11.917Z</time></trkpt><trkpt lat="34.0098283" lon="8.1792067"><ele>49.50000000000001</ele><time>2026-04-24T14:26:12.917Z</time></trkpt><trkpt lat="34.0097417" lon="8.179145"><ele>50.0</ele><time>2026-04-24T14:26:13.916Z</time></trkpt><trkpt lat="34.009655" lon="8.1790683"><ele>49.5</ele><time>2026-04-24T14:26:14.917Z</time></trkpt><trkpt lat="34.0095633" lon="8.178975"><ele>49.0</ele><time>2026-04-24T14:26:15.917Z</time></trkpt><trkpt lat="34.0094733" lon="8.178875"><ele>48.5</ele><time>2026-04-24T14:26:16.917Z</time></trkpt><trkpt lat="34.0093717" lon="8.1787667"><ele>48.0</ele><time>2026-04-24T14:26:17.917Z</time></trkpt><trkpt lat="34.0092533" lon="8.1786467"><ele>49.66666666666667</ele><time>2026-04-24T14:26:18.917Z</time></trkpt><trkpt lat="34.00913" lon="8.1785"><ele>51.333333333333336</ele><time>2026-04-24T14:26:19.917Z</time></trkpt><trkpt lat="34.0089933" lon="8.17836"><ele>53.0</ele><time>2026-04-24T14:26:20.917Z</time></trkpt><trkpt lat="34.008865" lon="8.178225"><ele>51.66666666666667</ele><time>2026-04-24T14:26:21.917Z</time></trkpt><trkpt lat="34.0087333" lon="8.17811"><ele>50.33333333333333</ele><time>2026-04-24T14:26:22.917Z</time></trkpt><trkpt lat="34.0085983" lon="8.17798"><ele>49.0</ele><time>2026-04-24T14:26:23.917Z</time></trkpt><trkpt lat="34.0084633" lon="8.17784"><ele>50.0</ele><time>2026-04-24T14:26:24.917Z</time></trkpt><trkpt lat="34.00831" lon="8.177695"><ele>51.0</ele><time>2026-04-24T14:26:25.917Z</time></trkpt><trkpt lat="34.00816" lon="8.1775533"><ele>52.0</ele><time>2026-04-24T14:26:26.916Z</time></trkpt><trkpt lat="34.0080133" lon="8.177405"><ele>52.0</ele><time>2026-04-24T14:26:27.917Z</time></trkpt><trkpt lat="34.00786" lon="8.1772583"><ele>52.0</ele><time>2026-04-24T14:26:28.917Z</time></trkpt><trkpt lat="34.007705" lon="8.1771017"><ele>52.0</ele><time>2026-04-24T14:26:29.917Z</time></trkpt><trkpt lat="34.0075433" lon="8.1769433"><ele>53.0</ele><time>2026-04-24T14:26:30.916Z</time></trkpt><trkpt lat="34.0073833" lon="8.17679"><ele>54.0</ele><time>2026-04-24T14:26:31.917Z</time></trkpt><trkpt lat="34.0072233" lon="8.1766333"><ele>55.0</ele><time>2026-04-24T14:26:32.916Z</time></trkpt><trkpt lat="34.00706" lon="8.1764833"><ele>55.0</ele><time>2026-04-24T14:26:33.917Z</time></trkpt><trkpt lat="34.0069033" lon="8.17632"><ele>55.0</ele><time>2026-04-24T14:26:34.917Z</time></trkpt><trkpt lat="34.006735" lon="8.1761667"><ele>55.0</ele><time>2026-04-24T14:26:35.916Z</time></trkpt><trkpt lat="34.0065733" lon="8.1760117"><ele>55.0</ele><time>2026-04-24T14:26:36.916Z</time></trkpt><trkpt lat="34.0064117" lon="8.1758517"><ele>55.0</ele><time>2026-04-24T14:26:37.916Z</time></trkpt><trkpt lat="34.0062433" lon="8.1756917"><ele>55.0</ele><time>2026-04-24T14:26:38.915Z</time></trkpt><trkpt lat="34.0060633" lon="8.1755233"><ele>54.5</ele><time>2026-04-24T14:26:39.916Z</time></trkpt><trkpt lat="34.0058867" lon="8.1753567"><ele>54.0</ele><time>2026-04-24T14:26:40.915Z</time></trkpt><trkpt lat="34.00571" lon="8.1751867"><ele>54.0</ele><time>2026-04-24T14:26:41.915Z</time></trkpt><trkpt lat="34.0055333" lon="8.175025"><ele>54.0</ele><time>2026-04-24T14:26:42.916Z</time></trkpt><trkpt lat="34.0053583" lon="8.174855"><ele>54.0</ele><time>2026-04-24T14:26:43.916Z</time></trkpt><trkpt lat="34.0051767" lon="8.17469"><ele>54.0</ele><time>2026-04-24T14:26:44.915Z</time></trkpt><trkpt lat="34.0050067" lon="8.1745283"><ele>54.0</ele><time>2026-04-24T14:26:45.916Z</time></trkpt><trkpt lat="34.0048317" lon="8.1743567"><ele>54.0</ele><time>2026-04-24T14:26:46.916Z</time></trkpt><trkpt lat="34.004655" lon="8.1741983"><ele>54.0</ele><time>2026-04-24T14:26:47.916Z</time></trkpt><trkpt lat="34.0044733" lon="8.1740417"><ele>54.0</ele><time>2026-04-24T14:26:48.915Z</time></trkpt><trkpt lat="34.00428" lon="8.1738983"><ele>53.5</ele><time>2026-04-24T14:26:49.916Z</time></trkpt><trkpt lat="34.0040833" lon="8.1737717"><ele>53.0</ele><time>2026-04-24T14:26:50.916Z</time></trkpt><trkpt lat="34.003875" lon="8.173655"><ele>53.0</ele><time>2026-04-24T14:26:51.916Z</time></trkpt><trkpt lat="34.0036667" lon="8.1735567"><ele>53.0</ele><time>2026-04-24T14:26:52.916Z</time></trkpt><trkpt lat="34.0034583" lon="8.1734533"><ele>53.0</ele><time>2026-04-24T14:26:53.915Z</time></trkpt><trkpt lat="34.003235" lon="8.17336"><ele>52.0</ele><time>2026-04-24T14:26:54.916Z</time></trkpt><trkpt lat="34.0030167" lon="8.1732533"><ele>51.0</ele><time>2026-04-24T14:26:55.916Z</time></trkpt><trkpt lat="34.0028067" lon="8.1731483"><ele>51.0</ele><time>2026-04-24T14:26:56.916Z</time></trkpt><trkpt lat="34.0025917" lon="8.1730567"><ele>51.0</ele><time>2026-04-24T14:26:57.916Z</time></trkpt><trkpt lat="34.0023783" lon="8.1729667"><ele>51.33333333333333</ele><time>2026-04-24T14:26:58.916Z</time></trkpt><trkpt lat="34.002165" lon="8.1728733"><ele>51.666666666666664</ele><time>2026-04-24T14:26:59.915Z</time></trkpt><trkpt lat="34.0019583" lon="8.1727767"><ele>52.0</ele><time>2026-04-24T14:27:00.916Z</time></trkpt><trkpt lat="34.0017533" lon="8.1726783"><ele>54.33333333333333</ele><time>2026-04-24T14:27:01.916Z</time></trkpt><trkpt lat="34.0015617" lon="8.172585"><ele>56.66666666666667</ele><time>2026-04-24T14:27:02.914Z</time></trkpt><trkpt lat="34.0013733" lon="8.1724983"><ele>59.0</ele><time>2026-04-24T14:27:03.915Z</time></trkpt><trkpt lat="34.0011933" lon="8.172405"><ele>60.0</ele><time>2026-04-24T14:27:04.916Z</time></trkpt><trkpt lat="34.0010183" lon="8.172325"><ele>61.0</ele><time>2026-04-24T14:27:05.916Z</time></trkpt><trkpt lat="34.0008533" lon="8.1722533"><ele>62.0</ele><time>2026-04-24T14:27:06.916Z</time></trkpt><trkpt lat="34.0007033" lon="8.172195"><ele>62.0</ele><time>2026-04-24T14:27:07.916Z</time></trkpt><trkpt lat="34.0005667" lon="8.17214"><ele>62.0</ele><time>2026-04-24T14:27:08.916Z</time></trkpt><trkpt lat="34.0004383" lon="8.1720833"><ele>62.0</ele><time>2026-04-24T14:27:09.916Z</time></trkpt><trkpt lat="34.000315" lon="8.172035"><ele>62.0</ele><time>2026-04-24T14:27:10.916Z</time></trkpt><trkpt lat="34.0002067" lon="8.1719783"><ele>62.0</ele><time>2026-04-24T14:27:11.916Z</time></trkpt><trkpt lat="34.0001083" lon="8.1719267"><ele>62.0</ele><time>2026-04-24T14:27:12.916Z</time></trkpt><trkpt lat="34.0000133" lon="8.17188"><ele>62.0</ele><time>2026-04-24T14:27:13.916Z</time></trkpt><trkpt lat="33.9999217" lon="8.1718317"><ele>62.0</ele><time>2026-04-24T14:27:14.916Z</time></trkpt><trkpt lat="33.999835" lon="8.1717917"><ele>62.0</ele><time>2026-04-24T14:27:15.916Z</time></trkpt><trkpt lat="33.99974" lon="8.17175"><ele>62.0</ele><time>2026-04-24T14:27:16.916Z</time></trkpt><trkpt lat="33.9996433" lon="8.17171"><ele>62.0</ele><time>2026-04-24T14:27:17.916Z</time></trkpt><trkpt lat="33.9995533" lon="8.171675"><ele>62.0</ele><time>2026-04-24T14:27:18.916Z</time></trkpt><trkpt lat="33.9994617" lon="8.1716333"><ele>62.0</ele><time>2026-04-24T14:27:19.916Z</time></trkpt><trkpt lat="33.999365" lon="8.171595"><ele>62.0</ele><time>2026-04-24T14:27:20.916Z</time></trkpt><trkpt lat="33.9992667" lon="8.171555"><ele>61.8</ele><time>2026-04-24T14:27:21.916Z</time></trkpt><trkpt lat="33.999175" lon="8.1715133"><ele>61.6</ele><time>2026-04-24T14:27:22.915Z</time></trkpt><trkpt lat="33.9990833" lon="8.1714767"><ele>61.39999999999999</ele><time>2026-04-24T14:27:23.916Z</time></trkpt><trkpt lat="33.9989217" lon="8.1714083"><ele>61.199999999999996</ele><time>2026-04-24T14:27:25.916Z</time></trkpt><trkpt lat="33.998845" lon="8.1713683"><ele>61.0</ele><time>2026-04-24T14:27:26.916Z</time></trkpt><trkpt lat="33.9987717" lon="8.1713417"><ele>61.49999999999999</ele><time>2026-04-24T14:27:27.916Z</time></trkpt><trkpt lat="33.9987067" lon="8.1713083"><ele>62.0</ele><time>2026-04-24T14:27:28.916Z</time></trkpt><trkpt lat="33.9986433" lon="8.1712867"><ele>62.5</ele><time>2026-04-24T14:27:29.916Z</time></trkpt><trkpt lat="33.9985767" lon="8.17126"><ele>63.0</ele><time>2026-04-24T14:27:30.916Z</time></trkpt><trkpt lat="33.9985083" lon="8.1712317"><ele>63.49999999999999</ele><time>2026-04-24T14:27:31.916Z</time></trkpt><trkpt lat="33.9984467" lon="8.1712017"><ele>64.0</ele><time>2026-04-24T14:27:32.916Z</time></trkpt><trkpt lat="33.9983317" lon="8.1711667"><ele>64.0</ele><time>2026-04-24T14:27:34.915Z</time></trkpt><trkpt lat="33.9982333" lon="8.171165"><ele>64.0</ele><time>2026-04-24T14:27:36.916Z</time></trkpt><trkpt lat="33.9981633" lon="8.1712367"><ele>64.0</ele><time>2026-04-24T14:27:38.916Z</time></trkpt><trkpt lat="33.9981217" lon="8.1713"><ele>64.0</ele><time>2026-04-24T14:27:41.916Z</time></trkpt><trkpt lat="33.9980233" lon="8.17134"><ele>64.0</ele><time>2026-04-24T14:28:03.916Z</time></trkpt><trkpt lat="33.997935" lon="8.1713167"><ele>63.99999999999999</ele><time>2026-04-24T14:28:05.915Z</time></trkpt><trkpt lat="33.9978467" lon="8.1713233"><ele>64.0</ele><time>2026-04-24T14:28:08.916Z</time></trkpt><trkpt lat="33.9978233" lon="8.1714"><ele>64.0</ele><time>2026-04-24T14:28:11.916Z</time></trkpt><trkpt lat="33.9978867" lon="8.17145"><ele>64.0</ele><time>2026-04-24T14:28:15.916Z</time></trkpt><trkpt lat="33.9979767" lon="8.1714867"><ele>63.99999999999999</ele><time>2026-04-24T14:28:41.916Z</time></trkpt><trkpt lat="33.9980767" lon="8.1714267"><ele>64.0</ele><time>2026-04-24T14:28:43.916Z</time></trkpt><trkpt lat="33.9981217" lon="8.1713733"><ele>63.99999999999999</ele><time>2026-04-24T14:28:44.915Z</time></trkpt><trkpt lat="33.99816" lon="8.1713083"><ele>64.0</ele><time>2026-04-24T14:28:45.915Z</time></trkpt><trkpt lat="33.9982217" lon="8.1712"><ele>64.0</ele><time>2026-04-24T14:28:47.916Z</time></trkpt><trkpt lat="33.99819" lon="8.1711167"><ele>64.0</ele><time>2026-04-24T14:29:03.915Z</time></trkpt><trkpt lat="33.9981083" lon="8.1710533"><ele>63.99999999999999</ele><time>2026-04-24T14:29:05.915Z</time></trkpt><trkpt lat="33.9980467" lon="8.171015"><ele>64.0</ele><time>2026-04-24T14:29:06.916Z</time></trkpt><trkpt lat="33.9979767" lon="8.1709867"><ele>64.0</ele><time>2026-04-24T14:29:07.916Z</time></trkpt><trkpt lat="33.9979" lon="8.1709533"><ele>64.0</ele><time>2026-04-24T14:29:08.915Z</time></trkpt><trkpt lat="33.9978217" lon="8.1709117"><ele>64.0</ele><time>2026-04-24T14:29:09.916Z</time></trkpt><trkpt lat="33.9977383" lon="8.1708533"><ele>64.0</ele><time>2026-04-24T14:29:10.916Z</time></trkpt><trkpt lat="33.9976567" lon="8.1707883"><ele>64.0</ele><time>2026-04-24T14:29:11.916Z</time></trkpt><trkpt lat="33.9975833" lon="8.170725"><ele>63.99999999999999</ele><time>2026-04-24T14:29:12.916Z</time></trkpt><trkpt lat="33.997535" lon="8.1706667"><ele>64.0</ele><time>2026-04-24T14:29:13.916Z</time></trkpt><trkpt lat="33.997475" lon="8.170615"><ele>64.0</ele><time>2026-04-24T14:29:14.916Z</time></trkpt><trkpt lat="33.99742" lon="8.1705483"><ele>64.0</ele><time>2026-04-24T14:29:15.916Z</time></trkpt><trkpt lat="33.9973433" lon="8.17049"><ele>63.99999999999999</ele><time>2026-04-24T14:29:16.916Z</time></trkpt><trkpt lat="33.99725" lon="8.1704367"><ele>64.0</ele><time>2026-04-24T14:29:17.916Z</time></trkpt><trkpt lat="33.9971467" lon="8.1703817"><ele>62.75</ele><time>2026-04-24T14:29:18.916Z</time></trkpt><trkpt lat="33.99704" lon="8.1703183"><ele>61.5</ele><time>2026-04-24T14:29:19.915Z</time></trkpt><trkpt lat="33.9969367" lon="8.1702417"><ele>60.25</ele><time>2026-04-24T14:29:20.916Z</time></trkpt><trkpt lat="33.9968283" lon="8.17016"><ele>59.0</ele><time>2026-04-24T14:29:21.915Z</time></trkpt><trkpt lat="33.9967133" lon="8.17007"><ele>57.66666666666667</ele><time>2026-04-24T14:29:22.915Z</time></trkpt><trkpt lat="33.9965933" lon="8.1699733"><ele>56.33333333333333</ele><time>2026-04-24T14:29:23.915Z</time></trkpt><trkpt lat="33.996465" lon="8.1698717"><ele>55.0</ele><time>2026-04-24T14:29:24.916Z</time></trkpt><trkpt lat="33.9963283" lon="8.1697667"><ele>54.33333333333333</ele><time>2026-04-24T14:29:25.916Z</time></trkpt><trkpt lat="33.9961917" lon="8.1696567"><ele>53.66666666666667</ele><time>2026-04-24T14:29:26.916Z</time></trkpt><trkpt lat="33.9960533" lon="8.1695433"><ele>53.0</ele><time>2026-04-24T14:29:27.916Z</time></trkpt><trkpt lat="33.9959133" lon="8.1694283"><ele>52.66666666666667</ele><time>2026-04-24T14:29:28.916Z</time></trkpt><trkpt lat="33.9957717" lon="8.1693167"><ele>52.33333333333333</ele><time>2026-04-24T14:29:29.916Z</time></trkpt><trkpt lat="33.995635" lon="8.1691983"><ele>52.0</ele><time>2026-04-24T14:29:30.916Z</time></trkpt><trkpt lat="33.9954883" lon="8.1690783"><ele>51.666666666666664</ele><time>2026-04-24T14:29:31.916Z</time></trkpt><trkpt lat="33.9953533" lon="8.168955"><ele>51.33333333333333</ele><time>2026-04-24T14:29:32.916Z</time></trkpt><trkpt lat="33.9952233" lon="8.1688417"><ele>51.0</ele><time>2026-04-24T14:29:33.916Z</time></trkpt><trkpt lat="33.9951" lon="8.1687233"><ele>51.0</ele><time>2026-04-24T14:29:34.916Z</time></trkpt><trkpt lat="33.9949667" lon="8.168615"><ele>51.0</ele><time>2026-04-24T14:29:35.916Z</time></trkpt><trkpt lat="33.9948333" lon="8.1684967"><ele>51.0</ele><time>2026-04-24T14:29:36.916Z</time></trkpt><trkpt lat="33.994715" lon="8.1683767"><ele>51.0</ele><time>2026-04-24T14:29:37.916Z</time></trkpt><trkpt lat="33.99458" lon="8.1682483"><ele>51.0</ele><time>2026-04-24T14:29:38.915Z</time></trkpt><trkpt lat="33.99445" lon="8.1681117"><ele>51.0</ele><time>2026-04-24T14:29:39.916Z</time></trkpt><trkpt lat="33.9943233" lon="8.167965"><ele>50.33333333333333</ele><time>2026-04-24T14:29:40.916Z</time></trkpt><trkpt lat="33.994205" lon="8.16781"><ele>49.666666666666664</ele><time>2026-04-24T14:29:41.915Z</time></trkpt><trkpt lat="33.9940933" lon="8.167645"><ele>49.0</ele><time>2026-04-24T14:29:42.915Z</time></trkpt><trkpt lat="33.9939883" lon="8.1674617"><ele>49.666666666666664</ele><time>2026-04-24T14:29:43.916Z</time></trkpt><trkpt lat="33.993905" lon="8.1672733"><ele>50.33333333333333</ele><time>2026-04-24T14:29:44.916Z</time></trkpt><trkpt lat="33.9938433" lon="8.1670433"><ele>51.0</ele><time>2026-04-24T14:29:45.916Z</time></trkpt><trkpt lat="33.9937883" lon="8.1668233"><ele>51.0</ele><time>2026-04-24T14:29:46.915Z</time></trkpt><trkpt lat="33.9937417" lon="8.1666017"><ele>51.0</ele><time>2026-04-24T14:29:47.915Z</time></trkpt><trkpt lat="33.9937" lon="8.1663783"><ele>51.0</ele><time>2026-04-24T14:29:48.916Z</time></trkpt><trkpt lat="33.9936517" lon="8.1661517"><ele>51.33333333333333</ele><time>2026-04-24T14:29:49.916Z</time></trkpt><trkpt lat="33.9936033" lon="8.165925"><ele>51.666666666666664</ele><time>2026-04-24T14:29:50.915Z</time></trkpt><trkpt lat="33.9935517" lon="8.1657117"><ele>52.0</ele><time>2026-04-24T14:29:51.915Z</time></trkpt><trkpt lat="33.993485" lon="8.1655133"><ele>52.33333333333333</ele><time>2026-04-24T14:29:52.916Z</time></trkpt><trkpt lat="33.99341" lon="8.16532"><ele>52.66666666666667</ele><time>2026-04-24T14:29:53.915Z</time></trkpt><trkpt lat="33.9933283" lon="8.1651533"><ele>53.0</ele><time>2026-04-24T14:29:54.916Z</time></trkpt><trkpt lat="33.9932467" lon="8.165"><ele>54.25</ele><time>2026-04-24T14:29:55.916Z</time></trkpt><trkpt lat="33.9931717" lon="8.1648567"><ele>55.5</ele><time>2026-04-24T14:29:56.916Z</time></trkpt><trkpt lat="33.9930917" lon="8.16472"><ele>56.75</ele><time>2026-04-24T14:29:57.915Z</time></trkpt><trkpt lat="33.9930117" lon="8.1645983"><ele>58.0</ele><time>2026-04-24T14:29:58.916Z</time></trkpt><trkpt lat="33.9929383" lon="8.1644833"><ele>58.0</ele><time>2026-04-24T14:29:59.916Z</time></trkpt><trkpt lat="33.992855" lon="8.16436"><ele>58.0</ele><time>2026-04-24T14:30:00.916Z</time></trkpt><trkpt lat="33.99277" lon="8.16424"><ele>58.0</ele><time>2026-04-24T14:30:01.916Z</time></trkpt><trkpt lat="33.9926883" lon="8.1641267"><ele>58.0</ele><time>2026-04-24T14:30:02.915Z</time></trkpt><trkpt lat="33.992605" lon="8.1640033"><ele>57.75</ele><time>2026-04-24T14:30:03.916Z</time></trkpt><trkpt lat="33.9925167" lon="8.163865"><ele>57.5</ele><time>2026-04-24T14:30:04.916Z</time></trkpt><trkpt lat="33.9924217" lon="8.1637283"><ele>57.25</ele><time>2026-04-24T14:30:05.916Z</time></trkpt><trkpt lat="33.9923267" lon="8.16358"><ele>57.0</ele><time>2026-04-24T14:30:06.915Z</time></trkpt><trkpt lat="33.9922267" lon="8.16344"><ele>57.0</ele><time>2026-04-24T14:30:07.915Z</time></trkpt><trkpt lat="33.9921267" lon="8.1632917"><ele>57.0</ele><time>2026-04-24T14:30:08.916Z</time></trkpt><trkpt lat="33.9920217" lon="8.1631333"><ele>57.0</ele><time>2026-04-24T14:30:09.916Z</time></trkpt><trkpt lat="33.99191" lon="8.1629733"><ele>58.0</ele><time>2026-04-24T14:30:10.916Z</time></trkpt><trkpt lat="33.9918017" lon="8.1628067"><ele>59.0</ele><time>2026-04-24T14:30:11.916Z</time></trkpt><trkpt lat="33.99169" lon="8.1626417"><ele>60.0</ele><time>2026-04-24T14:30:12.916Z</time></trkpt><trkpt lat="33.991585" lon="8.1624733"><ele>61.66666666666667</ele><time>2026-04-24T14:30:13.915Z</time></trkpt><trkpt lat="33.9914783" lon="8.162305"><ele>63.333333333333336</ele><time>2026-04-24T14:30:14.916Z</time></trkpt><trkpt lat="33.9913733" lon="8.162135"><ele>65.0</ele><time>2026-04-24T14:30:15.916Z</time></trkpt><trkpt lat="33.9912617" lon="8.1619567"><ele>65.0</ele><time>2026-04-24T14:30:16.916Z</time></trkpt><trkpt lat="33.99115" lon="8.1617783"><ele>65.0</ele><time>2026-04-24T14:30:17.915Z</time></trkpt><trkpt lat="33.9910367" lon="8.1616083"><ele>65.0</ele><time>2026-04-24T14:30:18.916Z</time></trkpt><trkpt lat="33.9909183" lon="8.1614383"><ele>66.66666666666667</ele><time>2026-04-24T14:30:19.915Z</time></trkpt><trkpt lat="33.99079" lon="8.1612867"><ele>68.33333333333333</ele><time>2026-04-24T14:30:20.916Z</time></trkpt><trkpt lat="33.9906617" lon="8.161135"><ele>70.0</ele><time>2026-04-24T14:30:21.916Z</time></trkpt><trkpt lat="33.9905233" lon="8.160985"><ele>70.0</ele><time>2026-04-24T14:30:22.916Z</time></trkpt><trkpt lat="33.9903833" lon="8.1608433"><ele>70.0</ele><time>2026-04-24T14:30:23.915Z</time></trkpt><trkpt lat="33.9902433" lon="8.1607017"><ele>70.0</ele><time>2026-04-24T14:30:24.916Z</time></trkpt><trkpt lat="33.9900917" lon="8.1605767"><ele>71.0</ele><time>2026-04-24T14:30:25.915Z</time></trkpt><trkpt lat="33.98994" lon="8.1604533"><ele>72.0</ele><time>2026-04-24T14:30:26.915Z</time></trkpt><trkpt lat="33.9897883" lon="8.160335"><ele>73.0</ele><time>2026-04-24T14:30:27.915Z</time></trkpt><trkpt lat="33.9896333" lon="8.1602233"><ele>73.0</ele><time>2026-04-24T14:30:28.914Z</time></trkpt><trkpt lat="33.9894767" lon="8.1601217"><ele>73.0</ele><time>2026-04-24T14:30:29.915Z</time></trkpt><trkpt lat="33.9893233" lon="8.16003"><ele>73.0</ele><time>2026-04-24T14:30:30.915Z</time></trkpt><trkpt lat="33.989165" lon="8.1599383"><ele>74.33333333333333</ele><time>2026-04-24T14:30:31.914Z</time></trkpt><trkpt lat="33.9890083" lon="8.15984"><ele>75.66666666666667</ele><time>2026-04-24T14:30:32.915Z</time></trkpt><trkpt lat="33.9888433" lon="8.1597583"><ele>77.0</ele><time>2026-04-24T14:30:33.915Z</time></trkpt><trkpt lat="33.988685" lon="8.1596817"><ele>77.0</ele><time>2026-04-24T14:30:34.915Z</time></trkpt><trkpt lat="33.9885217" lon="8.15961"><ele>77.0</ele><time>2026-04-24T14:30:35.915Z</time></trkpt><trkpt lat="33.988365" lon="8.1595483"><ele>77.0</ele><time>2026-04-24T14:30:36.915Z</time></trkpt><trkpt lat="33.988215" lon="8.15948"><ele>77.25</ele><time>2026-04-24T14:30:37.915Z</time></trkpt><trkpt lat="33.98807" lon="8.1594217"><ele>77.5</ele><time>2026-04-24T14:30:38.915Z</time></trkpt><trkpt lat="33.9879317" lon="8.1593717"><ele>77.75</ele><time>2026-04-24T14:30:39.914Z</time></trkpt><trkpt lat="33.987805" lon="8.1593133"><ele>78.0</ele><time>2026-04-24T14:30:40.915Z</time></trkpt><trkpt lat="33.987685" lon="8.15925"><ele>78.0</ele><time>2026-04-24T14:30:41.915Z</time></trkpt><trkpt lat="33.9875617" lon="8.1591833"><ele>78.0</ele><time>2026-04-24T14:30:42.914Z</time></trkpt><trkpt lat="33.9874283" lon="8.1591367"><ele>78.0</ele><time>2026-04-24T14:30:43.915Z</time></trkpt><trkpt lat="33.9873" lon="8.1590833"><ele>78.0</ele><time>2026-04-24T14:30:44.914Z</time></trkpt><trkpt lat="33.98718" lon="8.1590267"><ele>77.6</ele><time>2026-04-24T14:30:45.915Z</time></trkpt><trkpt lat="33.9870717" lon="8.158985"><ele>77.19999999999999</ele><time>2026-04-24T14:30:46.915Z</time></trkpt><trkpt lat="33.9869717" lon="8.1589483"><ele>76.8</ele><time>2026-04-24T14:30:47.914Z</time></trkpt><trkpt lat="33.9868817" lon="8.1588967"><ele>76.39999999999999</ele><time>2026-04-24T14:30:48.915Z</time></trkpt><trkpt lat="33.986785" lon="8.158845"><ele>76.0</ele><time>2026-04-24T14:30:49.915Z</time></trkpt><trkpt lat="33.986685" lon="8.1587867"><ele>75.75</ele><time>2026-04-24T14:30:50.915Z</time></trkpt><trkpt lat="33.9865717" lon="8.15872"><ele>75.5</ele><time>2026-04-24T14:30:51.914Z</time></trkpt><trkpt lat="33.9864533" lon="8.1586583"><ele>75.25</ele><time>2026-04-24T14:30:52.915Z</time></trkpt><trkpt lat="33.98632" lon="8.1585933"><ele>75.0</ele><time>2026-04-24T14:30:53.915Z</time></trkpt><trkpt lat="33.98618" lon="8.158525"><ele>75.0</ele><time>2026-04-24T14:30:54.914Z</time></trkpt><trkpt lat="33.98604" lon="8.1584483"><ele>75.0</ele><time>2026-04-24T14:30:55.915Z</time></trkpt><trkpt lat="33.9858917" lon="8.1583867"><ele>75.0</ele><time>2026-04-24T14:30:56.915Z</time></trkpt><trkpt lat="33.985755" lon="8.15832"><ele>75.0</ele><time>2026-04-24T14:30:57.915Z</time></trkpt><trkpt lat="33.9856167" lon="8.1582733"><ele>75.0</ele><time>2026-04-24T14:30:58.915Z</time></trkpt><trkpt lat="33.9854817" lon="8.1582167"><ele>75.0</ele><time>2026-04-24T14:30:59.915Z</time></trkpt><trkpt lat="33.9853517" lon="8.1581617"><ele>75.0</ele><time>2026-04-24T14:31:00.915Z</time></trkpt><trkpt lat="33.9852233" lon="8.1581183"><ele>75.0</ele><time>2026-04-24T14:31:01.915Z</time></trkpt><trkpt lat="33.9850833" lon="8.1580883"><ele>75.0</ele><time>2026-04-24T14:31:02.915Z</time></trkpt><trkpt lat="33.984935" lon="8.1580533"><ele>75.0</ele><time>2026-04-24T14:31:03.915Z</time></trkpt><trkpt lat="33.9847867" lon="8.1580133"><ele>75.0</ele><time>2026-04-24T14:31:04.915Z</time></trkpt><trkpt lat="33.9846333" lon="8.157965"><ele>74.33333333333333</ele><time>2026-04-24T14:31:05.914Z</time></trkpt><trkpt lat="33.9844683" lon="8.157925"><ele>73.66666666666666</ele><time>2026-04-24T14:31:06.914Z</time></trkpt><trkpt lat="33.9842883" lon="8.15788"><ele>73.0</ele><time>2026-04-24T14:31:07.915Z</time></trkpt><trkpt lat="33.9841067" lon="8.157835"><ele>72.66666666666666</ele><time>2026-04-24T14:31:08.915Z</time></trkpt><trkpt lat="33.9839167" lon="8.1577883"><ele>72.33333333333333</ele><time>2026-04-24T14:31:09.914Z</time></trkpt><trkpt lat="33.9837317" lon="8.15774"><ele>72.0</ele><time>2026-04-24T14:31:10.914Z</time></trkpt><trkpt lat="33.9835433" lon="8.157685"><ele>72.0</ele><time>2026-04-24T14:31:11.915Z</time></trkpt><trkpt lat="33.9833433" lon="8.15764"><ele>72.0</ele><time>2026-04-24T14:31:12.915Z</time></trkpt><trkpt lat="33.983145" lon="8.1575867"><ele>72.0</ele><time>2026-04-24T14:31:13.915Z</time></trkpt><trkpt lat="33.9829433" lon="8.1575433"><ele>72.0</ele><time>2026-04-24T14:31:14.915Z</time></trkpt><trkpt lat="33.982735" lon="8.1574883"><ele>72.0</ele><time>2026-04-24T14:31:15.915Z</time></trkpt><trkpt lat="33.98252" lon="8.1574283"><ele>72.0</ele><time>2026-04-24T14:31:16.915Z</time></trkpt><trkpt lat="33.9823067" lon="8.1573833"><ele>71.0</ele><time>2026-04-24T14:31:17.915Z</time></trkpt><trkpt lat="33.982085" lon="8.1573383"><ele>70.0</ele><time>2026-04-24T14:31:18.915Z</time></trkpt><trkpt lat="33.9818567" lon="8.1572833"><ele>69.5</ele><time>2026-04-24T14:31:19.915Z</time></trkpt><trkpt lat="33.9816317" lon="8.1572367"><ele>69.0</ele><time>2026-04-24T14:31:20.915Z</time></trkpt><trkpt lat="33.9814033" lon="8.1571833"><ele>69.0</ele><time>2026-04-24T14:31:21.915Z</time></trkpt><trkpt lat="33.9811733" lon="8.157125"><ele>69.0</ele><time>2026-04-24T14:31:22.915Z</time></trkpt><trkpt lat="33.9809433" lon="8.1570667"><ele>69.0</ele><time>2026-04-24T14:31:23.914Z</time></trkpt><trkpt lat="33.9807167" lon="8.1570083"><ele>69.0</ele><time>2026-04-24T14:31:24.914Z</time></trkpt><trkpt lat="33.9804817" lon="8.15695"><ele>69.0</ele><time>2026-04-24T14:31:25.915Z</time></trkpt><trkpt lat="33.98025" lon="8.156895"><ele>69.0</ele><time>2026-04-24T14:31:26.915Z</time></trkpt><trkpt lat="33.9800133" lon="8.15684"><ele>69.5</ele><time>2026-04-24T14:31:27.914Z</time></trkpt><trkpt lat="33.9797717" lon="8.156775"><ele>70.0</ele><time>2026-04-24T14:31:28.915Z</time></trkpt><trkpt lat="33.9795367" lon="8.1567167"><ele>70.0</ele><time>2026-04-24T14:31:29.915Z</time></trkpt><trkpt lat="33.9792983" lon="8.156655"><ele>70.0</ele><time>2026-04-24T14:31:30.915Z</time></trkpt><trkpt lat="33.9790533" lon="8.1566"><ele>69.0</ele><time>2026-04-24T14:31:31.915Z</time></trkpt><trkpt lat="33.97881" lon="8.156535"><ele>68.0</ele><time>2026-04-24T14:31:32.915Z</time></trkpt><trkpt lat="33.978565" lon="8.156465"><ele>69.0</ele><time>2026-04-24T14:31:33.915Z</time></trkpt><trkpt lat="33.9783217" lon="8.1564067"><ele>70.0</ele><time>2026-04-24T14:31:34.914Z</time></trkpt><trkpt lat="33.9780783" lon="8.15635"><ele>70.0</ele><time>2026-04-24T14:31:35.915Z</time></trkpt><trkpt lat="33.97784" lon="8.1562883"><ele>70.0</ele><time>2026-04-24T14:31:36.915Z</time></trkpt><trkpt lat="33.9776" lon="8.15623"><ele>69.5</ele><time>2026-04-24T14:31:37.914Z</time></trkpt><trkpt lat="33.9773567" lon="8.1561717"><ele>69.0</ele><time>2026-04-24T14:31:38.915Z</time></trkpt><trkpt lat="33.9771183" lon="8.1561117"><ele>69.0</ele><time>2026-04-24T14:31:39.914Z</time></trkpt><trkpt lat="33.9768783" lon="8.1560583"><ele>69.0</ele><time>2026-04-24T14:31:40.915Z</time></trkpt><trkpt lat="33.97664" lon="8.156"><ele>69.5</ele><time>2026-04-24T14:31:41.915Z</time></trkpt><trkpt lat="33.9764017" lon="8.1559417"><ele>70.0</ele><time>2026-04-24T14:31:42.915Z</time></trkpt><trkpt lat="33.976165" lon="8.1558917"><ele>70.0</ele><time>2026-04-24T14:31:43.914Z</time></trkpt><trkpt lat="33.9759283" lon="8.1558367"><ele>70.0</ele><time>2026-04-24T14:31:44.914Z</time></trkpt><trkpt lat="33.9756883" lon="8.1557783"><ele>69.5</ele><time>2026-04-24T14:31:45.915Z</time></trkpt><trkpt lat="33.975445" lon="8.1557283"><ele>69.0</ele><time>2026-04-24T14:31:46.915Z</time></trkpt><trkpt lat="33.975205" lon="8.1556683"><ele>68.5</ele><time>2026-04-24T14:31:47.915Z</time></trkpt><trkpt lat="33.9749733" lon="8.1556067"><ele>68.0</ele><time>2026-04-24T14:31:48.915Z</time></trkpt><trkpt lat="33.9747367" lon="8.15555"><ele>68.0</ele><time>2026-04-24T14:31:49.915Z</time></trkpt><trkpt lat="33.9745" lon="8.1554917"><ele>68.0</ele><time>2026-04-24T14:31:50.915Z</time></trkpt><trkpt lat="33.9742667" lon="8.15544"><ele>67.0</ele><time>2026-04-24T14:31:51.914Z</time></trkpt><trkpt lat="33.9740417" lon="8.1553783"><ele>66.0</ele><time>2026-04-24T14:31:52.914Z</time></trkpt><trkpt lat="33.973815" lon="8.1553267"><ele>66.0</ele><time>2026-04-24T14:31:53.914Z</time></trkpt><trkpt lat="33.97359" lon="8.1552717"><ele>66.0</ele><time>2026-04-24T14:31:54.915Z</time></trkpt><trkpt lat="33.973365" lon="8.1552117"><ele>67.0</ele><time>2026-04-24T14:31:55.915Z</time></trkpt><trkpt lat="33.973145" lon="8.155155"><ele>68.0</ele><time>2026-04-24T14:31:56.915Z</time></trkpt><trkpt lat="33.9729167" lon="8.1550967"><ele>68.0</ele><time>2026-04-24T14:31:57.914Z</time></trkpt><trkpt lat="33.9726933" lon="8.15504"><ele>68.0</ele><time>2026-04-24T14:31:58.914Z</time></trkpt><trkpt lat="33.9724717" lon="8.15498"><ele>68.33333333333334</ele><time>2026-04-24T14:31:59.915Z</time></trkpt><trkpt lat="33.9722567" lon="8.15492"><ele>68.66666666666667</ele><time>2026-04-24T14:32:00.915Z</time></trkpt><trkpt lat="33.97204" lon="8.154865"><ele>69.0</ele><time>2026-04-24T14:32:01.914Z</time></trkpt><trkpt lat="33.97183" lon="8.1548133"><ele>68.33333333333333</ele><time>2026-04-24T14:32:02.914Z</time></trkpt><trkpt lat="33.971615" lon="8.1547617"><ele>67.66666666666666</ele><time>2026-04-24T14:32:03.915Z</time></trkpt><trkpt lat="33.9713983" lon="8.1547133"><ele>67.0</ele><time>2026-04-24T14:32:04.915Z</time></trkpt><trkpt lat="33.9711867" lon="8.1546683"><ele>67.0</ele><time>2026-04-24T14:32:05.915Z</time></trkpt><trkpt lat="33.9709733" lon="8.1546117"><ele>67.0</ele><time>2026-04-24T14:32:06.915Z</time></trkpt><trkpt lat="33.9707617" lon="8.15456"><ele>67.0</ele><time>2026-04-24T14:32:07.915Z</time></trkpt><trkpt lat="33.9705517" lon="8.1545117"><ele>67.33333333333333</ele><time>2026-04-24T14:32:08.915Z</time></trkpt><trkpt lat="33.9703467" lon="8.1544583"><ele>67.66666666666667</ele><time>2026-04-24T14:32:09.914Z</time></trkpt><trkpt lat="33.970135" lon="8.1544033"><ele>68.0</ele><time>2026-04-24T14:32:10.915Z</time></trkpt><trkpt lat="33.969925" lon="8.15435"><ele>68.66666666666667</ele><time>2026-04-24T14:32:11.915Z</time></trkpt><trkpt lat="33.969715" lon="8.1543017"><ele>69.33333333333333</ele><time>2026-04-24T14:32:12.915Z</time></trkpt><trkpt lat="33.9695" lon="8.154255"><ele>70.0</ele><time>2026-04-24T14:32:13.914Z</time></trkpt><trkpt lat="33.9692867" lon="8.1542033"><ele>70.0</ele><time>2026-04-24T14:32:14.915Z</time></trkpt><trkpt lat="33.9690717" lon="8.1541533"><ele>70.0</ele><time>2026-04-24T14:32:15.915Z</time></trkpt><trkpt lat="33.9688583" lon="8.1541067"><ele>70.0</ele><time>2026-04-24T14:32:16.915Z</time></trkpt><trkpt lat="33.968645" lon="8.1540517"><ele>70.33333333333333</ele><time>2026-04-24T14:32:17.915Z</time></trkpt><trkpt lat="33.9684333" lon="8.154005"><ele>70.66666666666667</ele><time>2026-04-24T14:32:18.914Z</time></trkpt><trkpt lat="33.96822" lon="8.1539533"><ele>71.0</ele><time>2026-04-24T14:32:19.914Z</time></trkpt><trkpt lat="33.9680033" lon="8.1539083"><ele>71.0</ele><time>2026-04-24T14:32:20.915Z</time></trkpt><trkpt lat="33.9677867" lon="8.1538617"><ele>71.0</ele><time>2026-04-24T14:32:21.915Z</time></trkpt><trkpt lat="33.9675733" lon="8.1538"><ele>71.0</ele><time>2026-04-24T14:32:22.915Z</time></trkpt><trkpt lat="33.9673533" lon="8.1537467"><ele>71.0</ele><time>2026-04-24T14:32:23.914Z</time></trkpt><trkpt lat="33.967135" lon="8.153705"><ele>71.0</ele><time>2026-04-24T14:32:24.915Z</time></trkpt><trkpt lat="33.9669183" lon="8.1536533"><ele>71.0</ele><time>2026-04-24T14:32:25.914Z</time></trkpt><trkpt lat="33.9667017" lon="8.1536033"><ele>71.0</ele><time>2026-04-24T14:32:26.915Z</time></trkpt><trkpt lat="33.966485" lon="8.153545"><ele>71.0</ele><time>2026-04-24T14:32:27.915Z</time></trkpt><trkpt lat="33.9662683" lon="8.1534833"><ele>71.0</ele><time>2026-04-24T14:32:28.915Z</time></trkpt><trkpt lat="33.966055" lon="8.1534267"><ele>71.0</ele><time>2026-04-24T14:32:29.915Z</time></trkpt><trkpt lat="33.96584" lon="8.15337"><ele>71.0</ele><time>2026-04-24T14:32:30.915Z</time></trkpt><trkpt lat="33.965625" lon="8.1533133"><ele>71.0</ele><time>2026-04-24T14:32:31.915Z</time></trkpt><trkpt lat="33.9654083" lon="8.1532567"><ele>71.0</ele><time>2026-04-24T14:32:32.915Z</time></trkpt><trkpt lat="33.965185" lon="8.1532067"><ele>71.0</ele><time>2026-04-24T14:32:33.915Z</time></trkpt><trkpt lat="33.9649667" lon="8.1531517"><ele>70.5</ele><time>2026-04-24T14:32:34.915Z</time></trkpt><trkpt lat="33.9647433" lon="8.1530967"><ele>70.0</ele><time>2026-04-24T14:32:35.915Z</time></trkpt><trkpt lat="33.96452" lon="8.1530417"><ele>70.0</ele><time>2026-04-24T14:32:36.915Z</time></trkpt><trkpt lat="33.9642967" lon="8.1529867"><ele>70.0</ele><time>2026-04-24T14:32:37.915Z</time></trkpt><trkpt lat="33.9640783" lon="8.1529333"><ele>70.5</ele><time>2026-04-24T14:32:38.915Z</time></trkpt><trkpt lat="33.9638567" lon="8.15288"><ele>71.0</ele><time>2026-04-24T14:32:39.914Z</time></trkpt><trkpt lat="33.9636283" lon="8.152825"><ele>71.0</ele><time>2026-04-24T14:32:40.915Z</time></trkpt><trkpt lat="33.9634083" lon="8.1527717"><ele>71.0</ele><time>2026-04-24T14:32:41.914Z</time></trkpt><trkpt lat="33.9631817" lon="8.1527133"><ele>72.0</ele><time>2026-04-24T14:32:42.915Z</time></trkpt><trkpt lat="33.9629567" lon="8.1526617"><ele>73.0</ele><time>2026-04-24T14:32:43.915Z</time></trkpt><trkpt lat="33.96273" lon="8.1526067"><ele>72.0</ele><time>2026-04-24T14:32:44.915Z</time></trkpt><trkpt lat="33.962505" lon="8.1525583"><ele>71.0</ele><time>2026-04-24T14:32:45.914Z</time></trkpt><trkpt lat="33.9622733" lon="8.1525033"><ele>71.0</ele><time>2026-04-24T14:32:46.914Z</time></trkpt><trkpt lat="33.962035" lon="8.1524467"><ele>71.0</ele><time>2026-04-24T14:32:47.915Z</time></trkpt><trkpt lat="33.9618" lon="8.1523883"><ele>70.5</ele><time>2026-04-24T14:32:48.915Z</time></trkpt><trkpt lat="33.9615767" lon="8.1523283"><ele>70.0</ele><time>2026-04-24T14:32:49.915Z</time></trkpt><trkpt lat="33.9613467" lon="8.152275"><ele>70.0</ele><time>2026-04-24T14:32:50.915Z</time></trkpt><trkpt lat="33.9611117" lon="8.1522183"><ele>70.0</ele><time>2026-04-24T14:32:51.915Z</time></trkpt><trkpt lat="33.9608783" lon="8.1521567"><ele>69.5</ele><time>2026-04-24T14:32:52.914Z</time></trkpt><trkpt lat="33.96065" lon="8.1520983"><ele>69.0</ele><time>2026-04-24T14:32:53.915Z</time></trkpt><trkpt lat="33.96042" lon="8.1520383"><ele>69.0</ele><time>2026-04-24T14:32:54.915Z</time></trkpt><trkpt lat="33.9601867" lon="8.1519783"><ele>69.0</ele><time>2026-04-24T14:32:55.915Z</time></trkpt><trkpt lat="33.9599517" lon="8.1519267"><ele>69.5</ele><time>2026-04-24T14:32:56.915Z</time></trkpt><trkpt lat="33.9597183" lon="8.1518767"><ele>70.0</ele><time>2026-04-24T14:32:57.915Z</time></trkpt><trkpt lat="33.959485" lon="8.1518167"><ele>70.0</ele><time>2026-04-24T14:32:58.915Z</time></trkpt><trkpt lat="33.9592517" lon="8.1517567"><ele>70.0</ele><time>2026-04-24T14:32:59.915Z</time></trkpt><trkpt lat="33.9590183" lon="8.151695"><ele>70.5</ele><time>2026-04-24T14:33:00.915Z</time></trkpt><trkpt lat="33.9587867" lon="8.1516367"><ele>71.0</ele><time>2026-04-24T14:33:01.915Z</time></trkpt><trkpt lat="33.9585533" lon="8.15158"><ele>69.5</ele><time>2026-04-24T14:33:02.915Z</time></trkpt><trkpt lat="33.9583217" lon="8.15152"><ele>68.0</ele><time>2026-04-24T14:33:03.915Z</time></trkpt><trkpt lat="33.9580967" lon="8.151465"><ele>68.0</ele><time>2026-04-24T14:33:04.914Z</time></trkpt><trkpt lat="33.957865" lon="8.1514067"><ele>68.0</ele><time>2026-04-24T14:33:05.914Z</time></trkpt><trkpt lat="33.9576333" lon="8.1513533"><ele>68.0</ele><time>2026-04-24T14:33:06.914Z</time></trkpt><trkpt lat="33.9573967" lon="8.1513"><ele>68.0</ele><time>2026-04-24T14:33:07.915Z</time></trkpt><trkpt lat="33.9571633" lon="8.1512433"><ele>68.0</ele><time>2026-04-24T14:33:08.915Z</time></trkpt><trkpt lat="33.956935" lon="8.151185"><ele>68.0</ele><time>2026-04-24T14:33:09.915Z</time></trkpt><trkpt lat="33.956715" lon="8.1511333"><ele>68.66666666666667</ele><time>2026-04-24T14:33:10.915Z</time></trkpt><trkpt lat="33.9564967" lon="8.1510867"><ele>69.33333333333333</ele><time>2026-04-24T14:33:11.915Z</time></trkpt><trkpt lat="33.956285" lon="8.151035"><ele>70.0</ele><time>2026-04-24T14:33:12.915Z</time></trkpt><trkpt lat="33.9560783" lon="8.1509817"><ele>70.0</ele><time>2026-04-24T14:33:13.915Z</time></trkpt><trkpt lat="33.9558767" lon="8.1509333"><ele>70.0</ele><time>2026-04-24T14:33:14.915Z</time></trkpt><trkpt lat="33.9556817" lon="8.1508817"><ele>70.0</ele><time>2026-04-24T14:33:15.914Z</time></trkpt><trkpt lat="33.9554933" lon="8.150835"><ele>70.0</ele><time>2026-04-24T14:33:16.914Z</time></trkpt><trkpt lat="33.9553083" lon="8.150785"><ele>70.0</ele><time>2026-04-24T14:33:17.914Z</time></trkpt><trkpt lat="33.9551167" lon="8.150745"><ele>70.0</ele><time>2026-04-24T14:33:18.915Z</time></trkpt><trkpt lat="33.9549283" lon="8.1507033"><ele>70.0</ele><time>2026-04-24T14:33:19.914Z</time></trkpt><trkpt lat="33.9547483" lon="8.150665"><ele>70.0</ele><time>2026-04-24T14:33:20.914Z</time></trkpt><trkpt lat="33.954575" lon="8.1506183"><ele>70.0</ele><time>2026-04-24T14:33:21.915Z</time></trkpt><trkpt lat="33.9543983" lon="8.1505733"><ele>70.0</ele><time>2026-04-24T14:33:22.915Z</time></trkpt><trkpt lat="33.9542233" lon="8.1505317"><ele>70.0</ele><time>2026-04-24T14:33:23.914Z</time></trkpt><trkpt lat="33.9540517" lon="8.1504967"><ele>70.0</ele><time>2026-04-24T14:33:24.915Z</time></trkpt><trkpt lat="33.95388" lon="8.1504567"><ele>70.33333333333333</ele><time>2026-04-24T14:33:25.914Z</time></trkpt><trkpt lat="33.9537117" lon="8.150415"><ele>70.66666666666667</ele><time>2026-04-24T14:33:26.915Z</time></trkpt><trkpt lat="33.9535433" lon="8.1503717"><ele>71.0</ele><time>2026-04-24T14:33:27.915Z</time></trkpt><trkpt lat="33.9533867" lon="8.15033"><ele>72.33333333333334</ele><time>2026-04-24T14:33:28.915Z</time></trkpt><trkpt lat="33.9532383" lon="8.15029"><ele>73.66666666666667</ele><time>2026-04-24T14:33:29.914Z</time></trkpt><trkpt lat="33.95309" lon="8.1502467"><ele>75.0</ele><time>2026-04-24T14:33:30.915Z</time></trkpt><trkpt lat="33.9529467" lon="8.1502083"><ele>75.0</ele><time>2026-04-24T14:33:31.915Z</time></trkpt><trkpt lat="33.9528" lon="8.15017"><ele>75.0</ele><time>2026-04-24T14:33:32.915Z</time></trkpt><trkpt lat="33.9526567" lon="8.1501367"><ele>75.0</ele><time>2026-04-24T14:33:33.914Z</time></trkpt><trkpt lat="33.952515" lon="8.1501133"><ele>75.0</ele><time>2026-04-24T14:33:34.914Z</time></trkpt><trkpt lat="33.9523883" lon="8.15008"><ele>75.0</ele><time>2026-04-24T14:33:35.915Z</time></trkpt><trkpt lat="33.95227" lon="8.1500517"><ele>75.0</ele><time>2026-04-24T14:33:36.915Z</time></trkpt><trkpt lat="33.952155" lon="8.1500317"><ele>75.0</ele><time>2026-04-24T14:33:37.915Z</time></trkpt><trkpt lat="33.9520567" lon="8.1500033"><ele>75.0</ele><time>2026-04-24T14:33:38.915Z</time></trkpt><trkpt lat="33.9519633" lon="8.1499767"><ele>75.0</ele><time>2026-04-24T14:33:39.915Z</time></trkpt><trkpt lat="33.951865" lon="8.1499533"><ele>75.0</ele><time>2026-04-24T14:33:40.915Z</time></trkpt><trkpt lat="33.9517667" lon="8.1499233"><ele>75.0</ele><time>2026-04-24T14:33:41.915Z</time></trkpt><trkpt lat="33.9516633" lon="8.1498917"><ele>75.0</ele><time>2026-04-24T14:33:42.914Z</time></trkpt><trkpt lat="33.9515583" lon="8.1498583"><ele>75.0</ele><time>2026-04-24T14:33:43.914Z</time></trkpt><trkpt lat="33.951455" lon="8.1498333"><ele>75.0</ele><time>2026-04-24T14:33:44.915Z</time></trkpt><trkpt lat="33.95136" lon="8.149805"><ele>75.5</ele><time>2026-04-24T14:33:45.915Z</time></trkpt><trkpt lat="33.9512717" lon="8.1497767"><ele>76.0</ele><time>2026-04-24T14:33:46.915Z</time></trkpt><trkpt lat="33.95119" lon="8.1497517"><ele>76.5</ele><time>2026-04-24T14:33:47.915Z</time></trkpt><trkpt lat="33.9511117" lon="8.1497267"><ele>77.0</ele><time>2026-04-24T14:33:48.915Z</time></trkpt><trkpt lat="33.9510333" lon="8.149705"><ele>77.5</ele><time>2026-04-24T14:33:49.914Z</time></trkpt><trkpt lat="33.95096" lon="8.1496833"><ele>78.0</ele><time>2026-04-24T14:33:50.915Z</time></trkpt><trkpt lat="33.95089" lon="8.14966"><ele>78.16666666666667</ele><time>2026-04-24T14:33:51.915Z</time></trkpt><trkpt lat="33.9508267" lon="8.1496367"><ele>78.33333333333333</ele><time>2026-04-24T14:33:52.914Z</time></trkpt><trkpt lat="33.950715" lon="8.1495917"><ele>78.5</ele><time>2026-04-24T14:33:54.915Z</time></trkpt><trkpt lat="33.9506283" lon="8.1495533"><ele>78.66666666666666</ele><time>2026-04-24T14:33:56.915Z</time></trkpt><trkpt lat="33.9505533" lon="8.1495133"><ele>78.83333333333333</ele><time>2026-04-24T14:33:58.914Z</time></trkpt><trkpt lat="33.9504783" lon="8.149465"><ele>79.0</ele><time>2026-04-24T14:34:00.915Z</time></trkpt><trkpt lat="33.9503833" lon="8.1493767"><ele>79.0</ele><time>2026-04-24T14:34:02.915Z</time></trkpt><trkpt lat="33.9503083" lon="8.1493233"><ele>79.0</ele><time>2026-04-24T14:34:03.915Z</time></trkpt><trkpt lat="33.9502367" lon="8.1492817"><ele>79.0</ele><time>2026-04-24T14:34:04.914Z</time></trkpt><trkpt lat="33.950165" lon="8.1492483"><ele>79.0</ele><time>2026-04-24T14:34:05.914Z</time></trkpt><trkpt lat="33.9500867" lon="8.1492467"><ele>79.0</ele><time>2026-04-24T14:34:06.915Z</time></trkpt><trkpt lat="33.9499967" lon="8.1492533"><ele>79.0</ele><time>2026-04-24T14:34:07.915Z</time></trkpt><trkpt lat="33.9499017" lon="8.1492633"><ele>79.0</ele><time>2026-04-24T14:34:08.915Z</time></trkpt><trkpt lat="33.9497883" lon="8.14926"><ele>79.0</ele><time>2026-04-24T14:34:09.915Z</time></trkpt><trkpt lat="33.9496617" lon="8.1492417"><ele>79.0</ele><time>2026-04-24T14:34:10.915Z</time></trkpt><trkpt lat="33.9495333" lon="8.1492117"><ele>79.0</ele><time>2026-04-24T14:34:11.914Z</time></trkpt><trkpt lat="33.949405" lon="8.1491783"><ele>79.0</ele><time>2026-04-24T14:34:12.915Z</time></trkpt><trkpt lat="33.9492783" lon="8.1491367"><ele>79.0</ele><time>2026-04-24T14:34:13.915Z</time></trkpt><trkpt lat="33.9491433" lon="8.1490983"><ele>79.0</ele><time>2026-04-24T14:34:14.914Z</time></trkpt><trkpt lat="33.9489983" lon="8.1490467"><ele>79.0</ele><time>2026-04-24T14:34:15.915Z</time></trkpt><trkpt lat="33.9488533" lon="8.1489967"><ele>78.66666666666666</ele><time>2026-04-24T14:34:16.915Z</time></trkpt><trkpt lat="33.948705" lon="8.14894"><ele>78.33333333333333</ele><time>2026-04-24T14:34:17.915Z</time></trkpt><trkpt lat="33.9485517" lon="8.1488917"><ele>78.0</ele><time>2026-04-24T14:34:18.914Z</time></trkpt><trkpt lat="33.9483917" lon="8.1488367"><ele>79.33333333333333</ele><time>2026-04-24T14:34:19.915Z</time></trkpt><trkpt lat="33.94824" lon="8.14878"><ele>80.66666666666666</ele><time>2026-04-24T14:34:20.914Z</time></trkpt><trkpt lat="33.9480783" lon="8.1487267"><ele>82.0</ele><time>2026-04-24T14:34:21.914Z</time></trkpt><trkpt lat="33.9479233" lon="8.14867"><ele>82.0</ele><time>2026-04-24T14:34:22.914Z</time></trkpt><trkpt lat="33.947765" lon="8.1485967"><ele>82.0</ele><time>2026-04-24T14:34:23.915Z</time></trkpt><trkpt lat="33.947605" lon="8.1485217"><ele>82.0</ele><time>2026-04-24T14:34:24.914Z</time></trkpt><trkpt lat="33.9474467" lon="8.148435"><ele>81.66666666666666</ele><time>2026-04-24T14:34:25.913Z</time></trkpt><trkpt lat="33.94729" lon="8.1483517"><ele>81.33333333333333</ele><time>2026-04-24T14:34:26.914Z</time></trkpt><trkpt lat="33.947135" lon="8.1482533"><ele>81.0</ele><time>2026-04-24T14:34:27.913Z</time></trkpt><trkpt lat="33.9469817" lon="8.14815"><ele>80.66666666666667</ele><time>2026-04-24T14:34:28.913Z</time></trkpt><trkpt lat="33.9468333" lon="8.1480417"><ele>80.33333333333334</ele><time>2026-04-24T14:34:29.914Z</time></trkpt><trkpt lat="33.9466817" lon="8.147935"><ele>80.0</ele><time>2026-04-24T14:34:30.913Z</time></trkpt><trkpt lat="33.9465317" lon="8.1478283"><ele>81.0</ele><time>2026-04-24T14:34:31.914Z</time></trkpt><trkpt lat="33.94637" lon="8.1477183"><ele>82.0</ele><time>2026-04-24T14:34:32.914Z</time></trkpt><trkpt lat="33.9462117" lon="8.1476133"><ele>83.0</ele><time>2026-04-24T14:34:33.914Z</time></trkpt><trkpt lat="33.9460483" lon="8.1474983"><ele>83.0</ele><time>2026-04-24T14:34:34.913Z</time></trkpt><trkpt lat="33.945875" lon="8.1473917"><ele>83.0</ele><time>2026-04-24T14:34:35.914Z</time></trkpt><trkpt lat="33.9457" lon="8.1472783"><ele>83.0</ele><time>2026-04-24T14:34:36.914Z</time></trkpt><trkpt lat="33.94553" lon="8.1471633"><ele>83.33333333333334</ele><time>2026-04-24T14:34:37.914Z</time></trkpt><trkpt lat="33.9453617" lon="8.1470367"><ele>83.66666666666667</ele><time>2026-04-24T14:34:38.914Z</time></trkpt><trkpt lat="33.94519" lon="8.1469133"><ele>84.0</ele><time>2026-04-24T14:34:39.914Z</time></trkpt><trkpt lat="33.945005" lon="8.146795"><ele>83.33333333333333</ele><time>2026-04-24T14:34:40.914Z</time></trkpt><trkpt lat="33.94483" lon="8.14667"><ele>82.66666666666666</ele><time>2026-04-24T14:34:41.914Z</time></trkpt><trkpt lat="33.9446517" lon="8.1465467"><ele>82.0</ele><time>2026-04-24T14:34:42.913Z</time></trkpt><trkpt lat="33.9444667" lon="8.14642"><ele>82.0</ele><time>2026-04-24T14:34:43.914Z</time></trkpt><trkpt lat="33.9442883" lon="8.1462867"><ele>82.0</ele><time>2026-04-24T14:34:44.914Z</time></trkpt><trkpt lat="33.944105" lon="8.14616"><ele>82.0</ele><time>2026-04-24T14:34:45.914Z</time></trkpt><trkpt lat="33.9439133" lon="8.1460417"><ele>82.33333333333333</ele><time>2026-04-24T14:34:46.914Z</time></trkpt><trkpt lat="33.943735" lon="8.1459183"><ele>82.66666666666667</ele><time>2026-04-24T14:34:47.913Z</time></trkpt><trkpt lat="33.94355" lon="8.1457917"><ele>83.0</ele><time>2026-04-24T14:34:48.914Z</time></trkpt><trkpt lat="33.9433767" lon="8.1456733"><ele>82.33333333333334</ele><time>2026-04-24T14:34:49.914Z</time></trkpt><trkpt lat="33.9432" lon="8.1455533"><ele>81.66666666666667</ele><time>2026-04-24T14:34:50.913Z</time></trkpt><trkpt lat="33.9430267" lon="8.145435"><ele>81.0</ele><time>2026-04-24T14:34:51.913Z</time></trkpt><trkpt lat="33.9428533" lon="8.14532"><ele>81.0</ele><time>2026-04-24T14:34:52.913Z</time></trkpt><trkpt lat="33.9426883" lon="8.1451933"><ele>81.0</ele><time>2026-04-24T14:34:53.914Z</time></trkpt><trkpt lat="33.942525" lon="8.14508"><ele>81.0</ele><time>2026-04-24T14:34:54.914Z</time></trkpt><trkpt lat="33.942365" lon="8.1449717"><ele>81.33333333333333</ele><time>2026-04-24T14:34:55.913Z</time></trkpt><trkpt lat="33.94222" lon="8.1448533"><ele>81.66666666666666</ele><time>2026-04-24T14:34:56.914Z</time></trkpt><trkpt lat="33.9420683" lon="8.144735"><ele>82.0</ele><time>2026-04-24T14:34:57.913Z</time></trkpt><trkpt lat="33.941915" lon="8.144625"><ele>82.0</ele><time>2026-04-24T14:34:58.913Z</time></trkpt><trkpt lat="33.9417567" lon="8.144525"><ele>82.0</ele><time>2026-04-24T14:34:59.914Z</time></trkpt><trkpt lat="33.9416017" lon="8.1444283"><ele>82.0</ele><time>2026-04-24T14:35:00.913Z</time></trkpt><trkpt lat="33.94146" lon="8.1443317"><ele>82.0</ele><time>2026-04-24T14:35:01.913Z</time></trkpt><trkpt lat="33.94132" lon="8.1442367"><ele>82.0</ele><time>2026-04-24T14:35:02.914Z</time></trkpt><trkpt lat="33.9411833" lon="8.1441433"><ele>82.0</ele><time>2026-04-24T14:35:03.914Z</time></trkpt><trkpt lat="33.9410483" lon="8.1440583"><ele>82.0</ele><time>2026-04-24T14:35:04.914Z</time></trkpt><trkpt lat="33.94092" lon="8.1439683"><ele>82.0</ele><time>2026-04-24T14:35:05.914Z</time></trkpt><trkpt lat="33.940795" lon="8.1438833"><ele>82.0</ele><time>2026-04-24T14:35:06.914Z</time></trkpt><trkpt lat="33.9406717" lon="8.143795"><ele>82.0</ele><time>2026-04-24T14:35:07.914Z</time></trkpt><trkpt lat="33.9405533" lon="8.1437133"><ele>82.0</ele><time>2026-04-24T14:35:08.914Z</time></trkpt><trkpt lat="33.940435" lon="8.1436317"><ele>82.0</ele><time>2026-04-24T14:35:09.913Z</time></trkpt><trkpt lat="33.9403167" lon="8.14355"><ele>82.0</ele><time>2026-04-24T14:35:10.914Z</time></trkpt><trkpt lat="33.9402033" lon="8.1434733"><ele>82.0</ele><time>2026-04-24T14:35:11.913Z</time></trkpt><trkpt lat="33.94008" lon="8.1434017"><ele>81.25</ele><time>2026-04-24T14:35:12.914Z</time></trkpt><trkpt lat="33.9399567" lon="8.143325"><ele>80.5</ele><time>2026-04-24T14:35:13.914Z</time></trkpt><trkpt lat="33.9398417" lon="8.14325"><ele>79.75</ele><time>2026-04-24T14:35:14.913Z</time></trkpt><trkpt lat="33.9397383" lon="8.1431767"><ele>79.0</ele><time>2026-04-24T14:35:15.914Z</time></trkpt><trkpt lat="33.939635" lon="8.1431117"><ele>78.8</ele><time>2026-04-24T14:35:16.914Z</time></trkpt><trkpt lat="33.939535" lon="8.1430417"><ele>78.60000000000001</ele><time>2026-04-24T14:35:17.914Z</time></trkpt><trkpt lat="33.9394383" lon="8.142975"><ele>78.4</ele><time>2026-04-24T14:35:18.913Z</time></trkpt><trkpt lat="33.939335" lon="8.1429167"><ele>78.2</ele><time>2026-04-24T14:35:19.914Z</time></trkpt><trkpt lat="33.9392383" lon="8.1428583"><ele>78.0</ele><time>2026-04-24T14:35:20.914Z</time></trkpt><trkpt lat="33.939155" lon="8.1427967"><ele>77.6</ele><time>2026-04-24T14:35:21.913Z</time></trkpt><trkpt lat="33.9390717" lon="8.142735"><ele>77.19999999999999</ele><time>2026-04-24T14:35:22.914Z</time></trkpt><trkpt lat="33.938995" lon="8.1426733"><ele>76.8</ele><time>2026-04-24T14:35:23.914Z</time></trkpt><trkpt lat="33.93892" lon="8.142625"><ele>76.39999999999999</ele><time>2026-04-24T14:35:24.913Z</time></trkpt><trkpt lat="33.9388567" lon="8.1425767"><ele>76.0</ele><time>2026-04-24T14:35:25.914Z</time></trkpt><trkpt lat="33.938755" lon="8.1425067"><ele>76.0</ele><time>2026-04-24T14:35:27.914Z</time></trkpt><trkpt lat="33.9386667" lon="8.1424483"><ele>76.0</ele><time>2026-04-24T14:35:29.914Z</time></trkpt><trkpt lat="33.9385867" lon="8.1423867"><ele>76.0</ele><time>2026-04-24T14:35:31.914Z</time></trkpt><trkpt lat="33.93851" lon="8.14235"><ele>76.0</ele><time>2026-04-24T14:35:34.914Z</time></trkpt><trkpt lat="33.9384533" lon="8.1423067"><ele>76.0</ele><time>2026-04-24T14:35:36.914Z</time></trkpt><trkpt lat="33.938365" lon="8.1422233"><ele>75.83333333333333</ele><time>2026-04-24T14:35:38.913Z</time></trkpt><trkpt lat="33.93831" lon="8.1421767"><ele>75.66666666666666</ele><time>2026-04-24T14:35:39.914Z</time></trkpt><trkpt lat="33.93824" lon="8.1421217"><ele>75.5</ele><time>2026-04-24T14:35:40.914Z</time></trkpt><trkpt lat="33.93816" lon="8.1420667"><ele>75.33333333333333</ele><time>2026-04-24T14:35:41.914Z</time></trkpt><trkpt lat="33.9380833" lon="8.14202"><ele>75.16666666666667</ele><time>2026-04-24T14:35:42.914Z</time></trkpt><trkpt lat="33.938005" lon="8.1419733"><ele>75.0</ele><time>2026-04-24T14:35:43.914Z</time></trkpt><trkpt lat="33.9379183" lon="8.1419217"><ele>75.0</ele><time>2026-04-24T14:35:44.913Z</time></trkpt><trkpt lat="33.9378283" lon="8.14186"><ele>75.0</ele><time>2026-04-24T14:35:45.914Z</time></trkpt><trkpt lat="33.9377483" lon="8.1418033"><ele>75.0</ele><time>2026-04-24T14:35:46.914Z</time></trkpt><trkpt lat="33.9376617" lon="8.1417517"><ele>75.0</ele><time>2026-04-24T14:35:47.913Z</time></trkpt><trkpt lat="33.937575" lon="8.1417"><ele>75.0</ele><time>2026-04-24T14:35:48.913Z</time></trkpt><trkpt lat="33.9374933" lon="8.1416567"><ele>74.83333333333333</ele><time>2026-04-24T14:35:49.913Z</time></trkpt><trkpt lat="33.9374133" lon="8.1416083"><ele>74.66666666666667</ele><time>2026-04-24T14:35:50.914Z</time></trkpt><trkpt lat="33.9373433" lon="8.1415683"><ele>74.5</ele><time>2026-04-24T14:35:51.914Z</time></trkpt><trkpt lat="33.937245" lon="8.141515"><ele>74.33333333333334</ele><time>2026-04-24T14:35:53.913Z</time></trkpt><trkpt lat="33.93716" lon="8.1415067"><ele>74.16666666666667</ele><time>2026-04-24T14:35:55.914Z</time></trkpt><trkpt lat="33.9371067" lon="8.1415717"><ele>74.0</ele><time>2026-04-24T14:35:57.914Z</time></trkpt><trkpt lat="33.9370433" lon="8.1416183"><ele>74.0</ele><time>2026-04-24T14:36:00.914Z</time></trkpt><trkpt lat="33.9369667" lon="8.1415867"><ele>74.0</ele><time>2026-04-24T14:36:11.913Z</time></trkpt><trkpt lat="33.936915" lon="8.1415217"><ele>74.0</ele><time>2026-04-24T14:36:13.914Z</time></trkpt><trkpt lat="33.936895" lon="8.14143"><ele>74.0</ele><time>2026-04-24T14:36:16.914Z</time></trkpt><trkpt lat="33.9368667" lon="8.1413617"><ele>74.0</ele><time>2026-04-24T14:36:19.913Z</time></trkpt><trkpt lat="33.9367883" lon="8.1413217"><ele>74.0</ele><time>2026-04-24T14:36:22.914Z</time></trkpt><trkpt lat="33.9366967" lon="8.1412567"><ele>73.60000000000001</ele><time>2026-04-24T14:36:24.914Z</time></trkpt><trkpt lat="33.9366317" lon="8.1412117"><ele>73.2</ele><time>2026-04-24T14:36:25.914Z</time></trkpt><trkpt lat="33.93656" lon="8.14116"><ele>72.80000000000001</ele><time>2026-04-24T14:36:26.914Z</time></trkpt><trkpt lat="33.9364667" lon="8.1411183"><ele>72.4</ele><time>2026-04-24T14:36:27.914Z</time></trkpt><trkpt lat="33.9363733" lon="8.1410733"><ele>72.0</ele><time>2026-04-24T14:36:28.914Z</time></trkpt><trkpt lat="33.9362683" lon="8.141035"><ele>72.0</ele><time>2026-04-24T14:36:29.914Z</time></trkpt><trkpt lat="33.9361633" lon="8.1410017"><ele>72.0</ele><time>2026-04-24T14:36:30.914Z</time></trkpt><trkpt lat="33.9360567" lon="8.1409617"><ele>72.0</ele><time>2026-04-24T14:36:31.914Z</time></trkpt><trkpt lat="33.93596" lon="8.14092"><ele>72.0</ele><time>2026-04-24T14:36:32.913Z</time></trkpt><trkpt lat="33.9358617" lon="8.140885"><ele>72.0</ele><time>2026-04-24T14:36:33.914Z</time></trkpt><trkpt lat="33.9357633" lon="8.1408467"><ele>71.4</ele><time>2026-04-24T14:36:34.914Z</time></trkpt><trkpt lat="33.9356617" lon="8.140815"><ele>70.80000000000001</ele><time>2026-04-24T14:36:35.914Z</time></trkpt><trkpt lat="33.935555" lon="8.1407783"><ele>70.2</ele><time>2026-04-24T14:36:36.914Z</time></trkpt><trkpt lat="33.9354617" lon="8.1407467"><ele>69.60000000000001</ele><time>2026-04-24T14:36:37.913Z</time></trkpt><trkpt lat="33.935375" lon="8.1407117"><ele>69.0</ele><time>2026-04-24T14:36:38.913Z</time></trkpt><trkpt lat="33.9352867" lon="8.1406783"><ele>69.0</ele><time>2026-04-24T14:36:39.914Z</time></trkpt><trkpt lat="33.93519" lon="8.14064"><ele>69.0</ele><time>2026-04-24T14:36:40.914Z</time></trkpt><trkpt lat="33.93509" lon="8.1405967"><ele>69.0</ele><time>2026-04-24T14:36:41.914Z</time></trkpt><trkpt lat="33.9349817" lon="8.1405567"><ele>69.0</ele><time>2026-04-24T14:36:42.914Z</time></trkpt><trkpt lat="33.9348667" lon="8.14051"><ele>69.0</ele><time>2026-04-24T14:36:43.913Z</time></trkpt><trkpt lat="33.9347517" lon="8.140455"><ele>68.25</ele><time>2026-04-24T14:36:44.914Z</time></trkpt><trkpt lat="33.9346333" lon="8.1404033"><ele>67.5</ele><time>2026-04-24T14:36:45.913Z</time></trkpt><trkpt lat="33.9345083" lon="8.1403533"><ele>66.75</ele><time>2026-04-24T14:36:46.913Z</time></trkpt><trkpt lat="33.9343767" lon="8.1403083"><ele>66.0</ele><time>2026-04-24T14:36:47.914Z</time></trkpt><trkpt lat="33.9342517" lon="8.1402567"><ele>65.0</ele><time>2026-04-24T14:36:48.914Z</time></trkpt><trkpt lat="33.9341233" lon="8.1402083"><ele>64.0</ele><time>2026-04-24T14:36:49.913Z</time></trkpt><trkpt lat="33.9339967" lon="8.1401483"><ele>63.0</ele><time>2026-04-24T14:36:50.914Z</time></trkpt><trkpt lat="33.9338667" lon="8.1400883"><ele>62.0</ele><time>2026-04-24T14:36:51.914Z</time></trkpt><trkpt lat="33.9337367" lon="8.1400317"><ele>62.0</ele><time>2026-04-24T14:36:52.914Z</time></trkpt><trkpt lat="33.9336033" lon="8.139975"><ele>62.0</ele><time>2026-04-24T14:36:53.914Z</time></trkpt><trkpt lat="33.9334667" lon="8.13992"><ele>62.0</ele><time>2026-04-24T14:36:54.913Z</time></trkpt><trkpt lat="33.9333317" lon="8.1398667"><ele>62.0</ele><time>2026-04-24T14:36:55.914Z</time></trkpt><trkpt lat="33.9332017" lon="8.139815"><ele>61.5</ele><time>2026-04-24T14:36:56.913Z</time></trkpt><trkpt lat="33.9330767" lon="8.1397633"><ele>61.0</ele><time>2026-04-24T14:36:57.914Z</time></trkpt><trkpt lat="33.93296" lon="8.1397183"><ele>60.5</ele><time>2026-04-24T14:36:58.914Z</time></trkpt><trkpt lat="33.9328533" lon="8.13967"><ele>60.0</ele><time>2026-04-24T14:36:59.913Z</time></trkpt><trkpt lat="33.9327583" lon="8.13963"><ele>60.0</ele><time>2026-04-24T14:37:00.914Z</time></trkpt><trkpt lat="33.9326717" lon="8.13958"><ele>60.0</ele><time>2026-04-24T14:37:01.914Z</time></trkpt><trkpt lat="33.9325717" lon="8.139535"><ele>60.0</ele><time>2026-04-24T14:37:02.913Z</time></trkpt><trkpt lat="33.93247" lon="8.1394917"><ele>60.0</ele><time>2026-04-24T14:37:03.914Z</time></trkpt><trkpt lat="33.9323733" lon="8.1394517"><ele>60.0</ele><time>2026-04-24T14:37:04.914Z</time></trkpt><trkpt lat="33.9322833" lon="8.1394033"><ele>58.833333333333336</ele><time>2026-04-24T14:37:05.914Z</time></trkpt><trkpt lat="33.9321933" lon="8.1393683"><ele>57.66666666666667</ele><time>2026-04-24T14:37:06.913Z</time></trkpt><trkpt lat="33.9321033" lon="8.1393417"><ele>56.5</ele><time>2026-04-24T14:37:07.914Z</time></trkpt><trkpt lat="33.9320417" lon="8.1393133"><ele>55.333333333333336</ele><time>2026-04-24T14:37:08.914Z</time></trkpt><trkpt lat="33.9319783" lon="8.1392983"><ele>54.16666666666667</ele><time>2026-04-24T14:37:09.913Z</time></trkpt><trkpt lat="33.93192" lon="8.1392683"><ele>53.0</ele><time>2026-04-24T14:37:10.914Z</time></trkpt><trkpt lat="33.9318533" lon="8.1392433"><ele>53.00000000000001</ele><time>2026-04-24T14:37:11.914Z</time></trkpt><trkpt lat="33.931785" lon="8.139215"><ele>53.0</ele><time>2026-04-24T14:37:12.913Z</time></trkpt><trkpt lat="33.9316983" lon="8.1391933"><ele>53.0</ele><time>2026-04-24T14:37:13.914Z</time></trkpt><trkpt lat="33.9316167" lon="8.1391717"><ele>53.0</ele><time>2026-04-24T14:37:14.913Z</time></trkpt><trkpt lat="33.9315317" lon="8.1391433"><ele>53.00000000000001</ele><time>2026-04-24T14:37:15.913Z</time></trkpt><trkpt lat="33.9314367" lon="8.139105"><ele>53.0</ele><time>2026-04-24T14:37:16.914Z</time></trkpt><trkpt lat="33.9313317" lon="8.13908"><ele>52.4</ele><time>2026-04-24T14:37:17.913Z</time></trkpt><trkpt lat="33.931225" lon="8.13904"><ele>51.8</ele><time>2026-04-24T14:37:18.913Z</time></trkpt><trkpt lat="33.9311317" lon="8.1390033"><ele>51.2</ele><time>2026-04-24T14:37:19.914Z</time></trkpt><trkpt lat="33.9310467" lon="8.138965"><ele>50.6</ele><time>2026-04-24T14:37:20.914Z</time></trkpt><trkpt lat="33.9309667" lon="8.1389267"><ele>50.0</ele><time>2026-04-24T14:37:21.914Z</time></trkpt><trkpt lat="33.930885" lon="8.13889"><ele>49.4</ele><time>2026-04-24T14:37:22.914Z</time></trkpt><trkpt lat="33.930795" lon="8.13885"><ele>48.8</ele><time>2026-04-24T14:37:23.914Z</time></trkpt><trkpt lat="33.930705" lon="8.1388133"><ele>48.2</ele><time>2026-04-24T14:37:24.914Z</time></trkpt><trkpt lat="33.930615" lon="8.1387733"><ele>47.6</ele><time>2026-04-24T14:37:25.914Z</time></trkpt><trkpt lat="33.9305217" lon="8.13873"><ele>47.0</ele><time>2026-04-24T14:37:26.914Z</time></trkpt><trkpt lat="33.9304217" lon="8.1386867"><ele>47.0</ele><time>2026-04-24T14:37:27.914Z</time></trkpt><trkpt lat="33.93032" lon="8.1386417"><ele>47.0</ele><time>2026-04-24T14:37:28.914Z</time></trkpt><trkpt lat="33.9302183" lon="8.1386"><ele>47.0</ele><time>2026-04-24T14:37:29.914Z</time></trkpt><trkpt lat="33.9301217" lon="8.1385567"><ele>47.0</ele><time>2026-04-24T14:37:30.914Z</time></trkpt><trkpt lat="33.93003" lon="8.1385083"><ele>47.0</ele><time>2026-04-24T14:37:31.914Z</time></trkpt><trkpt lat="33.929935" lon="8.1384683"><ele>47.0</ele><time>2026-04-24T14:37:32.914Z</time></trkpt><trkpt lat="33.92985" lon="8.1384217"><ele>47.0</ele><time>2026-04-24T14:37:33.914Z</time></trkpt><trkpt lat="33.9297717" lon="8.1383733"><ele>47.0</ele><time>2026-04-24T14:37:34.913Z</time></trkpt><trkpt lat="33.9296967" lon="8.1383383"><ele>47.0</ele><time>2026-04-24T14:37:35.914Z</time></trkpt><trkpt lat="33.9296233" lon="8.1383133"><ele>47.0</ele><time>2026-04-24T14:37:36.914Z</time></trkpt><trkpt lat="33.9295583" lon="8.138295"><ele>47.0</ele><time>2026-04-24T14:37:37.914Z</time></trkpt><trkpt lat="33.929445" lon="8.1382633"><ele>47.0</ele><time>2026-04-24T14:37:39.914Z</time></trkpt><trkpt lat="33.9293217" lon="8.13823"><ele>47.0</ele><time>2026-04-24T14:37:41.914Z</time></trkpt><trkpt lat="33.9292483" lon="8.1382133"><ele>47.0</ele><time>2026-04-24T14:37:42.914Z</time></trkpt><trkpt lat="33.929165" lon="8.1382067"><ele>47.0</ele><time>2026-04-24T14:37:43.914Z</time></trkpt><trkpt lat="33.9290833" lon="8.138205"><ele>47.0</ele><time>2026-04-24T14:37:44.913Z</time></trkpt><trkpt lat="33.92901" lon="8.1382017"><ele>47.0</ele><time>2026-04-24T14:37:45.914Z</time></trkpt><trkpt lat="33.9289467" lon="8.1381983"><ele>46.8</ele><time>2026-04-24T14:37:46.914Z</time></trkpt><trkpt lat="33.9288333" lon="8.1382017"><ele>46.6</ele><time>2026-04-24T14:37:48.914Z</time></trkpt><trkpt lat="33.9287017" lon="8.1382"><ele>46.4</ele><time>2026-04-24T14:37:50.913Z</time></trkpt><trkpt lat="33.9286283" lon="8.13819"><ele>46.199999999999996</ele><time>2026-04-24T14:37:51.914Z</time></trkpt><trkpt lat="33.9285533" lon="8.13818"><ele>46.0</ele><time>2026-04-24T14:37:52.914Z</time></trkpt><trkpt lat="33.92848" lon="8.1381767"><ele>46.0</ele><time>2026-04-24T14:37:53.914Z</time></trkpt><trkpt lat="33.9284117" lon="8.13818"><ele>46.0</ele><time>2026-04-24T14:37:54.913Z</time></trkpt><trkpt lat="33.928345" lon="8.1381817"><ele>46.0</ele><time>2026-04-24T14:37:55.914Z</time></trkpt><trkpt lat="33.92828" lon="8.1381767"><ele>46.0</ele><time>2026-04-24T14:37:56.914Z</time></trkpt><trkpt lat="33.928215" lon="8.1381717"><ele>46.0</ele><time>2026-04-24T14:37:57.914Z</time></trkpt><trkpt lat="33.9281367" lon="8.138175"><ele>46.0</ele><time>2026-04-24T14:37:58.914Z</time></trkpt><trkpt lat="33.9280667" lon="8.1381767"><ele>46.0</ele><time>2026-04-24T14:37:59.914Z</time></trkpt><trkpt lat="33.9279933" lon="8.1381817"><ele>46.0</ele><time>2026-04-24T14:38:00.914Z</time></trkpt><trkpt lat="33.9279267" lon="8.1381817"><ele>46.0</ele><time>2026-04-24T14:38:01.914Z</time></trkpt><trkpt lat="33.9278617" lon="8.13818"><ele>46.0</ele><time>2026-04-24T14:38:02.913Z</time></trkpt><trkpt lat="33.9277467" lon="8.1381683"><ele>46.0</ele><time>2026-04-24T14:38:04.914Z</time></trkpt><trkpt lat="33.9276433" lon="8.1381667"><ele>46.0</ele><time>2026-04-24T14:38:06.914Z</time></trkpt><trkpt lat="33.92757" lon="8.1381717"><ele>46.0</ele><time>2026-04-24T14:38:08.913Z</time></trkpt><trkpt lat="33.927505" lon="8.1381733"><ele>46.0</ele><time>2026-04-24T14:38:30.913Z</time></trkpt><trkpt lat="33.9274117" lon="8.1381417"><ele>46.0</ele><time>2026-04-24T14:38:41.913Z</time></trkpt><trkpt lat="33.9273333" lon="8.138115"><ele>46.0</ele><time>2026-04-24T14:38:42.913Z</time></trkpt><trkpt lat="33.9272517" lon="8.138095"><ele>46.0</ele><time>2026-04-24T14:38:43.912Z</time></trkpt><trkpt lat="33.9271383" lon="8.1380567"><ele>46.0</ele><time>2026-04-24T14:38:45.912Z</time></trkpt><trkpt lat="33.9270183" lon="8.13803"><ele>46.0</ele><time>2026-04-24T14:38:47.913Z</time></trkpt><trkpt lat="33.926945" lon="8.1380017"><ele>46.0</ele><time>2026-04-24T14:38:48.913Z</time></trkpt><trkpt lat="33.9268633" lon="8.1379617"><ele>46.0</ele><time>2026-04-24T14:38:49.913Z</time></trkpt><trkpt lat="33.9267833" lon="8.13792"><ele>46.0</ele><time>2026-04-24T14:38:50.913Z</time></trkpt><trkpt lat="33.9267033" lon="8.1378817"><ele>46.0</ele><time>2026-04-24T14:38:51.913Z</time></trkpt><trkpt lat="33.9266317" lon="8.137855"><ele>46.0</ele><time>2026-04-24T14:38:52.913Z</time></trkpt><trkpt lat="33.92656" lon="8.137835"><ele>45.833333333333336</ele><time>2026-04-24T14:38:53.912Z</time></trkpt><trkpt lat="33.9264817" lon="8.13782"><ele>45.66666666666667</ele><time>2026-04-24T14:38:54.913Z</time></trkpt><trkpt lat="33.9264" lon="8.1377983"><ele>45.5</ele><time>2026-04-24T14:38:55.913Z</time></trkpt><trkpt lat="33.9263233" lon="8.137765"><ele>45.333333333333336</ele><time>2026-04-24T14:38:56.913Z</time></trkpt><trkpt lat="33.9262517" lon="8.1377333"><ele>45.166666666666664</ele><time>2026-04-24T14:38:57.913Z</time></trkpt><trkpt lat="33.92618" lon="8.13771"><ele>45.0</ele><time>2026-04-24T14:38:58.913Z</time></trkpt><trkpt lat="33.9261117" lon="8.1376883"><ele>45.0</ele><time>2026-04-24T14:38:59.913Z</time></trkpt><trkpt lat="33.9260433" lon="8.1376667"><ele>45.0</ele><time>2026-04-24T14:39:00.913Z</time></trkpt><trkpt lat="33.9259783" lon="8.1376383"><ele>45.0</ele><time>2026-04-24T14:39:01.912Z</time></trkpt><trkpt lat="33.92591" lon="8.1376133"><ele>45.0</ele><time>2026-04-24T14:39:02.912Z</time></trkpt><trkpt lat="33.9258433" lon="8.137585"><ele>45.0</ele><time>2026-04-24T14:39:03.913Z</time></trkpt><trkpt lat="33.9257783" lon="8.1375633"><ele>45.0</ele><time>2026-04-24T14:39:04.913Z</time></trkpt><trkpt lat="33.9256633" lon="8.1375283"><ele>45.0</ele><time>2026-04-24T14:39:06.913Z</time></trkpt><trkpt lat="33.92557" lon="8.1375017"><ele>45.0</ele><time>2026-04-24T14:39:08.913Z</time></trkpt><trkpt lat="33.9255017" lon="8.13748"><ele>45.0</ele><time>2026-04-24T14:39:10.912Z</time></trkpt><trkpt lat="33.9254283" lon="8.1374333"><ele>45.0</ele><time>2026-04-24T14:39:14.912Z</time></trkpt><trkpt lat="33.9253483" lon="8.1374083"><ele>45.0</ele><time>2026-04-24T14:39:17.913Z</time></trkpt><trkpt lat="33.9252833" lon="8.1373967"><ele>45.0</ele><time>2026-04-24T14:39:19.912Z</time></trkpt><trkpt lat="33.925195" lon="8.1373833"><ele>45.0</ele><time>2026-04-24T14:39:21.913Z</time></trkpt><trkpt lat="33.9250817" lon="8.137355"><ele>45.0</ele><time>2026-04-24T14:39:23.913Z</time></trkpt><trkpt lat="33.925015" lon="8.1373483"><ele>45.0</ele><time>2026-04-24T14:39:24.913Z</time></trkpt><trkpt lat="33.9249467" lon="8.1373267"><ele>45.0</ele><time>2026-04-24T14:39:25.913Z</time></trkpt><trkpt lat="33.9248583" lon="8.1373017"><ele>45.0</ele><time>2026-04-24T14:39:26.913Z</time></trkpt><trkpt lat="33.924765" lon="8.137265"><ele>45.0</ele><time>2026-04-24T14:39:27.912Z</time></trkpt><trkpt lat="33.9246667" lon="8.137235"><ele>45.2</ele><time>2026-04-24T14:39:28.913Z</time></trkpt><trkpt lat="33.9245633" lon="8.137195"><ele>45.4</ele><time>2026-04-24T14:39:29.912Z</time></trkpt><trkpt lat="33.92446" lon="8.1371533"><ele>45.599999999999994</ele><time>2026-04-24T14:39:30.913Z</time></trkpt><trkpt lat="33.9243583" lon="8.1371217"><ele>45.8</ele><time>2026-04-24T14:39:31.913Z</time></trkpt><trkpt lat="33.9242717" lon="8.1370917"><ele>46.0</ele><time>2026-04-24T14:39:32.913Z</time></trkpt><trkpt lat="33.9241967" lon="8.13707"><ele>46.333333333333336</ele><time>2026-04-24T14:39:33.913Z</time></trkpt><trkpt lat="33.92413" lon="8.1370433"><ele>46.66666666666667</ele><time>2026-04-24T14:39:34.913Z</time></trkpt><trkpt lat="33.92407" lon="8.1370117"><ele>47.0</ele><time>2026-04-24T14:39:35.912Z</time></trkpt><trkpt lat="33.9240133" lon="8.1369783"><ele>47.333333333333336</ele><time>2026-04-24T14:39:36.913Z</time></trkpt><trkpt lat="33.9239183" lon="8.1368717"><ele>47.666666666666664</ele><time>2026-04-24T14:39:38.912Z</time></trkpt><trkpt lat="33.9238783" lon="8.1367983"><ele>48.0</ele><time>2026-04-24T14:39:39.912Z</time></trkpt><trkpt lat="33.9238483" lon="8.136715"><ele>47.99999999999999</ele><time>2026-04-24T14:39:40.913Z</time></trkpt><trkpt lat="33.92382" lon="8.1366333"><ele>48.0</ele><time>2026-04-24T14:39:41.912Z</time></trkpt><trkpt lat="33.92379" lon="8.1365633"><ele>48.0</ele><time>2026-04-24T14:39:42.913Z</time></trkpt><trkpt lat="33.923735" lon="8.1364617"><ele>48.0</ele><time>2026-04-24T14:39:44.913Z</time></trkpt><trkpt lat="33.9237167" lon="8.1363867"><ele>48.0</ele><time>2026-04-24T14:39:46.912Z</time></trkpt><trkpt lat="33.923765" lon="8.1363133"><ele>47.99999999999999</ele><time>2026-04-24T14:39:49.913Z</time></trkpt><trkpt lat="33.9237633" lon="8.136235"><ele>48.0</ele><time>2026-04-24T14:40:45.913Z</time></trkpt><trkpt lat="33.9237183" lon="8.1361783"><ele>48.2</ele><time>2026-04-24T14:40:48.912Z</time></trkpt><trkpt lat="33.9236583" lon="8.1361017"><ele>48.4</ele><time>2026-04-24T14:40:51.912Z</time></trkpt><trkpt lat="33.923615" lon="8.1359967"><ele>48.6</ele><time>2026-04-24T14:40:53.912Z</time></trkpt><trkpt lat="33.92356" lon="8.1358667"><ele>48.800000000000004</ele><time>2026-04-24T14:40:55.913Z</time></trkpt><trkpt lat="33.923525" lon="8.1357883"><ele>49.0</ele><time>2026-04-24T14:40:56.912Z</time></trkpt><trkpt lat="33.9234867" lon="8.1357083"><ele>49.33333333333333</ele><time>2026-04-24T14:40:57.912Z</time></trkpt><trkpt lat="33.923445" lon="8.1356283"><ele>49.666666666666664</ele><time>2026-04-24T14:40:58.913Z</time></trkpt><trkpt lat="33.9234033" lon="8.1355467"><ele>50.0</ele><time>2026-04-24T14:40:59.913Z</time></trkpt><trkpt lat="33.9233617" lon="8.13546"><ele>50.33333333333333</ele><time>2026-04-24T14:41:00.912Z</time></trkpt><trkpt lat="33.9233183" lon="8.13537"><ele>50.666666666666664</ele><time>2026-04-24T14:41:01.912Z</time></trkpt><trkpt lat="33.9232733" lon="8.1352733"><ele>51.0</ele><time>2026-04-24T14:41:02.913Z</time></trkpt><trkpt lat="33.923225" lon="8.135175"><ele>51.0</ele><time>2026-04-24T14:41:03.913Z</time></trkpt><trkpt lat="33.92318" lon="8.1350783"><ele>51.0</ele><time>2026-04-24T14:41:04.913Z</time></trkpt><trkpt lat="33.9231333" lon="8.1349867"><ele>51.0</ele><time>2026-04-24T14:41:05.912Z</time></trkpt><trkpt lat="33.923085" lon="8.1348983"><ele>51.0</ele><time>2026-04-24T14:41:06.913Z</time></trkpt><trkpt lat="33.923035" lon="8.13481"><ele>51.0</ele><time>2026-04-24T14:41:07.913Z</time></trkpt><trkpt lat="33.9229867" lon="8.1347233"><ele>51.0</ele><time>2026-04-24T14:41:08.913Z</time></trkpt><trkpt lat="33.922935" lon="8.134635"><ele>51.166666666666664</ele><time>2026-04-24T14:41:09.912Z</time></trkpt><trkpt lat="33.922885" lon="8.134545"><ele>51.33333333333333</ele><time>2026-04-24T14:41:10.912Z</time></trkpt><trkpt lat="33.922835" lon="8.1344567"><ele>51.5</ele><time>2026-04-24T14:41:11.913Z</time></trkpt><trkpt lat="33.9227833" lon="8.1343717"><ele>51.666666666666664</ele><time>2026-04-24T14:41:12.912Z</time></trkpt><trkpt lat="33.9227333" lon="8.1342883"><ele>51.83333333333333</ele><time>2026-04-24T14:41:13.913Z</time></trkpt><trkpt lat="33.9226867" lon="8.1342067"><ele>52.0</ele><time>2026-04-24T14:41:14.913Z</time></trkpt><trkpt lat="33.92264" lon="8.1341283"><ele>52.0</ele><time>2026-04-24T14:41:15.913Z</time></trkpt><trkpt lat="33.922595" lon="8.13405"><ele>52.0</ele><time>2026-04-24T14:41:16.913Z</time></trkpt><trkpt lat="33.9225517" lon="8.1339817"><ele>52.0</ele><time>2026-04-24T14:41:17.912Z</time></trkpt><trkpt lat="33.9225067" lon="8.1339183"><ele>52.0</ele><time>2026-04-24T14:41:18.913Z</time></trkpt><trkpt lat="33.9224683" lon="8.1338533"><ele>52.0</ele><time>2026-04-24T14:41:19.913Z</time></trkpt><trkpt lat="33.9224367" lon="8.1337833"><ele>52.0</ele><time>2026-04-24T14:41:20.913Z</time></trkpt><trkpt lat="33.9224083" lon="8.1337133"><ele>52.0</ele><time>2026-04-24T14:41:21.912Z</time></trkpt><trkpt lat="33.9223783" lon="8.1336417"><ele>51.8</ele><time>2026-04-24T14:41:22.913Z</time></trkpt><trkpt lat="33.92235" lon="8.1335717"><ele>51.6</ele><time>2026-04-24T14:41:23.913Z</time></trkpt><trkpt lat="33.9223217" lon="8.1335033"><ele>51.4</ele><time>2026-04-24T14:41:24.913Z</time></trkpt><trkpt lat="33.9222733" lon="8.13337"><ele>51.199999999999996</ele><time>2026-04-24T14:41:26.913Z</time></trkpt><trkpt lat="33.92223" lon="8.133245"><ele>51.0</ele><time>2026-04-24T14:41:28.913Z</time></trkpt><trkpt lat="33.9221883" lon="8.1331267"><ele>50.666666666666664</ele><time>2026-04-24T14:41:30.913Z</time></trkpt><trkpt lat="33.9221383" lon="8.1329833"><ele>50.33333333333333</ele><time>2026-04-24T14:41:32.913Z</time></trkpt><trkpt lat="33.92211" lon="8.1329017"><ele>50.0</ele><time>2026-04-24T14:41:33.913Z</time></trkpt><trkpt lat="33.9220833" lon="8.1328217"><ele>49.666666666666664</ele><time>2026-04-24T14:41:34.912Z</time></trkpt><trkpt lat="33.9220567" lon="8.1327367"><ele>49.33333333333333</ele><time>2026-04-24T14:41:35.913Z</time></trkpt><trkpt lat="33.9220317" lon="8.13265"><ele>49.0</ele><time>2026-04-24T14:41:36.912Z</time></trkpt><trkpt lat="33.922005" lon="8.1325733"><ele>48.99999999999999</ele><time>2026-04-24T14:41:37.913Z</time></trkpt><trkpt lat="33.9219867" lon="8.1324933"><ele>49.0</ele><time>2026-04-24T14:41:38.913Z</time></trkpt><trkpt lat="33.9219683" lon="8.132355"><ele>49.0</ele><time>2026-04-24T14:41:40.912Z</time></trkpt><trkpt lat="33.9219633" lon="8.132265"><ele>49.0</ele><time>2026-04-24T14:41:42.912Z</time></trkpt><trkpt lat="33.922005" lon="8.1321967"><ele>48.99999999999999</ele><time>2026-04-24T14:41:45.912Z</time></trkpt><trkpt lat="33.9220733" lon="8.1320983"><ele>49.0</ele><time>2026-04-24T14:46:05.91Z</time></trkpt><trkpt lat="33.9220233" lon="8.1320283"><ele>48.400000000000006</ele><time>2026-04-24T14:46:08.911Z</time></trkpt><trkpt lat="33.9219767" lon="8.1319667"><ele>47.8</ele><time>2026-04-24T14:46:11.91Z</time></trkpt><trkpt lat="33.92191" lon="8.13189"><ele>47.2</ele><time>2026-04-24T15:15:03.904Z</time></trkpt><trkpt lat="33.921835" lon="8.1317817"><ele>46.599999999999994</ele><time>2026-04-24T15:15:07.904Z</time></trkpt><trkpt lat="33.9217817" lon="8.131685"><ele>46.0</ele><time>2026-04-24T15:15:09.903Z</time></trkpt><trkpt lat="33.921735" lon="8.1315533"><ele>46.199999999999996</ele><time>2026-04-24T15:15:11.904Z</time></trkpt><trkpt lat="33.92169" lon="8.131415"><ele>46.4</ele><time>2026-04-24T15:15:13.904Z</time></trkpt><trkpt lat="33.9216517" lon="8.13128"><ele>46.6</ele><time>2026-04-24T15:15:15.903Z</time></trkpt><trkpt lat="33.921615" lon="8.131175"><ele>46.8</ele><time>2026-04-24T15:15:17.904Z</time></trkpt><trkpt lat="33.921595" lon="8.1310667"><ele>47.0</ele><time>2026-04-24T15:15:19.904Z</time></trkpt><trkpt lat="33.9215683" lon="8.1309467"><ele>47.0</ele><time>2026-04-24T15:15:21.903Z</time></trkpt><trkpt lat="33.9215617" lon="8.1308417"><ele>47.0</ele><time>2026-04-24T15:15:23.904Z</time></trkpt><trkpt lat="33.9215517" lon="8.1307133"><ele>47.0</ele><time>2026-04-24T15:15:25.904Z</time></trkpt><trkpt lat="33.9215533" lon="8.1305833"><ele>47.0</ele><time>2026-04-24T15:15:27.903Z</time></trkpt><trkpt lat="33.9215533" lon="8.1304583"><ele>47.0</ele><time>2026-04-24T15:15:29.904Z</time></trkpt><trkpt lat="33.92156" lon="8.1303283"><ele>46.666666666666664</ele><time>2026-04-24T15:15:31.904Z</time></trkpt><trkpt lat="33.92156" lon="8.1302383"><ele>46.33333333333333</ele><time>2026-04-24T15:15:33.904Z</time></trkpt><trkpt lat="33.9215617" lon="8.1301483"><ele>46.0</ele><time>2026-04-24T15:15:36.903Z</time></trkpt><trkpt lat="33.9215533" lon="8.1300617"><ele>45.666666666666664</ele><time>2026-04-24T15:15:41.904Z</time></trkpt><trkpt lat="33.921555" lon="8.1299817"><ele>45.333333333333336</ele><time>2026-04-24T15:15:43.904Z</time></trkpt><trkpt lat="33.9215583" lon="8.1298583"><ele>45.0</ele><time>2026-04-24T15:15:45.903Z</time></trkpt><trkpt lat="33.9215417" lon="8.1297217"><ele>44.8</ele><time>2026-04-24T15:15:47.904Z</time></trkpt><trkpt lat="33.9215367" lon="8.12958"><ele>44.6</ele><time>2026-04-24T15:15:49.903Z</time></trkpt><trkpt lat="33.921535" lon="8.1294433"><ele>44.400000000000006</ele><time>2026-04-24T15:15:51.904Z</time></trkpt><trkpt lat="33.9215233" lon="8.1292967"><ele>44.2</ele><time>2026-04-24T15:15:53.904Z</time></trkpt><trkpt lat="33.9215133" lon="8.12922"><ele>44.0</ele><time>2026-04-24T15:15:54.904Z</time></trkpt><trkpt lat="33.9215117" lon="8.129065"><ele>44.142857142857146</ele><time>2026-04-24T15:15:56.904Z</time></trkpt><trkpt lat="33.9215117" lon="8.128975"><ele>44.285714285714285</ele><time>2026-04-24T15:15:57.904Z</time></trkpt><trkpt lat="33.92151" lon="8.1288917"><ele>44.42857142857143</ele><time>2026-04-24T15:15:58.904Z</time></trkpt><trkpt lat="33.9215117" lon="8.1288067"><ele>44.57142857142857</ele><time>2026-04-24T15:15:59.904Z</time></trkpt><trkpt lat="33.9215067" lon="8.128725"><ele>44.714285714285715</ele><time>2026-04-24T15:16:00.903Z</time></trkpt><trkpt lat="33.9215017" lon="8.1286433"><ele>44.857142857142854</ele><time>2026-04-24T15:16:01.904Z</time></trkpt><trkpt lat="33.9215017" lon="8.12856"><ele>45.0</ele><time>2026-04-24T15:16:02.904Z</time></trkpt><trkpt lat="33.9215067" lon="8.1284183"><ele>45.0</ele><time>2026-04-24T15:16:04.904Z</time></trkpt><trkpt lat="33.9215233" lon="8.128325"><ele>45.0</ele><time>2026-04-24T15:16:06.904Z</time></trkpt><trkpt lat="33.9215583" lon="8.1281633"><ele>45.0</ele><time>2026-04-24T15:17:26.902Z</time></trkpt><trkpt lat="33.921545" lon="8.1280383"><ele>45.0</ele><time>2026-04-24T15:17:28.903Z</time></trkpt><trkpt lat="33.92154" lon="8.1279583"><ele>45.0</ele><time>2026-04-24T15:17:29.903Z</time></trkpt><trkpt lat="33.9215367" lon="8.12787"><ele>45.166666666666664</ele><time>2026-04-24T15:17:30.903Z</time></trkpt><trkpt lat="33.9215317" lon="8.1277767"><ele>45.333333333333336</ele><time>2026-04-24T15:17:31.903Z</time></trkpt><trkpt lat="33.9215267" lon="8.1276833"><ele>45.5</ele><time>2026-04-24T15:17:32.903Z</time></trkpt><trkpt lat="33.9215233" lon="8.12759"><ele>45.66666666666667</ele><time>2026-04-24T15:17:33.903Z</time></trkpt><trkpt lat="33.9215233" lon="8.12749"><ele>45.833333333333336</ele><time>2026-04-24T15:17:34.903Z</time></trkpt><trkpt lat="33.92152" lon="8.127385"><ele>46.0</ele><time>2026-04-24T15:17:35.902Z</time></trkpt><trkpt lat="33.9215133" lon="8.127285"><ele>46.0</ele><time>2026-04-24T15:17:36.903Z</time></trkpt><trkpt lat="33.921505" lon="8.1271883"><ele>46.0</ele><time>2026-04-24T15:17:37.902Z</time></trkpt><trkpt lat="33.92149" lon="8.12709"><ele>46.0</ele><time>2026-04-24T15:17:38.903Z</time></trkpt><trkpt lat="33.9214817" lon="8.1269933"><ele>46.0</ele><time>2026-04-24T15:17:39.903Z</time></trkpt><trkpt lat="33.921475" lon="8.1269067"><ele>46.0</ele><time>2026-04-24T15:17:40.902Z</time></trkpt><trkpt lat="33.921475" lon="8.126805"><ele>46.0</ele><time>2026-04-24T15:17:41.903Z</time></trkpt><trkpt lat="33.9214683" lon="8.1267117"><ele>46.0</ele><time>2026-04-24T15:17:42.902Z</time></trkpt><trkpt lat="33.9214567" lon="8.1266183"><ele>46.0</ele><time>2026-04-24T15:17:43.903Z</time></trkpt><trkpt lat="33.9214517" lon="8.1265183"><ele>46.0</ele><time>2026-04-24T15:17:44.903Z</time></trkpt><trkpt lat="33.9214483" lon="8.1264117"><ele>46.0</ele><time>2026-04-24T15:17:45.902Z</time></trkpt><trkpt lat="33.92144" lon="8.1263067"><ele>46.0</ele><time>2026-04-24T15:17:46.903Z</time></trkpt><trkpt lat="33.9214367" lon="8.1261917"><ele>46.0</ele><time>2026-04-24T15:17:47.903Z</time></trkpt><trkpt lat="33.9214333" lon="8.1260833"><ele>46.16666666666667</ele><time>2026-04-24T15:17:48.903Z</time></trkpt><trkpt lat="33.9214333" lon="8.1259767"><ele>46.333333333333336</ele><time>2026-04-24T15:17:49.903Z</time></trkpt><trkpt lat="33.9214367" lon="8.125875"><ele>46.5</ele><time>2026-04-24T15:17:50.902Z</time></trkpt><trkpt lat="33.921435" lon="8.125775"><ele>46.666666666666664</ele><time>2026-04-24T15:17:51.903Z</time></trkpt><trkpt lat="33.9214283" lon="8.1256733"><ele>46.83333333333333</ele><time>2026-04-24T15:17:52.902Z</time></trkpt><trkpt lat="33.9214267" lon="8.1255667"><ele>47.0</ele><time>2026-04-24T15:17:53.903Z</time></trkpt><trkpt lat="33.92142" lon="8.12546"><ele>47.5</ele><time>2026-04-24T15:17:54.903Z</time></trkpt><trkpt lat="33.9214083" lon="8.1253517"><ele>48.0</ele><time>2026-04-24T15:17:55.903Z</time></trkpt><trkpt lat="33.9214033" lon="8.1252417"><ele>48.5</ele><time>2026-04-24T15:17:56.903Z</time></trkpt><trkpt lat="33.9213883" lon="8.1251467"><ele>49.0</ele><time>2026-04-24T15:17:57.903Z</time></trkpt><trkpt lat="33.92138" lon="8.1250483"><ele>49.50000000000001</ele><time>2026-04-24T15:17:58.903Z</time></trkpt><trkpt lat="33.9213733" lon="8.1249383"><ele>50.0</ele><time>2026-04-24T15:17:59.903Z</time></trkpt><trkpt lat="33.921365" lon="8.124835"><ele>50.66666666666667</ele><time>2026-04-24T15:18:00.903Z</time></trkpt><trkpt lat="33.921365" lon="8.124725"><ele>51.333333333333336</ele><time>2026-04-24T15:18:01.903Z</time></trkpt><trkpt lat="33.9213583" lon="8.1246183"><ele>52.0</ele><time>2026-04-24T15:18:02.902Z</time></trkpt><trkpt lat="33.9213483" lon="8.1245117"><ele>52.66666666666667</ele><time>2026-04-24T15:18:03.902Z</time></trkpt><trkpt lat="33.9213467" lon="8.1244133"><ele>53.333333333333336</ele><time>2026-04-24T15:18:04.902Z</time></trkpt><trkpt lat="33.9213417" lon="8.1243233"><ele>54.0</ele><time>2026-04-24T15:18:05.903Z</time></trkpt><trkpt lat="33.92134" lon="8.1242367"><ele>54.0</ele><time>2026-04-24T15:18:06.903Z</time></trkpt><trkpt lat="33.92134" lon="8.124125"><ele>54.0</ele><time>2026-04-24T15:18:08.903Z</time></trkpt><trkpt lat="33.9212733" lon="8.1240767"><ele>54.0</ele><time>2026-04-24T15:18:15.903Z</time></trkpt><trkpt lat="33.921215" lon="8.12411"><ele>54.0</ele><time>2026-04-24T15:18:18.902Z</time></trkpt><trkpt lat="33.921295" lon="8.1240983"><ele>54.0</ele><time>2026-04-24T15:19:39.903Z</time></trkpt><trkpt lat="33.9213533" lon="8.12401"><ele>54.0</ele><time>2026-04-24T15:19:41.902Z</time></trkpt><trkpt lat="33.9213633" lon="8.123865"><ele>54.333333333333336</ele><time>2026-04-24T15:19:43.903Z</time></trkpt><trkpt lat="33.9213617" lon="8.1237867"><ele>54.66666666666667</ele><time>2026-04-24T15:19:44.903Z</time></trkpt><trkpt lat="33.9213583" lon="8.123705"><ele>55.0</ele><time>2026-04-24T15:19:45.903Z</time></trkpt><trkpt lat="33.92135" lon="8.1235567"><ele>55.333333333333336</ele><time>2026-04-24T15:19:47.902Z</time></trkpt><trkpt lat="33.9213517" lon="8.123475"><ele>55.66666666666667</ele><time>2026-04-24T15:19:48.903Z</time></trkpt><trkpt lat="33.9213483" lon="8.123385"><ele>56.0</ele><time>2026-04-24T15:19:49.902Z</time></trkpt><trkpt lat="33.921345" lon="8.1232983"><ele>56.599999999999994</ele><time>2026-04-24T15:19:50.902Z</time></trkpt><trkpt lat="33.9213433" lon="8.12322"><ele>57.199999999999996</ele><time>2026-04-24T15:19:51.902Z</time></trkpt><trkpt lat="33.9213333" lon="8.1231033"><ele>57.800000000000004</ele><time>2026-04-24T15:19:53.903Z</time></trkpt><trkpt lat="33.9213233" lon="8.1229967"><ele>58.400000000000006</ele><time>2026-04-24T15:19:55.902Z</time></trkpt><trkpt lat="33.921315" lon="8.1228583"><ele>59.0</ele><time>2026-04-24T15:19:57.902Z</time></trkpt><trkpt lat="33.9213" lon="8.1227033"><ele>59.00000000000001</ele><time>2026-04-24T15:19:59.902Z</time></trkpt><trkpt lat="33.9213017" lon="8.1226067"><ele>59.0</ele><time>2026-04-24T15:20:00.901Z</time></trkpt><trkpt lat="33.92131" lon="8.12251"><ele>59.0</ele><time>2026-04-24T15:20:01.902Z</time></trkpt><trkpt lat="33.9213117" lon="8.1224117"><ele>59.0</ele><time>2026-04-24T15:20:02.901Z</time></trkpt><trkpt lat="33.921305" lon="8.1223183"><ele>59.00000000000001</ele><time>2026-04-24T15:20:03.902Z</time></trkpt><trkpt lat="33.9212983" lon="8.1222167"><ele>59.0</ele><time>2026-04-24T15:20:04.902Z</time></trkpt><trkpt lat="33.921295" lon="8.1221133"><ele>59.6</ele><time>2026-04-24T15:20:05.902Z</time></trkpt><trkpt lat="33.921295" lon="8.122"><ele>60.2</ele><time>2026-04-24T15:20:06.902Z</time></trkpt><trkpt lat="33.9212917" lon="8.1218917"><ele>60.800000000000004</ele><time>2026-04-24T15:20:07.902Z</time></trkpt><trkpt lat="33.9212883" lon="8.12178"><ele>61.400000000000006</ele><time>2026-04-24T15:20:08.902Z</time></trkpt><trkpt lat="33.9212883" lon="8.121665"><ele>62.0</ele><time>2026-04-24T15:20:09.901Z</time></trkpt><trkpt lat="33.9212883" lon="8.1215567"><ele>62.16666666666667</ele><time>2026-04-24T15:20:10.902Z</time></trkpt><trkpt lat="33.9212683" lon="8.1214517"><ele>62.333333333333336</ele><time>2026-04-24T15:20:11.902Z</time></trkpt><trkpt lat="33.9212517" lon="8.1213483"><ele>62.5</ele><time>2026-04-24T15:20:12.901Z</time></trkpt><trkpt lat="33.9212367" lon="8.1212417"><ele>62.66666666666667</ele><time>2026-04-24T15:20:13.902Z</time></trkpt><trkpt lat="33.9212267" lon="8.121135"><ele>62.833333333333336</ele><time>2026-04-24T15:20:14.902Z</time></trkpt><trkpt lat="33.9212167" lon="8.1210233"><ele>63.0</ele><time>2026-04-24T15:20:15.902Z</time></trkpt><trkpt lat="33.9212167" lon="8.1209067"><ele>63.0</ele><time>2026-04-24T15:20:16.902Z</time></trkpt><trkpt lat="33.9212133" lon="8.12079"><ele>63.0</ele><time>2026-04-24T15:20:17.902Z</time></trkpt><trkpt lat="33.92121" lon="8.12068"><ele>63.0</ele><time>2026-04-24T15:20:18.901Z</time></trkpt><trkpt lat="33.9212017" lon="8.120565"><ele>63.0</ele><time>2026-04-24T15:20:19.902Z</time></trkpt><trkpt lat="33.9211983" lon="8.120465"><ele>63.0</ele><time>2026-04-24T15:20:20.902Z</time></trkpt><trkpt lat="33.92119" lon="8.120365"><ele>64.0</ele><time>2026-04-24T15:20:21.902Z</time></trkpt><trkpt lat="33.92118" lon="8.1202683"><ele>65.0</ele><time>2026-04-24T15:20:22.902Z</time></trkpt><trkpt lat="33.92117" lon="8.12017"><ele>66.0</ele><time>2026-04-24T15:20:23.902Z</time></trkpt><trkpt lat="33.9211667" lon="8.1200717"><ele>67.0</ele><time>2026-04-24T15:20:24.902Z</time></trkpt><trkpt lat="33.9211617" lon="8.11997"><ele>68.0</ele><time>2026-04-24T15:20:25.902Z</time></trkpt><trkpt lat="33.9211633" lon="8.1198733"><ele>69.0</ele><time>2026-04-24T15:20:26.902Z</time></trkpt><trkpt lat="33.9211617" lon="8.119775"><ele>69.5</ele><time>2026-04-24T15:20:27.902Z</time></trkpt><trkpt lat="33.9211583" lon="8.1196817"><ele>70.0</ele><time>2026-04-24T15:20:28.902Z</time></trkpt><trkpt lat="33.92115" lon="8.1195883"><ele>70.5</ele><time>2026-04-24T15:20:29.902Z</time></trkpt><trkpt lat="33.9211467" lon="8.11949"><ele>71.0</ele><time>2026-04-24T15:20:30.901Z</time></trkpt><trkpt lat="33.92115" lon="8.1193817"><ele>71.5</ele><time>2026-04-24T15:20:31.901Z</time></trkpt><trkpt lat="33.92115" lon="8.11928"><ele>72.0</ele><time>2026-04-24T15:20:32.902Z</time></trkpt><trkpt lat="33.9211517" lon="8.1191683"><ele>72.0</ele><time>2026-04-24T15:20:33.902Z</time></trkpt><trkpt lat="33.92115" lon="8.1190683"><ele>72.0</ele><time>2026-04-24T15:20:34.901Z</time></trkpt><trkpt lat="33.9211533" lon="8.1189633"><ele>72.0</ele><time>2026-04-24T15:20:35.902Z</time></trkpt><trkpt lat="33.921155" lon="8.11886"><ele>72.0</ele><time>2026-04-24T15:20:36.902Z</time></trkpt><trkpt lat="33.9211483" lon="8.1187517"><ele>72.0</ele><time>2026-04-24T15:20:37.902Z</time></trkpt><trkpt lat="33.9211467" lon="8.118635"><ele>72.0</ele><time>2026-04-24T15:20:38.902Z</time></trkpt><trkpt lat="33.92114" lon="8.11852"><ele>72.2</ele><time>2026-04-24T15:20:39.902Z</time></trkpt><trkpt lat="33.921135" lon="8.118405"><ele>72.4</ele><time>2026-04-24T15:20:40.902Z</time></trkpt><trkpt lat="33.9211317" lon="8.1182817"><ele>72.6</ele><time>2026-04-24T15:20:41.902Z</time></trkpt><trkpt lat="33.921125" lon="8.1181633"><ele>72.8</ele><time>2026-04-24T15:20:42.902Z</time></trkpt><trkpt lat="33.9211183" lon="8.1180483"><ele>73.0</ele><time>2026-04-24T15:20:43.902Z</time></trkpt><trkpt lat="33.9211167" lon="8.117925"><ele>73.6</ele><time>2026-04-24T15:20:44.902Z</time></trkpt><trkpt lat="33.9211083" lon="8.1178067"><ele>74.19999999999999</ele><time>2026-04-24T15:20:45.902Z</time></trkpt><trkpt lat="33.921105" lon="8.1176867"><ele>74.8</ele><time>2026-04-24T15:20:46.902Z</time></trkpt><trkpt lat="33.921095" lon="8.1175583"><ele>75.39999999999999</ele><time>2026-04-24T15:20:47.902Z</time></trkpt><trkpt lat="33.921085" lon="8.11742"><ele>76.0</ele><time>2026-04-24T15:20:48.902Z</time></trkpt><trkpt lat="33.9210683" lon="8.1172783"><ele>77.25</ele><time>2026-04-24T15:20:49.902Z</time></trkpt><trkpt lat="33.9210467" lon="8.1171417"><ele>78.5</ele><time>2026-04-24T15:20:50.901Z</time></trkpt><trkpt lat="33.921025" lon="8.1170017"><ele>79.75</ele><time>2026-04-24T15:20:51.902Z</time></trkpt><trkpt lat="33.9210033" lon="8.1168633"><ele>81.0</ele><time>2026-04-24T15:20:52.902Z</time></trkpt><trkpt lat="33.9209733" lon="8.116725"><ele>81.0</ele><time>2026-04-24T15:20:53.901Z</time></trkpt><trkpt lat="33.9209433" lon="8.1165833"><ele>81.0</ele><time>2026-04-24T15:20:54.902Z</time></trkpt><trkpt lat="33.9209067" lon="8.11645"><ele>81.0</ele><time>2026-04-24T15:20:55.902Z</time></trkpt><trkpt lat="33.920875" lon="8.1163117"><ele>81.0</ele><time>2026-04-24T15:20:56.902Z</time></trkpt><trkpt lat="33.920845" lon="8.11617"><ele>81.75</ele><time>2026-04-24T15:20:57.902Z</time></trkpt><trkpt lat="33.92082" lon="8.11602"><ele>82.5</ele><time>2026-04-24T15:20:58.902Z</time></trkpt><trkpt lat="33.920795" lon="8.115875"><ele>83.25</ele><time>2026-04-24T15:20:59.902Z</time></trkpt><trkpt lat="33.9207617" lon="8.1157383"><ele>84.0</ele><time>2026-04-24T15:21:00.902Z</time></trkpt><trkpt lat="33.92073" lon="8.1156033"><ele>84.4</ele><time>2026-04-24T15:21:01.901Z</time></trkpt><trkpt lat="33.9207083" lon="8.1154833"><ele>84.80000000000001</ele><time>2026-04-24T15:21:02.902Z</time></trkpt><trkpt lat="33.920685" lon="8.1153733"><ele>85.19999999999999</ele><time>2026-04-24T15:21:03.902Z</time></trkpt><trkpt lat="33.9206567" lon="8.1152783"><ele>85.6</ele><time>2026-04-24T15:21:04.902Z</time></trkpt><trkpt lat="33.9206417" lon="8.1151717"><ele>86.0</ele><time>2026-04-24T15:21:05.902Z</time></trkpt><trkpt lat="33.9206183" lon="8.1150667"><ele>86.0</ele><time>2026-04-24T15:21:06.902Z</time></trkpt><trkpt lat="33.9205933" lon="8.1149667"><ele>86.0</ele><time>2026-04-24T15:21:07.902Z</time></trkpt><trkpt lat="33.920565" lon="8.114855"><ele>86.0</ele><time>2026-04-24T15:21:08.902Z</time></trkpt><trkpt lat="33.9205433" lon="8.1147317"><ele>86.0</ele><time>2026-04-24T15:21:09.901Z</time></trkpt><trkpt lat="33.9205167" lon="8.11461"><ele>86.0</ele><time>2026-04-24T15:21:10.902Z</time></trkpt><trkpt lat="33.920495" lon="8.1144883"><ele>86.0</ele><time>2026-04-24T15:21:11.901Z</time></trkpt><trkpt lat="33.9204633" lon="8.11436"><ele>86.0</ele><time>2026-04-24T15:21:12.902Z</time></trkpt><trkpt lat="33.9204367" lon="8.1142283"><ele>86.0</ele><time>2026-04-24T15:21:13.902Z</time></trkpt><trkpt lat="33.920405" lon="8.1141"><ele>86.0</ele><time>2026-04-24T15:21:14.902Z</time></trkpt><trkpt lat="33.920375" lon="8.1139583"><ele>86.0</ele><time>2026-04-24T15:21:15.902Z</time></trkpt><trkpt lat="33.9203433" lon="8.1138083"><ele>86.0</ele><time>2026-04-24T15:21:16.902Z</time></trkpt><trkpt lat="33.92032" lon="8.1136567"><ele>86.0</ele><time>2026-04-24T15:21:17.902Z</time></trkpt><trkpt lat="33.920285" lon="8.1135067"><ele>86.0</ele><time>2026-04-24T15:21:18.902Z</time></trkpt><trkpt lat="33.920255" lon="8.11336"><ele>86.25</ele><time>2026-04-24T15:21:19.902Z</time></trkpt><trkpt lat="33.9202217" lon="8.1132167"><ele>86.5</ele><time>2026-04-24T15:21:20.902Z</time></trkpt><trkpt lat="33.9201867" lon="8.1130583"><ele>86.75</ele><time>2026-04-24T15:21:21.902Z</time></trkpt><trkpt lat="33.9201567" lon="8.1129067"><ele>87.0</ele><time>2026-04-24T15:21:22.902Z</time></trkpt><trkpt lat="33.9201233" lon="8.11276"><ele>87.0</ele><time>2026-04-24T15:21:23.902Z</time></trkpt><trkpt lat="33.920085" lon="8.1126167"><ele>87.0</ele><time>2026-04-24T15:21:24.902Z</time></trkpt><trkpt lat="33.920055" lon="8.1124683"><ele>87.0</ele><time>2026-04-24T15:21:25.902Z</time></trkpt><trkpt lat="33.92002" lon="8.11233"><ele>87.0</ele><time>2026-04-24T15:21:26.902Z</time></trkpt><trkpt lat="33.9199883" lon="8.1121867"><ele>87.0</ele><time>2026-04-24T15:21:27.902Z</time></trkpt><trkpt lat="33.9199533" lon="8.1120483"><ele>87.0</ele><time>2026-04-24T15:21:28.901Z</time></trkpt><trkpt lat="33.919925" lon="8.111905"><ele>87.0</ele><time>2026-04-24T15:21:29.901Z</time></trkpt><trkpt lat="33.9198933" lon="8.1117783"><ele>87.0</ele><time>2026-04-24T15:21:30.902Z</time></trkpt><trkpt lat="33.9198617" lon="8.1116483"><ele>87.0</ele><time>2026-04-24T15:21:31.902Z</time></trkpt><trkpt lat="33.9198333" lon="8.1115283"><ele>87.0</ele><time>2026-04-24T15:21:32.902Z</time></trkpt><trkpt lat="33.9198083" lon="8.11143"><ele>87.0</ele><time>2026-04-24T15:21:33.902Z</time></trkpt><trkpt lat="33.9197883" lon="8.1113467"><ele>87.0</ele><time>2026-04-24T15:21:34.902Z</time></trkpt><trkpt lat="33.9197683" lon="8.1112733"><ele>87.0</ele><time>2026-04-24T15:21:35.901Z</time></trkpt><trkpt lat="33.9197383" lon="8.1112033"><ele>87.0</ele><time>2026-04-24T15:21:36.902Z</time></trkpt><trkpt lat="33.919675" lon="8.1111183"><ele>87.0</ele><time>2026-04-24T15:21:38.901Z</time></trkpt><trkpt lat="33.919575" lon="8.1111267"><ele>87.0</ele><time>2026-04-24T15:21:40.901Z</time></trkpt><trkpt lat="33.91946" lon="8.111215"><ele>87.0</ele><time>2026-04-24T15:21:42.902Z</time></trkpt><trkpt lat="33.919385" lon="8.111265"><ele>87.0</ele><time>2026-04-24T15:21:43.902Z</time></trkpt><trkpt lat="33.9192933" lon="8.1113033"><ele>87.0</ele><time>2026-04-24T15:21:44.902Z</time></trkpt><trkpt lat="33.9191917" lon="8.1113333"><ele>87.19999999999999</ele><time>2026-04-24T15:21:45.901Z</time></trkpt><trkpt lat="33.919095" lon="8.1113633"><ele>87.4</ele><time>2026-04-24T15:21:46.902Z</time></trkpt><trkpt lat="33.9189933" lon="8.1114017"><ele>87.6</ele><time>2026-04-24T15:21:47.902Z</time></trkpt><trkpt lat="33.9188883" lon="8.1114267"><ele>87.80000000000001</ele><time>2026-04-24T15:21:48.901Z</time></trkpt><trkpt lat="33.918775" lon="8.111455"><ele>88.0</ele><time>2026-04-24T15:21:49.901Z</time></trkpt><trkpt lat="33.91866" lon="8.11148"><ele>88.0</ele><time>2026-04-24T15:21:50.902Z</time></trkpt><trkpt lat="33.9185517" lon="8.1115117"><ele>88.0</ele><time>2026-04-24T15:21:51.901Z</time></trkpt><trkpt lat="33.91844" lon="8.1115433"><ele>88.0</ele><time>2026-04-24T15:21:52.902Z</time></trkpt><trkpt lat="33.9183267" lon="8.1115683"><ele>88.0</ele><time>2026-04-24T15:21:53.901Z</time></trkpt><trkpt lat="33.9182133" lon="8.1115883"><ele>87.5</ele><time>2026-04-24T15:21:54.902Z</time></trkpt><trkpt lat="33.9180983" lon="8.111605"><ele>87.0</ele><time>2026-04-24T15:21:55.902Z</time></trkpt><trkpt lat="33.917985" lon="8.11163"><ele>86.5</ele><time>2026-04-24T15:21:56.902Z</time></trkpt><trkpt lat="33.917865" lon="8.1116333"><ele>86.0</ele><time>2026-04-24T15:21:57.901Z</time></trkpt><trkpt lat="33.9177417" lon="8.1116433"><ele>86.0</ele><time>2026-04-24T15:21:58.902Z</time></trkpt><trkpt lat="33.9176183" lon="8.1116467"><ele>86.0</ele><time>2026-04-24T15:21:59.901Z</time></trkpt><trkpt lat="33.9174883" lon="8.1116567"><ele>86.0</ele><time>2026-04-24T15:22:00.902Z</time></trkpt><trkpt lat="33.9173667" lon="8.11167"><ele>86.0</ele><time>2026-04-24T15:22:01.901Z</time></trkpt><trkpt lat="33.9172417" lon="8.111675"><ele>86.0</ele><time>2026-04-24T15:22:02.902Z</time></trkpt><trkpt lat="33.9171083" lon="8.11168"><ele>86.0</ele><time>2026-04-24T15:22:03.902Z</time></trkpt><trkpt lat="33.9169733" lon="8.1116933"><ele>86.0</ele><time>2026-04-24T15:22:04.902Z</time></trkpt><trkpt lat="33.916845" lon="8.1117017"><ele>86.0</ele><time>2026-04-24T15:22:05.902Z</time></trkpt><trkpt lat="33.9167133" lon="8.1117083"><ele>85.75</ele><time>2026-04-24T15:22:06.902Z</time></trkpt><trkpt lat="33.9165783" lon="8.1117117"><ele>85.5</ele><time>2026-04-24T15:22:07.902Z</time></trkpt><trkpt lat="33.9164433" lon="8.1117217"><ele>85.25</ele><time>2026-04-24T15:22:08.901Z</time></trkpt><trkpt lat="33.9163067" lon="8.11173"><ele>85.0</ele><time>2026-04-24T15:22:09.902Z</time></trkpt><trkpt lat="33.9161717" lon="8.1117467"><ele>85.0</ele><time>2026-04-24T15:22:10.902Z</time></trkpt><trkpt lat="33.916035" lon="8.11176"><ele>85.0</ele><time>2026-04-24T15:22:11.902Z</time></trkpt><trkpt lat="33.915895" lon="8.11178"><ele>85.0</ele><time>2026-04-24T15:22:12.902Z</time></trkpt><trkpt lat="33.9157617" lon="8.1117933"><ele>85.0</ele><time>2026-04-24T15:22:13.902Z</time></trkpt><trkpt lat="33.9156167" lon="8.1118083"><ele>83.75</ele><time>2026-04-24T15:22:14.901Z</time></trkpt><trkpt lat="33.91547" lon="8.1118133"><ele>82.5</ele><time>2026-04-24T15:22:15.902Z</time></trkpt><trkpt lat="33.91533" lon="8.1118367"><ele>81.25</ele><time>2026-04-24T15:22:16.901Z</time></trkpt><trkpt lat="33.9151917" lon="8.11187"><ele>80.0</ele><time>2026-04-24T15:22:17.902Z</time></trkpt><trkpt lat="33.9150567" lon="8.1119083"><ele>79.5</ele><time>2026-04-24T15:22:18.902Z</time></trkpt><trkpt lat="33.9149233" lon="8.1119467"><ele>79.0</ele><time>2026-04-24T15:22:19.902Z</time></trkpt><trkpt lat="33.9147967" lon="8.1119983"><ele>78.5</ele><time>2026-04-24T15:22:20.901Z</time></trkpt><trkpt lat="33.91467" lon="8.1120683"><ele>78.0</ele><time>2026-04-24T15:22:21.902Z</time></trkpt><trkpt lat="33.9145517" lon="8.1121283"><ele>78.0</ele><time>2026-04-24T15:22:22.902Z</time></trkpt><trkpt lat="33.914435" lon="8.1122017"><ele>78.0</ele><time>2026-04-24T15:22:23.901Z</time></trkpt><trkpt lat="33.9143233" lon="8.112275"><ele>78.0</ele><time>2026-04-24T15:22:24.901Z</time></trkpt><trkpt lat="33.9142083" lon="8.1123567"><ele>78.0</ele><time>2026-04-24T15:22:25.902Z</time></trkpt><trkpt lat="33.9141017" lon="8.1124433"><ele>78.25</ele><time>2026-04-24T15:22:26.902Z</time></trkpt><trkpt lat="33.9139967" lon="8.1125333"><ele>78.5</ele><time>2026-04-24T15:22:27.901Z</time></trkpt><trkpt lat="33.9138983" lon="8.1126067"><ele>78.75</ele><time>2026-04-24T15:22:28.902Z</time></trkpt><trkpt lat="33.9138017" lon="8.1126667"><ele>79.0</ele><time>2026-04-24T15:22:29.902Z</time></trkpt><trkpt lat="33.9137083" lon="8.1127217"><ele>79.0</ele><time>2026-04-24T15:22:30.901Z</time></trkpt><trkpt lat="33.913615" lon="8.11277"><ele>79.0</ele><time>2026-04-24T15:22:31.902Z</time></trkpt><trkpt lat="33.91352" lon="8.1128233"><ele>79.0</ele><time>2026-04-24T15:22:32.902Z</time></trkpt><trkpt lat="33.9134217" lon="8.11288"><ele>79.0</ele><time>2026-04-24T15:22:33.902Z</time></trkpt><trkpt lat="33.9133183" lon="8.1129433"><ele>79.0</ele><time>2026-04-24T15:22:34.901Z</time></trkpt><trkpt lat="33.913225" lon="8.1130167"><ele>79.2</ele><time>2026-04-24T15:22:35.901Z</time></trkpt><trkpt lat="33.9131417" lon="8.1131083"><ele>79.4</ele><time>2026-04-24T15:22:36.902Z</time></trkpt><trkpt lat="33.9130617" lon="8.1131983"><ele>79.6</ele><time>2026-04-24T15:22:37.901Z</time></trkpt><trkpt lat="33.9130017" lon="8.1133033"><ele>79.8</ele><time>2026-04-24T15:22:38.902Z</time></trkpt><trkpt lat="33.9129533" lon="8.1134283"><ele>80.0</ele><time>2026-04-24T15:22:39.901Z</time></trkpt><trkpt lat="33.912935" lon="8.1135583"><ele>80.0</ele><time>2026-04-24T15:22:40.902Z</time></trkpt><trkpt lat="33.9129333" lon="8.1136817"><ele>80.0</ele><time>2026-04-24T15:22:41.902Z</time></trkpt><trkpt lat="33.912955" lon="8.1137833"><ele>80.0</ele><time>2026-04-24T15:22:42.901Z</time></trkpt><trkpt lat="33.9129767" lon="8.113875"><ele>80.0</ele><time>2026-04-24T15:22:43.902Z</time></trkpt><trkpt lat="33.9130033" lon="8.113965"><ele>80.0</ele><time>2026-04-24T15:22:44.902Z</time></trkpt><trkpt lat="33.913025" lon="8.1140417"><ele>80.0</ele><time>2026-04-24T15:22:45.902Z</time></trkpt><trkpt lat="33.9130617" lon="8.1141367"><ele>80.0</ele><time>2026-04-24T15:22:47.901Z</time></trkpt><trkpt lat="33.9130083" lon="8.1142067"><ele>80.0</ele><time>2026-04-24T15:22:51.902Z</time></trkpt><trkpt lat="33.9129367" lon="8.11415"><ele>80.0</ele><time>2026-04-24T15:22:54.901Z</time></trkpt><trkpt lat="33.912875" lon="8.1140417"><ele>80.0</ele><time>2026-04-24T15:22:56.902Z</time></trkpt><trkpt lat="33.9128333" lon="8.113975"><ele>80.0</ele><time>2026-04-24T15:22:57.902Z</time></trkpt><trkpt lat="33.9127883" lon="8.113905"><ele>80.0</ele><time>2026-04-24T15:22:58.902Z</time></trkpt><trkpt lat="33.9127417" lon="8.1138383"><ele>80.0</ele><time>2026-04-24T15:22:59.902Z</time></trkpt><trkpt lat="33.9126717" lon="8.1137517"><ele>80.0</ele><time>2026-04-24T15:23:01.902Z</time></trkpt><trkpt lat="33.912635" lon="8.1136833"><ele>80.0</ele><time>2026-04-24T15:23:03.902Z</time></trkpt><trkpt lat="33.9125883" lon="8.1136083"><ele>80.0</ele><time>2026-04-24T15:23:06.902Z</time></trkpt><trkpt lat="33.9125167" lon="8.1136667"><ele>80.0</ele><time>2026-04-24T15:23:27.901Z</time></trkpt><trkpt lat="33.9125183" lon="8.113745"><ele>80.0</ele><time>2026-04-24T15:23:30.902Z</time></trkpt><trkpt lat="33.9125517" lon="8.113815"><ele>70.0</ele><time>2026-04-24T15:23:33.902Z</time></trkpt><trkpt lat="33.91262" lon="8.1138567"><ele>80.0</ele><time>2026-04-24T15:23:43.901Z</time></trkpt></trkseg></trk></gpx>